<?xml version="1.0" encoding="UTF-8" standalone="no" ?>
<gpx xmlns="http://www.topografix.com/GPX/1/1" xmlns:xsi="http://www.w3.org/2001/XMLSchema-instance" xsi:schemaLocation="http://www.topografix.com/GPX/1/1 http://www.topografix.com/GPX/1/1/gpx.xsd" version="1.1" creator="VisuGPX - https://www.visugpx.com">
  <metadata>
    <name>Digne-les-Bains</name>
    <desc><![CDATA[
]]></desc>
  </metadata>
  <trk>
    <name><![CDATA[Digne-les-Bains]]></name>
    <trkseg>
      <trkpt lat="44.09018" lon="6.23644">
        <ele>642.046</ele>
        <time>2022-08-24T11:34:07Z</time>
      </trkpt>
      <trkpt lat="44.09018" lon="6.23646">
        <ele>642.088</ele>
        <time>2022-08-24T11:34:08Z</time>
      </trkpt>
      <trkpt lat="44.09017" lon="6.23648">
        <ele>642.016</ele>
        <time>2022-08-24T11:34:09Z</time>
      </trkpt>
      <trkpt lat="44.09016" lon="6.23653">
        <ele>642.809</ele>
        <time>2022-08-24T11:34:11Z</time>
      </trkpt>
      <trkpt lat="44.09015" lon="6.23656">
        <ele>643.465</ele>
        <time>2022-08-24T11:34:12Z</time>
      </trkpt>
      <trkpt lat="44.09016" lon="6.23663">
        <ele>644.635</ele>
        <time>2022-08-24T11:34:15Z</time>
      </trkpt>
      <trkpt lat="44.09017" lon="6.23665">
        <ele>644.845</ele>
        <time>2022-08-24T11:34:17Z</time>
      </trkpt>
      <trkpt lat="44.09016" lon="6.23669">
        <ele>644.831</ele>
        <time>2022-08-24T11:34:19Z</time>
      </trkpt>
      <trkpt lat="44.09015" lon="6.23669">
        <ele>644.884</ele>
        <time>2022-08-24T11:34:20Z</time>
      </trkpt>
      <trkpt lat="44.09012" lon="6.23665">
        <ele>644.817</ele>
        <time>2022-08-24T11:34:23Z</time>
      </trkpt>
      <trkpt lat="44.09013" lon="6.23663">
        <ele>644.893</ele>
        <time>2022-08-24T11:34:24Z</time>
      </trkpt>
      <trkpt lat="44.09013" lon="6.2366">
        <ele>644.817</ele>
        <time>2022-08-24T11:34:25Z</time>
      </trkpt>
      <trkpt lat="44.09013" lon="6.23655">
        <ele>643.45</ele>
        <time>2022-08-24T11:34:28Z</time>
      </trkpt>
      <trkpt lat="44.09013" lon="6.23655">
        <ele>643.431</ele>
        <time>2022-08-24T11:34:29Z</time>
      </trkpt>
      <trkpt lat="44.09013" lon="6.23654">
        <ele>643.461</ele>
        <time>2022-08-24T11:34:30Z</time>
      </trkpt>
      <trkpt lat="44.09016" lon="6.23648">
        <ele>643.207</ele>
        <time>2022-08-24T11:34:33Z</time>
      </trkpt>
      <trkpt lat="44.09017" lon="6.23646">
        <ele>642.009</ele>
        <time>2022-08-24T11:34:34Z</time>
      </trkpt>
      <trkpt lat="44.09018" lon="6.23644">
        <ele>642.024</ele>
        <time>2022-08-24T11:34:35Z</time>
      </trkpt>
      <trkpt lat="44.09019" lon="6.2364">
        <ele>641.474</ele>
        <time>2022-08-24T11:34:39Z</time>
      </trkpt>
      <trkpt lat="44.09017" lon="6.2364">
        <ele>640.674</ele>
        <time>2022-08-24T11:36:43Z</time>
      </trkpt>
      <trkpt lat="44.09016" lon="6.23648">
        <ele>640.69</ele>
        <time>2022-08-24T11:36:46Z</time>
      </trkpt>
      <trkpt lat="44.09013" lon="6.2366">
        <ele>641.693</ele>
        <time>2022-08-24T11:36:50Z</time>
      </trkpt>
      <trkpt lat="44.09012" lon="6.23664">
        <ele>640.676</ele>
        <time>2022-08-24T11:36:51Z</time>
      </trkpt>
      <trkpt lat="44.09009" lon="6.23668">
        <ele>640.622</ele>
        <time>2022-08-24T11:36:53Z</time>
      </trkpt>
      <trkpt lat="44.09005" lon="6.23673">
        <ele>640.846</ele>
        <time>2022-08-24T11:36:57Z</time>
      </trkpt>
      <trkpt lat="44.09003" lon="6.23676">
        <ele>640.849</ele>
        <time>2022-08-24T11:36:59Z</time>
      </trkpt>
      <trkpt lat="44.09002" lon="6.23677">
        <ele>640.888</ele>
        <time>2022-08-24T11:37:00Z</time>
      </trkpt>
      <trkpt lat="44.08998" lon="6.23687">
        <ele>640.824</ele>
        <time>2022-08-24T11:37:04Z</time>
      </trkpt>
      <trkpt lat="44.08998" lon="6.23689">
        <ele>640.826</ele>
        <time>2022-08-24T11:37:05Z</time>
      </trkpt>
      <trkpt lat="44.08996" lon="6.23694">
        <ele>640.809</ele>
        <time>2022-08-24T11:37:07Z</time>
      </trkpt>
      <trkpt lat="44.08997" lon="6.237">
        <ele>640.649</ele>
        <time>2022-08-24T11:37:09Z</time>
      </trkpt>
      <trkpt lat="44.09001" lon="6.23706">
        <ele>640.869</ele>
        <time>2022-08-24T11:37:11Z</time>
      </trkpt>
      <trkpt lat="44.09006" lon="6.23712">
        <ele>640.899</ele>
        <time>2022-08-24T11:37:13Z</time>
      </trkpt>
      <trkpt lat="44.09007" lon="6.23716">
        <ele>640.895</ele>
        <time>2022-08-24T11:37:14Z</time>
      </trkpt>
      <trkpt lat="44.09003" lon="6.23742">
        <ele>640.498</ele>
        <time>2022-08-24T11:37:19Z</time>
      </trkpt>
      <trkpt lat="44.09001" lon="6.23753">
        <ele>640.461</ele>
        <time>2022-08-24T11:37:21Z</time>
      </trkpt>
      <trkpt lat="44.08998" lon="6.23769">
        <ele>640.497</ele>
        <time>2022-08-24T11:37:24Z</time>
      </trkpt>
      <trkpt lat="44.08996" lon="6.23781">
        <ele>640.491</ele>
        <time>2022-08-24T11:37:26Z</time>
      </trkpt>
      <trkpt lat="44.08987" lon="6.23819">
        <ele>640.494</ele>
        <time>2022-08-24T11:37:32Z</time>
      </trkpt>
      <trkpt lat="44.08985" lon="6.23825">
        <ele>640.661</ele>
        <time>2022-08-24T11:37:33Z</time>
      </trkpt>
      <trkpt lat="44.08983" lon="6.23837">
        <ele>640.821</ele>
        <time>2022-08-24T11:37:35Z</time>
      </trkpt>
      <trkpt lat="44.08975" lon="6.23878">
        <ele>641.213</ele>
        <time>2022-08-24T11:37:42Z</time>
      </trkpt>
      <trkpt lat="44.0897" lon="6.239">
        <ele>641.209</ele>
        <time>2022-08-24T11:37:46Z</time>
      </trkpt>
      <trkpt lat="44.08969" lon="6.23906">
        <ele>641.417</ele>
        <time>2022-08-24T11:37:48Z</time>
      </trkpt>
      <trkpt lat="44.08967" lon="6.23918">
        <ele>641.437</ele>
        <time>2022-08-24T11:37:49Z</time>
      </trkpt>
      <trkpt lat="44.08967" lon="6.23924">
        <ele>641.657</ele>
        <time>2022-08-24T11:37:50Z</time>
      </trkpt>
      <trkpt lat="44.08966" lon="6.23931">
        <ele>641.633</ele>
        <time>2022-08-24T11:37:51Z</time>
      </trkpt>
      <trkpt lat="44.08966" lon="6.23937">
        <ele>641.616</ele>
        <time>2022-08-24T11:37:52Z</time>
      </trkpt>
      <trkpt lat="44.08965" lon="6.23956">
        <ele>641.889</ele>
        <time>2022-08-24T11:37:55Z</time>
      </trkpt>
      <trkpt lat="44.08965" lon="6.23963">
        <ele>641.815</ele>
        <time>2022-08-24T11:37:56Z</time>
      </trkpt>
      <trkpt lat="44.08965" lon="6.2397">
        <ele>641.819</ele>
        <time>2022-08-24T11:37:57Z</time>
      </trkpt>
      <trkpt lat="44.08971" lon="6.24015">
        <ele>642.852</ele>
        <time>2022-08-24T11:38:04Z</time>
      </trkpt>
      <trkpt lat="44.08982" lon="6.24051">
        <ele>643.814</ele>
        <time>2022-08-24T11:38:10Z</time>
      </trkpt>
      <trkpt lat="44.08988" lon="6.24068">
        <ele>644.254</ele>
        <time>2022-08-24T11:38:13Z</time>
      </trkpt>
      <trkpt lat="44.08996" lon="6.24085">
        <ele>644.609</ele>
        <time>2022-08-24T11:38:16Z</time>
      </trkpt>
      <trkpt lat="44.08999" lon="6.2409">
        <ele>644.809</ele>
        <time>2022-08-24T11:38:17Z</time>
      </trkpt>
      <trkpt lat="44.09018" lon="6.2413">
        <ele>644.892</ele>
        <time>2022-08-24T11:38:24Z</time>
      </trkpt>
      <trkpt lat="44.09027" lon="6.24147">
        <ele>645.052</ele>
        <time>2022-08-24T11:38:27Z</time>
      </trkpt>
      <trkpt lat="44.09049" lon="6.2419">
        <ele>645.682</ele>
        <time>2022-08-24T11:38:35Z</time>
      </trkpt>
      <trkpt lat="44.09063" lon="6.24218">
        <ele>646.098</ele>
        <time>2022-08-24T11:38:40Z</time>
      </trkpt>
      <trkpt lat="44.09071" lon="6.24235">
        <ele>646.461</ele>
        <time>2022-08-24T11:38:43Z</time>
      </trkpt>
      <trkpt lat="44.09083" lon="6.24256">
        <ele>646.624</ele>
        <time>2022-08-24T11:38:47Z</time>
      </trkpt>
      <trkpt lat="44.09089" lon="6.24268">
        <ele>646.62</ele>
        <time>2022-08-24T11:38:49Z</time>
      </trkpt>
      <trkpt lat="44.09103" lon="6.24295">
        <ele>647.284</ele>
        <time>2022-08-24T11:38:54Z</time>
      </trkpt>
      <trkpt lat="44.09105" lon="6.243">
        <ele>647.217</ele>
        <time>2022-08-24T11:38:55Z</time>
      </trkpt>
      <trkpt lat="44.09113" lon="6.24319">
        <ele>647.643</ele>
        <time>2022-08-24T11:39:00Z</time>
      </trkpt>
      <trkpt lat="44.09115" lon="6.24323">
        <ele>648.464</ele>
        <time>2022-08-24T11:39:02Z</time>
      </trkpt>
      <trkpt lat="44.09117" lon="6.24333">
        <ele>648.61</ele>
        <time>2022-08-24T11:39:05Z</time>
      </trkpt>
      <trkpt lat="44.09118" lon="6.24353">
        <ele>649.009</ele>
        <time>2022-08-24T11:39:10Z</time>
      </trkpt>
      <trkpt lat="44.09116" lon="6.24365">
        <ele>649.825</ele>
        <time>2022-08-24T11:39:11Z</time>
      </trkpt>
      <trkpt lat="44.09116" lon="6.24381">
        <ele>650.815</ele>
        <time>2022-08-24T11:39:14Z</time>
      </trkpt>
      <trkpt lat="44.09115" lon="6.24399">
        <ele>652.045</ele>
        <time>2022-08-24T11:39:18Z</time>
      </trkpt>
      <trkpt lat="44.09111" lon="6.24414">
        <ele>652.241</ele>
        <time>2022-08-24T11:39:21Z</time>
      </trkpt>
      <trkpt lat="44.09107" lon="6.24423">
        <ele>652.254</ele>
        <time>2022-08-24T11:39:23Z</time>
      </trkpt>
      <trkpt lat="44.09098" lon="6.24437">
        <ele>652.067</ele>
        <time>2022-08-24T11:39:26Z</time>
      </trkpt>
      <trkpt lat="44.09076" lon="6.24474">
        <ele>650.643</ele>
        <time>2022-08-24T11:39:32Z</time>
      </trkpt>
      <trkpt lat="44.0907" lon="6.24489">
        <ele>650.457</ele>
        <time>2022-08-24T11:39:34Z</time>
      </trkpt>
      <trkpt lat="44.09068" lon="6.24505">
        <ele>650.24</ele>
        <time>2022-08-24T11:39:36Z</time>
      </trkpt>
      <trkpt lat="44.09067" lon="6.24521">
        <ele>650.277</ele>
        <time>2022-08-24T11:39:38Z</time>
      </trkpt>
      <trkpt lat="44.09069" lon="6.24538">
        <ele>650.061</ele>
        <time>2022-08-24T11:39:40Z</time>
      </trkpt>
      <trkpt lat="44.0907" lon="6.24546">
        <ele>650.227</ele>
        <time>2022-08-24T11:39:41Z</time>
      </trkpt>
      <trkpt lat="44.09069" lon="6.24563">
        <ele>650.009</ele>
        <time>2022-08-24T11:39:43Z</time>
      </trkpt>
      <trkpt lat="44.09067" lon="6.24571">
        <ele>650.218</ele>
        <time>2022-08-24T11:39:44Z</time>
      </trkpt>
      <trkpt lat="44.09052" lon="6.24608">
        <ele>650.418</ele>
        <time>2022-08-24T11:39:49Z</time>
      </trkpt>
      <trkpt lat="44.09025" lon="6.2466">
        <ele>651.238</ele>
        <time>2022-08-24T11:39:57Z</time>
      </trkpt>
      <trkpt lat="44.09007" lon="6.24698">
        <ele>651.464</ele>
        <time>2022-08-24T11:40:03Z</time>
      </trkpt>
      <trkpt lat="44.09001" lon="6.2471">
        <ele>651.697</ele>
        <time>2022-08-24T11:40:05Z</time>
      </trkpt>
      <trkpt lat="44.08999" lon="6.24716">
        <ele>651.82</ele>
        <time>2022-08-24T11:40:06Z</time>
      </trkpt>
      <trkpt lat="44.08995" lon="6.24728">
        <ele>652.086</ele>
        <time>2022-08-24T11:40:08Z</time>
      </trkpt>
      <trkpt lat="44.08988" lon="6.24753">
        <ele>652.48</ele>
        <time>2022-08-24T11:40:12Z</time>
      </trkpt>
      <trkpt lat="44.08985" lon="6.24765">
        <ele>652.463</ele>
        <time>2022-08-24T11:40:14Z</time>
      </trkpt>
      <trkpt lat="44.08983" lon="6.24786">
        <ele>652.485</ele>
        <time>2022-08-24T11:40:17Z</time>
      </trkpt>
      <trkpt lat="44.08984" lon="6.248">
        <ele>652.489</ele>
        <time>2022-08-24T11:40:19Z</time>
      </trkpt>
      <trkpt lat="44.08985" lon="6.24822">
        <ele>653.017</ele>
        <time>2022-08-24T11:40:22Z</time>
      </trkpt>
      <trkpt lat="44.08983" lon="6.24842">
        <ele>652.809</ele>
        <time>2022-08-24T11:40:25Z</time>
      </trkpt>
      <trkpt lat="44.0898" lon="6.24855">
        <ele>653.099</ele>
        <time>2022-08-24T11:40:27Z</time>
      </trkpt>
      <trkpt lat="44.08972" lon="6.24872">
        <ele>653.489</ele>
        <time>2022-08-24T11:40:30Z</time>
      </trkpt>
      <trkpt lat="44.08961" lon="6.24888">
        <ele>654.239</ele>
        <time>2022-08-24T11:40:33Z</time>
      </trkpt>
      <trkpt lat="44.08952" lon="6.24896">
        <ele>654.875</ele>
        <time>2022-08-24T11:40:35Z</time>
      </trkpt>
      <trkpt lat="44.08923" lon="6.24911">
        <ele>654.848</ele>
        <time>2022-08-24T11:40:41Z</time>
      </trkpt>
      <trkpt lat="44.08918" lon="6.24913">
        <ele>654.891</ele>
        <time>2022-08-24T11:40:42Z</time>
      </trkpt>
      <trkpt lat="44.08913" lon="6.24916">
        <ele>654.697</ele>
        <time>2022-08-24T11:40:43Z</time>
      </trkpt>
      <trkpt lat="44.08909" lon="6.24918">
        <ele>654.251</ele>
        <time>2022-08-24T11:40:44Z</time>
      </trkpt>
      <trkpt lat="44.08904" lon="6.2492">
        <ele>654.244</ele>
        <time>2022-08-24T11:40:45Z</time>
      </trkpt>
      <trkpt lat="44.089" lon="6.24923">
        <ele>654.495</ele>
        <time>2022-08-24T11:40:46Z</time>
      </trkpt>
      <trkpt lat="44.08886" lon="6.2493">
        <ele>654.649</ele>
        <time>2022-08-24T11:40:49Z</time>
      </trkpt>
      <trkpt lat="44.08854" lon="6.24948">
        <ele>655.023</ele>
        <time>2022-08-24T11:40:56Z</time>
      </trkpt>
      <trkpt lat="44.08849" lon="6.2495">
        <ele>655.409</ele>
        <time>2022-08-24T11:40:57Z</time>
      </trkpt>
      <trkpt lat="44.0881" lon="6.24968">
        <ele>655.87</ele>
        <time>2022-08-24T11:41:05Z</time>
      </trkpt>
      <trkpt lat="44.08802" lon="6.24973">
        <ele>656.25</ele>
        <time>2022-08-24T11:41:07Z</time>
      </trkpt>
      <trkpt lat="44.08798" lon="6.24975">
        <ele>656.43</ele>
        <time>2022-08-24T11:41:08Z</time>
      </trkpt>
      <trkpt lat="44.08786" lon="6.24982">
        <ele>656.896</ele>
        <time>2022-08-24T11:41:11Z</time>
      </trkpt>
      <trkpt lat="44.08777" lon="6.24987">
        <ele>657.039</ele>
        <time>2022-08-24T11:41:13Z</time>
      </trkpt>
      <trkpt lat="44.08762" lon="6.24995">
        <ele>657.832</ele>
        <time>2022-08-24T11:41:17Z</time>
      </trkpt>
      <trkpt lat="44.08755" lon="6.25001">
        <ele>658.468</ele>
        <time>2022-08-24T11:41:19Z</time>
      </trkpt>
      <trkpt lat="44.0875" lon="6.25011">
        <ele>658.852</ele>
        <time>2022-08-24T11:41:21Z</time>
      </trkpt>
      <trkpt lat="44.08744" lon="6.25027">
        <ele>659.475</ele>
        <time>2022-08-24T11:41:24Z</time>
      </trkpt>
      <trkpt lat="44.0873" lon="6.25045">
        <ele>659.449</ele>
        <time>2022-08-24T11:41:28Z</time>
      </trkpt>
      <trkpt lat="44.08718" lon="6.25057">
        <ele>660.202</ele>
        <time>2022-08-24T11:41:31Z</time>
      </trkpt>
      <trkpt lat="44.08706" lon="6.25068">
        <ele>660.622</ele>
        <time>2022-08-24T11:41:34Z</time>
      </trkpt>
      <trkpt lat="44.08697" lon="6.25074">
        <ele>661.209</ele>
        <time>2022-08-24T11:41:36Z</time>
      </trkpt>
      <trkpt lat="44.0868" lon="6.25089">
        <ele>662.675</ele>
        <time>2022-08-24T11:41:40Z</time>
      </trkpt>
      <trkpt lat="44.08668" lon="6.25099">
        <ele>663.465</ele>
        <time>2022-08-24T11:41:43Z</time>
      </trkpt>
      <trkpt lat="44.08664" lon="6.25103">
        <ele>663.815</ele>
        <time>2022-08-24T11:41:44Z</time>
      </trkpt>
      <trkpt lat="44.08656" lon="6.2511">
        <ele>664.091</ele>
        <time>2022-08-24T11:41:46Z</time>
      </trkpt>
      <trkpt lat="44.08652" lon="6.25113">
        <ele>664.034</ele>
        <time>2022-08-24T11:41:47Z</time>
      </trkpt>
      <trkpt lat="44.08635" lon="6.25127">
        <ele>664.417</ele>
        <time>2022-08-24T11:41:51Z</time>
      </trkpt>
      <trkpt lat="44.08623" lon="6.25138">
        <ele>665.093</ele>
        <time>2022-08-24T11:41:54Z</time>
      </trkpt>
      <trkpt lat="44.08611" lon="6.25149">
        <ele>666.297</ele>
        <time>2022-08-24T11:41:57Z</time>
      </trkpt>
      <trkpt lat="44.08595" lon="6.25163">
        <ele>667.29</ele>
        <time>2022-08-24T11:42:01Z</time>
      </trkpt>
      <trkpt lat="44.08591" lon="6.25166">
        <ele>667.241</ele>
        <time>2022-08-24T11:42:02Z</time>
      </trkpt>
      <trkpt lat="44.08571" lon="6.25186">
        <ele>668.081</ele>
        <time>2022-08-24T11:42:07Z</time>
      </trkpt>
      <trkpt lat="44.08563" lon="6.25193">
        <ele>668.409</ele>
        <time>2022-08-24T11:42:09Z</time>
      </trkpt>
      <trkpt lat="44.08535" lon="6.2522">
        <ele>669.009</ele>
        <time>2022-08-24T11:42:16Z</time>
      </trkpt>
      <trkpt lat="44.08509" lon="6.2524">
        <ele>669.445</ele>
        <time>2022-08-24T11:42:22Z</time>
      </trkpt>
      <trkpt lat="44.08491" lon="6.25252">
        <ele>670.245</ele>
        <time>2022-08-24T11:42:26Z</time>
      </trkpt>
      <trkpt lat="44.08477" lon="6.25261">
        <ele>670.625</ele>
        <time>2022-08-24T11:42:29Z</time>
      </trkpt>
      <trkpt lat="44.08473" lon="6.25264">
        <ele>670.811</ele>
        <time>2022-08-24T11:42:30Z</time>
      </trkpt>
      <trkpt lat="44.08448" lon="6.25282">
        <ele>671.434</ele>
        <time>2022-08-24T11:42:36Z</time>
      </trkpt>
      <trkpt lat="44.08444" lon="6.25284">
        <ele>671.617</ele>
        <time>2022-08-24T11:42:37Z</time>
      </trkpt>
      <trkpt lat="44.08435" lon="6.25285">
        <ele>671.813</ele>
        <time>2022-08-24T11:42:39Z</time>
      </trkpt>
      <trkpt lat="44.08431" lon="6.25284">
        <ele>671.837</ele>
        <time>2022-08-24T11:42:40Z</time>
      </trkpt>
      <trkpt lat="44.08418" lon="6.25276">
        <ele>671.82</ele>
        <time>2022-08-24T11:42:43Z</time>
      </trkpt>
      <trkpt lat="44.08405" lon="6.25267">
        <ele>671.827</ele>
        <time>2022-08-24T11:42:46Z</time>
      </trkpt>
      <trkpt lat="44.08396" lon="6.2527">
        <ele>671.868</ele>
        <time>2022-08-24T11:42:48Z</time>
      </trkpt>
      <trkpt lat="44.08392" lon="6.25273">
        <ele>671.814</ele>
        <time>2022-08-24T11:42:49Z</time>
      </trkpt>
      <trkpt lat="44.08369" lon="6.253">
        <ele>672.009</ele>
        <time>2022-08-24T11:42:55Z</time>
      </trkpt>
      <trkpt lat="44.08361" lon="6.25308">
        <ele>672.253</ele>
        <time>2022-08-24T11:42:57Z</time>
      </trkpt>
      <trkpt lat="44.08358" lon="6.25311">
        <ele>672.263</ele>
        <time>2022-08-24T11:42:58Z</time>
      </trkpt>
      <trkpt lat="44.08351" lon="6.25318">
        <ele>672.433</ele>
        <time>2022-08-24T11:43:00Z</time>
      </trkpt>
      <trkpt lat="44.08339" lon="6.2533">
        <ele>672.479</ele>
        <time>2022-08-24T11:43:03Z</time>
      </trkpt>
      <trkpt lat="44.0833" lon="6.25339">
        <ele>672.672</ele>
        <time>2022-08-24T11:43:05Z</time>
      </trkpt>
      <trkpt lat="44.08323" lon="6.25348">
        <ele>672.835</ele>
        <time>2022-08-24T11:43:07Z</time>
      </trkpt>
      <trkpt lat="44.08319" lon="6.25352">
        <ele>673.281</ele>
        <time>2022-08-24T11:43:08Z</time>
      </trkpt>
      <trkpt lat="44.08315" lon="6.25355">
        <ele>673.495</ele>
        <time>2022-08-24T11:43:09Z</time>
      </trkpt>
      <trkpt lat="44.08306" lon="6.25364">
        <ele>674.068</ele>
        <time>2022-08-24T11:43:11Z</time>
      </trkpt>
      <trkpt lat="44.0829" lon="6.25384">
        <ele>674.448</ele>
        <time>2022-08-24T11:43:15Z</time>
      </trkpt>
      <trkpt lat="44.08282" lon="6.25396">
        <ele>674.461</ele>
        <time>2022-08-24T11:43:17Z</time>
      </trkpt>
      <trkpt lat="44.08267" lon="6.25418">
        <ele>674.617</ele>
        <time>2022-08-24T11:43:21Z</time>
      </trkpt>
      <trkpt lat="44.0826" lon="6.25428">
        <ele>674.409</ele>
        <time>2022-08-24T11:43:23Z</time>
      </trkpt>
      <trkpt lat="44.08251" lon="6.25435">
        <ele>675.035</ele>
        <time>2022-08-24T11:43:25Z</time>
      </trkpt>
      <trkpt lat="44.08246" lon="6.25437">
        <ele>675.285</ele>
        <time>2022-08-24T11:43:26Z</time>
      </trkpt>
      <trkpt lat="44.08231" lon="6.25441">
        <ele>675.845</ele>
        <time>2022-08-24T11:43:29Z</time>
      </trkpt>
      <trkpt lat="44.08226" lon="6.25442">
        <ele>675.881</ele>
        <time>2022-08-24T11:43:30Z</time>
      </trkpt>
      <trkpt lat="44.08221" lon="6.25443">
        <ele>676.044</ele>
        <time>2022-08-24T11:43:31Z</time>
      </trkpt>
      <trkpt lat="44.08216" lon="6.25445">
        <ele>676.257</ele>
        <time>2022-08-24T11:43:32Z</time>
      </trkpt>
      <trkpt lat="44.08211" lon="6.25447">
        <ele>676.673</ele>
        <time>2022-08-24T11:43:33Z</time>
      </trkpt>
      <trkpt lat="44.08202" lon="6.25455">
        <ele>676.887</ele>
        <time>2022-08-24T11:43:35Z</time>
      </trkpt>
      <trkpt lat="44.08194" lon="6.25464">
        <ele>677.24</ele>
        <time>2022-08-24T11:43:37Z</time>
      </trkpt>
      <trkpt lat="44.08188" lon="6.25477">
        <ele>677.468</ele>
        <time>2022-08-24T11:43:39Z</time>
      </trkpt>
      <trkpt lat="44.08185" lon="6.25489">
        <ele>678.042</ele>
        <time>2022-08-24T11:43:41Z</time>
      </trkpt>
      <trkpt lat="44.08185" lon="6.25496">
        <ele>678.026</ele>
        <time>2022-08-24T11:43:42Z</time>
      </trkpt>
      <trkpt lat="44.08186" lon="6.25509">
        <ele>678.209</ele>
        <time>2022-08-24T11:43:44Z</time>
      </trkpt>
      <trkpt lat="44.08187" lon="6.25516">
        <ele>678.257</ele>
        <time>2022-08-24T11:43:45Z</time>
      </trkpt>
      <trkpt lat="44.0819" lon="6.25522">
        <ele>678.297</ele>
        <time>2022-08-24T11:43:46Z</time>
      </trkpt>
      <trkpt lat="44.08198" lon="6.25537">
        <ele>678.277</ele>
        <time>2022-08-24T11:43:49Z</time>
      </trkpt>
      <trkpt lat="44.08201" lon="6.25542">
        <ele>678.683</ele>
        <time>2022-08-24T11:43:50Z</time>
      </trkpt>
      <trkpt lat="44.08211" lon="6.25554">
        <ele>679.486</ele>
        <time>2022-08-24T11:43:53Z</time>
      </trkpt>
      <trkpt lat="44.08215" lon="6.25568">
        <ele>680.649</ele>
        <time>2022-08-24T11:43:56Z</time>
      </trkpt>
      <trkpt lat="44.08215" lon="6.25581">
        <ele>681.285</ele>
        <time>2022-08-24T11:43:58Z</time>
      </trkpt>
      <trkpt lat="44.08212" lon="6.25593">
        <ele>682.019</ele>
        <time>2022-08-24T11:44:00Z</time>
      </trkpt>
      <trkpt lat="44.08207" lon="6.25606">
        <ele>682.632</ele>
        <time>2022-08-24T11:44:02Z</time>
      </trkpt>
      <trkpt lat="44.08197" lon="6.25626">
        <ele>683.022</ele>
        <time>2022-08-24T11:44:05Z</time>
      </trkpt>
      <trkpt lat="44.08194" lon="6.25632">
        <ele>683.462</ele>
        <time>2022-08-24T11:44:06Z</time>
      </trkpt>
      <trkpt lat="44.08183" lon="6.25649">
        <ele>684.208</ele>
        <time>2022-08-24T11:44:09Z</time>
      </trkpt>
      <trkpt lat="44.08163" lon="6.25677">
        <ele>684.809</ele>
        <time>2022-08-24T11:44:14Z</time>
      </trkpt>
      <trkpt lat="44.08157" lon="6.25689">
        <ele>685.493</ele>
        <time>2022-08-24T11:44:16Z</time>
      </trkpt>
      <trkpt lat="44.08138" lon="6.25728">
        <ele>685.873</ele>
        <time>2022-08-24T11:44:22Z</time>
      </trkpt>
      <trkpt lat="44.08118" lon="6.25793">
        <ele>686.273</ele>
        <time>2022-08-24T11:44:31Z</time>
      </trkpt>
      <trkpt lat="44.08103" lon="6.25826">
        <ele>686.449</ele>
        <time>2022-08-24T11:44:36Z</time>
      </trkpt>
      <trkpt lat="44.08095" lon="6.25838">
        <ele>687.252</ele>
        <time>2022-08-24T11:44:38Z</time>
      </trkpt>
      <trkpt lat="44.08091" lon="6.25843">
        <ele>687.485</ele>
        <time>2022-08-24T11:44:39Z</time>
      </trkpt>
      <trkpt lat="44.0808" lon="6.25861">
        <ele>687.661</ele>
        <time>2022-08-24T11:44:42Z</time>
      </trkpt>
      <trkpt lat="44.08071" lon="6.25882">
        <ele>687.895</ele>
        <time>2022-08-24T11:44:45Z</time>
      </trkpt>
      <trkpt lat="44.08063" lon="6.25904">
        <ele>688.068</ele>
        <time>2022-08-24T11:44:48Z</time>
      </trkpt>
      <trkpt lat="44.08057" lon="6.25918">
        <ele>688.212</ele>
        <time>2022-08-24T11:44:50Z</time>
      </trkpt>
      <trkpt lat="44.08052" lon="6.25933">
        <ele>688.432</ele>
        <time>2022-08-24T11:44:52Z</time>
      </trkpt>
      <trkpt lat="44.08045" lon="6.25963">
        <ele>688.805</ele>
        <time>2022-08-24T11:44:56Z</time>
      </trkpt>
      <trkpt lat="44.0804" lon="6.25986">
        <ele>689.409</ele>
        <time>2022-08-24T11:44:59Z</time>
      </trkpt>
      <trkpt lat="44.08029" lon="6.26023">
        <ele>690.632</ele>
        <time>2022-08-24T11:45:04Z</time>
      </trkpt>
      <trkpt lat="44.08017" lon="6.26064">
        <ele>691.612</ele>
        <time>2022-08-24T11:45:10Z</time>
      </trkpt>
      <trkpt lat="44.08013" lon="6.26078">
        <ele>691.672</ele>
        <time>2022-08-24T11:45:12Z</time>
      </trkpt>
      <trkpt lat="44.07998" lon="6.2613">
        <ele>691.898</ele>
        <time>2022-08-24T11:45:19Z</time>
      </trkpt>
      <trkpt lat="44.07975" lon="6.26179">
        <ele>692.271</ele>
        <time>2022-08-24T11:45:26Z</time>
      </trkpt>
      <trkpt lat="44.07965" lon="6.26199">
        <ele>692.624</ele>
        <time>2022-08-24T11:45:29Z</time>
      </trkpt>
      <trkpt lat="44.07948" lon="6.26236">
        <ele>693.87</ele>
        <time>2022-08-24T11:45:34Z</time>
      </trkpt>
      <trkpt lat="44.07937" lon="6.26277">
        <ele>693.834</ele>
        <time>2022-08-24T11:45:39Z</time>
      </trkpt>
      <trkpt lat="44.07936" lon="6.26285">
        <ele>693.817</ele>
        <time>2022-08-24T11:45:40Z</time>
      </trkpt>
      <trkpt lat="44.07935" lon="6.26334">
        <ele>694.657</ele>
        <time>2022-08-24T11:45:46Z</time>
      </trkpt>
      <trkpt lat="44.07934" lon="6.2635">
        <ele>694.8</ele>
        <time>2022-08-24T11:45:48Z</time>
      </trkpt>
      <trkpt lat="44.07934" lon="6.26398">
        <ele>695.82</ele>
        <time>2022-08-24T11:45:54Z</time>
      </trkpt>
      <trkpt lat="44.07933" lon="6.26422">
        <ele>696.809</ele>
        <time>2022-08-24T11:45:57Z</time>
      </trkpt>
      <trkpt lat="44.07932" lon="6.26462">
        <ele>697.626</ele>
        <time>2022-08-24T11:46:02Z</time>
      </trkpt>
      <trkpt lat="44.07932" lon="6.26478">
        <ele>698.016</ele>
        <time>2022-08-24T11:46:04Z</time>
      </trkpt>
      <trkpt lat="44.07931" lon="6.26533">
        <ele>699.096</ele>
        <time>2022-08-24T11:46:11Z</time>
      </trkpt>
      <trkpt lat="44.0793" lon="6.26562">
        <ele>700.462</ele>
        <time>2022-08-24T11:46:15Z</time>
      </trkpt>
      <trkpt lat="44.07929" lon="6.26584">
        <ele>700.865</ele>
        <time>2022-08-24T11:46:18Z</time>
      </trkpt>
      <trkpt lat="44.07927" lon="6.26627">
        <ele>701.228</ele>
        <time>2022-08-24T11:46:24Z</time>
      </trkpt>
      <trkpt lat="44.07926" lon="6.26634">
        <ele>701.484</ele>
        <time>2022-08-24T11:46:25Z</time>
      </trkpt>
      <trkpt lat="44.07926" lon="6.26641">
        <ele>701.458</ele>
        <time>2022-08-24T11:46:26Z</time>
      </trkpt>
      <trkpt lat="44.07926" lon="6.26648">
        <ele>701.491</ele>
        <time>2022-08-24T11:46:27Z</time>
      </trkpt>
      <trkpt lat="44.07926" lon="6.26681">
        <ele>702.078</ele>
        <time>2022-08-24T11:46:32Z</time>
      </trkpt>
      <trkpt lat="44.07926" lon="6.26687">
        <ele>702.433</ele>
        <time>2022-08-24T11:46:33Z</time>
      </trkpt>
      <trkpt lat="44.07927" lon="6.26692">
        <ele>703.226</ele>
        <time>2022-08-24T11:46:34Z</time>
      </trkpt>
      <trkpt lat="44.07928" lon="6.26697">
        <ele>703.609</ele>
        <time>2022-08-24T11:46:35Z</time>
      </trkpt>
      <trkpt lat="44.0793" lon="6.26701">
        <ele>704.058</ele>
        <time>2022-08-24T11:46:36Z</time>
      </trkpt>
      <trkpt lat="44.07936" lon="6.26707">
        <ele>705.088</ele>
        <time>2022-08-24T11:46:38Z</time>
      </trkpt>
      <trkpt lat="44.07944" lon="6.26711">
        <ele>705.698</ele>
        <time>2022-08-24T11:46:40Z</time>
      </trkpt>
      <trkpt lat="44.0795" lon="6.26714">
        <ele>706.484</ele>
        <time>2022-08-24T11:46:42Z</time>
      </trkpt>
      <trkpt lat="44.0796" lon="6.2672">
        <ele>707.237</ele>
        <time>2022-08-24T11:46:45Z</time>
      </trkpt>
      <trkpt lat="44.07964" lon="6.26722">
        <ele>707.61</ele>
        <time>2022-08-24T11:46:46Z</time>
      </trkpt>
      <trkpt lat="44.07971" lon="6.26727">
        <ele>709.086</ele>
        <time>2022-08-24T11:46:48Z</time>
      </trkpt>
      <trkpt lat="44.07975" lon="6.26734">
        <ele>709.83</ele>
        <time>2022-08-24T11:46:50Z</time>
      </trkpt>
      <trkpt lat="44.07974" lon="6.26739">
        <ele>710.673</ele>
        <time>2022-08-24T11:46:51Z</time>
      </trkpt>
      <trkpt lat="44.07969" lon="6.26748">
        <ele>711.234</ele>
        <time>2022-08-24T11:46:53Z</time>
      </trkpt>
      <trkpt lat="44.07964" lon="6.26755">
        <ele>711.655</ele>
        <time>2022-08-24T11:46:55Z</time>
      </trkpt>
      <trkpt lat="44.07948" lon="6.26773">
        <ele>712.41</ele>
        <time>2022-08-24T11:47:00Z</time>
      </trkpt>
      <trkpt lat="44.07945" lon="6.26777">
        <ele>712.609</ele>
        <time>2022-08-24T11:47:01Z</time>
      </trkpt>
      <trkpt lat="44.07924" lon="6.26803">
        <ele>713.654</ele>
        <time>2022-08-24T11:47:07Z</time>
      </trkpt>
      <trkpt lat="44.07921" lon="6.26807">
        <ele>713.824</ele>
        <time>2022-08-24T11:47:08Z</time>
      </trkpt>
      <trkpt lat="44.07918" lon="6.26812">
        <ele>714.054</ele>
        <time>2022-08-24T11:47:09Z</time>
      </trkpt>
      <trkpt lat="44.07902" lon="6.26836">
        <ele>715.03</ele>
        <time>2022-08-24T11:47:14Z</time>
      </trkpt>
      <trkpt lat="44.07897" lon="6.26846">
        <ele>715.663</ele>
        <time>2022-08-24T11:47:16Z</time>
      </trkpt>
      <trkpt lat="44.07895" lon="6.26851">
        <ele>715.896</ele>
        <time>2022-08-24T11:47:17Z</time>
      </trkpt>
      <trkpt lat="44.07894" lon="6.26856">
        <ele>716.282</ele>
        <time>2022-08-24T11:47:18Z</time>
      </trkpt>
      <trkpt lat="44.07888" lon="6.26891">
        <ele>717.496</ele>
        <time>2022-08-24T11:47:24Z</time>
      </trkpt>
      <trkpt lat="44.07883" lon="6.26915">
        <ele>718.449</ele>
        <time>2022-08-24T11:47:28Z</time>
      </trkpt>
      <trkpt lat="44.0788" lon="6.26927">
        <ele>719.084</ele>
        <time>2022-08-24T11:47:30Z</time>
      </trkpt>
      <trkpt lat="44.07877" lon="6.26938">
        <ele>719.407</ele>
        <time>2022-08-24T11:47:32Z</time>
      </trkpt>
      <trkpt lat="44.07868" lon="6.26964">
        <ele>720.217</ele>
        <time>2022-08-24T11:47:37Z</time>
      </trkpt>
      <trkpt lat="44.07865" lon="6.26969">
        <ele>720.409</ele>
        <time>2022-08-24T11:47:38Z</time>
      </trkpt>
      <trkpt lat="44.0786" lon="6.26978">
        <ele>720.829</ele>
        <time>2022-08-24T11:47:40Z</time>
      </trkpt>
      <trkpt lat="44.07853" lon="6.26986">
        <ele>721.029</ele>
        <time>2022-08-24T11:47:42Z</time>
      </trkpt>
      <trkpt lat="44.07844" lon="6.26997">
        <ele>721.499</ele>
        <time>2022-08-24T11:47:45Z</time>
      </trkpt>
      <trkpt lat="44.07826" lon="6.27008">
        <ele>722.225</ele>
        <time>2022-08-24T11:47:50Z</time>
      </trkpt>
      <trkpt lat="44.07822" lon="6.27009">
        <ele>722.668</ele>
        <time>2022-08-24T11:47:51Z</time>
      </trkpt>
      <trkpt lat="44.07806" lon="6.2701">
        <ele>723.091</ele>
        <time>2022-08-24T11:47:55Z</time>
      </trkpt>
      <trkpt lat="44.07797" lon="6.2701">
        <ele>723.637</ele>
        <time>2022-08-24T11:47:59Z</time>
      </trkpt>
      <trkpt lat="44.07796" lon="6.27012">
        <ele>723.851</ele>
        <time>2022-08-24T11:48:00Z</time>
      </trkpt>
      <trkpt lat="44.07798" lon="6.27014">
        <ele>724.224</ele>
        <time>2022-08-24T11:48:02Z</time>
      </trkpt>
      <trkpt lat="44.07798" lon="6.27014">
        <ele>724.258</ele>
        <time>2022-08-24T11:48:03Z</time>
      </trkpt>
      <trkpt lat="44.07817" lon="6.27013">
        <ele>724.252</ele>
        <time>2022-08-24T11:48:07Z</time>
      </trkpt>
      <trkpt lat="44.07831" lon="6.27009">
        <ele>723.817</ele>
        <time>2022-08-24T11:48:11Z</time>
      </trkpt>
      <trkpt lat="44.07835" lon="6.27007">
        <ele>723.809</ele>
        <time>2022-08-24T11:48:15Z</time>
      </trkpt>
      <trkpt lat="44.07837" lon="6.27005">
        <ele>723.616</ele>
        <time>2022-08-24T11:48:16Z</time>
      </trkpt>
      <trkpt lat="44.07844" lon="6.27003">
        <ele>723.086</ele>
        <time>2022-08-24T11:48:20Z</time>
      </trkpt>
      <trkpt lat="44.07843" lon="6.27001">
        <ele>722.826</ele>
        <time>2022-08-24T11:48:23Z</time>
      </trkpt>
      <trkpt lat="44.07842" lon="6.27002">
        <ele>722.662</ele>
        <time>2022-08-24T11:48:24Z</time>
      </trkpt>
      <trkpt lat="44.07839" lon="6.27003">
        <ele>722.215</ele>
        <time>2022-08-24T11:48:27Z</time>
      </trkpt>
      <trkpt lat="44.07838" lon="6.27002">
        <ele>722.258</ele>
        <time>2022-08-24T11:48:30Z</time>
      </trkpt>
      <trkpt lat="44.07835" lon="6.27004">
        <ele>722.064</ele>
        <time>2022-08-24T11:48:41Z</time>
      </trkpt>
      <trkpt lat="44.07833" lon="6.27005">
        <ele>722.078</ele>
        <time>2022-08-24T11:48:42Z</time>
      </trkpt>
      <trkpt lat="44.07831" lon="6.27005">
        <ele>723.631</ele>
        <time>2022-08-24T11:48:43Z</time>
      </trkpt>
      <trkpt lat="44.07821" lon="6.27007">
        <ele>723.657</ele>
        <time>2022-08-24T11:48:47Z</time>
      </trkpt>
      <trkpt lat="44.07818" lon="6.27007">
        <ele>723.6</ele>
        <time>2022-08-24T11:48:48Z</time>
      </trkpt>
      <trkpt lat="44.07802" lon="6.27009">
        <ele>724.62</ele>
        <time>2022-08-24T11:48:52Z</time>
      </trkpt>
      <trkpt lat="44.07799" lon="6.2701">
        <ele>724.809</ele>
        <time>2022-08-24T11:48:53Z</time>
      </trkpt>
      <trkpt lat="44.07795" lon="6.2701">
        <ele>723.846</ele>
        <time>2022-08-24T11:48:54Z</time>
      </trkpt>
      <trkpt lat="44.07789" lon="6.27013">
        <ele>723.836</ele>
        <time>2022-08-24T11:48:57Z</time>
      </trkpt>
      <trkpt lat="44.0779" lon="6.27014">
        <ele>723.836</ele>
        <time>2022-08-24T11:48:59Z</time>
      </trkpt>
      <trkpt lat="44.07792" lon="6.27014">
        <ele>723.872</ele>
        <time>2022-08-24T11:49:00Z</time>
      </trkpt>
      <trkpt lat="44.07809" lon="6.27011">
        <ele>723.825</ele>
        <time>2022-08-24T11:49:05Z</time>
      </trkpt>
      <trkpt lat="44.07825" lon="6.27006">
        <ele>723.038</ele>
        <time>2022-08-24T11:49:10Z</time>
      </trkpt>
      <trkpt lat="44.0783" lon="6.27005">
        <ele>722.854</ele>
        <time>2022-08-24T11:49:12Z</time>
      </trkpt>
      <trkpt lat="44.07835" lon="6.27005">
        <ele>723.628</ele>
        <time>2022-08-24T11:49:14Z</time>
      </trkpt>
      <trkpt lat="44.07837" lon="6.27004">
        <ele>723.611</ele>
        <time>2022-08-24T11:49:15Z</time>
      </trkpt>
      <trkpt lat="44.07836" lon="6.27002">
        <ele>722.075</ele>
        <time>2022-08-24T11:49:17Z</time>
      </trkpt>
      <trkpt lat="44.07828" lon="6.27006">
        <ele>722.028</ele>
        <time>2022-08-24T11:49:20Z</time>
      </trkpt>
      <trkpt lat="44.07814" lon="6.27007">
        <ele>723.42</ele>
        <time>2022-08-24T11:49:24Z</time>
      </trkpt>
      <trkpt lat="44.07794" lon="6.27012">
        <ele>723.809</ele>
        <time>2022-08-24T11:49:29Z</time>
      </trkpt>
      <trkpt lat="44.07793" lon="6.27012">
        <ele>723.828</ele>
        <time>2022-08-24T11:49:30Z</time>
      </trkpt>
      <trkpt lat="44.07793" lon="6.27014">
        <ele>723.828</ele>
        <time>2022-08-24T11:49:31Z</time>
      </trkpt>
      <trkpt lat="44.07794" lon="6.27016">
        <ele>723.848</ele>
        <time>2022-08-24T11:49:32Z</time>
      </trkpt>
      <trkpt lat="44.07798" lon="6.27017">
        <ele>723.894</ele>
        <time>2022-08-24T11:49:34Z</time>
      </trkpt>
      <trkpt lat="44.07801" lon="6.27016">
        <ele>723.867</ele>
        <time>2022-08-24T11:49:35Z</time>
      </trkpt>
      <trkpt lat="44.07808" lon="6.27014">
        <ele>723.84</ele>
        <time>2022-08-24T11:49:38Z</time>
      </trkpt>
      <trkpt lat="44.07807" lon="6.27012">
        <ele>723.666</ele>
        <time>2022-08-24T11:49:39Z</time>
      </trkpt>
      <trkpt lat="44.07801" lon="6.2701">
        <ele>723.86</ele>
        <time>2022-08-24T11:49:42Z</time>
      </trkpt>
      <trkpt lat="44.078" lon="6.27012">
        <ele>723.813</ele>
        <time>2022-08-24T11:49:43Z</time>
      </trkpt>
      <trkpt lat="44.07797" lon="6.27016">
        <ele>723.829</ele>
        <time>2022-08-24T11:49:44Z</time>
      </trkpt>
      <trkpt lat="44.07792" lon="6.27018">
        <ele>723.8</ele>
        <time>2022-08-24T11:49:46Z</time>
      </trkpt>
      <trkpt lat="44.07792" lon="6.27018">
        <ele>724.62</ele>
        <time>2022-08-24T11:49:48Z</time>
      </trkpt>
      <trkpt lat="44.07796" lon="6.27021">
        <ele>724.809</ele>
        <time>2022-08-24T11:49:50Z</time>
      </trkpt>
      <trkpt lat="44.07799" lon="6.2702">
        <ele>724.833</ele>
        <time>2022-08-24T11:49:51Z</time>
      </trkpt>
      <trkpt lat="44.07802" lon="6.27019">
        <ele>723.863</ele>
        <time>2022-08-24T11:49:52Z</time>
      </trkpt>
      <trkpt lat="44.07812" lon="6.27017">
        <ele>723.813</ele>
        <time>2022-08-24T11:49:55Z</time>
      </trkpt>
      <trkpt lat="44.07833" lon="6.27011">
        <ele>723.419</ele>
        <time>2022-08-24T11:50:01Z</time>
      </trkpt>
      <trkpt lat="44.0784" lon="6.27006">
        <ele>722.082</ele>
        <time>2022-08-24T11:50:04Z</time>
      </trkpt>
      <trkpt lat="44.07842" lon="6.27006">
        <ele>722.035</ele>
        <time>2022-08-24T11:50:06Z</time>
      </trkpt>
      <trkpt lat="44.07846" lon="6.27003">
        <ele>722.071</ele>
        <time>2022-08-24T11:50:07Z</time>
      </trkpt>
      <trkpt lat="44.07849" lon="6.26997">
        <ele>721.465</ele>
        <time>2022-08-24T11:50:09Z</time>
      </trkpt>
      <trkpt lat="44.07853" lon="6.26997">
        <ele>721.028</ele>
        <time>2022-08-24T11:50:11Z</time>
      </trkpt>
      <trkpt lat="44.07854" lon="6.26999">
        <ele>721.031</ele>
        <time>2022-08-24T11:50:12Z</time>
      </trkpt>
      <trkpt lat="44.07853" lon="6.27">
        <ele>721.061</ele>
        <time>2022-08-24T11:50:13Z</time>
      </trkpt>
      <trkpt lat="44.07851" lon="6.27">
        <ele>720.607</ele>
        <time>2022-08-24T11:50:16Z</time>
      </trkpt>
      <trkpt lat="44.07847" lon="6.27001">
        <ele>720.609</ele>
        <time>2022-08-24T11:50:19Z</time>
      </trkpt>
      <trkpt lat="44.07842" lon="6.27002">
        <ele>720.624</ele>
        <time>2022-08-24T11:50:21Z</time>
      </trkpt>
      <trkpt lat="44.07834" lon="6.27006">
        <ele>722.024</ele>
        <time>2022-08-24T11:50:24Z</time>
      </trkpt>
      <trkpt lat="44.0783" lon="6.27007">
        <ele>723.694</ele>
        <time>2022-08-24T11:50:25Z</time>
      </trkpt>
      <trkpt lat="44.07826" lon="6.27008">
        <ele>723.63</ele>
        <time>2022-08-24T11:50:26Z</time>
      </trkpt>
      <trkpt lat="44.07814" lon="6.27011">
        <ele>724.023</ele>
        <time>2022-08-24T11:50:29Z</time>
      </trkpt>
      <trkpt lat="44.07802" lon="6.27014">
        <ele>724.626</ele>
        <time>2022-08-24T11:50:32Z</time>
      </trkpt>
      <trkpt lat="44.07798" lon="6.27015">
        <ele>723.852</ele>
        <time>2022-08-24T11:50:33Z</time>
      </trkpt>
      <trkpt lat="44.0779" lon="6.27019">
        <ele>723.816</ele>
        <time>2022-08-24T11:50:35Z</time>
      </trkpt>
      <trkpt lat="44.07782" lon="6.27024">
        <ele>723.829</ele>
        <time>2022-08-24T11:50:37Z</time>
      </trkpt>
      <trkpt lat="44.07779" lon="6.27028">
        <ele>723.858</ele>
        <time>2022-08-24T11:50:38Z</time>
      </trkpt>
      <trkpt lat="44.07769" lon="6.27038">
        <ele>723.852</ele>
        <time>2022-08-24T11:50:41Z</time>
      </trkpt>
      <trkpt lat="44.07761" lon="6.27046">
        <ele>724.417</ele>
        <time>2022-08-24T11:50:43Z</time>
      </trkpt>
      <trkpt lat="44.07756" lon="6.2705">
        <ele>724.809</ele>
        <time>2022-08-24T11:50:44Z</time>
      </trkpt>
      <trkpt lat="44.07751" lon="6.27052">
        <ele>725.056</ele>
        <time>2022-08-24T11:50:45Z</time>
      </trkpt>
      <trkpt lat="44.07737" lon="6.27053">
        <ele>726.276</ele>
        <time>2022-08-24T11:50:48Z</time>
      </trkpt>
      <trkpt lat="44.0773" lon="6.27047">
        <ele>726.886</ele>
        <time>2022-08-24T11:50:50Z</time>
      </trkpt>
      <trkpt lat="44.07726" lon="6.27037">
        <ele>727.252</ele>
        <time>2022-08-24T11:50:52Z</time>
      </trkpt>
      <trkpt lat="44.07724" lon="6.27031">
        <ele>727.425</ele>
        <time>2022-08-24T11:50:53Z</time>
      </trkpt>
      <trkpt lat="44.07721" lon="6.27013">
        <ele>727.678</ele>
        <time>2022-08-24T11:50:56Z</time>
      </trkpt>
      <trkpt lat="44.07719" lon="6.26994">
        <ele>728.274</ele>
        <time>2022-08-24T11:50:59Z</time>
      </trkpt>
      <trkpt lat="44.07718" lon="6.26976">
        <ele>728.878</ele>
        <time>2022-08-24T11:51:02Z</time>
      </trkpt>
      <trkpt lat="44.07717" lon="6.26971">
        <ele>728.851</ele>
        <time>2022-08-24T11:51:03Z</time>
      </trkpt>
      <trkpt lat="44.07714" lon="6.26958">
        <ele>729.498</ele>
        <time>2022-08-24T11:51:06Z</time>
      </trkpt>
      <trkpt lat="44.07712" lon="6.26954">
        <ele>729.815</ele>
        <time>2022-08-24T11:51:07Z</time>
      </trkpt>
      <trkpt lat="44.07708" lon="6.26951">
        <ele>730.026</ele>
        <time>2022-08-24T11:51:08Z</time>
      </trkpt>
      <trkpt lat="44.07698" lon="6.26943">
        <ele>730.609</ele>
        <time>2022-08-24T11:51:11Z</time>
      </trkpt>
      <trkpt lat="44.07691" lon="6.26936">
        <ele>731.47</ele>
        <time>2022-08-24T11:51:13Z</time>
      </trkpt>
      <trkpt lat="44.07688" lon="6.26932">
        <ele>731.63</ele>
        <time>2022-08-24T11:51:14Z</time>
      </trkpt>
      <trkpt lat="44.07683" lon="6.26923">
        <ele>731.87</ele>
        <time>2022-08-24T11:51:16Z</time>
      </trkpt>
      <trkpt lat="44.0768" lon="6.26918">
        <ele>731.846</ele>
        <time>2022-08-24T11:51:17Z</time>
      </trkpt>
      <trkpt lat="44.07678" lon="6.26914">
        <ele>732.059</ele>
        <time>2022-08-24T11:51:18Z</time>
      </trkpt>
      <trkpt lat="44.07669" lon="6.26902">
        <ele>732.662</ele>
        <time>2022-08-24T11:51:21Z</time>
      </trkpt>
      <trkpt lat="44.07659" lon="6.26893">
        <ele>733.298</ele>
        <time>2022-08-24T11:51:24Z</time>
      </trkpt>
      <trkpt lat="44.07652" lon="6.26888">
        <ele>734.082</ele>
        <time>2022-08-24T11:51:26Z</time>
      </trkpt>
      <trkpt lat="44.07639" lon="6.26883">
        <ele>735.075</ele>
        <time>2022-08-24T11:51:30Z</time>
      </trkpt>
      <trkpt lat="44.07628" lon="6.26884">
        <ele>735.619</ele>
        <time>2022-08-24T11:51:34Z</time>
      </trkpt>
      <trkpt lat="44.07627" lon="6.26887">
        <ele>735.609</ele>
        <time>2022-08-24T11:51:35Z</time>
      </trkpt>
      <trkpt lat="44.07625" lon="6.26889">
        <ele>735.419</ele>
        <time>2022-08-24T11:51:36Z</time>
      </trkpt>
      <trkpt lat="44.07625" lon="6.2689">
        <ele>735.409</ele>
        <time>2022-08-24T11:51:38Z</time>
      </trkpt>
      <trkpt lat="44.07625" lon="6.26893">
        <ele>735.282</ele>
        <time>2022-08-24T11:51:39Z</time>
      </trkpt>
      <trkpt lat="44.07622" lon="6.26899">
        <ele>735.072</ele>
        <time>2022-08-24T11:51:43Z</time>
      </trkpt>
      <trkpt lat="44.07621" lon="6.26899">
        <ele>735.042</ele>
        <time>2022-08-24T11:51:45Z</time>
      </trkpt>
      <trkpt lat="44.07617" lon="6.26905">
        <ele>734.878</ele>
        <time>2022-08-24T11:53:23Z</time>
      </trkpt>
      <trkpt lat="44.07616" lon="6.26908">
        <ele>735.061</ele>
        <time>2022-08-24T11:53:24Z</time>
      </trkpt>
      <trkpt lat="44.07615" lon="6.26916">
        <ele>735.454</ele>
        <time>2022-08-24T11:53:27Z</time>
      </trkpt>
      <trkpt lat="44.07615" lon="6.26926">
        <ele>735.81</ele>
        <time>2022-08-24T11:53:30Z</time>
      </trkpt>
      <trkpt lat="44.07614" lon="6.26933">
        <ele>736.284</ele>
        <time>2022-08-24T11:53:32Z</time>
      </trkpt>
      <trkpt lat="44.07612" lon="6.26945">
        <ele>737.697</ele>
        <time>2022-08-24T11:53:36Z</time>
      </trkpt>
      <trkpt lat="44.07613" lon="6.26947">
        <ele>738.611</ele>
        <time>2022-08-24T11:53:37Z</time>
      </trkpt>
      <trkpt lat="44.07615" lon="6.26947">
        <ele>739.221</ele>
        <time>2022-08-24T11:53:38Z</time>
      </trkpt>
      <trkpt lat="44.07619" lon="6.26946">
        <ele>739.603</ele>
        <time>2022-08-24T11:53:40Z</time>
      </trkpt>
      <trkpt lat="44.07623" lon="6.26941">
        <ele>740.009</ele>
        <time>2022-08-24T11:53:42Z</time>
      </trkpt>
      <trkpt lat="44.0763" lon="6.26933">
        <ele>741.482</ele>
        <time>2022-08-24T11:53:46Z</time>
      </trkpt>
      <trkpt lat="44.07633" lon="6.26929">
        <ele>742.862</ele>
        <time>2022-08-24T11:53:48Z</time>
      </trkpt>
      <trkpt lat="44.07637" lon="6.26925">
        <ele>743.452</ele>
        <time>2022-08-24T11:53:50Z</time>
      </trkpt>
      <trkpt lat="44.07641" lon="6.26923">
        <ele>744.248</ele>
        <time>2022-08-24T11:53:52Z</time>
      </trkpt>
      <trkpt lat="44.07643" lon="6.26923">
        <ele>744.611</ele>
        <time>2022-08-24T11:53:53Z</time>
      </trkpt>
      <trkpt lat="44.07648" lon="6.26923">
        <ele>745.234</ele>
        <time>2022-08-24T11:53:55Z</time>
      </trkpt>
      <trkpt lat="44.07654" lon="6.26927">
        <ele>746.27</ele>
        <time>2022-08-24T11:53:58Z</time>
      </trkpt>
      <trkpt lat="44.07655" lon="6.26929">
        <ele>746.484</ele>
        <time>2022-08-24T11:53:59Z</time>
      </trkpt>
      <trkpt lat="44.0766" lon="6.26936">
        <ele>747.657</ele>
        <time>2022-08-24T11:54:02Z</time>
      </trkpt>
      <trkpt lat="44.07664" lon="6.26946">
        <ele>748.879</ele>
        <time>2022-08-24T11:54:06Z</time>
      </trkpt>
      <trkpt lat="44.07668" lon="6.2696">
        <ele>750.205</ele>
        <time>2022-08-24T11:54:11Z</time>
      </trkpt>
      <trkpt lat="44.07668" lon="6.2696">
        <ele>750.425</ele>
        <time>2022-08-24T11:54:12Z</time>
      </trkpt>
      <trkpt lat="44.07671" lon="6.26967">
        <ele>750.809</ele>
        <time>2022-08-24T11:54:13Z</time>
      </trkpt>
      <trkpt lat="44.07671" lon="6.2697">
        <ele>751.448</ele>
        <time>2022-08-24T11:54:14Z</time>
      </trkpt>
      <trkpt lat="44.07673" lon="6.26972">
        <ele>751.828</ele>
        <time>2022-08-24T11:54:15Z</time>
      </trkpt>
      <trkpt lat="44.07675" lon="6.26975">
        <ele>752.898</ele>
        <time>2022-08-24T11:54:16Z</time>
      </trkpt>
      <trkpt lat="44.07677" lon="6.26978">
        <ele>753.284</ele>
        <time>2022-08-24T11:54:17Z</time>
      </trkpt>
      <trkpt lat="44.07679" lon="6.26983">
        <ele>753.857</ele>
        <time>2022-08-24T11:54:19Z</time>
      </trkpt>
      <trkpt lat="44.0768" lon="6.26986">
        <ele>754.08</ele>
        <time>2022-08-24T11:54:20Z</time>
      </trkpt>
      <trkpt lat="44.07683" lon="6.26996">
        <ele>754.826</ele>
        <time>2022-08-24T11:54:23Z</time>
      </trkpt>
      <trkpt lat="44.07684" lon="6.27">
        <ele>755.48</ele>
        <time>2022-08-24T11:54:24Z</time>
      </trkpt>
      <trkpt lat="44.07685" lon="6.27008">
        <ele>756.673</ele>
        <time>2022-08-24T11:54:26Z</time>
      </trkpt>
      <trkpt lat="44.07684" lon="6.27011">
        <ele>757.236</ele>
        <time>2022-08-24T11:54:27Z</time>
      </trkpt>
      <trkpt lat="44.07683" lon="6.27017">
        <ele>757.817</ele>
        <time>2022-08-24T11:54:29Z</time>
      </trkpt>
      <trkpt lat="44.07683" lon="6.27026">
        <ele>758.618</ele>
        <time>2022-08-24T11:54:32Z</time>
      </trkpt>
      <trkpt lat="44.07684" lon="6.27032">
        <ele>759.009</ele>
        <time>2022-08-24T11:54:34Z</time>
      </trkpt>
      <trkpt lat="44.07685" lon="6.27046">
        <ele>760.074</ele>
        <time>2022-08-24T11:54:39Z</time>
      </trkpt>
      <trkpt lat="44.07685" lon="6.27049">
        <ele>760.074</ele>
        <time>2022-08-24T11:54:40Z</time>
      </trkpt>
      <trkpt lat="44.07686" lon="6.2706">
        <ele>760.644</ele>
        <time>2022-08-24T11:54:44Z</time>
      </trkpt>
      <trkpt lat="44.07687" lon="6.27066">
        <ele>761.07</ele>
        <time>2022-08-24T11:54:46Z</time>
      </trkpt>
      <trkpt lat="44.07687" lon="6.2707">
        <ele>761.073</ele>
        <time>2022-08-24T11:54:47Z</time>
      </trkpt>
      <trkpt lat="44.07686" lon="6.2708">
        <ele>761.636</ele>
        <time>2022-08-24T11:54:50Z</time>
      </trkpt>
      <trkpt lat="44.07686" lon="6.27083">
        <ele>762.062</ele>
        <time>2022-08-24T11:54:51Z</time>
      </trkpt>
      <trkpt lat="44.07686" lon="6.27086">
        <ele>762.226</ele>
        <time>2022-08-24T11:54:52Z</time>
      </trkpt>
      <trkpt lat="44.07689" lon="6.271">
        <ele>763.269</ele>
        <time>2022-08-24T11:54:57Z</time>
      </trkpt>
      <trkpt lat="44.07694" lon="6.27106">
        <ele>763.822</ele>
        <time>2022-08-24T11:54:59Z</time>
      </trkpt>
      <trkpt lat="44.07697" lon="6.27112">
        <ele>764.662</ele>
        <time>2022-08-24T11:55:01Z</time>
      </trkpt>
      <trkpt lat="44.07699" lon="6.27115">
        <ele>765.008</ele>
        <time>2022-08-24T11:55:02Z</time>
      </trkpt>
      <trkpt lat="44.07701" lon="6.27117">
        <ele>765.409</ele>
        <time>2022-08-24T11:55:03Z</time>
      </trkpt>
      <trkpt lat="44.07704" lon="6.27123">
        <ele>766.473</ele>
        <time>2022-08-24T11:55:05Z</time>
      </trkpt>
      <trkpt lat="44.07707" lon="6.27128">
        <ele>767.673</ele>
        <time>2022-08-24T11:55:07Z</time>
      </trkpt>
      <trkpt lat="44.07712" lon="6.27136">
        <ele>768.643</ele>
        <time>2022-08-24T11:55:10Z</time>
      </trkpt>
      <trkpt lat="44.07718" lon="6.27143">
        <ele>769.899</ele>
        <time>2022-08-24T11:55:13Z</time>
      </trkpt>
      <trkpt lat="44.07721" lon="6.27147">
        <ele>770.482</ele>
        <time>2022-08-24T11:55:15Z</time>
      </trkpt>
      <trkpt lat="44.07726" lon="6.27151">
        <ele>771.075</ele>
        <time>2022-08-24T11:55:17Z</time>
      </trkpt>
      <trkpt lat="44.07737" lon="6.27164">
        <ele>772.281</ele>
        <time>2022-08-24T11:55:22Z</time>
      </trkpt>
      <trkpt lat="44.0775" lon="6.27177">
        <ele>773.445</ele>
        <time>2022-08-24T11:55:27Z</time>
      </trkpt>
      <trkpt lat="44.07753" lon="6.2718">
        <ele>773.498</ele>
        <time>2022-08-24T11:55:28Z</time>
      </trkpt>
      <trkpt lat="44.07768" lon="6.27193">
        <ele>774.069</ele>
        <time>2022-08-24T11:55:33Z</time>
      </trkpt>
      <trkpt lat="44.07774" lon="6.27198">
        <ele>774.604</ele>
        <time>2022-08-24T11:55:35Z</time>
      </trkpt>
      <trkpt lat="44.07789" lon="6.27209">
        <ele>775.624</ele>
        <time>2022-08-24T11:55:40Z</time>
      </trkpt>
      <trkpt lat="44.07792" lon="6.27211">
        <ele>775.809</ele>
        <time>2022-08-24T11:55:41Z</time>
      </trkpt>
      <trkpt lat="44.07795" lon="6.27212">
        <ele>775.847</ele>
        <time>2022-08-24T11:55:42Z</time>
      </trkpt>
      <trkpt lat="44.07804" lon="6.27218">
        <ele>776.687</ele>
        <time>2022-08-24T11:55:45Z</time>
      </trkpt>
      <trkpt lat="44.07807" lon="6.2722">
        <ele>776.647</ele>
        <time>2022-08-24T11:55:46Z</time>
      </trkpt>
      <trkpt lat="44.07816" lon="6.27225">
        <ele>776.823</ele>
        <time>2022-08-24T11:55:49Z</time>
      </trkpt>
      <trkpt lat="44.07822" lon="6.27227">
        <ele>777.216</ele>
        <time>2022-08-24T11:55:52Z</time>
      </trkpt>
      <trkpt lat="44.07826" lon="6.27227">
        <ele>777.639</ele>
        <time>2022-08-24T11:55:54Z</time>
      </trkpt>
      <trkpt lat="44.07831" lon="6.27231">
        <ele>778.475</ele>
        <time>2022-08-24T11:55:58Z</time>
      </trkpt>
      <trkpt lat="44.07832" lon="6.27232">
        <ele>778.699</ele>
        <time>2022-08-24T11:55:59Z</time>
      </trkpt>
      <trkpt lat="44.07834" lon="6.27233">
        <ele>779.072</ele>
        <time>2022-08-24T11:56:01Z</time>
      </trkpt>
      <trkpt lat="44.07836" lon="6.27232">
        <ele>779.625</ele>
        <time>2022-08-24T11:56:04Z</time>
      </trkpt>
      <trkpt lat="44.07839" lon="6.27236">
        <ele>780.226</ele>
        <time>2022-08-24T11:56:11Z</time>
      </trkpt>
      <trkpt lat="44.07839" lon="6.27237">
        <ele>780.608</ele>
        <time>2022-08-24T11:56:13Z</time>
      </trkpt>
      <trkpt lat="44.07839" lon="6.27239">
        <ele>780.809</ele>
        <time>2022-08-24T11:56:14Z</time>
      </trkpt>
      <trkpt lat="44.07839" lon="6.27239">
        <ele>781.023</ele>
        <time>2022-08-24T11:56:15Z</time>
      </trkpt>
      <trkpt lat="44.07841" lon="6.27243">
        <ele>781.283</ele>
        <time>2022-08-24T11:56:22Z</time>
      </trkpt>
      <trkpt lat="44.07841" lon="6.27245">
        <ele>781.423</ele>
        <time>2022-08-24T11:56:24Z</time>
      </trkpt>
      <trkpt lat="44.07841" lon="6.27245">
        <ele>781.499</ele>
        <time>2022-08-24T11:56:25Z</time>
      </trkpt>
      <trkpt lat="44.07848" lon="6.27243">
        <ele>780.262</ele>
        <time>2022-08-24T11:56:53Z</time>
      </trkpt>
      <trkpt lat="44.07849" lon="6.27241">
        <ele>780.255</ele>
        <time>2022-08-24T11:56:54Z</time>
      </trkpt>
      <trkpt lat="44.07851" lon="6.27239">
        <ele>780.281</ele>
        <time>2022-08-24T11:56:55Z</time>
      </trkpt>
      <trkpt lat="44.07861" lon="6.27234">
        <ele>781.815</ele>
        <time>2022-08-24T11:57:00Z</time>
      </trkpt>
      <trkpt lat="44.07866" lon="6.27232">
        <ele>782.488</ele>
        <time>2022-08-24T11:57:02Z</time>
      </trkpt>
      <trkpt lat="44.0787" lon="6.27228">
        <ele>783.071</ele>
        <time>2022-08-24T11:57:04Z</time>
      </trkpt>
      <trkpt lat="44.07878" lon="6.2722">
        <ele>783.441</ele>
        <time>2022-08-24T11:57:07Z</time>
      </trkpt>
      <trkpt lat="44.07885" lon="6.27215">
        <ele>783.415</ele>
        <time>2022-08-24T11:57:09Z</time>
      </trkpt>
      <trkpt lat="44.07895" lon="6.2721">
        <ele>784.009</ele>
        <time>2022-08-24T11:57:12Z</time>
      </trkpt>
      <trkpt lat="44.07898" lon="6.27209">
        <ele>784.628</ele>
        <time>2022-08-24T11:57:13Z</time>
      </trkpt>
      <trkpt lat="44.07902" lon="6.27207">
        <ele>785.088</ele>
        <time>2022-08-24T11:57:14Z</time>
      </trkpt>
      <trkpt lat="44.07911" lon="6.27207">
        <ele>786.428</ele>
        <time>2022-08-24T11:57:17Z</time>
      </trkpt>
      <trkpt lat="44.07927" lon="6.27203">
        <ele>787.284</ele>
        <time>2022-08-24T11:57:22Z</time>
      </trkpt>
      <trkpt lat="44.0794" lon="6.27195">
        <ele>787.497</ele>
        <time>2022-08-24T11:57:26Z</time>
      </trkpt>
      <trkpt lat="44.07947" lon="6.2719">
        <ele>787.62</ele>
        <time>2022-08-24T11:57:28Z</time>
      </trkpt>
      <trkpt lat="44.07966" lon="6.2718">
        <ele>788.276</ele>
        <time>2022-08-24T11:57:34Z</time>
      </trkpt>
      <trkpt lat="44.0797" lon="6.27176">
        <ele>788.47</ele>
        <time>2022-08-24T11:57:36Z</time>
      </trkpt>
      <trkpt lat="44.07975" lon="6.27172">
        <ele>789.043</ele>
        <time>2022-08-24T11:57:39Z</time>
      </trkpt>
      <trkpt lat="44.07978" lon="6.27171">
        <ele>789.842</ele>
        <time>2022-08-24T11:57:41Z</time>
      </trkpt>
      <trkpt lat="44.07979" lon="6.27171">
        <ele>790.222</ele>
        <time>2022-08-24T11:57:44Z</time>
      </trkpt>
      <trkpt lat="44.07979" lon="6.27181">
        <ele>789.614</ele>
        <time>2022-08-24T11:59:00Z</time>
      </trkpt>
      <trkpt lat="44.0798" lon="6.27182">
        <ele>789.409</ele>
        <time>2022-08-24T11:59:01Z</time>
      </trkpt>
      <trkpt lat="44.07981" lon="6.27183">
        <ele>789.225</ele>
        <time>2022-08-24T11:59:02Z</time>
      </trkpt>
      <trkpt lat="44.07983" lon="6.27182">
        <ele>788.895</ele>
        <time>2022-08-24T11:59:05Z</time>
      </trkpt>
      <trkpt lat="44.07984" lon="6.27181">
        <ele>788.865</ele>
        <time>2022-08-24T11:59:06Z</time>
      </trkpt>
      <trkpt lat="44.07982" lon="6.27175">
        <ele>788.281</ele>
        <time>2022-08-24T11:59:10Z</time>
      </trkpt>
      <trkpt lat="44.0798" lon="6.27172">
        <ele>788.424</ele>
        <time>2022-08-24T11:59:12Z</time>
      </trkpt>
      <trkpt lat="44.07979" lon="6.27168">
        <ele>788.447</ele>
        <time>2022-08-24T11:59:14Z</time>
      </trkpt>
      <trkpt lat="44.07981" lon="6.27166">
        <ele>789.443</ele>
        <time>2022-08-24T11:59:16Z</time>
      </trkpt>
      <trkpt lat="44.07982" lon="6.27167">
        <ele>789.637</ele>
        <time>2022-08-24T11:59:19Z</time>
      </trkpt>
      <trkpt lat="44.07983" lon="6.27171">
        <ele>789.44</ele>
        <time>2022-08-24T11:59:26Z</time>
      </trkpt>
      <trkpt lat="44.07984" lon="6.27176">
        <ele>789.411</ele>
        <time>2022-08-24T11:59:27Z</time>
      </trkpt>
      <trkpt lat="44.07985" lon="6.27186">
        <ele>788.621</ele>
        <time>2022-08-24T11:59:30Z</time>
      </trkpt>
      <trkpt lat="44.07985" lon="6.27186">
        <ele>788.203</ele>
        <time>2022-08-24T11:59:31Z</time>
      </trkpt>
      <trkpt lat="44.07982" lon="6.27194">
        <ele>787.609</ele>
        <time>2022-08-24T11:59:33Z</time>
      </trkpt>
      <trkpt lat="44.07982" lon="6.27194">
        <ele>787.462</ele>
        <time>2022-08-24T11:59:34Z</time>
      </trkpt>
      <trkpt lat="44.07985" lon="6.27196">
        <ele>786.632</ele>
        <time>2022-08-24T11:59:36Z</time>
      </trkpt>
      <trkpt lat="44.07992" lon="6.27202">
        <ele>787.082</ele>
        <time>2022-08-24T11:59:39Z</time>
      </trkpt>
      <trkpt lat="44.07993" lon="6.2722">
        <ele>787.298</ele>
        <time>2022-08-24T11:59:44Z</time>
      </trkpt>
      <trkpt lat="44.07994" lon="6.27223">
        <ele>787.631</ele>
        <time>2022-08-24T11:59:45Z</time>
      </trkpt>
      <trkpt lat="44.07997" lon="6.2723">
        <ele>788.494</ele>
        <time>2022-08-24T11:59:47Z</time>
      </trkpt>
      <trkpt lat="44.07997" lon="6.27234">
        <ele>788.65</ele>
        <time>2022-08-24T11:59:48Z</time>
      </trkpt>
      <trkpt lat="44.07996" lon="6.27237">
        <ele>788.654</ele>
        <time>2022-08-24T11:59:49Z</time>
      </trkpt>
      <trkpt lat="44.07994" lon="6.2724">
        <ele>788.677</ele>
        <time>2022-08-24T11:59:50Z</time>
      </trkpt>
      <trkpt lat="44.07994" lon="6.2724">
        <ele>788.668</ele>
        <time>2022-08-24T11:59:51Z</time>
      </trkpt>
      <trkpt lat="44.0799" lon="6.27244">
        <ele>788.642</ele>
        <time>2022-08-24T11:59:52Z</time>
      </trkpt>
      <trkpt lat="44.07984" lon="6.27249">
        <ele>788.226</ele>
        <time>2022-08-24T11:59:54Z</time>
      </trkpt>
      <trkpt lat="44.07978" lon="6.27255">
        <ele>788.209</ele>
        <time>2022-08-24T11:59:56Z</time>
      </trkpt>
      <trkpt lat="44.07972" lon="6.27259">
        <ele>788.267</ele>
        <time>2022-08-24T11:59:59Z</time>
      </trkpt>
      <trkpt lat="44.07971" lon="6.27262">
        <ele>788.417</ele>
        <time>2022-08-24T12:00:00Z</time>
      </trkpt>
      <trkpt lat="44.07971" lon="6.27265">
        <ele>788.887</ele>
        <time>2022-08-24T12:00:01Z</time>
      </trkpt>
      <trkpt lat="44.07972" lon="6.27276">
        <ele>790.263</ele>
        <time>2022-08-24T12:00:04Z</time>
      </trkpt>
      <trkpt lat="44.07972" lon="6.27281">
        <ele>791.236</ele>
        <time>2022-08-24T12:00:06Z</time>
      </trkpt>
      <trkpt lat="44.07975" lon="6.27296">
        <ele>792.229</ele>
        <time>2022-08-24T12:00:11Z</time>
      </trkpt>
      <trkpt lat="44.07976" lon="6.27299">
        <ele>793.495</ele>
        <time>2022-08-24T12:00:13Z</time>
      </trkpt>
      <trkpt lat="44.07976" lon="6.27316">
        <ele>794.449</ele>
        <time>2022-08-24T12:00:17Z</time>
      </trkpt>
      <trkpt lat="44.07976" lon="6.27318">
        <ele>794.842</ele>
        <time>2022-08-24T12:00:18Z</time>
      </trkpt>
      <trkpt lat="44.07975" lon="6.27324">
        <ele>795.621</ele>
        <time>2022-08-24T12:00:21Z</time>
      </trkpt>
      <trkpt lat="44.07975" lon="6.27338">
        <ele>796.441</ele>
        <time>2022-08-24T12:00:24Z</time>
      </trkpt>
      <trkpt lat="44.07976" lon="6.27342">
        <ele>796.805</ele>
        <time>2022-08-24T12:00:26Z</time>
      </trkpt>
      <trkpt lat="44.07978" lon="6.2736">
        <ele>797.809</ele>
        <time>2022-08-24T12:00:30Z</time>
      </trkpt>
      <trkpt lat="44.07978" lon="6.27363">
        <ele>798.053</ele>
        <time>2022-08-24T12:00:31Z</time>
      </trkpt>
      <trkpt lat="44.07977" lon="6.27372">
        <ele>798.643</ele>
        <time>2022-08-24T12:00:34Z</time>
      </trkpt>
      <trkpt lat="44.07976" lon="6.27378">
        <ele>799.013</ele>
        <time>2022-08-24T12:00:36Z</time>
      </trkpt>
      <trkpt lat="44.07975" lon="6.27381">
        <ele>799.039</ele>
        <time>2022-08-24T12:00:37Z</time>
      </trkpt>
      <trkpt lat="44.07974" lon="6.27384">
        <ele>799.262</ele>
        <time>2022-08-24T12:00:38Z</time>
      </trkpt>
      <trkpt lat="44.07974" lon="6.27387">
        <ele>799.245</ele>
        <time>2022-08-24T12:00:39Z</time>
      </trkpt>
      <trkpt lat="44.07974" lon="6.27394">
        <ele>799.431</ele>
        <time>2022-08-24T12:00:41Z</time>
      </trkpt>
      <trkpt lat="44.07974" lon="6.27401">
        <ele>800.095</ele>
        <time>2022-08-24T12:00:43Z</time>
      </trkpt>
      <trkpt lat="44.07979" lon="6.27427">
        <ele>801.078</ele>
        <time>2022-08-24T12:00:51Z</time>
      </trkpt>
      <trkpt lat="44.07979" lon="6.27431">
        <ele>801.278</ele>
        <time>2022-08-24T12:00:52Z</time>
      </trkpt>
      <trkpt lat="44.07976" lon="6.27454">
        <ele>801.833</ele>
        <time>2022-08-24T12:00:57Z</time>
      </trkpt>
      <trkpt lat="44.07976" lon="6.27464">
        <ele>801.826</ele>
        <time>2022-08-24T12:00:59Z</time>
      </trkpt>
      <trkpt lat="44.07976" lon="6.27488">
        <ele>802.609</ele>
        <time>2022-08-24T12:01:03Z</time>
      </trkpt>
      <trkpt lat="44.07977" lon="6.27495">
        <ele>802.828</ele>
        <time>2022-08-24T12:01:04Z</time>
      </trkpt>
      <trkpt lat="44.07977" lon="6.27509">
        <ele>803.078</ele>
        <time>2022-08-24T12:01:06Z</time>
      </trkpt>
      <trkpt lat="44.07975" lon="6.27527">
        <ele>803.298</ele>
        <time>2022-08-24T12:01:09Z</time>
      </trkpt>
      <trkpt lat="44.07977" lon="6.27548">
        <ele>803.294</ele>
        <time>2022-08-24T12:01:13Z</time>
      </trkpt>
      <trkpt lat="44.07979" lon="6.27559">
        <ele>803.057</ele>
        <time>2022-08-24T12:01:15Z</time>
      </trkpt>
      <trkpt lat="44.0798" lon="6.27593">
        <ele>802.67</ele>
        <time>2022-08-24T12:01:20Z</time>
      </trkpt>
      <trkpt lat="44.07978" lon="6.27608">
        <ele>802.276</ele>
        <time>2022-08-24T12:01:22Z</time>
      </trkpt>
      <trkpt lat="44.07974" lon="6.2762">
        <ele>801.81</ele>
        <time>2022-08-24T12:01:24Z</time>
      </trkpt>
      <trkpt lat="44.07959" lon="6.27656">
        <ele>802.053</ele>
        <time>2022-08-24T12:01:30Z</time>
      </trkpt>
      <trkpt lat="44.07958" lon="6.27661">
        <ele>802.437</ele>
        <time>2022-08-24T12:01:32Z</time>
      </trkpt>
      <trkpt lat="44.07956" lon="6.27677">
        <ele>803.249</ele>
        <time>2022-08-24T12:01:34Z</time>
      </trkpt>
      <trkpt lat="44.07956" lon="6.27687">
        <ele>804.213</ele>
        <time>2022-08-24T12:01:36Z</time>
      </trkpt>
      <trkpt lat="44.07957" lon="6.27695">
        <ele>805.209</ele>
        <time>2022-08-24T12:01:38Z</time>
      </trkpt>
      <trkpt lat="44.07958" lon="6.27705">
        <ele>806.414</ele>
        <time>2022-08-24T12:01:41Z</time>
      </trkpt>
      <trkpt lat="44.07959" lon="6.27713">
        <ele>808.064</ele>
        <time>2022-08-24T12:01:44Z</time>
      </trkpt>
      <trkpt lat="44.07962" lon="6.27718">
        <ele>808.874</ele>
        <time>2022-08-24T12:01:46Z</time>
      </trkpt>
      <trkpt lat="44.07963" lon="6.27722">
        <ele>809.24</ele>
        <time>2022-08-24T12:01:47Z</time>
      </trkpt>
      <trkpt lat="44.07964" lon="6.27725">
        <ele>810.483</ele>
        <time>2022-08-24T12:01:48Z</time>
      </trkpt>
      <trkpt lat="44.07965" lon="6.27729">
        <ele>811.676</ele>
        <time>2022-08-24T12:01:50Z</time>
      </trkpt>
      <trkpt lat="44.07968" lon="6.27738">
        <ele>812.672</ele>
        <time>2022-08-24T12:01:53Z</time>
      </trkpt>
      <trkpt lat="44.07972" lon="6.27748">
        <ele>813.876</ele>
        <time>2022-08-24T12:01:57Z</time>
      </trkpt>
      <trkpt lat="44.07973" lon="6.2775">
        <ele>814.469</ele>
        <time>2022-08-24T12:01:58Z</time>
      </trkpt>
      <trkpt lat="44.07975" lon="6.27756">
        <ele>815.241</ele>
        <time>2022-08-24T12:02:00Z</time>
      </trkpt>
      <trkpt lat="44.07975" lon="6.27758">
        <ele>815.881</ele>
        <time>2022-08-24T12:02:01Z</time>
      </trkpt>
      <trkpt lat="44.07976" lon="6.27764">
        <ele>816.609</ele>
        <time>2022-08-24T12:02:03Z</time>
      </trkpt>
      <trkpt lat="44.07979" lon="6.27772">
        <ele>818.009</ele>
        <time>2022-08-24T12:02:06Z</time>
      </trkpt>
      <trkpt lat="44.07978" lon="6.27776">
        <ele>819.445</ele>
        <time>2022-08-24T12:02:08Z</time>
      </trkpt>
      <trkpt lat="44.07978" lon="6.27776">
        <ele>819.885</ele>
        <time>2022-08-24T12:02:09Z</time>
      </trkpt>
      <trkpt lat="44.07977" lon="6.27777">
        <ele>820.085</ele>
        <time>2022-08-24T12:02:10Z</time>
      </trkpt>
      <trkpt lat="44.07977" lon="6.27778">
        <ele>820.491</ele>
        <time>2022-08-24T12:02:13Z</time>
      </trkpt>
      <trkpt lat="44.07978" lon="6.27778">
        <ele>820.624</ele>
        <time>2022-08-24T12:02:15Z</time>
      </trkpt>
      <trkpt lat="44.07977" lon="6.27786">
        <ele>820.897</ele>
        <time>2022-08-24T12:02:21Z</time>
      </trkpt>
      <trkpt lat="44.07976" lon="6.27787">
        <ele>821.453</ele>
        <time>2022-08-24T12:02:22Z</time>
      </trkpt>
      <trkpt lat="44.07975" lon="6.27788">
        <ele>821.877</ele>
        <time>2022-08-24T12:02:23Z</time>
      </trkpt>
      <trkpt lat="44.07973" lon="6.2779">
        <ele>822.84</ele>
        <time>2022-08-24T12:02:26Z</time>
      </trkpt>
      <trkpt lat="44.07973" lon="6.27792">
        <ele>823.239</ele>
        <time>2022-08-24T12:02:27Z</time>
      </trkpt>
      <trkpt lat="44.07974" lon="6.27796">
        <ele>824.201</ele>
        <time>2022-08-24T12:02:29Z</time>
      </trkpt>
      <trkpt lat="44.07976" lon="6.27799">
        <ele>825.421</ele>
        <time>2022-08-24T12:02:31Z</time>
      </trkpt>
      <trkpt lat="44.07977" lon="6.27801">
        <ele>825.809</ele>
        <time>2022-08-24T12:02:32Z</time>
      </trkpt>
      <trkpt lat="44.07979" lon="6.27805">
        <ele>826.864</ele>
        <time>2022-08-24T12:02:34Z</time>
      </trkpt>
      <trkpt lat="44.07982" lon="6.27813">
        <ele>828.064</ele>
        <time>2022-08-24T12:02:38Z</time>
      </trkpt>
      <trkpt lat="44.07983" lon="6.27817">
        <ele>829.064</ele>
        <time>2022-08-24T12:02:40Z</time>
      </trkpt>
      <trkpt lat="44.07985" lon="6.27824">
        <ele>830.24</ele>
        <time>2022-08-24T12:02:43Z</time>
      </trkpt>
      <trkpt lat="44.07984" lon="6.27829">
        <ele>831.853</ele>
        <time>2022-08-24T12:02:45Z</time>
      </trkpt>
      <trkpt lat="44.07984" lon="6.27831">
        <ele>833.026</ele>
        <time>2022-08-24T12:02:46Z</time>
      </trkpt>
      <trkpt lat="44.07985" lon="6.27833">
        <ele>834.022</ele>
        <time>2022-08-24T12:02:47Z</time>
      </trkpt>
      <trkpt lat="44.07985" lon="6.27835">
        <ele>834.676</ele>
        <time>2022-08-24T12:02:48Z</time>
      </trkpt>
      <trkpt lat="44.07984" lon="6.27838">
        <ele>835.229</ele>
        <time>2022-08-24T12:02:50Z</time>
      </trkpt>
      <trkpt lat="44.07984" lon="6.27839">
        <ele>836.269</ele>
        <time>2022-08-24T12:02:52Z</time>
      </trkpt>
      <trkpt lat="44.08002" lon="6.27911">
        <ele>851.404</ele>
        <time>2022-08-24T12:05:15Z</time>
      </trkpt>
      <trkpt lat="44.08003" lon="6.27913">
        <ele>851.824</ele>
        <time>2022-08-24T12:05:16Z</time>
      </trkpt>
      <trkpt lat="44.08005" lon="6.27915">
        <ele>852.009</ele>
        <time>2022-08-24T12:05:17Z</time>
      </trkpt>
      <trkpt lat="44.08005" lon="6.27918">
        <ele>852.677</ele>
        <time>2022-08-24T12:05:18Z</time>
      </trkpt>
      <trkpt lat="44.08007" lon="6.27925">
        <ele>854.217</ele>
        <time>2022-08-24T12:05:21Z</time>
      </trkpt>
      <trkpt lat="44.08007" lon="6.27929">
        <ele>855.697</ele>
        <time>2022-08-24T12:05:23Z</time>
      </trkpt>
      <trkpt lat="44.08007" lon="6.27931">
        <ele>857.213</ele>
        <time>2022-08-24T12:05:26Z</time>
      </trkpt>
      <trkpt lat="44.08055" lon="6.27969">
        <ele>871.416</ele>
        <time>2022-08-24T12:07:42Z</time>
      </trkpt>
      <trkpt lat="44.08057" lon="6.27971">
        <ele>871.649</ele>
        <time>2022-08-24T12:07:43Z</time>
      </trkpt>
      <trkpt lat="44.0806" lon="6.27975">
        <ele>872.215</ele>
        <time>2022-08-24T12:07:45Z</time>
      </trkpt>
      <trkpt lat="44.08062" lon="6.27977">
        <ele>872.889</ele>
        <time>2022-08-24T12:07:46Z</time>
      </trkpt>
      <trkpt lat="44.08065" lon="6.27978">
        <ele>874.692</ele>
        <time>2022-08-24T12:07:48Z</time>
      </trkpt>
      <trkpt lat="44.08067" lon="6.27979">
        <ele>875.254</ele>
        <time>2022-08-24T12:07:49Z</time>
      </trkpt>
      <trkpt lat="44.08069" lon="6.27979">
        <ele>875.856</ele>
        <time>2022-08-24T12:07:50Z</time>
      </trkpt>
      <trkpt lat="44.08073" lon="6.27981">
        <ele>877.011</ele>
        <time>2022-08-24T12:07:53Z</time>
      </trkpt>
      <trkpt lat="44.08075" lon="6.27981">
        <ele>877.409</ele>
        <time>2022-08-24T12:07:55Z</time>
      </trkpt>
      <trkpt lat="44.0808" lon="6.27984">
        <ele>878.026</ele>
        <time>2022-08-24T12:07:59Z</time>
      </trkpt>
      <trkpt lat="44.08082" lon="6.27986">
        <ele>878.686</ele>
        <time>2022-08-24T12:08:01Z</time>
      </trkpt>
      <trkpt lat="44.08085" lon="6.27989">
        <ele>879.236</ele>
        <time>2022-08-24T12:08:04Z</time>
      </trkpt>
      <trkpt lat="44.08087" lon="6.27991">
        <ele>880.092</ele>
        <time>2022-08-24T12:08:07Z</time>
      </trkpt>
      <trkpt lat="44.0809" lon="6.27993">
        <ele>880.445</ele>
        <time>2022-08-24T12:08:09Z</time>
      </trkpt>
      <trkpt lat="44.08093" lon="6.27996">
        <ele>881.088</ele>
        <time>2022-08-24T12:08:12Z</time>
      </trkpt>
      <trkpt lat="44.08095" lon="6.27998">
        <ele>881.244</ele>
        <time>2022-08-24T12:08:14Z</time>
      </trkpt>
      <trkpt lat="44.08096" lon="6.28">
        <ele>881.488</ele>
        <time>2022-08-24T12:08:15Z</time>
      </trkpt>
      <trkpt lat="44.08097" lon="6.28002">
        <ele>882.011</ele>
        <time>2022-08-24T12:08:17Z</time>
      </trkpt>
      <trkpt lat="44.08098" lon="6.28002">
        <ele>882.223</ele>
        <time>2022-08-24T12:08:18Z</time>
      </trkpt>
      <trkpt lat="44.081" lon="6.28002">
        <ele>882.483</ele>
        <time>2022-08-24T12:08:19Z</time>
      </trkpt>
      <trkpt lat="44.08102" lon="6.28004">
        <ele>882.811</ele>
        <time>2022-08-24T12:08:21Z</time>
      </trkpt>
      <trkpt lat="44.08103" lon="6.28006">
        <ele>882.609</ele>
        <time>2022-08-24T12:08:22Z</time>
      </trkpt>
      <trkpt lat="44.08104" lon="6.2801">
        <ele>883.643</ele>
        <time>2022-08-24T12:08:25Z</time>
      </trkpt>
      <trkpt lat="44.08108" lon="6.28015">
        <ele>884.093</ele>
        <time>2022-08-24T12:08:27Z</time>
      </trkpt>
      <trkpt lat="44.0811" lon="6.28017">
        <ele>884.033</ele>
        <time>2022-08-24T12:08:28Z</time>
      </trkpt>
      <trkpt lat="44.08111" lon="6.28022">
        <ele>884.659</ele>
        <time>2022-08-24T12:08:31Z</time>
      </trkpt>
      <trkpt lat="44.08112" lon="6.28024">
        <ele>886.272</ele>
        <time>2022-08-24T12:08:33Z</time>
      </trkpt>
      <trkpt lat="44.08118" lon="6.28031">
        <ele>887.245</ele>
        <time>2022-08-24T12:08:37Z</time>
      </trkpt>
      <trkpt lat="44.08118" lon="6.28034">
        <ele>887.851</ele>
        <time>2022-08-24T12:08:38Z</time>
      </trkpt>
      <trkpt lat="44.08117" lon="6.28036">
        <ele>888.275</ele>
        <time>2022-08-24T12:08:39Z</time>
      </trkpt>
      <trkpt lat="44.08117" lon="6.28037">
        <ele>888.818</ele>
        <time>2022-08-24T12:08:40Z</time>
      </trkpt>
      <trkpt lat="44.08118" lon="6.28037">
        <ele>889.025</ele>
        <time>2022-08-24T12:08:41Z</time>
      </trkpt>
      <trkpt lat="44.08118" lon="6.28037">
        <ele>889.426</ele>
        <time>2022-08-24T12:08:42Z</time>
      </trkpt>
      <trkpt lat="44.0812" lon="6.28045">
        <ele>889.808</ele>
        <time>2022-08-24T12:09:25Z</time>
      </trkpt>
      <trkpt lat="44.08121" lon="6.28047">
        <ele>890.209</ele>
        <time>2022-08-24T12:09:26Z</time>
      </trkpt>
      <trkpt lat="44.08121" lon="6.28049">
        <ele>890.223</ele>
        <time>2022-08-24T12:09:27Z</time>
      </trkpt>
      <trkpt lat="44.08123" lon="6.28051">
        <ele>890.443</ele>
        <time>2022-08-24T12:09:28Z</time>
      </trkpt>
      <trkpt lat="44.08125" lon="6.28058">
        <ele>891.623</ele>
        <time>2022-08-24T12:09:31Z</time>
      </trkpt>
      <trkpt lat="44.08128" lon="6.28063">
        <ele>892.249</ele>
        <time>2022-08-24T12:09:33Z</time>
      </trkpt>
      <trkpt lat="44.08129" lon="6.28065">
        <ele>892.492</ele>
        <time>2022-08-24T12:09:34Z</time>
      </trkpt>
      <trkpt lat="44.08131" lon="6.28068">
        <ele>893.285</ele>
        <time>2022-08-24T12:09:35Z</time>
      </trkpt>
      <trkpt lat="44.08132" lon="6.28072">
        <ele>894.681</ele>
        <time>2022-08-24T12:09:37Z</time>
      </trkpt>
      <trkpt lat="44.08132" lon="6.28074">
        <ele>895.295</ele>
        <time>2022-08-24T12:09:38Z</time>
      </trkpt>
      <trkpt lat="44.08132" lon="6.28077">
        <ele>895.868</ele>
        <time>2022-08-24T12:09:39Z</time>
      </trkpt>
      <trkpt lat="44.08132" lon="6.28087">
        <ele>897.099</ele>
        <time>2022-08-24T12:09:43Z</time>
      </trkpt>
      <trkpt lat="44.08133" lon="6.2809">
        <ele>897.407</ele>
        <time>2022-08-24T12:09:44Z</time>
      </trkpt>
      <trkpt lat="44.08133" lon="6.28094">
        <ele>898.227</ele>
        <time>2022-08-24T12:09:46Z</time>
      </trkpt>
      <trkpt lat="44.08134" lon="6.28095">
        <ele>899.009</ele>
        <time>2022-08-24T12:09:48Z</time>
      </trkpt>
      <trkpt lat="44.08135" lon="6.28097">
        <ele>899.24</ele>
        <time>2022-08-24T12:09:49Z</time>
      </trkpt>
      <trkpt lat="44.08135" lon="6.28099">
        <ele>899.47</ele>
        <time>2022-08-24T12:09:50Z</time>
      </trkpt>
      <trkpt lat="44.08134" lon="6.28101">
        <ele>899.84</ele>
        <time>2022-08-24T12:09:52Z</time>
      </trkpt>
      <trkpt lat="44.08126" lon="6.28116">
        <ele>897.446</ele>
        <time>2022-08-24T12:12:01Z</time>
      </trkpt>
      <trkpt lat="44.08123" lon="6.28123">
        <ele>898.469</ele>
        <time>2022-08-24T12:12:05Z</time>
      </trkpt>
      <trkpt lat="44.0812" lon="6.28127">
        <ele>898.832</ele>
        <time>2022-08-24T12:12:06Z</time>
      </trkpt>
      <trkpt lat="44.08117" lon="6.2813">
        <ele>899.478</ele>
        <time>2022-08-24T12:12:08Z</time>
      </trkpt>
      <trkpt lat="44.0811" lon="6.28135">
        <ele>900.622</ele>
        <time>2022-08-24T12:12:12Z</time>
      </trkpt>
      <trkpt lat="44.08106" lon="6.28138">
        <ele>901.835</ele>
        <time>2022-08-24T12:12:15Z</time>
      </trkpt>
      <trkpt lat="44.08103" lon="6.2814">
        <ele>902.045</ele>
        <time>2022-08-24T12:12:16Z</time>
      </trkpt>
      <trkpt lat="44.08099" lon="6.28141">
        <ele>902.247</ele>
        <time>2022-08-24T12:12:18Z</time>
      </trkpt>
      <trkpt lat="44.08097" lon="6.28141">
        <ele>902.811</ele>
        <time>2022-08-24T12:12:19Z</time>
      </trkpt>
      <trkpt lat="44.08093" lon="6.28142">
        <ele>903.409</ele>
        <time>2022-08-24T12:12:21Z</time>
      </trkpt>
      <trkpt lat="44.08088" lon="6.28142">
        <ele>904.225</ele>
        <time>2022-08-24T12:12:23Z</time>
      </trkpt>
      <trkpt lat="44.08086" lon="6.28142">
        <ele>904.425</ele>
        <time>2022-08-24T12:12:24Z</time>
      </trkpt>
      <trkpt lat="44.08081" lon="6.28146">
        <ele>904.815</ele>
        <time>2022-08-24T12:12:28Z</time>
      </trkpt>
      <trkpt lat="44.0808" lon="6.28146">
        <ele>904.871</ele>
        <time>2022-08-24T12:12:29Z</time>
      </trkpt>
      <trkpt lat="44.08079" lon="6.28147">
        <ele>905.294</ele>
        <time>2022-08-24T12:12:31Z</time>
      </trkpt>
      <trkpt lat="44.08079" lon="6.28148">
        <ele>905.477</ele>
        <time>2022-08-24T12:12:32Z</time>
      </trkpt>
      <trkpt lat="44.0808" lon="6.28149">
        <ele>905.223</ele>
        <time>2022-08-24T12:12:34Z</time>
      </trkpt>
      <trkpt lat="44.08085" lon="6.28154">
        <ele>905.047</ele>
        <time>2022-08-24T12:12:38Z</time>
      </trkpt>
      <trkpt lat="44.08086" lon="6.28156">
        <ele>905.81</ele>
        <time>2022-08-24T12:12:39Z</time>
      </trkpt>
      <trkpt lat="44.08085" lon="6.28162">
        <ele>906.214</ele>
        <time>2022-08-24T12:12:40Z</time>
      </trkpt>
      <trkpt lat="44.08084" lon="6.28164">
        <ele>906.654</ele>
        <time>2022-08-24T12:12:41Z</time>
      </trkpt>
      <trkpt lat="44.08081" lon="6.2817">
        <ele>906.809</ele>
        <time>2022-08-24T12:12:44Z</time>
      </trkpt>
      <trkpt lat="44.0808" lon="6.28172">
        <ele>907.009</ele>
        <time>2022-08-24T12:12:46Z</time>
      </trkpt>
      <trkpt lat="44.08078" lon="6.28178">
        <ele>907.812</ele>
        <time>2022-08-24T12:12:48Z</time>
      </trkpt>
      <trkpt lat="44.08074" lon="6.28184">
        <ele>909.082</ele>
        <time>2022-08-24T12:12:51Z</time>
      </trkpt>
      <trkpt lat="44.08072" lon="6.28186">
        <ele>910.082</ele>
        <time>2022-08-24T12:12:52Z</time>
      </trkpt>
      <trkpt lat="44.08071" lon="6.28187">
        <ele>910.648</ele>
        <time>2022-08-24T12:12:53Z</time>
      </trkpt>
      <trkpt lat="44.08062" lon="6.28189">
        <ele>911.441</ele>
        <time>2022-08-24T12:12:58Z</time>
      </trkpt>
      <trkpt lat="44.0806" lon="6.28188">
        <ele>911.454</ele>
        <time>2022-08-24T12:12:59Z</time>
      </trkpt>
      <trkpt lat="44.08059" lon="6.28189">
        <ele>911.69</ele>
        <time>2022-08-24T12:13:00Z</time>
      </trkpt>
      <trkpt lat="44.08055" lon="6.28193">
        <ele>912.254</ele>
        <time>2022-08-24T12:13:03Z</time>
      </trkpt>
      <trkpt lat="44.08054" lon="6.28196">
        <ele>912.617</ele>
        <time>2022-08-24T12:13:04Z</time>
      </trkpt>
      <trkpt lat="44.08053" lon="6.28197">
        <ele>913.461</ele>
        <time>2022-08-24T12:13:05Z</time>
      </trkpt>
      <trkpt lat="44.08053" lon="6.28197">
        <ele>913.821</ele>
        <time>2022-08-24T12:13:06Z</time>
      </trkpt>
      <trkpt lat="44.08048" lon="6.28199">
        <ele>914.413</ele>
        <time>2022-08-24T12:13:08Z</time>
      </trkpt>
      <trkpt lat="44.08038" lon="6.28203">
        <ele>915.209</ele>
        <time>2022-08-24T12:13:13Z</time>
      </trkpt>
      <trkpt lat="44.08037" lon="6.28204">
        <ele>915.467</ele>
        <time>2022-08-24T12:13:15Z</time>
      </trkpt>
      <trkpt lat="44.08035" lon="6.28207">
        <ele>915.887</ele>
        <time>2022-08-24T12:13:16Z</time>
      </trkpt>
      <trkpt lat="44.08036" lon="6.28211">
        <ele>916.487</ele>
        <time>2022-08-24T12:13:18Z</time>
      </trkpt>
      <trkpt lat="44.08037" lon="6.28212">
        <ele>916.873</ele>
        <time>2022-08-24T12:13:19Z</time>
      </trkpt>
      <trkpt lat="44.0804" lon="6.28213">
        <ele>917.456</ele>
        <time>2022-08-24T12:13:21Z</time>
      </trkpt>
      <trkpt lat="44.08042" lon="6.28213">
        <ele>917.699</ele>
        <time>2022-08-24T12:13:22Z</time>
      </trkpt>
      <trkpt lat="44.08044" lon="6.28215">
        <ele>918.055</ele>
        <time>2022-08-24T12:13:23Z</time>
      </trkpt>
      <trkpt lat="44.08046" lon="6.2822">
        <ele>919.489</ele>
        <time>2022-08-24T12:13:25Z</time>
      </trkpt>
      <trkpt lat="44.08045" lon="6.28222">
        <ele>919.892</ele>
        <time>2022-08-24T12:13:26Z</time>
      </trkpt>
      <trkpt lat="44.08043" lon="6.28225">
        <ele>920.657</ele>
        <time>2022-08-24T12:13:28Z</time>
      </trkpt>
      <trkpt lat="44.0804" lon="6.28225">
        <ele>921.4</ele>
        <time>2022-08-24T12:13:30Z</time>
      </trkpt>
      <trkpt lat="44.08038" lon="6.28226">
        <ele>922.02</ele>
        <time>2022-08-24T12:13:31Z</time>
      </trkpt>
      <trkpt lat="44.08033" lon="6.28227">
        <ele>923.209</ele>
        <time>2022-08-24T12:13:35Z</time>
      </trkpt>
      <trkpt lat="44.08033" lon="6.28227">
        <ele>923.836</ele>
        <time>2022-08-24T12:13:36Z</time>
      </trkpt>
      <trkpt lat="44.08027" lon="6.28228">
        <ele>924.616</ele>
        <time>2022-08-24T12:13:52Z</time>
      </trkpt>
      <trkpt lat="44.08024" lon="6.28228">
        <ele>924.816</ele>
        <time>2022-08-24T12:13:54Z</time>
      </trkpt>
      <trkpt lat="44.08022" lon="6.28228">
        <ele>924.832</ele>
        <time>2022-08-24T12:13:55Z</time>
      </trkpt>
      <trkpt lat="44.08019" lon="6.28227">
        <ele>925.415</ele>
        <time>2022-08-24T12:13:57Z</time>
      </trkpt>
      <trkpt lat="44.08017" lon="6.28227">
        <ele>925.868</ele>
        <time>2022-08-24T12:13:58Z</time>
      </trkpt>
      <trkpt lat="44.08012" lon="6.28228">
        <ele>926.294</ele>
        <time>2022-08-24T12:14:02Z</time>
      </trkpt>
      <trkpt lat="44.08011" lon="6.28228">
        <ele>926.458</ele>
        <time>2022-08-24T12:14:03Z</time>
      </trkpt>
      <trkpt lat="44.0801" lon="6.28229">
        <ele>926.611</ele>
        <time>2022-08-24T12:14:04Z</time>
      </trkpt>
      <trkpt lat="44.08009" lon="6.28231">
        <ele>926.899</ele>
        <time>2022-08-24T12:14:05Z</time>
      </trkpt>
      <trkpt lat="44.0801" lon="6.28232">
        <ele>927.807</ele>
        <time>2022-08-24T12:14:07Z</time>
      </trkpt>
      <trkpt lat="44.08011" lon="6.28233">
        <ele>928.227</ele>
        <time>2022-08-24T12:14:08Z</time>
      </trkpt>
      <trkpt lat="44.08013" lon="6.28233">
        <ele>928.809</ele>
        <time>2022-08-24T12:14:11Z</time>
      </trkpt>
      <trkpt lat="44.08015" lon="6.28236">
        <ele>929.26</ele>
        <time>2022-08-24T12:14:13Z</time>
      </trkpt>
      <trkpt lat="44.08014" lon="6.28237">
        <ele>929.48</ele>
        <time>2022-08-24T12:14:14Z</time>
      </trkpt>
      <trkpt lat="44.08014" lon="6.28237">
        <ele>930.45</ele>
        <time>2022-08-24T12:14:16Z</time>
      </trkpt>
      <trkpt lat="44.08011" lon="6.2824">
        <ele>930.616</ele>
        <time>2022-08-24T12:14:26Z</time>
      </trkpt>
      <trkpt lat="44.08008" lon="6.28242">
        <ele>931.269</ele>
        <time>2022-08-24T12:14:29Z</time>
      </trkpt>
      <trkpt lat="44.08008" lon="6.28243">
        <ele>932.252</ele>
        <time>2022-08-24T12:14:31Z</time>
      </trkpt>
      <trkpt lat="44.08012" lon="6.28247">
        <ele>933.898</ele>
        <time>2022-08-24T12:14:42Z</time>
      </trkpt>
      <trkpt lat="44.08016" lon="6.28249">
        <ele>934.872</ele>
        <time>2022-08-24T12:14:44Z</time>
      </trkpt>
      <trkpt lat="44.08018" lon="6.2825">
        <ele>935.885</ele>
        <time>2022-08-24T12:14:46Z</time>
      </trkpt>
      <trkpt lat="44.08019" lon="6.28251">
        <ele>936.025</ele>
        <time>2022-08-24T12:14:47Z</time>
      </trkpt>
      <trkpt lat="44.08019" lon="6.28254">
        <ele>936.226</ele>
        <time>2022-08-24T12:14:49Z</time>
      </trkpt>
      <trkpt lat="44.08019" lon="6.28254">
        <ele>936.808</ele>
        <time>2022-08-24T12:14:50Z</time>
      </trkpt>
      <trkpt lat="44.08019" lon="6.28254">
        <ele>937.609</ele>
        <time>2022-08-24T12:14:51Z</time>
      </trkpt>
      <trkpt lat="44.08024" lon="6.2826">
        <ele>938.853</ele>
        <time>2022-08-24T12:14:59Z</time>
      </trkpt>
      <trkpt lat="44.08026" lon="6.28263">
        <ele>939.463</ele>
        <time>2022-08-24T12:15:01Z</time>
      </trkpt>
      <trkpt lat="44.08025" lon="6.28266">
        <ele>940.033</ele>
        <time>2022-08-24T12:15:03Z</time>
      </trkpt>
      <trkpt lat="44.08023" lon="6.28267">
        <ele>940.629</ele>
        <time>2022-08-24T12:15:04Z</time>
      </trkpt>
      <trkpt lat="44.08022" lon="6.28267">
        <ele>941.092</ele>
        <time>2022-08-24T12:15:05Z</time>
      </trkpt>
      <trkpt lat="44.08019" lon="6.28268">
        <ele>942.275</ele>
        <time>2022-08-24T12:15:07Z</time>
      </trkpt>
      <trkpt lat="44.08018" lon="6.28268">
        <ele>942.631</ele>
        <time>2022-08-24T12:15:08Z</time>
      </trkpt>
      <trkpt lat="44.08016" lon="6.28269">
        <ele>943.085</ele>
        <time>2022-08-24T12:15:10Z</time>
      </trkpt>
      <trkpt lat="44.08015" lon="6.28269">
        <ele>943.228</ele>
        <time>2022-08-24T12:15:11Z</time>
      </trkpt>
      <trkpt lat="44.08012" lon="6.28272">
        <ele>944.057</ele>
        <time>2022-08-24T12:15:14Z</time>
      </trkpt>
      <trkpt lat="44.08011" lon="6.28273">
        <ele>944.2</ele>
        <time>2022-08-24T12:15:15Z</time>
      </trkpt>
      <trkpt lat="44.08009" lon="6.28275">
        <ele>944.62</ele>
        <time>2022-08-24T12:15:17Z</time>
      </trkpt>
      <trkpt lat="44.08005" lon="6.28278">
        <ele>945.609</ele>
        <time>2022-08-24T12:15:21Z</time>
      </trkpt>
      <trkpt lat="44.08003" lon="6.28278">
        <ele>947.036</ele>
        <time>2022-08-24T12:15:23Z</time>
      </trkpt>
      <trkpt lat="44.08003" lon="6.28279">
        <ele>947.436</ele>
        <time>2022-08-24T12:15:24Z</time>
      </trkpt>
      <trkpt lat="44.08004" lon="6.2828">
        <ele>947.686</ele>
        <time>2022-08-24T12:15:27Z</time>
      </trkpt>
      <trkpt lat="44.08004" lon="6.2828">
        <ele>947.862</ele>
        <time>2022-08-24T12:15:28Z</time>
      </trkpt>
      <trkpt lat="44.08005" lon="6.2828">
        <ele>948.025</ele>
        <time>2022-08-24T12:15:29Z</time>
      </trkpt>
      <trkpt lat="44.08006" lon="6.28281">
        <ele>948.088</ele>
        <time>2022-08-24T12:15:31Z</time>
      </trkpt>
      <trkpt lat="44.08006" lon="6.28281">
        <ele>948.214</ele>
        <time>2022-08-24T12:15:32Z</time>
      </trkpt>
      <trkpt lat="44.08" lon="6.28286">
        <ele>948.858</ele>
        <time>2022-08-24T12:16:15Z</time>
      </trkpt>
      <trkpt lat="44.07999" lon="6.28287">
        <ele>949.291</ele>
        <time>2022-08-24T12:16:16Z</time>
      </trkpt>
      <trkpt lat="44.07996" lon="6.28289">
        <ele>950.017</ele>
        <time>2022-08-24T12:16:19Z</time>
      </trkpt>
      <trkpt lat="44.07995" lon="6.2829">
        <ele>950.487</ele>
        <time>2022-08-24T12:16:20Z</time>
      </trkpt>
      <trkpt lat="44.07993" lon="6.28291">
        <ele>950.815</ele>
        <time>2022-08-24T12:16:22Z</time>
      </trkpt>
      <trkpt lat="44.07991" lon="6.28294">
        <ele>951.609</ele>
        <time>2022-08-24T12:16:25Z</time>
      </trkpt>
      <trkpt lat="44.07989" lon="6.28295">
        <ele>952.272</ele>
        <time>2022-08-24T12:16:27Z</time>
      </trkpt>
      <trkpt lat="44.07988" lon="6.28297">
        <ele>953.022</ele>
        <time>2022-08-24T12:16:30Z</time>
      </trkpt>
      <trkpt lat="44.07992" lon="6.28301">
        <ele>953.842</ele>
        <time>2022-08-24T12:16:40Z</time>
      </trkpt>
      <trkpt lat="44.07994" lon="6.283">
        <ele>953.858</ele>
        <time>2022-08-24T12:16:41Z</time>
      </trkpt>
      <trkpt lat="44.07996" lon="6.283">
        <ele>954.041</ele>
        <time>2022-08-24T12:16:42Z</time>
      </trkpt>
      <trkpt lat="44.08" lon="6.28299">
        <ele>954.494</ele>
        <time>2022-08-24T12:16:44Z</time>
      </trkpt>
      <trkpt lat="44.08005" lon="6.28298">
        <ele>954.82</ele>
        <time>2022-08-24T12:16:47Z</time>
      </trkpt>
      <trkpt lat="44.08007" lon="6.28297">
        <ele>955.284</ele>
        <time>2022-08-24T12:16:49Z</time>
      </trkpt>
      <trkpt lat="44.08008" lon="6.283">
        <ele>955.667</ele>
        <time>2022-08-24T12:16:52Z</time>
      </trkpt>
      <trkpt lat="44.08005" lon="6.28303">
        <ele>956.419</ele>
        <time>2022-08-24T12:16:55Z</time>
      </trkpt>
      <trkpt lat="44.08003" lon="6.28305">
        <ele>957.009</ele>
        <time>2022-08-24T12:16:57Z</time>
      </trkpt>
      <trkpt lat="44.08001" lon="6.28307">
        <ele>957.819</ele>
        <time>2022-08-24T12:16:59Z</time>
      </trkpt>
      <trkpt lat="44.07999" lon="6.2831">
        <ele>958.809</ele>
        <time>2022-08-24T12:17:01Z</time>
      </trkpt>
      <trkpt lat="44.07997" lon="6.28312">
        <ele>959.442</ele>
        <time>2022-08-24T12:17:03Z</time>
      </trkpt>
      <trkpt lat="44.07994" lon="6.28314">
        <ele>960.092</ele>
        <time>2022-08-24T12:17:05Z</time>
      </trkpt>
      <trkpt lat="44.07992" lon="6.28316">
        <ele>960.482</ele>
        <time>2022-08-24T12:17:07Z</time>
      </trkpt>
      <trkpt lat="44.0799" lon="6.28317">
        <ele>960.618</ele>
        <time>2022-08-24T12:17:08Z</time>
      </trkpt>
      <trkpt lat="44.0799" lon="6.28317">
        <ele>961.091</ele>
        <time>2022-08-24T12:17:09Z</time>
      </trkpt>
      <trkpt lat="44.07989" lon="6.28318">
        <ele>961.284</ele>
        <time>2022-08-24T12:17:10Z</time>
      </trkpt>
      <trkpt lat="44.07988" lon="6.28321">
        <ele>961.27</ele>
        <time>2022-08-24T12:17:13Z</time>
      </trkpt>
      <trkpt lat="44.07984" lon="6.28337">
        <ele>961.264</ele>
        <time>2022-08-24T12:19:42Z</time>
      </trkpt>
      <trkpt lat="44.07983" lon="6.28338">
        <ele>961.277</ele>
        <time>2022-08-24T12:19:43Z</time>
      </trkpt>
      <trkpt lat="44.07981" lon="6.28342">
        <ele>961.629</ele>
        <time>2022-08-24T12:19:45Z</time>
      </trkpt>
      <trkpt lat="44.07981" lon="6.28344">
        <ele>961.6</ele>
        <time>2022-08-24T12:19:46Z</time>
      </trkpt>
      <trkpt lat="44.07978" lon="6.28351">
        <ele>962.22</ele>
        <time>2022-08-24T12:19:49Z</time>
      </trkpt>
      <trkpt lat="44.07977" lon="6.28354">
        <ele>962.409</ele>
        <time>2022-08-24T12:19:50Z</time>
      </trkpt>
      <trkpt lat="44.07975" lon="6.28368">
        <ele>962.813</ele>
        <time>2022-08-24T12:19:54Z</time>
      </trkpt>
      <trkpt lat="44.07973" lon="6.28377">
        <ele>963.043</ele>
        <time>2022-08-24T12:19:57Z</time>
      </trkpt>
      <trkpt lat="44.07973" lon="6.2838">
        <ele>963.243</ele>
        <time>2022-08-24T12:19:58Z</time>
      </trkpt>
      <trkpt lat="44.07972" lon="6.28383">
        <ele>963.439</ele>
        <time>2022-08-24T12:19:59Z</time>
      </trkpt>
      <trkpt lat="44.07969" lon="6.28395">
        <ele>964.242</ele>
        <time>2022-08-24T12:20:03Z</time>
      </trkpt>
      <trkpt lat="44.07967" lon="6.28411">
        <ele>965.285</ele>
        <time>2022-08-24T12:20:08Z</time>
      </trkpt>
      <trkpt lat="44.07967" lon="6.28414">
        <ele>965.241</ele>
        <time>2022-08-24T12:20:09Z</time>
      </trkpt>
      <trkpt lat="44.07967" lon="6.28418">
        <ele>965.255</ele>
        <time>2022-08-24T12:20:10Z</time>
      </trkpt>
      <trkpt lat="44.07967" lon="6.28422">
        <ele>965.248</ele>
        <time>2022-08-24T12:20:11Z</time>
      </trkpt>
      <trkpt lat="44.07967" lon="6.28431">
        <ele>965.237</ele>
        <time>2022-08-24T12:20:13Z</time>
      </trkpt>
      <trkpt lat="44.07966" lon="6.28437">
        <ele>965.449</ele>
        <time>2022-08-24T12:20:14Z</time>
      </trkpt>
      <trkpt lat="44.07966" lon="6.28443">
        <ele>965.413</ele>
        <time>2022-08-24T12:20:15Z</time>
      </trkpt>
      <trkpt lat="44.07962" lon="6.28458">
        <ele>966.009</ele>
        <time>2022-08-24T12:20:18Z</time>
      </trkpt>
      <trkpt lat="44.0796" lon="6.28469">
        <ele>966.474</ele>
        <time>2022-08-24T12:20:20Z</time>
      </trkpt>
      <trkpt lat="44.07956" lon="6.28479">
        <ele>966.884</ele>
        <time>2022-08-24T12:20:22Z</time>
      </trkpt>
      <trkpt lat="44.07954" lon="6.28481">
        <ele>967.044</ele>
        <time>2022-08-24T12:20:23Z</time>
      </trkpt>
      <trkpt lat="44.07948" lon="6.2849">
        <ele>967.24</ele>
        <time>2022-08-24T12:20:26Z</time>
      </trkpt>
      <trkpt lat="44.07945" lon="6.28492">
        <ele>967.443</ele>
        <time>2022-08-24T12:20:27Z</time>
      </trkpt>
      <trkpt lat="44.0794" lon="6.28496">
        <ele>967.476</ele>
        <time>2022-08-24T12:20:29Z</time>
      </trkpt>
      <trkpt lat="44.07934" lon="6.285">
        <ele>967.892</ele>
        <time>2022-08-24T12:20:31Z</time>
      </trkpt>
      <trkpt lat="44.07923" lon="6.28508">
        <ele>967.216</ele>
        <time>2022-08-24T12:20:35Z</time>
      </trkpt>
      <trkpt lat="44.0792" lon="6.28509">
        <ele>967.429</ele>
        <time>2022-08-24T12:20:36Z</time>
      </trkpt>
      <trkpt lat="44.07906" lon="6.28512">
        <ele>967.086</ele>
        <time>2022-08-24T12:20:40Z</time>
      </trkpt>
      <trkpt lat="44.07898" lon="6.28516">
        <ele>966.46</ele>
        <time>2022-08-24T12:20:42Z</time>
      </trkpt>
      <trkpt lat="44.0789" lon="6.28519">
        <ele>966.026</ele>
        <time>2022-08-24T12:20:44Z</time>
      </trkpt>
      <trkpt lat="44.07877" lon="6.28524">
        <ele>965.809</ele>
        <time>2022-08-24T12:20:48Z</time>
      </trkpt>
      <trkpt lat="44.07873" lon="6.28528">
        <ele>965.889</ele>
        <time>2022-08-24T12:20:49Z</time>
      </trkpt>
      <trkpt lat="44.07869" lon="6.28531">
        <ele>966.019</ele>
        <time>2022-08-24T12:20:50Z</time>
      </trkpt>
      <trkpt lat="44.07858" lon="6.28537">
        <ele>965.289</ele>
        <time>2022-08-24T12:20:52Z</time>
      </trkpt>
      <trkpt lat="44.07853" lon="6.2854">
        <ele>965.055</ele>
        <time>2022-08-24T12:20:53Z</time>
      </trkpt>
      <trkpt lat="44.07837" lon="6.28549">
        <ele>964.248</ele>
        <time>2022-08-24T12:20:56Z</time>
      </trkpt>
      <trkpt lat="44.07832" lon="6.28552">
        <ele>963.861</ele>
        <time>2022-08-24T12:20:57Z</time>
      </trkpt>
      <trkpt lat="44.07828" lon="6.28555">
        <ele>963.637</ele>
        <time>2022-08-24T12:20:58Z</time>
      </trkpt>
      <trkpt lat="44.07822" lon="6.28568">
        <ele>964.041</ele>
        <time>2022-08-24T12:21:01Z</time>
      </trkpt>
      <trkpt lat="44.07816" lon="6.28586">
        <ele>965.234</ele>
        <time>2022-08-24T12:21:06Z</time>
      </trkpt>
      <trkpt lat="44.0781" lon="6.28604">
        <ele>965.644</ele>
        <time>2022-08-24T12:21:11Z</time>
      </trkpt>
      <trkpt lat="44.07799" lon="6.28627">
        <ele>966.205</ele>
        <time>2022-08-24T12:21:15Z</time>
      </trkpt>
      <trkpt lat="44.07793" lon="6.28637">
        <ele>966.215</ele>
        <time>2022-08-24T12:21:17Z</time>
      </trkpt>
      <trkpt lat="44.07781" lon="6.28655">
        <ele>965.609</ele>
        <time>2022-08-24T12:21:21Z</time>
      </trkpt>
      <trkpt lat="44.07772" lon="6.28673">
        <ele>966.095</ele>
        <time>2022-08-24T12:21:25Z</time>
      </trkpt>
      <trkpt lat="44.07764" lon="6.28695">
        <ele>966.635</ele>
        <time>2022-08-24T12:21:30Z</time>
      </trkpt>
      <trkpt lat="44.0776" lon="6.28703">
        <ele>967.465</ele>
        <time>2022-08-24T12:21:32Z</time>
      </trkpt>
      <trkpt lat="44.07758" lon="6.28704">
        <ele>967.821</ele>
        <time>2022-08-24T12:21:33Z</time>
      </trkpt>
      <trkpt lat="44.07757" lon="6.28705">
        <ele>968.244</ele>
        <time>2022-08-24T12:21:34Z</time>
      </trkpt>
      <trkpt lat="44.07754" lon="6.28706">
        <ele>969.057</ele>
        <time>2022-08-24T12:21:36Z</time>
      </trkpt>
      <trkpt lat="44.0775" lon="6.28707">
        <ele>969.663</ele>
        <time>2022-08-24T12:21:38Z</time>
      </trkpt>
      <trkpt lat="44.07742" lon="6.28708">
        <ele>970.657</ele>
        <time>2022-08-24T12:21:42Z</time>
      </trkpt>
      <trkpt lat="44.07737" lon="6.28709">
        <ele>971.28</ele>
        <time>2022-08-24T12:21:44Z</time>
      </trkpt>
      <trkpt lat="44.07734" lon="6.28709">
        <ele>972.042</ele>
        <time>2022-08-24T12:21:45Z</time>
      </trkpt>
      <trkpt lat="44.07726" lon="6.28706">
        <ele>973.022</ele>
        <time>2022-08-24T12:21:48Z</time>
      </trkpt>
      <trkpt lat="44.07724" lon="6.28704">
        <ele>973.414</ele>
        <time>2022-08-24T12:21:49Z</time>
      </trkpt>
      <trkpt lat="44.07722" lon="6.28703">
        <ele>974.809</ele>
        <time>2022-08-24T12:21:50Z</time>
      </trkpt>
      <trkpt lat="44.07717" lon="6.28702">
        <ele>975.895</ele>
        <time>2022-08-24T12:21:52Z</time>
      </trkpt>
      <trkpt lat="44.07713" lon="6.287">
        <ele>976.415</ele>
        <time>2022-08-24T12:21:54Z</time>
      </trkpt>
      <trkpt lat="44.07706" lon="6.28696">
        <ele>976.615</ele>
        <time>2022-08-24T12:21:58Z</time>
      </trkpt>
      <trkpt lat="44.07704" lon="6.28696">
        <ele>977.261</ele>
        <time>2022-08-24T12:21:59Z</time>
      </trkpt>
      <trkpt lat="44.07702" lon="6.28697">
        <ele>977.614</ele>
        <time>2022-08-24T12:22:00Z</time>
      </trkpt>
      <trkpt lat="44.07696" lon="6.28698">
        <ele>978.457</ele>
        <time>2022-08-24T12:22:02Z</time>
      </trkpt>
      <trkpt lat="44.07693" lon="6.28699">
        <ele>978.613</ele>
        <time>2022-08-24T12:22:03Z</time>
      </trkpt>
      <trkpt lat="44.0768" lon="6.28702">
        <ele>979.267</ele>
        <time>2022-08-24T12:22:07Z</time>
      </trkpt>
      <trkpt lat="44.07678" lon="6.28702">
        <ele>979.64</ele>
        <time>2022-08-24T12:22:08Z</time>
      </trkpt>
      <trkpt lat="44.0767" lon="6.28698">
        <ele>980.287</ele>
        <time>2022-08-24T12:22:12Z</time>
      </trkpt>
      <trkpt lat="44.07667" lon="6.28696">
        <ele>981.042</ele>
        <time>2022-08-24T12:22:14Z</time>
      </trkpt>
      <trkpt lat="44.07663" lon="6.28695">
        <ele>982.226</ele>
        <time>2022-08-24T12:22:16Z</time>
      </trkpt>
      <trkpt lat="44.07659" lon="6.28694">
        <ele>983.409</ele>
        <time>2022-08-24T12:22:18Z</time>
      </trkpt>
      <trkpt lat="44.07657" lon="6.28693">
        <ele>984.089</ele>
        <time>2022-08-24T12:22:19Z</time>
      </trkpt>
      <trkpt lat="44.07656" lon="6.28691">
        <ele>984.459</ele>
        <time>2022-08-24T12:22:20Z</time>
      </trkpt>
      <trkpt lat="44.07655" lon="6.28686">
        <ele>984.659</ele>
        <time>2022-08-24T12:22:22Z</time>
      </trkpt>
      <trkpt lat="44.07653" lon="6.28684">
        <ele>984.625</ele>
        <time>2022-08-24T12:22:23Z</time>
      </trkpt>
      <trkpt lat="44.07648" lon="6.28682">
        <ele>985.698</ele>
        <time>2022-08-24T12:22:26Z</time>
      </trkpt>
      <trkpt lat="44.07646" lon="6.28681">
        <ele>986.051</ele>
        <time>2022-08-24T12:22:27Z</time>
      </trkpt>
      <trkpt lat="44.07642" lon="6.28682">
        <ele>986.817</ele>
        <time>2022-08-24T12:22:29Z</time>
      </trkpt>
      <trkpt lat="44.07637" lon="6.28685">
        <ele>988.441</ele>
        <time>2022-08-24T12:22:32Z</time>
      </trkpt>
      <trkpt lat="44.07635" lon="6.28685">
        <ele>988.454</ele>
        <time>2022-08-24T12:22:33Z</time>
      </trkpt>
      <trkpt lat="44.07623" lon="6.28686">
        <ele>989.654</ele>
        <time>2022-08-24T12:22:38Z</time>
      </trkpt>
      <trkpt lat="44.07611" lon="6.28693">
        <ele>990.056</ele>
        <time>2022-08-24T12:22:43Z</time>
      </trkpt>
      <trkpt lat="44.07608" lon="6.28694">
        <ele>990.011</ele>
        <time>2022-08-24T12:22:44Z</time>
      </trkpt>
      <trkpt lat="44.07602" lon="6.28698">
        <ele>990.809</ele>
        <time>2022-08-24T12:22:46Z</time>
      </trkpt>
      <trkpt lat="44.07598" lon="6.287">
        <ele>991.256</ele>
        <time>2022-08-24T12:22:47Z</time>
      </trkpt>
      <trkpt lat="44.07582" lon="6.2871">
        <ele>991.686</ele>
        <time>2022-08-24T12:22:52Z</time>
      </trkpt>
      <trkpt lat="44.07574" lon="6.28712">
        <ele>991.876</ele>
        <time>2022-08-24T12:22:55Z</time>
      </trkpt>
      <trkpt lat="44.07572" lon="6.28712">
        <ele>992.452</ele>
        <time>2022-08-24T12:22:56Z</time>
      </trkpt>
      <trkpt lat="44.07567" lon="6.28712">
        <ele>993.285</ele>
        <time>2022-08-24T12:22:58Z</time>
      </trkpt>
      <trkpt lat="44.07562" lon="6.28714">
        <ele>994.428</ele>
        <time>2022-08-24T12:23:01Z</time>
      </trkpt>
      <trkpt lat="44.0756" lon="6.28716">
        <ele>994.684</ele>
        <time>2022-08-24T12:23:02Z</time>
      </trkpt>
      <trkpt lat="44.07546" lon="6.28731">
        <ele>995.448</ele>
        <time>2022-08-24T12:23:08Z</time>
      </trkpt>
      <trkpt lat="44.07536" lon="6.28737">
        <ele>996.271</ele>
        <time>2022-08-24T12:23:11Z</time>
      </trkpt>
      <trkpt lat="44.07529" lon="6.28741">
        <ele>996.234</ele>
        <time>2022-08-24T12:23:13Z</time>
      </trkpt>
      <trkpt lat="44.07525" lon="6.28743">
        <ele>996.455</ele>
        <time>2022-08-24T12:23:14Z</time>
      </trkpt>
      <trkpt lat="44.07515" lon="6.2875">
        <ele>996.61</ele>
        <time>2022-08-24T12:23:17Z</time>
      </trkpt>
      <trkpt lat="44.07512" lon="6.28754">
        <ele>996.609</ele>
        <time>2022-08-24T12:23:18Z</time>
      </trkpt>
      <trkpt lat="44.07511" lon="6.28757">
        <ele>996.664</ele>
        <time>2022-08-24T12:23:19Z</time>
      </trkpt>
      <trkpt lat="44.07506" lon="6.28773">
        <ele>995.694</ele>
        <time>2022-08-24T12:23:22Z</time>
      </trkpt>
      <trkpt lat="44.07504" lon="6.28778">
        <ele>995.684</ele>
        <time>2022-08-24T12:23:23Z</time>
      </trkpt>
      <trkpt lat="44.07501" lon="6.28782">
        <ele>995.46</ele>
        <time>2022-08-24T12:23:24Z</time>
      </trkpt>
      <trkpt lat="44.07494" lon="6.288">
        <ele>995.223</ele>
        <time>2022-08-24T12:23:27Z</time>
      </trkpt>
      <trkpt lat="44.07489" lon="6.28811">
        <ele>994.246</ele>
        <time>2022-08-24T12:23:29Z</time>
      </trkpt>
      <trkpt lat="44.07481" lon="6.28821">
        <ele>993.062</ele>
        <time>2022-08-24T12:23:31Z</time>
      </trkpt>
      <trkpt lat="44.07478" lon="6.28827">
        <ele>992.486</ele>
        <time>2022-08-24T12:23:32Z</time>
      </trkpt>
      <trkpt lat="44.07473" lon="6.28832">
        <ele>992.059</ele>
        <time>2022-08-24T12:23:33Z</time>
      </trkpt>
      <trkpt lat="44.07469" lon="6.28835">
        <ele>991.645</ele>
        <time>2022-08-24T12:23:34Z</time>
      </trkpt>
      <trkpt lat="44.07464" lon="6.28838">
        <ele>991.647</ele>
        <time>2022-08-24T12:23:35Z</time>
      </trkpt>
      <trkpt lat="44.07445" lon="6.28847">
        <ele>992.211</ele>
        <time>2022-08-24T12:23:40Z</time>
      </trkpt>
      <trkpt lat="44.07433" lon="6.28845">
        <ele>992.809</ele>
        <time>2022-08-24T12:23:43Z</time>
      </trkpt>
      <trkpt lat="44.07429" lon="6.28843">
        <ele>992.885</ele>
        <time>2022-08-24T12:23:44Z</time>
      </trkpt>
      <trkpt lat="44.07422" lon="6.28841">
        <ele>994.055</ele>
        <time>2022-08-24T12:23:46Z</time>
      </trkpt>
      <trkpt lat="44.07413" lon="6.28839">
        <ele>996.015</ele>
        <time>2022-08-24T12:23:49Z</time>
      </trkpt>
      <trkpt lat="44.07407" lon="6.28836">
        <ele>997.471</ele>
        <time>2022-08-24T12:23:51Z</time>
      </trkpt>
      <trkpt lat="44.07399" lon="6.28834">
        <ele>998.484</ele>
        <time>2022-08-24T12:23:54Z</time>
      </trkpt>
      <trkpt lat="44.07388" lon="6.28836">
        <ele>998.497</ele>
        <time>2022-08-24T12:23:58Z</time>
      </trkpt>
      <trkpt lat="44.07371" lon="6.28843">
        <ele>998.073</ele>
        <time>2022-08-24T12:24:03Z</time>
      </trkpt>
      <trkpt lat="44.0736" lon="6.28847">
        <ele>998.667</ele>
        <time>2022-08-24T12:24:07Z</time>
      </trkpt>
      <trkpt lat="44.07344" lon="6.28854">
        <ele>998.68</ele>
        <time>2022-08-24T12:24:12Z</time>
      </trkpt>
      <trkpt lat="44.07326" lon="6.2886">
        <ele>998.692</ele>
        <time>2022-08-24T12:24:18Z</time>
      </trkpt>
      <trkpt lat="44.07315" lon="6.28861">
        <ele>998.873</ele>
        <time>2022-08-24T12:24:21Z</time>
      </trkpt>
      <trkpt lat="44.07307" lon="6.28862">
        <ele>998.42</ele>
        <time>2022-08-24T12:24:23Z</time>
      </trkpt>
      <trkpt lat="44.07292" lon="6.28866">
        <ele>998.209</ele>
        <time>2022-08-24T12:24:28Z</time>
      </trkpt>
      <trkpt lat="44.07275" lon="6.28872">
        <ele>998.42</ele>
        <time>2022-08-24T12:24:33Z</time>
      </trkpt>
      <trkpt lat="44.07262" lon="6.28873">
        <ele>998.44</ele>
        <time>2022-08-24T12:24:38Z</time>
      </trkpt>
      <trkpt lat="44.0725" lon="6.28888">
        <ele>998.68</ele>
        <time>2022-08-24T12:24:42Z</time>
      </trkpt>
      <trkpt lat="44.07238" lon="6.28902">
        <ele>999.036</ele>
        <time>2022-08-24T12:24:46Z</time>
      </trkpt>
      <trkpt lat="44.07226" lon="6.28908">
        <ele>999.299</ele>
        <time>2022-08-24T12:24:50Z</time>
      </trkpt>
      <trkpt lat="44.07217" lon="6.28912">
        <ele>999.612</ele>
        <time>2022-08-24T12:24:53Z</time>
      </trkpt>
      <trkpt lat="44.07214" lon="6.28914">
        <ele>999.828</ele>
        <time>2022-08-24T12:24:54Z</time>
      </trkpt>
      <trkpt lat="44.07201" lon="6.28917">
        <ele>1000.482</ele>
        <time>2022-08-24T12:24:58Z</time>
      </trkpt>
      <trkpt lat="44.07194" lon="6.28914">
        <ele>1000.455</ele>
        <time>2022-08-24T12:25:00Z</time>
      </trkpt>
      <trkpt lat="44.07188" lon="6.28909">
        <ele>1000.619</ele>
        <time>2022-08-24T12:25:02Z</time>
      </trkpt>
      <trkpt lat="44.07185" lon="6.28907">
        <ele>1001.209</ele>
        <time>2022-08-24T12:25:03Z</time>
      </trkpt>
      <trkpt lat="44.07183" lon="6.28906">
        <ele>1002.419</ele>
        <time>2022-08-24T12:25:04Z</time>
      </trkpt>
      <trkpt lat="44.07181" lon="6.28905">
        <ele>1002.809</ele>
        <time>2022-08-24T12:25:05Z</time>
      </trkpt>
      <trkpt lat="44.07178" lon="6.28904">
        <ele>1003.282</ele>
        <time>2022-08-24T12:25:06Z</time>
      </trkpt>
      <trkpt lat="44.07171" lon="6.28899">
        <ele>1003.482</ele>
        <time>2022-08-24T12:25:08Z</time>
      </trkpt>
      <trkpt lat="44.07167" lon="6.28897">
        <ele>1003.462</ele>
        <time>2022-08-24T12:25:09Z</time>
      </trkpt>
      <trkpt lat="44.07154" lon="6.28894">
        <ele>1004.048</ele>
        <time>2022-08-24T12:25:13Z</time>
      </trkpt>
      <trkpt lat="44.07152" lon="6.28895">
        <ele>1004.051</ele>
        <time>2022-08-24T12:25:14Z</time>
      </trkpt>
      <trkpt lat="44.07142" lon="6.28905">
        <ele>1004.054</ele>
        <time>2022-08-24T12:25:18Z</time>
      </trkpt>
      <trkpt lat="44.07127" lon="6.28915">
        <ele>1003.65</ele>
        <time>2022-08-24T12:25:23Z</time>
      </trkpt>
      <trkpt lat="44.07116" lon="6.28924">
        <ele>1003.224</ele>
        <time>2022-08-24T12:25:28Z</time>
      </trkpt>
      <trkpt lat="44.07105" lon="6.28945">
        <ele>1002.257</ele>
        <time>2022-08-24T12:25:32Z</time>
      </trkpt>
      <trkpt lat="44.07101" lon="6.28952">
        <ele>1000.893</ele>
        <time>2022-08-24T12:25:33Z</time>
      </trkpt>
      <trkpt lat="44.07098" lon="6.2896">
        <ele>999.665</ele>
        <time>2022-08-24T12:25:34Z</time>
      </trkpt>
      <trkpt lat="44.07092" lon="6.2898">
        <ele>998.421</ele>
        <time>2022-08-24T12:25:36Z</time>
      </trkpt>
      <trkpt lat="44.07086" lon="6.28998">
        <ele>998.409</ele>
        <time>2022-08-24T12:25:38Z</time>
      </trkpt>
      <trkpt lat="44.07075" lon="6.29012">
        <ele>998.25</ele>
        <time>2022-08-24T12:25:40Z</time>
      </trkpt>
      <trkpt lat="44.07065" lon="6.29023">
        <ele>997.41</ele>
        <time>2022-08-24T12:25:42Z</time>
      </trkpt>
      <trkpt lat="44.07062" lon="6.29031">
        <ele>996.43</ele>
        <time>2022-08-24T12:25:43Z</time>
      </trkpt>
      <trkpt lat="44.07058" lon="6.29045">
        <ele>995.076</ele>
        <time>2022-08-24T12:25:45Z</time>
      </trkpt>
      <trkpt lat="44.07055" lon="6.29062">
        <ele>994.489</ele>
        <time>2022-08-24T12:25:47Z</time>
      </trkpt>
      <trkpt lat="44.07054" lon="6.29079">
        <ele>994.472</ele>
        <time>2022-08-24T12:25:50Z</time>
      </trkpt>
      <trkpt lat="44.07056" lon="6.29091">
        <ele>994.848</ele>
        <time>2022-08-24T12:25:53Z</time>
      </trkpt>
      <trkpt lat="44.07056" lon="6.29095">
        <ele>994.822</ele>
        <time>2022-08-24T12:25:54Z</time>
      </trkpt>
      <trkpt lat="44.07049" lon="6.29111">
        <ele>994.875</ele>
        <time>2022-08-24T12:25:58Z</time>
      </trkpt>
      <trkpt lat="44.07041" lon="6.29118">
        <ele>993.215</ele>
        <time>2022-08-24T12:26:00Z</time>
      </trkpt>
      <trkpt lat="44.07031" lon="6.29127">
        <ele>992.265</ele>
        <time>2022-08-24T12:26:02Z</time>
      </trkpt>
      <trkpt lat="44.07028" lon="6.29133">
        <ele>992.011</ele>
        <time>2022-08-24T12:26:03Z</time>
      </trkpt>
      <trkpt lat="44.07025" lon="6.2914">
        <ele>991.609</ele>
        <time>2022-08-24T12:26:04Z</time>
      </trkpt>
      <trkpt lat="44.07017" lon="6.2915">
        <ele>990.472</ele>
        <time>2022-08-24T12:26:06Z</time>
      </trkpt>
      <trkpt lat="44.07012" lon="6.29155">
        <ele>989.472</ele>
        <time>2022-08-24T12:26:07Z</time>
      </trkpt>
      <trkpt lat="44.07007" lon="6.2916">
        <ele>988.842</ele>
        <time>2022-08-24T12:26:08Z</time>
      </trkpt>
      <trkpt lat="44.0699" lon="6.29171">
        <ele>988.688</ele>
        <time>2022-08-24T12:26:11Z</time>
      </trkpt>
      <trkpt lat="44.06983" lon="6.29174">
        <ele>988.441</ele>
        <time>2022-08-24T12:26:12Z</time>
      </trkpt>
      <trkpt lat="44.06975" lon="6.29175">
        <ele>987.844</ele>
        <time>2022-08-24T12:26:13Z</time>
      </trkpt>
      <trkpt lat="44.06961" lon="6.29169">
        <ele>986.86</ele>
        <time>2022-08-24T12:26:15Z</time>
      </trkpt>
      <trkpt lat="44.06948" lon="6.29161">
        <ele>985.814</ele>
        <time>2022-08-24T12:26:17Z</time>
      </trkpt>
      <trkpt lat="44.06944" lon="6.29162">
        <ele>985.287</ele>
        <time>2022-08-24T12:26:18Z</time>
      </trkpt>
      <trkpt lat="44.06944" lon="6.29162">
        <ele>984.432</ele>
        <time>2022-08-24T12:26:19Z</time>
      </trkpt>
      <trkpt lat="44.06939" lon="6.29171">
        <ele>984.092</ele>
        <time>2022-08-24T12:26:20Z</time>
      </trkpt>
      <trkpt lat="44.06937" lon="6.29175">
        <ele>983.611</ele>
        <time>2022-08-24T12:26:21Z</time>
      </trkpt>
      <trkpt lat="44.06936" lon="6.2918">
        <ele>983.609</ele>
        <time>2022-08-24T12:26:22Z</time>
      </trkpt>
      <trkpt lat="44.06931" lon="6.2919">
        <ele>983.494</ele>
        <time>2022-08-24T12:26:24Z</time>
      </trkpt>
      <trkpt lat="44.06925" lon="6.29197">
        <ele>983.214</ele>
        <time>2022-08-24T12:26:26Z</time>
      </trkpt>
      <trkpt lat="44.06922" lon="6.292">
        <ele>983.044</ele>
        <time>2022-08-24T12:26:27Z</time>
      </trkpt>
      <trkpt lat="44.06905" lon="6.29209">
        <ele>982.47</ele>
        <time>2022-08-24T12:26:30Z</time>
      </trkpt>
      <trkpt lat="44.06899" lon="6.2921">
        <ele>982.023</ele>
        <time>2022-08-24T12:26:31Z</time>
      </trkpt>
      <trkpt lat="44.06894" lon="6.29212">
        <ele>980.826</ele>
        <time>2022-08-24T12:26:32Z</time>
      </trkpt>
      <trkpt lat="44.06888" lon="6.29215">
        <ele>980.042</ele>
        <time>2022-08-24T12:26:33Z</time>
      </trkpt>
      <trkpt lat="44.06883" lon="6.29217">
        <ele>979.666</ele>
        <time>2022-08-24T12:26:34Z</time>
      </trkpt>
      <trkpt lat="44.06873" lon="6.2922">
        <ele>979.249</ele>
        <time>2022-08-24T12:26:37Z</time>
      </trkpt>
      <trkpt lat="44.06867" lon="6.29224">
        <ele>979.045</ele>
        <time>2022-08-24T12:26:39Z</time>
      </trkpt>
      <trkpt lat="44.06864" lon="6.29227">
        <ele>979.047</ele>
        <time>2022-08-24T12:26:40Z</time>
      </trkpt>
      <trkpt lat="44.06857" lon="6.29236">
        <ele>978.411</ele>
        <time>2022-08-24T12:26:42Z</time>
      </trkpt>
      <trkpt lat="44.06847" lon="6.29243">
        <ele>976.609</ele>
        <time>2022-08-24T12:26:45Z</time>
      </trkpt>
      <trkpt lat="44.06842" lon="6.29247">
        <ele>975.265</ele>
        <time>2022-08-24T12:26:46Z</time>
      </trkpt>
      <trkpt lat="44.06833" lon="6.29253">
        <ele>974.035</ele>
        <time>2022-08-24T12:26:48Z</time>
      </trkpt>
      <trkpt lat="44.06827" lon="6.29255">
        <ele>973.615</ele>
        <time>2022-08-24T12:26:49Z</time>
      </trkpt>
      <trkpt lat="44.0681" lon="6.29256">
        <ele>972.631</ele>
        <time>2022-08-24T12:26:52Z</time>
      </trkpt>
      <trkpt lat="44.068" lon="6.29257">
        <ele>972.274</ele>
        <time>2022-08-24T12:26:54Z</time>
      </trkpt>
      <trkpt lat="44.06789" lon="6.29261">
        <ele>972.017</ele>
        <time>2022-08-24T12:26:56Z</time>
      </trkpt>
      <trkpt lat="44.06778" lon="6.29263">
        <ele>970.213</ele>
        <time>2022-08-24T12:26:58Z</time>
      </trkpt>
      <trkpt lat="44.06772" lon="6.29265">
        <ele>968.457</ele>
        <time>2022-08-24T12:26:59Z</time>
      </trkpt>
      <trkpt lat="44.06762" lon="6.29269">
        <ele>968.02</ele>
        <time>2022-08-24T12:27:01Z</time>
      </trkpt>
      <trkpt lat="44.06752" lon="6.29277">
        <ele>967.086</ele>
        <time>2022-08-24T12:27:03Z</time>
      </trkpt>
      <trkpt lat="44.06743" lon="6.29282">
        <ele>966.46</ele>
        <time>2022-08-24T12:27:05Z</time>
      </trkpt>
      <trkpt lat="44.06738" lon="6.29287">
        <ele>965.626</ele>
        <time>2022-08-24T12:27:06Z</time>
      </trkpt>
      <trkpt lat="44.06729" lon="6.29295">
        <ele>964.009</ele>
        <time>2022-08-24T12:27:08Z</time>
      </trkpt>
      <trkpt lat="44.06721" lon="6.29305">
        <ele>962.029</ele>
        <time>2022-08-24T12:27:10Z</time>
      </trkpt>
      <trkpt lat="44.06718" lon="6.2931">
        <ele>961.289</ele>
        <time>2022-08-24T12:27:11Z</time>
      </trkpt>
      <trkpt lat="44.06715" lon="6.29313">
        <ele>960.449</ele>
        <time>2022-08-24T12:27:12Z</time>
      </trkpt>
      <trkpt lat="44.06707" lon="6.29318">
        <ele>961.415</ele>
        <time>2022-08-24T12:27:14Z</time>
      </trkpt>
      <trkpt lat="44.06704" lon="6.29324">
        <ele>961.868</ele>
        <time>2022-08-24T12:27:15Z</time>
      </trkpt>
      <trkpt lat="44.06703" lon="6.2933">
        <ele>960.871</ele>
        <time>2022-08-24T12:27:16Z</time>
      </trkpt>
      <trkpt lat="44.06704" lon="6.29335">
        <ele>961.037</ele>
        <time>2022-08-24T12:27:17Z</time>
      </trkpt>
      <trkpt lat="44.06707" lon="6.29343">
        <ele>960.891</ele>
        <time>2022-08-24T12:27:19Z</time>
      </trkpt>
      <trkpt lat="44.06708" lon="6.29351">
        <ele>960.694</ele>
        <time>2022-08-24T12:27:21Z</time>
      </trkpt>
      <trkpt lat="44.06705" lon="6.29367">
        <ele>959.614</ele>
        <time>2022-08-24T12:27:25Z</time>
      </trkpt>
      <trkpt lat="44.06698" lon="6.29376">
        <ele>959.054</ele>
        <time>2022-08-24T12:27:27Z</time>
      </trkpt>
      <trkpt lat="44.06689" lon="6.29386">
        <ele>957.209</ele>
        <time>2022-08-24T12:27:29Z</time>
      </trkpt>
      <trkpt lat="44.06677" lon="6.29397">
        <ele>955.609</ele>
        <time>2022-08-24T12:27:31Z</time>
      </trkpt>
      <trkpt lat="44.06671" lon="6.29402">
        <ele>954.692</ele>
        <time>2022-08-24T12:27:32Z</time>
      </trkpt>
      <trkpt lat="44.06665" lon="6.29407">
        <ele>953.842</ele>
        <time>2022-08-24T12:27:33Z</time>
      </trkpt>
      <trkpt lat="44.06661" lon="6.29412">
        <ele>953.662</ele>
        <time>2022-08-24T12:27:34Z</time>
      </trkpt>
      <trkpt lat="44.0666" lon="6.29415">
        <ele>953.498</ele>
        <time>2022-08-24T12:27:35Z</time>
      </trkpt>
      <trkpt lat="44.06659" lon="6.29416">
        <ele>953.231</ele>
        <time>2022-08-24T12:27:36Z</time>
      </trkpt>
      <trkpt lat="44.06659" lon="6.29416">
        <ele>953.094</ele>
        <time>2022-08-24T12:27:37Z</time>
      </trkpt>
      <trkpt lat="44.06663" lon="6.29428">
        <ele>950.89</ele>
        <time>2022-08-24T12:32:02Z</time>
      </trkpt>
      <trkpt lat="44.06666" lon="6.29429">
        <ele>950.694</ele>
        <time>2022-08-24T12:32:03Z</time>
      </trkpt>
      <trkpt lat="44.06675" lon="6.29431">
        <ele>950.477</ele>
        <time>2022-08-24T12:32:06Z</time>
      </trkpt>
      <trkpt lat="44.06681" lon="6.29435">
        <ele>950.247</ele>
        <time>2022-08-24T12:32:08Z</time>
      </trkpt>
      <trkpt lat="44.06681" lon="6.29437">
        <ele>949.629</ele>
        <time>2022-08-24T12:32:09Z</time>
      </trkpt>
      <trkpt lat="44.06683" lon="6.29439">
        <ele>949.021</ele>
        <time>2022-08-24T12:32:10Z</time>
      </trkpt>
      <trkpt lat="44.0669" lon="6.29439">
        <ele>948.609</ele>
        <time>2022-08-24T12:32:12Z</time>
      </trkpt>
      <trkpt lat="44.06704" lon="6.29443">
        <ele>947.415</ele>
        <time>2022-08-24T12:32:15Z</time>
      </trkpt>
      <trkpt lat="44.06709" lon="6.29447">
        <ele>945.215</ele>
        <time>2022-08-24T12:32:16Z</time>
      </trkpt>
      <trkpt lat="44.06714" lon="6.29451">
        <ele>943.635</ele>
        <time>2022-08-24T12:32:17Z</time>
      </trkpt>
      <trkpt lat="44.06727" lon="6.29457">
        <ele>942.081</ele>
        <time>2022-08-24T12:32:19Z</time>
      </trkpt>
      <trkpt lat="44.06732" lon="6.29457">
        <ele>941.694</ele>
        <time>2022-08-24T12:32:20Z</time>
      </trkpt>
      <trkpt lat="44.06736" lon="6.29457">
        <ele>940.877</ele>
        <time>2022-08-24T12:32:21Z</time>
      </trkpt>
      <trkpt lat="44.06741" lon="6.29457">
        <ele>940.613</ele>
        <time>2022-08-24T12:32:22Z</time>
      </trkpt>
      <trkpt lat="44.06748" lon="6.29456">
        <ele>940.437</ele>
        <time>2022-08-24T12:32:24Z</time>
      </trkpt>
      <trkpt lat="44.06768" lon="6.29454">
        <ele>940.49</ele>
        <time>2022-08-24T12:32:29Z</time>
      </trkpt>
      <trkpt lat="44.06774" lon="6.29451">
        <ele>941.029</ele>
        <time>2022-08-24T12:32:33Z</time>
      </trkpt>
      <trkpt lat="44.06775" lon="6.29449">
        <ele>941.2</ele>
        <time>2022-08-24T12:32:34Z</time>
      </trkpt>
      <trkpt lat="44.06776" lon="6.29449">
        <ele>941.62</ele>
        <time>2022-08-24T12:32:36Z</time>
      </trkpt>
      <trkpt lat="44.06781" lon="6.29441">
        <ele>940.809</ele>
        <time>2022-08-24T12:32:58Z</time>
      </trkpt>
      <trkpt lat="44.06783" lon="6.2944">
        <ele>940.853</ele>
        <time>2022-08-24T12:32:59Z</time>
      </trkpt>
      <trkpt lat="44.06785" lon="6.2944">
        <ele>941.453</ele>
        <time>2022-08-24T12:33:02Z</time>
      </trkpt>
      <trkpt lat="44.06791" lon="6.29446">
        <ele>941.623</ele>
        <time>2022-08-24T12:34:26Z</time>
      </trkpt>
      <trkpt lat="44.06805" lon="6.29451">
        <ele>940.669</ele>
        <time>2022-08-24T12:34:30Z</time>
      </trkpt>
      <trkpt lat="44.06812" lon="6.29452">
        <ele>939.632</ele>
        <time>2022-08-24T12:34:32Z</time>
      </trkpt>
      <trkpt lat="44.06819" lon="6.29455">
        <ele>939.485</ele>
        <time>2022-08-24T12:34:34Z</time>
      </trkpt>
      <trkpt lat="44.06821" lon="6.29458">
        <ele>939.271</ele>
        <time>2022-08-24T12:34:35Z</time>
      </trkpt>
      <trkpt lat="44.06823" lon="6.29467">
        <ele>938.455</ele>
        <time>2022-08-24T12:34:37Z</time>
      </trkpt>
      <trkpt lat="44.06826" lon="6.29469">
        <ele>937.678</ele>
        <time>2022-08-24T12:34:39Z</time>
      </trkpt>
      <trkpt lat="44.06828" lon="6.2947">
        <ele>937.498</ele>
        <time>2022-08-24T12:34:40Z</time>
      </trkpt>
      <trkpt lat="44.06831" lon="6.29472">
        <ele>937.215</ele>
        <time>2022-08-24T12:34:41Z</time>
      </trkpt>
      <trkpt lat="44.06833" lon="6.29473">
        <ele>936.426</ele>
        <time>2022-08-24T12:34:42Z</time>
      </trkpt>
      <trkpt lat="44.06834" lon="6.29473">
        <ele>935.609</ele>
        <time>2022-08-24T12:34:43Z</time>
      </trkpt>
      <trkpt lat="44.06835" lon="6.2947">
        <ele>935.07</ele>
        <time>2022-08-24T12:34:44Z</time>
      </trkpt>
      <trkpt lat="44.06836" lon="6.29469">
        <ele>934.47</ele>
        <time>2022-08-24T12:34:45Z</time>
      </trkpt>
      <trkpt lat="44.06838" lon="6.29469">
        <ele>934.08</ele>
        <time>2022-08-24T12:34:46Z</time>
      </trkpt>
      <trkpt lat="44.0684" lon="6.2947">
        <ele>933.896</ele>
        <time>2022-08-24T12:34:47Z</time>
      </trkpt>
      <trkpt lat="44.06843" lon="6.29472">
        <ele>933.259</ele>
        <time>2022-08-24T12:34:49Z</time>
      </trkpt>
      <trkpt lat="44.06846" lon="6.29472">
        <ele>933.052</ele>
        <time>2022-08-24T12:34:50Z</time>
      </trkpt>
      <trkpt lat="44.06854" lon="6.29469">
        <ele>931.228</ele>
        <time>2022-08-24T12:34:52Z</time>
      </trkpt>
      <trkpt lat="44.06857" lon="6.29471">
        <ele>930.092</ele>
        <time>2022-08-24T12:34:54Z</time>
      </trkpt>
      <trkpt lat="44.06858" lon="6.29472">
        <ele>929.675</ele>
        <time>2022-08-24T12:34:55Z</time>
      </trkpt>
      <trkpt lat="44.06861" lon="6.29476">
        <ele>929.082</ele>
        <time>2022-08-24T12:34:57Z</time>
      </trkpt>
      <trkpt lat="44.06862" lon="6.29476">
        <ele>928.843</ele>
        <time>2022-08-24T12:34:58Z</time>
      </trkpt>
      <trkpt lat="44.06869" lon="6.29481">
        <ele>928.817</ele>
        <time>2022-08-24T12:35:01Z</time>
      </trkpt>
      <trkpt lat="44.06871" lon="6.29483">
        <ele>929.609</ele>
        <time>2022-08-24T12:35:02Z</time>
      </trkpt>
      <trkpt lat="44.06873" lon="6.29484">
        <ele>930.259</ele>
        <time>2022-08-24T12:35:03Z</time>
      </trkpt>
      <trkpt lat="44.06883" lon="6.29486">
        <ele>931.649</ele>
        <time>2022-08-24T12:35:07Z</time>
      </trkpt>
      <trkpt lat="44.06887" lon="6.29483">
        <ele>932.069</ele>
        <time>2022-08-24T12:35:08Z</time>
      </trkpt>
      <trkpt lat="44.06893" lon="6.29483">
        <ele>932.635</ele>
        <time>2022-08-24T12:35:12Z</time>
      </trkpt>
      <trkpt lat="44.06902" lon="6.29487">
        <ele>933.848</ele>
        <time>2022-08-24T12:35:16Z</time>
      </trkpt>
      <trkpt lat="44.06903" lon="6.29488">
        <ele>934.081</ele>
        <time>2022-08-24T12:35:17Z</time>
      </trkpt>
      <trkpt lat="44.06908" lon="6.2949">
        <ele>935.247</ele>
        <time>2022-08-24T12:35:19Z</time>
      </trkpt>
      <trkpt lat="44.06911" lon="6.29492">
        <ele>936.281</ele>
        <time>2022-08-24T12:35:21Z</time>
      </trkpt>
      <trkpt lat="44.06916" lon="6.29492">
        <ele>936.464</ele>
        <time>2022-08-24T12:35:23Z</time>
      </trkpt>
      <trkpt lat="44.06928" lon="6.29491">
        <ele>936.664</ele>
        <time>2022-08-24T12:35:28Z</time>
      </trkpt>
      <trkpt lat="44.0694" lon="6.29488">
        <ele>936.606</ele>
        <time>2022-08-24T12:35:33Z</time>
      </trkpt>
      <trkpt lat="44.06948" lon="6.29488">
        <ele>937.416</ele>
        <time>2022-08-24T12:35:37Z</time>
      </trkpt>
      <trkpt lat="44.06949" lon="6.29488">
        <ele>937.809</ele>
        <time>2022-08-24T12:35:38Z</time>
      </trkpt>
      <trkpt lat="44.06949" lon="6.29488">
        <ele>938.067</ele>
        <time>2022-08-24T12:35:40Z</time>
      </trkpt>
      <trkpt lat="44.06954" lon="6.29488">
        <ele>938.217</ele>
        <time>2022-08-24T12:35:43Z</time>
      </trkpt>
      <trkpt lat="44.06956" lon="6.29488">
        <ele>938.267</ele>
        <time>2022-08-24T12:35:44Z</time>
      </trkpt>
      <trkpt lat="44.06964" lon="6.2949">
        <ele>937.833</ele>
        <time>2022-08-24T12:35:47Z</time>
      </trkpt>
      <trkpt lat="44.06976" lon="6.29493">
        <ele>937.266</ele>
        <time>2022-08-24T12:35:50Z</time>
      </trkpt>
      <trkpt lat="44.06983" lon="6.29494">
        <ele>937.049</ele>
        <time>2022-08-24T12:35:51Z</time>
      </trkpt>
      <trkpt lat="44.06987" lon="6.29496">
        <ele>936.685</ele>
        <time>2022-08-24T12:35:53Z</time>
      </trkpt>
      <trkpt lat="44.06993" lon="6.29499">
        <ele>936.229</ele>
        <time>2022-08-24T12:35:54Z</time>
      </trkpt>
      <trkpt lat="44.06995" lon="6.295">
        <ele>935.842</ele>
        <time>2022-08-24T12:35:55Z</time>
      </trkpt>
      <trkpt lat="44.06995" lon="6.29499">
        <ele>935.447</ele>
        <time>2022-08-24T12:35:56Z</time>
      </trkpt>
      <trkpt lat="44.06995" lon="6.29499">
        <ele>935.229</ele>
        <time>2022-08-24T12:35:57Z</time>
      </trkpt>
      <trkpt lat="44.06991" lon="6.29499">
        <ele>935.021</ele>
        <time>2022-08-24T12:36:08Z</time>
      </trkpt>
      <trkpt lat="44.06987" lon="6.29497">
        <ele>935.009</ele>
        <time>2022-08-24T12:36:10Z</time>
      </trkpt>
      <trkpt lat="44.0697" lon="6.29493">
        <ele>935.835</ele>
        <time>2022-08-24T12:36:16Z</time>
      </trkpt>
      <trkpt lat="44.06965" lon="6.29492">
        <ele>936.215</ele>
        <time>2022-08-24T12:36:18Z</time>
      </trkpt>
      <trkpt lat="44.06955" lon="6.29489">
        <ele>937.425</ele>
        <time>2022-08-24T12:36:22Z</time>
      </trkpt>
      <trkpt lat="44.06953" lon="6.29488">
        <ele>937.621</ele>
        <time>2022-08-24T12:36:23Z</time>
      </trkpt>
      <trkpt lat="44.06947" lon="6.29488">
        <ele>938.244</ele>
        <time>2022-08-24T12:36:28Z</time>
      </trkpt>
      <trkpt lat="44.06948" lon="6.29488">
        <ele>938.247</ele>
        <time>2022-08-24T12:36:29Z</time>
      </trkpt>
      <trkpt lat="44.06952" lon="6.29489">
        <ele>938.233</ele>
        <time>2022-08-24T12:36:31Z</time>
      </trkpt>
      <trkpt lat="44.06955" lon="6.2949">
        <ele>938.287</ele>
        <time>2022-08-24T12:36:32Z</time>
      </trkpt>
      <trkpt lat="44.0696" lon="6.29491">
        <ele>938.05</ele>
        <time>2022-08-24T12:36:33Z</time>
      </trkpt>
      <trkpt lat="44.0696" lon="6.29491">
        <ele>937.825</ele>
        <time>2022-08-24T12:36:34Z</time>
      </trkpt>
      <trkpt lat="44.06993" lon="6.29501">
        <ele>936.226</ele>
        <time>2022-08-24T12:36:39Z</time>
      </trkpt>
      <trkpt lat="44.07005" lon="6.29504">
        <ele>934.208</ele>
        <time>2022-08-24T12:36:41Z</time>
      </trkpt>
      <trkpt lat="44.07011" lon="6.29506">
        <ele>933.209</ele>
        <time>2022-08-24T12:36:42Z</time>
      </trkpt>
      <trkpt lat="44.07023" lon="6.29509">
        <ele>931.263</ele>
        <time>2022-08-24T12:36:44Z</time>
      </trkpt>
      <trkpt lat="44.07035" lon="6.29513">
        <ele>930.443</ele>
        <time>2022-08-24T12:36:46Z</time>
      </trkpt>
      <trkpt lat="44.07052" lon="6.29522">
        <ele>929.653</ele>
        <time>2022-08-24T12:36:49Z</time>
      </trkpt>
      <trkpt lat="44.07057" lon="6.29525">
        <ele>929.249</ele>
        <time>2022-08-24T12:36:50Z</time>
      </trkpt>
      <trkpt lat="44.07066" lon="6.29535">
        <ele>928.062</ele>
        <time>2022-08-24T12:36:52Z</time>
      </trkpt>
      <trkpt lat="44.0707" lon="6.29538">
        <ele>927.675</ele>
        <time>2022-08-24T12:36:53Z</time>
      </trkpt>
      <trkpt lat="44.07079" lon="6.29542">
        <ele>927.831</ele>
        <time>2022-08-24T12:36:56Z</time>
      </trkpt>
      <trkpt lat="44.0708" lon="6.29542">
        <ele>928.215</ele>
        <time>2022-08-24T12:36:58Z</time>
      </trkpt>
      <trkpt lat="44.07089" lon="6.29552">
        <ele>924.278</ele>
        <time>2022-08-24T12:38:50Z</time>
      </trkpt>
      <trkpt lat="44.07092" lon="6.29557">
        <ele>924.283</ele>
        <time>2022-08-24T12:38:51Z</time>
      </trkpt>
      <trkpt lat="44.07095" lon="6.29563">
        <ele>924.225</ele>
        <time>2022-08-24T12:38:52Z</time>
      </trkpt>
      <trkpt lat="44.07099" lon="6.29571">
        <ele>923.217</ele>
        <time>2022-08-24T12:38:53Z</time>
      </trkpt>
      <trkpt lat="44.07103" lon="6.29577">
        <ele>920.209</ele>
        <time>2022-08-24T12:38:54Z</time>
      </trkpt>
      <trkpt lat="44.07108" lon="6.29583">
        <ele>917.859</ele>
        <time>2022-08-24T12:38:55Z</time>
      </trkpt>
      <trkpt lat="44.07112" lon="6.29589">
        <ele>916.699</ele>
        <time>2022-08-24T12:38:56Z</time>
      </trkpt>
      <trkpt lat="44.07116" lon="6.29599">
        <ele>914.839</ele>
        <time>2022-08-24T12:38:58Z</time>
      </trkpt>
      <trkpt lat="44.07116" lon="6.29604">
        <ele>913.825</ele>
        <time>2022-08-24T12:38:59Z</time>
      </trkpt>
      <trkpt lat="44.07114" lon="6.29608">
        <ele>913.268</ele>
        <time>2022-08-24T12:39:00Z</time>
      </trkpt>
      <trkpt lat="44.07111" lon="6.29611">
        <ele>912.821</ele>
        <time>2022-08-24T12:39:02Z</time>
      </trkpt>
      <trkpt lat="44.07108" lon="6.29621">
        <ele>912.647</ele>
        <time>2022-08-24T12:39:06Z</time>
      </trkpt>
      <trkpt lat="44.07109" lon="6.29624">
        <ele>912.671</ele>
        <time>2022-08-24T12:39:07Z</time>
      </trkpt>
      <trkpt lat="44.0711" lon="6.29631">
        <ele>913.244</ele>
        <time>2022-08-24T12:39:09Z</time>
      </trkpt>
      <trkpt lat="44.07111" lon="6.29635">
        <ele>913.435</ele>
        <time>2022-08-24T12:39:10Z</time>
      </trkpt>
      <trkpt lat="44.07112" lon="6.29644">
        <ele>914.286</ele>
        <time>2022-08-24T12:39:12Z</time>
      </trkpt>
      <trkpt lat="44.07112" lon="6.29649">
        <ele>914.614</ele>
        <time>2022-08-24T12:39:13Z</time>
      </trkpt>
      <trkpt lat="44.07111" lon="6.29652">
        <ele>914.809</ele>
        <time>2022-08-24T12:39:14Z</time>
      </trkpt>
      <trkpt lat="44.07107" lon="6.29656">
        <ele>915.814</ele>
        <time>2022-08-24T12:39:16Z</time>
      </trkpt>
      <trkpt lat="44.07106" lon="6.29658">
        <ele>916.094</ele>
        <time>2022-08-24T12:39:17Z</time>
      </trkpt>
      <trkpt lat="44.07101" lon="6.29666">
        <ele>917.074</ele>
        <time>2022-08-24T12:39:20Z</time>
      </trkpt>
      <trkpt lat="44.07097" lon="6.29675">
        <ele>917.62</ele>
        <time>2022-08-24T12:39:23Z</time>
      </trkpt>
      <trkpt lat="44.07095" lon="6.29682">
        <ele>918.273</ele>
        <time>2022-08-24T12:39:25Z</time>
      </trkpt>
      <trkpt lat="44.07093" lon="6.29692">
        <ele>919.096</ele>
        <time>2022-08-24T12:39:28Z</time>
      </trkpt>
      <trkpt lat="44.07093" lon="6.29695">
        <ele>919.422</ele>
        <time>2022-08-24T12:39:29Z</time>
      </trkpt>
      <trkpt lat="44.07093" lon="6.29699">
        <ele>919.856</ele>
        <time>2022-08-24T12:39:30Z</time>
      </trkpt>
      <trkpt lat="44.07091" lon="6.29706">
        <ele>920.449</ele>
        <time>2022-08-24T12:39:32Z</time>
      </trkpt>
      <trkpt lat="44.07088" lon="6.29725">
        <ele>921.488</ele>
        <time>2022-08-24T12:39:37Z</time>
      </trkpt>
      <trkpt lat="44.07087" lon="6.29729">
        <ele>921.624</ele>
        <time>2022-08-24T12:39:38Z</time>
      </trkpt>
      <trkpt lat="44.07086" lon="6.29733">
        <ele>922.626</ele>
        <time>2022-08-24T12:39:39Z</time>
      </trkpt>
      <trkpt lat="44.07079" lon="6.29751">
        <ele>923.609</ele>
        <time>2022-08-24T12:39:44Z</time>
      </trkpt>
      <trkpt lat="44.07075" lon="6.29758">
        <ele>924.039</ele>
        <time>2022-08-24T12:39:46Z</time>
      </trkpt>
      <trkpt lat="44.07063" lon="6.2977">
        <ele>924.839</ele>
        <time>2022-08-24T12:39:51Z</time>
      </trkpt>
      <trkpt lat="44.07059" lon="6.29775">
        <ele>925.699</ele>
        <time>2022-08-24T12:39:53Z</time>
      </trkpt>
      <trkpt lat="44.07056" lon="6.29777">
        <ele>926.035</ele>
        <time>2022-08-24T12:39:54Z</time>
      </trkpt>
      <trkpt lat="44.07051" lon="6.29785">
        <ele>927.268</ele>
        <time>2022-08-24T12:39:57Z</time>
      </trkpt>
      <trkpt lat="44.07045" lon="6.29794">
        <ele>928.411</ele>
        <time>2022-08-24T12:40:00Z</time>
      </trkpt>
      <trkpt lat="44.07037" lon="6.29807">
        <ele>929.497</ele>
        <time>2022-08-24T12:40:04Z</time>
      </trkpt>
      <trkpt lat="44.07034" lon="6.29814">
        <ele>930.471</ele>
        <time>2022-08-24T12:40:06Z</time>
      </trkpt>
      <trkpt lat="44.07033" lon="6.29818">
        <ele>930.624</ele>
        <time>2022-08-24T12:40:07Z</time>
      </trkpt>
      <trkpt lat="44.07027" lon="6.29839">
        <ele>931.817</ele>
        <time>2022-08-24T12:40:12Z</time>
      </trkpt>
      <trkpt lat="44.07027" lon="6.29843">
        <ele>932.087</ele>
        <time>2022-08-24T12:40:13Z</time>
      </trkpt>
      <trkpt lat="44.07025" lon="6.29869">
        <ele>933.215</ele>
        <time>2022-08-24T12:40:19Z</time>
      </trkpt>
      <trkpt lat="44.07024" lon="6.29881">
        <ele>934.009</ele>
        <time>2022-08-24T12:40:22Z</time>
      </trkpt>
      <trkpt lat="44.07022" lon="6.29888">
        <ele>934.022</ele>
        <time>2022-08-24T12:40:24Z</time>
      </trkpt>
      <trkpt lat="44.07021" lon="6.29892">
        <ele>934.432</ele>
        <time>2022-08-24T12:40:25Z</time>
      </trkpt>
      <trkpt lat="44.0702" lon="6.29896">
        <ele>934.812</ele>
        <time>2022-08-24T12:40:26Z</time>
      </trkpt>
      <trkpt lat="44.07017" lon="6.29904">
        <ele>935.438</ele>
        <time>2022-08-24T12:40:28Z</time>
      </trkpt>
      <trkpt lat="44.07015" lon="6.29907">
        <ele>935.461</ele>
        <time>2022-08-24T12:40:29Z</time>
      </trkpt>
      <trkpt lat="44.07012" lon="6.29912">
        <ele>936.634</ele>
        <time>2022-08-24T12:40:31Z</time>
      </trkpt>
      <trkpt lat="44.07011" lon="6.29916">
        <ele>936.88</ele>
        <time>2022-08-24T12:40:32Z</time>
      </trkpt>
      <trkpt lat="44.07005" lon="6.29925">
        <ele>938.084</ele>
        <time>2022-08-24T12:40:35Z</time>
      </trkpt>
      <trkpt lat="44.07002" lon="6.29933">
        <ele>939.227</ele>
        <time>2022-08-24T12:40:38Z</time>
      </trkpt>
      <trkpt lat="44.06999" lon="6.29941">
        <ele>940.291</ele>
        <time>2022-08-24T12:40:41Z</time>
      </trkpt>
      <trkpt lat="44.06997" lon="6.29948">
        <ele>940.881</ele>
        <time>2022-08-24T12:40:43Z</time>
      </trkpt>
      <trkpt lat="44.06994" lon="6.29954">
        <ele>941.219</ele>
        <time>2022-08-24T12:40:45Z</time>
      </trkpt>
      <trkpt lat="44.06988" lon="6.29966">
        <ele>942.409</ele>
        <time>2022-08-24T12:40:49Z</time>
      </trkpt>
      <trkpt lat="44.06986" lon="6.29972">
        <ele>942.86</ele>
        <time>2022-08-24T12:40:51Z</time>
      </trkpt>
      <trkpt lat="44.06984" lon="6.29975">
        <ele>943.43</ele>
        <time>2022-08-24T12:40:52Z</time>
      </trkpt>
      <trkpt lat="44.06979" lon="6.29984">
        <ele>944.42</ele>
        <time>2022-08-24T12:40:55Z</time>
      </trkpt>
      <trkpt lat="44.06975" lon="6.2999">
        <ele>944.636</ele>
        <time>2022-08-24T12:40:57Z</time>
      </trkpt>
      <trkpt lat="44.06965" lon="6.30007">
        <ele>945.629</ele>
        <time>2022-08-24T12:41:03Z</time>
      </trkpt>
      <trkpt lat="44.06962" lon="6.30008">
        <ele>945.892</ele>
        <time>2022-08-24T12:41:04Z</time>
      </trkpt>
      <trkpt lat="44.06954" lon="6.30011">
        <ele>946.698</ele>
        <time>2022-08-24T12:41:07Z</time>
      </trkpt>
      <trkpt lat="44.06951" lon="6.30011">
        <ele>946.872</ele>
        <time>2022-08-24T12:41:08Z</time>
      </trkpt>
      <trkpt lat="44.06949" lon="6.30012">
        <ele>946.815</ele>
        <time>2022-08-24T12:41:09Z</time>
      </trkpt>
      <trkpt lat="44.06946" lon="6.30013">
        <ele>947.032</ele>
        <time>2022-08-24T12:41:10Z</time>
      </trkpt>
      <trkpt lat="44.06943" lon="6.30013">
        <ele>947.292</ele>
        <time>2022-08-24T12:41:11Z</time>
      </trkpt>
      <trkpt lat="44.06941" lon="6.30013">
        <ele>947.611</ele>
        <time>2022-08-24T12:41:12Z</time>
      </trkpt>
      <trkpt lat="44.06938" lon="6.30014">
        <ele>948.009</ele>
        <time>2022-08-24T12:41:13Z</time>
      </trkpt>
      <trkpt lat="44.06935" lon="6.30014">
        <ele>948.284</ele>
        <time>2022-08-24T12:41:14Z</time>
      </trkpt>
      <trkpt lat="44.06924" lon="6.30017">
        <ele>949.294</ele>
        <time>2022-08-24T12:41:18Z</time>
      </trkpt>
      <trkpt lat="44.06917" lon="6.30023">
        <ele>950.464</ele>
        <time>2022-08-24T12:41:21Z</time>
      </trkpt>
      <trkpt lat="44.06913" lon="6.30028">
        <ele>951.02</ele>
        <time>2022-08-24T12:41:23Z</time>
      </trkpt>
      <trkpt lat="44.0691" lon="6.30034">
        <ele>951.653</ele>
        <time>2022-08-24T12:41:25Z</time>
      </trkpt>
      <trkpt lat="44.06902" lon="6.30051">
        <ele>952.656</ele>
        <time>2022-08-24T12:41:30Z</time>
      </trkpt>
      <trkpt lat="44.06897" lon="6.30062">
        <ele>954.052</ele>
        <time>2022-08-24T12:41:33Z</time>
      </trkpt>
      <trkpt lat="44.06894" lon="6.30068">
        <ele>954.676</ele>
        <time>2022-08-24T12:41:35Z</time>
      </trkpt>
      <trkpt lat="44.06891" lon="6.30074">
        <ele>954.869</ele>
        <time>2022-08-24T12:41:37Z</time>
      </trkpt>
      <trkpt lat="44.06886" lon="6.30078">
        <ele>955.051</ele>
        <time>2022-08-24T12:41:39Z</time>
      </trkpt>
      <trkpt lat="44.06883" lon="6.3008">
        <ele>955.201</ele>
        <time>2022-08-24T12:41:40Z</time>
      </trkpt>
      <trkpt lat="44.06875" lon="6.30085">
        <ele>956.411</ele>
        <time>2022-08-24T12:41:43Z</time>
      </trkpt>
      <trkpt lat="44.0687" lon="6.30089">
        <ele>957.609</ele>
        <time>2022-08-24T12:41:45Z</time>
      </trkpt>
      <trkpt lat="44.06863" lon="6.30095">
        <ele>958.096</ele>
        <time>2022-08-24T12:41:48Z</time>
      </trkpt>
      <trkpt lat="44.06858" lon="6.30101">
        <ele>959.076</ele>
        <time>2022-08-24T12:41:50Z</time>
      </trkpt>
      <trkpt lat="44.06849" lon="6.30115">
        <ele>960.076</ele>
        <time>2022-08-24T12:41:55Z</time>
      </trkpt>
      <trkpt lat="44.06839" lon="6.30133">
        <ele>961.272</ele>
        <time>2022-08-24T12:42:01Z</time>
      </trkpt>
      <trkpt lat="44.06833" lon="6.3015">
        <ele>962.425</ele>
        <time>2022-08-24T12:42:06Z</time>
      </trkpt>
      <trkpt lat="44.06828" lon="6.30164">
        <ele>963.238</ele>
        <time>2022-08-24T12:42:10Z</time>
      </trkpt>
      <trkpt lat="44.06827" lon="6.30167">
        <ele>963.814</ele>
        <time>2022-08-24T12:42:11Z</time>
      </trkpt>
      <trkpt lat="44.06824" lon="6.30177">
        <ele>965.048</ele>
        <time>2022-08-24T12:42:14Z</time>
      </trkpt>
      <trkpt lat="44.06818" lon="6.30191">
        <ele>965.661</ele>
        <time>2022-08-24T12:42:18Z</time>
      </trkpt>
      <trkpt lat="44.06811" lon="6.30205">
        <ele>966.227</ele>
        <time>2022-08-24T12:42:22Z</time>
      </trkpt>
      <trkpt lat="44.06806" lon="6.30213">
        <ele>967.068</ele>
        <time>2022-08-24T12:42:25Z</time>
      </trkpt>
      <trkpt lat="44.06804" lon="6.30216">
        <ele>967.214</ele>
        <time>2022-08-24T12:42:26Z</time>
      </trkpt>
      <trkpt lat="44.06799" lon="6.30225">
        <ele>968.409</ele>
        <time>2022-08-24T12:42:29Z</time>
      </trkpt>
      <trkpt lat="44.06794" lon="6.30232">
        <ele>969.023</ele>
        <time>2022-08-24T12:42:32Z</time>
      </trkpt>
      <trkpt lat="44.06787" lon="6.30238">
        <ele>969.643</ele>
        <time>2022-08-24T12:42:35Z</time>
      </trkpt>
      <trkpt lat="44.0678" lon="6.30243">
        <ele>970.463</ele>
        <time>2022-08-24T12:42:38Z</time>
      </trkpt>
      <trkpt lat="44.06777" lon="6.30245">
        <ele>970.879</ele>
        <time>2022-08-24T12:42:39Z</time>
      </trkpt>
      <trkpt lat="44.06765" lon="6.30257">
        <ele>971.822</ele>
        <time>2022-08-24T12:42:44Z</time>
      </trkpt>
      <trkpt lat="44.06763" lon="6.3026">
        <ele>972.645</ele>
        <time>2022-08-24T12:42:45Z</time>
      </trkpt>
      <trkpt lat="44.0676" lon="6.30267">
        <ele>973.221</ele>
        <time>2022-08-24T12:42:47Z</time>
      </trkpt>
      <trkpt lat="44.06756" lon="6.30277">
        <ele>974.415</ele>
        <time>2022-08-24T12:42:50Z</time>
      </trkpt>
      <trkpt lat="44.06753" lon="6.30284">
        <ele>975.678</ele>
        <time>2022-08-24T12:42:52Z</time>
      </trkpt>
      <trkpt lat="44.06747" lon="6.30298">
        <ele>977.034</ele>
        <time>2022-08-24T12:42:56Z</time>
      </trkpt>
      <trkpt lat="44.06739" lon="6.30302">
        <ele>977.655</ele>
        <time>2022-08-24T12:42:59Z</time>
      </trkpt>
      <trkpt lat="44.06734" lon="6.30301">
        <ele>978.21</ele>
        <time>2022-08-24T12:43:01Z</time>
      </trkpt>
      <trkpt lat="44.06723" lon="6.30296">
        <ele>979.009</ele>
        <time>2022-08-24T12:43:05Z</time>
      </trkpt>
      <trkpt lat="44.06707" lon="6.30289">
        <ele>979.054</ele>
        <time>2022-08-24T12:43:10Z</time>
      </trkpt>
      <trkpt lat="44.06703" lon="6.3029">
        <ele>979.284</ele>
        <time>2022-08-24T12:43:11Z</time>
      </trkpt>
      <trkpt lat="44.06699" lon="6.30291">
        <ele>979.234</ele>
        <time>2022-08-24T12:43:12Z</time>
      </trkpt>
      <trkpt lat="44.06691" lon="6.30296">
        <ele>979.29</ele>
        <time>2022-08-24T12:43:14Z</time>
      </trkpt>
      <trkpt lat="44.06688" lon="6.303">
        <ele>979.283</ele>
        <time>2022-08-24T12:43:15Z</time>
      </trkpt>
      <trkpt lat="44.06674" lon="6.30323">
        <ele>980.646</ele>
        <time>2022-08-24T12:43:20Z</time>
      </trkpt>
      <trkpt lat="44.06671" lon="6.30327">
        <ele>980.882</ele>
        <time>2022-08-24T12:43:21Z</time>
      </trkpt>
      <trkpt lat="44.06666" lon="6.30335">
        <ele>981.846</ele>
        <time>2022-08-24T12:43:24Z</time>
      </trkpt>
      <trkpt lat="44.06661" lon="6.30344">
        <ele>982.279</ele>
        <time>2022-08-24T12:43:25Z</time>
      </trkpt>
      <trkpt lat="44.06656" lon="6.30351">
        <ele>982.874</ele>
        <time>2022-08-24T12:43:27Z</time>
      </trkpt>
      <trkpt lat="44.06644" lon="6.30365">
        <ele>984.056</ele>
        <time>2022-08-24T12:43:31Z</time>
      </trkpt>
      <trkpt lat="44.06631" lon="6.30377">
        <ele>985.021</ele>
        <time>2022-08-24T12:43:35Z</time>
      </trkpt>
      <trkpt lat="44.06619" lon="6.30391">
        <ele>986.409</ele>
        <time>2022-08-24T12:43:39Z</time>
      </trkpt>
      <trkpt lat="44.06612" lon="6.30403">
        <ele>987.048</ele>
        <time>2022-08-24T12:43:42Z</time>
      </trkpt>
      <trkpt lat="44.06608" lon="6.30411">
        <ele>987.828</ele>
        <time>2022-08-24T12:43:44Z</time>
      </trkpt>
      <trkpt lat="44.066" lon="6.30425">
        <ele>989.428</ele>
        <time>2022-08-24T12:43:48Z</time>
      </trkpt>
      <trkpt lat="44.06597" lon="6.30432">
        <ele>990.254</ele>
        <time>2022-08-24T12:43:50Z</time>
      </trkpt>
      <trkpt lat="44.06594" lon="6.3044">
        <ele>990.867</ele>
        <time>2022-08-24T12:43:52Z</time>
      </trkpt>
      <trkpt lat="44.06593" lon="6.30452">
        <ele>991.47</ele>
        <time>2022-08-24T12:43:55Z</time>
      </trkpt>
      <trkpt lat="44.06594" lon="6.30455">
        <ele>991.696</ele>
        <time>2022-08-24T12:43:56Z</time>
      </trkpt>
      <trkpt lat="44.06597" lon="6.30461">
        <ele>991.67</ele>
        <time>2022-08-24T12:43:58Z</time>
      </trkpt>
      <trkpt lat="44.06599" lon="6.30462">
        <ele>991.693</ele>
        <time>2022-08-24T12:43:59Z</time>
      </trkpt>
      <trkpt lat="44.066" lon="6.30462">
        <ele>991.825</ele>
        <time>2022-08-24T12:44:00Z</time>
      </trkpt>
      <trkpt lat="44.06602" lon="6.30461">
        <ele>991.826</ele>
        <time>2022-08-24T12:44:01Z</time>
      </trkpt>
      <trkpt lat="44.06602" lon="6.3046">
        <ele>991.808</ele>
        <time>2022-08-24T12:44:02Z</time>
      </trkpt>
      <trkpt lat="44.06601" lon="6.30459">
        <ele>992.009</ele>
        <time>2022-08-24T12:44:03Z</time>
      </trkpt>
      <trkpt lat="44.06597" lon="6.30465">
        <ele>991.833</ele>
        <time>2022-08-24T12:44:06Z</time>
      </trkpt>
      <trkpt lat="44.06599" lon="6.30481">
        <ele>991.693</ele>
        <time>2022-08-24T12:44:10Z</time>
      </trkpt>
      <trkpt lat="44.06604" lon="6.30505">
        <ele>992.023</ele>
        <time>2022-08-24T12:44:16Z</time>
      </trkpt>
      <trkpt lat="44.06603" lon="6.30519">
        <ele>992.839</ele>
        <time>2022-08-24T12:44:20Z</time>
      </trkpt>
      <trkpt lat="44.06601" lon="6.30529">
        <ele>993.432</ele>
        <time>2022-08-24T12:44:23Z</time>
      </trkpt>
      <trkpt lat="44.06599" lon="6.30539">
        <ele>994.045</ele>
        <time>2022-08-24T12:44:26Z</time>
      </trkpt>
      <trkpt lat="44.06595" lon="6.30548">
        <ele>995.081</ele>
        <time>2022-08-24T12:44:29Z</time>
      </trkpt>
      <trkpt lat="44.06594" lon="6.30551">
        <ele>995.215</ele>
        <time>2022-08-24T12:44:30Z</time>
      </trkpt>
      <trkpt lat="44.06588" lon="6.30564">
        <ele>996.288</ele>
        <time>2022-08-24T12:44:34Z</time>
      </trkpt>
      <trkpt lat="44.06579" lon="6.30583">
        <ele>997.263</ele>
        <time>2022-08-24T12:44:40Z</time>
      </trkpt>
      <trkpt lat="44.06578" lon="6.30586">
        <ele>997.444</ele>
        <time>2022-08-24T12:44:41Z</time>
      </trkpt>
      <trkpt lat="44.06573" lon="6.30595">
        <ele>998.818</ele>
        <time>2022-08-24T12:44:44Z</time>
      </trkpt>
      <trkpt lat="44.06568" lon="6.30604">
        <ele>1000.409</ele>
        <time>2022-08-24T12:44:47Z</time>
      </trkpt>
      <trkpt lat="44.06567" lon="6.30607">
        <ele>1000.827</ele>
        <time>2022-08-24T12:44:48Z</time>
      </trkpt>
      <trkpt lat="44.06563" lon="6.30612">
        <ele>1001.617</ele>
        <time>2022-08-24T12:44:50Z</time>
      </trkpt>
      <trkpt lat="44.06556" lon="6.30618">
        <ele>1002.827</ele>
        <time>2022-08-24T12:44:53Z</time>
      </trkpt>
      <trkpt lat="44.06553" lon="6.3062">
        <ele>1003.023</ele>
        <time>2022-08-24T12:44:54Z</time>
      </trkpt>
      <trkpt lat="44.06545" lon="6.30622">
        <ele>1004.026</ele>
        <time>2022-08-24T12:44:57Z</time>
      </trkpt>
      <trkpt lat="44.06542" lon="6.30623">
        <ele>1004.489</ele>
        <time>2022-08-24T12:44:58Z</time>
      </trkpt>
      <trkpt lat="44.06531" lon="6.30627">
        <ele>1004.825</ele>
        <time>2022-08-24T12:45:02Z</time>
      </trkpt>
      <trkpt lat="44.06524" lon="6.30632">
        <ele>1005.229</ele>
        <time>2022-08-24T12:45:05Z</time>
      </trkpt>
      <trkpt lat="44.06521" lon="6.30638">
        <ele>1005.692</ele>
        <time>2022-08-24T12:45:07Z</time>
      </trkpt>
      <trkpt lat="44.06522" lon="6.30645">
        <ele>1006.022</ele>
        <time>2022-08-24T12:45:09Z</time>
      </trkpt>
      <trkpt lat="44.06523" lon="6.30647">
        <ele>1006.462</ele>
        <time>2022-08-24T12:45:10Z</time>
      </trkpt>
      <trkpt lat="44.06525" lon="6.30649">
        <ele>1006.608</ele>
        <time>2022-08-24T12:45:11Z</time>
      </trkpt>
      <trkpt lat="44.06533" lon="6.30653">
        <ele>1007.409</ele>
        <time>2022-08-24T12:45:14Z</time>
      </trkpt>
      <trkpt lat="44.06539" lon="6.30655">
        <ele>1008.033</ele>
        <time>2022-08-24T12:45:16Z</time>
      </trkpt>
      <trkpt lat="44.06544" lon="6.30657">
        <ele>1008.663</ele>
        <time>2022-08-24T12:45:18Z</time>
      </trkpt>
      <trkpt lat="44.06555" lon="6.30662">
        <ele>1009.473</ele>
        <time>2022-08-24T12:45:22Z</time>
      </trkpt>
      <trkpt lat="44.06558" lon="6.30663">
        <ele>1009.699</ele>
        <time>2022-08-24T12:45:23Z</time>
      </trkpt>
      <trkpt lat="44.06567" lon="6.30666">
        <ele>1010.822</ele>
        <time>2022-08-24T12:45:26Z</time>
      </trkpt>
      <trkpt lat="44.06581" lon="6.30673">
        <ele>1011.885</ele>
        <time>2022-08-24T12:45:31Z</time>
      </trkpt>
      <trkpt lat="44.0659" lon="6.30681">
        <ele>1012.651</ele>
        <time>2022-08-24T12:45:35Z</time>
      </trkpt>
      <trkpt lat="44.0659" lon="6.30684">
        <ele>1012.825</ele>
        <time>2022-08-24T12:45:36Z</time>
      </trkpt>
      <trkpt lat="44.0659" lon="6.30688">
        <ele>1013.228</ele>
        <time>2022-08-24T12:45:37Z</time>
      </trkpt>
      <trkpt lat="44.06586" lon="6.30693">
        <ele>1013.834</ele>
        <time>2022-08-24T12:45:39Z</time>
      </trkpt>
      <trkpt lat="44.06584" lon="6.30695">
        <ele>1014.255</ele>
        <time>2022-08-24T12:45:40Z</time>
      </trkpt>
      <trkpt lat="44.06576" lon="6.30694">
        <ele>1015.01</ele>
        <time>2022-08-24T12:45:43Z</time>
      </trkpt>
      <trkpt lat="44.06573" lon="6.30693">
        <ele>1015.209</ele>
        <time>2022-08-24T12:45:44Z</time>
      </trkpt>
      <trkpt lat="44.06564" lon="6.30689">
        <ele>1016.424</ele>
        <time>2022-08-24T12:45:47Z</time>
      </trkpt>
      <trkpt lat="44.06558" lon="6.30688">
        <ele>1017.064</ele>
        <time>2022-08-24T12:45:49Z</time>
      </trkpt>
      <trkpt lat="44.06549" lon="6.30688">
        <ele>1017.484</ele>
        <time>2022-08-24T12:45:52Z</time>
      </trkpt>
      <trkpt lat="44.06537" lon="6.30689">
        <ele>1018.48</ele>
        <time>2022-08-24T12:45:56Z</time>
      </trkpt>
      <trkpt lat="44.06534" lon="6.3069">
        <ele>1018.683</ele>
        <time>2022-08-24T12:45:57Z</time>
      </trkpt>
      <trkpt lat="44.06527" lon="6.30694">
        <ele>1019.676</ele>
        <time>2022-08-24T12:46:00Z</time>
      </trkpt>
      <trkpt lat="44.06519" lon="6.30701">
        <ele>1020.472</ele>
        <time>2022-08-24T12:46:03Z</time>
      </trkpt>
      <trkpt lat="44.06518" lon="6.30703">
        <ele>1020.696</ele>
        <time>2022-08-24T12:46:04Z</time>
      </trkpt>
      <trkpt lat="44.06509" lon="6.30719">
        <ele>1021.839</ele>
        <time>2022-08-24T12:46:09Z</time>
      </trkpt>
      <trkpt lat="44.06504" lon="6.30732">
        <ele>1023.279</ele>
        <time>2022-08-24T12:46:13Z</time>
      </trkpt>
      <trkpt lat="44.06501" lon="6.3074">
        <ele>1023.805</ele>
        <time>2022-08-24T12:46:15Z</time>
      </trkpt>
      <trkpt lat="44.06499" lon="6.30748">
        <ele>1024.825</ele>
        <time>2022-08-24T12:46:17Z</time>
      </trkpt>
      <trkpt lat="44.06499" lon="6.30752">
        <ele>1025.009</ele>
        <time>2022-08-24T12:46:18Z</time>
      </trkpt>
      <trkpt lat="44.06497" lon="6.3076">
        <ele>1026.078</ele>
        <time>2022-08-24T12:46:20Z</time>
      </trkpt>
      <trkpt lat="44.06496" lon="6.30768">
        <ele>1026.418</ele>
        <time>2022-08-24T12:46:22Z</time>
      </trkpt>
      <trkpt lat="44.06494" lon="6.30779">
        <ele>1027.668</ele>
        <time>2022-08-24T12:46:25Z</time>
      </trkpt>
      <trkpt lat="44.0649" lon="6.30783">
        <ele>1028.224</ele>
        <time>2022-08-24T12:46:27Z</time>
      </trkpt>
      <trkpt lat="44.06488" lon="6.30785">
        <ele>1028.647</ele>
        <time>2022-08-24T12:46:28Z</time>
      </trkpt>
      <trkpt lat="44.06482" lon="6.30786">
        <ele>1029.62</ele>
        <time>2022-08-24T12:46:30Z</time>
      </trkpt>
      <trkpt lat="44.06475" lon="6.30785">
        <ele>1030.826</ele>
        <time>2022-08-24T12:46:33Z</time>
      </trkpt>
      <trkpt lat="44.06462" lon="6.30791">
        <ele>1031.61</ele>
        <time>2022-08-24T12:46:39Z</time>
      </trkpt>
      <trkpt lat="44.06456" lon="6.30795">
        <ele>1032.023</ele>
        <time>2022-08-24T12:46:42Z</time>
      </trkpt>
      <trkpt lat="44.06447" lon="6.30802">
        <ele>1033.429</ele>
        <time>2022-08-24T12:46:45Z</time>
      </trkpt>
      <trkpt lat="44.06445" lon="6.30804">
        <ele>1033.8</ele>
        <time>2022-08-24T12:46:46Z</time>
      </trkpt>
      <trkpt lat="44.0644" lon="6.30809">
        <ele>1034.42</ele>
        <time>2022-08-24T12:46:48Z</time>
      </trkpt>
      <trkpt lat="44.06434" lon="6.30819">
        <ele>1035.609</ele>
        <time>2022-08-24T12:46:51Z</time>
      </trkpt>
      <trkpt lat="44.06431" lon="6.30826">
        <ele>1036.293</ele>
        <time>2022-08-24T12:46:53Z</time>
      </trkpt>
      <trkpt lat="44.06427" lon="6.30837">
        <ele>1036.853</ele>
        <time>2022-08-24T12:46:56Z</time>
      </trkpt>
      <trkpt lat="44.0642" lon="6.30854">
        <ele>1037.663</ele>
        <time>2022-08-24T12:47:01Z</time>
      </trkpt>
      <trkpt lat="44.06418" lon="6.30857">
        <ele>1037.819</ele>
        <time>2022-08-24T12:47:02Z</time>
      </trkpt>
      <trkpt lat="44.06413" lon="6.30867">
        <ele>1039.292</ele>
        <time>2022-08-24T12:47:05Z</time>
      </trkpt>
      <trkpt lat="44.06411" lon="6.30878">
        <ele>1040.055</ele>
        <time>2022-08-24T12:47:08Z</time>
      </trkpt>
      <trkpt lat="44.06412" lon="6.30885">
        <ele>1040.491</ele>
        <time>2022-08-24T12:47:10Z</time>
      </trkpt>
      <trkpt lat="44.06417" lon="6.30894">
        <ele>1041.475</ele>
        <time>2022-08-24T12:47:13Z</time>
      </trkpt>
      <trkpt lat="44.06418" lon="6.30896">
        <ele>1042.018</ele>
        <time>2022-08-24T12:47:14Z</time>
      </trkpt>
      <trkpt lat="44.06428" lon="6.30904">
        <ele>1043.092</ele>
        <time>2022-08-24T12:47:18Z</time>
      </trkpt>
      <trkpt lat="44.06432" lon="6.30907">
        <ele>1043.673</ele>
        <time>2022-08-24T12:47:20Z</time>
      </trkpt>
      <trkpt lat="44.06437" lon="6.30912">
        <ele>1044.22</ele>
        <time>2022-08-24T12:47:22Z</time>
      </trkpt>
      <trkpt lat="44.06445" lon="6.30918">
        <ele>1045.609</ele>
        <time>2022-08-24T12:47:25Z</time>
      </trkpt>
      <trkpt lat="44.06449" lon="6.30923">
        <ele>1046.48</ele>
        <time>2022-08-24T12:47:27Z</time>
      </trkpt>
      <trkpt lat="44.06451" lon="6.30926">
        <ele>1046.64</ele>
        <time>2022-08-24T12:47:28Z</time>
      </trkpt>
      <trkpt lat="44.06453" lon="6.30929">
        <ele>1046.67</ele>
        <time>2022-08-24T12:47:29Z</time>
      </trkpt>
      <trkpt lat="44.06455" lon="6.30933">
        <ele>1046.826</ele>
        <time>2022-08-24T12:47:30Z</time>
      </trkpt>
      <trkpt lat="44.06465" lon="6.30948">
        <ele>1048.259</ele>
        <time>2022-08-24T12:47:35Z</time>
      </trkpt>
      <trkpt lat="44.06467" lon="6.3095">
        <ele>1048.662</ele>
        <time>2022-08-24T12:47:36Z</time>
      </trkpt>
      <trkpt lat="44.06475" lon="6.30955">
        <ele>1049.458</ele>
        <time>2022-08-24T12:47:39Z</time>
      </trkpt>
      <trkpt lat="44.0648" lon="6.30956">
        <ele>1050.482</ele>
        <time>2022-08-24T12:47:41Z</time>
      </trkpt>
      <trkpt lat="44.06491" lon="6.30958">
        <ele>1051.465</ele>
        <time>2022-08-24T12:47:45Z</time>
      </trkpt>
      <trkpt lat="44.06499" lon="6.30959">
        <ele>1052.298</ele>
        <time>2022-08-24T12:47:48Z</time>
      </trkpt>
      <trkpt lat="44.06502" lon="6.30959">
        <ele>1052.615</ele>
        <time>2022-08-24T12:47:49Z</time>
      </trkpt>
      <trkpt lat="44.06513" lon="6.30957">
        <ele>1053.826</ele>
        <time>2022-08-24T12:47:53Z</time>
      </trkpt>
      <trkpt lat="44.06516" lon="6.30956">
        <ele>1054.209</ele>
        <time>2022-08-24T12:47:54Z</time>
      </trkpt>
      <trkpt lat="44.06524" lon="6.30953">
        <ele>1054.81</ele>
        <time>2022-08-24T12:47:57Z</time>
      </trkpt>
      <trkpt lat="44.06531" lon="6.30948">
        <ele>1055.69</ele>
        <time>2022-08-24T12:48:01Z</time>
      </trkpt>
      <trkpt lat="44.06533" lon="6.30947">
        <ele>1055.89</ele>
        <time>2022-08-24T12:48:02Z</time>
      </trkpt>
      <trkpt lat="44.06541" lon="6.30945">
        <ele>1056.666</ele>
        <time>2022-08-24T12:48:07Z</time>
      </trkpt>
      <trkpt lat="44.06542" lon="6.30943">
        <ele>1056.689</ele>
        <time>2022-08-24T12:48:08Z</time>
      </trkpt>
      <trkpt lat="44.06543" lon="6.30941">
        <ele>1056.622</ele>
        <time>2022-08-24T12:48:10Z</time>
      </trkpt>
      <trkpt lat="44.0654" lon="6.30939">
        <ele>1056.698</ele>
        <time>2022-08-24T12:48:12Z</time>
      </trkpt>
      <trkpt lat="44.06538" lon="6.30938">
        <ele>1057.212</ele>
        <time>2022-08-24T12:48:14Z</time>
      </trkpt>
      <trkpt lat="44.06533" lon="6.30936">
        <ele>1058.245</ele>
        <time>2022-08-24T12:48:18Z</time>
      </trkpt>
      <trkpt lat="44.06533" lon="6.30936">
        <ele>1058.614</ele>
        <time>2022-08-24T12:48:19Z</time>
      </trkpt>
      <trkpt lat="44.06533" lon="6.30935">
        <ele>1058.854</ele>
        <time>2022-08-24T12:48:20Z</time>
      </trkpt>
      <trkpt lat="44.06529" lon="6.30934">
        <ele>1059.009</ele>
        <time>2022-08-24T12:48:24Z</time>
      </trkpt>
      <trkpt lat="44.06528" lon="6.30933">
        <ele>1058.809</ele>
        <time>2022-08-24T12:48:25Z</time>
      </trkpt>
      <trkpt lat="44.0653" lon="6.3094">
        <ele>1058.232</ele>
        <time>2022-08-24T12:54:35Z</time>
      </trkpt>
      <trkpt lat="44.06532" lon="6.30941">
        <ele>1058.062</ele>
        <time>2022-08-24T12:54:36Z</time>
      </trkpt>
      <trkpt lat="44.06534" lon="6.30942">
        <ele>1057.842</ele>
        <time>2022-08-24T12:54:37Z</time>
      </trkpt>
      <trkpt lat="44.0654" lon="6.30944">
        <ele>1057.488</ele>
        <time>2022-08-24T12:54:39Z</time>
      </trkpt>
      <trkpt lat="44.06545" lon="6.30945">
        <ele>1056.821</ele>
        <time>2022-08-24T12:54:40Z</time>
      </trkpt>
      <trkpt lat="44.0655" lon="6.30947">
        <ele>1056.694</ele>
        <time>2022-08-24T12:54:41Z</time>
      </trkpt>
      <trkpt lat="44.06571" lon="6.30957">
        <ele>1055.82</ele>
        <time>2022-08-24T12:54:45Z</time>
      </trkpt>
      <trkpt lat="44.06577" lon="6.30961">
        <ele>1055.614</ele>
        <time>2022-08-24T12:54:46Z</time>
      </trkpt>
      <trkpt lat="44.06584" lon="6.3097">
        <ele>1054.097</ele>
        <time>2022-08-24T12:54:48Z</time>
      </trkpt>
      <trkpt lat="44.06587" lon="6.30975">
        <ele>1053.688</ele>
        <time>2022-08-24T12:54:49Z</time>
      </trkpt>
      <trkpt lat="44.06602" lon="6.30994">
        <ele>1052.824</ele>
        <time>2022-08-24T12:54:53Z</time>
      </trkpt>
      <trkpt lat="44.0661" lon="6.31002">
        <ele>1052.426</ele>
        <time>2022-08-24T12:54:55Z</time>
      </trkpt>
      <trkpt lat="44.06619" lon="6.3101">
        <ele>1052.209</ele>
        <time>2022-08-24T12:54:57Z</time>
      </trkpt>
      <trkpt lat="44.06623" lon="6.31014">
        <ele>1052.219</ele>
        <time>2022-08-24T12:54:58Z</time>
      </trkpt>
      <trkpt lat="44.06636" lon="6.31028">
        <ele>1052.259</ele>
        <time>2022-08-24T12:55:01Z</time>
      </trkpt>
      <trkpt lat="44.0666" lon="6.31054">
        <ele>1052.219</ele>
        <time>2022-08-24T12:55:07Z</time>
      </trkpt>
      <trkpt lat="44.06671" lon="6.31062">
        <ele>1052.625</ele>
        <time>2022-08-24T12:55:10Z</time>
      </trkpt>
      <trkpt lat="44.06676" lon="6.31066">
        <ele>1053.288</ele>
        <time>2022-08-24T12:55:12Z</time>
      </trkpt>
      <trkpt lat="44.06685" lon="6.31074">
        <ele>1053.811</ele>
        <time>2022-08-24T12:55:15Z</time>
      </trkpt>
      <trkpt lat="44.06687" lon="6.31078">
        <ele>1053.827</ele>
        <time>2022-08-24T12:55:16Z</time>
      </trkpt>
      <trkpt lat="44.06689" lon="6.31082">
        <ele>1053.851</ele>
        <time>2022-08-24T12:55:17Z</time>
      </trkpt>
      <trkpt lat="44.06692" lon="6.31086">
        <ele>1053.664</ele>
        <time>2022-08-24T12:55:18Z</time>
      </trkpt>
      <trkpt lat="44.06695" lon="6.31092">
        <ele>1053.228</ele>
        <time>2022-08-24T12:55:19Z</time>
      </trkpt>
      <trkpt lat="44.06699" lon="6.31097">
        <ele>1052.689</ele>
        <time>2022-08-24T12:55:20Z</time>
      </trkpt>
      <trkpt lat="44.06707" lon="6.31108">
        <ele>1051.817</ele>
        <time>2022-08-24T12:55:22Z</time>
      </trkpt>
      <trkpt lat="44.06712" lon="6.31114">
        <ele>1051.409</ele>
        <time>2022-08-24T12:55:23Z</time>
      </trkpt>
      <trkpt lat="44.06718" lon="6.3112">
        <ele>1051.233</ele>
        <time>2022-08-24T12:55:24Z</time>
      </trkpt>
      <trkpt lat="44.06725" lon="6.31135">
        <ele>1050.463</ele>
        <time>2022-08-24T12:55:26Z</time>
      </trkpt>
      <trkpt lat="44.06729" lon="6.31144">
        <ele>1050.093</ele>
        <time>2022-08-24T12:55:27Z</time>
      </trkpt>
      <trkpt lat="44.06736" lon="6.31163">
        <ele>1049.089</ele>
        <time>2022-08-24T12:55:29Z</time>
      </trkpt>
      <trkpt lat="44.06747" lon="6.31176">
        <ele>1048.852</ele>
        <time>2022-08-24T12:55:31Z</time>
      </trkpt>
      <trkpt lat="44.06759" lon="6.3118">
        <ele>1048.835</ele>
        <time>2022-08-24T12:55:33Z</time>
      </trkpt>
      <trkpt lat="44.06765" lon="6.3118">
        <ele>1048.831</ele>
        <time>2022-08-24T12:55:34Z</time>
      </trkpt>
      <trkpt lat="44.0677" lon="6.31179">
        <ele>1050.075</ele>
        <time>2022-08-24T12:55:35Z</time>
      </trkpt>
      <trkpt lat="44.06775" lon="6.31179">
        <ele>1050.628</ele>
        <time>2022-08-24T12:55:36Z</time>
      </trkpt>
      <trkpt lat="44.0678" lon="6.31178">
        <ele>1051.077</ele>
        <time>2022-08-24T12:55:37Z</time>
      </trkpt>
      <trkpt lat="44.06784" lon="6.31177">
        <ele>1051.261</ele>
        <time>2022-08-24T12:55:38Z</time>
      </trkpt>
      <trkpt lat="44.06788" lon="6.31177">
        <ele>1051.627</ele>
        <time>2022-08-24T12:55:39Z</time>
      </trkpt>
      <trkpt lat="44.06797" lon="6.31174">
        <ele>1052.009</ele>
        <time>2022-08-24T12:55:41Z</time>
      </trkpt>
      <trkpt lat="44.06801" lon="6.31172">
        <ele>1052.248</ele>
        <time>2022-08-24T12:55:42Z</time>
      </trkpt>
      <trkpt lat="44.06808" lon="6.31163">
        <ele>1052.418</ele>
        <time>2022-08-24T12:55:44Z</time>
      </trkpt>
      <trkpt lat="44.06811" lon="6.31152">
        <ele>1052.668</ele>
        <time>2022-08-24T12:55:46Z</time>
      </trkpt>
      <trkpt lat="44.06812" lon="6.3114">
        <ele>1053.014</ele>
        <time>2022-08-24T12:55:48Z</time>
      </trkpt>
      <trkpt lat="44.06812" lon="6.31124">
        <ele>1054.217</ele>
        <time>2022-08-24T12:55:51Z</time>
      </trkpt>
      <trkpt lat="44.06816" lon="6.31109">
        <ele>1054.62</ele>
        <time>2022-08-24T12:55:54Z</time>
      </trkpt>
      <trkpt lat="44.06823" lon="6.31105">
        <ele>1055.036</ele>
        <time>2022-08-24T12:55:56Z</time>
      </trkpt>
      <trkpt lat="44.06827" lon="6.31106">
        <ele>1055.25</ele>
        <time>2022-08-24T12:55:57Z</time>
      </trkpt>
      <trkpt lat="44.06835" lon="6.31116">
        <ele>1056.643</ele>
        <time>2022-08-24T12:56:00Z</time>
      </trkpt>
      <trkpt lat="44.06837" lon="6.3112">
        <ele>1056.836</ele>
        <time>2022-08-24T12:56:01Z</time>
      </trkpt>
      <trkpt lat="44.06841" lon="6.31129">
        <ele>1057.617</ele>
        <time>2022-08-24T12:56:03Z</time>
      </trkpt>
      <trkpt lat="44.06843" lon="6.31133">
        <ele>1057.818</ele>
        <time>2022-08-24T12:56:04Z</time>
      </trkpt>
      <trkpt lat="44.06847" lon="6.31143">
        <ele>1058.409</ele>
        <time>2022-08-24T12:56:06Z</time>
      </trkpt>
      <trkpt lat="44.06848" lon="6.31147">
        <ele>1058.864</ele>
        <time>2022-08-24T12:56:07Z</time>
      </trkpt>
      <trkpt lat="44.06852" lon="6.31162">
        <ele>1059.414</ele>
        <time>2022-08-24T12:56:10Z</time>
      </trkpt>
      <trkpt lat="44.06856" lon="6.31171">
        <ele>1060.094</ele>
        <time>2022-08-24T12:56:12Z</time>
      </trkpt>
      <trkpt lat="44.06862" lon="6.31178">
        <ele>1060.25</ele>
        <time>2022-08-24T12:56:14Z</time>
      </trkpt>
      <trkpt lat="44.06865" lon="6.31181">
        <ele>1060.253</ele>
        <time>2022-08-24T12:56:15Z</time>
      </trkpt>
      <trkpt lat="44.06868" lon="6.31184">
        <ele>1060.436</ele>
        <time>2022-08-24T12:56:16Z</time>
      </trkpt>
      <trkpt lat="44.06875" lon="6.31189">
        <ele>1060.852</ele>
        <time>2022-08-24T12:56:18Z</time>
      </trkpt>
      <trkpt lat="44.06878" lon="6.31191">
        <ele>1061.096</ele>
        <time>2022-08-24T12:56:19Z</time>
      </trkpt>
      <trkpt lat="44.06885" lon="6.31196">
        <ele>1061.829</ele>
        <time>2022-08-24T12:56:21Z</time>
      </trkpt>
      <trkpt lat="44.06888" lon="6.31198">
        <ele>1062.297</ele>
        <time>2022-08-24T12:56:22Z</time>
      </trkpt>
      <trkpt lat="44.06899" lon="6.31203">
        <ele>1063.423</ele>
        <time>2022-08-24T12:56:25Z</time>
      </trkpt>
      <trkpt lat="44.06914" lon="6.31207">
        <ele>1064.425</ele>
        <time>2022-08-24T12:56:29Z</time>
      </trkpt>
      <trkpt lat="44.06929" lon="6.31208">
        <ele>1065.609</ele>
        <time>2022-08-24T12:56:33Z</time>
      </trkpt>
      <trkpt lat="44.0694" lon="6.31208">
        <ele>1066.87</ele>
        <time>2022-08-24T12:56:36Z</time>
      </trkpt>
      <trkpt lat="44.0695" lon="6.31208">
        <ele>1067.82</ele>
        <time>2022-08-24T12:56:39Z</time>
      </trkpt>
      <trkpt lat="44.06964" lon="6.31209">
        <ele>1069.01</ele>
        <time>2022-08-24T12:56:43Z</time>
      </trkpt>
      <trkpt lat="44.06978" lon="6.31216">
        <ele>1070.256</ele>
        <time>2022-08-24T12:56:47Z</time>
      </trkpt>
      <trkpt lat="44.0698" lon="6.3122">
        <ele>1070.659</ele>
        <time>2022-08-24T12:56:48Z</time>
      </trkpt>
      <trkpt lat="44.06983" lon="6.31229">
        <ele>1071.432</ele>
        <time>2022-08-24T12:56:50Z</time>
      </trkpt>
      <trkpt lat="44.06983" lon="6.31234">
        <ele>1071.458</ele>
        <time>2022-08-24T12:56:51Z</time>
      </trkpt>
      <trkpt lat="44.06975" lon="6.31257">
        <ele>1072.892</ele>
        <time>2022-08-24T12:56:56Z</time>
      </trkpt>
      <trkpt lat="44.06972" lon="6.31266">
        <ele>1073.895</ele>
        <time>2022-08-24T12:56:58Z</time>
      </trkpt>
      <trkpt lat="44.0697" lon="6.31281">
        <ele>1074.696</ele>
        <time>2022-08-24T12:57:01Z</time>
      </trkpt>
      <trkpt lat="44.06971" lon="6.31286">
        <ele>1074.631</ele>
        <time>2022-08-24T12:57:02Z</time>
      </trkpt>
      <trkpt lat="44.06973" lon="6.31291">
        <ele>1075.024</ele>
        <time>2022-08-24T12:57:04Z</time>
      </trkpt>
      <trkpt lat="44.06977" lon="6.31299">
        <ele>1075.009</ele>
        <time>2022-08-24T12:57:05Z</time>
      </trkpt>
      <trkpt lat="44.0698" lon="6.31303">
        <ele>1075.29</ele>
        <time>2022-08-24T12:57:06Z</time>
      </trkpt>
      <trkpt lat="44.06994" lon="6.31319">
        <ele>1076.69</ele>
        <time>2022-08-24T12:57:11Z</time>
      </trkpt>
      <trkpt lat="44.06998" lon="6.31327">
        <ele>1077.28</ele>
        <time>2022-08-24T12:57:13Z</time>
      </trkpt>
      <trkpt lat="44.07002" lon="6.31335">
        <ele>1077.896</ele>
        <time>2022-08-24T12:57:15Z</time>
      </trkpt>
      <trkpt lat="44.07009" lon="6.31345">
        <ele>1079.019</ele>
        <time>2022-08-24T12:57:18Z</time>
      </trkpt>
      <trkpt lat="44.07014" lon="6.31352">
        <ele>1079.472</ele>
        <time>2022-08-24T12:57:20Z</time>
      </trkpt>
      <trkpt lat="44.07017" lon="6.31355">
        <ele>1079.828</ele>
        <time>2022-08-24T12:57:21Z</time>
      </trkpt>
      <trkpt lat="44.07019" lon="6.31358">
        <ele>1080.022</ele>
        <time>2022-08-24T12:57:22Z</time>
      </trkpt>
      <trkpt lat="44.07032" lon="6.31378">
        <ele>1081.095</ele>
        <time>2022-08-24T12:57:28Z</time>
      </trkpt>
      <trkpt lat="44.07034" lon="6.31381">
        <ele>1081.239</ele>
        <time>2022-08-24T12:57:29Z</time>
      </trkpt>
      <trkpt lat="44.0704" lon="6.31397">
        <ele>1082.401</ele>
        <time>2022-08-24T12:57:33Z</time>
      </trkpt>
      <trkpt lat="44.07041" lon="6.314">
        <ele>1083.021</ele>
        <time>2022-08-24T12:57:34Z</time>
      </trkpt>
      <trkpt lat="44.07042" lon="6.31404">
        <ele>1083.409</ele>
        <time>2022-08-24T12:57:35Z</time>
      </trkpt>
      <trkpt lat="44.07044" lon="6.31421">
        <ele>1084.624</ele>
        <time>2022-08-24T12:57:39Z</time>
      </trkpt>
      <trkpt lat="44.07046" lon="6.31433">
        <ele>1085.484</ele>
        <time>2022-08-24T12:57:42Z</time>
      </trkpt>
      <trkpt lat="44.07049" lon="6.31442">
        <ele>1085.824</ele>
        <time>2022-08-24T12:57:44Z</time>
      </trkpt>
      <trkpt lat="44.07057" lon="6.31452">
        <ele>1086.69</ele>
        <time>2022-08-24T12:57:47Z</time>
      </trkpt>
      <trkpt lat="44.07059" lon="6.31455">
        <ele>1086.863</ele>
        <time>2022-08-24T12:57:48Z</time>
      </trkpt>
      <trkpt lat="44.07072" lon="6.31469">
        <ele>1088.056</ele>
        <time>2022-08-24T12:57:53Z</time>
      </trkpt>
      <trkpt lat="44.07078" lon="6.31473">
        <ele>1089.032</ele>
        <time>2022-08-24T12:57:55Z</time>
      </trkpt>
      <trkpt lat="44.07081" lon="6.31475">
        <ele>1089.636</ele>
        <time>2022-08-24T12:57:56Z</time>
      </trkpt>
      <trkpt lat="44.07091" lon="6.31478">
        <ele>1091.049</ele>
        <time>2022-08-24T12:57:59Z</time>
      </trkpt>
      <trkpt lat="44.07098" lon="6.31479">
        <ele>1091.887</ele>
        <time>2022-08-24T12:58:01Z</time>
      </trkpt>
      <trkpt lat="44.07102" lon="6.31479">
        <ele>1092.042</ele>
        <time>2022-08-24T12:58:02Z</time>
      </trkpt>
      <trkpt lat="44.07119" lon="6.31478">
        <ele>1093.426</ele>
        <time>2022-08-24T12:58:07Z</time>
      </trkpt>
      <trkpt lat="44.07126" lon="6.3148">
        <ele>1093.609</ele>
        <time>2022-08-24T12:58:09Z</time>
      </trkpt>
      <trkpt lat="44.07137" lon="6.3148">
        <ele>1094.419</ele>
        <time>2022-08-24T12:58:12Z</time>
      </trkpt>
      <trkpt lat="44.07144" lon="6.31478">
        <ele>1095.099</ele>
        <time>2022-08-24T12:58:14Z</time>
      </trkpt>
      <trkpt lat="44.07147" lon="6.31476">
        <ele>1095.269</ele>
        <time>2022-08-24T12:58:15Z</time>
      </trkpt>
      <trkpt lat="44.07153" lon="6.31471">
        <ele>1095.845</ele>
        <time>2022-08-24T12:58:17Z</time>
      </trkpt>
      <trkpt lat="44.07166" lon="6.31467">
        <ele>1096.668</ele>
        <time>2022-08-24T12:58:21Z</time>
      </trkpt>
      <trkpt lat="44.07168" lon="6.31469">
        <ele>1096.851</ele>
        <time>2022-08-24T12:58:22Z</time>
      </trkpt>
      <trkpt lat="44.0717" lon="6.31473">
        <ele>1097.277</ele>
        <time>2022-08-24T12:58:23Z</time>
      </trkpt>
      <trkpt lat="44.0717" lon="6.31477">
        <ele>1097.431</ele>
        <time>2022-08-24T12:58:24Z</time>
      </trkpt>
      <trkpt lat="44.07168" lon="6.31482">
        <ele>1098.084</ele>
        <time>2022-08-24T12:58:26Z</time>
      </trkpt>
      <trkpt lat="44.07163" lon="6.31488">
        <ele>1098.275</ele>
        <time>2022-08-24T12:58:27Z</time>
      </trkpt>
      <trkpt lat="44.0716" lon="6.31489">
        <ele>1098.428</ele>
        <time>2022-08-24T12:58:28Z</time>
      </trkpt>
      <trkpt lat="44.0715" lon="6.31495">
        <ele>1099.22</ele>
        <time>2022-08-24T12:58:31Z</time>
      </trkpt>
      <trkpt lat="44.07136" lon="6.31504">
        <ele>1099.809</ele>
        <time>2022-08-24T12:58:35Z</time>
      </trkpt>
      <trkpt lat="44.0713" lon="6.31509">
        <ele>1100.268</ele>
        <time>2022-08-24T12:58:37Z</time>
      </trkpt>
      <trkpt lat="44.07117" lon="6.31519">
        <ele>1101.488</ele>
        <time>2022-08-24T12:58:41Z</time>
      </trkpt>
      <trkpt lat="44.07114" lon="6.31521">
        <ele>1101.618</ele>
        <time>2022-08-24T12:58:42Z</time>
      </trkpt>
      <trkpt lat="44.0709" lon="6.31534">
        <ele>1102.294</ele>
        <time>2022-08-24T12:58:49Z</time>
      </trkpt>
      <trkpt lat="44.07087" lon="6.31535">
        <ele>1102.617</ele>
        <time>2022-08-24T12:58:50Z</time>
      </trkpt>
      <trkpt lat="44.07072" lon="6.31536">
        <ele>1103.62</ele>
        <time>2022-08-24T12:58:54Z</time>
      </trkpt>
      <trkpt lat="44.07065" lon="6.31535">
        <ele>1104.226</ele>
        <time>2022-08-24T12:58:56Z</time>
      </trkpt>
      <trkpt lat="44.07062" lon="6.31535">
        <ele>1104.88</ele>
        <time>2022-08-24T12:58:57Z</time>
      </trkpt>
      <trkpt lat="44.07054" lon="6.31534">
        <ele>1106.023</ele>
        <time>2022-08-24T12:58:59Z</time>
      </trkpt>
      <trkpt lat="44.07036" lon="6.31531">
        <ele>1107.234</ele>
        <time>2022-08-24T12:59:04Z</time>
      </trkpt>
      <trkpt lat="44.07032" lon="6.31531">
        <ele>1107.455</ele>
        <time>2022-08-24T12:59:05Z</time>
      </trkpt>
      <trkpt lat="44.07024" lon="6.3153">
        <ele>1108.21</ele>
        <time>2022-08-24T12:59:07Z</time>
      </trkpt>
      <trkpt lat="44.07017" lon="6.3153">
        <ele>1109.609</ele>
        <time>2022-08-24T12:59:09Z</time>
      </trkpt>
      <trkpt lat="44.07013" lon="6.3153">
        <ele>1109.814</ele>
        <time>2022-08-24T12:59:10Z</time>
      </trkpt>
      <trkpt lat="44.0701" lon="6.31532">
        <ele>1109.864</ele>
        <time>2022-08-24T12:59:11Z</time>
      </trkpt>
      <trkpt lat="44.0699" lon="6.31546">
        <ele>1110.684</ele>
        <time>2022-08-24T12:59:17Z</time>
      </trkpt>
      <trkpt lat="44.06984" lon="6.31551">
        <ele>1111.45</ele>
        <time>2022-08-24T12:59:19Z</time>
      </trkpt>
      <trkpt lat="44.0698" lon="6.31554">
        <ele>1111.623</ele>
        <time>2022-08-24T12:59:20Z</time>
      </trkpt>
      <trkpt lat="44.06971" lon="6.31561">
        <ele>1113.046</ele>
        <time>2022-08-24T12:59:23Z</time>
      </trkpt>
      <trkpt lat="44.06964" lon="6.31564">
        <ele>1114.272</ele>
        <time>2022-08-24T12:59:25Z</time>
      </trkpt>
      <trkpt lat="44.06956" lon="6.31567">
        <ele>1114.886</ele>
        <time>2022-08-24T12:59:27Z</time>
      </trkpt>
      <trkpt lat="44.06945" lon="6.31569">
        <ele>1115.469</ele>
        <time>2022-08-24T12:59:30Z</time>
      </trkpt>
      <trkpt lat="44.06933" lon="6.31571">
        <ele>1116.057</ele>
        <time>2022-08-24T12:59:33Z</time>
      </trkpt>
      <trkpt lat="44.06923" lon="6.31568">
        <ele>1116.8</ele>
        <time>2022-08-24T12:59:36Z</time>
      </trkpt>
      <trkpt lat="44.06917" lon="6.31562">
        <ele>1117.42</ele>
        <time>2022-08-24T12:59:38Z</time>
      </trkpt>
      <trkpt lat="44.06908" lon="6.31555">
        <ele>1118.009</ele>
        <time>2022-08-24T12:59:41Z</time>
      </trkpt>
      <trkpt lat="44.06898" lon="6.31551">
        <ele>1118.676</ele>
        <time>2022-08-24T12:59:44Z</time>
      </trkpt>
      <trkpt lat="44.06888" lon="6.3155">
        <ele>1119.096</ele>
        <time>2022-08-24T12:59:47Z</time>
      </trkpt>
      <trkpt lat="44.06876" lon="6.31549">
        <ele>1120.826</ele>
        <time>2022-08-24T12:59:51Z</time>
      </trkpt>
      <trkpt lat="44.0687" lon="6.3155">
        <ele>1121.472</ele>
        <time>2022-08-24T12:59:53Z</time>
      </trkpt>
      <trkpt lat="44.06866" lon="6.31555">
        <ele>1122.095</ele>
        <time>2022-08-24T12:59:55Z</time>
      </trkpt>
      <trkpt lat="44.06864" lon="6.31563">
        <ele>1123.028</ele>
        <time>2022-08-24T12:59:57Z</time>
      </trkpt>
      <trkpt lat="44.06863" lon="6.31575">
        <ele>1124.064</ele>
        <time>2022-08-24T13:00:00Z</time>
      </trkpt>
      <trkpt lat="44.06864" lon="6.31579">
        <ele>1124.688</ele>
        <time>2022-08-24T13:00:01Z</time>
      </trkpt>
      <trkpt lat="44.0686" lon="6.31598">
        <ele>1125.841</ele>
        <time>2022-08-24T13:00:06Z</time>
      </trkpt>
      <trkpt lat="44.06853" lon="6.31611">
        <ele>1127.074</ele>
        <time>2022-08-24T13:00:10Z</time>
      </trkpt>
      <trkpt lat="44.06849" lon="6.31616">
        <ele>1127.856</ele>
        <time>2022-08-24T13:00:12Z</time>
      </trkpt>
      <trkpt lat="44.06844" lon="6.3162">
        <ele>1128.021</ele>
        <time>2022-08-24T13:00:14Z</time>
      </trkpt>
      <trkpt lat="44.06836" lon="6.31623">
        <ele>1129.009</ele>
        <time>2022-08-24T13:00:17Z</time>
      </trkpt>
      <trkpt lat="44.0683" lon="6.31623">
        <ele>1129.268</ele>
        <time>2022-08-24T13:00:19Z</time>
      </trkpt>
      <trkpt lat="44.06816" lon="6.31621">
        <ele>1130.478</ele>
        <time>2022-08-24T13:00:24Z</time>
      </trkpt>
      <trkpt lat="44.06813" lon="6.31622">
        <ele>1130.698</ele>
        <time>2022-08-24T13:00:25Z</time>
      </trkpt>
      <trkpt lat="44.06807" lon="6.31623">
        <ele>1131.684</ele>
        <time>2022-08-24T13:00:27Z</time>
      </trkpt>
      <trkpt lat="44.06801" lon="6.31626">
        <ele>1133.087</ele>
        <time>2022-08-24T13:00:29Z</time>
      </trkpt>
      <trkpt lat="44.06796" lon="6.31631">
        <ele>1133.48</ele>
        <time>2022-08-24T13:00:31Z</time>
      </trkpt>
      <trkpt lat="44.0679" lon="6.3164">
        <ele>1134.256</ele>
        <time>2022-08-24T13:00:34Z</time>
      </trkpt>
      <trkpt lat="44.06783" lon="6.31653">
        <ele>1134.67</ele>
        <time>2022-08-24T13:00:38Z</time>
      </trkpt>
      <trkpt lat="44.06774" lon="6.31663">
        <ele>1135.413</ele>
        <time>2022-08-24T13:00:42Z</time>
      </trkpt>
      <trkpt lat="44.06769" lon="6.31669">
        <ele>1135.898</ele>
        <time>2022-08-24T13:00:44Z</time>
      </trkpt>
      <trkpt lat="44.06764" lon="6.31677">
        <ele>1136.415</ele>
        <time>2022-08-24T13:00:47Z</time>
      </trkpt>
      <trkpt lat="44.06755" lon="6.31693">
        <ele>1137.626</ele>
        <time>2022-08-24T13:00:52Z</time>
      </trkpt>
      <trkpt lat="44.06743" lon="6.3171">
        <ele>1138.809</ele>
        <time>2022-08-24T13:00:58Z</time>
      </trkpt>
      <trkpt lat="44.0674" lon="6.31715">
        <ele>1140.08</ele>
        <time>2022-08-24T13:01:00Z</time>
      </trkpt>
      <trkpt lat="44.06736" lon="6.31724">
        <ele>1141.07</ele>
        <time>2022-08-24T13:01:03Z</time>
      </trkpt>
      <trkpt lat="44.06734" lon="6.31727">
        <ele>1141.24</ele>
        <time>2022-08-24T13:01:04Z</time>
      </trkpt>
      <trkpt lat="44.06732" lon="6.31734">
        <ele>1142.216</ele>
        <time>2022-08-24T13:01:06Z</time>
      </trkpt>
      <trkpt lat="44.06728" lon="6.31746">
        <ele>1143.419</ele>
        <time>2022-08-24T13:01:09Z</time>
      </trkpt>
      <trkpt lat="44.06727" lon="6.31749">
        <ele>1143.822</ele>
        <time>2022-08-24T13:01:10Z</time>
      </trkpt>
      <trkpt lat="44.06725" lon="6.31757">
        <ele>1144.698</ele>
        <time>2022-08-24T13:01:12Z</time>
      </trkpt>
      <trkpt lat="44.06721" lon="6.31769">
        <ele>1146.072</ele>
        <time>2022-08-24T13:01:15Z</time>
      </trkpt>
      <trkpt lat="44.0672" lon="6.31777">
        <ele>1147.215</ele>
        <time>2022-08-24T13:01:17Z</time>
      </trkpt>
      <trkpt lat="44.06719" lon="6.31781">
        <ele>1147.445</ele>
        <time>2022-08-24T13:01:18Z</time>
      </trkpt>
      <trkpt lat="44.06716" lon="6.31797">
        <ele>1148.247</ele>
        <time>2022-08-24T13:01:22Z</time>
      </trkpt>
      <trkpt lat="44.06712" lon="6.31807">
        <ele>1148.811</ele>
        <time>2022-08-24T13:01:25Z</time>
      </trkpt>
      <trkpt lat="44.06709" lon="6.31814">
        <ele>1149.409</ele>
        <time>2022-08-24T13:01:27Z</time>
      </trkpt>
      <trkpt lat="44.06705" lon="6.31822">
        <ele>1150.495</ele>
        <time>2022-08-24T13:01:30Z</time>
      </trkpt>
      <trkpt lat="44.06704" lon="6.31825">
        <ele>1150.675</ele>
        <time>2022-08-24T13:01:31Z</time>
      </trkpt>
      <trkpt lat="44.06699" lon="6.31833">
        <ele>1152.275</ele>
        <time>2022-08-24T13:01:34Z</time>
      </trkpt>
      <trkpt lat="44.06698" lon="6.31836">
        <ele>1152.891</ele>
        <time>2022-08-24T13:01:35Z</time>
      </trkpt>
      <trkpt lat="44.067" lon="6.31845">
        <ele>1153.444</ele>
        <time>2022-08-24T13:01:38Z</time>
      </trkpt>
      <trkpt lat="44.06703" lon="6.31852">
        <ele>1154.227</ele>
        <time>2022-08-24T13:01:40Z</time>
      </trkpt>
      <trkpt lat="44.06706" lon="6.31854">
        <ele>1154.613</ele>
        <time>2022-08-24T13:01:41Z</time>
      </trkpt>
      <trkpt lat="44.06713" lon="6.31856">
        <ele>1154.817</ele>
        <time>2022-08-24T13:01:44Z</time>
      </trkpt>
      <trkpt lat="44.06728" lon="6.31849">
        <ele>1155.63</ele>
        <time>2022-08-24T13:01:49Z</time>
      </trkpt>
      <trkpt lat="44.06737" lon="6.31845">
        <ele>1156.436</ele>
        <time>2022-08-24T13:01:52Z</time>
      </trkpt>
      <trkpt lat="44.06739" lon="6.31843">
        <ele>1156.817</ele>
        <time>2022-08-24T13:01:53Z</time>
      </trkpt>
      <trkpt lat="44.06747" lon="6.31836">
        <ele>1157.818</ele>
        <time>2022-08-24T13:01:56Z</time>
      </trkpt>
      <trkpt lat="44.06759" lon="6.31821">
        <ele>1158.809</ele>
        <time>2022-08-24T13:02:02Z</time>
      </trkpt>
      <trkpt lat="44.06761" lon="6.31819">
        <ele>1159.274</ele>
        <time>2022-08-24T13:02:03Z</time>
      </trkpt>
      <trkpt lat="44.06765" lon="6.31814">
        <ele>1159.814</ele>
        <time>2022-08-24T13:02:05Z</time>
      </trkpt>
      <trkpt lat="44.0677" lon="6.31809">
        <ele>1161.454</ele>
        <time>2022-08-24T13:02:07Z</time>
      </trkpt>
      <trkpt lat="44.0678" lon="6.31802">
        <ele>1162.48</ele>
        <time>2022-08-24T13:02:11Z</time>
      </trkpt>
      <trkpt lat="44.0679" lon="6.31801">
        <ele>1163.843</ele>
        <time>2022-08-24T13:02:15Z</time>
      </trkpt>
      <trkpt lat="44.06795" lon="6.31801">
        <ele>1164.496</ele>
        <time>2022-08-24T13:02:17Z</time>
      </trkpt>
      <trkpt lat="44.06802" lon="6.31804">
        <ele>1164.812</ele>
        <time>2022-08-24T13:02:20Z</time>
      </trkpt>
      <trkpt lat="44.06807" lon="6.31806">
        <ele>1166.096</ele>
        <time>2022-08-24T13:02:22Z</time>
      </trkpt>
      <trkpt lat="44.0681" lon="6.31807">
        <ele>1166.479</ele>
        <time>2022-08-24T13:02:23Z</time>
      </trkpt>
      <trkpt lat="44.06815" lon="6.3181">
        <ele>1167.079</ele>
        <time>2022-08-24T13:02:25Z</time>
      </trkpt>
      <trkpt lat="44.06826" lon="6.31816">
        <ele>1168.005</ele>
        <time>2022-08-24T13:02:29Z</time>
      </trkpt>
      <trkpt lat="44.06831" lon="6.3182">
        <ele>1168.425</ele>
        <time>2022-08-24T13:02:31Z</time>
      </trkpt>
      <trkpt lat="44.06842" lon="6.31826">
        <ele>1169.209</ele>
        <time>2022-08-24T13:02:35Z</time>
      </trkpt>
      <trkpt lat="44.06844" lon="6.31828">
        <ele>1169.488</ele>
        <time>2022-08-24T13:02:36Z</time>
      </trkpt>
      <trkpt lat="44.06853" lon="6.31831">
        <ele>1170.698</ele>
        <time>2022-08-24T13:02:39Z</time>
      </trkpt>
      <trkpt lat="44.06865" lon="6.31832">
        <ele>1171.878</ele>
        <time>2022-08-24T13:02:43Z</time>
      </trkpt>
      <trkpt lat="44.06874" lon="6.31828">
        <ele>1172.854</ele>
        <time>2022-08-24T13:02:46Z</time>
      </trkpt>
      <trkpt lat="44.06886" lon="6.31824">
        <ele>1173.857</ele>
        <time>2022-08-24T13:02:50Z</time>
      </trkpt>
      <trkpt lat="44.06904" lon="6.31818">
        <ele>1174.68</ele>
        <time>2022-08-24T13:02:56Z</time>
      </trkpt>
      <trkpt lat="44.0691" lon="6.31818">
        <ele>1174.876</ele>
        <time>2022-08-24T13:02:58Z</time>
      </trkpt>
      <trkpt lat="44.06919" lon="6.31818">
        <ele>1176.64</ele>
        <time>2022-08-24T13:03:02Z</time>
      </trkpt>
      <trkpt lat="44.06927" lon="6.31824">
        <ele>1177.673</ele>
        <time>2022-08-24T13:03:05Z</time>
      </trkpt>
      <trkpt lat="44.06934" lon="6.31831">
        <ele>1178.221</ele>
        <time>2022-08-24T13:03:08Z</time>
      </trkpt>
      <trkpt lat="44.06941" lon="6.31838">
        <ele>1179.041</ele>
        <time>2022-08-24T13:03:11Z</time>
      </trkpt>
      <trkpt lat="44.06949" lon="6.3185">
        <ele>1180.005</ele>
        <time>2022-08-24T13:03:15Z</time>
      </trkpt>
      <trkpt lat="44.06954" lon="6.3186">
        <ele>1181.209</ele>
        <time>2022-08-24T13:03:18Z</time>
      </trkpt>
      <trkpt lat="44.0696" lon="6.31873">
        <ele>1182.493</ele>
        <time>2022-08-24T13:03:22Z</time>
      </trkpt>
      <trkpt lat="44.06962" lon="6.31876">
        <ele>1182.613</ele>
        <time>2022-08-24T13:03:23Z</time>
      </trkpt>
      <trkpt lat="44.06965" lon="6.31886">
        <ele>1183.863</ele>
        <time>2022-08-24T13:03:26Z</time>
      </trkpt>
      <trkpt lat="44.06967" lon="6.31897">
        <ele>1184.699</ele>
        <time>2022-08-24T13:03:29Z</time>
      </trkpt>
      <trkpt lat="44.06968" lon="6.319">
        <ele>1185.082</ele>
        <time>2022-08-24T13:03:30Z</time>
      </trkpt>
      <trkpt lat="44.0697" lon="6.31908">
        <ele>1186.035</ele>
        <time>2022-08-24T13:03:32Z</time>
      </trkpt>
      <trkpt lat="44.06971" lon="6.3192">
        <ele>1187.021</ele>
        <time>2022-08-24T13:03:35Z</time>
      </trkpt>
      <trkpt lat="44.06971" lon="6.31925">
        <ele>1187.255</ele>
        <time>2022-08-24T13:03:36Z</time>
      </trkpt>
      <trkpt lat="44.06978" lon="6.31941">
        <ele>1187.688</ele>
        <time>2022-08-24T13:03:41Z</time>
      </trkpt>
      <trkpt lat="44.06983" lon="6.31946">
        <ele>1188.237</ele>
        <time>2022-08-24T13:03:43Z</time>
      </trkpt>
      <trkpt lat="44.06989" lon="6.31955">
        <ele>1189.249</ele>
        <time>2022-08-24T13:03:46Z</time>
      </trkpt>
      <trkpt lat="44.06991" lon="6.31962">
        <ele>1190.413</ele>
        <time>2022-08-24T13:03:48Z</time>
      </trkpt>
      <trkpt lat="44.06992" lon="6.31975">
        <ele>1191.609</ele>
        <time>2022-08-24T13:03:51Z</time>
      </trkpt>
      <trkpt lat="44.06993" lon="6.31985">
        <ele>1192.654</ele>
        <time>2022-08-24T13:03:54Z</time>
      </trkpt>
      <trkpt lat="44.06996" lon="6.31995">
        <ele>1193.414</ele>
        <time>2022-08-24T13:03:57Z</time>
      </trkpt>
      <trkpt lat="44.06999" lon="6.32">
        <ele>1193.884</ele>
        <time>2022-08-24T13:03:59Z</time>
      </trkpt>
      <trkpt lat="44.07006" lon="6.32008">
        <ele>1194.87</ele>
        <time>2022-08-24T13:04:02Z</time>
      </trkpt>
      <trkpt lat="44.07009" lon="6.3201">
        <ele>1195.253</ele>
        <time>2022-08-24T13:04:03Z</time>
      </trkpt>
      <trkpt lat="44.07014" lon="6.32014">
        <ele>1196.046</ele>
        <time>2022-08-24T13:04:05Z</time>
      </trkpt>
      <trkpt lat="44.07022" lon="6.32021">
        <ele>1197.452</ele>
        <time>2022-08-24T13:04:08Z</time>
      </trkpt>
      <trkpt lat="44.07027" lon="6.32026">
        <ele>1198.266</ele>
        <time>2022-08-24T13:04:10Z</time>
      </trkpt>
      <trkpt lat="44.07031" lon="6.32033">
        <ele>1198.639</ele>
        <time>2022-08-24T13:04:12Z</time>
      </trkpt>
      <trkpt lat="44.07034" lon="6.32044">
        <ele>1199.242</ele>
        <time>2022-08-24T13:04:15Z</time>
      </trkpt>
      <trkpt lat="44.07038" lon="6.3206">
        <ele>1199.822</ele>
        <time>2022-08-24T13:04:19Z</time>
      </trkpt>
      <trkpt lat="44.07042" lon="6.32072">
        <ele>1201.014</ele>
        <time>2022-08-24T13:04:22Z</time>
      </trkpt>
      <trkpt lat="44.07043" lon="6.32075">
        <ele>1201.409</ele>
        <time>2022-08-24T13:04:23Z</time>
      </trkpt>
      <trkpt lat="44.07047" lon="6.32086">
        <ele>1202.245</ele>
        <time>2022-08-24T13:04:26Z</time>
      </trkpt>
      <trkpt lat="44.07051" lon="6.32097">
        <ele>1203.455</ele>
        <time>2022-08-24T13:04:29Z</time>
      </trkpt>
      <trkpt lat="44.07055" lon="6.32107">
        <ele>1204.255</ele>
        <time>2022-08-24T13:04:32Z</time>
      </trkpt>
      <trkpt lat="44.07056" lon="6.32114">
        <ele>1204.661</ele>
        <time>2022-08-24T13:04:34Z</time>
      </trkpt>
      <trkpt lat="44.07058" lon="6.32128">
        <ele>1205.854</ele>
        <time>2022-08-24T13:04:38Z</time>
      </trkpt>
      <trkpt lat="44.07058" lon="6.32135">
        <ele>1206.687</ele>
        <time>2022-08-24T13:04:40Z</time>
      </trkpt>
      <trkpt lat="44.07058" lon="6.32139">
        <ele>1207.263</ele>
        <time>2022-08-24T13:04:41Z</time>
      </trkpt>
      <trkpt lat="44.07058" lon="6.32159">
        <ele>1208.437</ele>
        <time>2022-08-24T13:04:47Z</time>
      </trkpt>
      <trkpt lat="44.07058" lon="6.3217">
        <ele>1209.83</ele>
        <time>2022-08-24T13:04:50Z</time>
      </trkpt>
      <trkpt lat="44.07059" lon="6.32185">
        <ele>1210.678</ele>
        <time>2022-08-24T13:04:54Z</time>
      </trkpt>
      <trkpt lat="44.0706" lon="6.32188">
        <ele>1210.833</ele>
        <time>2022-08-24T13:04:55Z</time>
      </trkpt>
      <trkpt lat="44.07063" lon="6.32193">
        <ele>1211.826</ele>
        <time>2022-08-24T13:04:57Z</time>
      </trkpt>
      <trkpt lat="44.0707" lon="6.322">
        <ele>1212.209</ele>
        <time>2022-08-24T13:05:00Z</time>
      </trkpt>
      <trkpt lat="44.07076" lon="6.32207">
        <ele>1213.038</ele>
        <time>2022-08-24T13:05:03Z</time>
      </trkpt>
      <trkpt lat="44.07084" lon="6.32215">
        <ele>1214.228</ele>
        <time>2022-08-24T13:05:06Z</time>
      </trkpt>
      <trkpt lat="44.07085" lon="6.32218">
        <ele>1214.668</ele>
        <time>2022-08-24T13:05:07Z</time>
      </trkpt>
      <trkpt lat="44.07087" lon="6.32221">
        <ele>1215.034</ele>
        <time>2022-08-24T13:05:08Z</time>
      </trkpt>
      <trkpt lat="44.07088" lon="6.32225">
        <ele>1215.297</ele>
        <time>2022-08-24T13:05:09Z</time>
      </trkpt>
      <trkpt lat="44.07085" lon="6.32229">
        <ele>1215.85</ele>
        <time>2022-08-24T13:05:11Z</time>
      </trkpt>
      <trkpt lat="44.07078" lon="6.32225">
        <ele>1216.626</ele>
        <time>2022-08-24T13:05:14Z</time>
      </trkpt>
      <trkpt lat="44.07076" lon="6.32223">
        <ele>1216.88</ele>
        <time>2022-08-24T13:05:15Z</time>
      </trkpt>
      <trkpt lat="44.0707" lon="6.32219">
        <ele>1217.873</ele>
        <time>2022-08-24T13:05:18Z</time>
      </trkpt>
      <trkpt lat="44.07063" lon="6.32217">
        <ele>1219.067</ele>
        <time>2022-08-24T13:05:21Z</time>
      </trkpt>
      <trkpt lat="44.07055" lon="6.3222">
        <ele>1220.081</ele>
        <time>2022-08-24T13:05:24Z</time>
      </trkpt>
      <trkpt lat="44.07046" lon="6.32226">
        <ele>1221.219</ele>
        <time>2022-08-24T13:05:28Z</time>
      </trkpt>
      <trkpt lat="44.07033" lon="6.32231">
        <ele>1222.209</ele>
        <time>2022-08-24T13:05:33Z</time>
      </trkpt>
      <trkpt lat="44.07025" lon="6.32234">
        <ele>1223.267</ele>
        <time>2022-08-24T13:05:36Z</time>
      </trkpt>
      <trkpt lat="44.07023" lon="6.32235">
        <ele>1223.447</ele>
        <time>2022-08-24T13:05:37Z</time>
      </trkpt>
      <trkpt lat="44.07017" lon="6.32238">
        <ele>1224.637</ele>
        <time>2022-08-24T13:05:39Z</time>
      </trkpt>
      <trkpt lat="44.07004" lon="6.32243">
        <ele>1225.813</ele>
        <time>2022-08-24T13:05:44Z</time>
      </trkpt>
      <trkpt lat="44.06993" lon="6.32249">
        <ele>1227.026</ele>
        <time>2022-08-24T13:05:48Z</time>
      </trkpt>
      <trkpt lat="44.06988" lon="6.32252">
        <ele>1227.629</ele>
        <time>2022-08-24T13:05:50Z</time>
      </trkpt>
      <trkpt lat="44.0698" lon="6.32258">
        <ele>1228.015</ele>
        <time>2022-08-24T13:05:53Z</time>
      </trkpt>
      <trkpt lat="44.06972" lon="6.32262">
        <ele>1228.899</ele>
        <time>2022-08-24T13:05:57Z</time>
      </trkpt>
      <trkpt lat="44.06967" lon="6.32264">
        <ele>1229.442</ele>
        <time>2022-08-24T13:05:58Z</time>
      </trkpt>
      <trkpt lat="44.06962" lon="6.32264">
        <ele>1230.835</ele>
        <time>2022-08-24T13:06:00Z</time>
      </trkpt>
      <trkpt lat="44.06958" lon="6.32263">
        <ele>1231.286</ele>
        <time>2022-08-24T13:06:02Z</time>
      </trkpt>
      <trkpt lat="44.0695" lon="6.32261">
        <ele>1232.014</ele>
        <time>2022-08-24T13:06:05Z</time>
      </trkpt>
      <trkpt lat="44.06948" lon="6.3226">
        <ele>1232.209</ele>
        <time>2022-08-24T13:06:06Z</time>
      </trkpt>
      <trkpt lat="44.06943" lon="6.32257">
        <ele>1232.814</ele>
        <time>2022-08-24T13:06:08Z</time>
      </trkpt>
      <trkpt lat="44.06941" lon="6.32255">
        <ele>1233.064</ele>
        <time>2022-08-24T13:06:09Z</time>
      </trkpt>
      <trkpt lat="44.06933" lon="6.32251">
        <ele>1234.034</ele>
        <time>2022-08-24T13:06:12Z</time>
      </trkpt>
      <trkpt lat="44.06925" lon="6.32247">
        <ele>1235.01</ele>
        <time>2022-08-24T13:06:15Z</time>
      </trkpt>
      <trkpt lat="44.06923" lon="6.32245">
        <ele>1235.463</ele>
        <time>2022-08-24T13:06:16Z</time>
      </trkpt>
      <trkpt lat="44.06913" lon="6.32238">
        <ele>1236.866</ele>
        <time>2022-08-24T13:06:20Z</time>
      </trkpt>
      <trkpt lat="44.06908" lon="6.32234">
        <ele>1237.242</ele>
        <time>2022-08-24T13:06:22Z</time>
      </trkpt>
      <trkpt lat="44.06903" lon="6.32231">
        <ele>1238.056</ele>
        <time>2022-08-24T13:06:24Z</time>
      </trkpt>
      <trkpt lat="44.06893" lon="6.32224">
        <ele>1239.249</ele>
        <time>2022-08-24T13:06:28Z</time>
      </trkpt>
      <trkpt lat="44.06891" lon="6.32222">
        <ele>1239.485</ele>
        <time>2022-08-24T13:06:29Z</time>
      </trkpt>
      <trkpt lat="44.06883" lon="6.32213">
        <ele>1240.489</ele>
        <time>2022-08-24T13:06:32Z</time>
      </trkpt>
      <trkpt lat="44.06878" lon="6.32204">
        <ele>1240.817</ele>
        <time>2022-08-24T13:06:35Z</time>
      </trkpt>
      <trkpt lat="44.06873" lon="6.32199">
        <ele>1241.409</ele>
        <time>2022-08-24T13:06:37Z</time>
      </trkpt>
      <trkpt lat="44.06866" lon="6.322">
        <ele>1241.829</ele>
        <time>2022-08-24T13:06:39Z</time>
      </trkpt>
      <trkpt lat="44.06864" lon="6.32201">
        <ele>1241.839</ele>
        <time>2022-08-24T13:06:40Z</time>
      </trkpt>
      <trkpt lat="44.06858" lon="6.32209">
        <ele>1243.029</ele>
        <time>2022-08-24T13:06:43Z</time>
      </trkpt>
      <trkpt lat="44.06855" lon="6.32216">
        <ele>1243.875</ele>
        <time>2022-08-24T13:06:45Z</time>
      </trkpt>
      <trkpt lat="44.06853" lon="6.3222">
        <ele>1244.098</ele>
        <time>2022-08-24T13:06:46Z</time>
      </trkpt>
      <trkpt lat="44.0685" lon="6.32223">
        <ele>1244.281</ele>
        <time>2022-08-24T13:06:47Z</time>
      </trkpt>
      <trkpt lat="44.06842" lon="6.32236">
        <ele>1245.217</ele>
        <time>2022-08-24T13:06:51Z</time>
      </trkpt>
      <trkpt lat="44.06839" lon="6.32239">
        <ele>1245.461</ele>
        <time>2022-08-24T13:06:52Z</time>
      </trkpt>
      <trkpt lat="44.06835" lon="6.32244">
        <ele>1246.494</ele>
        <time>2022-08-24T13:06:54Z</time>
      </trkpt>
      <trkpt lat="44.06825" lon="6.32253">
        <ele>1247.053</ele>
        <time>2022-08-24T13:06:58Z</time>
      </trkpt>
      <trkpt lat="44.06821" lon="6.32258">
        <ele>1247.604</ele>
        <time>2022-08-24T13:07:00Z</time>
      </trkpt>
      <trkpt lat="44.06816" lon="6.32267">
        <ele>1248.614</ele>
        <time>2022-08-24T13:07:03Z</time>
      </trkpt>
      <trkpt lat="44.06814" lon="6.32275">
        <ele>1249.409</ele>
        <time>2022-08-24T13:07:05Z</time>
      </trkpt>
      <trkpt lat="44.06813" lon="6.32279">
        <ele>1249.816</ele>
        <time>2022-08-24T13:07:06Z</time>
      </trkpt>
      <trkpt lat="44.06808" lon="6.32298">
        <ele>1251.056</ele>
        <time>2022-08-24T13:07:11Z</time>
      </trkpt>
      <trkpt lat="44.06808" lon="6.32303">
        <ele>1251.626</ele>
        <time>2022-08-24T13:07:12Z</time>
      </trkpt>
      <trkpt lat="44.06807" lon="6.32311">
        <ele>1252.292</ele>
        <time>2022-08-24T13:07:14Z</time>
      </trkpt>
      <trkpt lat="44.06807" lon="6.32333">
        <ele>1253.485</ele>
        <time>2022-08-24T13:07:19Z</time>
      </trkpt>
      <trkpt lat="44.06807" lon="6.32341">
        <ele>1254.078</ele>
        <time>2022-08-24T13:07:21Z</time>
      </trkpt>
      <trkpt lat="44.06807" lon="6.3235">
        <ele>1254.884</ele>
        <time>2022-08-24T13:07:23Z</time>
      </trkpt>
      <trkpt lat="44.06807" lon="6.32367">
        <ele>1255.438</ele>
        <time>2022-08-24T13:07:27Z</time>
      </trkpt>
      <trkpt lat="44.06807" lon="6.32375">
        <ele>1255.881</ele>
        <time>2022-08-24T13:07:29Z</time>
      </trkpt>
      <trkpt lat="44.06807" lon="6.32389">
        <ele>1256.892</ele>
        <time>2022-08-24T13:07:33Z</time>
      </trkpt>
      <trkpt lat="44.06807" lon="6.32392">
        <ele>1257.273</ele>
        <time>2022-08-24T13:07:34Z</time>
      </trkpt>
      <trkpt lat="44.06807" lon="6.32405">
        <ele>1258.02</ele>
        <time>2022-08-24T13:07:38Z</time>
      </trkpt>
      <trkpt lat="44.06806" lon="6.32411">
        <ele>1258.209</ele>
        <time>2022-08-24T13:07:40Z</time>
      </trkpt>
      <trkpt lat="44.06804" lon="6.3242">
        <ele>1259.68</ele>
        <time>2022-08-24T13:07:43Z</time>
      </trkpt>
      <trkpt lat="44.06799" lon="6.32431">
        <ele>1260.64</ele>
        <time>2022-08-24T13:07:47Z</time>
      </trkpt>
      <trkpt lat="44.06794" lon="6.32443">
        <ele>1262.05</ele>
        <time>2022-08-24T13:07:52Z</time>
      </trkpt>
      <trkpt lat="44.06793" lon="6.32446">
        <ele>1262.496</ele>
        <time>2022-08-24T13:07:53Z</time>
      </trkpt>
      <trkpt lat="44.06793" lon="6.32452">
        <ele>1263.439</ele>
        <time>2022-08-24T13:07:55Z</time>
      </trkpt>
      <trkpt lat="44.06797" lon="6.32461">
        <ele>1264.242</ele>
        <time>2022-08-24T13:07:59Z</time>
      </trkpt>
      <trkpt lat="44.06799" lon="6.32463">
        <ele>1264.228</ele>
        <time>2022-08-24T13:08:00Z</time>
      </trkpt>
      <trkpt lat="44.06801" lon="6.32464">
        <ele>1264.492</ele>
        <time>2022-08-24T13:08:01Z</time>
      </trkpt>
      <trkpt lat="44.06812" lon="6.32467">
        <ele>1265.885</ele>
        <time>2022-08-24T13:08:05Z</time>
      </trkpt>
      <trkpt lat="44.06815" lon="6.32467">
        <ele>1266.235</ele>
        <time>2022-08-24T13:08:06Z</time>
      </trkpt>
      <trkpt lat="44.06821" lon="6.32466">
        <ele>1267.086</ele>
        <time>2022-08-24T13:08:08Z</time>
      </trkpt>
      <trkpt lat="44.06829" lon="6.32466">
        <ele>1268.014</ele>
        <time>2022-08-24T13:08:11Z</time>
      </trkpt>
      <trkpt lat="44.06831" lon="6.32466">
        <ele>1268.209</ele>
        <time>2022-08-24T13:08:12Z</time>
      </trkpt>
      <trkpt lat="44.06848" lon="6.32468">
        <ele>1269.284</ele>
        <time>2022-08-24T13:08:18Z</time>
      </trkpt>
      <trkpt lat="44.06856" lon="6.32472">
        <ele>1270.294</ele>
        <time>2022-08-24T13:08:21Z</time>
      </trkpt>
      <trkpt lat="44.06862" lon="6.32478">
        <ele>1271.044</ele>
        <time>2022-08-24T13:08:24Z</time>
      </trkpt>
      <trkpt lat="44.06866" lon="6.32485">
        <ele>1271.69</ele>
        <time>2022-08-24T13:08:26Z</time>
      </trkpt>
      <trkpt lat="44.06874" lon="6.32498">
        <ele>1272.893</ele>
        <time>2022-08-24T13:08:30Z</time>
      </trkpt>
      <trkpt lat="44.06876" lon="6.32501">
        <ele>1272.876</ele>
        <time>2022-08-24T13:08:31Z</time>
      </trkpt>
      <trkpt lat="44.06887" lon="6.32513">
        <ele>1273.822</ele>
        <time>2022-08-24T13:08:36Z</time>
      </trkpt>
      <trkpt lat="44.06889" lon="6.32515">
        <ele>1274.456</ele>
        <time>2022-08-24T13:08:37Z</time>
      </trkpt>
      <trkpt lat="44.06892" lon="6.32517">
        <ele>1274.839</ele>
        <time>2022-08-24T13:08:38Z</time>
      </trkpt>
      <trkpt lat="44.06902" lon="6.3252">
        <ele>1276.047</ele>
        <time>2022-08-24T13:08:42Z</time>
      </trkpt>
      <trkpt lat="44.06904" lon="6.32521">
        <ele>1276.229</ele>
        <time>2022-08-24T13:08:43Z</time>
      </trkpt>
      <trkpt lat="44.06913" lon="6.32522">
        <ele>1277.421</ele>
        <time>2022-08-24T13:08:46Z</time>
      </trkpt>
      <trkpt lat="44.06922" lon="6.32519">
        <ele>1278.609</ele>
        <time>2022-08-24T13:08:49Z</time>
      </trkpt>
      <trkpt lat="44.06926" lon="6.32519">
        <ele>1278.815</ele>
        <time>2022-08-24T13:08:50Z</time>
      </trkpt>
      <trkpt lat="44.06938" lon="6.32518">
        <ele>1279.685</ele>
        <time>2022-08-24T13:08:54Z</time>
      </trkpt>
      <trkpt lat="44.06947" lon="6.32518">
        <ele>1280.635</ele>
        <time>2022-08-24T13:08:57Z</time>
      </trkpt>
      <trkpt lat="44.06953" lon="6.32518">
        <ele>1281.851</ele>
        <time>2022-08-24T13:08:59Z</time>
      </trkpt>
      <trkpt lat="44.06964" lon="6.32522">
        <ele>1283.464</ele>
        <time>2022-08-24T13:09:03Z</time>
      </trkpt>
      <trkpt lat="44.06974" lon="6.32539">
        <ele>1284.247</ele>
        <time>2022-08-24T13:09:08Z</time>
      </trkpt>
      <trkpt lat="44.06975" lon="6.32543">
        <ele>1284.443</ele>
        <time>2022-08-24T13:09:09Z</time>
      </trkpt>
      <trkpt lat="44.06979" lon="6.32564">
        <ele>1285.877</ele>
        <time>2022-08-24T13:09:14Z</time>
      </trkpt>
      <trkpt lat="44.0698" lon="6.32573">
        <ele>1286.62</ele>
        <time>2022-08-24T13:09:16Z</time>
      </trkpt>
      <trkpt lat="44.06981" lon="6.32577">
        <ele>1286.825</ele>
        <time>2022-08-24T13:09:17Z</time>
      </trkpt>
      <trkpt lat="44.06984" lon="6.32602">
        <ele>1287.826</ele>
        <time>2022-08-24T13:09:23Z</time>
      </trkpt>
      <trkpt lat="44.06985" lon="6.32607">
        <ele>1288.408</ele>
        <time>2022-08-24T13:09:24Z</time>
      </trkpt>
      <trkpt lat="44.06987" lon="6.32615">
        <ele>1289.609</ele>
        <time>2022-08-24T13:09:26Z</time>
      </trkpt>
      <trkpt lat="44.06993" lon="6.32632">
        <ele>1290.813</ele>
        <time>2022-08-24T13:09:30Z</time>
      </trkpt>
      <trkpt lat="44.06994" lon="6.32635">
        <ele>1291.253</ele>
        <time>2022-08-24T13:09:31Z</time>
      </trkpt>
      <trkpt lat="44.07001" lon="6.32645">
        <ele>1291.623</ele>
        <time>2022-08-24T13:09:34Z</time>
      </trkpt>
      <trkpt lat="44.07006" lon="6.32652">
        <ele>1292.099</ele>
        <time>2022-08-24T13:09:36Z</time>
      </trkpt>
      <trkpt lat="44.07011" lon="6.32658">
        <ele>1292.232</ele>
        <time>2022-08-24T13:09:38Z</time>
      </trkpt>
      <trkpt lat="44.07021" lon="6.32665">
        <ele>1292.815</ele>
        <time>2022-08-24T13:09:41Z</time>
      </trkpt>
      <trkpt lat="44.07024" lon="6.32665">
        <ele>1293.021</ele>
        <time>2022-08-24T13:09:42Z</time>
      </trkpt>
      <trkpt lat="44.07039" lon="6.32665">
        <ele>1293.265</ele>
        <time>2022-08-24T13:09:46Z</time>
      </trkpt>
      <trkpt lat="44.07051" lon="6.32665">
        <ele>1294.078</ele>
        <time>2022-08-24T13:09:49Z</time>
      </trkpt>
      <trkpt lat="44.07064" lon="6.32666">
        <ele>1295.014</ele>
        <time>2022-08-24T13:09:52Z</time>
      </trkpt>
      <trkpt lat="44.07068" lon="6.32665">
        <ele>1295.454</ele>
        <time>2022-08-24T13:09:53Z</time>
      </trkpt>
      <trkpt lat="44.07086" lon="6.32663">
        <ele>1296.009</ele>
        <time>2022-08-24T13:09:57Z</time>
      </trkpt>
      <trkpt lat="44.07091" lon="6.32663">
        <ele>1296.409</ele>
        <time>2022-08-24T13:09:58Z</time>
      </trkpt>
      <trkpt lat="44.07095" lon="6.32665">
        <ele>1296.472</ele>
        <time>2022-08-24T13:09:59Z</time>
      </trkpt>
      <trkpt lat="44.07109" lon="6.32672">
        <ele>1296.872</ele>
        <time>2022-08-24T13:10:02Z</time>
      </trkpt>
      <trkpt lat="44.07112" lon="6.32675">
        <ele>1297.062</ele>
        <time>2022-08-24T13:10:03Z</time>
      </trkpt>
      <trkpt lat="44.07124" lon="6.32689">
        <ele>1297.028</ele>
        <time>2022-08-24T13:10:07Z</time>
      </trkpt>
      <trkpt lat="44.07129" lon="6.32696">
        <ele>1298.271</ele>
        <time>2022-08-24T13:10:09Z</time>
      </trkpt>
      <trkpt lat="44.07144" lon="6.32714">
        <ele>1298.884</ele>
        <time>2022-08-24T13:10:15Z</time>
      </trkpt>
      <trkpt lat="44.07154" lon="6.32724">
        <ele>1299.61</ele>
        <time>2022-08-24T13:10:19Z</time>
      </trkpt>
      <trkpt lat="44.07158" lon="6.32726">
        <ele>1300.284</ele>
        <time>2022-08-24T13:10:20Z</time>
      </trkpt>
      <trkpt lat="44.0716" lon="6.32729">
        <ele>1300.497</ele>
        <time>2022-08-24T13:10:21Z</time>
      </trkpt>
      <trkpt lat="44.07163" lon="6.32732">
        <ele>1301.039</ele>
        <time>2022-08-24T13:10:22Z</time>
      </trkpt>
      <trkpt lat="44.07174" lon="6.32743">
        <ele>1302.201</ele>
        <time>2022-08-24T13:10:26Z</time>
      </trkpt>
      <trkpt lat="44.07178" lon="6.32748">
        <ele>1302.421</ele>
        <time>2022-08-24T13:10:28Z</time>
      </trkpt>
      <trkpt lat="44.07183" lon="6.32751">
        <ele>1303.209</ele>
        <time>2022-08-24T13:10:30Z</time>
      </trkpt>
      <trkpt lat="44.07185" lon="6.32753">
        <ele>1303.824</ele>
        <time>2022-08-24T13:10:31Z</time>
      </trkpt>
      <trkpt lat="44.07191" lon="6.32757">
        <ele>1304.654</ele>
        <time>2022-08-24T13:10:33Z</time>
      </trkpt>
      <trkpt lat="44.07196" lon="6.3276">
        <ele>1305.044</ele>
        <time>2022-08-24T13:10:35Z</time>
      </trkpt>
      <trkpt lat="44.07201" lon="6.32764">
        <ele>1306.08</ele>
        <time>2022-08-24T13:10:37Z</time>
      </trkpt>
      <trkpt lat="44.07208" lon="6.32772">
        <ele>1307.063</ele>
        <time>2022-08-24T13:10:40Z</time>
      </trkpt>
      <trkpt lat="44.0721" lon="6.32776">
        <ele>1307.216</ele>
        <time>2022-08-24T13:10:41Z</time>
      </trkpt>
      <trkpt lat="44.07214" lon="6.32784">
        <ele>1308.422</ele>
        <time>2022-08-24T13:10:43Z</time>
      </trkpt>
      <trkpt lat="44.0722" lon="6.32794">
        <ele>1309.076</ele>
        <time>2022-08-24T13:10:46Z</time>
      </trkpt>
      <trkpt lat="44.07229" lon="6.328">
        <ele>1310.089</ele>
        <time>2022-08-24T13:10:49Z</time>
      </trkpt>
      <trkpt lat="44.07235" lon="6.32802">
        <ele>1311.041</ele>
        <time>2022-08-24T13:10:51Z</time>
      </trkpt>
      <trkpt lat="44.07238" lon="6.32803">
        <ele>1311.281</ele>
        <time>2022-08-24T13:10:52Z</time>
      </trkpt>
      <trkpt lat="44.0725" lon="6.32813">
        <ele>1312.609</ele>
        <time>2022-08-24T13:10:56Z</time>
      </trkpt>
      <trkpt lat="44.07252" lon="6.32816">
        <ele>1312.809</ele>
        <time>2022-08-24T13:10:57Z</time>
      </trkpt>
      <trkpt lat="44.07263" lon="6.32829">
        <ele>1313.895</ele>
        <time>2022-08-24T13:11:01Z</time>
      </trkpt>
      <trkpt lat="44.07273" lon="6.32836">
        <ele>1314.415</ele>
        <time>2022-08-24T13:11:04Z</time>
      </trkpt>
      <trkpt lat="44.0728" lon="6.32839">
        <ele>1315.255</ele>
        <time>2022-08-24T13:11:06Z</time>
      </trkpt>
      <trkpt lat="44.0729" lon="6.32839">
        <ele>1315.651</ele>
        <time>2022-08-24T13:11:08Z</time>
      </trkpt>
      <trkpt lat="44.07298" lon="6.32839">
        <ele>1316.294</ele>
        <time>2022-08-24T13:11:10Z</time>
      </trkpt>
      <trkpt lat="44.07302" lon="6.32839">
        <ele>1316.467</ele>
        <time>2022-08-24T13:11:11Z</time>
      </trkpt>
      <trkpt lat="44.07311" lon="6.32841">
        <ele>1316.823</ele>
        <time>2022-08-24T13:11:13Z</time>
      </trkpt>
      <trkpt lat="44.07319" lon="6.32845">
        <ele>1317.437</ele>
        <time>2022-08-24T13:11:15Z</time>
      </trkpt>
      <trkpt lat="44.07338" lon="6.3286">
        <ele>1318.27</ele>
        <time>2022-08-24T13:11:20Z</time>
      </trkpt>
      <trkpt lat="44.07341" lon="6.32863">
        <ele>1318.683</ele>
        <time>2022-08-24T13:11:21Z</time>
      </trkpt>
      <trkpt lat="44.07348" lon="6.32868">
        <ele>1319.825</ele>
        <time>2022-08-24T13:11:23Z</time>
      </trkpt>
      <trkpt lat="44.07359" lon="6.32875">
        <ele>1320.417</ele>
        <time>2022-08-24T13:11:26Z</time>
      </trkpt>
      <trkpt lat="44.07365" lon="6.32879">
        <ele>1321.009</ele>
        <time>2022-08-24T13:11:28Z</time>
      </trkpt>
      <trkpt lat="44.07371" lon="6.32889">
        <ele>1322.059</ele>
        <time>2022-08-24T13:11:31Z</time>
      </trkpt>
      <trkpt lat="44.07372" lon="6.32892">
        <ele>1322.219</ele>
        <time>2022-08-24T13:11:32Z</time>
      </trkpt>
      <trkpt lat="44.07374" lon="6.32908">
        <ele>1323.289</ele>
        <time>2022-08-24T13:11:36Z</time>
      </trkpt>
      <trkpt lat="44.07375" lon="6.32912">
        <ele>1323.635</ele>
        <time>2022-08-24T13:11:37Z</time>
      </trkpt>
      <trkpt lat="44.07381" lon="6.32922">
        <ele>1324.818</ele>
        <time>2022-08-24T13:11:40Z</time>
      </trkpt>
      <trkpt lat="44.07386" lon="6.32928">
        <ele>1326.251</ele>
        <time>2022-08-24T13:11:42Z</time>
      </trkpt>
      <trkpt lat="44.07398" lon="6.32935">
        <ele>1327.287</ele>
        <time>2022-08-24T13:11:46Z</time>
      </trkpt>
      <trkpt lat="44.07409" lon="6.32941">
        <ele>1328.251</ele>
        <time>2022-08-24T13:11:50Z</time>
      </trkpt>
      <trkpt lat="44.07418" lon="6.32946">
        <ele>1329.414</ele>
        <time>2022-08-24T13:11:53Z</time>
      </trkpt>
      <trkpt lat="44.0743" lon="6.32965">
        <ele>1330.882</ele>
        <time>2022-08-24T13:11:59Z</time>
      </trkpt>
      <trkpt lat="44.07434" lon="6.32975">
        <ele>1331.843</ele>
        <time>2022-08-24T13:12:02Z</time>
      </trkpt>
      <trkpt lat="44.07438" lon="6.32982">
        <ele>1332.817</ele>
        <time>2022-08-24T13:12:04Z</time>
      </trkpt>
      <trkpt lat="44.07444" lon="6.32992">
        <ele>1334.209</ele>
        <time>2022-08-24T13:12:07Z</time>
      </trkpt>
      <trkpt lat="44.07455" lon="6.33006">
        <ele>1335.219</ele>
        <time>2022-08-24T13:12:12Z</time>
      </trkpt>
      <trkpt lat="44.07463" lon="6.33013">
        <ele>1335.679</ele>
        <time>2022-08-24T13:12:15Z</time>
      </trkpt>
      <trkpt lat="44.07468" lon="6.33019">
        <ele>1336.419</ele>
        <time>2022-08-24T13:12:17Z</time>
      </trkpt>
      <trkpt lat="44.07474" lon="6.33031">
        <ele>1337.445</ele>
        <time>2022-08-24T13:12:21Z</time>
      </trkpt>
      <trkpt lat="44.07477" lon="6.33034">
        <ele>1338.028</ele>
        <time>2022-08-24T13:12:22Z</time>
      </trkpt>
      <trkpt lat="44.07481" lon="6.3304">
        <ele>1338.661</ele>
        <time>2022-08-24T13:12:24Z</time>
      </trkpt>
      <trkpt lat="44.07489" lon="6.33052">
        <ele>1340.097</ele>
        <time>2022-08-24T13:12:28Z</time>
      </trkpt>
      <trkpt lat="44.07496" lon="6.33061">
        <ele>1341.261</ele>
        <time>2022-08-24T13:12:31Z</time>
      </trkpt>
      <trkpt lat="44.07499" lon="6.33067">
        <ele>1342.234</ele>
        <time>2022-08-24T13:12:33Z</time>
      </trkpt>
      <trkpt lat="44.07502" lon="6.33069">
        <ele>1342.464</ele>
        <time>2022-08-24T13:12:34Z</time>
      </trkpt>
      <trkpt lat="44.07512" lon="6.33077">
        <ele>1343.606</ele>
        <time>2022-08-24T13:12:38Z</time>
      </trkpt>
      <trkpt lat="44.07515" lon="6.33078">
        <ele>1343.816</ele>
        <time>2022-08-24T13:12:39Z</time>
      </trkpt>
      <trkpt lat="44.07529" lon="6.33081">
        <ele>1344.809</ele>
        <time>2022-08-24T13:12:43Z</time>
      </trkpt>
      <trkpt lat="44.07543" lon="6.33086">
        <ele>1346.017</ele>
        <time>2022-08-24T13:12:47Z</time>
      </trkpt>
      <trkpt lat="44.07556" lon="6.33096">
        <ele>1347.487</ele>
        <time>2022-08-24T13:12:51Z</time>
      </trkpt>
      <trkpt lat="44.07561" lon="6.33102">
        <ele>1347.857</ele>
        <time>2022-08-24T13:12:53Z</time>
      </trkpt>
      <trkpt lat="44.0757" lon="6.33109">
        <ele>1347.863</ele>
        <time>2022-08-24T13:12:56Z</time>
      </trkpt>
      <trkpt lat="44.07576" lon="6.33118">
        <ele>1348.456</ele>
        <time>2022-08-24T13:12:59Z</time>
      </trkpt>
      <trkpt lat="44.0758" lon="6.33123">
        <ele>1349.659</ele>
        <time>2022-08-24T13:13:02Z</time>
      </trkpt>
      <trkpt lat="44.07583" lon="6.33124">
        <ele>1350.215</ele>
        <time>2022-08-24T13:13:04Z</time>
      </trkpt>
      <trkpt lat="44.07588" lon="6.3313">
        <ele>1350.699</ele>
        <time>2022-08-24T13:13:09Z</time>
      </trkpt>
      <trkpt lat="44.07589" lon="6.33132">
        <ele>1350.662</ele>
        <time>2022-08-24T13:13:10Z</time>
      </trkpt>
      <trkpt lat="44.07589" lon="6.33134">
        <ele>1351.283</ele>
        <time>2022-08-24T13:13:13Z</time>
      </trkpt>
      <trkpt lat="44.07594" lon="6.33137">
        <ele>1350.625</ele>
        <time>2022-08-24T13:13:41Z</time>
      </trkpt>
      <trkpt lat="44.07596" lon="6.33139">
        <ele>1351.017</ele>
        <time>2022-08-24T13:13:42Z</time>
      </trkpt>
      <trkpt lat="44.07601" lon="6.33145">
        <ele>1351.809</ele>
        <time>2022-08-24T13:13:45Z</time>
      </trkpt>
      <trkpt lat="44.07605" lon="6.3315">
        <ele>1352.229</ele>
        <time>2022-08-24T13:13:47Z</time>
      </trkpt>
      <trkpt lat="44.07612" lon="6.33156">
        <ele>1353.069</ele>
        <time>2022-08-24T13:13:50Z</time>
      </trkpt>
      <trkpt lat="44.0762" lon="6.33166">
        <ele>1354.469</ele>
        <time>2022-08-24T13:13:54Z</time>
      </trkpt>
      <trkpt lat="44.07622" lon="6.33168">
        <ele>1354.635</ele>
        <time>2022-08-24T13:13:55Z</time>
      </trkpt>
      <trkpt lat="44.07631" lon="6.33178">
        <ele>1355.458</ele>
        <time>2022-08-24T13:13:59Z</time>
      </trkpt>
      <trkpt lat="44.07637" lon="6.33185">
        <ele>1356.841</ele>
        <time>2022-08-24T13:14:02Z</time>
      </trkpt>
      <trkpt lat="44.07639" lon="6.33187">
        <ele>1357.447</ele>
        <time>2022-08-24T13:14:03Z</time>
      </trkpt>
      <trkpt lat="44.07643" lon="6.33191">
        <ele>1358.091</ele>
        <time>2022-08-24T13:14:05Z</time>
      </trkpt>
      <trkpt lat="44.07655" lon="6.332">
        <ele>1358.864</ele>
        <time>2022-08-24T13:14:10Z</time>
      </trkpt>
      <trkpt lat="44.07657" lon="6.33202">
        <ele>1359.691</ele>
        <time>2022-08-24T13:14:11Z</time>
      </trkpt>
      <trkpt lat="44.07662" lon="6.33205">
        <ele>1360.681</ele>
        <time>2022-08-24T13:14:13Z</time>
      </trkpt>
      <trkpt lat="44.07664" lon="6.33207">
        <ele>1361.019</ele>
        <time>2022-08-24T13:14:14Z</time>
      </trkpt>
      <trkpt lat="44.07667" lon="6.33208">
        <ele>1361.009</ele>
        <time>2022-08-24T13:14:15Z</time>
      </trkpt>
      <trkpt lat="44.0768" lon="6.33214">
        <ele>1361.82</ele>
        <time>2022-08-24T13:14:20Z</time>
      </trkpt>
      <trkpt lat="44.07682" lon="6.33216">
        <ele>1362.44</ele>
        <time>2022-08-24T13:14:21Z</time>
      </trkpt>
      <trkpt lat="44.0769" lon="6.33222">
        <ele>1363.61</ele>
        <time>2022-08-24T13:14:24Z</time>
      </trkpt>
      <trkpt lat="44.07695" lon="6.33224">
        <ele>1364.246</ele>
        <time>2022-08-24T13:14:26Z</time>
      </trkpt>
      <trkpt lat="44.077" lon="6.33229">
        <ele>1364.699</ele>
        <time>2022-08-24T13:14:28Z</time>
      </trkpt>
      <trkpt lat="44.07708" lon="6.33238">
        <ele>1365.662</ele>
        <time>2022-08-24T13:14:32Z</time>
      </trkpt>
      <trkpt lat="44.07714" lon="6.33243">
        <ele>1366.268</ele>
        <time>2022-08-24T13:14:35Z</time>
      </trkpt>
      <trkpt lat="44.07717" lon="6.33246">
        <ele>1366.432</ele>
        <time>2022-08-24T13:14:37Z</time>
      </trkpt>
      <trkpt lat="44.07719" lon="6.33248">
        <ele>1367.075</ele>
        <time>2022-08-24T13:14:38Z</time>
      </trkpt>
      <trkpt lat="44.07727" lon="6.33255">
        <ele>1368.245</ele>
        <time>2022-08-24T13:14:42Z</time>
      </trkpt>
      <trkpt lat="44.07732" lon="6.33258">
        <ele>1368.447</ele>
        <time>2022-08-24T13:14:44Z</time>
      </trkpt>
      <trkpt lat="44.0774" lon="6.33262">
        <ele>1369.211</ele>
        <time>2022-08-24T13:14:47Z</time>
      </trkpt>
      <trkpt lat="44.07742" lon="6.33264">
        <ele>1369.409</ele>
        <time>2022-08-24T13:14:48Z</time>
      </trkpt>
      <trkpt lat="44.07747" lon="6.33267">
        <ele>1369.655</ele>
        <time>2022-08-24T13:14:50Z</time>
      </trkpt>
      <trkpt lat="44.07757" lon="6.33272">
        <ele>1370.465</ele>
        <time>2022-08-24T13:14:54Z</time>
      </trkpt>
      <trkpt lat="44.07759" lon="6.33273">
        <ele>1370.825</ele>
        <time>2022-08-24T13:14:55Z</time>
      </trkpt>
      <trkpt lat="44.07769" lon="6.33281">
        <ele>1371.421</ele>
        <time>2022-08-24T13:14:59Z</time>
      </trkpt>
      <trkpt lat="44.07771" lon="6.33282">
        <ele>1372.014</ele>
        <time>2022-08-24T13:15:00Z</time>
      </trkpt>
      <trkpt lat="44.07777" lon="6.33284">
        <ele>1372.677</ele>
        <time>2022-08-24T13:15:02Z</time>
      </trkpt>
      <trkpt lat="44.07788" lon="6.33291">
        <ele>1373.643</ele>
        <time>2022-08-24T13:15:06Z</time>
      </trkpt>
      <trkpt lat="44.07805" lon="6.33305">
        <ele>1374.887</ele>
        <time>2022-08-24T13:15:12Z</time>
      </trkpt>
      <trkpt lat="44.07814" lon="6.33311">
        <ele>1375.87</ele>
        <time>2022-08-24T13:15:15Z</time>
      </trkpt>
      <trkpt lat="44.07817" lon="6.33313">
        <ele>1376.268</ele>
        <time>2022-08-24T13:15:16Z</time>
      </trkpt>
      <trkpt lat="44.07825" lon="6.33316">
        <ele>1377.242</ele>
        <time>2022-08-24T13:15:18Z</time>
      </trkpt>
      <trkpt lat="44.07831" lon="6.33318">
        <ele>1378.226</ele>
        <time>2022-08-24T13:15:20Z</time>
      </trkpt>
      <trkpt lat="44.07834" lon="6.33318">
        <ele>1378.409</ele>
        <time>2022-08-24T13:15:21Z</time>
      </trkpt>
      <trkpt lat="44.07844" lon="6.33321">
        <ele>1379.637</ele>
        <time>2022-08-24T13:15:24Z</time>
      </trkpt>
      <trkpt lat="44.0785" lon="6.33322">
        <ele>1380.847</ele>
        <time>2022-08-24T13:15:26Z</time>
      </trkpt>
      <trkpt lat="44.07855" lon="6.33325">
        <ele>1381.287</ele>
        <time>2022-08-24T13:15:28Z</time>
      </trkpt>
      <trkpt lat="44.07864" lon="6.33329">
        <ele>1382.233</ele>
        <time>2022-08-24T13:15:31Z</time>
      </trkpt>
      <trkpt lat="44.07869" lon="6.33332">
        <ele>1382.876</ele>
        <time>2022-08-24T13:15:33Z</time>
      </trkpt>
      <trkpt lat="44.07875" lon="6.33335">
        <ele>1383.449</ele>
        <time>2022-08-24T13:15:35Z</time>
      </trkpt>
      <trkpt lat="44.07887" lon="6.3334">
        <ele>1384.845</ele>
        <time>2022-08-24T13:15:39Z</time>
      </trkpt>
      <trkpt lat="44.0789" lon="6.33341">
        <ele>1385.259</ele>
        <time>2022-08-24T13:15:40Z</time>
      </trkpt>
      <trkpt lat="44.079" lon="6.33342">
        <ele>1385.872</ele>
        <time>2022-08-24T13:15:43Z</time>
      </trkpt>
      <trkpt lat="44.07913" lon="6.33343">
        <ele>1387.088</ele>
        <time>2022-08-24T13:15:47Z</time>
      </trkpt>
      <trkpt lat="44.07916" lon="6.33344">
        <ele>1387.024</ele>
        <time>2022-08-24T13:15:48Z</time>
      </trkpt>
      <trkpt lat="44.07922" lon="6.33345">
        <ele>1387.826</ele>
        <time>2022-08-24T13:15:50Z</time>
      </trkpt>
      <trkpt lat="44.07924" lon="6.33345">
        <ele>1388.209</ele>
        <time>2022-08-24T13:15:51Z</time>
      </trkpt>
      <trkpt lat="44.07935" lon="6.33348">
        <ele>1389.089</ele>
        <time>2022-08-24T13:15:55Z</time>
      </trkpt>
      <trkpt lat="44.07937" lon="6.33349">
        <ele>1389.499</ele>
        <time>2022-08-24T13:15:56Z</time>
      </trkpt>
      <trkpt lat="44.07951" lon="6.33354">
        <ele>1390.439</ele>
        <time>2022-08-24T13:16:01Z</time>
      </trkpt>
      <trkpt lat="44.07954" lon="6.33356">
        <ele>1390.645</ele>
        <time>2022-08-24T13:16:02Z</time>
      </trkpt>
      <trkpt lat="44.07968" lon="6.33361">
        <ele>1391.858</ele>
        <time>2022-08-24T13:16:07Z</time>
      </trkpt>
      <trkpt lat="44.07973" lon="6.33363">
        <ele>1392.861</ele>
        <time>2022-08-24T13:16:09Z</time>
      </trkpt>
      <trkpt lat="44.07976" lon="6.33365">
        <ele>1393.047</ele>
        <time>2022-08-24T13:16:10Z</time>
      </trkpt>
      <trkpt lat="44.07992" lon="6.33373">
        <ele>1394.071</ele>
        <time>2022-08-24T13:16:16Z</time>
      </trkpt>
      <trkpt lat="44.08004" lon="6.33378">
        <ele>1395.244</ele>
        <time>2022-08-24T13:16:20Z</time>
      </trkpt>
      <trkpt lat="44.08013" lon="6.33382">
        <ele>1395.895</ele>
        <time>2022-08-24T13:16:23Z</time>
      </trkpt>
      <trkpt lat="44.08018" lon="6.33385">
        <ele>1396.449</ele>
        <time>2022-08-24T13:16:25Z</time>
      </trkpt>
      <trkpt lat="44.08026" lon="6.33388">
        <ele>1397.223</ele>
        <time>2022-08-24T13:16:28Z</time>
      </trkpt>
      <trkpt lat="44.08029" lon="6.33389">
        <ele>1397.609</ele>
        <time>2022-08-24T13:16:29Z</time>
      </trkpt>
      <trkpt lat="44.08037" lon="6.33391">
        <ele>1398.89</ele>
        <time>2022-08-24T13:16:32Z</time>
      </trkpt>
      <trkpt lat="44.08042" lon="6.33395">
        <ele>1399.08</ele>
        <time>2022-08-24T13:16:34Z</time>
      </trkpt>
      <trkpt lat="44.08051" lon="6.334">
        <ele>1400.26</ele>
        <time>2022-08-24T13:16:37Z</time>
      </trkpt>
      <trkpt lat="44.08056" lon="6.33404">
        <ele>1401.416</ele>
        <time>2022-08-24T13:16:39Z</time>
      </trkpt>
      <trkpt lat="44.08062" lon="6.33408">
        <ele>1402.839</ele>
        <time>2022-08-24T13:16:41Z</time>
      </trkpt>
      <trkpt lat="44.08064" lon="6.3341">
        <ele>1403.212</ele>
        <time>2022-08-24T13:16:42Z</time>
      </trkpt>
      <trkpt lat="44.0807" lon="6.33417">
        <ele>1404.058</ele>
        <time>2022-08-24T13:16:45Z</time>
      </trkpt>
      <trkpt lat="44.08072" lon="6.33419">
        <ele>1404.442</ele>
        <time>2022-08-24T13:16:46Z</time>
      </trkpt>
      <trkpt lat="44.08074" lon="6.33421">
        <ele>1404.655</ele>
        <time>2022-08-24T13:16:47Z</time>
      </trkpt>
      <trkpt lat="44.08075" lon="6.33423">
        <ele>1404.875</ele>
        <time>2022-08-24T13:16:48Z</time>
      </trkpt>
      <trkpt lat="44.08078" lon="6.33427">
        <ele>1405.428</ele>
        <time>2022-08-24T13:16:51Z</time>
      </trkpt>
      <trkpt lat="44.08078" lon="6.33429">
        <ele>1405.42</ele>
        <time>2022-08-24T13:16:52Z</time>
      </trkpt>
      <trkpt lat="44.08072" lon="6.33433">
        <ele>1407.209</ele>
        <time>2022-08-24T13:16:56Z</time>
      </trkpt>
      <trkpt lat="44.08067" lon="6.33432">
        <ele>1408.468</ele>
        <time>2022-08-24T13:16:59Z</time>
      </trkpt>
      <trkpt lat="44.08063" lon="6.33427">
        <ele>1409.228</ele>
        <time>2022-08-24T13:17:02Z</time>
      </trkpt>
      <trkpt lat="44.08061" lon="6.33426">
        <ele>1409.678</ele>
        <time>2022-08-24T13:17:03Z</time>
      </trkpt>
      <trkpt lat="44.08057" lon="6.33425">
        <ele>1410.644</ele>
        <time>2022-08-24T13:17:06Z</time>
      </trkpt>
      <trkpt lat="44.08053" lon="6.33424">
        <ele>1411.287</ele>
        <time>2022-08-24T13:17:08Z</time>
      </trkpt>
      <trkpt lat="44.08052" lon="6.33424">
        <ele>1411.61</ele>
        <time>2022-08-24T13:17:09Z</time>
      </trkpt>
      <trkpt lat="44.08049" lon="6.33424">
        <ele>1412.466</ele>
        <time>2022-08-24T13:17:11Z</time>
      </trkpt>
      <trkpt lat="44.08046" lon="6.33424">
        <ele>1412.63</ele>
        <time>2022-08-24T13:17:13Z</time>
      </trkpt>
      <trkpt lat="44.08045" lon="6.33424">
        <ele>1412.623</ele>
        <time>2022-08-24T13:17:14Z</time>
      </trkpt>
      <trkpt lat="44.08044" lon="6.33424">
        <ele>1412.898</ele>
        <time>2022-08-24T13:17:15Z</time>
      </trkpt>
      <trkpt lat="44.08033" lon="6.33427">
        <ele>1413.815</ele>
        <time>2022-08-24T13:17:21Z</time>
      </trkpt>
      <trkpt lat="44.08031" lon="6.33427">
        <ele>1413.826</ele>
        <time>2022-08-24T13:17:22Z</time>
      </trkpt>
      <trkpt lat="44.08027" lon="6.33428">
        <ele>1414.009</ele>
        <time>2022-08-24T13:17:24Z</time>
      </trkpt>
      <trkpt lat="44.08025" lon="6.33428">
        <ele>1414.49</ele>
        <time>2022-08-24T13:17:25Z</time>
      </trkpt>
      <trkpt lat="44.08023" lon="6.3343">
        <ele>1414.65</ele>
        <time>2022-08-24T13:17:26Z</time>
      </trkpt>
      <trkpt lat="44.08021" lon="6.33431">
        <ele>1414.87</ele>
        <time>2022-08-24T13:17:27Z</time>
      </trkpt>
      <trkpt lat="44.0802" lon="6.33431">
        <ele>1415.016</ele>
        <time>2022-08-24T13:17:28Z</time>
      </trkpt>
      <trkpt lat="44.08012" lon="6.33438">
        <ele>1416.269</ele>
        <time>2022-08-24T13:17:33Z</time>
      </trkpt>
      <trkpt lat="44.08009" lon="6.3344">
        <ele>1417.252</ele>
        <time>2022-08-24T13:17:35Z</time>
      </trkpt>
      <trkpt lat="44.08005" lon="6.33442">
        <ele>1418.218</ele>
        <time>2022-08-24T13:17:37Z</time>
      </trkpt>
      <trkpt lat="44.08001" lon="6.33444">
        <ele>1419.242</ele>
        <time>2022-08-24T13:17:39Z</time>
      </trkpt>
      <trkpt lat="44.07993" lon="6.33447">
        <ele>1420.675</ele>
        <time>2022-08-24T13:17:43Z</time>
      </trkpt>
      <trkpt lat="44.07991" lon="6.33448">
        <ele>1420.845</ele>
        <time>2022-08-24T13:17:44Z</time>
      </trkpt>
      <trkpt lat="44.07986" lon="6.33449">
        <ele>1421.847</ele>
        <time>2022-08-24T13:17:47Z</time>
      </trkpt>
      <trkpt lat="44.07979" lon="6.33452">
        <ele>1423.411</ele>
        <time>2022-08-24T13:17:51Z</time>
      </trkpt>
      <trkpt lat="44.07977" lon="6.33453">
        <ele>1424.209</ele>
        <time>2022-08-24T13:17:52Z</time>
      </trkpt>
      <trkpt lat="44.07976" lon="6.33454">
        <ele>1424.625</ele>
        <time>2022-08-24T13:17:53Z</time>
      </trkpt>
      <trkpt lat="44.0797" lon="6.33456">
        <ele>1425.275</ele>
        <time>2022-08-24T13:17:57Z</time>
      </trkpt>
      <trkpt lat="44.07969" lon="6.33456">
        <ele>1426.095</ele>
        <time>2022-08-24T13:17:58Z</time>
      </trkpt>
      <trkpt lat="44.07965" lon="6.33459">
        <ele>1427.031</ele>
        <time>2022-08-24T13:18:01Z</time>
      </trkpt>
      <trkpt lat="44.07964" lon="6.3346">
        <ele>1427.634</ele>
        <time>2022-08-24T13:18:02Z</time>
      </trkpt>
      <trkpt lat="44.07963" lon="6.33461">
        <ele>1427.877</ele>
        <time>2022-08-24T13:18:03Z</time>
      </trkpt>
      <trkpt lat="44.07961" lon="6.33461">
        <ele>1428.283</ele>
        <time>2022-08-24T13:18:04Z</time>
      </trkpt>
      <trkpt lat="44.07956" lon="6.33463">
        <ele>1429.287</ele>
        <time>2022-08-24T13:18:07Z</time>
      </trkpt>
      <trkpt lat="44.07954" lon="6.33464">
        <ele>1429.41</ele>
        <time>2022-08-24T13:18:08Z</time>
      </trkpt>
      <trkpt lat="44.07951" lon="6.33465">
        <ele>1430.047</ele>
        <time>2022-08-24T13:18:10Z</time>
      </trkpt>
      <trkpt lat="44.0795" lon="6.33466">
        <ele>1430.429</ele>
        <time>2022-08-24T13:18:11Z</time>
      </trkpt>
      <trkpt lat="44.07943" lon="6.33469">
        <ele>1431.621</ele>
        <time>2022-08-24T13:18:15Z</time>
      </trkpt>
      <trkpt lat="44.07938" lon="6.3347">
        <ele>1432.009</ele>
        <time>2022-08-24T13:18:17Z</time>
      </trkpt>
      <trkpt lat="44.07934" lon="6.33471">
        <ele>1432.695</ele>
        <time>2022-08-24T13:18:19Z</time>
      </trkpt>
      <trkpt lat="44.07929" lon="6.33472">
        <ele>1434.055</ele>
        <time>2022-08-24T13:18:22Z</time>
      </trkpt>
      <trkpt lat="44.07924" lon="6.33473">
        <ele>1434.825</ele>
        <time>2022-08-24T13:18:25Z</time>
      </trkpt>
      <trkpt lat="44.07923" lon="6.33474">
        <ele>1435.241</ele>
        <time>2022-08-24T13:18:26Z</time>
      </trkpt>
      <trkpt lat="44.07914" lon="6.33478">
        <ele>1436.674</ele>
        <time>2022-08-24T13:18:31Z</time>
      </trkpt>
      <trkpt lat="44.07909" lon="6.33479">
        <ele>1437.487</ele>
        <time>2022-08-24T13:18:33Z</time>
      </trkpt>
      <trkpt lat="44.07907" lon="6.33479">
        <ele>1437.683</ele>
        <time>2022-08-24T13:18:34Z</time>
      </trkpt>
      <trkpt lat="44.07903" lon="6.33481">
        <ele>1438.617</ele>
        <time>2022-08-24T13:18:37Z</time>
      </trkpt>
      <trkpt lat="44.07902" lon="6.33481">
        <ele>1439.29</ele>
        <time>2022-08-24T13:18:38Z</time>
      </trkpt>
      <trkpt lat="44.07898" lon="6.33484">
        <ele>1439.882</ele>
        <time>2022-08-24T13:18:41Z</time>
      </trkpt>
      <trkpt lat="44.07898" lon="6.33485">
        <ele>1440.643</ele>
        <time>2022-08-24T13:18:43Z</time>
      </trkpt>
      <trkpt lat="44.07898" lon="6.33485">
        <ele>1440.817</ele>
        <time>2022-08-24T13:18:44Z</time>
      </trkpt>
      <trkpt lat="44.07898" lon="6.33486">
        <ele>1440.809</ele>
        <time>2022-08-24T13:18:45Z</time>
      </trkpt>
      <trkpt lat="44.07902" lon="6.33486">
        <ele>1440.429</ele>
        <time>2022-08-24T13:18:49Z</time>
      </trkpt>
      <trkpt lat="44.07904" lon="6.33486">
        <ele>1440.269</ele>
        <time>2022-08-24T13:18:50Z</time>
      </trkpt>
      <trkpt lat="44.07916" lon="6.3349">
        <ele>1442.059</ele>
        <time>2022-08-24T13:18:56Z</time>
      </trkpt>
      <trkpt lat="44.0792" lon="6.33492">
        <ele>1443.085</ele>
        <time>2022-08-24T13:18:58Z</time>
      </trkpt>
      <trkpt lat="44.0793" lon="6.33496">
        <ele>1444.078</ele>
        <time>2022-08-24T13:19:04Z</time>
      </trkpt>
      <trkpt lat="44.07932" lon="6.33497">
        <ele>1444.021</ele>
        <time>2022-08-24T13:19:05Z</time>
      </trkpt>
      <trkpt lat="44.07943" lon="6.33501">
        <ele>1445.457</ele>
        <time>2022-08-24T13:19:11Z</time>
      </trkpt>
      <trkpt lat="44.07945" lon="6.33502">
        <ele>1445.481</ele>
        <time>2022-08-24T13:19:12Z</time>
      </trkpt>
      <trkpt lat="44.07953" lon="6.33503">
        <ele>1446.484</ele>
        <time>2022-08-24T13:19:16Z</time>
      </trkpt>
      <trkpt lat="44.0796" lon="6.33504">
        <ele>1447.078</ele>
        <time>2022-08-24T13:19:19Z</time>
      </trkpt>
      <trkpt lat="44.07966" lon="6.33506">
        <ele>1448.033</ele>
        <time>2022-08-24T13:19:22Z</time>
      </trkpt>
      <trkpt lat="44.07974" lon="6.33509">
        <ele>1449.226</ele>
        <time>2022-08-24T13:19:25Z</time>
      </trkpt>
      <trkpt lat="44.07988" lon="6.33512">
        <ele>1450.409</ele>
        <time>2022-08-24T13:19:31Z</time>
      </trkpt>
      <trkpt lat="44.07991" lon="6.33513">
        <ele>1451.028</ele>
        <time>2022-08-24T13:19:32Z</time>
      </trkpt>
      <trkpt lat="44.07996" lon="6.33516">
        <ele>1451.418</ele>
        <time>2022-08-24T13:19:34Z</time>
      </trkpt>
      <trkpt lat="44.08002" lon="6.33518">
        <ele>1451.878</ele>
        <time>2022-08-24T13:19:37Z</time>
      </trkpt>
      <trkpt lat="44.08009" lon="6.33519">
        <ele>1452.624</ele>
        <time>2022-08-24T13:19:40Z</time>
      </trkpt>
      <trkpt lat="44.08016" lon="6.33521">
        <ele>1453.237</ele>
        <time>2022-08-24T13:19:43Z</time>
      </trkpt>
      <trkpt lat="44.08023" lon="6.33522">
        <ele>1453.86</ele>
        <time>2022-08-24T13:19:46Z</time>
      </trkpt>
      <trkpt lat="44.08026" lon="6.33523">
        <ele>1453.896</ele>
        <time>2022-08-24T13:19:47Z</time>
      </trkpt>
      <trkpt lat="44.0803" lon="6.33524">
        <ele>1454.28</ele>
        <time>2022-08-24T13:19:49Z</time>
      </trkpt>
      <trkpt lat="44.08032" lon="6.33525">
        <ele>1454.863</ele>
        <time>2022-08-24T13:19:50Z</time>
      </trkpt>
      <trkpt lat="44.08036" lon="6.33526">
        <ele>1455.065</ele>
        <time>2022-08-24T13:19:52Z</time>
      </trkpt>
      <trkpt lat="44.08036" lon="6.33531">
        <ele>1455.468</ele>
        <time>2022-08-24T13:19:54Z</time>
      </trkpt>
      <trkpt lat="44.08032" lon="6.33533">
        <ele>1456.014</ele>
        <time>2022-08-24T13:19:56Z</time>
      </trkpt>
      <trkpt lat="44.0803" lon="6.33534">
        <ele>1457.009</ele>
        <time>2022-08-24T13:19:57Z</time>
      </trkpt>
      <trkpt lat="44.08028" lon="6.33535">
        <ele>1457.037</ele>
        <time>2022-08-24T13:19:58Z</time>
      </trkpt>
      <trkpt lat="44.08026" lon="6.33536">
        <ele>1458.297</ele>
        <time>2022-08-24T13:19:59Z</time>
      </trkpt>
      <trkpt lat="44.08021" lon="6.33537">
        <ele>1459.417</ele>
        <time>2022-08-24T13:20:02Z</time>
      </trkpt>
      <trkpt lat="44.08018" lon="6.33538">
        <ele>1460.433</ele>
        <time>2022-08-24T13:20:04Z</time>
      </trkpt>
      <trkpt lat="44.08014" lon="6.33539">
        <ele>1460.896</ele>
        <time>2022-08-24T13:20:06Z</time>
      </trkpt>
      <trkpt lat="44.08012" lon="6.3354">
        <ele>1461.239</ele>
        <time>2022-08-24T13:20:07Z</time>
      </trkpt>
      <trkpt lat="44.08009" lon="6.33543">
        <ele>1462.215</ele>
        <time>2022-08-24T13:20:09Z</time>
      </trkpt>
      <trkpt lat="44.08001" lon="6.33548">
        <ele>1463.429</ele>
        <time>2022-08-24T13:20:13Z</time>
      </trkpt>
      <trkpt lat="44.07997" lon="6.3355">
        <ele>1463.662</ele>
        <time>2022-08-24T13:20:15Z</time>
      </trkpt>
      <trkpt lat="44.0799" lon="6.33554">
        <ele>1464.638</ele>
        <time>2022-08-24T13:20:19Z</time>
      </trkpt>
      <trkpt lat="44.07986" lon="6.33556">
        <ele>1465.07</ele>
        <time>2022-08-24T13:20:21Z</time>
      </trkpt>
      <trkpt lat="44.07982" lon="6.33556">
        <ele>1466.017</ele>
        <time>2022-08-24T13:20:23Z</time>
      </trkpt>
      <trkpt lat="44.07974" lon="6.3356">
        <ele>1467.609</ele>
        <time>2022-08-24T13:20:27Z</time>
      </trkpt>
      <trkpt lat="44.07972" lon="6.33561">
        <ele>1468.084</ele>
        <time>2022-08-24T13:20:28Z</time>
      </trkpt>
      <trkpt lat="44.07969" lon="6.33563">
        <ele>1468.614</ele>
        <time>2022-08-24T13:20:30Z</time>
      </trkpt>
      <trkpt lat="44.07965" lon="6.33564">
        <ele>1470.034</ele>
        <time>2022-08-24T13:20:32Z</time>
      </trkpt>
      <trkpt lat="44.07961" lon="6.33564">
        <ele>1470.28</ele>
        <time>2022-08-24T13:20:34Z</time>
      </trkpt>
      <trkpt lat="44.07957" lon="6.33566">
        <ele>1471.093</ele>
        <time>2022-08-24T13:20:36Z</time>
      </trkpt>
      <trkpt lat="44.07948" lon="6.33572">
        <ele>1472.246</ele>
        <time>2022-08-24T13:20:40Z</time>
      </trkpt>
      <trkpt lat="44.07945" lon="6.33574">
        <ele>1473.452</ele>
        <time>2022-08-24T13:20:42Z</time>
      </trkpt>
      <trkpt lat="44.07941" lon="6.33576">
        <ele>1474.276</ele>
        <time>2022-08-24T13:20:45Z</time>
      </trkpt>
      <trkpt lat="44.07934" lon="6.33579">
        <ele>1474.669</ele>
        <time>2022-08-24T13:20:49Z</time>
      </trkpt>
      <trkpt lat="44.0793" lon="6.33581">
        <ele>1475.223</ele>
        <time>2022-08-24T13:20:51Z</time>
      </trkpt>
      <trkpt lat="44.07928" lon="6.33582">
        <ele>1475.883</ele>
        <time>2022-08-24T13:20:52Z</time>
      </trkpt>
      <trkpt lat="44.07924" lon="6.33583">
        <ele>1477.211</ele>
        <time>2022-08-24T13:20:54Z</time>
      </trkpt>
      <trkpt lat="44.07915" lon="6.33584">
        <ele>1478.209</ele>
        <time>2022-08-24T13:20:58Z</time>
      </trkpt>
      <trkpt lat="44.07904" lon="6.33587">
        <ele>1479.673</ele>
        <time>2022-08-24T13:21:03Z</time>
      </trkpt>
      <trkpt lat="44.07903" lon="6.33588">
        <ele>1480.083</ele>
        <time>2022-08-24T13:21:04Z</time>
      </trkpt>
      <trkpt lat="44.07902" lon="6.33589">
        <ele>1481.213</ele>
        <time>2022-08-24T13:21:05Z</time>
      </trkpt>
      <trkpt lat="44.07902" lon="6.3359">
        <ele>1482.419</ele>
        <time>2022-08-24T13:21:07Z</time>
      </trkpt>
      <trkpt lat="44.07904" lon="6.33591">
        <ele>1482.682</ele>
        <time>2022-08-24T13:21:08Z</time>
      </trkpt>
      <trkpt lat="44.07909" lon="6.33595">
        <ele>1483.495</ele>
        <time>2022-08-24T13:21:12Z</time>
      </trkpt>
      <trkpt lat="44.07912" lon="6.33597">
        <ele>1484.641</ele>
        <time>2022-08-24T13:21:14Z</time>
      </trkpt>
      <trkpt lat="44.07916" lon="6.336">
        <ele>1486.035</ele>
        <time>2022-08-24T13:21:17Z</time>
      </trkpt>
      <trkpt lat="44.07919" lon="6.33603">
        <ele>1487.088</ele>
        <time>2022-08-24T13:21:19Z</time>
      </trkpt>
      <trkpt lat="44.07921" lon="6.33603">
        <ele>1487.459</ele>
        <time>2022-08-24T13:21:20Z</time>
      </trkpt>
      <trkpt lat="44.07927" lon="6.33606">
        <ele>1488.003</ele>
        <time>2022-08-24T13:21:23Z</time>
      </trkpt>
      <trkpt lat="44.0793" lon="6.33608">
        <ele>1488.823</ele>
        <time>2022-08-24T13:21:25Z</time>
      </trkpt>
      <trkpt lat="44.07934" lon="6.33608">
        <ele>1490.009</ele>
        <time>2022-08-24T13:21:27Z</time>
      </trkpt>
      <trkpt lat="44.07945" lon="6.3361">
        <ele>1491.436</ele>
        <time>2022-08-24T13:21:32Z</time>
      </trkpt>
      <trkpt lat="44.07947" lon="6.33611">
        <ele>1491.866</ele>
        <time>2022-08-24T13:21:33Z</time>
      </trkpt>
      <trkpt lat="44.07955" lon="6.33612">
        <ele>1493.096</ele>
        <time>2022-08-24T13:21:38Z</time>
      </trkpt>
      <trkpt lat="44.07956" lon="6.33612">
        <ele>1493.612</ele>
        <time>2022-08-24T13:21:39Z</time>
      </trkpt>
      <trkpt lat="44.07961" lon="6.33613">
        <ele>1494.675</ele>
        <time>2022-08-24T13:21:41Z</time>
      </trkpt>
      <trkpt lat="44.07967" lon="6.33614">
        <ele>1495.868</ele>
        <time>2022-08-24T13:21:44Z</time>
      </trkpt>
      <trkpt lat="44.07973" lon="6.33617">
        <ele>1496.294</ele>
        <time>2022-08-24T13:21:47Z</time>
      </trkpt>
      <trkpt lat="44.07976" lon="6.33619">
        <ele>1496.828</ele>
        <time>2022-08-24T13:21:49Z</time>
      </trkpt>
      <trkpt lat="44.07983" lon="6.33622">
        <ele>1497.821</ele>
        <time>2022-08-24T13:21:53Z</time>
      </trkpt>
      <trkpt lat="44.07984" lon="6.33623">
        <ele>1498.027</ele>
        <time>2022-08-24T13:21:54Z</time>
      </trkpt>
      <trkpt lat="44.07988" lon="6.33624">
        <ele>1499.068</ele>
        <time>2022-08-24T13:21:56Z</time>
      </trkpt>
      <trkpt lat="44.07998" lon="6.33627">
        <ele>1499.614</ele>
        <time>2022-08-24T13:22:01Z</time>
      </trkpt>
      <trkpt lat="44.08004" lon="6.33629">
        <ele>1500.209</ele>
        <time>2022-08-24T13:22:04Z</time>
      </trkpt>
      <trkpt lat="44.0801" lon="6.33631">
        <ele>1501.453</ele>
        <time>2022-08-24T13:22:07Z</time>
      </trkpt>
      <trkpt lat="44.08012" lon="6.3363">
        <ele>1501.683</ele>
        <time>2022-08-24T13:22:08Z</time>
      </trkpt>
      <trkpt lat="44.08017" lon="6.33631">
        <ele>1502.433</ele>
        <time>2022-08-24T13:22:11Z</time>
      </trkpt>
      <trkpt lat="44.08021" lon="6.33632">
        <ele>1503.449</ele>
        <time>2022-08-24T13:22:13Z</time>
      </trkpt>
      <trkpt lat="44.08022" lon="6.33632">
        <ele>1503.842</ele>
        <time>2022-08-24T13:22:14Z</time>
      </trkpt>
      <trkpt lat="44.08031" lon="6.33636">
        <ele>1505.095</ele>
        <time>2022-08-24T13:22:19Z</time>
      </trkpt>
      <trkpt lat="44.08037" lon="6.33641">
        <ele>1506.051</ele>
        <time>2022-08-24T13:22:23Z</time>
      </trkpt>
      <trkpt lat="44.08038" lon="6.33643">
        <ele>1506.895</ele>
        <time>2022-08-24T13:22:24Z</time>
      </trkpt>
      <trkpt lat="44.08041" lon="6.33647">
        <ele>1507.638</ele>
        <time>2022-08-24T13:22:26Z</time>
      </trkpt>
      <trkpt lat="44.08047" lon="6.33655">
        <ele>1508.655</ele>
        <time>2022-08-24T13:22:31Z</time>
      </trkpt>
      <trkpt lat="44.0805" lon="6.33657">
        <ele>1509.807</ele>
        <time>2022-08-24T13:22:33Z</time>
      </trkpt>
      <trkpt lat="44.08053" lon="6.3366">
        <ele>1510.617</ele>
        <time>2022-08-24T13:22:36Z</time>
      </trkpt>
      <trkpt lat="44.08054" lon="6.33661">
        <ele>1511.209</ele>
        <time>2022-08-24T13:22:37Z</time>
      </trkpt>
      <trkpt lat="44.08053" lon="6.33664">
        <ele>1512.016</ele>
        <time>2022-08-24T13:22:40Z</time>
      </trkpt>
      <trkpt lat="44.08051" lon="6.33664">
        <ele>1512.456</ele>
        <time>2022-08-24T13:22:42Z</time>
      </trkpt>
      <trkpt lat="44.08047" lon="6.33664">
        <ele>1513.026</ele>
        <time>2022-08-24T13:22:44Z</time>
      </trkpt>
      <trkpt lat="44.08045" lon="6.33664">
        <ele>1513.672</ele>
        <time>2022-08-24T13:22:45Z</time>
      </trkpt>
      <trkpt lat="44.08039" lon="6.33663">
        <ele>1514.835</ele>
        <time>2022-08-24T13:22:49Z</time>
      </trkpt>
      <trkpt lat="44.08029" lon="6.33664">
        <ele>1515.668</ele>
        <time>2022-08-24T13:22:55Z</time>
      </trkpt>
      <trkpt lat="44.08028" lon="6.33664">
        <ele>1515.854</ele>
        <time>2022-08-24T13:22:56Z</time>
      </trkpt>
      <trkpt lat="44.08025" lon="6.33665">
        <ele>1517.088</ele>
        <time>2022-08-24T13:22:59Z</time>
      </trkpt>
      <trkpt lat="44.08022" lon="6.33667">
        <ele>1517.681</ele>
        <time>2022-08-24T13:23:01Z</time>
      </trkpt>
      <trkpt lat="44.08021" lon="6.33668">
        <ele>1518.018</ele>
        <time>2022-08-24T13:23:02Z</time>
      </trkpt>
      <trkpt lat="44.08016" lon="6.33669">
        <ele>1518.898</ele>
        <time>2022-08-24T13:23:06Z</time>
      </trkpt>
      <trkpt lat="44.08016" lon="6.33669">
        <ele>1519.017</ele>
        <time>2022-08-24T13:23:07Z</time>
      </trkpt>
      <trkpt lat="44.08015" lon="6.3367">
        <ele>1519.609</ele>
        <time>2022-08-24T13:23:09Z</time>
      </trkpt>
      <trkpt lat="44.08013" lon="6.33672">
        <ele>1520.272</ele>
        <time>2022-08-24T13:23:11Z</time>
      </trkpt>
      <trkpt lat="44.0801" lon="6.33674">
        <ele>1520.872</ele>
        <time>2022-08-24T13:23:13Z</time>
      </trkpt>
      <trkpt lat="44.08006" lon="6.33676">
        <ele>1521.282</ele>
        <time>2022-08-24T13:23:16Z</time>
      </trkpt>
      <trkpt lat="44.08004" lon="6.33676">
        <ele>1521.228</ele>
        <time>2022-08-24T13:23:17Z</time>
      </trkpt>
      <trkpt lat="44.08003" lon="6.33677">
        <ele>1521.261</ele>
        <time>2022-08-24T13:23:18Z</time>
      </trkpt>
      <trkpt lat="44.07999" lon="6.33678">
        <ele>1521.864</ele>
        <time>2022-08-24T13:23:20Z</time>
      </trkpt>
      <trkpt lat="44.07997" lon="6.33679">
        <ele>1522.29</ele>
        <time>2022-08-24T13:23:22Z</time>
      </trkpt>
      <trkpt lat="44.07997" lon="6.33678">
        <ele>1522.444</ele>
        <time>2022-08-24T13:23:23Z</time>
      </trkpt>
      <trkpt lat="44.07996" lon="6.33677">
        <ele>1522.497</ele>
        <time>2022-08-24T13:23:24Z</time>
      </trkpt>
      <trkpt lat="44.07979" lon="6.33666">
        <ele>1521.614</ele>
        <time>2022-08-24T13:23:56Z</time>
      </trkpt>
      <trkpt lat="44.07977" lon="6.33667">
        <ele>1521.454</ele>
        <time>2022-08-24T13:23:57Z</time>
      </trkpt>
      <trkpt lat="44.07975" lon="6.33668">
        <ele>1521.409</ele>
        <time>2022-08-24T13:23:58Z</time>
      </trkpt>
      <trkpt lat="44.0797" lon="6.3367">
        <ele>1521.609</ele>
        <time>2022-08-24T13:24:01Z</time>
      </trkpt>
      <trkpt lat="44.07968" lon="6.33671">
        <ele>1521.832</ele>
        <time>2022-08-24T13:24:02Z</time>
      </trkpt>
      <trkpt lat="44.07964" lon="6.33672">
        <ele>1522.462</ele>
        <time>2022-08-24T13:24:04Z</time>
      </trkpt>
      <trkpt lat="44.07958" lon="6.33674">
        <ele>1523.292</ele>
        <time>2022-08-24T13:24:07Z</time>
      </trkpt>
      <trkpt lat="44.07955" lon="6.33674">
        <ele>1523.688</ele>
        <time>2022-08-24T13:24:08Z</time>
      </trkpt>
      <trkpt lat="44.07951" lon="6.33675">
        <ele>1524.011</ele>
        <time>2022-08-24T13:24:10Z</time>
      </trkpt>
      <trkpt lat="44.07949" lon="6.33676">
        <ele>1524.074</ele>
        <time>2022-08-24T13:24:11Z</time>
      </trkpt>
      <trkpt lat="44.07943" lon="6.33677">
        <ele>1524.41</ele>
        <time>2022-08-24T13:24:14Z</time>
      </trkpt>
      <trkpt lat="44.0794" lon="6.33677">
        <ele>1524.844</ele>
        <time>2022-08-24T13:24:15Z</time>
      </trkpt>
      <trkpt lat="44.07938" lon="6.33678">
        <ele>1525.257</ele>
        <time>2022-08-24T13:24:16Z</time>
      </trkpt>
      <trkpt lat="44.07933" lon="6.33678">
        <ele>1526.048</ele>
        <time>2022-08-24T13:24:18Z</time>
      </trkpt>
      <trkpt lat="44.07925" lon="6.33681">
        <ele>1526.661</ele>
        <time>2022-08-24T13:24:21Z</time>
      </trkpt>
      <trkpt lat="44.07919" lon="6.33681">
        <ele>1527.217</ele>
        <time>2022-08-24T13:24:23Z</time>
      </trkpt>
      <trkpt lat="44.07912" lon="6.3368">
        <ele>1527.809</ele>
        <time>2022-08-24T13:24:26Z</time>
      </trkpt>
      <trkpt lat="44.07911" lon="6.3368">
        <ele>1527.875</ele>
        <time>2022-08-24T13:24:27Z</time>
      </trkpt>
      <trkpt lat="44.07906" lon="6.33681">
        <ele>1528.035</ele>
        <time>2022-08-24T13:24:29Z</time>
      </trkpt>
      <trkpt lat="44.07901" lon="6.33683">
        <ele>1528.255</ele>
        <time>2022-08-24T13:24:31Z</time>
      </trkpt>
      <trkpt lat="44.07898" lon="6.33683">
        <ele>1528.491</ele>
        <time>2022-08-24T13:24:32Z</time>
      </trkpt>
      <trkpt lat="44.0789" lon="6.33681">
        <ele>1529.464</ele>
        <time>2022-08-24T13:24:36Z</time>
      </trkpt>
      <trkpt lat="44.07879" lon="6.33681">
        <ele>1529.637</ele>
        <time>2022-08-24T13:24:40Z</time>
      </trkpt>
      <trkpt lat="44.07876" lon="6.3368">
        <ele>1529.893</ele>
        <time>2022-08-24T13:24:41Z</time>
      </trkpt>
      <trkpt lat="44.07867" lon="6.3368">
        <ele>1530.867</ele>
        <time>2022-08-24T13:24:44Z</time>
      </trkpt>
      <trkpt lat="44.0786" lon="6.33679">
        <ele>1531.02</ele>
        <time>2022-08-24T13:24:46Z</time>
      </trkpt>
      <trkpt lat="44.07854" lon="6.33678">
        <ele>1531.654</ele>
        <time>2022-08-24T13:24:48Z</time>
      </trkpt>
      <trkpt lat="44.07851" lon="6.33677">
        <ele>1532.456</ele>
        <time>2022-08-24T13:24:49Z</time>
      </trkpt>
      <trkpt lat="44.07843" lon="6.33676">
        <ele>1533.011</ele>
        <time>2022-08-24T13:24:52Z</time>
      </trkpt>
      <trkpt lat="44.07835" lon="6.33676">
        <ele>1533.409</ele>
        <time>2022-08-24T13:24:56Z</time>
      </trkpt>
      <trkpt lat="44.07831" lon="6.33677">
        <ele>1533.646</ele>
        <time>2022-08-24T13:24:58Z</time>
      </trkpt>
      <trkpt lat="44.07824" lon="6.33677">
        <ele>1534.816</ele>
        <time>2022-08-24T13:25:01Z</time>
      </trkpt>
      <trkpt lat="44.07823" lon="6.33677">
        <ele>1535.086</ele>
        <time>2022-08-24T13:25:02Z</time>
      </trkpt>
      <trkpt lat="44.07821" lon="6.33677">
        <ele>1535.442</ele>
        <time>2022-08-24T13:25:04Z</time>
      </trkpt>
      <trkpt lat="44.07821" lon="6.33677">
        <ele>1536.065</ele>
        <time>2022-08-24T13:25:08Z</time>
      </trkpt>
      <trkpt lat="44.07821" lon="6.33677">
        <ele>1536.458</ele>
        <time>2022-08-24T13:25:09Z</time>
      </trkpt>
      <trkpt lat="44.07827" lon="6.33677">
        <ele>1537.484</ele>
        <time>2022-08-24T13:25:13Z</time>
      </trkpt>
      <trkpt lat="44.07831" lon="6.33678">
        <ele>1537.858</ele>
        <time>2022-08-24T13:25:15Z</time>
      </trkpt>
      <trkpt lat="44.07833" lon="6.33682">
        <ele>1538.211</ele>
        <time>2022-08-24T13:25:17Z</time>
      </trkpt>
      <trkpt lat="44.07836" lon="6.33684">
        <ele>1538.454</ele>
        <time>2022-08-24T13:25:19Z</time>
      </trkpt>
      <trkpt lat="44.07843" lon="6.33687">
        <ele>1539.456</ele>
        <time>2022-08-24T13:25:23Z</time>
      </trkpt>
      <trkpt lat="44.07845" lon="6.33688">
        <ele>1539.811</ele>
        <time>2022-08-24T13:25:24Z</time>
      </trkpt>
      <trkpt lat="44.07853" lon="6.33692">
        <ele>1540.809</ele>
        <time>2022-08-24T13:25:28Z</time>
      </trkpt>
      <trkpt lat="44.07859" lon="6.33694">
        <ele>1542.076</ele>
        <time>2022-08-24T13:25:31Z</time>
      </trkpt>
      <trkpt lat="44.07863" lon="6.33697">
        <ele>1542.476</ele>
        <time>2022-08-24T13:25:33Z</time>
      </trkpt>
      <trkpt lat="44.07869" lon="6.33702">
        <ele>1543.056</ele>
        <time>2022-08-24T13:25:36Z</time>
      </trkpt>
      <trkpt lat="44.07874" lon="6.33704">
        <ele>1544.252</ele>
        <time>2022-08-24T13:25:38Z</time>
      </trkpt>
      <trkpt lat="44.07877" lon="6.33706">
        <ele>1544.835</ele>
        <time>2022-08-24T13:25:40Z</time>
      </trkpt>
      <trkpt lat="44.0788" lon="6.33709">
        <ele>1545.438</ele>
        <time>2022-08-24T13:25:42Z</time>
      </trkpt>
      <trkpt lat="44.07884" lon="6.33711">
        <ele>1546.414</ele>
        <time>2022-08-24T13:25:45Z</time>
      </trkpt>
      <trkpt lat="44.07886" lon="6.33711">
        <ele>1546.628</ele>
        <time>2022-08-24T13:25:46Z</time>
      </trkpt>
      <trkpt lat="44.07895" lon="6.33713">
        <ele>1547.621</ele>
        <time>2022-08-24T13:25:51Z</time>
      </trkpt>
      <trkpt lat="44.07897" lon="6.33713">
        <ele>1547.861</ele>
        <time>2022-08-24T13:25:52Z</time>
      </trkpt>
      <trkpt lat="44.079" lon="6.33714">
        <ele>1548.821</ele>
        <time>2022-08-24T13:25:54Z</time>
      </trkpt>
      <trkpt lat="44.07905" lon="6.33719">
        <ele>1549.613</ele>
        <time>2022-08-24T13:25:57Z</time>
      </trkpt>
      <trkpt lat="44.07911" lon="6.33726">
        <ele>1550.009</ele>
        <time>2022-08-24T13:26:01Z</time>
      </trkpt>
      <trkpt lat="44.07912" lon="6.33727">
        <ele>1550.247</ele>
        <time>2022-08-24T13:26:02Z</time>
      </trkpt>
      <trkpt lat="44.07913" lon="6.33728">
        <ele>1551.237</ele>
        <time>2022-08-24T13:26:04Z</time>
      </trkpt>
      <trkpt lat="44.07913" lon="6.33728">
        <ele>1551.467</ele>
        <time>2022-08-24T13:26:05Z</time>
      </trkpt>
      <trkpt lat="44.07914" lon="6.33729">
        <ele>1551.813</ele>
        <time>2022-08-24T13:26:06Z</time>
      </trkpt>
      <trkpt lat="44.07915" lon="6.33729">
        <ele>1552.486</ele>
        <time>2022-08-24T13:26:09Z</time>
      </trkpt>
      <trkpt lat="44.0792" lon="6.33729">
        <ele>1551.659</ele>
        <time>2022-08-24T13:26:23Z</time>
      </trkpt>
      <trkpt lat="44.07923" lon="6.3373">
        <ele>1552.045</ele>
        <time>2022-08-24T13:26:24Z</time>
      </trkpt>
      <trkpt lat="44.07929" lon="6.33733">
        <ele>1553.499</ele>
        <time>2022-08-24T13:26:28Z</time>
      </trkpt>
      <trkpt lat="44.07939" lon="6.33735">
        <ele>1554.242</ele>
        <time>2022-08-24T13:26:32Z</time>
      </trkpt>
      <trkpt lat="44.07941" lon="6.33735">
        <ele>1554.641</ele>
        <time>2022-08-24T13:26:33Z</time>
      </trkpt>
      <trkpt lat="44.07945" lon="6.33733">
        <ele>1555.881</ele>
        <time>2022-08-24T13:26:36Z</time>
      </trkpt>
      <trkpt lat="44.07945" lon="6.33733">
        <ele>1556.209</ele>
        <time>2022-08-24T13:26:37Z</time>
      </trkpt>
      <trkpt lat="44.07946" lon="6.33733">
        <ele>1556.809</ele>
        <time>2022-08-24T13:26:38Z</time>
      </trkpt>
      <trkpt lat="44.0795" lon="6.33734">
        <ele>1557.865</ele>
        <time>2022-08-24T13:26:41Z</time>
      </trkpt>
      <trkpt lat="44.07954" lon="6.33736">
        <ele>1558.295</ele>
        <time>2022-08-24T13:26:43Z</time>
      </trkpt>
      <trkpt lat="44.0796" lon="6.33739">
        <ele>1558.845</ele>
        <time>2022-08-24T13:26:46Z</time>
      </trkpt>
      <trkpt lat="44.07962" lon="6.33741">
        <ele>1559.061</ele>
        <time>2022-08-24T13:26:47Z</time>
      </trkpt>
      <trkpt lat="44.07969" lon="6.33742">
        <ele>1560.044</ele>
        <time>2022-08-24T13:26:51Z</time>
      </trkpt>
      <trkpt lat="44.0797" lon="6.33742">
        <ele>1560.267</ele>
        <time>2022-08-24T13:26:52Z</time>
      </trkpt>
      <trkpt lat="44.07972" lon="6.33743">
        <ele>1560.873</ele>
        <time>2022-08-24T13:26:53Z</time>
      </trkpt>
      <trkpt lat="44.07977" lon="6.33745">
        <ele>1561.477</ele>
        <time>2022-08-24T13:26:55Z</time>
      </trkpt>
      <trkpt lat="44.07982" lon="6.33748">
        <ele>1561.87</ele>
        <time>2022-08-24T13:26:59Z</time>
      </trkpt>
      <trkpt lat="44.07987" lon="6.33751">
        <ele>1562.881</ele>
        <time>2022-08-24T13:27:02Z</time>
      </trkpt>
      <trkpt lat="44.07989" lon="6.33751">
        <ele>1563.061</ele>
        <time>2022-08-24T13:27:03Z</time>
      </trkpt>
      <trkpt lat="44.07991" lon="6.33752">
        <ele>1563.417</ele>
        <time>2022-08-24T13:27:05Z</time>
      </trkpt>
      <trkpt lat="44.07994" lon="6.33753">
        <ele>1563.809</ele>
        <time>2022-08-24T13:27:07Z</time>
      </trkpt>
      <trkpt lat="44.07997" lon="6.33755">
        <ele>1564.269</ele>
        <time>2022-08-24T13:27:09Z</time>
      </trkpt>
      <trkpt lat="44.08006" lon="6.33759">
        <ele>1564.899</ele>
        <time>2022-08-24T13:27:15Z</time>
      </trkpt>
      <trkpt lat="44.08007" lon="6.3376">
        <ele>1565.059</ele>
        <time>2022-08-24T13:27:16Z</time>
      </trkpt>
      <trkpt lat="44.08011" lon="6.33763">
        <ele>1566.235</ele>
        <time>2022-08-24T13:27:19Z</time>
      </trkpt>
      <trkpt lat="44.08012" lon="6.33763">
        <ele>1566.478</ele>
        <time>2022-08-24T13:27:20Z</time>
      </trkpt>
      <trkpt lat="44.08015" lon="6.33765">
        <ele>1567.281</ele>
        <time>2022-08-24T13:27:22Z</time>
      </trkpt>
      <trkpt lat="44.0802" lon="6.33769">
        <ele>1568.237</ele>
        <time>2022-08-24T13:27:25Z</time>
      </trkpt>
      <trkpt lat="44.08025" lon="6.33769">
        <ele>1568.431</ele>
        <time>2022-08-24T13:27:28Z</time>
      </trkpt>
      <trkpt lat="44.08026" lon="6.33772">
        <ele>1569.454</ele>
        <time>2022-08-24T13:27:31Z</time>
      </trkpt>
      <trkpt lat="44.08024" lon="6.33772">
        <ele>1569.853</ele>
        <time>2022-08-24T13:27:32Z</time>
      </trkpt>
      <trkpt lat="44.08023" lon="6.33773">
        <ele>1570.604</ele>
        <time>2022-08-24T13:27:34Z</time>
      </trkpt>
      <trkpt lat="44.08023" lon="6.33773">
        <ele>1571.414</ele>
        <time>2022-08-24T13:27:35Z</time>
      </trkpt>
      <trkpt lat="44.08021" lon="6.33786">
        <ele>1570.609</ele>
        <time>2022-08-24T13:28:34Z</time>
      </trkpt>
      <trkpt lat="44.0802" lon="6.33786">
        <ele>1570.656</ele>
        <time>2022-08-24T13:28:35Z</time>
      </trkpt>
      <trkpt lat="44.08017" lon="6.33787">
        <ele>1571.236</ele>
        <time>2022-08-24T13:28:37Z</time>
      </trkpt>
      <trkpt lat="44.08014" lon="6.33788">
        <ele>1571.896</ele>
        <time>2022-08-24T13:28:39Z</time>
      </trkpt>
      <trkpt lat="44.0801" lon="6.33788">
        <ele>1573.432</ele>
        <time>2022-08-24T13:28:42Z</time>
      </trkpt>
      <trkpt lat="44.08004" lon="6.3379">
        <ele>1574.495</ele>
        <time>2022-08-24T13:28:46Z</time>
      </trkpt>
      <trkpt lat="44.08002" lon="6.3379">
        <ele>1574.438</ele>
        <time>2022-08-24T13:28:47Z</time>
      </trkpt>
      <trkpt lat="44.07994" lon="6.33789">
        <ele>1575.624</ele>
        <time>2022-08-24T13:28:52Z</time>
      </trkpt>
      <trkpt lat="44.07991" lon="6.3379">
        <ele>1576.858</ele>
        <time>2022-08-24T13:28:54Z</time>
      </trkpt>
      <trkpt lat="44.07985" lon="6.33793">
        <ele>1577.831</ele>
        <time>2022-08-24T13:28:57Z</time>
      </trkpt>
      <trkpt lat="44.07983" lon="6.33794">
        <ele>1578.063</ele>
        <time>2022-08-24T13:28:58Z</time>
      </trkpt>
      <trkpt lat="44.0798" lon="6.33795">
        <ele>1578.844</ele>
        <time>2022-08-24T13:29:00Z</time>
      </trkpt>
      <trkpt lat="44.07979" lon="6.33796">
        <ele>1579.418</ele>
        <time>2022-08-24T13:29:01Z</time>
      </trkpt>
      <trkpt lat="44.07977" lon="6.33797">
        <ele>1579.809</ele>
        <time>2022-08-24T13:29:02Z</time>
      </trkpt>
      <trkpt lat="44.07971" lon="6.33799">
        <ele>1580.887</ele>
        <time>2022-08-24T13:29:05Z</time>
      </trkpt>
      <trkpt lat="44.07964" lon="6.33798">
        <ele>1581.687</ele>
        <time>2022-08-24T13:29:08Z</time>
      </trkpt>
      <trkpt lat="44.07961" lon="6.33798">
        <ele>1582.047</ele>
        <time>2022-08-24T13:29:09Z</time>
      </trkpt>
      <trkpt lat="44.07957" lon="6.33798">
        <ele>1582.863</ele>
        <time>2022-08-24T13:29:11Z</time>
      </trkpt>
      <trkpt lat="44.07955" lon="6.33799">
        <ele>1583.236</ele>
        <time>2022-08-24T13:29:12Z</time>
      </trkpt>
      <trkpt lat="44.07946" lon="6.338">
        <ele>1584.449</ele>
        <time>2022-08-24T13:29:16Z</time>
      </trkpt>
      <trkpt lat="44.07942" lon="6.33802">
        <ele>1585.885</ele>
        <time>2022-08-24T13:29:19Z</time>
      </trkpt>
      <trkpt lat="44.07939" lon="6.33804">
        <ele>1587.049</ele>
        <time>2022-08-24T13:29:21Z</time>
      </trkpt>
      <trkpt lat="44.07936" lon="6.33806">
        <ele>1588.042</ele>
        <time>2022-08-24T13:29:23Z</time>
      </trkpt>
      <trkpt lat="44.07935" lon="6.33807">
        <ele>1588.246</ele>
        <time>2022-08-24T13:29:24Z</time>
      </trkpt>
      <trkpt lat="44.07934" lon="6.33807">
        <ele>1588.488</ele>
        <time>2022-08-24T13:29:25Z</time>
      </trkpt>
      <trkpt lat="44.07932" lon="6.33808">
        <ele>1588.416</ele>
        <time>2022-08-24T13:29:26Z</time>
      </trkpt>
      <trkpt lat="44.07928" lon="6.33811">
        <ele>1588.809</ele>
        <time>2022-08-24T13:29:28Z</time>
      </trkpt>
      <trkpt lat="44.07927" lon="6.33812">
        <ele>1589.845</ele>
        <time>2022-08-24T13:29:29Z</time>
      </trkpt>
      <trkpt lat="44.07923" lon="6.33814">
        <ele>1591.465</ele>
        <time>2022-08-24T13:29:31Z</time>
      </trkpt>
      <trkpt lat="44.07921" lon="6.33814">
        <ele>1591.885</ele>
        <time>2022-08-24T13:29:32Z</time>
      </trkpt>
      <trkpt lat="44.07918" lon="6.33814">
        <ele>1592.451</ele>
        <time>2022-08-24T13:29:33Z</time>
      </trkpt>
      <trkpt lat="44.07913" lon="6.33814">
        <ele>1593.224</ele>
        <time>2022-08-24T13:29:35Z</time>
      </trkpt>
      <trkpt lat="44.07911" lon="6.33813">
        <ele>1593.627</ele>
        <time>2022-08-24T13:29:36Z</time>
      </trkpt>
      <trkpt lat="44.07902" lon="6.33812">
        <ele>1595.653</ele>
        <time>2022-08-24T13:29:40Z</time>
      </trkpt>
      <trkpt lat="44.07898" lon="6.33812">
        <ele>1596.897</ele>
        <time>2022-08-24T13:29:42Z</time>
      </trkpt>
      <trkpt lat="44.07889" lon="6.33814">
        <ele>1598.23</ele>
        <time>2022-08-24T13:29:47Z</time>
      </trkpt>
      <trkpt lat="44.07881" lon="6.33815">
        <ele>1599.486</ele>
        <time>2022-08-24T13:29:51Z</time>
      </trkpt>
      <trkpt lat="44.0788" lon="6.33816">
        <ele>1600.46</ele>
        <time>2022-08-24T13:29:52Z</time>
      </trkpt>
      <trkpt lat="44.07878" lon="6.33816">
        <ele>1601.026</ele>
        <time>2022-08-24T13:29:53Z</time>
      </trkpt>
      <trkpt lat="44.07875" lon="6.33816">
        <ele>1601.609</ele>
        <time>2022-08-24T13:29:55Z</time>
      </trkpt>
      <trkpt lat="44.07874" lon="6.33816">
        <ele>1601.679</ele>
        <time>2022-08-24T13:29:56Z</time>
      </trkpt>
      <trkpt lat="44.07873" lon="6.33815">
        <ele>1601.659</ele>
        <time>2022-08-24T13:29:57Z</time>
      </trkpt>
      <trkpt lat="44.0787" lon="6.33816">
        <ele>1602.489</ele>
        <time>2022-08-24T13:30:00Z</time>
      </trkpt>
      <trkpt lat="44.0787" lon="6.33816">
        <ele>1602.645</ele>
        <time>2022-08-24T13:30:01Z</time>
      </trkpt>
      <trkpt lat="44.07883" lon="6.33825">
        <ele>1616.628</ele>
        <time>2022-08-24T13:37:24Z</time>
      </trkpt>
      <trkpt lat="44.07884" lon="6.33827">
        <ele>1616.891</ele>
        <time>2022-08-24T13:37:25Z</time>
      </trkpt>
      <trkpt lat="44.07886" lon="6.33827">
        <ele>1616.837</ele>
        <time>2022-08-24T13:37:26Z</time>
      </trkpt>
      <trkpt lat="44.07893" lon="6.33825">
        <ele>1617.611</ele>
        <time>2022-08-24T13:37:30Z</time>
      </trkpt>
      <trkpt lat="44.07896" lon="6.33825">
        <ele>1617.864</ele>
        <time>2022-08-24T13:37:31Z</time>
      </trkpt>
      <trkpt lat="44.07904" lon="6.33829">
        <ele>1618.817</ele>
        <time>2022-08-24T13:37:35Z</time>
      </trkpt>
      <trkpt lat="44.07908" lon="6.33831">
        <ele>1620.487</ele>
        <time>2022-08-24T13:37:38Z</time>
      </trkpt>
      <trkpt lat="44.07909" lon="6.33831">
        <ele>1621.815</ele>
        <time>2022-08-24T13:37:40Z</time>
      </trkpt>
      <trkpt lat="44.07909" lon="6.33832">
        <ele>1622.209</ele>
        <time>2022-08-24T13:37:42Z</time>
      </trkpt>
      <trkpt lat="44.07905" lon="6.33835">
        <ele>1623.472</ele>
        <time>2022-08-24T13:37:58Z</time>
      </trkpt>
      <trkpt lat="44.07904" lon="6.33835">
        <ele>1623.452</ele>
        <time>2022-08-24T13:37:59Z</time>
      </trkpt>
      <trkpt lat="44.07902" lon="6.33836">
        <ele>1623.492</ele>
        <time>2022-08-24T13:38:00Z</time>
      </trkpt>
      <trkpt lat="44.07899" lon="6.33837">
        <ele>1624.628</ele>
        <time>2022-08-24T13:38:02Z</time>
      </trkpt>
      <trkpt lat="44.07895" lon="6.3384">
        <ele>1625.841</ele>
        <time>2022-08-24T13:38:05Z</time>
      </trkpt>
      <trkpt lat="44.07893" lon="6.33843">
        <ele>1627.084</ele>
        <time>2022-08-24T13:38:07Z</time>
      </trkpt>
      <trkpt lat="44.07888" lon="6.33846">
        <ele>1628.21</ele>
        <time>2022-08-24T13:38:10Z</time>
      </trkpt>
      <trkpt lat="44.07881" lon="6.3385">
        <ele>1629.694</ele>
        <time>2022-08-24T13:38:15Z</time>
      </trkpt>
      <trkpt lat="44.07881" lon="6.3385">
        <ele>1630.027</ele>
        <time>2022-08-24T13:38:16Z</time>
      </trkpt>
      <trkpt lat="44.07949" lon="6.33865">
        <ele>1657.072</ele>
        <time>2022-08-24T14:05:15Z</time>
      </trkpt>
      <trkpt lat="44.07951" lon="6.33865">
        <ele>1657.013</ele>
        <time>2022-08-24T14:05:16Z</time>
      </trkpt>
      <trkpt lat="44.07952" lon="6.33865">
        <ele>1657.014</ele>
        <time>2022-08-24T14:05:17Z</time>
      </trkpt>
      <trkpt lat="44.07955" lon="6.33864">
        <ele>1657.609</ele>
        <time>2022-08-24T14:05:19Z</time>
      </trkpt>
      <trkpt lat="44.07958" lon="6.33863">
        <ele>1658.068</ele>
        <time>2022-08-24T14:05:21Z</time>
      </trkpt>
      <trkpt lat="44.07959" lon="6.33863">
        <ele>1658.488</ele>
        <time>2022-08-24T14:05:22Z</time>
      </trkpt>
      <trkpt lat="44.0796" lon="6.33863">
        <ele>1659.498</ele>
        <time>2022-08-24T14:05:23Z</time>
      </trkpt>
      <trkpt lat="44.07963" lon="6.33863">
        <ele>1660.454</ele>
        <time>2022-08-24T14:05:25Z</time>
      </trkpt>
      <trkpt lat="44.07965" lon="6.33863">
        <ele>1660.647</ele>
        <time>2022-08-24T14:05:26Z</time>
      </trkpt>
      <trkpt lat="44.07969" lon="6.33864">
        <ele>1662.02</ele>
        <time>2022-08-24T14:05:29Z</time>
      </trkpt>
      <trkpt lat="44.07972" lon="6.33865">
        <ele>1662.676</ele>
        <time>2022-08-24T14:05:33Z</time>
      </trkpt>
      <trkpt lat="44.08003" lon="6.33867">
        <ele>1671.66</ele>
        <time>2022-08-24T14:11:08Z</time>
      </trkpt>
      <trkpt lat="44.08006" lon="6.33867">
        <ele>1671.643</ele>
        <time>2022-08-24T14:11:09Z</time>
      </trkpt>
      <trkpt lat="44.08014" lon="6.33866">
        <ele>1670.647</ele>
        <time>2022-08-24T14:11:12Z</time>
      </trkpt>
      <trkpt lat="44.08016" lon="6.33866">
        <ele>1670.229</ele>
        <time>2022-08-24T14:11:13Z</time>
      </trkpt>
      <trkpt lat="44.08019" lon="6.33866">
        <ele>1669.421</ele>
        <time>2022-08-24T14:11:14Z</time>
      </trkpt>
      <trkpt lat="44.08031" lon="6.33871">
        <ele>1668.209</ele>
        <time>2022-08-24T14:11:17Z</time>
      </trkpt>
      <trkpt lat="44.08037" lon="6.33874">
        <ele>1668.055</ele>
        <time>2022-08-24T14:11:18Z</time>
      </trkpt>
      <trkpt lat="44.08049" lon="6.33874">
        <ele>1667.025</ele>
        <time>2022-08-24T14:11:20Z</time>
      </trkpt>
      <trkpt lat="44.08056" lon="6.33874">
        <ele>1665.815</ele>
        <time>2022-08-24T14:11:22Z</time>
      </trkpt>
      <trkpt lat="44.08059" lon="6.33874">
        <ele>1665.691</ele>
        <time>2022-08-24T14:11:23Z</time>
      </trkpt>
      <trkpt lat="44.08067" lon="6.33877">
        <ele>1667.244</ele>
        <time>2022-08-24T14:11:27Z</time>
      </trkpt>
      <trkpt lat="44.08069" lon="6.33878">
        <ele>1668.227</ele>
        <time>2022-08-24T14:11:28Z</time>
      </trkpt>
      <trkpt lat="44.08074" lon="6.33881">
        <ele>1669.273</ele>
        <time>2022-08-24T14:11:31Z</time>
      </trkpt>
      <trkpt lat="44.08075" lon="6.33881">
        <ele>1669.467</ele>
        <time>2022-08-24T14:11:32Z</time>
      </trkpt>
      <trkpt lat="44.08075" lon="6.33882">
        <ele>1669.49</ele>
        <time>2022-08-24T14:11:33Z</time>
      </trkpt>
      <trkpt lat="44.08081" lon="6.33891">
        <ele>1669.258</ele>
        <time>2022-08-24T14:11:38Z</time>
      </trkpt>
      <trkpt lat="44.08091" lon="6.33897">
        <ele>1670.452</ele>
        <time>2022-08-24T14:11:43Z</time>
      </trkpt>
      <trkpt lat="44.08096" lon="6.339">
        <ele>1670.817</ele>
        <time>2022-08-24T14:11:45Z</time>
      </trkpt>
      <trkpt lat="44.08105" lon="6.33906">
        <ele>1671.609</ele>
        <time>2022-08-24T14:11:48Z</time>
      </trkpt>
      <trkpt lat="44.0811" lon="6.3391">
        <ele>1672.056</ele>
        <time>2022-08-24T14:11:50Z</time>
      </trkpt>
      <trkpt lat="44.08114" lon="6.33912">
        <ele>1672.616</ele>
        <time>2022-08-24T14:11:52Z</time>
      </trkpt>
      <trkpt lat="44.08117" lon="6.33912">
        <ele>1673.286</ele>
        <time>2022-08-24T14:11:54Z</time>
      </trkpt>
      <trkpt lat="44.08118" lon="6.33912">
        <ele>1673.632</ele>
        <time>2022-08-24T14:11:56Z</time>
      </trkpt>
      <trkpt lat="44.08113" lon="6.33911">
        <ele>1674.055</ele>
        <time>2022-08-24T14:13:22Z</time>
      </trkpt>
      <trkpt lat="44.0811" lon="6.3391">
        <ele>1674.098</ele>
        <time>2022-08-24T14:13:23Z</time>
      </trkpt>
      <trkpt lat="44.08095" lon="6.33902">
        <ele>1673.454</ele>
        <time>2022-08-24T14:13:27Z</time>
      </trkpt>
      <trkpt lat="44.08085" lon="6.33897">
        <ele>1672.458</ele>
        <time>2022-08-24T14:13:30Z</time>
      </trkpt>
      <trkpt lat="44.08081" lon="6.33894">
        <ele>1672.461</ele>
        <time>2022-08-24T14:13:31Z</time>
      </trkpt>
      <trkpt lat="44.08067" lon="6.33884">
        <ele>1671.284</ele>
        <time>2022-08-24T14:13:35Z</time>
      </trkpt>
      <trkpt lat="44.08057" lon="6.33883">
        <ele>1670.807</ele>
        <time>2022-08-24T14:13:38Z</time>
      </trkpt>
      <trkpt lat="44.08052" lon="6.33881">
        <ele>1670.417</ele>
        <time>2022-08-24T14:13:39Z</time>
      </trkpt>
      <trkpt lat="44.08045" lon="6.3388">
        <ele>1669.809</ele>
        <time>2022-08-24T14:13:40Z</time>
      </trkpt>
      <trkpt lat="44.08033" lon="6.33876">
        <ele>1668.259</ele>
        <time>2022-08-24T14:13:42Z</time>
      </trkpt>
      <trkpt lat="44.08027" lon="6.33876">
        <ele>1666.879</ele>
        <time>2022-08-24T14:13:44Z</time>
      </trkpt>
      <trkpt lat="44.08026" lon="6.33875">
        <ele>1666.459</ele>
        <time>2022-08-24T14:13:45Z</time>
      </trkpt>
      <trkpt lat="44.08026" lon="6.33874">
        <ele>1666.465</ele>
        <time>2022-08-24T14:13:46Z</time>
      </trkpt>
      <trkpt lat="44.08032" lon="6.33876">
        <ele>1666.818</ele>
        <time>2022-08-24T14:14:14Z</time>
      </trkpt>
      <trkpt lat="44.08037" lon="6.33877">
        <ele>1666.641</ele>
        <time>2022-08-24T14:14:15Z</time>
      </trkpt>
      <trkpt lat="44.08043" lon="6.33878">
        <ele>1666.427</ele>
        <time>2022-08-24T14:14:16Z</time>
      </trkpt>
      <trkpt lat="44.08056" lon="6.33877">
        <ele>1666.291</ele>
        <time>2022-08-24T14:14:19Z</time>
      </trkpt>
      <trkpt lat="44.08066" lon="6.33877">
        <ele>1668.274</ele>
        <time>2022-08-24T14:14:22Z</time>
      </trkpt>
      <trkpt lat="44.08071" lon="6.33879">
        <ele>1668.847</ele>
        <time>2022-08-24T14:14:24Z</time>
      </trkpt>
      <trkpt lat="44.08074" lon="6.33881">
        <ele>1669.029</ele>
        <time>2022-08-24T14:14:25Z</time>
      </trkpt>
      <trkpt lat="44.08077" lon="6.33885">
        <ele>1669.221</ele>
        <time>2022-08-24T14:14:26Z</time>
      </trkpt>
      <trkpt lat="44.08084" lon="6.33891">
        <ele>1669.609</ele>
        <time>2022-08-24T14:14:28Z</time>
      </trkpt>
      <trkpt lat="44.08091" lon="6.33895">
        <ele>1670.485</ele>
        <time>2022-08-24T14:14:30Z</time>
      </trkpt>
      <trkpt lat="44.08101" lon="6.33902">
        <ele>1671.845</ele>
        <time>2022-08-24T14:14:33Z</time>
      </trkpt>
      <trkpt lat="44.08105" lon="6.33905">
        <ele>1672.615</ele>
        <time>2022-08-24T14:14:34Z</time>
      </trkpt>
      <trkpt lat="44.08109" lon="6.33907">
        <ele>1673.041</ele>
        <time>2022-08-24T14:14:35Z</time>
      </trkpt>
      <trkpt lat="44.08114" lon="6.33913">
        <ele>1674.254</ele>
        <time>2022-08-24T14:14:37Z</time>
      </trkpt>
      <trkpt lat="44.08116" lon="6.33915">
        <ele>1674.437</ele>
        <time>2022-08-24T14:14:38Z</time>
      </trkpt>
      <trkpt lat="44.08116" lon="6.33914">
        <ele>1675.033</ele>
        <time>2022-08-24T14:14:41Z</time>
      </trkpt>
      <trkpt lat="44.08061" lon="6.33891">
        <ele>1688.067</ele>
        <time>2022-08-24T14:21:08Z</time>
      </trkpt>
      <trkpt lat="44.08064" lon="6.33891">
        <ele>1688.08</ele>
        <time>2022-08-24T14:21:09Z</time>
      </trkpt>
      <trkpt lat="44.08067" lon="6.33893">
        <ele>1688.088</ele>
        <time>2022-08-24T14:21:10Z</time>
      </trkpt>
      <trkpt lat="44.08071" lon="6.33897">
        <ele>1687.824</ele>
        <time>2022-08-24T14:21:12Z</time>
      </trkpt>
      <trkpt lat="44.08079" lon="6.33901">
        <ele>1686.226</ele>
        <time>2022-08-24T14:21:15Z</time>
      </trkpt>
      <trkpt lat="44.08082" lon="6.33903">
        <ele>1684.609</ele>
        <time>2022-08-24T14:21:16Z</time>
      </trkpt>
      <trkpt lat="44.08086" lon="6.33905">
        <ele>1683.439</ele>
        <time>2022-08-24T14:21:18Z</time>
      </trkpt>
      <trkpt lat="44.08087" lon="6.33907">
        <ele>1682.459</ele>
        <time>2022-08-24T14:21:20Z</time>
      </trkpt>
      <trkpt lat="44.08087" lon="6.33907">
        <ele>1682.029</ele>
        <time>2022-08-24T14:21:21Z</time>
      </trkpt>
      <trkpt lat="44.08101" lon="6.33913">
        <ele>1678.695</ele>
        <time>2022-08-24T14:21:53Z</time>
      </trkpt>
      <trkpt lat="44.08102" lon="6.33914">
        <ele>1678.048</ele>
        <time>2022-08-24T14:21:55Z</time>
      </trkpt>
      <trkpt lat="44.08104" lon="6.33915">
        <ele>1678.061</ele>
        <time>2022-08-24T14:21:57Z</time>
      </trkpt>
      <trkpt lat="44.08109" lon="6.33917">
        <ele>1677.227</ele>
        <time>2022-08-24T14:22:01Z</time>
      </trkpt>
      <trkpt lat="44.08109" lon="6.33917">
        <ele>1676.011</ele>
        <time>2022-08-24T14:22:03Z</time>
      </trkpt>
      <trkpt lat="44.08109" lon="6.33917">
        <ele>1675.654</ele>
        <time>2022-08-24T14:22:04Z</time>
      </trkpt>
      <trkpt lat="44.08113" lon="6.33914">
        <ele>1674.412</ele>
        <time>2022-08-24T14:22:12Z</time>
      </trkpt>
      <trkpt lat="44.08116" lon="6.33911">
        <ele>1674.032</ele>
        <time>2022-08-24T14:22:14Z</time>
      </trkpt>
      <trkpt lat="44.08117" lon="6.33912">
        <ele>1674.005</ele>
        <time>2022-08-24T14:22:15Z</time>
      </trkpt>
      <trkpt lat="44.08116" lon="6.33912">
        <ele>1674.009</ele>
        <time>2022-08-24T14:22:17Z</time>
      </trkpt>
      <trkpt lat="44.08116" lon="6.3392">
        <ele>1673.652</ele>
        <time>2022-08-24T14:23:51Z</time>
      </trkpt>
      <trkpt lat="44.08115" lon="6.33922">
        <ele>1673.462</ele>
        <time>2022-08-24T14:23:52Z</time>
      </trkpt>
      <trkpt lat="44.08106" lon="6.3393">
        <ele>1672.832</ele>
        <time>2022-08-24T14:23:56Z</time>
      </trkpt>
      <trkpt lat="44.08104" lon="6.33932">
        <ele>1672.098</ele>
        <time>2022-08-24T14:23:57Z</time>
      </trkpt>
      <trkpt lat="44.08097" lon="6.33939">
        <ele>1670.871</ele>
        <time>2022-08-24T14:24:00Z</time>
      </trkpt>
      <trkpt lat="44.08095" lon="6.33942">
        <ele>1670.034</ele>
        <time>2022-08-24T14:24:02Z</time>
      </trkpt>
      <trkpt lat="44.08096" lon="6.33942">
        <ele>1669.81</ele>
        <time>2022-08-24T14:24:03Z</time>
      </trkpt>
      <trkpt lat="44.08102" lon="6.33943">
        <ele>1668.874</ele>
        <time>2022-08-24T14:24:05Z</time>
      </trkpt>
      <trkpt lat="44.08105" lon="6.33943">
        <ele>1668.437</ele>
        <time>2022-08-24T14:24:06Z</time>
      </trkpt>
      <trkpt lat="44.08115" lon="6.33944">
        <ele>1666.837</ele>
        <time>2022-08-24T14:24:09Z</time>
      </trkpt>
      <trkpt lat="44.08118" lon="6.33945">
        <ele>1666.049</ele>
        <time>2022-08-24T14:24:10Z</time>
      </trkpt>
      <trkpt lat="44.0812" lon="6.33945">
        <ele>1665.613</ele>
        <time>2022-08-24T14:24:11Z</time>
      </trkpt>
      <trkpt lat="44.08127" lon="6.33947">
        <ele>1664.209</ele>
        <time>2022-08-24T14:24:13Z</time>
      </trkpt>
      <trkpt lat="44.0813" lon="6.33947">
        <ele>1663.214</ele>
        <time>2022-08-24T14:24:14Z</time>
      </trkpt>
      <trkpt lat="44.08134" lon="6.33948">
        <ele>1662.614</ele>
        <time>2022-08-24T14:24:15Z</time>
      </trkpt>
      <trkpt lat="44.08137" lon="6.3395">
        <ele>1661.824</ele>
        <time>2022-08-24T14:24:16Z</time>
      </trkpt>
      <trkpt lat="44.08141" lon="6.33951">
        <ele>1661.29</ele>
        <time>2022-08-24T14:24:17Z</time>
      </trkpt>
      <trkpt lat="44.08145" lon="6.33953">
        <ele>1660.833</ele>
        <time>2022-08-24T14:24:18Z</time>
      </trkpt>
      <trkpt lat="44.08149" lon="6.33954">
        <ele>1660.896</ele>
        <time>2022-08-24T14:24:19Z</time>
      </trkpt>
      <trkpt lat="44.08154" lon="6.33955">
        <ele>1660.062</ele>
        <time>2022-08-24T14:24:20Z</time>
      </trkpt>
      <trkpt lat="44.08158" lon="6.33957">
        <ele>1659.056</ele>
        <time>2022-08-24T14:24:21Z</time>
      </trkpt>
      <trkpt lat="44.08164" lon="6.33959">
        <ele>1657.649</ele>
        <time>2022-08-24T14:24:23Z</time>
      </trkpt>
      <trkpt lat="44.08171" lon="6.33962">
        <ele>1656.698</ele>
        <time>2022-08-24T14:24:25Z</time>
      </trkpt>
      <trkpt lat="44.08178" lon="6.33963">
        <ele>1656.015</ele>
        <time>2022-08-24T14:24:27Z</time>
      </trkpt>
      <trkpt lat="44.08181" lon="6.33963">
        <ele>1655.826</ele>
        <time>2022-08-24T14:24:28Z</time>
      </trkpt>
      <trkpt lat="44.08185" lon="6.33963">
        <ele>1655.409</ele>
        <time>2022-08-24T14:24:29Z</time>
      </trkpt>
      <trkpt lat="44.0819" lon="6.33967">
        <ele>1654.49</ele>
        <time>2022-08-24T14:24:31Z</time>
      </trkpt>
      <trkpt lat="44.08193" lon="6.33968">
        <ele>1653.83</ele>
        <time>2022-08-24T14:24:32Z</time>
      </trkpt>
      <trkpt lat="44.08196" lon="6.3397">
        <ele>1653.24</ele>
        <time>2022-08-24T14:24:33Z</time>
      </trkpt>
      <trkpt lat="44.08204" lon="6.33974">
        <ele>1652.446</ele>
        <time>2022-08-24T14:24:35Z</time>
      </trkpt>
      <trkpt lat="44.08209" lon="6.33975">
        <ele>1651.889</ele>
        <time>2022-08-24T14:24:36Z</time>
      </trkpt>
      <trkpt lat="44.08213" lon="6.33975">
        <ele>1651.822</ele>
        <time>2022-08-24T14:24:37Z</time>
      </trkpt>
      <trkpt lat="44.08222" lon="6.33978">
        <ele>1651.298</ele>
        <time>2022-08-24T14:24:39Z</time>
      </trkpt>
      <trkpt lat="44.0823" lon="6.33984">
        <ele>1649.652</ele>
        <time>2022-08-24T14:24:41Z</time>
      </trkpt>
      <trkpt lat="44.08235" lon="6.33988">
        <ele>1648.265</ele>
        <time>2022-08-24T14:24:42Z</time>
      </trkpt>
      <trkpt lat="44.08242" lon="6.33996">
        <ele>1646.673</ele>
        <time>2022-08-24T14:24:44Z</time>
      </trkpt>
      <trkpt lat="44.08243" lon="6.33998">
        <ele>1646.485</ele>
        <time>2022-08-24T14:24:45Z</time>
      </trkpt>
      <trkpt lat="44.08239" lon="6.34001">
        <ele>1646.013</ele>
        <time>2022-08-24T14:24:48Z</time>
      </trkpt>
      <trkpt lat="44.08226" lon="6.34004">
        <ele>1645.609</ele>
        <time>2022-08-24T14:24:51Z</time>
      </trkpt>
      <trkpt lat="44.0822" lon="6.34006">
        <ele>1644.268</ele>
        <time>2022-08-24T14:24:52Z</time>
      </trkpt>
      <trkpt lat="44.08215" lon="6.34009">
        <ele>1643.428</ele>
        <time>2022-08-24T14:24:53Z</time>
      </trkpt>
      <trkpt lat="44.0821" lon="6.34011">
        <ele>1643.048</ele>
        <time>2022-08-24T14:24:54Z</time>
      </trkpt>
      <trkpt lat="44.08205" lon="6.34013">
        <ele>1642.474</ele>
        <time>2022-08-24T14:24:55Z</time>
      </trkpt>
      <trkpt lat="44.08198" lon="6.34017">
        <ele>1641.447</ele>
        <time>2022-08-24T14:24:57Z</time>
      </trkpt>
      <trkpt lat="44.08196" lon="6.34019">
        <ele>1640.04</ele>
        <time>2022-08-24T14:24:58Z</time>
      </trkpt>
      <trkpt lat="44.08194" lon="6.34019">
        <ele>1638.476</ele>
        <time>2022-08-24T14:24:59Z</time>
      </trkpt>
      <trkpt lat="44.08194" lon="6.34019">
        <ele>1637.04</ele>
        <time>2022-08-24T14:25:00Z</time>
      </trkpt>
      <trkpt lat="44.08195" lon="6.34019">
        <ele>1636.263</ele>
        <time>2022-08-24T14:25:01Z</time>
      </trkpt>
      <trkpt lat="44.08197" lon="6.3402">
        <ele>1635.893</ele>
        <time>2022-08-24T14:25:02Z</time>
      </trkpt>
      <trkpt lat="44.08201" lon="6.34023">
        <ele>1635.265</ele>
        <time>2022-08-24T14:25:04Z</time>
      </trkpt>
      <trkpt lat="44.08204" lon="6.34027">
        <ele>1634.621</ele>
        <time>2022-08-24T14:25:06Z</time>
      </trkpt>
      <trkpt lat="44.08205" lon="6.34029">
        <ele>1634.209</ele>
        <time>2022-08-24T14:25:07Z</time>
      </trkpt>
      <trkpt lat="44.08206" lon="6.34031">
        <ele>1633.43</ele>
        <time>2022-08-24T14:25:08Z</time>
      </trkpt>
      <trkpt lat="44.08208" lon="6.34033">
        <ele>1632.67</ele>
        <time>2022-08-24T14:25:09Z</time>
      </trkpt>
      <trkpt lat="44.0821" lon="6.34035">
        <ele>1632.29</ele>
        <time>2022-08-24T14:25:10Z</time>
      </trkpt>
      <trkpt lat="44.08215" lon="6.3404">
        <ele>1631.076</ele>
        <time>2022-08-24T14:25:12Z</time>
      </trkpt>
      <trkpt lat="44.08221" lon="6.34043">
        <ele>1629.469</ele>
        <time>2022-08-24T14:25:14Z</time>
      </trkpt>
      <trkpt lat="44.08228" lon="6.34047">
        <ele>1628.212</ele>
        <time>2022-08-24T14:25:16Z</time>
      </trkpt>
      <trkpt lat="44.08234" lon="6.34052">
        <ele>1627.058</ele>
        <time>2022-08-24T14:25:18Z</time>
      </trkpt>
      <trkpt lat="44.08236" lon="6.34056">
        <ele>1626.492</ele>
        <time>2022-08-24T14:25:19Z</time>
      </trkpt>
      <trkpt lat="44.08241" lon="6.34064">
        <ele>1625.485</ele>
        <time>2022-08-24T14:25:21Z</time>
      </trkpt>
      <trkpt lat="44.08248" lon="6.34072">
        <ele>1623.887</ele>
        <time>2022-08-24T14:25:23Z</time>
      </trkpt>
      <trkpt lat="44.08255" lon="6.34079">
        <ele>1622.242</ele>
        <time>2022-08-24T14:25:25Z</time>
      </trkpt>
      <trkpt lat="44.08259" lon="6.34086">
        <ele>1620.626</ele>
        <time>2022-08-24T14:25:27Z</time>
      </trkpt>
      <trkpt lat="44.08261" lon="6.34088">
        <ele>1619.009</ele>
        <time>2022-08-24T14:25:28Z</time>
      </trkpt>
      <trkpt lat="44.08262" lon="6.34091">
        <ele>1618.039</ele>
        <time>2022-08-24T14:25:29Z</time>
      </trkpt>
      <trkpt lat="44.08262" lon="6.34092">
        <ele>1617.479</ele>
        <time>2022-08-24T14:25:30Z</time>
      </trkpt>
      <trkpt lat="44.08262" lon="6.34093">
        <ele>1617.099</ele>
        <time>2022-08-24T14:25:31Z</time>
      </trkpt>
      <trkpt lat="44.08262" lon="6.34093">
        <ele>1616.645</ele>
        <time>2022-08-24T14:25:32Z</time>
      </trkpt>
      <trkpt lat="44.08265" lon="6.34096">
        <ele>1616.078</ele>
        <time>2022-08-24T14:25:35Z</time>
      </trkpt>
      <trkpt lat="44.08271" lon="6.34098">
        <ele>1615.431</ele>
        <time>2022-08-24T14:25:37Z</time>
      </trkpt>
      <trkpt lat="44.08282" lon="6.34099">
        <ele>1615.037</ele>
        <time>2022-08-24T14:25:41Z</time>
      </trkpt>
      <trkpt lat="44.08288" lon="6.341">
        <ele>1615.091</ele>
        <time>2022-08-24T14:25:43Z</time>
      </trkpt>
      <trkpt lat="44.08291" lon="6.34101">
        <ele>1615.094</ele>
        <time>2022-08-24T14:25:44Z</time>
      </trkpt>
      <trkpt lat="44.08297" lon="6.34101">
        <ele>1615.215</ele>
        <time>2022-08-24T14:25:46Z</time>
      </trkpt>
      <trkpt lat="44.08299" lon="6.34102">
        <ele>1615.465</ele>
        <time>2022-08-24T14:25:47Z</time>
      </trkpt>
      <trkpt lat="44.08302" lon="6.34102">
        <ele>1615.411</ele>
        <time>2022-08-24T14:25:48Z</time>
      </trkpt>
      <trkpt lat="44.08312" lon="6.34102">
        <ele>1616.009</ele>
        <time>2022-08-24T14:25:52Z</time>
      </trkpt>
      <trkpt lat="44.08318" lon="6.34103">
        <ele>1616.632</ele>
        <time>2022-08-24T14:25:54Z</time>
      </trkpt>
      <trkpt lat="44.08328" lon="6.34103">
        <ele>1617.662</ele>
        <time>2022-08-24T14:25:58Z</time>
      </trkpt>
      <trkpt lat="44.08329" lon="6.34103">
        <ele>1617.432</ele>
        <time>2022-08-24T14:26:00Z</time>
      </trkpt>
      <trkpt lat="44.08333" lon="6.34105">
        <ele>1617.048</ele>
        <time>2022-08-24T14:26:07Z</time>
      </trkpt>
      <trkpt lat="44.08337" lon="6.34106">
        <ele>1617.241</ele>
        <time>2022-08-24T14:26:09Z</time>
      </trkpt>
      <trkpt lat="44.08338" lon="6.34106">
        <ele>1617.254</ele>
        <time>2022-08-24T14:26:11Z</time>
      </trkpt>
      <trkpt lat="44.08342" lon="6.34106">
        <ele>1616.08</ele>
        <time>2022-08-24T14:26:33Z</time>
      </trkpt>
      <trkpt lat="44.08344" lon="6.34106">
        <ele>1616.054</ele>
        <time>2022-08-24T14:26:34Z</time>
      </trkpt>
      <trkpt lat="44.08357" lon="6.34108">
        <ele>1616.697</ele>
        <time>2022-08-24T14:26:39Z</time>
      </trkpt>
      <trkpt lat="44.08379" lon="6.34109">
        <ele>1616.865</ele>
        <time>2022-08-24T14:26:46Z</time>
      </trkpt>
      <trkpt lat="44.08382" lon="6.34109">
        <ele>1617.068</ele>
        <time>2022-08-24T14:26:47Z</time>
      </trkpt>
      <trkpt lat="44.08394" lon="6.34111">
        <ele>1617.614</ele>
        <time>2022-08-24T14:26:51Z</time>
      </trkpt>
      <trkpt lat="44.0841" lon="6.34113">
        <ele>1617.409</ele>
        <time>2022-08-24T14:26:56Z</time>
      </trkpt>
      <trkpt lat="44.08427" lon="6.34115">
        <ele>1618.297</ele>
        <time>2022-08-24T14:27:02Z</time>
      </trkpt>
      <trkpt lat="44.08442" lon="6.34119">
        <ele>1618.257</ele>
        <time>2022-08-24T14:27:08Z</time>
      </trkpt>
      <trkpt lat="44.0845" lon="6.3412">
        <ele>1618.057</ele>
        <time>2022-08-24T14:27:11Z</time>
      </trkpt>
      <trkpt lat="44.08452" lon="6.3412">
        <ele>1617.873</ele>
        <time>2022-08-24T14:27:12Z</time>
      </trkpt>
      <trkpt lat="44.08454" lon="6.34119">
        <ele>1617.676</ele>
        <time>2022-08-24T14:27:13Z</time>
      </trkpt>
      <trkpt lat="44.08456" lon="6.34119">
        <ele>1617.469</ele>
        <time>2022-08-24T14:27:14Z</time>
      </trkpt>
      <trkpt lat="44.08465" lon="6.34118">
        <ele>1617.495</ele>
        <time>2022-08-24T14:27:18Z</time>
      </trkpt>
      <trkpt lat="44.08473" lon="6.34118">
        <ele>1618.089</ele>
        <time>2022-08-24T14:27:22Z</time>
      </trkpt>
      <trkpt lat="44.08477" lon="6.34117">
        <ele>1618.212</ele>
        <time>2022-08-24T14:27:24Z</time>
      </trkpt>
      <trkpt lat="44.08479" lon="6.34116">
        <ele>1618.274</ele>
        <time>2022-08-24T14:27:25Z</time>
      </trkpt>
      <trkpt lat="44.08492" lon="6.34116">
        <ele>1618.856</ele>
        <time>2022-08-24T14:27:31Z</time>
      </trkpt>
      <trkpt lat="44.08508" lon="6.34116">
        <ele>1619.221</ele>
        <time>2022-08-24T14:27:37Z</time>
      </trkpt>
      <trkpt lat="44.0851" lon="6.34116">
        <ele>1619.209</ele>
        <time>2022-08-24T14:27:38Z</time>
      </trkpt>
      <trkpt lat="44.0852" lon="6.34116">
        <ele>1619.258</ele>
        <time>2022-08-24T14:27:42Z</time>
      </trkpt>
      <trkpt lat="44.08523" lon="6.34116">
        <ele>1619.428</ele>
        <time>2022-08-24T14:27:43Z</time>
      </trkpt>
      <trkpt lat="44.08537" lon="6.34117">
        <ele>1619.488</ele>
        <time>2022-08-24T14:27:48Z</time>
      </trkpt>
      <trkpt lat="44.0854" lon="6.34117">
        <ele>1619.644</ele>
        <time>2022-08-24T14:27:49Z</time>
      </trkpt>
      <trkpt lat="44.08543" lon="6.34117">
        <ele>1619.657</ele>
        <time>2022-08-24T14:27:50Z</time>
      </trkpt>
      <trkpt lat="44.08556" lon="6.34118">
        <ele>1619.42</ele>
        <time>2022-08-24T14:27:54Z</time>
      </trkpt>
      <trkpt lat="44.08559" lon="6.34119">
        <ele>1619.626</ele>
        <time>2022-08-24T14:27:55Z</time>
      </trkpt>
      <trkpt lat="44.08574" lon="6.34119">
        <ele>1619.64</ele>
        <time>2022-08-24T14:28:01Z</time>
      </trkpt>
      <trkpt lat="44.08583" lon="6.34119">
        <ele>1620.213</ele>
        <time>2022-08-24T14:28:04Z</time>
      </trkpt>
      <trkpt lat="44.08585" lon="6.3412">
        <ele>1620.456</ele>
        <time>2022-08-24T14:28:05Z</time>
      </trkpt>
      <trkpt lat="44.0859" lon="6.34121">
        <ele>1620.659</ele>
        <time>2022-08-24T14:28:07Z</time>
      </trkpt>
      <trkpt lat="44.08597" lon="6.3412">
        <ele>1621.614</ele>
        <time>2022-08-24T14:28:10Z</time>
      </trkpt>
      <trkpt lat="44.08604" lon="6.3412">
        <ele>1621.809</ele>
        <time>2022-08-24T14:28:13Z</time>
      </trkpt>
      <trkpt lat="44.08621" lon="6.34121">
        <ele>1622.016</ele>
        <time>2022-08-24T14:28:19Z</time>
      </trkpt>
      <trkpt lat="44.08639" lon="6.34124">
        <ele>1621.836</ele>
        <time>2022-08-24T14:28:25Z</time>
      </trkpt>
      <trkpt lat="44.08656" lon="6.34125">
        <ele>1622.486</ele>
        <time>2022-08-24T14:28:30Z</time>
      </trkpt>
      <trkpt lat="44.08663" lon="6.34126">
        <ele>1622.662</ele>
        <time>2022-08-24T14:28:32Z</time>
      </trkpt>
      <trkpt lat="44.08667" lon="6.34125">
        <ele>1622.655</ele>
        <time>2022-08-24T14:28:33Z</time>
      </trkpt>
      <trkpt lat="44.08676" lon="6.34124">
        <ele>1622.858</ele>
        <time>2022-08-24T14:28:36Z</time>
      </trkpt>
      <trkpt lat="44.08691" lon="6.34122">
        <ele>1623.834</ele>
        <time>2022-08-24T14:28:41Z</time>
      </trkpt>
      <trkpt lat="44.08698" lon="6.34122">
        <ele>1624.068</ele>
        <time>2022-08-24T14:28:43Z</time>
      </trkpt>
      <trkpt lat="44.0871" lon="6.34118">
        <ele>1624.431</ele>
        <time>2022-08-24T14:28:47Z</time>
      </trkpt>
      <trkpt lat="44.08713" lon="6.34117">
        <ele>1624.838</ele>
        <time>2022-08-24T14:28:48Z</time>
      </trkpt>
      <trkpt lat="44.08716" lon="6.34117">
        <ele>1625.07</ele>
        <time>2022-08-24T14:28:49Z</time>
      </trkpt>
      <trkpt lat="44.08722" lon="6.34117">
        <ele>1625.217</ele>
        <time>2022-08-24T14:28:51Z</time>
      </trkpt>
      <trkpt lat="44.0873" lon="6.34116">
        <ele>1625.609</ele>
        <time>2022-08-24T14:28:54Z</time>
      </trkpt>
      <trkpt lat="44.08739" lon="6.34114">
        <ele>1626.074</ele>
        <time>2022-08-24T14:28:57Z</time>
      </trkpt>
      <trkpt lat="44.08746" lon="6.34114">
        <ele>1626.494</ele>
        <time>2022-08-24T14:28:59Z</time>
      </trkpt>
      <trkpt lat="44.08749" lon="6.34113">
        <ele>1626.024</ele>
        <time>2022-08-24T14:29:00Z</time>
      </trkpt>
      <trkpt lat="44.08752" lon="6.34113">
        <ele>1625.62</ele>
        <time>2022-08-24T14:29:01Z</time>
      </trkpt>
      <trkpt lat="44.08779" lon="6.3411">
        <ele>1626.833</ele>
        <time>2022-08-24T14:29:09Z</time>
      </trkpt>
      <trkpt lat="44.08805" lon="6.34108">
        <ele>1627.036</ele>
        <time>2022-08-24T14:29:16Z</time>
      </trkpt>
      <trkpt lat="44.08809" lon="6.34108">
        <ele>1627.292</ele>
        <time>2022-08-24T14:29:17Z</time>
      </trkpt>
      <trkpt lat="44.08826" lon="6.34107">
        <ele>1627.426</ele>
        <time>2022-08-24T14:29:22Z</time>
      </trkpt>
      <trkpt lat="44.08829" lon="6.34106">
        <ele>1627.459</ele>
        <time>2022-08-24T14:29:23Z</time>
      </trkpt>
      <trkpt lat="44.0884" lon="6.34104">
        <ele>1627.228</ele>
        <time>2022-08-24T14:29:27Z</time>
      </trkpt>
      <trkpt lat="44.08855" lon="6.34101">
        <ele>1628.289</ele>
        <time>2022-08-24T14:29:32Z</time>
      </trkpt>
      <trkpt lat="44.08858" lon="6.34102">
        <ele>1628.417</ele>
        <time>2022-08-24T14:29:33Z</time>
      </trkpt>
      <trkpt lat="44.08872" lon="6.34099">
        <ele>1628.809</ele>
        <time>2022-08-24T14:29:38Z</time>
      </trkpt>
      <trkpt lat="44.08888" lon="6.34097">
        <ele>1629.443</ele>
        <time>2022-08-24T14:29:44Z</time>
      </trkpt>
      <trkpt lat="44.08894" lon="6.34096">
        <ele>1630.233</ele>
        <time>2022-08-24T14:29:46Z</time>
      </trkpt>
      <trkpt lat="44.08901" lon="6.34095">
        <ele>1630.693</ele>
        <time>2022-08-24T14:29:48Z</time>
      </trkpt>
      <trkpt lat="44.08911" lon="6.34094">
        <ele>1630.829</ele>
        <time>2022-08-24T14:29:51Z</time>
      </trkpt>
      <trkpt lat="44.08933" lon="6.34092">
        <ele>1631.072</ele>
        <time>2022-08-24T14:29:57Z</time>
      </trkpt>
      <trkpt lat="44.08951" lon="6.3409">
        <ele>1631.215</ele>
        <time>2022-08-24T14:30:02Z</time>
      </trkpt>
      <trkpt lat="44.08955" lon="6.3409">
        <ele>1631.431</ele>
        <time>2022-08-24T14:30:03Z</time>
      </trkpt>
      <trkpt lat="44.08963" lon="6.34089">
        <ele>1631.825</ele>
        <time>2022-08-24T14:30:05Z</time>
      </trkpt>
      <trkpt lat="44.08971" lon="6.34088">
        <ele>1631.668</ele>
        <time>2022-08-24T14:30:07Z</time>
      </trkpt>
      <trkpt lat="44.09004" lon="6.34087">
        <ele>1631.693</ele>
        <time>2022-08-24T14:30:15Z</time>
      </trkpt>
      <trkpt lat="44.09022" lon="6.34088">
        <ele>1631.665</ele>
        <time>2022-08-24T14:30:20Z</time>
      </trkpt>
      <trkpt lat="44.09026" lon="6.34088">
        <ele>1631.821</ele>
        <time>2022-08-24T14:30:21Z</time>
      </trkpt>
      <trkpt lat="44.09033" lon="6.3409">
        <ele>1631.809</ele>
        <time>2022-08-24T14:30:23Z</time>
      </trkpt>
      <trkpt lat="44.09036" lon="6.3409">
        <ele>1631.84</ele>
        <time>2022-08-24T14:30:24Z</time>
      </trkpt>
      <trkpt lat="44.09042" lon="6.34091">
        <ele>1631.84</ele>
        <time>2022-08-24T14:30:26Z</time>
      </trkpt>
      <trkpt lat="44.09049" lon="6.34093">
        <ele>1630.63</ele>
        <time>2022-08-24T14:30:28Z</time>
      </trkpt>
      <trkpt lat="44.09053" lon="6.34094">
        <ele>1630.416</ele>
        <time>2022-08-24T14:30:29Z</time>
      </trkpt>
      <trkpt lat="44.09056" lon="6.34093">
        <ele>1630.249</ele>
        <time>2022-08-24T14:30:30Z</time>
      </trkpt>
      <trkpt lat="44.09067" lon="6.34092">
        <ele>1629.672</ele>
        <time>2022-08-24T14:30:34Z</time>
      </trkpt>
      <trkpt lat="44.09069" lon="6.34091">
        <ele>1629.288</ele>
        <time>2022-08-24T14:30:35Z</time>
      </trkpt>
      <trkpt lat="44.09087" lon="6.34088">
        <ele>1630.232</ele>
        <time>2022-08-24T14:30:41Z</time>
      </trkpt>
      <trkpt lat="44.09106" lon="6.34087">
        <ele>1630.675</ele>
        <time>2022-08-24T14:30:47Z</time>
      </trkpt>
      <trkpt lat="44.0911" lon="6.34087">
        <ele>1630.624</ele>
        <time>2022-08-24T14:30:48Z</time>
      </trkpt>
      <trkpt lat="44.09125" lon="6.34088">
        <ele>1630.804</ele>
        <time>2022-08-24T14:30:53Z</time>
      </trkpt>
      <trkpt lat="44.09138" lon="6.34092">
        <ele>1631.814</ele>
        <time>2022-08-24T14:30:57Z</time>
      </trkpt>
      <trkpt lat="44.09155" lon="6.34094">
        <ele>1631.809</ele>
        <time>2022-08-24T14:31:02Z</time>
      </trkpt>
      <trkpt lat="44.09162" lon="6.34096">
        <ele>1631.833</ele>
        <time>2022-08-24T14:31:04Z</time>
      </trkpt>
      <trkpt lat="44.0917" lon="6.34097">
        <ele>1631.813</ele>
        <time>2022-08-24T14:31:06Z</time>
      </trkpt>
      <trkpt lat="44.09173" lon="6.34097">
        <ele>1632.253</ele>
        <time>2022-08-24T14:31:07Z</time>
      </trkpt>
      <trkpt lat="44.09189" lon="6.34098">
        <ele>1632.219</ele>
        <time>2022-08-24T14:31:12Z</time>
      </trkpt>
      <trkpt lat="44.092" lon="6.34097">
        <ele>1632.432</ele>
        <time>2022-08-24T14:31:16Z</time>
      </trkpt>
      <trkpt lat="44.09205" lon="6.34098">
        <ele>1632.495</ele>
        <time>2022-08-24T14:31:18Z</time>
      </trkpt>
      <trkpt lat="44.09212" lon="6.34099">
        <ele>1632.871</ele>
        <time>2022-08-24T14:31:20Z</time>
      </trkpt>
      <trkpt lat="44.09223" lon="6.34103">
        <ele>1633.245</ele>
        <time>2022-08-24T14:31:24Z</time>
      </trkpt>
      <trkpt lat="44.0923" lon="6.34104">
        <ele>1633.888</ele>
        <time>2022-08-24T14:31:26Z</time>
      </trkpt>
      <trkpt lat="44.09238" lon="6.34106">
        <ele>1634.635</ele>
        <time>2022-08-24T14:31:29Z</time>
      </trkpt>
      <trkpt lat="44.09245" lon="6.34108">
        <ele>1634.886</ele>
        <time>2022-08-24T14:31:31Z</time>
      </trkpt>
      <trkpt lat="44.09262" lon="6.34111">
        <ele>1634.014</ele>
        <time>2022-08-24T14:31:37Z</time>
      </trkpt>
      <trkpt lat="44.09274" lon="6.34114">
        <ele>1633.809</ele>
        <time>2022-08-24T14:31:41Z</time>
      </trkpt>
      <trkpt lat="44.09277" lon="6.34115">
        <ele>1633.644</ele>
        <time>2022-08-24T14:31:42Z</time>
      </trkpt>
      <trkpt lat="44.09288" lon="6.34118">
        <ele>1633.614</ele>
        <time>2022-08-24T14:31:45Z</time>
      </trkpt>
      <trkpt lat="44.09292" lon="6.34119">
        <ele>1633.264</ele>
        <time>2022-08-24T14:31:46Z</time>
      </trkpt>
      <trkpt lat="44.09299" lon="6.34121">
        <ele>1632.86</ele>
        <time>2022-08-24T14:31:48Z</time>
      </trkpt>
      <trkpt lat="44.09305" lon="6.34123">
        <ele>1632.613</ele>
        <time>2022-08-24T14:31:50Z</time>
      </trkpt>
      <trkpt lat="44.09311" lon="6.34125">
        <ele>1632.486</ele>
        <time>2022-08-24T14:31:52Z</time>
      </trkpt>
      <trkpt lat="44.09317" lon="6.34128">
        <ele>1632.472</ele>
        <time>2022-08-24T14:31:54Z</time>
      </trkpt>
      <trkpt lat="44.09324" lon="6.34131">
        <ele>1632.076</ele>
        <time>2022-08-24T14:31:56Z</time>
      </trkpt>
      <trkpt lat="44.09331" lon="6.34135">
        <ele>1631.469</ele>
        <time>2022-08-24T14:31:58Z</time>
      </trkpt>
      <trkpt lat="44.09354" lon="6.34149">
        <ele>1631.481</ele>
        <time>2022-08-24T14:32:05Z</time>
      </trkpt>
      <trkpt lat="44.09367" lon="6.34158">
        <ele>1631.061</ele>
        <time>2022-08-24T14:32:10Z</time>
      </trkpt>
      <trkpt lat="44.0937" lon="6.34159">
        <ele>1630.617</ele>
        <time>2022-08-24T14:32:11Z</time>
      </trkpt>
      <trkpt lat="44.09387" lon="6.34167">
        <ele>1630.409</ele>
        <time>2022-08-24T14:32:17Z</time>
      </trkpt>
      <trkpt lat="44.09407" lon="6.34178">
        <ele>1629.889</ele>
        <time>2022-08-24T14:32:23Z</time>
      </trkpt>
      <trkpt lat="44.09411" lon="6.34181">
        <ele>1629.269</ele>
        <time>2022-08-24T14:32:24Z</time>
      </trkpt>
      <trkpt lat="44.09423" lon="6.3419">
        <ele>1628.299</ele>
        <time>2022-08-24T14:32:27Z</time>
      </trkpt>
      <trkpt lat="44.09427" lon="6.34193">
        <ele>1628.095</ele>
        <time>2022-08-24T14:32:28Z</time>
      </trkpt>
      <trkpt lat="44.09431" lon="6.34196">
        <ele>1627.888</ele>
        <time>2022-08-24T14:32:29Z</time>
      </trkpt>
      <trkpt lat="44.09435" lon="6.34198">
        <ele>1628.271</ele>
        <time>2022-08-24T14:32:30Z</time>
      </trkpt>
      <trkpt lat="44.09439" lon="6.342">
        <ele>1628.417</ele>
        <time>2022-08-24T14:32:31Z</time>
      </trkpt>
      <trkpt lat="44.09443" lon="6.34202">
        <ele>1628.041</ele>
        <time>2022-08-24T14:32:32Z</time>
      </trkpt>
      <trkpt lat="44.09446" lon="6.34205">
        <ele>1627.864</ele>
        <time>2022-08-24T14:32:33Z</time>
      </trkpt>
      <trkpt lat="44.09449" lon="6.34207">
        <ele>1628.426</ele>
        <time>2022-08-24T14:32:34Z</time>
      </trkpt>
      <trkpt lat="44.09452" lon="6.34208">
        <ele>1628.647</ele>
        <time>2022-08-24T14:32:35Z</time>
      </trkpt>
      <trkpt lat="44.09455" lon="6.3421">
        <ele>1628.611</ele>
        <time>2022-08-24T14:32:36Z</time>
      </trkpt>
      <trkpt lat="44.09458" lon="6.34212">
        <ele>1628.609</ele>
        <time>2022-08-24T14:32:37Z</time>
      </trkpt>
      <trkpt lat="44.09461" lon="6.34214">
        <ele>1627.653</ele>
        <time>2022-08-24T14:32:38Z</time>
      </trkpt>
      <trkpt lat="44.09464" lon="6.34215">
        <ele>1627.053</ele>
        <time>2022-08-24T14:32:39Z</time>
      </trkpt>
      <trkpt lat="44.09479" lon="6.34227">
        <ele>1626.213</ele>
        <time>2022-08-24T14:32:45Z</time>
      </trkpt>
      <trkpt lat="44.09482" lon="6.34229">
        <ele>1626.279</ele>
        <time>2022-08-24T14:32:46Z</time>
      </trkpt>
      <trkpt lat="44.09485" lon="6.34231">
        <ele>1625.862</ele>
        <time>2022-08-24T14:32:47Z</time>
      </trkpt>
      <trkpt lat="44.09497" lon="6.34239">
        <ele>1626.065</ele>
        <time>2022-08-24T14:32:52Z</time>
      </trkpt>
      <trkpt lat="44.09506" lon="6.34244">
        <ele>1626.091</ele>
        <time>2022-08-24T14:32:55Z</time>
      </trkpt>
      <trkpt lat="44.09509" lon="6.34247">
        <ele>1625.885</ele>
        <time>2022-08-24T14:32:56Z</time>
      </trkpt>
      <trkpt lat="44.0952" lon="6.34261">
        <ele>1625.018</ele>
        <time>2022-08-24T14:33:00Z</time>
      </trkpt>
      <trkpt lat="44.09525" lon="6.34266">
        <ele>1624.832</ele>
        <time>2022-08-24T14:33:02Z</time>
      </trkpt>
      <trkpt lat="44.09537" lon="6.34274">
        <ele>1626.092</ele>
        <time>2022-08-24T14:33:06Z</time>
      </trkpt>
      <trkpt lat="44.0954" lon="6.34276">
        <ele>1626.011</ele>
        <time>2022-08-24T14:33:07Z</time>
      </trkpt>
      <trkpt lat="44.09558" lon="6.34288">
        <ele>1625.209</ele>
        <time>2022-08-24T14:33:12Z</time>
      </trkpt>
      <trkpt lat="44.09566" lon="6.34296">
        <ele>1625.084</ele>
        <time>2022-08-24T14:33:15Z</time>
      </trkpt>
      <trkpt lat="44.09568" lon="6.343">
        <ele>1624.864</ele>
        <time>2022-08-24T14:33:16Z</time>
      </trkpt>
      <trkpt lat="44.09572" lon="6.34322">
        <ele>1624.084</ele>
        <time>2022-08-24T14:33:21Z</time>
      </trkpt>
      <trkpt lat="44.0957" lon="6.34331">
        <ele>1623.46</ele>
        <time>2022-08-24T14:33:23Z</time>
      </trkpt>
      <trkpt lat="44.09565" lon="6.34345">
        <ele>1623.013</ele>
        <time>2022-08-24T14:33:26Z</time>
      </trkpt>
      <trkpt lat="44.09564" lon="6.3435">
        <ele>1623.056</ele>
        <time>2022-08-24T14:33:27Z</time>
      </trkpt>
      <trkpt lat="44.09556" lon="6.34372">
        <ele>1622.872</ele>
        <time>2022-08-24T14:33:31Z</time>
      </trkpt>
      <trkpt lat="44.09554" lon="6.34377">
        <ele>1621.656</ele>
        <time>2022-08-24T14:33:32Z</time>
      </trkpt>
      <trkpt lat="44.09546" lon="6.34393">
        <ele>1620.629</ele>
        <time>2022-08-24T14:33:35Z</time>
      </trkpt>
      <trkpt lat="44.0954" lon="6.3441">
        <ele>1621.624</ele>
        <time>2022-08-24T14:33:38Z</time>
      </trkpt>
      <trkpt lat="44.09538" lon="6.34416">
        <ele>1621.804</ele>
        <time>2022-08-24T14:33:39Z</time>
      </trkpt>
      <trkpt lat="44.09536" lon="6.34421">
        <ele>1620.214</ele>
        <time>2022-08-24T14:33:40Z</time>
      </trkpt>
      <trkpt lat="44.09534" lon="6.34427">
        <ele>1619.609</ele>
        <time>2022-08-24T14:33:41Z</time>
      </trkpt>
      <trkpt lat="44.09533" lon="6.34432">
        <ele>1619.243</ele>
        <time>2022-08-24T14:33:42Z</time>
      </trkpt>
      <trkpt lat="44.09529" lon="6.34448">
        <ele>1618.283</ele>
        <time>2022-08-24T14:33:45Z</time>
      </trkpt>
      <trkpt lat="44.09526" lon="6.34458">
        <ele>1617.613</ele>
        <time>2022-08-24T14:33:47Z</time>
      </trkpt>
      <trkpt lat="44.09523" lon="6.3447">
        <ele>1617.249</ele>
        <time>2022-08-24T14:33:49Z</time>
      </trkpt>
      <trkpt lat="44.09519" lon="6.3449">
        <ele>1616.822</ele>
        <time>2022-08-24T14:33:52Z</time>
      </trkpt>
      <trkpt lat="44.09517" lon="6.34497">
        <ele>1616.645</ele>
        <time>2022-08-24T14:33:53Z</time>
      </trkpt>
      <trkpt lat="44.09513" lon="6.34514">
        <ele>1615.251</ele>
        <time>2022-08-24T14:33:55Z</time>
      </trkpt>
      <trkpt lat="44.0951" lon="6.34531">
        <ele>1614.035</ele>
        <time>2022-08-24T14:33:57Z</time>
      </trkpt>
      <trkpt lat="44.09507" lon="6.34539">
        <ele>1613.658</ele>
        <time>2022-08-24T14:33:58Z</time>
      </trkpt>
      <trkpt lat="44.09505" lon="6.34547">
        <ele>1613.074</ele>
        <time>2022-08-24T14:33:59Z</time>
      </trkpt>
      <trkpt lat="44.09502" lon="6.34561">
        <ele>1611.656</ele>
        <time>2022-08-24T14:34:01Z</time>
      </trkpt>
      <trkpt lat="44.09501" lon="6.34565">
        <ele>1610.821</ele>
        <time>2022-08-24T14:34:02Z</time>
      </trkpt>
      <trkpt lat="44.095" lon="6.34568">
        <ele>1610.609</ele>
        <time>2022-08-24T14:34:03Z</time>
      </trkpt>
      <trkpt lat="44.09499" lon="6.3457">
        <ele>1610.088</ele>
        <time>2022-08-24T14:34:06Z</time>
      </trkpt>
      <trkpt lat="44.09496" lon="6.34576">
        <ele>1609.688</ele>
        <time>2022-08-24T14:34:09Z</time>
      </trkpt>
      <trkpt lat="44.09494" lon="6.3458">
        <ele>1609.458</ele>
        <time>2022-08-24T14:34:10Z</time>
      </trkpt>
      <trkpt lat="44.09492" lon="6.34585">
        <ele>1609.234</ele>
        <time>2022-08-24T14:34:11Z</time>
      </trkpt>
      <trkpt lat="44.09487" lon="6.346">
        <ele>1608.447</ele>
        <time>2022-08-24T14:34:14Z</time>
      </trkpt>
      <trkpt lat="44.09483" lon="6.34612">
        <ele>1605.63</ele>
        <time>2022-08-24T14:34:16Z</time>
      </trkpt>
      <trkpt lat="44.09481" lon="6.34618">
        <ele>1604.666</ele>
        <time>2022-08-24T14:34:17Z</time>
      </trkpt>
      <trkpt lat="44.09477" lon="6.34632">
        <ele>1602.87</ele>
        <time>2022-08-24T14:34:19Z</time>
      </trkpt>
      <trkpt lat="44.09472" lon="6.34648">
        <ele>1601.293</ele>
        <time>2022-08-24T14:34:21Z</time>
      </trkpt>
      <trkpt lat="44.09467" lon="6.34662">
        <ele>1598.854</ele>
        <time>2022-08-24T14:34:23Z</time>
      </trkpt>
      <trkpt lat="44.09465" lon="6.34669">
        <ele>1597.256</ele>
        <time>2022-08-24T14:34:24Z</time>
      </trkpt>
      <trkpt lat="44.09464" lon="6.34675">
        <ele>1596.211</ele>
        <time>2022-08-24T14:34:25Z</time>
      </trkpt>
      <trkpt lat="44.09462" lon="6.34682">
        <ele>1595.809</ele>
        <time>2022-08-24T14:34:26Z</time>
      </trkpt>
      <trkpt lat="44.09457" lon="6.34697">
        <ele>1595.026</ele>
        <time>2022-08-24T14:34:28Z</time>
      </trkpt>
      <trkpt lat="44.09454" lon="6.34705">
        <ele>1593.466</ele>
        <time>2022-08-24T14:34:29Z</time>
      </trkpt>
      <trkpt lat="44.09452" lon="6.34713">
        <ele>1592.626</ele>
        <time>2022-08-24T14:34:30Z</time>
      </trkpt>
      <trkpt lat="44.09449" lon="6.3472">
        <ele>1592.012</ele>
        <time>2022-08-24T14:34:31Z</time>
      </trkpt>
      <trkpt lat="44.09446" lon="6.34727">
        <ele>1591.455</ele>
        <time>2022-08-24T14:34:32Z</time>
      </trkpt>
      <trkpt lat="44.09444" lon="6.34734">
        <ele>1590.228</ele>
        <time>2022-08-24T14:34:33Z</time>
      </trkpt>
      <trkpt lat="44.09442" lon="6.34741">
        <ele>1588.424</ele>
        <time>2022-08-24T14:34:34Z</time>
      </trkpt>
      <trkpt lat="44.0944" lon="6.34747">
        <ele>1586.838</ele>
        <time>2022-08-24T14:34:35Z</time>
      </trkpt>
      <trkpt lat="44.09438" lon="6.34753">
        <ele>1585.471</ele>
        <time>2022-08-24T14:34:36Z</time>
      </trkpt>
      <trkpt lat="44.09434" lon="6.34767">
        <ele>1584.058</ele>
        <time>2022-08-24T14:34:38Z</time>
      </trkpt>
      <trkpt lat="44.0943" lon="6.34783">
        <ele>1583.452</ele>
        <time>2022-08-24T14:34:40Z</time>
      </trkpt>
      <trkpt lat="44.09427" lon="6.34806">
        <ele>1582.217</ele>
        <time>2022-08-24T14:34:43Z</time>
      </trkpt>
      <trkpt lat="44.09426" lon="6.34813">
        <ele>1581.009</ele>
        <time>2022-08-24T14:34:44Z</time>
      </trkpt>
      <trkpt lat="44.09426" lon="6.3482">
        <ele>1580.096</ele>
        <time>2022-08-24T14:34:45Z</time>
      </trkpt>
      <trkpt lat="44.09429" lon="6.34835">
        <ele>1579.036</ele>
        <time>2022-08-24T14:34:47Z</time>
      </trkpt>
      <trkpt lat="44.09429" lon="6.34844">
        <ele>1578.886</ele>
        <time>2022-08-24T14:34:48Z</time>
      </trkpt>
      <trkpt lat="44.09428" lon="6.34851">
        <ele>1577.682</ele>
        <time>2022-08-24T14:34:49Z</time>
      </trkpt>
      <trkpt lat="44.09427" lon="6.34859">
        <ele>1576.675</ele>
        <time>2022-08-24T14:34:50Z</time>
      </trkpt>
      <trkpt lat="44.09425" lon="6.34871">
        <ele>1575.448</ele>
        <time>2022-08-24T14:34:52Z</time>
      </trkpt>
      <trkpt lat="44.09425" lon="6.34877">
        <ele>1574.634</ele>
        <time>2022-08-24T14:34:53Z</time>
      </trkpt>
      <trkpt lat="44.09425" lon="6.34891">
        <ele>1573.838</ele>
        <time>2022-08-24T14:34:55Z</time>
      </trkpt>
      <trkpt lat="44.09425" lon="6.34903">
        <ele>1572.211</ele>
        <time>2022-08-24T14:34:57Z</time>
      </trkpt>
      <trkpt lat="44.09426" lon="6.34915">
        <ele>1571.088</ele>
        <time>2022-08-24T14:34:59Z</time>
      </trkpt>
      <trkpt lat="44.09428" lon="6.34931">
        <ele>1569.824</ele>
        <time>2022-08-24T14:35:01Z</time>
      </trkpt>
      <trkpt lat="44.09429" lon="6.34939">
        <ele>1569.026</ele>
        <time>2022-08-24T14:35:02Z</time>
      </trkpt>
      <trkpt lat="44.09431" lon="6.34943">
        <ele>1567.809</ele>
        <time>2022-08-24T14:35:03Z</time>
      </trkpt>
      <trkpt lat="44.09433" lon="6.34947">
        <ele>1566.669</ele>
        <time>2022-08-24T14:35:04Z</time>
      </trkpt>
      <trkpt lat="44.09437" lon="6.34953">
        <ele>1565.279</ele>
        <time>2022-08-24T14:35:06Z</time>
      </trkpt>
      <trkpt lat="44.09437" lon="6.34957">
        <ele>1565.029</ele>
        <time>2022-08-24T14:35:07Z</time>
      </trkpt>
      <trkpt lat="44.09433" lon="6.34965">
        <ele>1564.855</ele>
        <time>2022-08-24T14:35:09Z</time>
      </trkpt>
      <trkpt lat="44.09429" lon="6.34976">
        <ele>1564.048</ele>
        <time>2022-08-24T14:35:11Z</time>
      </trkpt>
      <trkpt lat="44.09426" lon="6.34982">
        <ele>1563.281</ele>
        <time>2022-08-24T14:35:12Z</time>
      </trkpt>
      <trkpt lat="44.09424" lon="6.34989">
        <ele>1562.697</ele>
        <time>2022-08-24T14:35:13Z</time>
      </trkpt>
      <trkpt lat="44.09422" lon="6.34996">
        <ele>1562.081</ele>
        <time>2022-08-24T14:35:14Z</time>
      </trkpt>
      <trkpt lat="44.09422" lon="6.35002">
        <ele>1560.664</ele>
        <time>2022-08-24T14:35:15Z</time>
      </trkpt>
      <trkpt lat="44.09421" lon="6.35009">
        <ele>1559.231</ele>
        <time>2022-08-24T14:35:16Z</time>
      </trkpt>
      <trkpt lat="44.09421" lon="6.35024">
        <ele>1556.461</ele>
        <time>2022-08-24T14:35:18Z</time>
      </trkpt>
      <trkpt lat="44.0942" lon="6.35035">
        <ele>1554.807</ele>
        <time>2022-08-24T14:35:20Z</time>
      </trkpt>
      <trkpt lat="44.09419" lon="6.3504">
        <ele>1554.609</ele>
        <time>2022-08-24T14:35:21Z</time>
      </trkpt>
      <trkpt lat="44.09413" lon="6.35058">
        <ele>1553.854</ele>
        <time>2022-08-24T14:35:24Z</time>
      </trkpt>
      <trkpt lat="44.0941" lon="6.35063">
        <ele>1552.614</ele>
        <time>2022-08-24T14:35:25Z</time>
      </trkpt>
      <trkpt lat="44.09406" lon="6.35073">
        <ele>1551.234</ele>
        <time>2022-08-24T14:35:27Z</time>
      </trkpt>
      <trkpt lat="44.09406" lon="6.35081">
        <ele>1550.66</ele>
        <time>2022-08-24T14:35:28Z</time>
      </trkpt>
      <trkpt lat="44.09406" lon="6.35091">
        <ele>1549.843</ele>
        <time>2022-08-24T14:35:29Z</time>
      </trkpt>
      <trkpt lat="44.09407" lon="6.35114">
        <ele>1548.816</ele>
        <time>2022-08-24T14:35:32Z</time>
      </trkpt>
      <trkpt lat="44.09407" lon="6.35121">
        <ele>1548.432</ele>
        <time>2022-08-24T14:35:33Z</time>
      </trkpt>
      <trkpt lat="44.09408" lon="6.35139">
        <ele>1547.686</ele>
        <time>2022-08-24T14:35:35Z</time>
      </trkpt>
      <trkpt lat="44.09409" lon="6.35158">
        <ele>1545.829</ele>
        <time>2022-08-24T14:35:37Z</time>
      </trkpt>
      <trkpt lat="44.09412" lon="6.3518">
        <ele>1543.619</ele>
        <time>2022-08-24T14:35:39Z</time>
      </trkpt>
      <trkpt lat="44.09412" lon="6.35191">
        <ele>1542.809</ele>
        <time>2022-08-24T14:35:40Z</time>
      </trkpt>
      <trkpt lat="44.09411" lon="6.35202">
        <ele>1542.019</ele>
        <time>2022-08-24T14:35:41Z</time>
      </trkpt>
      <trkpt lat="44.0941" lon="6.35212">
        <ele>1540.409</ele>
        <time>2022-08-24T14:35:42Z</time>
      </trkpt>
      <trkpt lat="44.09409" lon="6.35222">
        <ele>1539.092</ele>
        <time>2022-08-24T14:35:43Z</time>
      </trkpt>
      <trkpt lat="44.09408" lon="6.35232">
        <ele>1538.492</ele>
        <time>2022-08-24T14:35:44Z</time>
      </trkpt>
      <trkpt lat="44.09408" lon="6.35243">
        <ele>1537.242</ele>
        <time>2022-08-24T14:35:45Z</time>
      </trkpt>
      <trkpt lat="44.09408" lon="6.35264">
        <ele>1535.628</ele>
        <time>2022-08-24T14:35:47Z</time>
      </trkpt>
      <trkpt lat="44.09411" lon="6.35278">
        <ele>1534.411</ele>
        <time>2022-08-24T14:35:49Z</time>
      </trkpt>
      <trkpt lat="44.09415" lon="6.35293">
        <ele>1533.014</ele>
        <time>2022-08-24T14:35:51Z</time>
      </trkpt>
      <trkpt lat="44.09421" lon="6.35307">
        <ele>1532.07</ele>
        <time>2022-08-24T14:35:53Z</time>
      </trkpt>
      <trkpt lat="44.09424" lon="6.35315">
        <ele>1531.824</ele>
        <time>2022-08-24T14:35:54Z</time>
      </trkpt>
      <trkpt lat="44.09427" lon="6.35325">
        <ele>1531.847</ele>
        <time>2022-08-24T14:35:55Z</time>
      </trkpt>
      <trkpt lat="44.09429" lon="6.35334">
        <ele>1531.633</ele>
        <time>2022-08-24T14:35:56Z</time>
      </trkpt>
      <trkpt lat="44.0943" lon="6.35342">
        <ele>1531.623</ele>
        <time>2022-08-24T14:35:57Z</time>
      </trkpt>
      <trkpt lat="44.0943" lon="6.3536">
        <ele>1530.815</ele>
        <time>2022-08-24T14:35:59Z</time>
      </trkpt>
      <trkpt lat="44.09428" lon="6.35365">
        <ele>1530.609</ele>
        <time>2022-08-24T14:36:00Z</time>
      </trkpt>
      <trkpt lat="44.09424" lon="6.35369">
        <ele>1529.894</ele>
        <time>2022-08-24T14:36:01Z</time>
      </trkpt>
      <trkpt lat="44.09414" lon="6.3538">
        <ele>1529.044</ele>
        <time>2022-08-24T14:36:04Z</time>
      </trkpt>
      <trkpt lat="44.09411" lon="6.35385">
        <ele>1528.274</ele>
        <time>2022-08-24T14:36:05Z</time>
      </trkpt>
      <trkpt lat="44.09409" lon="6.3539">
        <ele>1527.82</ele>
        <time>2022-08-24T14:36:06Z</time>
      </trkpt>
      <trkpt lat="44.09399" lon="6.35407">
        <ele>1527.053</ele>
        <time>2022-08-24T14:36:09Z</time>
      </trkpt>
      <trkpt lat="44.09396" lon="6.35412">
        <ele>1526.456</ele>
        <time>2022-08-24T14:36:10Z</time>
      </trkpt>
      <trkpt lat="44.09394" lon="6.35417">
        <ele>1526.082</ele>
        <time>2022-08-24T14:36:11Z</time>
      </trkpt>
      <trkpt lat="44.09391" lon="6.35429">
        <ele>1524.466</ele>
        <time>2022-08-24T14:36:13Z</time>
      </trkpt>
      <trkpt lat="44.09386" lon="6.35442">
        <ele>1523.219</ele>
        <time>2022-08-24T14:36:15Z</time>
      </trkpt>
      <trkpt lat="44.09384" lon="6.35449">
        <ele>1522.832</ele>
        <time>2022-08-24T14:36:16Z</time>
      </trkpt>
      <trkpt lat="44.09375" lon="6.35468">
        <ele>1522.692</ele>
        <time>2022-08-24T14:36:19Z</time>
      </trkpt>
      <trkpt lat="44.09361" lon="6.35504">
        <ele>1523.811</ele>
        <time>2022-08-24T14:36:25Z</time>
      </trkpt>
      <trkpt lat="44.09352" lon="6.35522">
        <ele>1522.209</ele>
        <time>2022-08-24T14:36:29Z</time>
      </trkpt>
      <trkpt lat="44.09349" lon="6.35529">
        <ele>1521.614</ele>
        <time>2022-08-24T14:36:30Z</time>
      </trkpt>
      <trkpt lat="44.09347" lon="6.35536">
        <ele>1521.094</ele>
        <time>2022-08-24T14:36:31Z</time>
      </trkpt>
      <trkpt lat="44.09341" lon="6.35545">
        <ele>1520.434</ele>
        <time>2022-08-24T14:36:33Z</time>
      </trkpt>
      <trkpt lat="44.09338" lon="6.3555">
        <ele>1520.01</ele>
        <time>2022-08-24T14:36:34Z</time>
      </trkpt>
      <trkpt lat="44.09335" lon="6.35556">
        <ele>1519.623</ele>
        <time>2022-08-24T14:36:35Z</time>
      </trkpt>
      <trkpt lat="44.09329" lon="6.35565">
        <ele>1518.876</ele>
        <time>2022-08-24T14:36:37Z</time>
      </trkpt>
      <trkpt lat="44.09327" lon="6.3557">
        <ele>1518.612</ele>
        <time>2022-08-24T14:36:38Z</time>
      </trkpt>
      <trkpt lat="44.09325" lon="6.35578">
        <ele>1518.236</ele>
        <time>2022-08-24T14:36:39Z</time>
      </trkpt>
      <trkpt lat="44.09306" lon="6.35617">
        <ele>1518.019</ele>
        <time>2022-08-24T14:36:45Z</time>
      </trkpt>
      <trkpt lat="44.09299" lon="6.35628">
        <ele>1518.469</ele>
        <time>2022-08-24T14:36:47Z</time>
      </trkpt>
      <trkpt lat="44.09287" lon="6.35651">
        <ele>1518.204</ele>
        <time>2022-08-24T14:36:51Z</time>
      </trkpt>
      <trkpt lat="44.09285" lon="6.35658">
        <ele>1517.224</ele>
        <time>2022-08-24T14:36:52Z</time>
      </trkpt>
      <trkpt lat="44.09279" lon="6.35676">
        <ele>1516.209</ele>
        <time>2022-08-24T14:36:55Z</time>
      </trkpt>
      <trkpt lat="44.09274" lon="6.35689">
        <ele>1515.837</ele>
        <time>2022-08-24T14:36:57Z</time>
      </trkpt>
      <trkpt lat="44.09269" lon="6.35704">
        <ele>1515.447</ele>
        <time>2022-08-24T14:36:59Z</time>
      </trkpt>
      <trkpt lat="44.09266" lon="6.35712">
        <ele>1514.617</ele>
        <time>2022-08-24T14:37:00Z</time>
      </trkpt>
      <trkpt lat="44.09259" lon="6.35729">
        <ele>1514.083</ele>
        <time>2022-08-24T14:37:02Z</time>
      </trkpt>
      <trkpt lat="44.09253" lon="6.35745">
        <ele>1513.656</ele>
        <time>2022-08-24T14:37:04Z</time>
      </trkpt>
      <trkpt lat="44.0925" lon="6.35752">
        <ele>1513.659</ele>
        <time>2022-08-24T14:37:05Z</time>
      </trkpt>
      <trkpt lat="44.09244" lon="6.35768">
        <ele>1513.255</ele>
        <time>2022-08-24T14:37:07Z</time>
      </trkpt>
      <trkpt lat="44.0924" lon="6.35775">
        <ele>1512.679</ele>
        <time>2022-08-24T14:37:08Z</time>
      </trkpt>
      <trkpt lat="44.09237" lon="6.35781">
        <ele>1512.442</ele>
        <time>2022-08-24T14:37:09Z</time>
      </trkpt>
      <trkpt lat="44.09229" lon="6.35797">
        <ele>1511.857</ele>
        <time>2022-08-24T14:37:11Z</time>
      </trkpt>
      <trkpt lat="44.09224" lon="6.35814">
        <ele>1511.6</ele>
        <time>2022-08-24T14:37:13Z</time>
      </trkpt>
      <trkpt lat="44.09218" lon="6.35831">
        <ele>1509.82</ele>
        <time>2022-08-24T14:37:15Z</time>
      </trkpt>
      <trkpt lat="44.09216" lon="6.35838">
        <ele>1509.009</ele>
        <time>2022-08-24T14:37:16Z</time>
      </trkpt>
      <trkpt lat="44.09215" lon="6.35845">
        <ele>1508.486</ele>
        <time>2022-08-24T14:37:17Z</time>
      </trkpt>
      <trkpt lat="44.09214" lon="6.35852">
        <ele>1508.296</ele>
        <time>2022-08-24T14:37:18Z</time>
      </trkpt>
      <trkpt lat="44.09215" lon="6.35869">
        <ele>1507.256</ele>
        <time>2022-08-24T14:37:20Z</time>
      </trkpt>
      <trkpt lat="44.09215" lon="6.35889">
        <ele>1506.862</ele>
        <time>2022-08-24T14:37:22Z</time>
      </trkpt>
      <trkpt lat="44.09215" lon="6.35913">
        <ele>1506.485</ele>
        <time>2022-08-24T14:37:24Z</time>
      </trkpt>
      <trkpt lat="44.09212" lon="6.35922">
        <ele>1505.218</ele>
        <time>2022-08-24T14:37:25Z</time>
      </trkpt>
      <trkpt lat="44.09208" lon="6.35931">
        <ele>1504.224</ele>
        <time>2022-08-24T14:37:26Z</time>
      </trkpt>
      <trkpt lat="44.09204" lon="6.3595">
        <ele>1503.448</ele>
        <time>2022-08-24T14:37:27Z</time>
      </trkpt>
      <trkpt lat="44.09195" lon="6.35968">
        <ele>1502.291</ele>
        <time>2022-08-24T14:37:29Z</time>
      </trkpt>
      <trkpt lat="44.09194" lon="6.35973">
        <ele>1502.281</ele>
        <time>2022-08-24T14:37:30Z</time>
      </trkpt>
      <trkpt lat="44.09189" lon="6.35991">
        <ele>1502.061</ele>
        <time>2022-08-24T14:37:33Z</time>
      </trkpt>
      <trkpt lat="44.09185" lon="6.36006">
        <ele>1501.017</ele>
        <time>2022-08-24T14:37:35Z</time>
      </trkpt>
      <trkpt lat="44.09182" lon="6.36022">
        <ele>1499.809</ele>
        <time>2022-08-24T14:37:37Z</time>
      </trkpt>
      <trkpt lat="44.09176" lon="6.36046">
        <ele>1498.259</ele>
        <time>2022-08-24T14:37:39Z</time>
      </trkpt>
      <trkpt lat="44.09173" lon="6.36055">
        <ele>1498.249</ele>
        <time>2022-08-24T14:37:40Z</time>
      </trkpt>
      <trkpt lat="44.09171" lon="6.36064">
        <ele>1498.049</ele>
        <time>2022-08-24T14:37:41Z</time>
      </trkpt>
      <trkpt lat="44.09169" lon="6.36078">
        <ele>1497.685</ele>
        <time>2022-08-24T14:37:43Z</time>
      </trkpt>
      <trkpt lat="44.09171" lon="6.36096">
        <ele>1497.888</ele>
        <time>2022-08-24T14:37:47Z</time>
      </trkpt>
      <trkpt lat="44.09176" lon="6.36108">
        <ele>1499.491</ele>
        <time>2022-08-24T14:37:52Z</time>
      </trkpt>
      <trkpt lat="44.09176" lon="6.3611">
        <ele>1499.697</ele>
        <time>2022-08-24T14:37:53Z</time>
      </trkpt>
      <trkpt lat="44.09176" lon="6.36116">
        <ele>1500.081</ele>
        <time>2022-08-24T14:37:56Z</time>
      </trkpt>
      <trkpt lat="44.09178" lon="6.36129">
        <ele>1500.224</ele>
        <time>2022-08-24T14:38:02Z</time>
      </trkpt>
      <trkpt lat="44.0918" lon="6.36138">
        <ele>1500.646</ele>
        <time>2022-08-24T14:38:06Z</time>
      </trkpt>
      <trkpt lat="44.09181" lon="6.36143">
        <ele>1501.088</ele>
        <time>2022-08-24T14:38:08Z</time>
      </trkpt>
      <trkpt lat="44.09184" lon="6.36152">
        <ele>1501.816</ele>
        <time>2022-08-24T14:38:12Z</time>
      </trkpt>
      <trkpt lat="44.09185" lon="6.36157">
        <ele>1502.209</ele>
        <time>2022-08-24T14:38:14Z</time>
      </trkpt>
      <trkpt lat="44.09186" lon="6.36169">
        <ele>1502.855</ele>
        <time>2022-08-24T14:38:18Z</time>
      </trkpt>
      <trkpt lat="44.09186" lon="6.36175">
        <ele>1503.455</ele>
        <time>2022-08-24T14:38:20Z</time>
      </trkpt>
      <trkpt lat="44.09186" lon="6.36182">
        <ele>1504.055</ele>
        <time>2022-08-24T14:38:22Z</time>
      </trkpt>
      <trkpt lat="44.09183" lon="6.36191">
        <ele>1505.261</ele>
        <time>2022-08-24T14:38:25Z</time>
      </trkpt>
      <trkpt lat="44.09181" lon="6.36198">
        <ele>1505.614</ele>
        <time>2022-08-24T14:38:27Z</time>
      </trkpt>
      <trkpt lat="44.09179" lon="6.36205">
        <ele>1506.427</ele>
        <time>2022-08-24T14:38:29Z</time>
      </trkpt>
      <trkpt lat="44.09177" lon="6.36218">
        <ele>1507.413</ele>
        <time>2022-08-24T14:38:33Z</time>
      </trkpt>
      <trkpt lat="44.09177" lon="6.36225">
        <ele>1508.037</ele>
        <time>2022-08-24T14:38:35Z</time>
      </trkpt>
      <trkpt lat="44.09177" lon="6.36229">
        <ele>1508.25</ele>
        <time>2022-08-24T14:38:36Z</time>
      </trkpt>
      <trkpt lat="44.09178" lon="6.36232">
        <ele>1508.684</ele>
        <time>2022-08-24T14:38:37Z</time>
      </trkpt>
      <trkpt lat="44.09179" lon="6.36247">
        <ele>1509.607</ele>
        <time>2022-08-24T14:38:42Z</time>
      </trkpt>
      <trkpt lat="44.0918" lon="6.3625">
        <ele>1509.817</ele>
        <time>2022-08-24T14:38:43Z</time>
      </trkpt>
      <trkpt lat="44.09182" lon="6.36264">
        <ele>1510.809</ele>
        <time>2022-08-24T14:38:48Z</time>
      </trkpt>
      <trkpt lat="44.09183" lon="6.36267">
        <ele>1511.459</ele>
        <time>2022-08-24T14:38:49Z</time>
      </trkpt>
      <trkpt lat="44.09187" lon="6.36279">
        <ele>1512.049</ele>
        <time>2022-08-24T14:38:53Z</time>
      </trkpt>
      <trkpt lat="44.09187" lon="6.36282">
        <ele>1512.299</ele>
        <time>2022-08-24T14:38:54Z</time>
      </trkpt>
      <trkpt lat="44.09191" lon="6.36294">
        <ele>1512.895</ele>
        <time>2022-08-24T14:38:58Z</time>
      </trkpt>
      <trkpt lat="44.09192" lon="6.36297">
        <ele>1513.078</ele>
        <time>2022-08-24T14:38:59Z</time>
      </trkpt>
      <trkpt lat="44.09193" lon="6.363">
        <ele>1513.251</ele>
        <time>2022-08-24T14:39:00Z</time>
      </trkpt>
      <trkpt lat="44.09193" lon="6.36303">
        <ele>1513.457</ele>
        <time>2022-08-24T14:39:01Z</time>
      </trkpt>
      <trkpt lat="44.09194" lon="6.36306">
        <ele>1513.681</ele>
        <time>2022-08-24T14:39:02Z</time>
      </trkpt>
      <trkpt lat="44.09195" lon="6.36309">
        <ele>1514.034</ele>
        <time>2022-08-24T14:39:03Z</time>
      </trkpt>
      <trkpt lat="44.09195" lon="6.36312">
        <ele>1514.298</ele>
        <time>2022-08-24T14:39:04Z</time>
      </trkpt>
      <trkpt lat="44.09198" lon="6.36318">
        <ele>1514.815</ele>
        <time>2022-08-24T14:39:06Z</time>
      </trkpt>
      <trkpt lat="44.09199" lon="6.36321">
        <ele>1515.426</ele>
        <time>2022-08-24T14:39:07Z</time>
      </trkpt>
      <trkpt lat="44.09206" lon="6.36329">
        <ele>1516.409</ele>
        <time>2022-08-24T14:39:10Z</time>
      </trkpt>
      <trkpt lat="44.0921" lon="6.36333">
        <ele>1517.02</ele>
        <time>2022-08-24T14:39:12Z</time>
      </trkpt>
      <trkpt lat="44.09216" lon="6.3634">
        <ele>1517.48</ele>
        <time>2022-08-24T14:39:15Z</time>
      </trkpt>
      <trkpt lat="44.09223" lon="6.36349">
        <ele>1518.45</ele>
        <time>2022-08-24T14:39:19Z</time>
      </trkpt>
      <trkpt lat="44.09226" lon="6.36356">
        <ele>1518.676</ele>
        <time>2022-08-24T14:39:21Z</time>
      </trkpt>
      <trkpt lat="44.0923" lon="6.36362">
        <ele>1520.039</ele>
        <time>2022-08-24T14:39:23Z</time>
      </trkpt>
      <trkpt lat="44.0924" lon="6.36383">
        <ele>1521.092</ele>
        <time>2022-08-24T14:39:30Z</time>
      </trkpt>
      <trkpt lat="44.09241" lon="6.36387">
        <ele>1521.638</ele>
        <time>2022-08-24T14:39:31Z</time>
      </trkpt>
      <trkpt lat="44.09243" lon="6.36396">
        <ele>1522.822</ele>
        <time>2022-08-24T14:39:34Z</time>
      </trkpt>
      <trkpt lat="44.09244" lon="6.36406">
        <ele>1523.455</ele>
        <time>2022-08-24T14:39:37Z</time>
      </trkpt>
      <trkpt lat="44.09244" lon="6.36413">
        <ele>1524.014</ele>
        <time>2022-08-24T14:39:39Z</time>
      </trkpt>
      <trkpt lat="44.09244" lon="6.36425">
        <ele>1525.254</ele>
        <time>2022-08-24T14:39:43Z</time>
      </trkpt>
      <trkpt lat="44.09245" lon="6.36428">
        <ele>1525.209</ele>
        <time>2022-08-24T14:39:44Z</time>
      </trkpt>
      <trkpt lat="44.09246" lon="6.36438">
        <ele>1526.609</ele>
        <time>2022-08-24T14:39:47Z</time>
      </trkpt>
      <trkpt lat="44.09249" lon="6.36451">
        <ele>1527.692</ele>
        <time>2022-08-24T14:39:51Z</time>
      </trkpt>
      <trkpt lat="44.0925" lon="6.36454">
        <ele>1528.082</ele>
        <time>2022-08-24T14:39:52Z</time>
      </trkpt>
      <trkpt lat="44.09253" lon="6.36469">
        <ele>1528.612</ele>
        <time>2022-08-24T14:39:57Z</time>
      </trkpt>
      <trkpt lat="44.09253" lon="6.36473">
        <ele>1529.048</ele>
        <time>2022-08-24T14:39:58Z</time>
      </trkpt>
      <trkpt lat="44.09255" lon="6.36485">
        <ele>1530.051</ele>
        <time>2022-08-24T14:40:02Z</time>
      </trkpt>
      <trkpt lat="44.09255" lon="6.36492">
        <ele>1530.224</ele>
        <time>2022-08-24T14:40:04Z</time>
      </trkpt>
      <trkpt lat="44.09256" lon="6.36499">
        <ele>1531.06</ele>
        <time>2022-08-24T14:40:06Z</time>
      </trkpt>
      <trkpt lat="44.09259" lon="6.36512">
        <ele>1532.044</ele>
        <time>2022-08-24T14:40:10Z</time>
      </trkpt>
      <trkpt lat="44.0926" lon="6.36515">
        <ele>1532.297</ele>
        <time>2022-08-24T14:40:11Z</time>
      </trkpt>
      <trkpt lat="44.09263" lon="6.36528">
        <ele>1533.279</ele>
        <time>2022-08-24T14:40:15Z</time>
      </trkpt>
      <trkpt lat="44.09264" lon="6.36538">
        <ele>1534.205</ele>
        <time>2022-08-24T14:40:18Z</time>
      </trkpt>
      <trkpt lat="44.09266" lon="6.36544">
        <ele>1535.625</ele>
        <time>2022-08-24T14:40:20Z</time>
      </trkpt>
      <trkpt lat="44.09268" lon="6.36553">
        <ele>1536.809</ele>
        <time>2022-08-24T14:40:23Z</time>
      </trkpt>
      <trkpt lat="44.09268" lon="6.36563">
        <ele>1537.278</ele>
        <time>2022-08-24T14:40:26Z</time>
      </trkpt>
      <trkpt lat="44.09268" lon="6.36581">
        <ele>1537.818</ele>
        <time>2022-08-24T14:40:31Z</time>
      </trkpt>
      <trkpt lat="44.09268" lon="6.36584">
        <ele>1538.038</ele>
        <time>2022-08-24T14:40:32Z</time>
      </trkpt>
      <trkpt lat="44.09269" lon="6.36587">
        <ele>1538.464</ele>
        <time>2022-08-24T14:40:33Z</time>
      </trkpt>
      <trkpt lat="44.09269" lon="6.36594">
        <ele>1539.027</ele>
        <time>2022-08-24T14:40:35Z</time>
      </trkpt>
      <trkpt lat="44.09271" lon="6.36609">
        <ele>1539.84</ele>
        <time>2022-08-24T14:40:39Z</time>
      </trkpt>
      <trkpt lat="44.09271" lon="6.36618">
        <ele>1540.256</ele>
        <time>2022-08-24T14:40:41Z</time>
      </trkpt>
      <trkpt lat="44.09267" lon="6.36632">
        <ele>1541.45</ele>
        <time>2022-08-24T14:40:44Z</time>
      </trkpt>
      <trkpt lat="44.09262" lon="6.36644">
        <ele>1542.673</ele>
        <time>2022-08-24T14:40:47Z</time>
      </trkpt>
      <trkpt lat="44.09259" lon="6.36655">
        <ele>1543.664</ele>
        <time>2022-08-24T14:40:50Z</time>
      </trkpt>
      <trkpt lat="44.09258" lon="6.36659">
        <ele>1543.806</ele>
        <time>2022-08-24T14:40:51Z</time>
      </trkpt>
      <trkpt lat="44.09259" lon="6.36665">
        <ele>1544.016</ele>
        <time>2022-08-24T14:40:53Z</time>
      </trkpt>
      <trkpt lat="44.09262" lon="6.36668">
        <ele>1544.409</ele>
        <time>2022-08-24T14:40:55Z</time>
      </trkpt>
      <trkpt lat="44.09264" lon="6.36669">
        <ele>1545.027</ele>
        <time>2022-08-24T14:40:56Z</time>
      </trkpt>
      <trkpt lat="44.09266" lon="6.36668">
        <ele>1545.487</ele>
        <time>2022-08-24T14:40:57Z</time>
      </trkpt>
      <trkpt lat="44.0927" lon="6.36664">
        <ele>1545.857</ele>
        <time>2022-08-24T14:40:59Z</time>
      </trkpt>
      <trkpt lat="44.09272" lon="6.36663">
        <ele>1546.043</ele>
        <time>2022-08-24T14:41:00Z</time>
      </trkpt>
      <trkpt lat="44.09285" lon="6.36653">
        <ele>1546.826</ele>
        <time>2022-08-24T14:41:06Z</time>
      </trkpt>
      <trkpt lat="44.09294" lon="6.36646">
        <ele>1547.259</ele>
        <time>2022-08-24T14:41:10Z</time>
      </trkpt>
      <trkpt lat="44.09296" lon="6.36643">
        <ele>1547.295</ele>
        <time>2022-08-24T14:41:11Z</time>
      </trkpt>
      <trkpt lat="44.09302" lon="6.36636">
        <ele>1548.479</ele>
        <time>2022-08-24T14:41:14Z</time>
      </trkpt>
      <trkpt lat="44.09308" lon="6.36628">
        <ele>1549.412</ele>
        <time>2022-08-24T14:41:17Z</time>
      </trkpt>
      <trkpt lat="44.09311" lon="6.36623">
        <ele>1549.497</ele>
        <time>2022-08-24T14:41:19Z</time>
      </trkpt>
      <trkpt lat="44.09317" lon="6.36616">
        <ele>1549.823</ele>
        <time>2022-08-24T14:41:22Z</time>
      </trkpt>
      <trkpt lat="44.09331" lon="6.36597">
        <ele>1550.025</ele>
        <time>2022-08-24T14:41:28Z</time>
      </trkpt>
      <trkpt lat="44.09335" lon="6.36591">
        <ele>1549.809</ele>
        <time>2022-08-24T14:41:30Z</time>
      </trkpt>
      <trkpt lat="44.09345" lon="6.36579">
        <ele>1550.23</ele>
        <time>2022-08-24T14:41:34Z</time>
      </trkpt>
      <trkpt lat="44.09349" lon="6.36574">
        <ele>1550.69</ele>
        <time>2022-08-24T14:41:36Z</time>
      </trkpt>
      <trkpt lat="44.09354" lon="6.3657">
        <ele>1550.87</ele>
        <time>2022-08-24T14:41:38Z</time>
      </trkpt>
      <trkpt lat="44.09363" lon="6.36561">
        <ele>1551.286</ele>
        <time>2022-08-24T14:41:42Z</time>
      </trkpt>
      <trkpt lat="44.09371" lon="6.36553">
        <ele>1551.239</ele>
        <time>2022-08-24T14:41:45Z</time>
      </trkpt>
      <trkpt lat="44.09376" lon="6.36548">
        <ele>1551.662</ele>
        <time>2022-08-24T14:41:47Z</time>
      </trkpt>
      <trkpt lat="44.09385" lon="6.36538">
        <ele>1552.218</ele>
        <time>2022-08-24T14:41:51Z</time>
      </trkpt>
      <trkpt lat="44.0939" lon="6.36533">
        <ele>1552.692</ele>
        <time>2022-08-24T14:41:53Z</time>
      </trkpt>
      <trkpt lat="44.09399" lon="6.36523">
        <ele>1553.855</ele>
        <time>2022-08-24T14:41:57Z</time>
      </trkpt>
      <trkpt lat="44.09402" lon="6.3652">
        <ele>1553.847</ele>
        <time>2022-08-24T14:41:58Z</time>
      </trkpt>
      <trkpt lat="44.09407" lon="6.36514">
        <ele>1554.029</ele>
        <time>2022-08-24T14:42:00Z</time>
      </trkpt>
      <trkpt lat="44.09418" lon="6.36503">
        <ele>1554.821</ele>
        <time>2022-08-24T14:42:04Z</time>
      </trkpt>
      <trkpt lat="44.09424" lon="6.36496">
        <ele>1555.209</ele>
        <time>2022-08-24T14:42:06Z</time>
      </trkpt>
      <trkpt lat="44.09429" lon="6.3649">
        <ele>1555.845</ele>
        <time>2022-08-24T14:42:08Z</time>
      </trkpt>
      <trkpt lat="44.09436" lon="6.36481">
        <ele>1556.485</ele>
        <time>2022-08-24T14:42:11Z</time>
      </trkpt>
      <trkpt lat="44.09447" lon="6.36465">
        <ele>1557.025</ele>
        <time>2022-08-24T14:42:16Z</time>
      </trkpt>
      <trkpt lat="44.09452" lon="6.36458">
        <ele>1557.421</ele>
        <time>2022-08-24T14:42:18Z</time>
      </trkpt>
      <trkpt lat="44.09461" lon="6.36445">
        <ele>1558.264</ele>
        <time>2022-08-24T14:42:22Z</time>
      </trkpt>
      <trkpt lat="44.09468" lon="6.36436">
        <ele>1558.497</ele>
        <time>2022-08-24T14:42:25Z</time>
      </trkpt>
      <trkpt lat="44.09477" lon="6.36423">
        <ele>1559.213</ele>
        <time>2022-08-24T14:42:29Z</time>
      </trkpt>
      <trkpt lat="44.09483" lon="6.36414">
        <ele>1560.447</ele>
        <time>2022-08-24T14:42:32Z</time>
      </trkpt>
      <trkpt lat="44.0949" lon="6.36405">
        <ele>1561.44</ele>
        <time>2022-08-24T14:42:35Z</time>
      </trkpt>
      <trkpt lat="44.09497" lon="6.36398">
        <ele>1561.815</ele>
        <time>2022-08-24T14:42:38Z</time>
      </trkpt>
      <trkpt lat="44.09506" lon="6.36388">
        <ele>1562.865</ele>
        <time>2022-08-24T14:42:42Z</time>
      </trkpt>
      <trkpt lat="44.09514" lon="6.36381">
        <ele>1563.211</ele>
        <time>2022-08-24T14:42:45Z</time>
      </trkpt>
      <trkpt lat="44.09525" lon="6.3636">
        <ele>1563.409</ele>
        <time>2022-08-24T14:42:50Z</time>
      </trkpt>
      <trkpt lat="44.09526" lon="6.36355">
        <ele>1563.832</ele>
        <time>2022-08-24T14:42:51Z</time>
      </trkpt>
      <trkpt lat="44.09526" lon="6.36345">
        <ele>1564.252</ele>
        <time>2022-08-24T14:42:53Z</time>
      </trkpt>
      <trkpt lat="44.09527" lon="6.36339">
        <ele>1564.272</ele>
        <time>2022-08-24T14:42:54Z</time>
      </trkpt>
      <trkpt lat="44.0953" lon="6.36328">
        <ele>1564.498</ele>
        <time>2022-08-24T14:42:56Z</time>
      </trkpt>
      <trkpt lat="44.09535" lon="6.36321">
        <ele>1565.281</ele>
        <time>2022-08-24T14:42:58Z</time>
      </trkpt>
      <trkpt lat="44.09545" lon="6.36312">
        <ele>1566.684</ele>
        <time>2022-08-24T14:43:01Z</time>
      </trkpt>
      <trkpt lat="44.09554" lon="6.36305">
        <ele>1567.67</ele>
        <time>2022-08-24T14:43:04Z</time>
      </trkpt>
      <trkpt lat="44.09557" lon="6.36304">
        <ele>1567.684</ele>
        <time>2022-08-24T14:43:05Z</time>
      </trkpt>
      <trkpt lat="44.09561" lon="6.36302">
        <ele>1567.687</ele>
        <time>2022-08-24T14:43:06Z</time>
      </trkpt>
      <trkpt lat="44.09573" lon="6.36298">
        <ele>1567.842</ele>
        <time>2022-08-24T14:43:09Z</time>
      </trkpt>
      <trkpt lat="44.09577" lon="6.36298">
        <ele>1568.022</ele>
        <time>2022-08-24T14:43:10Z</time>
      </trkpt>
      <trkpt lat="44.09594" lon="6.36299">
        <ele>1569.014</ele>
        <time>2022-08-24T14:43:14Z</time>
      </trkpt>
      <trkpt lat="44.09603" lon="6.36299">
        <ele>1569.609</ele>
        <time>2022-08-24T14:43:16Z</time>
      </trkpt>
      <trkpt lat="44.09607" lon="6.36298">
        <ele>1569.875</ele>
        <time>2022-08-24T14:43:17Z</time>
      </trkpt>
      <trkpt lat="44.09614" lon="6.36294">
        <ele>1570.065</ele>
        <time>2022-08-24T14:43:19Z</time>
      </trkpt>
      <trkpt lat="44.09627" lon="6.36288">
        <ele>1571.045</ele>
        <time>2022-08-24T14:43:23Z</time>
      </trkpt>
      <trkpt lat="44.09631" lon="6.36286">
        <ele>1571.441</ele>
        <time>2022-08-24T14:43:24Z</time>
      </trkpt>
      <trkpt lat="44.09643" lon="6.36275">
        <ele>1572.274</ele>
        <time>2022-08-24T14:43:28Z</time>
      </trkpt>
      <trkpt lat="44.09648" lon="6.36267">
        <ele>1573.297</ele>
        <time>2022-08-24T14:43:30Z</time>
      </trkpt>
      <trkpt lat="44.0965" lon="6.36264">
        <ele>1573.433</ele>
        <time>2022-08-24T14:43:31Z</time>
      </trkpt>
      <trkpt lat="44.09657" lon="6.36258">
        <ele>1574.277</ele>
        <time>2022-08-24T14:43:33Z</time>
      </trkpt>
      <trkpt lat="44.0966" lon="6.36255">
        <ele>1574.46</ele>
        <time>2022-08-24T14:43:34Z</time>
      </trkpt>
      <trkpt lat="44.09663" lon="6.36254">
        <ele>1574.628</ele>
        <time>2022-08-24T14:43:35Z</time>
      </trkpt>
      <trkpt lat="44.09674" lon="6.36249">
        <ele>1575.089</ele>
        <time>2022-08-24T14:43:38Z</time>
      </trkpt>
      <trkpt lat="44.09681" lon="6.36244">
        <ele>1575.417</ele>
        <time>2022-08-24T14:43:40Z</time>
      </trkpt>
      <trkpt lat="44.09684" lon="6.3624">
        <ele>1575.609</ele>
        <time>2022-08-24T14:43:41Z</time>
      </trkpt>
      <trkpt lat="44.09696" lon="6.36222">
        <ele>1576.613</ele>
        <time>2022-08-24T14:43:46Z</time>
      </trkpt>
      <trkpt lat="44.09697" lon="6.36219">
        <ele>1576.693</ele>
        <time>2022-08-24T14:43:47Z</time>
      </trkpt>
      <trkpt lat="44.09703" lon="6.36209">
        <ele>1577.833</ele>
        <time>2022-08-24T14:43:50Z</time>
      </trkpt>
      <trkpt lat="44.09709" lon="6.36205">
        <ele>1578.079</ele>
        <time>2022-08-24T14:43:52Z</time>
      </trkpt>
      <trkpt lat="44.09722" lon="6.36202">
        <ele>1578.832</ele>
        <time>2022-08-24T14:43:56Z</time>
      </trkpt>
      <trkpt lat="44.09726" lon="6.36202">
        <ele>1579.015</ele>
        <time>2022-08-24T14:43:57Z</time>
      </trkpt>
      <trkpt lat="44.09737" lon="6.36198">
        <ele>1579.641</ele>
        <time>2022-08-24T14:44:00Z</time>
      </trkpt>
      <trkpt lat="44.0974" lon="6.36196">
        <ele>1580.245</ele>
        <time>2022-08-24T14:44:01Z</time>
      </trkpt>
      <trkpt lat="44.09755" lon="6.36176">
        <ele>1581.258</ele>
        <time>2022-08-24T14:44:07Z</time>
      </trkpt>
      <trkpt lat="44.09757" lon="6.36173">
        <ele>1581.234</ele>
        <time>2022-08-24T14:44:08Z</time>
      </trkpt>
      <trkpt lat="44.09764" lon="6.3616">
        <ele>1582.455</ele>
        <time>2022-08-24T14:44:12Z</time>
      </trkpt>
      <trkpt lat="44.09766" lon="6.36157">
        <ele>1582.61</ele>
        <time>2022-08-24T14:44:13Z</time>
      </trkpt>
      <trkpt lat="44.09771" lon="6.3615">
        <ele>1583.609</ele>
        <time>2022-08-24T14:44:15Z</time>
      </trkpt>
      <trkpt lat="44.09778" lon="6.36144">
        <ele>1584.864</ele>
        <time>2022-08-24T14:44:18Z</time>
      </trkpt>
      <trkpt lat="44.09794" lon="6.36135">
        <ele>1585.674</ele>
        <time>2022-08-24T14:44:24Z</time>
      </trkpt>
      <trkpt lat="44.09796" lon="6.36133">
        <ele>1586.254</ele>
        <time>2022-08-24T14:44:25Z</time>
      </trkpt>
      <trkpt lat="44.09812" lon="6.36126">
        <ele>1587.03</ele>
        <time>2022-08-24T14:44:30Z</time>
      </trkpt>
      <trkpt lat="44.09815" lon="6.36125">
        <ele>1587.273</ele>
        <time>2022-08-24T14:44:31Z</time>
      </trkpt>
      <trkpt lat="44.09822" lon="6.36121">
        <ele>1587.676</ele>
        <time>2022-08-24T14:44:33Z</time>
      </trkpt>
      <trkpt lat="44.09832" lon="6.36115">
        <ele>1588.292</ele>
        <time>2022-08-24T14:44:36Z</time>
      </trkpt>
      <trkpt lat="44.09835" lon="6.36112">
        <ele>1588.466</ele>
        <time>2022-08-24T14:44:37Z</time>
      </trkpt>
      <trkpt lat="44.09838" lon="6.3611">
        <ele>1589.069</ele>
        <time>2022-08-24T14:44:38Z</time>
      </trkpt>
      <trkpt lat="44.09842" lon="6.36106">
        <ele>1590.014</ele>
        <time>2022-08-24T14:44:40Z</time>
      </trkpt>
      <trkpt lat="44.09847" lon="6.36101">
        <ele>1591.254</ele>
        <time>2022-08-24T14:44:42Z</time>
      </trkpt>
      <trkpt lat="44.09855" lon="6.36095">
        <ele>1592.409</ele>
        <time>2022-08-24T14:44:45Z</time>
      </trkpt>
      <trkpt lat="44.09864" lon="6.36089">
        <ele>1593.209</ele>
        <time>2022-08-24T14:44:48Z</time>
      </trkpt>
      <trkpt lat="44.09867" lon="6.36087">
        <ele>1593.432</ele>
        <time>2022-08-24T14:44:49Z</time>
      </trkpt>
      <trkpt lat="44.0987" lon="6.36084">
        <ele>1593.632</ele>
        <time>2022-08-24T14:44:50Z</time>
      </trkpt>
      <trkpt lat="44.09875" lon="6.36079">
        <ele>1594.492</ele>
        <time>2022-08-24T14:44:52Z</time>
      </trkpt>
      <trkpt lat="44.09878" lon="6.36076">
        <ele>1594.888</ele>
        <time>2022-08-24T14:44:53Z</time>
      </trkpt>
      <trkpt lat="44.09886" lon="6.36067">
        <ele>1595.631</ele>
        <time>2022-08-24T14:44:56Z</time>
      </trkpt>
      <trkpt lat="44.09889" lon="6.36065">
        <ele>1595.814</ele>
        <time>2022-08-24T14:44:57Z</time>
      </trkpt>
      <trkpt lat="44.09904" lon="6.36055">
        <ele>1596.27</ele>
        <time>2022-08-24T14:45:02Z</time>
      </trkpt>
      <trkpt lat="44.09906" lon="6.36053">
        <ele>1597.254</ele>
        <time>2022-08-24T14:45:03Z</time>
      </trkpt>
      <trkpt lat="44.09914" lon="6.36047">
        <ele>1598.457</ele>
        <time>2022-08-24T14:45:06Z</time>
      </trkpt>
      <trkpt lat="44.09919" lon="6.36044">
        <ele>1598.874</ele>
        <time>2022-08-24T14:45:08Z</time>
      </trkpt>
      <trkpt lat="44.09932" lon="6.36039">
        <ele>1599.656</ele>
        <time>2022-08-24T14:45:12Z</time>
      </trkpt>
      <trkpt lat="44.09938" lon="6.36039">
        <ele>1600.221</ele>
        <time>2022-08-24T14:45:14Z</time>
      </trkpt>
      <trkpt lat="44.09942" lon="6.3604">
        <ele>1600.809</ele>
        <time>2022-08-24T14:45:15Z</time>
      </trkpt>
      <trkpt lat="44.09951" lon="6.3604">
        <ele>1602.458</ele>
        <time>2022-08-24T14:45:18Z</time>
      </trkpt>
      <trkpt lat="44.0996" lon="6.36039">
        <ele>1604.078</ele>
        <time>2022-08-24T14:45:21Z</time>
      </trkpt>
      <trkpt lat="44.09978" lon="6.3603">
        <ele>1605.248</ele>
        <time>2022-08-24T14:45:27Z</time>
      </trkpt>
      <trkpt lat="44.09984" lon="6.3602">
        <ele>1606.894</ele>
        <time>2022-08-24T14:45:30Z</time>
      </trkpt>
      <trkpt lat="44.09987" lon="6.36012">
        <ele>1607.467</ele>
        <time>2022-08-24T14:45:32Z</time>
      </trkpt>
      <trkpt lat="44.09989" lon="6.36008">
        <ele>1607.65</ele>
        <time>2022-08-24T14:45:33Z</time>
      </trkpt>
      <trkpt lat="44.09991" lon="6.36003">
        <ele>1608.036</ele>
        <time>2022-08-24T14:45:34Z</time>
      </trkpt>
      <trkpt lat="44.10002" lon="6.35989">
        <ele>1608.81</ele>
        <time>2022-08-24T14:45:38Z</time>
      </trkpt>
      <trkpt lat="44.10007" lon="6.35981">
        <ele>1609.033</ele>
        <time>2022-08-24T14:45:40Z</time>
      </trkpt>
      <trkpt lat="44.10018" lon="6.35964">
        <ele>1609.448</ele>
        <time>2022-08-24T14:45:44Z</time>
      </trkpt>
      <trkpt lat="44.10033" lon="6.35948">
        <ele>1610.061</ele>
        <time>2022-08-24T14:45:49Z</time>
      </trkpt>
      <trkpt lat="44.10037" lon="6.35945">
        <ele>1610.217</ele>
        <time>2022-08-24T14:45:50Z</time>
      </trkpt>
      <trkpt lat="44.10044" lon="6.3594">
        <ele>1611.409</ele>
        <time>2022-08-24T14:45:52Z</time>
      </trkpt>
      <trkpt lat="44.10053" lon="6.35935">
        <ele>1612.465</ele>
        <time>2022-08-24T14:45:55Z</time>
      </trkpt>
      <trkpt lat="44.10056" lon="6.35933">
        <ele>1613.255</ele>
        <time>2022-08-24T14:45:56Z</time>
      </trkpt>
      <trkpt lat="44.10059" lon="6.3593">
        <ele>1613.675</ele>
        <time>2022-08-24T14:45:57Z</time>
      </trkpt>
      <trkpt lat="44.10069" lon="6.35918">
        <ele>1614.861</ele>
        <time>2022-08-24T14:46:01Z</time>
      </trkpt>
      <trkpt lat="44.10071" lon="6.35914">
        <ele>1615.244</ele>
        <time>2022-08-24T14:46:02Z</time>
      </trkpt>
      <trkpt lat="44.10075" lon="6.35907">
        <ele>1616.087</ele>
        <time>2022-08-24T14:46:04Z</time>
      </trkpt>
      <trkpt lat="44.10082" lon="6.35898">
        <ele>1617.463</ele>
        <time>2022-08-24T14:46:07Z</time>
      </trkpt>
      <trkpt lat="44.10087" lon="6.35892">
        <ele>1618.037</ele>
        <time>2022-08-24T14:46:09Z</time>
      </trkpt>
      <trkpt lat="44.10089" lon="6.3589">
        <ele>1618.42</ele>
        <time>2022-08-24T14:46:10Z</time>
      </trkpt>
      <trkpt lat="44.10097" lon="6.35882">
        <ele>1619.679</ele>
        <time>2022-08-24T14:46:13Z</time>
      </trkpt>
      <trkpt lat="44.10105" lon="6.35876">
        <ele>1620.205</ele>
        <time>2022-08-24T14:46:16Z</time>
      </trkpt>
      <trkpt lat="44.10112" lon="6.35876">
        <ele>1620.625</ele>
        <time>2022-08-24T14:46:18Z</time>
      </trkpt>
      <trkpt lat="44.10125" lon="6.35878">
        <ele>1621.809</ele>
        <time>2022-08-24T14:46:22Z</time>
      </trkpt>
      <trkpt lat="44.10128" lon="6.35878">
        <ele>1622.458</ele>
        <time>2022-08-24T14:46:23Z</time>
      </trkpt>
      <trkpt lat="44.10131" lon="6.35878">
        <ele>1622.888</ele>
        <time>2022-08-24T14:46:24Z</time>
      </trkpt>
      <trkpt lat="44.10137" lon="6.35877">
        <ele>1624.078</ele>
        <time>2022-08-24T14:46:26Z</time>
      </trkpt>
      <trkpt lat="44.10143" lon="6.35874">
        <ele>1625.034</ele>
        <time>2022-08-24T14:46:28Z</time>
      </trkpt>
      <trkpt lat="44.10149" lon="6.35871">
        <ele>1625.667</ele>
        <time>2022-08-24T14:46:30Z</time>
      </trkpt>
      <trkpt lat="44.10154" lon="6.35867">
        <ele>1626.47</ele>
        <time>2022-08-24T14:46:32Z</time>
      </trkpt>
      <trkpt lat="44.10162" lon="6.35862">
        <ele>1627.816</ele>
        <time>2022-08-24T14:46:35Z</time>
      </trkpt>
      <trkpt lat="44.10172" lon="6.35858">
        <ele>1628.83</ele>
        <time>2022-08-24T14:46:38Z</time>
      </trkpt>
      <trkpt lat="44.1018" lon="6.35855">
        <ele>1629.853</ele>
        <time>2022-08-24T14:46:41Z</time>
      </trkpt>
      <trkpt lat="44.10186" lon="6.35852">
        <ele>1631.287</ele>
        <time>2022-08-24T14:46:43Z</time>
      </trkpt>
      <trkpt lat="44.10194" lon="6.35846">
        <ele>1632.042</ele>
        <time>2022-08-24T14:46:46Z</time>
      </trkpt>
      <trkpt lat="44.10196" lon="6.35843">
        <ele>1632.026</ele>
        <time>2022-08-24T14:46:47Z</time>
      </trkpt>
      <trkpt lat="44.102" lon="6.35836">
        <ele>1632.409</ele>
        <time>2022-08-24T14:46:49Z</time>
      </trkpt>
      <trkpt lat="44.10206" lon="6.35828">
        <ele>1633.219</ele>
        <time>2022-08-24T14:46:52Z</time>
      </trkpt>
      <trkpt lat="44.10209" lon="6.35826">
        <ele>1633.689</ele>
        <time>2022-08-24T14:46:53Z</time>
      </trkpt>
      <trkpt lat="44.10215" lon="6.35824">
        <ele>1634.429</ele>
        <time>2022-08-24T14:46:55Z</time>
      </trkpt>
      <trkpt lat="44.10218" lon="6.35823">
        <ele>1635.095</ele>
        <time>2022-08-24T14:46:56Z</time>
      </trkpt>
      <trkpt lat="44.10221" lon="6.35823">
        <ele>1635.498</ele>
        <time>2022-08-24T14:46:57Z</time>
      </trkpt>
      <trkpt lat="44.10224" lon="6.35823">
        <ele>1636.621</ele>
        <time>2022-08-24T14:46:58Z</time>
      </trkpt>
      <trkpt lat="44.1023" lon="6.35823">
        <ele>1637.847</ele>
        <time>2022-08-24T14:47:00Z</time>
      </trkpt>
      <trkpt lat="44.10247" lon="6.35824">
        <ele>1638.851</ele>
        <time>2022-08-24T14:47:05Z</time>
      </trkpt>
      <trkpt lat="44.10254" lon="6.35825">
        <ele>1639.014</ele>
        <time>2022-08-24T14:47:07Z</time>
      </trkpt>
      <trkpt lat="44.10264" lon="6.35826">
        <ele>1640.074</ele>
        <time>2022-08-24T14:47:10Z</time>
      </trkpt>
      <trkpt lat="44.10267" lon="6.35826">
        <ele>1640.456</ele>
        <time>2022-08-24T14:47:11Z</time>
      </trkpt>
      <trkpt lat="44.10273" lon="6.35825">
        <ele>1641.021</ele>
        <time>2022-08-24T14:47:13Z</time>
      </trkpt>
      <trkpt lat="44.10284" lon="6.35823">
        <ele>1642.009</ele>
        <time>2022-08-24T14:47:17Z</time>
      </trkpt>
      <trkpt lat="44.10293" lon="6.35821">
        <ele>1643.298</ele>
        <time>2022-08-24T14:47:20Z</time>
      </trkpt>
      <trkpt lat="44.10304" lon="6.35812">
        <ele>1644.468</ele>
        <time>2022-08-24T14:47:24Z</time>
      </trkpt>
      <trkpt lat="44.1031" lon="6.35809">
        <ele>1645.048</ele>
        <time>2022-08-24T14:47:26Z</time>
      </trkpt>
      <trkpt lat="44.1032" lon="6.35804">
        <ele>1646.034</ele>
        <time>2022-08-24T14:47:29Z</time>
      </trkpt>
      <trkpt lat="44.10326" lon="6.358">
        <ele>1647.287</ele>
        <time>2022-08-24T14:47:31Z</time>
      </trkpt>
      <trkpt lat="44.10332" lon="6.35797">
        <ele>1648.02</ele>
        <time>2022-08-24T14:47:33Z</time>
      </trkpt>
      <trkpt lat="44.10335" lon="6.35796">
        <ele>1648.476</ele>
        <time>2022-08-24T14:47:34Z</time>
      </trkpt>
      <trkpt lat="44.10339" lon="6.35794">
        <ele>1648.64</ele>
        <time>2022-08-24T14:47:35Z</time>
      </trkpt>
      <trkpt lat="44.10354" lon="6.35788">
        <ele>1649.893</ele>
        <time>2022-08-24T14:47:40Z</time>
      </trkpt>
      <trkpt lat="44.10359" lon="6.35785">
        <ele>1651.049</ele>
        <time>2022-08-24T14:47:42Z</time>
      </trkpt>
      <trkpt lat="44.10364" lon="6.35781">
        <ele>1652.402</ele>
        <time>2022-08-24T14:47:44Z</time>
      </trkpt>
      <trkpt lat="44.10371" lon="6.35772">
        <ele>1654.222</ele>
        <time>2022-08-24T14:47:47Z</time>
      </trkpt>
      <trkpt lat="44.10379" lon="6.35766">
        <ele>1655.209</ele>
        <time>2022-08-24T14:47:50Z</time>
      </trkpt>
      <trkpt lat="44.10386" lon="6.35763">
        <ele>1656.445</ele>
        <time>2022-08-24T14:47:52Z</time>
      </trkpt>
      <trkpt lat="44.10389" lon="6.35761">
        <ele>1656.895</ele>
        <time>2022-08-24T14:47:53Z</time>
      </trkpt>
      <trkpt lat="44.10392" lon="6.3576">
        <ele>1657.635</ele>
        <time>2022-08-24T14:47:54Z</time>
      </trkpt>
      <trkpt lat="44.10405" lon="6.35748">
        <ele>1657.881</ele>
        <time>2022-08-24T14:47:59Z</time>
      </trkpt>
      <trkpt lat="44.10414" lon="6.35743">
        <ele>1658.064</ele>
        <time>2022-08-24T14:48:02Z</time>
      </trkpt>
      <trkpt lat="44.1042" lon="6.35741">
        <ele>1658.877</ele>
        <time>2022-08-24T14:48:04Z</time>
      </trkpt>
      <trkpt lat="44.10422" lon="6.35739">
        <ele>1659.223</ele>
        <time>2022-08-24T14:48:05Z</time>
      </trkpt>
      <trkpt lat="44.10426" lon="6.35733">
        <ele>1660.067</ele>
        <time>2022-08-24T14:48:07Z</time>
      </trkpt>
      <trkpt lat="44.10434" lon="6.35723">
        <ele>1661.89</ele>
        <time>2022-08-24T14:48:10Z</time>
      </trkpt>
      <trkpt lat="44.10437" lon="6.35721">
        <ele>1662.281</ele>
        <time>2022-08-24T14:48:11Z</time>
      </trkpt>
      <trkpt lat="44.10446" lon="6.35715">
        <ele>1663.061</ele>
        <time>2022-08-24T14:48:14Z</time>
      </trkpt>
      <trkpt lat="44.10455" lon="6.35711">
        <ele>1664.217</ele>
        <time>2022-08-24T14:48:17Z</time>
      </trkpt>
      <trkpt lat="44.10463" lon="6.35711">
        <ele>1664.609</ele>
        <time>2022-08-24T14:48:19Z</time>
      </trkpt>
      <trkpt lat="44.1047" lon="6.35715">
        <ele>1665.299</ele>
        <time>2022-08-24T14:48:21Z</time>
      </trkpt>
      <trkpt lat="44.10481" lon="6.35719">
        <ele>1666.279</ele>
        <time>2022-08-24T14:48:24Z</time>
      </trkpt>
      <trkpt lat="44.10485" lon="6.35721">
        <ele>1666.489</ele>
        <time>2022-08-24T14:48:25Z</time>
      </trkpt>
      <trkpt lat="44.10489" lon="6.35723">
        <ele>1667.485</ele>
        <time>2022-08-24T14:48:26Z</time>
      </trkpt>
      <trkpt lat="44.10501" lon="6.35732">
        <ele>1667.848</ele>
        <time>2022-08-24T14:48:29Z</time>
      </trkpt>
      <trkpt lat="44.10512" lon="6.35747">
        <ele>1667.261</ele>
        <time>2022-08-24T14:48:33Z</time>
      </trkpt>
      <trkpt lat="44.10528" lon="6.35767">
        <ele>1667.687</ele>
        <time>2022-08-24T14:48:38Z</time>
      </trkpt>
      <trkpt lat="44.10543" lon="6.35782">
        <ele>1667.261</ele>
        <time>2022-08-24T14:48:43Z</time>
      </trkpt>
      <trkpt lat="44.10546" lon="6.35784">
        <ele>1667.254</ele>
        <time>2022-08-24T14:48:44Z</time>
      </trkpt>
      <trkpt lat="44.10558" lon="6.35797">
        <ele>1667.099</ele>
        <time>2022-08-24T14:48:50Z</time>
      </trkpt>
      <trkpt lat="44.10568" lon="6.35809">
        <ele>1666.407</ele>
        <time>2022-08-24T14:48:55Z</time>
      </trkpt>
      <trkpt lat="44.10574" lon="6.35816">
        <ele>1666.227</ele>
        <time>2022-08-24T14:48:58Z</time>
      </trkpt>
      <trkpt lat="44.10579" lon="6.35826">
        <ele>1665.209</ele>
        <time>2022-08-24T14:49:01Z</time>
      </trkpt>
      <trkpt lat="44.10591" lon="6.35835">
        <ele>1664.27</ele>
        <time>2022-08-24T14:49:06Z</time>
      </trkpt>
      <trkpt lat="44.10593" lon="6.35838">
        <ele>1664.29</ele>
        <time>2022-08-24T14:49:08Z</time>
      </trkpt>
      <trkpt lat="44.10594" lon="6.35838">
        <ele>1665.09</ele>
        <time>2022-08-24T14:49:10Z</time>
      </trkpt>
      <trkpt lat="44.10596" lon="6.35832">
        <ele>1666.686</ele>
        <time>2022-08-24T15:40:12Z</time>
      </trkpt>
      <trkpt lat="44.10596" lon="6.35832">
        <ele>1666.669</ele>
        <time>2022-08-24T15:40:13Z</time>
      </trkpt>
      <trkpt lat="44.10595" lon="6.35832">
        <ele>1666.832</ele>
        <time>2022-08-24T15:40:15Z</time>
      </trkpt>
      <trkpt lat="44.10594" lon="6.35831">
        <ele>1667.478</ele>
        <time>2022-08-24T15:40:18Z</time>
      </trkpt>
      <trkpt lat="44.10594" lon="6.35831">
        <ele>1667.492</ele>
        <time>2022-08-24T15:40:19Z</time>
      </trkpt>
      <trkpt lat="44.10603" lon="6.3583">
        <ele>1666.695</ele>
        <time>2022-08-24T15:43:02Z</time>
      </trkpt>
      <trkpt lat="44.10605" lon="6.35828">
        <ele>1666.696</ele>
        <time>2022-08-24T15:43:03Z</time>
      </trkpt>
      <trkpt lat="44.10618" lon="6.35823">
        <ele>1665.631</ele>
        <time>2022-08-24T15:43:08Z</time>
      </trkpt>
      <trkpt lat="44.10624" lon="6.35821">
        <ele>1664.824</ele>
        <time>2022-08-24T15:43:10Z</time>
      </trkpt>
      <trkpt lat="44.10627" lon="6.3582">
        <ele>1664.409</ele>
        <time>2022-08-24T15:43:12Z</time>
      </trkpt>
      <trkpt lat="44.10628" lon="6.35821">
        <ele>1664.27</ele>
        <time>2022-08-24T15:43:13Z</time>
      </trkpt>
      <trkpt lat="44.1063" lon="6.35822">
        <ele>1663.24</ele>
        <time>2022-08-24T15:43:15Z</time>
      </trkpt>
      <trkpt lat="44.10631" lon="6.35824">
        <ele>1662.66</ele>
        <time>2022-08-24T15:43:17Z</time>
      </trkpt>
      <trkpt lat="44.10638" lon="6.35809">
        <ele>1662.616</ele>
        <time>2022-08-24T15:45:32Z</time>
      </trkpt>
      <trkpt lat="44.10642" lon="6.35811">
        <ele>1661.849</ele>
        <time>2022-08-24T15:45:33Z</time>
      </trkpt>
      <trkpt lat="44.10651" lon="6.35816">
        <ele>1661.252</ele>
        <time>2022-08-24T15:45:35Z</time>
      </trkpt>
      <trkpt lat="44.10655" lon="6.3582">
        <ele>1659.228</ele>
        <time>2022-08-24T15:45:36Z</time>
      </trkpt>
      <trkpt lat="44.10658" lon="6.35825">
        <ele>1656.422</ele>
        <time>2022-08-24T15:45:37Z</time>
      </trkpt>
      <trkpt lat="44.10661" lon="6.3583">
        <ele>1654.295</ele>
        <time>2022-08-24T15:45:38Z</time>
      </trkpt>
      <trkpt lat="44.10664" lon="6.35834">
        <ele>1653.032</ele>
        <time>2022-08-24T15:45:39Z</time>
      </trkpt>
      <trkpt lat="44.10667" lon="6.35835">
        <ele>1651.492</ele>
        <time>2022-08-24T15:45:40Z</time>
      </trkpt>
      <trkpt lat="44.1067" lon="6.35835">
        <ele>1650.411</ele>
        <time>2022-08-24T15:45:41Z</time>
      </trkpt>
      <trkpt lat="44.10674" lon="6.35833">
        <ele>1649.809</ele>
        <time>2022-08-24T15:45:42Z</time>
      </trkpt>
      <trkpt lat="44.10678" lon="6.35832">
        <ele>1648.234</ele>
        <time>2022-08-24T15:45:43Z</time>
      </trkpt>
      <trkpt lat="44.10683" lon="6.35832">
        <ele>1646.654</ele>
        <time>2022-08-24T15:45:44Z</time>
      </trkpt>
      <trkpt lat="44.10688" lon="6.35831">
        <ele>1645.254</ele>
        <time>2022-08-24T15:45:45Z</time>
      </trkpt>
      <trkpt lat="44.10691" lon="6.35831">
        <ele>1644.29</ele>
        <time>2022-08-24T15:45:46Z</time>
      </trkpt>
      <trkpt lat="44.10694" lon="6.35831">
        <ele>1643.643</ele>
        <time>2022-08-24T15:45:47Z</time>
      </trkpt>
      <trkpt lat="44.10696" lon="6.35829">
        <ele>1643.216</ele>
        <time>2022-08-24T15:45:48Z</time>
      </trkpt>
      <trkpt lat="44.10698" lon="6.35823">
        <ele>1642.472</ele>
        <time>2022-08-24T15:45:50Z</time>
      </trkpt>
      <trkpt lat="44.10699" lon="6.35823">
        <ele>1642.246</ele>
        <time>2022-08-24T15:45:51Z</time>
      </trkpt>
      <trkpt lat="44.10701" lon="6.35822">
        <ele>1642.019</ele>
        <time>2022-08-24T15:45:52Z</time>
      </trkpt>
      <trkpt lat="44.10703" lon="6.35822">
        <ele>1641.848</ele>
        <time>2022-08-24T15:45:55Z</time>
      </trkpt>
      <trkpt lat="44.10703" lon="6.35822">
        <ele>1641.861</ele>
        <time>2022-08-24T15:45:58Z</time>
      </trkpt>
      <trkpt lat="44.10703" lon="6.35815">
        <ele>1641.417</ele>
        <time>2022-08-24T15:46:21Z</time>
      </trkpt>
      <trkpt lat="44.10705" lon="6.35812">
        <ele>1640.809</ele>
        <time>2022-08-24T15:46:22Z</time>
      </trkpt>
      <trkpt lat="44.10709" lon="6.35808">
        <ele>1640.485</ele>
        <time>2022-08-24T15:46:23Z</time>
      </trkpt>
      <trkpt lat="44.10722" lon="6.35796">
        <ele>1639.245</ele>
        <time>2022-08-24T15:46:26Z</time>
      </trkpt>
      <trkpt lat="44.10727" lon="6.35789">
        <ele>1638.085</ele>
        <time>2022-08-24T15:46:27Z</time>
      </trkpt>
      <trkpt lat="44.10732" lon="6.35782">
        <ele>1636.641</ele>
        <time>2022-08-24T15:46:28Z</time>
      </trkpt>
      <trkpt lat="44.10743" lon="6.35767">
        <ele>1634.824</ele>
        <time>2022-08-24T15:46:30Z</time>
      </trkpt>
      <trkpt lat="44.10749" lon="6.35758">
        <ele>1633.447</ele>
        <time>2022-08-24T15:46:31Z</time>
      </trkpt>
      <trkpt lat="44.10762" lon="6.3574">
        <ele>1631.213</ele>
        <time>2022-08-24T15:46:33Z</time>
      </trkpt>
      <trkpt lat="44.10768" lon="6.35732">
        <ele>1629.467</ele>
        <time>2022-08-24T15:46:34Z</time>
      </trkpt>
      <trkpt lat="44.10774" lon="6.35724">
        <ele>1628.04</ele>
        <time>2022-08-24T15:46:35Z</time>
      </trkpt>
      <trkpt lat="44.1078" lon="6.35717">
        <ele>1627.022</ele>
        <time>2022-08-24T15:46:36Z</time>
      </trkpt>
      <trkpt lat="44.10785" lon="6.35711">
        <ele>1625.062</ele>
        <time>2022-08-24T15:46:37Z</time>
      </trkpt>
      <trkpt lat="44.10789" lon="6.35707">
        <ele>1624.208</ele>
        <time>2022-08-24T15:46:38Z</time>
      </trkpt>
      <trkpt lat="44.10794" lon="6.35702">
        <ele>1623.609</ele>
        <time>2022-08-24T15:46:39Z</time>
      </trkpt>
      <trkpt lat="44.10798" lon="6.35697">
        <ele>1623.893</ele>
        <time>2022-08-24T15:46:40Z</time>
      </trkpt>
      <trkpt lat="44.10807" lon="6.35686">
        <ele>1623.693</ele>
        <time>2022-08-24T15:46:42Z</time>
      </trkpt>
      <trkpt lat="44.10811" lon="6.35681">
        <ele>1623.473</ele>
        <time>2022-08-24T15:46:43Z</time>
      </trkpt>
      <trkpt lat="44.10815" lon="6.35674">
        <ele>1622.659</ele>
        <time>2022-08-24T15:46:45Z</time>
      </trkpt>
      <trkpt lat="44.10816" lon="6.35673">
        <ele>1622.272</ele>
        <time>2022-08-24T15:46:46Z</time>
      </trkpt>
      <trkpt lat="44.10817" lon="6.35673">
        <ele>1622.025</ele>
        <time>2022-08-24T15:46:47Z</time>
      </trkpt>
      <trkpt lat="44.10817" lon="6.35673">
        <ele>1622.041</ele>
        <time>2022-08-24T15:46:48Z</time>
      </trkpt>
      <trkpt lat="44.10818" lon="6.35674">
        <ele>1622.255</ele>
        <time>2022-08-24T15:46:49Z</time>
      </trkpt>
      <trkpt lat="44.10818" lon="6.35675">
        <ele>1622.278</ele>
        <time>2022-08-24T15:46:50Z</time>
      </trkpt>
      <trkpt lat="44.1082" lon="6.35679">
        <ele>1623.255</ele>
        <time>2022-08-24T15:52:46Z</time>
      </trkpt>
      <trkpt lat="44.1082" lon="6.35682">
        <ele>1623.007</ele>
        <time>2022-08-24T15:52:47Z</time>
      </trkpt>
      <trkpt lat="44.10826" lon="6.35701">
        <ele>1621.017</ele>
        <time>2022-08-24T15:52:51Z</time>
      </trkpt>
      <trkpt lat="44.1083" lon="6.35705">
        <ele>1619.809</ele>
        <time>2022-08-24T15:52:52Z</time>
      </trkpt>
      <trkpt lat="44.10839" lon="6.35713">
        <ele>1618.486</ele>
        <time>2022-08-24T15:52:54Z</time>
      </trkpt>
      <trkpt lat="44.10843" lon="6.35716">
        <ele>1617.836</ele>
        <time>2022-08-24T15:52:55Z</time>
      </trkpt>
      <trkpt lat="44.10847" lon="6.3572">
        <ele>1617.476</ele>
        <time>2022-08-24T15:52:56Z</time>
      </trkpt>
      <trkpt lat="44.10853" lon="6.35726">
        <ele>1615.832</ele>
        <time>2022-08-24T15:52:58Z</time>
      </trkpt>
      <trkpt lat="44.10857" lon="6.35728">
        <ele>1614.425</ele>
        <time>2022-08-24T15:52:59Z</time>
      </trkpt>
      <trkpt lat="44.1086" lon="6.35729">
        <ele>1613.628</ele>
        <time>2022-08-24T15:53:00Z</time>
      </trkpt>
      <trkpt lat="44.10862" lon="6.35727">
        <ele>1613.014</ele>
        <time>2022-08-24T15:53:01Z</time>
      </trkpt>
      <trkpt lat="44.10863" lon="6.35726">
        <ele>1611.888</ele>
        <time>2022-08-24T15:53:02Z</time>
      </trkpt>
      <trkpt lat="44.10863" lon="6.35725">
        <ele>1611.291</ele>
        <time>2022-08-24T15:53:03Z</time>
      </trkpt>
      <trkpt lat="44.1086" lon="6.35722">
        <ele>1611.078</ele>
        <time>2022-08-24T15:53:04Z</time>
      </trkpt>
      <trkpt lat="44.10857" lon="6.35719">
        <ele>1610.833</ele>
        <time>2022-08-24T15:53:05Z</time>
      </trkpt>
      <trkpt lat="44.10848" lon="6.35706">
        <ele>1610.626</ele>
        <time>2022-08-24T15:53:08Z</time>
      </trkpt>
      <trkpt lat="44.10841" lon="6.35695">
        <ele>1608.209</ele>
        <time>2022-08-24T15:53:10Z</time>
      </trkpt>
      <trkpt lat="44.10838" lon="6.35689">
        <ele>1605.878</ele>
        <time>2022-08-24T15:53:11Z</time>
      </trkpt>
      <trkpt lat="44.10836" lon="6.35685">
        <ele>1604.078</ele>
        <time>2022-08-24T15:53:12Z</time>
      </trkpt>
      <trkpt lat="44.10834" lon="6.3568">
        <ele>1602.238</ele>
        <time>2022-08-24T15:53:14Z</time>
      </trkpt>
      <trkpt lat="44.10834" lon="6.35678">
        <ele>1601.014</ele>
        <time>2022-08-24T15:53:15Z</time>
      </trkpt>
      <trkpt lat="44.10834" lon="6.35679">
        <ele>1600.297</ele>
        <time>2022-08-24T15:53:16Z</time>
      </trkpt>
      <trkpt lat="44.10836" lon="6.35682">
        <ele>1599.65</ele>
        <time>2022-08-24T15:53:17Z</time>
      </trkpt>
      <trkpt lat="44.10846" lon="6.35693">
        <ele>1599.036</ele>
        <time>2022-08-24T15:53:21Z</time>
      </trkpt>
      <trkpt lat="44.10854" lon="6.35699">
        <ele>1598.49</ele>
        <time>2022-08-24T15:53:24Z</time>
      </trkpt>
      <trkpt lat="44.10858" lon="6.357">
        <ele>1598.013</ele>
        <time>2022-08-24T15:53:25Z</time>
      </trkpt>
      <trkpt lat="44.10861" lon="6.357">
        <ele>1597.419</ele>
        <time>2022-08-24T15:53:26Z</time>
      </trkpt>
      <trkpt lat="44.10868" lon="6.35698">
        <ele>1596.609</ele>
        <time>2022-08-24T15:53:28Z</time>
      </trkpt>
      <trkpt lat="44.10875" lon="6.35696">
        <ele>1596.419</ele>
        <time>2022-08-24T15:53:30Z</time>
      </trkpt>
      <trkpt lat="44.10879" lon="6.35695">
        <ele>1596.209</ele>
        <time>2022-08-24T15:53:31Z</time>
      </trkpt>
      <trkpt lat="44.10883" lon="6.35693">
        <ele>1594.492</ele>
        <time>2022-08-24T15:53:32Z</time>
      </trkpt>
      <trkpt lat="44.10887" lon="6.35693">
        <ele>1593.292</ele>
        <time>2022-08-24T15:53:33Z</time>
      </trkpt>
      <trkpt lat="44.1089" lon="6.35694">
        <ele>1592.232</ele>
        <time>2022-08-24T15:53:34Z</time>
      </trkpt>
      <trkpt lat="44.10892" lon="6.35693">
        <ele>1590.888</ele>
        <time>2022-08-24T15:53:35Z</time>
      </trkpt>
      <trkpt lat="44.10895" lon="6.35693">
        <ele>1589.691</ele>
        <time>2022-08-24T15:53:37Z</time>
      </trkpt>
      <trkpt lat="44.1089" lon="6.35692">
        <ele>1586.644</ele>
        <time>2022-08-24T15:55:19Z</time>
      </trkpt>
      <trkpt lat="44.10887" lon="6.35687">
        <ele>1586.62</ele>
        <time>2022-08-24T15:55:21Z</time>
      </trkpt>
      <trkpt lat="44.10882" lon="6.35681">
        <ele>1585.474</ele>
        <time>2022-08-24T15:55:24Z</time>
      </trkpt>
      <trkpt lat="44.10881" lon="6.35679">
        <ele>1585.087</ele>
        <time>2022-08-24T15:55:25Z</time>
      </trkpt>
      <trkpt lat="44.10881" lon="6.35678">
        <ele>1584.665</ele>
        <time>2022-08-24T15:55:26Z</time>
      </trkpt>
      <trkpt lat="44.10879" lon="6.35676">
        <ele>1584.068</ele>
        <time>2022-08-24T15:55:27Z</time>
      </trkpt>
      <trkpt lat="44.10875" lon="6.35674">
        <ele>1583.814</ele>
        <time>2022-08-24T15:55:28Z</time>
      </trkpt>
      <trkpt lat="44.10872" lon="6.3567">
        <ele>1583.009</ele>
        <time>2022-08-24T15:55:29Z</time>
      </trkpt>
      <trkpt lat="44.10865" lon="6.35669">
        <ele>1581.667</ele>
        <time>2022-08-24T15:55:31Z</time>
      </trkpt>
      <trkpt lat="44.10861" lon="6.35665">
        <ele>1580.667</ele>
        <time>2022-08-24T15:55:33Z</time>
      </trkpt>
      <trkpt lat="44.10859" lon="6.35665">
        <ele>1580.477</ele>
        <time>2022-08-24T15:55:34Z</time>
      </trkpt>
      <trkpt lat="44.10857" lon="6.35663">
        <ele>1580.073</ele>
        <time>2022-08-24T15:55:35Z</time>
      </trkpt>
      <trkpt lat="44.10855" lon="6.35662">
        <ele>1579.236</ele>
        <time>2022-08-24T15:55:36Z</time>
      </trkpt>
      <trkpt lat="44.10853" lon="6.35661">
        <ele>1578.899</ele>
        <time>2022-08-24T15:55:37Z</time>
      </trkpt>
      <trkpt lat="44.10849" lon="6.35659">
        <ele>1578.275</ele>
        <time>2022-08-24T15:55:38Z</time>
      </trkpt>
      <trkpt lat="44.10849" lon="6.35656">
        <ele>1578.089</ele>
        <time>2022-08-24T15:55:39Z</time>
      </trkpt>
      <trkpt lat="44.10851" lon="6.35653">
        <ele>1576.812</ele>
        <time>2022-08-24T15:55:41Z</time>
      </trkpt>
      <trkpt lat="44.10852" lon="6.35652">
        <ele>1576.457</ele>
        <time>2022-08-24T15:55:42Z</time>
      </trkpt>
      <trkpt lat="44.10853" lon="6.3565">
        <ele>1575.4</ele>
        <time>2022-08-24T15:55:44Z</time>
      </trkpt>
      <trkpt lat="44.10854" lon="6.35649">
        <ele>1574.82</ele>
        <time>2022-08-24T15:55:45Z</time>
      </trkpt>
      <trkpt lat="44.10855" lon="6.35649">
        <ele>1574.409</ele>
        <time>2022-08-24T15:55:46Z</time>
      </trkpt>
      <trkpt lat="44.10856" lon="6.35649">
        <ele>1574.056</ele>
        <time>2022-08-24T15:55:47Z</time>
      </trkpt>
      <trkpt lat="44.10861" lon="6.35651">
        <ele>1573.246</ele>
        <time>2022-08-24T15:55:50Z</time>
      </trkpt>
      <trkpt lat="44.10872" lon="6.35657">
        <ele>1572.426</ele>
        <time>2022-08-24T15:55:55Z</time>
      </trkpt>
      <trkpt lat="44.10874" lon="6.35657">
        <ele>1571.482</ele>
        <time>2022-08-24T15:55:56Z</time>
      </trkpt>
      <trkpt lat="44.10879" lon="6.35655">
        <ele>1570.845</ele>
        <time>2022-08-24T15:55:58Z</time>
      </trkpt>
      <trkpt lat="44.10883" lon="6.35653">
        <ele>1570.028</ele>
        <time>2022-08-24T15:56:00Z</time>
      </trkpt>
      <trkpt lat="44.10886" lon="6.35651">
        <ele>1568.814</ele>
        <time>2022-08-24T15:56:02Z</time>
      </trkpt>
      <trkpt lat="44.10887" lon="6.3565">
        <ele>1568.468</ele>
        <time>2022-08-24T15:56:03Z</time>
      </trkpt>
      <trkpt lat="44.10887" lon="6.3565">
        <ele>1568.061</ele>
        <time>2022-08-24T15:56:04Z</time>
      </trkpt>
      <trkpt lat="44.10886" lon="6.35651">
        <ele>1567.882</ele>
        <time>2022-08-24T15:56:05Z</time>
      </trkpt>
      <trkpt lat="44.10874" lon="6.35652">
        <ele>1565.043</ele>
        <time>2022-08-24T15:56:25Z</time>
      </trkpt>
      <trkpt lat="44.10871" lon="6.35651">
        <ele>1564.817</ele>
        <time>2022-08-24T15:56:26Z</time>
      </trkpt>
      <trkpt lat="44.10859" lon="6.35637">
        <ele>1564.209</ele>
        <time>2022-08-24T15:56:30Z</time>
      </trkpt>
      <trkpt lat="44.10856" lon="6.35632">
        <ele>1563.819</ele>
        <time>2022-08-24T15:56:31Z</time>
      </trkpt>
      <trkpt lat="44.10846" lon="6.35626">
        <ele>1562.639</ele>
        <time>2022-08-24T15:56:34Z</time>
      </trkpt>
      <trkpt lat="44.10843" lon="6.35625">
        <ele>1562.229</ele>
        <time>2022-08-24T15:56:35Z</time>
      </trkpt>
      <trkpt lat="44.10844" lon="6.3562">
        <ele>1561.455</ele>
        <time>2022-08-24T15:56:37Z</time>
      </trkpt>
      <trkpt lat="44.10848" lon="6.35616">
        <ele>1559.838</ele>
        <time>2022-08-24T15:56:39Z</time>
      </trkpt>
      <trkpt lat="44.10849" lon="6.35615">
        <ele>1558.421</ele>
        <time>2022-08-24T15:56:40Z</time>
      </trkpt>
      <trkpt lat="44.1085" lon="6.35614">
        <ele>1557.017</ele>
        <time>2022-08-24T15:56:41Z</time>
      </trkpt>
      <trkpt lat="44.10849" lon="6.35613">
        <ele>1555.811</ele>
        <time>2022-08-24T15:56:42Z</time>
      </trkpt>
      <trkpt lat="44.10848" lon="6.35611">
        <ele>1554.834</ele>
        <time>2022-08-24T15:56:43Z</time>
      </trkpt>
      <trkpt lat="44.10846" lon="6.35609">
        <ele>1554.232</ele>
        <time>2022-08-24T15:56:44Z</time>
      </trkpt>
      <trkpt lat="44.10845" lon="6.35606">
        <ele>1553.092</ele>
        <time>2022-08-24T15:56:45Z</time>
      </trkpt>
      <trkpt lat="44.10844" lon="6.35604">
        <ele>1552.411</ele>
        <time>2022-08-24T15:56:46Z</time>
      </trkpt>
      <trkpt lat="44.10845" lon="6.35603">
        <ele>1551.209</ele>
        <time>2022-08-24T15:56:47Z</time>
      </trkpt>
      <trkpt lat="44.10847" lon="6.35601">
        <ele>1550.064</ele>
        <time>2022-08-24T15:56:48Z</time>
      </trkpt>
      <trkpt lat="44.10848" lon="6.356">
        <ele>1549.624</ele>
        <time>2022-08-24T15:56:49Z</time>
      </trkpt>
      <trkpt lat="44.1085" lon="6.356">
        <ele>1548.654</ele>
        <time>2022-08-24T15:56:50Z</time>
      </trkpt>
      <trkpt lat="44.10854" lon="6.35599">
        <ele>1547.43</ele>
        <time>2022-08-24T15:56:52Z</time>
      </trkpt>
      <trkpt lat="44.10858" lon="6.356">
        <ele>1546.063</ele>
        <time>2022-08-24T15:56:53Z</time>
      </trkpt>
      <trkpt lat="44.10863" lon="6.35601">
        <ele>1545.036</ele>
        <time>2022-08-24T15:56:54Z</time>
      </trkpt>
      <trkpt lat="44.10868" lon="6.35602">
        <ele>1544.242</ele>
        <time>2022-08-24T15:56:55Z</time>
      </trkpt>
      <trkpt lat="44.10875" lon="6.35601">
        <ele>1542.866</ele>
        <time>2022-08-24T15:56:57Z</time>
      </trkpt>
      <trkpt lat="44.10881" lon="6.35599">
        <ele>1541.669</ele>
        <time>2022-08-24T15:56:59Z</time>
      </trkpt>
      <trkpt lat="44.10885" lon="6.35598">
        <ele>1541.275</ele>
        <time>2022-08-24T15:57:00Z</time>
      </trkpt>
      <trkpt lat="44.1089" lon="6.35597">
        <ele>1540.228</ele>
        <time>2022-08-24T15:57:01Z</time>
      </trkpt>
      <trkpt lat="44.10896" lon="6.35594">
        <ele>1538.82</ele>
        <time>2022-08-24T15:57:02Z</time>
      </trkpt>
      <trkpt lat="44.10901" lon="6.35591">
        <ele>1537.209</ele>
        <time>2022-08-24T15:57:03Z</time>
      </trkpt>
      <trkpt lat="44.10906" lon="6.3559">
        <ele>1536.228</ele>
        <time>2022-08-24T15:57:04Z</time>
      </trkpt>
      <trkpt lat="44.10911" lon="6.35588">
        <ele>1535.828</ele>
        <time>2022-08-24T15:57:05Z</time>
      </trkpt>
      <trkpt lat="44.10917" lon="6.35586">
        <ele>1535.098</ele>
        <time>2022-08-24T15:57:06Z</time>
      </trkpt>
      <trkpt lat="44.10922" lon="6.35584">
        <ele>1534.414</ele>
        <time>2022-08-24T15:57:07Z</time>
      </trkpt>
      <trkpt lat="44.10927" lon="6.35583">
        <ele>1533.657</ele>
        <time>2022-08-24T15:57:08Z</time>
      </trkpt>
      <trkpt lat="44.10932" lon="6.35584">
        <ele>1531.09</ele>
        <time>2022-08-24T15:57:09Z</time>
      </trkpt>
      <trkpt lat="44.10937" lon="6.35585">
        <ele>1529.276</ele>
        <time>2022-08-24T15:57:10Z</time>
      </trkpt>
      <trkpt lat="44.10948" lon="6.35586">
        <ele>1527.83</ele>
        <time>2022-08-24T15:57:12Z</time>
      </trkpt>
      <trkpt lat="44.10955" lon="6.35586">
        <ele>1527.663</ele>
        <time>2022-08-24T15:57:13Z</time>
      </trkpt>
      <trkpt lat="44.10958" lon="6.35587">
        <ele>1527.423</ele>
        <time>2022-08-24T15:57:14Z</time>
      </trkpt>
      <trkpt lat="44.10959" lon="6.35586">
        <ele>1527.483</ele>
        <time>2022-08-24T15:57:15Z</time>
      </trkpt>
      <trkpt lat="44.10959" lon="6.35585">
        <ele>1527.411</ele>
        <time>2022-08-24T15:57:16Z</time>
      </trkpt>
      <trkpt lat="44.10958" lon="6.35583">
        <ele>1527.209</ele>
        <time>2022-08-24T15:57:17Z</time>
      </trkpt>
      <trkpt lat="44.10956" lon="6.3558">
        <ele>1526.843</ele>
        <time>2022-08-24T15:57:18Z</time>
      </trkpt>
      <trkpt lat="44.1095" lon="6.35572">
        <ele>1524.883</ele>
        <time>2022-08-24T15:57:20Z</time>
      </trkpt>
      <trkpt lat="44.10945" lon="6.35566">
        <ele>1523.613</ele>
        <time>2022-08-24T15:57:22Z</time>
      </trkpt>
      <trkpt lat="44.10943" lon="6.35564">
        <ele>1523.069</ele>
        <time>2022-08-24T15:57:23Z</time>
      </trkpt>
      <trkpt lat="44.10941" lon="6.35563">
        <ele>1522.812</ele>
        <time>2022-08-24T15:57:24Z</time>
      </trkpt>
      <trkpt lat="44.10938" lon="6.35564">
        <ele>1522.495</ele>
        <time>2022-08-24T15:57:25Z</time>
      </trkpt>
      <trkpt lat="44.10934" lon="6.35564">
        <ele>1521.481</ele>
        <time>2022-08-24T15:57:26Z</time>
      </trkpt>
      <trkpt lat="44.10928" lon="6.35564">
        <ele>1519.625</ele>
        <time>2022-08-24T15:57:27Z</time>
      </trkpt>
      <trkpt lat="44.10922" lon="6.35563">
        <ele>1518.618</ele>
        <time>2022-08-24T15:57:28Z</time>
      </trkpt>
      <trkpt lat="44.10918" lon="6.35562">
        <ele>1518.072</ele>
        <time>2022-08-24T15:57:29Z</time>
      </trkpt>
      <trkpt lat="44.10917" lon="6.35562">
        <ele>1517.613</ele>
        <time>2022-08-24T15:57:30Z</time>
      </trkpt>
      <trkpt lat="44.10914" lon="6.35561">
        <ele>1516.014</ele>
        <time>2022-08-24T15:57:31Z</time>
      </trkpt>
      <trkpt lat="44.10914" lon="6.35561">
        <ele>1515.209</ele>
        <time>2022-08-24T15:57:32Z</time>
      </trkpt>
      <trkpt lat="44.10915" lon="6.35561">
        <ele>1514.418</ele>
        <time>2022-08-24T15:57:33Z</time>
      </trkpt>
      <trkpt lat="44.1092" lon="6.35559">
        <ele>1513.498</ele>
        <time>2022-08-24T15:57:35Z</time>
      </trkpt>
      <trkpt lat="44.10924" lon="6.35556">
        <ele>1512.228</ele>
        <time>2022-08-24T15:57:37Z</time>
      </trkpt>
      <trkpt lat="44.10924" lon="6.35554">
        <ele>1510.034</ele>
        <time>2022-08-24T15:57:39Z</time>
      </trkpt>
      <trkpt lat="44.10923" lon="6.35554">
        <ele>1509.297</ele>
        <time>2022-08-24T15:57:40Z</time>
      </trkpt>
      <trkpt lat="44.10922" lon="6.35553">
        <ele>1508.84</ele>
        <time>2022-08-24T15:57:41Z</time>
      </trkpt>
      <trkpt lat="44.10919" lon="6.35552">
        <ele>1508.456</ele>
        <time>2022-08-24T15:57:42Z</time>
      </trkpt>
      <trkpt lat="44.10918" lon="6.35548">
        <ele>1507.48</ele>
        <time>2022-08-24T15:57:43Z</time>
      </trkpt>
      <trkpt lat="44.10918" lon="6.35545">
        <ele>1506.613</ele>
        <time>2022-08-24T15:57:44Z</time>
      </trkpt>
      <trkpt lat="44.10921" lon="6.35544">
        <ele>1505.687</ele>
        <time>2022-08-24T15:57:45Z</time>
      </trkpt>
      <trkpt lat="44.10924" lon="6.35541">
        <ele>1504.442</ele>
        <time>2022-08-24T15:57:46Z</time>
      </trkpt>
      <trkpt lat="44.10933" lon="6.35532">
        <ele>1503.226</ele>
        <time>2022-08-24T15:57:48Z</time>
      </trkpt>
      <trkpt lat="44.10945" lon="6.35521">
        <ele>1501.409</ele>
        <time>2022-08-24T15:57:50Z</time>
      </trkpt>
      <trkpt lat="44.10959" lon="6.35509">
        <ele>1499.839</ele>
        <time>2022-08-24T15:57:52Z</time>
      </trkpt>
      <trkpt lat="44.10965" lon="6.35504">
        <ele>1499.099</ele>
        <time>2022-08-24T15:57:53Z</time>
      </trkpt>
      <trkpt lat="44.10968" lon="6.35501">
        <ele>1497.459</ele>
        <time>2022-08-24T15:57:54Z</time>
      </trkpt>
      <trkpt lat="44.10969" lon="6.355">
        <ele>1496.245</ele>
        <time>2022-08-24T15:57:55Z</time>
      </trkpt>
      <trkpt lat="44.10968" lon="6.35499">
        <ele>1495.678</ele>
        <time>2022-08-24T15:57:56Z</time>
      </trkpt>
      <trkpt lat="44.10967" lon="6.35498">
        <ele>1495.061</ele>
        <time>2022-08-24T15:57:57Z</time>
      </trkpt>
      <trkpt lat="44.10964" lon="6.35494">
        <ele>1494.477</ele>
        <time>2022-08-24T15:57:59Z</time>
      </trkpt>
      <trkpt lat="44.10963" lon="6.3549">
        <ele>1493.841</ele>
        <time>2022-08-24T15:58:01Z</time>
      </trkpt>
      <trkpt lat="44.10958" lon="6.35487">
        <ele>1493.254</ele>
        <time>2022-08-24T15:58:03Z</time>
      </trkpt>
      <trkpt lat="44.10949" lon="6.35483">
        <ele>1493.036</ele>
        <time>2022-08-24T15:58:05Z</time>
      </trkpt>
      <trkpt lat="44.10942" lon="6.35483">
        <ele>1493.017</ele>
        <time>2022-08-24T15:58:07Z</time>
      </trkpt>
      <trkpt lat="44.10934" lon="6.35486">
        <ele>1492.818</ele>
        <time>2022-08-24T15:58:09Z</time>
      </trkpt>
      <trkpt lat="44.10932" lon="6.35484">
        <ele>1492.809</ele>
        <time>2022-08-24T15:58:10Z</time>
      </trkpt>
      <trkpt lat="44.10932" lon="6.35479">
        <ele>1492.484</ele>
        <time>2022-08-24T15:58:11Z</time>
      </trkpt>
      <trkpt lat="44.10933" lon="6.35472">
        <ele>1489.694</ele>
        <time>2022-08-24T15:58:12Z</time>
      </trkpt>
      <trkpt lat="44.10933" lon="6.35465">
        <ele>1488.094</ele>
        <time>2022-08-24T15:58:13Z</time>
      </trkpt>
      <trkpt lat="44.10932" lon="6.35449">
        <ele>1485.08</ele>
        <time>2022-08-24T15:58:15Z</time>
      </trkpt>
      <trkpt lat="44.10932" lon="6.35439">
        <ele>1483.663</ele>
        <time>2022-08-24T15:58:16Z</time>
      </trkpt>
      <trkpt lat="44.10932" lon="6.3543">
        <ele>1482.236</ele>
        <time>2022-08-24T15:58:17Z</time>
      </trkpt>
      <trkpt lat="44.10932" lon="6.3542">
        <ele>1481.032</ele>
        <time>2022-08-24T15:58:18Z</time>
      </trkpt>
      <trkpt lat="44.10932" lon="6.35412">
        <ele>1480.296</ele>
        <time>2022-08-24T15:58:19Z</time>
      </trkpt>
      <trkpt lat="44.10931" lon="6.35406">
        <ele>1479.089</ele>
        <time>2022-08-24T15:58:20Z</time>
      </trkpt>
      <trkpt lat="44.10931" lon="6.35403">
        <ele>1478.678</ele>
        <time>2022-08-24T15:58:21Z</time>
      </trkpt>
      <trkpt lat="44.10927" lon="6.3541">
        <ele>1478.233</ele>
        <time>2022-08-24T15:58:22Z</time>
      </trkpt>
      <trkpt lat="44.10926" lon="6.35413">
        <ele>1477.826</ele>
        <time>2022-08-24T15:58:23Z</time>
      </trkpt>
      <trkpt lat="44.10927" lon="6.35415">
        <ele>1477.609</ele>
        <time>2022-08-24T15:58:24Z</time>
      </trkpt>
      <trkpt lat="44.10929" lon="6.3542">
        <ele>1476.878</ele>
        <time>2022-08-24T15:58:26Z</time>
      </trkpt>
      <trkpt lat="44.1093" lon="6.35424">
        <ele>1475.668</ele>
        <time>2022-08-24T15:58:27Z</time>
      </trkpt>
      <trkpt lat="44.10934" lon="6.3543">
        <ele>1474.428</ele>
        <time>2022-08-24T15:58:29Z</time>
      </trkpt>
      <trkpt lat="44.10936" lon="6.35434">
        <ele>1473.474</ele>
        <time>2022-08-24T15:58:31Z</time>
      </trkpt>
      <trkpt lat="44.10938" lon="6.35436">
        <ele>1473.017</ele>
        <time>2022-08-24T15:58:32Z</time>
      </trkpt>
      <trkpt lat="44.10939" lon="6.3544">
        <ele>1472.63</ele>
        <time>2022-08-24T15:58:33Z</time>
      </trkpt>
      <trkpt lat="44.10943" lon="6.35443">
        <ele>1472.246</ele>
        <time>2022-08-24T15:58:34Z</time>
      </trkpt>
      <trkpt lat="44.10947" lon="6.35446">
        <ele>1471.49</ele>
        <time>2022-08-24T15:58:35Z</time>
      </trkpt>
      <trkpt lat="44.10947" lon="6.35447">
        <ele>1471.033</ele>
        <time>2022-08-24T15:58:36Z</time>
      </trkpt>
      <trkpt lat="44.10952" lon="6.35444">
        <ele>1469.412</ele>
        <time>2022-08-24T15:58:38Z</time>
      </trkpt>
      <trkpt lat="44.10956" lon="6.3544">
        <ele>1468.632</ele>
        <time>2022-08-24T15:58:39Z</time>
      </trkpt>
      <trkpt lat="44.10961" lon="6.35437">
        <ele>1468.005</ele>
        <time>2022-08-24T15:58:40Z</time>
      </trkpt>
      <trkpt lat="44.10967" lon="6.35433">
        <ele>1466.209</ele>
        <time>2022-08-24T15:58:41Z</time>
      </trkpt>
      <trkpt lat="44.10973" lon="6.3543">
        <ele>1465.012</ele>
        <time>2022-08-24T15:58:42Z</time>
      </trkpt>
      <trkpt lat="44.10978" lon="6.35429">
        <ele>1464.282</ele>
        <time>2022-08-24T15:58:43Z</time>
      </trkpt>
      <trkpt lat="44.10982" lon="6.35428">
        <ele>1463.232</ele>
        <time>2022-08-24T15:58:44Z</time>
      </trkpt>
      <trkpt lat="44.10988" lon="6.35426">
        <ele>1462.698</ele>
        <time>2022-08-24T15:58:45Z</time>
      </trkpt>
      <trkpt lat="44.10991" lon="6.35424">
        <ele>1462.061</ele>
        <time>2022-08-24T15:58:46Z</time>
      </trkpt>
      <trkpt lat="44.10992" lon="6.35421">
        <ele>1461.024</ele>
        <time>2022-08-24T15:58:48Z</time>
      </trkpt>
      <trkpt lat="44.10992" lon="6.3542">
        <ele>1460.89</ele>
        <time>2022-08-24T15:58:49Z</time>
      </trkpt>
      <trkpt lat="44.10989" lon="6.35414">
        <ele>1459.864</ele>
        <time>2022-08-24T15:58:52Z</time>
      </trkpt>
      <trkpt lat="44.10981" lon="6.35412">
        <ele>1459.067</ele>
        <time>2022-08-24T15:58:54Z</time>
      </trkpt>
      <trkpt lat="44.1098" lon="6.35408">
        <ele>1456.834</ele>
        <time>2022-08-24T15:58:55Z</time>
      </trkpt>
      <trkpt lat="44.10977" lon="6.35404">
        <ele>1455.455</ele>
        <time>2022-08-24T15:58:56Z</time>
      </trkpt>
      <trkpt lat="44.10974" lon="6.35403">
        <ele>1454.81</ele>
        <time>2022-08-24T15:58:57Z</time>
      </trkpt>
      <trkpt lat="44.10969" lon="6.35401">
        <ele>1453.809</ele>
        <time>2022-08-24T15:58:58Z</time>
      </trkpt>
      <trkpt lat="44.10967" lon="6.35396">
        <ele>1453.294</ele>
        <time>2022-08-24T15:58:59Z</time>
      </trkpt>
      <trkpt lat="44.10967" lon="6.3539">
        <ele>1452.614</ele>
        <time>2022-08-24T15:59:00Z</time>
      </trkpt>
      <trkpt lat="44.10969" lon="6.35383">
        <ele>1452.214</ele>
        <time>2022-08-24T15:59:01Z</time>
      </trkpt>
      <trkpt lat="44.10972" lon="6.35374">
        <ele>1450.06</ele>
        <time>2022-08-24T15:59:02Z</time>
      </trkpt>
      <trkpt lat="44.10974" lon="6.35366">
        <ele>1449.063</ele>
        <time>2022-08-24T15:59:03Z</time>
      </trkpt>
      <trkpt lat="44.10974" lon="6.35351">
        <ele>1447.816</ele>
        <time>2022-08-24T15:59:05Z</time>
      </trkpt>
      <trkpt lat="44.1097" lon="6.35338">
        <ele>1446.682</ele>
        <time>2022-08-24T15:59:07Z</time>
      </trkpt>
      <trkpt lat="44.10969" lon="6.35332">
        <ele>1445.096</ele>
        <time>2022-08-24T15:59:08Z</time>
      </trkpt>
      <trkpt lat="44.10964" lon="6.3532">
        <ele>1443.689</ele>
        <time>2022-08-24T15:59:10Z</time>
      </trkpt>
      <trkpt lat="44.10961" lon="6.35313">
        <ele>1442.681</ele>
        <time>2022-08-24T15:59:11Z</time>
      </trkpt>
      <trkpt lat="44.10957" lon="6.35306">
        <ele>1442.261</ele>
        <time>2022-08-24T15:59:12Z</time>
      </trkpt>
      <trkpt lat="44.10953" lon="6.35288">
        <ele>1440.617</ele>
        <time>2022-08-24T15:59:14Z</time>
      </trkpt>
      <trkpt lat="44.10953" lon="6.35269">
        <ele>1438.409</ele>
        <time>2022-08-24T15:59:16Z</time>
      </trkpt>
      <trkpt lat="44.10954" lon="6.35258">
        <ele>1435.449</ele>
        <time>2022-08-24T15:59:17Z</time>
      </trkpt>
      <trkpt lat="44.10955" lon="6.35247">
        <ele>1434.069</ele>
        <time>2022-08-24T15:59:18Z</time>
      </trkpt>
      <trkpt lat="44.10957" lon="6.35236">
        <ele>1432.829</ele>
        <time>2022-08-24T15:59:19Z</time>
      </trkpt>
      <trkpt lat="44.10958" lon="6.35224">
        <ele>1431.265</ele>
        <time>2022-08-24T15:59:20Z</time>
      </trkpt>
      <trkpt lat="44.10959" lon="6.35213">
        <ele>1429.278</ele>
        <time>2022-08-24T15:59:21Z</time>
      </trkpt>
      <trkpt lat="44.10959" lon="6.35199">
        <ele>1427.461</ele>
        <time>2022-08-24T15:59:22Z</time>
      </trkpt>
      <trkpt lat="44.10959" lon="6.3517">
        <ele>1425.677</ele>
        <time>2022-08-24T15:59:24Z</time>
      </trkpt>
      <trkpt lat="44.10958" lon="6.35156">
        <ele>1424.451</ele>
        <time>2022-08-24T15:59:25Z</time>
      </trkpt>
      <trkpt lat="44.10956" lon="6.35144">
        <ele>1422.214</ele>
        <time>2022-08-24T15:59:26Z</time>
      </trkpt>
      <trkpt lat="44.10955" lon="6.35131">
        <ele>1421.024</ele>
        <time>2022-08-24T15:59:27Z</time>
      </trkpt>
      <trkpt lat="44.10953" lon="6.3512">
        <ele>1419.204</ele>
        <time>2022-08-24T15:59:28Z</time>
      </trkpt>
      <trkpt lat="44.10946" lon="6.35096">
        <ele>1417.614</ele>
        <time>2022-08-24T15:59:30Z</time>
      </trkpt>
      <trkpt lat="44.10943" lon="6.35084">
        <ele>1416.809</ele>
        <time>2022-08-24T15:59:31Z</time>
      </trkpt>
      <trkpt lat="44.1094" lon="6.35071">
        <ele>1414.293</ele>
        <time>2022-08-24T15:59:32Z</time>
      </trkpt>
      <trkpt lat="44.10937" lon="6.35058">
        <ele>1412.643</ele>
        <time>2022-08-24T15:59:33Z</time>
      </trkpt>
      <trkpt lat="44.10933" lon="6.35046">
        <ele>1411.643</ele>
        <time>2022-08-24T15:59:34Z</time>
      </trkpt>
      <trkpt lat="44.1093" lon="6.35034">
        <ele>1410.879</ele>
        <time>2022-08-24T15:59:35Z</time>
      </trkpt>
      <trkpt lat="44.10925" lon="6.35011">
        <ele>1409.682</ele>
        <time>2022-08-24T15:59:37Z</time>
      </trkpt>
      <trkpt lat="44.10922" lon="6.35001">
        <ele>1407.055</ele>
        <time>2022-08-24T15:59:38Z</time>
      </trkpt>
      <trkpt lat="44.1092" lon="6.34991">
        <ele>1404.621</ele>
        <time>2022-08-24T15:59:39Z</time>
      </trkpt>
      <trkpt lat="44.10918" lon="6.3498">
        <ele>1403.275</ele>
        <time>2022-08-24T15:59:40Z</time>
      </trkpt>
      <trkpt lat="44.10916" lon="6.3497">
        <ele>1401.458</ele>
        <time>2022-08-24T15:59:41Z</time>
      </trkpt>
      <trkpt lat="44.10914" lon="6.34961">
        <ele>1400.419</ele>
        <time>2022-08-24T15:59:42Z</time>
      </trkpt>
      <trkpt lat="44.10912" lon="6.34954">
        <ele>1399.009</ele>
        <time>2022-08-24T15:59:43Z</time>
      </trkpt>
      <trkpt lat="44.10911" lon="6.34948">
        <ele>1397.419</ele>
        <time>2022-08-24T15:59:44Z</time>
      </trkpt>
      <trkpt lat="44.1091" lon="6.34942">
        <ele>1395.809</ele>
        <time>2022-08-24T15:59:45Z</time>
      </trkpt>
      <trkpt lat="44.10909" lon="6.34936">
        <ele>1395.842</ele>
        <time>2022-08-24T15:59:46Z</time>
      </trkpt>
      <trkpt lat="44.10905" lon="6.34919">
        <ele>1394.262</ele>
        <time>2022-08-24T15:59:48Z</time>
      </trkpt>
      <trkpt lat="44.10903" lon="6.34908">
        <ele>1393.042</ele>
        <time>2022-08-24T15:59:49Z</time>
      </trkpt>
      <trkpt lat="44.10901" lon="6.34898">
        <ele>1392.498</ele>
        <time>2022-08-24T15:59:50Z</time>
      </trkpt>
      <trkpt lat="44.109" lon="6.34885">
        <ele>1391.881</ele>
        <time>2022-08-24T15:59:51Z</time>
      </trkpt>
      <trkpt lat="44.10898" lon="6.34873">
        <ele>1390.224</ele>
        <time>2022-08-24T15:59:52Z</time>
      </trkpt>
      <trkpt lat="44.10897" lon="6.34864">
        <ele>1388.88</ele>
        <time>2022-08-24T15:59:53Z</time>
      </trkpt>
      <trkpt lat="44.10896" lon="6.34857">
        <ele>1387.884</ele>
        <time>2022-08-24T15:59:54Z</time>
      </trkpt>
      <trkpt lat="44.10896" lon="6.34852">
        <ele>1386.697</ele>
        <time>2022-08-24T15:59:55Z</time>
      </trkpt>
      <trkpt lat="44.10896" lon="6.34849">
        <ele>1385.498</ele>
        <time>2022-08-24T15:59:56Z</time>
      </trkpt>
      <trkpt lat="44.10896" lon="6.34848">
        <ele>1384.415</ele>
        <time>2022-08-24T15:59:58Z</time>
      </trkpt>
      <trkpt lat="44.10893" lon="6.34832">
        <ele>1383.826</ele>
        <time>2022-08-24T16:01:25Z</time>
      </trkpt>
      <trkpt lat="44.10893" lon="6.34829">
        <ele>1383.609</ele>
        <time>2022-08-24T16:01:26Z</time>
      </trkpt>
      <trkpt lat="44.10892" lon="6.34821">
        <ele>1383.25</ele>
        <time>2022-08-24T16:01:28Z</time>
      </trkpt>
      <trkpt lat="44.10892" lon="6.34815">
        <ele>1382.45</ele>
        <time>2022-08-24T16:01:29Z</time>
      </trkpt>
      <trkpt lat="44.10892" lon="6.34808">
        <ele>1380.84</ele>
        <time>2022-08-24T16:01:30Z</time>
      </trkpt>
      <trkpt lat="44.10891" lon="6.34794">
        <ele>1378.896</ele>
        <time>2022-08-24T16:01:32Z</time>
      </trkpt>
      <trkpt lat="44.1089" lon="6.34778">
        <ele>1377.899</ele>
        <time>2022-08-24T16:01:34Z</time>
      </trkpt>
      <trkpt lat="44.1089" lon="6.34768">
        <ele>1376.692</ele>
        <time>2022-08-24T16:01:35Z</time>
      </trkpt>
      <trkpt lat="44.10889" lon="6.34758">
        <ele>1376.058</ele>
        <time>2022-08-24T16:01:36Z</time>
      </trkpt>
      <trkpt lat="44.10887" lon="6.34747">
        <ele>1375.662</ele>
        <time>2022-08-24T16:01:37Z</time>
      </trkpt>
      <trkpt lat="44.10884" lon="6.34735">
        <ele>1372.215</ele>
        <time>2022-08-24T16:01:38Z</time>
      </trkpt>
      <trkpt lat="44.1088" lon="6.34724">
        <ele>1369.491</ele>
        <time>2022-08-24T16:01:39Z</time>
      </trkpt>
      <trkpt lat="44.10874" lon="6.34712">
        <ele>1367.281</ele>
        <time>2022-08-24T16:01:40Z</time>
      </trkpt>
      <trkpt lat="44.10868" lon="6.347">
        <ele>1364.219</ele>
        <time>2022-08-24T16:01:41Z</time>
      </trkpt>
      <trkpt lat="44.10862" lon="6.34685">
        <ele>1362.809</ele>
        <time>2022-08-24T16:01:42Z</time>
      </trkpt>
      <trkpt lat="44.10856" lon="6.3467">
        <ele>1361.02</ele>
        <time>2022-08-24T16:01:43Z</time>
      </trkpt>
      <trkpt lat="44.10851" lon="6.34653">
        <ele>1357.08</ele>
        <time>2022-08-24T16:01:44Z</time>
      </trkpt>
      <trkpt lat="44.10847" lon="6.34635">
        <ele>1355.07</ele>
        <time>2022-08-24T16:01:45Z</time>
      </trkpt>
      <trkpt lat="44.10845" lon="6.34617">
        <ele>1353.696</ele>
        <time>2022-08-24T16:01:46Z</time>
      </trkpt>
      <trkpt lat="44.10844" lon="6.34597">
        <ele>1352.839</ele>
        <time>2022-08-24T16:01:47Z</time>
      </trkpt>
      <trkpt lat="44.10844" lon="6.34577">
        <ele>1352.692</ele>
        <time>2022-08-24T16:01:48Z</time>
      </trkpt>
      <trkpt lat="44.10839" lon="6.3452">
        <ele>1351.228</ele>
        <time>2022-08-24T16:01:51Z</time>
      </trkpt>
      <trkpt lat="44.10837" lon="6.34503">
        <ele>1349.282</ele>
        <time>2022-08-24T16:01:52Z</time>
      </trkpt>
      <trkpt lat="44.10835" lon="6.34488">
        <ele>1347.245</ele>
        <time>2022-08-24T16:01:53Z</time>
      </trkpt>
      <trkpt lat="44.10835" lon="6.34472">
        <ele>1345.018</ele>
        <time>2022-08-24T16:01:54Z</time>
      </trkpt>
      <trkpt lat="44.10834" lon="6.34455">
        <ele>1341.298</ele>
        <time>2022-08-24T16:01:55Z</time>
      </trkpt>
      <trkpt lat="44.10833" lon="6.34437">
        <ele>1338.017</ele>
        <time>2022-08-24T16:01:56Z</time>
      </trkpt>
      <trkpt lat="44.10832" lon="6.34418">
        <ele>1336.409</ele>
        <time>2022-08-24T16:01:57Z</time>
      </trkpt>
      <trkpt lat="44.1083" lon="6.34382">
        <ele>1334.632</ele>
        <time>2022-08-24T16:01:59Z</time>
      </trkpt>
      <trkpt lat="44.10828" lon="6.34367">
        <ele>1332.662</ele>
        <time>2022-08-24T16:02:00Z</time>
      </trkpt>
      <trkpt lat="44.10826" lon="6.34354">
        <ele>1329.652</ele>
        <time>2022-08-24T16:02:01Z</time>
      </trkpt>
      <trkpt lat="44.10823" lon="6.34342">
        <ele>1327.898</ele>
        <time>2022-08-24T16:02:02Z</time>
      </trkpt>
      <trkpt lat="44.1082" lon="6.3433">
        <ele>1325.081</ele>
        <time>2022-08-24T16:02:03Z</time>
      </trkpt>
      <trkpt lat="44.10818" lon="6.34319">
        <ele>1323.244</ele>
        <time>2022-08-24T16:02:04Z</time>
      </trkpt>
      <trkpt lat="44.10817" lon="6.34312">
        <ele>1321.06</ele>
        <time>2022-08-24T16:02:05Z</time>
      </trkpt>
      <trkpt lat="44.10816" lon="6.34309">
        <ele>1320.074</ele>
        <time>2022-08-24T16:02:06Z</time>
      </trkpt>
      <trkpt lat="44.10817" lon="6.34309">
        <ele>1319.497</ele>
        <time>2022-08-24T16:02:07Z</time>
      </trkpt>
      <trkpt lat="44.10817" lon="6.34309">
        <ele>1319.292</ele>
        <time>2022-08-24T16:02:08Z</time>
      </trkpt>
      <trkpt lat="44.10816" lon="6.34308">
        <ele>1317.473</ele>
        <time>2022-08-24T16:02:38Z</time>
      </trkpt>
      <trkpt lat="44.10815" lon="6.34306">
        <ele>1317.22</ele>
        <time>2022-08-24T16:02:39Z</time>
      </trkpt>
      <trkpt lat="44.10814" lon="6.34304">
        <ele>1317.209</ele>
        <time>2022-08-24T16:02:40Z</time>
      </trkpt>
      <trkpt lat="44.10812" lon="6.34295">
        <ele>1316.22</ele>
        <time>2022-08-24T16:02:43Z</time>
      </trkpt>
      <trkpt lat="44.1081" lon="6.3429">
        <ele>1315.42</ele>
        <time>2022-08-24T16:02:44Z</time>
      </trkpt>
      <trkpt lat="44.10808" lon="6.34284">
        <ele>1314.81</ele>
        <time>2022-08-24T16:02:45Z</time>
      </trkpt>
      <trkpt lat="44.10805" lon="6.34275">
        <ele>1314.056</ele>
        <time>2022-08-24T16:02:47Z</time>
      </trkpt>
      <trkpt lat="44.10807" lon="6.34273">
        <ele>1313.699</ele>
        <time>2022-08-24T16:02:48Z</time>
      </trkpt>
      <trkpt lat="44.10811" lon="6.34273">
        <ele>1311.832</ele>
        <time>2022-08-24T16:02:50Z</time>
      </trkpt>
      <trkpt lat="44.10814" lon="6.34274">
        <ele>1311.278</ele>
        <time>2022-08-24T16:02:51Z</time>
      </trkpt>
      <trkpt lat="44.10817" lon="6.34275">
        <ele>1310.842</ele>
        <time>2022-08-24T16:02:52Z</time>
      </trkpt>
      <trkpt lat="44.10821" lon="6.34277">
        <ele>1309.255</ele>
        <time>2022-08-24T16:02:54Z</time>
      </trkpt>
      <trkpt lat="44.10826" lon="6.34279">
        <ele>1308.277</ele>
        <time>2022-08-24T16:02:56Z</time>
      </trkpt>
      <trkpt lat="44.10835" lon="6.34283">
        <ele>1307.461</ele>
        <time>2022-08-24T16:02:58Z</time>
      </trkpt>
      <trkpt lat="44.1084" lon="6.34285">
        <ele>1306.427</ele>
        <time>2022-08-24T16:02:59Z</time>
      </trkpt>
      <trkpt lat="44.10853" lon="6.3429">
        <ele>1304.609</ele>
        <time>2022-08-24T16:03:01Z</time>
      </trkpt>
      <trkpt lat="44.10857" lon="6.34292">
        <ele>1303.878</ele>
        <time>2022-08-24T16:03:02Z</time>
      </trkpt>
      <trkpt lat="44.1086" lon="6.34292">
        <ele>1301.438</ele>
        <time>2022-08-24T16:03:03Z</time>
      </trkpt>
      <trkpt lat="44.10863" lon="6.3429">
        <ele>1300.488</ele>
        <time>2022-08-24T16:03:04Z</time>
      </trkpt>
      <trkpt lat="44.10863" lon="6.34286">
        <ele>1299.624</ele>
        <time>2022-08-24T16:03:05Z</time>
      </trkpt>
      <trkpt lat="44.10862" lon="6.34282">
        <ele>1299.227</ele>
        <time>2022-08-24T16:03:06Z</time>
      </trkpt>
      <trkpt lat="44.10855" lon="6.34271">
        <ele>1298.22</ele>
        <time>2022-08-24T16:03:09Z</time>
      </trkpt>
      <trkpt lat="44.10851" lon="6.34263">
        <ele>1297.866</ele>
        <time>2022-08-24T16:03:12Z</time>
      </trkpt>
      <trkpt lat="44.10848" lon="6.3426">
        <ele>1297.88</ele>
        <time>2022-08-24T16:03:13Z</time>
      </trkpt>
      <trkpt lat="44.10847" lon="6.34258">
        <ele>1297.613</ele>
        <time>2022-08-24T16:03:14Z</time>
      </trkpt>
      <trkpt lat="44.10845" lon="6.34256">
        <ele>1297.851</ele>
        <time>2022-08-24T16:03:15Z</time>
      </trkpt>
      <trkpt lat="44.10843" lon="6.34254">
        <ele>1297.801</ele>
        <time>2022-08-24T16:03:16Z</time>
      </trkpt>
      <trkpt lat="44.10842" lon="6.34253">
        <ele>1298.011</ele>
        <time>2022-08-24T16:03:17Z</time>
      </trkpt>
      <trkpt lat="44.10839" lon="6.3425">
        <ele>1298.009</ele>
        <time>2022-08-24T16:03:18Z</time>
      </trkpt>
      <trkpt lat="44.10835" lon="6.34248">
        <ele>1298.086</ele>
        <time>2022-08-24T16:03:19Z</time>
      </trkpt>
      <trkpt lat="44.10824" lon="6.34247">
        <ele>1298.426</ele>
        <time>2022-08-24T16:03:22Z</time>
      </trkpt>
      <trkpt lat="44.10809" lon="6.34242">
        <ele>1298.496</ele>
        <time>2022-08-24T16:03:26Z</time>
      </trkpt>
      <trkpt lat="44.10804" lon="6.34239">
        <ele>1298.252</ele>
        <time>2022-08-24T16:03:27Z</time>
      </trkpt>
      <trkpt lat="44.10794" lon="6.34235">
        <ele>1296.865</ele>
        <time>2022-08-24T16:03:29Z</time>
      </trkpt>
      <trkpt lat="44.10788" lon="6.34231">
        <ele>1296.458</ele>
        <time>2022-08-24T16:03:30Z</time>
      </trkpt>
      <trkpt lat="44.10781" lon="6.34229">
        <ele>1296.494</ele>
        <time>2022-08-24T16:03:31Z</time>
      </trkpt>
      <trkpt lat="44.10775" lon="6.34227">
        <ele>1295.698</ele>
        <time>2022-08-24T16:03:32Z</time>
      </trkpt>
      <trkpt lat="44.10769" lon="6.34225">
        <ele>1294.271</ele>
        <time>2022-08-24T16:03:33Z</time>
      </trkpt>
      <trkpt lat="44.10752" lon="6.34213">
        <ele>1293.053</ele>
        <time>2022-08-24T16:03:36Z</time>
      </trkpt>
      <trkpt lat="44.10748" lon="6.3421">
        <ele>1292.804</ele>
        <time>2022-08-24T16:03:37Z</time>
      </trkpt>
      <trkpt lat="44.10738" lon="6.34203">
        <ele>1292.414</ele>
        <time>2022-08-24T16:03:39Z</time>
      </trkpt>
      <trkpt lat="44.10725" lon="6.34196">
        <ele>1292.409</ele>
        <time>2022-08-24T16:03:41Z</time>
      </trkpt>
      <trkpt lat="44.10721" lon="6.34192">
        <ele>1291.866</ele>
        <time>2022-08-24T16:03:42Z</time>
      </trkpt>
      <trkpt lat="44.10712" lon="6.34184">
        <ele>1291.246</ele>
        <time>2022-08-24T16:03:44Z</time>
      </trkpt>
      <trkpt lat="44.10708" lon="6.34179">
        <ele>1291.286</ele>
        <time>2022-08-24T16:03:45Z</time>
      </trkpt>
      <trkpt lat="44.107" lon="6.34168">
        <ele>1291.062</ele>
        <time>2022-08-24T16:03:47Z</time>
      </trkpt>
      <trkpt lat="44.1069" lon="6.34156">
        <ele>1289.485</ele>
        <time>2022-08-24T16:03:49Z</time>
      </trkpt>
      <trkpt lat="44.10682" lon="6.34148">
        <ele>1287.218</ele>
        <time>2022-08-24T16:03:51Z</time>
      </trkpt>
      <trkpt lat="44.1068" lon="6.34144">
        <ele>1286.474</ele>
        <time>2022-08-24T16:03:52Z</time>
      </trkpt>
      <trkpt lat="44.10678" lon="6.34143">
        <ele>1286.068</ele>
        <time>2022-08-24T16:03:53Z</time>
      </trkpt>
      <trkpt lat="44.10677" lon="6.34143">
        <ele>1285.881</ele>
        <time>2022-08-24T16:03:54Z</time>
      </trkpt>
      <trkpt lat="44.10676" lon="6.34143">
        <ele>1285.832</ele>
        <time>2022-08-24T16:03:55Z</time>
      </trkpt>
      <trkpt lat="44.10669" lon="6.3416">
        <ele>1285.492</ele>
        <time>2022-08-24T16:04:00Z</time>
      </trkpt>
      <trkpt lat="44.10668" lon="6.34164">
        <ele>1285.411</ele>
        <time>2022-08-24T16:04:01Z</time>
      </trkpt>
      <trkpt lat="44.10658" lon="6.34183">
        <ele>1284.609</ele>
        <time>2022-08-24T16:04:05Z</time>
      </trkpt>
      <trkpt lat="44.10656" lon="6.34187">
        <ele>1283.854</ele>
        <time>2022-08-24T16:04:06Z</time>
      </trkpt>
      <trkpt lat="44.10655" lon="6.34188">
        <ele>1283.424</ele>
        <time>2022-08-24T16:04:07Z</time>
      </trkpt>
      <trkpt lat="44.1065" lon="6.3419">
        <ele>1282.414</ele>
        <time>2022-08-24T16:04:09Z</time>
      </trkpt>
      <trkpt lat="44.10647" lon="6.34189">
        <ele>1281.88</ele>
        <time>2022-08-24T16:04:10Z</time>
      </trkpt>
      <trkpt lat="44.10639" lon="6.34182">
        <ele>1280.673</ele>
        <time>2022-08-24T16:04:12Z</time>
      </trkpt>
      <trkpt lat="44.10636" lon="6.34181">
        <ele>1280.046</ele>
        <time>2022-08-24T16:04:13Z</time>
      </trkpt>
      <trkpt lat="44.10632" lon="6.34181">
        <ele>1279.672</ele>
        <time>2022-08-24T16:04:14Z</time>
      </trkpt>
      <trkpt lat="44.10629" lon="6.34181">
        <ele>1278.876</ele>
        <time>2022-08-24T16:04:15Z</time>
      </trkpt>
      <trkpt lat="44.10615" lon="6.34188">
        <ele>1277.029</ele>
        <time>2022-08-24T16:04:19Z</time>
      </trkpt>
      <trkpt lat="44.10611" lon="6.34189">
        <ele>1275.837</ele>
        <time>2022-08-24T16:04:20Z</time>
      </trkpt>
      <trkpt lat="44.10604" lon="6.34188">
        <ele>1274.649</ele>
        <time>2022-08-24T16:04:23Z</time>
      </trkpt>
      <trkpt lat="44.10593" lon="6.34189">
        <ele>1273.213</ele>
        <time>2022-08-24T16:04:26Z</time>
      </trkpt>
      <trkpt lat="44.1059" lon="6.34188">
        <ele>1273.009</ele>
        <time>2022-08-24T16:04:27Z</time>
      </trkpt>
      <trkpt lat="44.10586" lon="6.34187">
        <ele>1271.834</ele>
        <time>2022-08-24T16:04:28Z</time>
      </trkpt>
      <trkpt lat="44.10582" lon="6.34187">
        <ele>1270.864</ele>
        <time>2022-08-24T16:04:29Z</time>
      </trkpt>
      <trkpt lat="44.10569" lon="6.34191">
        <ele>1269.694</ele>
        <time>2022-08-24T16:04:32Z</time>
      </trkpt>
      <trkpt lat="44.10571" lon="6.34189">
        <ele>1268.09</ele>
        <time>2022-08-24T16:04:35Z</time>
      </trkpt>
      <trkpt lat="44.10577" lon="6.3419">
        <ele>1266.443</ele>
        <time>2022-08-24T16:04:38Z</time>
      </trkpt>
      <trkpt lat="44.1058" lon="6.34191">
        <ele>1266.236</ele>
        <time>2022-08-24T16:04:39Z</time>
      </trkpt>
      <trkpt lat="44.10583" lon="6.3419">
        <ele>1266.042</ele>
        <time>2022-08-24T16:04:40Z</time>
      </trkpt>
      <trkpt lat="44.10586" lon="6.34187">
        <ele>1265.866</ele>
        <time>2022-08-24T16:04:41Z</time>
      </trkpt>
      <trkpt lat="44.10591" lon="6.34186">
        <ele>1265.299</ele>
        <time>2022-08-24T16:04:43Z</time>
      </trkpt>
      <trkpt lat="44.10597" lon="6.34181">
        <ele>1263.482</ele>
        <time>2022-08-24T16:04:45Z</time>
      </trkpt>
      <trkpt lat="44.10604" lon="6.34174">
        <ele>1262.043</ele>
        <time>2022-08-24T16:04:47Z</time>
      </trkpt>
      <trkpt lat="44.10611" lon="6.34164">
        <ele>1261.017</ele>
        <time>2022-08-24T16:04:49Z</time>
      </trkpt>
      <trkpt lat="44.10617" lon="6.34159">
        <ele>1260.609</ele>
        <time>2022-08-24T16:04:51Z</time>
      </trkpt>
      <trkpt lat="44.10619" lon="6.34157">
        <ele>1260.029</ele>
        <time>2022-08-24T16:04:52Z</time>
      </trkpt>
      <trkpt lat="44.10619" lon="6.34155">
        <ele>1259.219</ele>
        <time>2022-08-24T16:04:55Z</time>
      </trkpt>
      <trkpt lat="44.10619" lon="6.34153">
        <ele>1258.689</ele>
        <time>2022-08-24T16:04:56Z</time>
      </trkpt>
      <trkpt lat="44.10617" lon="6.34152">
        <ele>1257.425</ele>
        <time>2022-08-24T16:04:58Z</time>
      </trkpt>
      <trkpt lat="44.10615" lon="6.34151">
        <ele>1257.018</ele>
        <time>2022-08-24T16:05:00Z</time>
      </trkpt>
      <trkpt lat="44.10614" lon="6.34151">
        <ele>1256.811</ele>
        <time>2022-08-24T16:05:01Z</time>
      </trkpt>
      <trkpt lat="44.10609" lon="6.34156">
        <ele>1256.477</ele>
        <time>2022-08-24T16:05:03Z</time>
      </trkpt>
      <trkpt lat="44.10606" lon="6.34158">
        <ele>1255.481</ele>
        <time>2022-08-24T16:05:04Z</time>
      </trkpt>
      <trkpt lat="44.10604" lon="6.34159">
        <ele>1254.854</ele>
        <time>2022-08-24T16:05:05Z</time>
      </trkpt>
      <trkpt lat="44.10602" lon="6.34159">
        <ele>1253.637</ele>
        <time>2022-08-24T16:05:06Z</time>
      </trkpt>
      <trkpt lat="44.106" lon="6.34158">
        <ele>1252.849</ele>
        <time>2022-08-24T16:05:07Z</time>
      </trkpt>
      <trkpt lat="44.10597" lon="6.34155">
        <ele>1252.013</ele>
        <time>2022-08-24T16:05:08Z</time>
      </trkpt>
      <trkpt lat="44.1059" lon="6.34152">
        <ele>1250.809</ele>
        <time>2022-08-24T16:05:10Z</time>
      </trkpt>
      <trkpt lat="44.10581" lon="6.34146">
        <ele>1249.844</ele>
        <time>2022-08-24T16:05:13Z</time>
      </trkpt>
      <trkpt lat="44.10572" lon="6.34144">
        <ele>1249.024</ele>
        <time>2022-08-24T16:05:15Z</time>
      </trkpt>
      <trkpt lat="44.10572" lon="6.34141">
        <ele>1248.624</ele>
        <time>2022-08-24T16:05:16Z</time>
      </trkpt>
      <trkpt lat="44.10575" lon="6.34138">
        <ele>1248.09</ele>
        <time>2022-08-24T16:05:18Z</time>
      </trkpt>
      <trkpt lat="44.10578" lon="6.34134">
        <ele>1247.463</ele>
        <time>2022-08-24T16:05:19Z</time>
      </trkpt>
      <trkpt lat="44.10581" lon="6.34132">
        <ele>1246.016</ele>
        <time>2022-08-24T16:05:20Z</time>
      </trkpt>
      <trkpt lat="44.10584" lon="6.34129">
        <ele>1244.212</ele>
        <time>2022-08-24T16:05:21Z</time>
      </trkpt>
      <trkpt lat="44.10588" lon="6.34124">
        <ele>1243.296</ele>
        <time>2022-08-24T16:05:22Z</time>
      </trkpt>
      <trkpt lat="44.10589" lon="6.3412">
        <ele>1242.659</ele>
        <time>2022-08-24T16:05:23Z</time>
      </trkpt>
      <trkpt lat="44.1059" lon="6.34119">
        <ele>1242.275</ele>
        <time>2022-08-24T16:05:24Z</time>
      </trkpt>
      <trkpt lat="44.10591" lon="6.34117">
        <ele>1241.828</ele>
        <time>2022-08-24T16:05:25Z</time>
      </trkpt>
      <trkpt lat="44.1059" lon="6.34117">
        <ele>1241.22</ele>
        <time>2022-08-24T16:05:26Z</time>
      </trkpt>
      <trkpt lat="44.1059" lon="6.34116">
        <ele>1240.609</ele>
        <time>2022-08-24T16:05:27Z</time>
      </trkpt>
      <trkpt lat="44.10589" lon="6.34113">
        <ele>1240.288</ele>
        <time>2022-08-24T16:05:28Z</time>
      </trkpt>
      <trkpt lat="44.10585" lon="6.34107">
        <ele>1239.218</ele>
        <time>2022-08-24T16:05:30Z</time>
      </trkpt>
      <trkpt lat="44.10581" lon="6.34106">
        <ele>1239.018</ele>
        <time>2022-08-24T16:05:31Z</time>
      </trkpt>
      <trkpt lat="44.10569" lon="6.34103">
        <ele>1237.824</ele>
        <time>2022-08-24T16:05:34Z</time>
      </trkpt>
      <trkpt lat="44.10566" lon="6.34103">
        <ele>1236.847</ele>
        <time>2022-08-24T16:05:36Z</time>
      </trkpt>
      <trkpt lat="44.10565" lon="6.34103">
        <ele>1236.29</ele>
        <time>2022-08-24T16:05:37Z</time>
      </trkpt>
      <trkpt lat="44.10551" lon="6.3409">
        <ele>1235.436</ele>
        <time>2022-08-24T16:06:26Z</time>
      </trkpt>
      <trkpt lat="44.1055" lon="6.34088">
        <ele>1235.42</ele>
        <time>2022-08-24T16:06:28Z</time>
      </trkpt>
      <trkpt lat="44.1055" lon="6.34091">
        <ele>1234.423</ele>
        <time>2022-08-24T16:06:31Z</time>
      </trkpt>
      <trkpt lat="44.10549" lon="6.34091">
        <ele>1234.084</ele>
        <time>2022-08-24T16:06:32Z</time>
      </trkpt>
      <trkpt lat="44.1055" lon="6.34092">
        <ele>1233.607</ele>
        <time>2022-08-24T16:06:36Z</time>
      </trkpt>
      <trkpt lat="44.10543" lon="6.34081">
        <ele>1235.817</ele>
        <time>2022-08-24T16:07:45Z</time>
      </trkpt>
      <trkpt lat="44.10545" lon="6.34072">
        <ele>1234.609</ele>
        <time>2022-08-24T16:07:49Z</time>
      </trkpt>
      <trkpt lat="44.10548" lon="6.34068">
        <ele>1233.649</ele>
        <time>2022-08-24T16:07:52Z</time>
      </trkpt>
      <trkpt lat="44.10549" lon="6.34067">
        <ele>1233.039</ele>
        <time>2022-08-24T16:07:53Z</time>
      </trkpt>
      <trkpt lat="44.10548" lon="6.34066">
        <ele>1232.489</ele>
        <time>2022-08-24T16:07:55Z</time>
      </trkpt>
      <trkpt lat="44.10548" lon="6.34066">
        <ele>1232.235</ele>
        <time>2022-08-24T16:07:56Z</time>
      </trkpt>
      <trkpt lat="44.10544" lon="6.34068">
        <ele>1231.658</ele>
        <time>2022-08-24T16:08:25Z</time>
      </trkpt>
      <trkpt lat="44.10542" lon="6.34068">
        <ele>1231.641</ele>
        <time>2022-08-24T16:08:26Z</time>
      </trkpt>
      <trkpt lat="44.10538" lon="6.34065">
        <ele>1231.477</ele>
        <time>2022-08-24T16:08:29Z</time>
      </trkpt>
      <trkpt lat="44.10537" lon="6.34064">
        <ele>1231.421</ele>
        <time>2022-08-24T16:08:30Z</time>
      </trkpt>
      <trkpt lat="44.10537" lon="6.34062">
        <ele>1231.494</ele>
        <time>2022-08-24T16:08:31Z</time>
      </trkpt>
      <trkpt lat="44.10536" lon="6.34061">
        <ele>1231.216</ele>
        <time>2022-08-24T16:08:32Z</time>
      </trkpt>
      <trkpt lat="44.10534" lon="6.34058">
        <ele>1230.476</ele>
        <time>2022-08-24T16:08:34Z</time>
      </trkpt>
      <trkpt lat="44.10533" lon="6.34056">
        <ele>1230.213</ele>
        <time>2022-08-24T16:08:35Z</time>
      </trkpt>
      <trkpt lat="44.10532" lon="6.34056">
        <ele>1230.009</ele>
        <time>2022-08-24T16:08:36Z</time>
      </trkpt>
      <trkpt lat="44.10532" lon="6.34055">
        <ele>1229.892</ele>
        <time>2022-08-24T16:08:37Z</time>
      </trkpt>
      <trkpt lat="44.10531" lon="6.34054">
        <ele>1229.662</ele>
        <time>2022-08-24T16:08:38Z</time>
      </trkpt>
      <trkpt lat="44.1053" lon="6.34054">
        <ele>1229.452</ele>
        <time>2022-08-24T16:08:39Z</time>
      </trkpt>
      <trkpt lat="44.10529" lon="6.34052">
        <ele>1229.278</ele>
        <time>2022-08-24T16:08:40Z</time>
      </trkpt>
      <trkpt lat="44.10519" lon="6.34034">
        <ele>1226.231</ele>
        <time>2022-08-24T16:08:54Z</time>
      </trkpt>
      <trkpt lat="44.10518" lon="6.34029">
        <ele>1226.624</ele>
        <time>2022-08-24T16:08:57Z</time>
      </trkpt>
      <trkpt lat="44.10516" lon="6.34026">
        <ele>1227.22</ele>
        <time>2022-08-24T16:09:00Z</time>
      </trkpt>
      <trkpt lat="44.10517" lon="6.34024">
        <ele>1227.214</ele>
        <time>2022-08-24T16:09:01Z</time>
      </trkpt>
      <trkpt lat="44.10517" lon="6.34022">
        <ele>1227.427</ele>
        <time>2022-08-24T16:09:03Z</time>
      </trkpt>
      <trkpt lat="44.10518" lon="6.34017">
        <ele>1227.899</ele>
        <time>2022-08-24T16:09:05Z</time>
      </trkpt>
      <trkpt lat="44.10518" lon="6.34014">
        <ele>1228.007</ele>
        <time>2022-08-24T16:09:07Z</time>
      </trkpt>
      <trkpt lat="44.10518" lon="6.34012">
        <ele>1228.027</ele>
        <time>2022-08-24T16:09:09Z</time>
      </trkpt>
      <trkpt lat="44.10517" lon="6.3401">
        <ele>1228.409</ele>
        <time>2022-08-24T16:09:11Z</time>
      </trkpt>
      <trkpt lat="44.10517" lon="6.34009">
        <ele>1228.45</ele>
        <time>2022-08-24T16:09:12Z</time>
      </trkpt>
      <trkpt lat="44.10518" lon="6.34008">
        <ele>1228.49</ele>
        <time>2022-08-24T16:09:13Z</time>
      </trkpt>
      <trkpt lat="44.10524" lon="6.34003">
        <ele>1226.83</ele>
        <time>2022-08-24T16:09:54Z</time>
      </trkpt>
      <trkpt lat="44.10527" lon="6.34003">
        <ele>1226.656</ele>
        <time>2022-08-24T16:09:55Z</time>
      </trkpt>
      <trkpt lat="44.10532" lon="6.34002">
        <ele>1225.839</ele>
        <time>2022-08-24T16:09:57Z</time>
      </trkpt>
      <trkpt lat="44.10534" lon="6.34001">
        <ele>1225.452</ele>
        <time>2022-08-24T16:09:58Z</time>
      </trkpt>
      <trkpt lat="44.10537" lon="6.33995">
        <ele>1225.078</ele>
        <time>2022-08-24T16:10:00Z</time>
      </trkpt>
      <trkpt lat="44.10537" lon="6.33991">
        <ele>1224.672</ele>
        <time>2022-08-24T16:10:01Z</time>
      </trkpt>
      <trkpt lat="44.10535" lon="6.33984">
        <ele>1223.265</ele>
        <time>2022-08-24T16:10:03Z</time>
      </trkpt>
      <trkpt lat="44.10533" lon="6.3398">
        <ele>1222.423</ele>
        <time>2022-08-24T16:10:04Z</time>
      </trkpt>
      <trkpt lat="44.10531" lon="6.33975">
        <ele>1222.083</ele>
        <time>2022-08-24T16:10:05Z</time>
      </trkpt>
      <trkpt lat="44.1053" lon="6.3397">
        <ele>1221.411</ele>
        <time>2022-08-24T16:10:06Z</time>
      </trkpt>
      <trkpt lat="44.10528" lon="6.33965">
        <ele>1221.009</ele>
        <time>2022-08-24T16:10:07Z</time>
      </trkpt>
      <trkpt lat="44.10526" lon="6.3396">
        <ele>1220.223</ele>
        <time>2022-08-24T16:10:08Z</time>
      </trkpt>
      <trkpt lat="44.10522" lon="6.33945">
        <ele>1219.253</ele>
        <time>2022-08-24T16:10:10Z</time>
      </trkpt>
      <trkpt lat="44.1052" lon="6.33937">
        <ele>1220.243</ele>
        <time>2022-08-24T16:10:12Z</time>
      </trkpt>
      <trkpt lat="44.10519" lon="6.33935">
        <ele>1219.449</ele>
        <time>2022-08-24T16:10:13Z</time>
      </trkpt>
      <trkpt lat="44.10515" lon="6.33931">
        <ele>1219.472</ele>
        <time>2022-08-24T16:10:17Z</time>
      </trkpt>
      <trkpt lat="44.10514" lon="6.33927">
        <ele>1219.085</ele>
        <time>2022-08-24T16:10:18Z</time>
      </trkpt>
      <trkpt lat="44.10511" lon="6.33927">
        <ele>1218.881</ele>
        <time>2022-08-24T16:10:23Z</time>
      </trkpt>
      <trkpt lat="44.10507" lon="6.33925">
        <ele>1219.085</ele>
        <time>2022-08-24T16:10:25Z</time>
      </trkpt>
      <trkpt lat="44.10502" lon="6.33919">
        <ele>1219.878</ele>
        <time>2022-08-24T16:10:29Z</time>
      </trkpt>
      <trkpt lat="44.10501" lon="6.33917">
        <ele>1220.087</ele>
        <time>2022-08-24T16:10:30Z</time>
      </trkpt>
      <trkpt lat="44.105" lon="6.33915">
        <ele>1219.842</ele>
        <time>2022-08-24T16:10:31Z</time>
      </trkpt>
      <trkpt lat="44.105" lon="6.33913">
        <ele>1220.026</ele>
        <time>2022-08-24T16:10:32Z</time>
      </trkpt>
      <trkpt lat="44.10499" lon="6.33911">
        <ele>1220.209</ele>
        <time>2022-08-24T16:10:33Z</time>
      </trkpt>
      <trkpt lat="44.10498" lon="6.33908">
        <ele>1221.079</ele>
        <time>2022-08-24T16:10:34Z</time>
      </trkpt>
      <trkpt lat="44.10498" lon="6.33904">
        <ele>1221.429</ele>
        <time>2022-08-24T16:10:35Z</time>
      </trkpt>
      <trkpt lat="44.10498" lon="6.339">
        <ele>1222.429</ele>
        <time>2022-08-24T16:10:37Z</time>
      </trkpt>
      <trkpt lat="44.10499" lon="6.33898">
        <ele>1222.835</ele>
        <time>2022-08-24T16:10:38Z</time>
      </trkpt>
      <trkpt lat="44.10507" lon="6.33891">
        <ele>1222.018</ele>
        <time>2022-08-24T16:10:43Z</time>
      </trkpt>
      <trkpt lat="44.10508" lon="6.33891">
        <ele>1221.871</ele>
        <time>2022-08-24T16:10:45Z</time>
      </trkpt>
      <trkpt lat="44.10508" lon="6.33891">
        <ele>1221.677</ele>
        <time>2022-08-24T16:10:46Z</time>
      </trkpt>
      <trkpt lat="44.10515" lon="6.33881">
        <ele>1220.071</ele>
        <time>2022-08-24T16:12:35Z</time>
      </trkpt>
      <trkpt lat="44.10518" lon="6.33878">
        <ele>1219.844</ele>
        <time>2022-08-24T16:12:37Z</time>
      </trkpt>
      <trkpt lat="44.10522" lon="6.33873">
        <ele>1219.034</ele>
        <time>2022-08-24T16:12:40Z</time>
      </trkpt>
      <trkpt lat="44.10527" lon="6.33867">
        <ele>1218.055</ele>
        <time>2022-08-24T16:12:43Z</time>
      </trkpt>
      <trkpt lat="44.10527" lon="6.33867">
        <ele>1217.61</ele>
        <time>2022-08-24T16:12:44Z</time>
      </trkpt>
      <trkpt lat="44.10528" lon="6.33867">
        <ele>1217.409</ele>
        <time>2022-08-24T16:12:46Z</time>
      </trkpt>
      <trkpt lat="44.10521" lon="6.33841">
        <ele>1215.254</ele>
        <time>2022-08-24T16:13:42Z</time>
      </trkpt>
      <trkpt lat="44.10519" lon="6.33837">
        <ele>1215.064</ele>
        <time>2022-08-24T16:13:43Z</time>
      </trkpt>
      <trkpt lat="44.10514" lon="6.33826">
        <ele>1214.874</ele>
        <time>2022-08-24T16:13:45Z</time>
      </trkpt>
      <trkpt lat="44.10511" lon="6.33812">
        <ele>1214.85</ele>
        <time>2022-08-24T16:13:47Z</time>
      </trkpt>
      <trkpt lat="44.1051" lon="6.33802">
        <ele>1214.813</ele>
        <time>2022-08-24T16:13:49Z</time>
      </trkpt>
      <trkpt lat="44.10508" lon="6.33799">
        <ele>1214.886</ele>
        <time>2022-08-24T16:13:50Z</time>
      </trkpt>
      <trkpt lat="44.10505" lon="6.33793">
        <ele>1215.012</ele>
        <time>2022-08-24T16:13:52Z</time>
      </trkpt>
      <trkpt lat="44.10504" lon="6.33787">
        <ele>1215.286</ele>
        <time>2022-08-24T16:13:54Z</time>
      </trkpt>
      <trkpt lat="44.10504" lon="6.33783">
        <ele>1215.479</ele>
        <time>2022-08-24T16:13:56Z</time>
      </trkpt>
      <trkpt lat="44.10503" lon="6.33778">
        <ele>1215.431</ele>
        <time>2022-08-24T16:13:59Z</time>
      </trkpt>
      <trkpt lat="44.10503" lon="6.33775">
        <ele>1215.061</ele>
        <time>2022-08-24T16:14:01Z</time>
      </trkpt>
      <trkpt lat="44.10504" lon="6.33775">
        <ele>1214.807</ele>
        <time>2022-08-24T16:14:02Z</time>
      </trkpt>
      <trkpt lat="44.10509" lon="6.33774">
        <ele>1213.809</ele>
        <time>2022-08-24T16:14:41Z</time>
      </trkpt>
      <trkpt lat="44.10509" lon="6.33776">
        <ele>1213.824</ele>
        <time>2022-08-24T16:14:42Z</time>
      </trkpt>
      <trkpt lat="44.10509" lon="6.33778">
        <ele>1214.024</ele>
        <time>2022-08-24T16:14:43Z</time>
      </trkpt>
      <trkpt lat="44.1051" lon="6.33779">
        <ele>1214.044</ele>
        <time>2022-08-24T16:14:44Z</time>
      </trkpt>
      <trkpt lat="44.10512" lon="6.33784">
        <ele>1214.43</ele>
        <time>2022-08-24T16:14:47Z</time>
      </trkpt>
      <trkpt lat="44.10513" lon="6.33786">
        <ele>1214.643</ele>
        <time>2022-08-24T16:14:49Z</time>
      </trkpt>
      <trkpt lat="44.10514" lon="6.33788">
        <ele>1214.616</ele>
        <time>2022-08-24T16:14:50Z</time>
      </trkpt>
      <trkpt lat="44.10514" lon="6.3379">
        <ele>1215.092</ele>
        <time>2022-08-24T16:14:51Z</time>
      </trkpt>
      <trkpt lat="44.10515" lon="6.33795">
        <ele>1215.486</ele>
        <time>2022-08-24T16:14:54Z</time>
      </trkpt>
      <trkpt lat="44.10517" lon="6.33797">
        <ele>1215.629</ele>
        <time>2022-08-24T16:14:56Z</time>
      </trkpt>
      <trkpt lat="44.10518" lon="6.33798">
        <ele>1215.668</ele>
        <time>2022-08-24T16:14:57Z</time>
      </trkpt>
      <trkpt lat="44.1052" lon="6.338">
        <ele>1216.042</ele>
        <time>2022-08-24T16:14:59Z</time>
      </trkpt>
      <trkpt lat="44.10519" lon="6.33801">
        <ele>1216.026</ele>
        <time>2022-08-24T16:15:00Z</time>
      </trkpt>
      <trkpt lat="44.10519" lon="6.33803">
        <ele>1216.209</ele>
        <time>2022-08-24T16:15:02Z</time>
      </trkpt>
      <trkpt lat="44.10519" lon="6.33803">
        <ele>1216.457</ele>
        <time>2022-08-24T16:15:03Z</time>
      </trkpt>
      <trkpt lat="44.10517" lon="6.33806">
        <ele>1216.217</ele>
        <time>2022-08-24T16:15:07Z</time>
      </trkpt>
      <trkpt lat="44.10523" lon="6.33821">
        <ele>1215.847</ele>
        <time>2022-08-24T16:15:16Z</time>
      </trkpt>
      <trkpt lat="44.10527" lon="6.33826">
        <ele>1215.663</ele>
        <time>2022-08-24T16:15:18Z</time>
      </trkpt>
      <trkpt lat="44.1053" lon="6.33832">
        <ele>1215.046</ele>
        <time>2022-08-24T16:15:21Z</time>
      </trkpt>
      <trkpt lat="44.10532" lon="6.33834">
        <ele>1215.459</ele>
        <time>2022-08-24T16:15:22Z</time>
      </trkpt>
      <trkpt lat="44.10532" lon="6.33837">
        <ele>1215.485</ele>
        <time>2022-08-24T16:15:23Z</time>
      </trkpt>
      <trkpt lat="44.10533" lon="6.33838">
        <ele>1215.699</ele>
        <time>2022-08-24T16:15:24Z</time>
      </trkpt>
      <trkpt lat="44.10532" lon="6.33845">
        <ele>1216.292</ele>
        <time>2022-08-24T16:15:26Z</time>
      </trkpt>
      <trkpt lat="44.10532" lon="6.3385">
        <ele>1216.641</ele>
        <time>2022-08-24T16:15:28Z</time>
      </trkpt>
      <trkpt lat="44.10531" lon="6.33851">
        <ele>1216.681</ele>
        <time>2022-08-24T16:15:29Z</time>
      </trkpt>
      <trkpt lat="44.10529" lon="6.33859">
        <ele>1217.209</ele>
        <time>2022-08-24T16:15:32Z</time>
      </trkpt>
      <trkpt lat="44.10528" lon="6.33861">
        <ele>1217.609</ele>
        <time>2022-08-24T16:15:33Z</time>
      </trkpt>
      <trkpt lat="44.10525" lon="6.33864">
        <ele>1218.055</ele>
        <time>2022-08-24T16:15:35Z</time>
      </trkpt>
      <trkpt lat="44.10524" lon="6.33865">
        <ele>1218.485</ele>
        <time>2022-08-24T16:15:36Z</time>
      </trkpt>
      <trkpt lat="44.10522" lon="6.33868">
        <ele>1219.225</ele>
        <time>2022-08-24T16:15:38Z</time>
      </trkpt>
      <trkpt lat="44.1052" lon="6.33872">
        <ele>1219.851</ele>
        <time>2022-08-24T16:15:40Z</time>
      </trkpt>
      <trkpt lat="44.10519" lon="6.33876">
        <ele>1222.274</ele>
        <time>2022-08-24T16:15:42Z</time>
      </trkpt>
      <trkpt lat="44.10512" lon="6.33878">
        <ele>1222.237</ele>
        <time>2022-08-24T16:15:45Z</time>
      </trkpt>
      <trkpt lat="44.10511" lon="6.33877">
        <ele>1222.223</ele>
        <time>2022-08-24T16:15:46Z</time>
      </trkpt>
      <trkpt lat="44.10511" lon="6.33875">
        <ele>1222.277</ele>
        <time>2022-08-24T16:15:47Z</time>
      </trkpt>
      <trkpt lat="44.10512" lon="6.33874">
        <ele>1222.48</ele>
        <time>2022-08-24T16:15:48Z</time>
      </trkpt>
      <trkpt lat="44.10512" lon="6.33872">
        <ele>1222.232</ele>
        <time>2022-08-24T16:15:49Z</time>
      </trkpt>
      <trkpt lat="44.10512" lon="6.33871">
        <ele>1222.292</ele>
        <time>2022-08-24T16:15:50Z</time>
      </trkpt>
      <trkpt lat="44.10513" lon="6.3387">
        <ele>1222.411</ele>
        <time>2022-08-24T16:15:51Z</time>
      </trkpt>
      <trkpt lat="44.10514" lon="6.33867">
        <ele>1222.409</ele>
        <time>2022-08-24T16:15:53Z</time>
      </trkpt>
      <trkpt lat="44.10515" lon="6.33864">
        <ele>1223.214</ele>
        <time>2022-08-24T16:15:55Z</time>
      </trkpt>
      <trkpt lat="44.10514" lon="6.33862">
        <ele>1223.664</ele>
        <time>2022-08-24T16:15:57Z</time>
      </trkpt>
      <trkpt lat="44.10514" lon="6.3386">
        <ele>1223.644</ele>
        <time>2022-08-24T16:15:58Z</time>
      </trkpt>
      <trkpt lat="44.10512" lon="6.33852">
        <ele>1224.23</ele>
        <time>2022-08-24T16:16:02Z</time>
      </trkpt>
      <trkpt lat="44.10511" lon="6.33851">
        <ele>1224.463</ele>
        <time>2022-08-24T16:16:03Z</time>
      </trkpt>
      <trkpt lat="44.10504" lon="6.33844">
        <ele>1224.816</ele>
        <time>2022-08-24T16:16:08Z</time>
      </trkpt>
      <trkpt lat="44.10499" lon="6.33835">
        <ele>1225.662</ele>
        <time>2022-08-24T16:16:12Z</time>
      </trkpt>
      <trkpt lat="44.10496" lon="6.33829">
        <ele>1226.056</ele>
        <time>2022-08-24T16:16:14Z</time>
      </trkpt>
      <trkpt lat="44.10492" lon="6.33825">
        <ele>1226.289</ele>
        <time>2022-08-24T16:16:16Z</time>
      </trkpt>
      <trkpt lat="44.10488" lon="6.33821">
        <ele>1226.485</ele>
        <time>2022-08-24T16:16:19Z</time>
      </trkpt>
      <trkpt lat="44.10486" lon="6.33819">
        <ele>1226.689</ele>
        <time>2022-08-24T16:16:20Z</time>
      </trkpt>
      <trkpt lat="44.10481" lon="6.33808">
        <ele>1227.417</ele>
        <time>2022-08-24T16:16:24Z</time>
      </trkpt>
      <trkpt lat="44.10479" lon="6.33804">
        <ele>1227.809</ele>
        <time>2022-08-24T16:16:25Z</time>
      </trkpt>
      <trkpt lat="44.10474" lon="6.33797">
        <ele>1228.629</ele>
        <time>2022-08-24T16:16:29Z</time>
      </trkpt>
      <trkpt lat="44.10473" lon="6.33795">
        <ele>1228.899</ele>
        <time>2022-08-24T16:16:30Z</time>
      </trkpt>
      <trkpt lat="44.10472" lon="6.33795">
        <ele>1229.039</ele>
        <time>2022-08-24T16:16:31Z</time>
      </trkpt>
      <trkpt lat="44.10468" lon="6.33793">
        <ele>1229.285</ele>
        <time>2022-08-24T16:16:33Z</time>
      </trkpt>
      <trkpt lat="44.10466" lon="6.33791">
        <ele>1229.078</ele>
        <time>2022-08-24T16:16:34Z</time>
      </trkpt>
      <trkpt lat="44.10463" lon="6.33785">
        <ele>1229.061</ele>
        <time>2022-08-24T16:16:38Z</time>
      </trkpt>
      <trkpt lat="44.10463" lon="6.33784">
        <ele>1229.257</ele>
        <time>2022-08-24T16:16:40Z</time>
      </trkpt>
      <trkpt lat="44.10463" lon="6.33788">
        <ele>1229.871</ele>
        <time>2022-08-24T16:16:42Z</time>
      </trkpt>
      <trkpt lat="44.10464" lon="6.33792">
        <ele>1230.264</ele>
        <time>2022-08-24T16:16:44Z</time>
      </trkpt>
      <trkpt lat="44.10465" lon="6.33797">
        <ele>1231.285</ele>
        <time>2022-08-24T16:16:46Z</time>
      </trkpt>
      <trkpt lat="44.10465" lon="6.338">
        <ele>1232.289</ele>
        <time>2022-08-24T16:16:48Z</time>
      </trkpt>
      <trkpt lat="44.10465" lon="6.33801">
        <ele>1232.617</ele>
        <time>2022-08-24T16:16:49Z</time>
      </trkpt>
      <trkpt lat="44.10465" lon="6.33805">
        <ele>1233.609</ele>
        <time>2022-08-24T16:16:51Z</time>
      </trkpt>
      <trkpt lat="44.10466" lon="6.33808">
        <ele>1234.839</ele>
        <time>2022-08-24T16:16:54Z</time>
      </trkpt>
      <trkpt lat="44.10467" lon="6.33811">
        <ele>1235.439</ele>
        <time>2022-08-24T16:16:56Z</time>
      </trkpt>
      <trkpt lat="44.10467" lon="6.33813">
        <ele>1235.859</ele>
        <time>2022-08-24T16:16:57Z</time>
      </trkpt>
      <trkpt lat="44.10467" lon="6.33816">
        <ele>1236.685</ele>
        <time>2022-08-24T16:16:59Z</time>
      </trkpt>
      <trkpt lat="44.10467" lon="6.33817">
        <ele>1236.888</ele>
        <time>2022-08-24T16:17:00Z</time>
      </trkpt>
      <trkpt lat="44.10468" lon="6.33822">
        <ele>1237.231</ele>
        <time>2022-08-24T16:17:02Z</time>
      </trkpt>
      <trkpt lat="44.10469" lon="6.33828">
        <ele>1238.217</ele>
        <time>2022-08-24T16:17:05Z</time>
      </trkpt>
      <trkpt lat="44.10468" lon="6.33832">
        <ele>1238.631</ele>
        <time>2022-08-24T16:17:07Z</time>
      </trkpt>
      <trkpt lat="44.10468" lon="6.33834">
        <ele>1238.814</ele>
        <time>2022-08-24T16:17:08Z</time>
      </trkpt>
      <trkpt lat="44.10465" lon="6.33834">
        <ele>1239.473</ele>
        <time>2022-08-24T16:17:10Z</time>
      </trkpt>
      <trkpt lat="44.10464" lon="6.33833">
        <ele>1239.885</ele>
        <time>2022-08-24T16:17:11Z</time>
      </trkpt>
      <trkpt lat="44.1046" lon="6.3383">
        <ele>1240.613</ele>
        <time>2022-08-24T16:17:16Z</time>
      </trkpt>
      <trkpt lat="44.10459" lon="6.33829">
        <ele>1240.809</ele>
        <time>2022-08-24T16:17:17Z</time>
      </trkpt>
      <trkpt lat="44.10455" lon="6.33825">
        <ele>1241.838</ele>
        <time>2022-08-24T16:17:21Z</time>
      </trkpt>
      <trkpt lat="44.10453" lon="6.33824">
        <ele>1242.478</ele>
        <time>2022-08-24T16:17:23Z</time>
      </trkpt>
      <trkpt lat="44.10448" lon="6.33821">
        <ele>1242.878</ele>
        <time>2022-08-24T16:17:26Z</time>
      </trkpt>
      <trkpt lat="44.10442" lon="6.33817">
        <ele>1243.234</ele>
        <time>2022-08-24T16:17:29Z</time>
      </trkpt>
      <trkpt lat="44.10439" lon="6.33815">
        <ele>1244.477</ele>
        <time>2022-08-24T16:17:31Z</time>
      </trkpt>
      <trkpt lat="44.10437" lon="6.33813">
        <ele>1244.87</ele>
        <time>2022-08-24T16:17:33Z</time>
      </trkpt>
      <trkpt lat="44.10434" lon="6.33812">
        <ele>1245.266</ele>
        <time>2022-08-24T16:17:35Z</time>
      </trkpt>
      <trkpt lat="44.10433" lon="6.33812">
        <ele>1245.43</ele>
        <time>2022-08-24T16:17:36Z</time>
      </trkpt>
      <trkpt lat="44.10429" lon="6.33809">
        <ele>1246.453</ele>
        <time>2022-08-24T16:17:39Z</time>
      </trkpt>
      <trkpt lat="44.10427" lon="6.33809">
        <ele>1246.661</ele>
        <time>2022-08-24T16:17:40Z</time>
      </trkpt>
      <trkpt lat="44.10426" lon="6.33809">
        <ele>1247.021</ele>
        <time>2022-08-24T16:17:41Z</time>
      </trkpt>
      <trkpt lat="44.10424" lon="6.33811">
        <ele>1247.613</ele>
        <time>2022-08-24T16:17:43Z</time>
      </trkpt>
      <trkpt lat="44.10422" lon="6.33809">
        <ele>1248.009</ele>
        <time>2022-08-24T16:17:44Z</time>
      </trkpt>
      <trkpt lat="44.10418" lon="6.33806">
        <ele>1248.647</ele>
        <time>2022-08-24T16:17:47Z</time>
      </trkpt>
      <trkpt lat="44.10415" lon="6.33806">
        <ele>1249.687</ele>
        <time>2022-08-24T16:17:49Z</time>
      </trkpt>
      <trkpt lat="44.10409" lon="6.33797">
        <ele>1250.817</ele>
        <time>2022-08-24T16:17:54Z</time>
      </trkpt>
      <trkpt lat="44.10407" lon="6.33794">
        <ele>1252.023</ele>
        <time>2022-08-24T16:17:56Z</time>
      </trkpt>
      <trkpt lat="44.10404" lon="6.33794">
        <ele>1252.666</ele>
        <time>2022-08-24T16:17:58Z</time>
      </trkpt>
      <trkpt lat="44.10402" lon="6.33794">
        <ele>1253.069</ele>
        <time>2022-08-24T16:17:59Z</time>
      </trkpt>
      <trkpt lat="44.104" lon="6.33794">
        <ele>1253.425</ele>
        <time>2022-08-24T16:18:00Z</time>
      </trkpt>
      <trkpt lat="44.10397" lon="6.33795">
        <ele>1254.049</ele>
        <time>2022-08-24T16:18:04Z</time>
      </trkpt>
      <trkpt lat="44.10397" lon="6.33795">
        <ele>1254.252</ele>
        <time>2022-08-24T16:18:05Z</time>
      </trkpt>
      <trkpt lat="44.10393" lon="6.33794">
        <ele>1254.486</ele>
        <time>2022-08-24T16:18:08Z</time>
      </trkpt>
      <trkpt lat="44.1039" lon="6.33792">
        <ele>1255.06</ele>
        <time>2022-08-24T16:18:10Z</time>
      </trkpt>
      <trkpt lat="44.10389" lon="6.33787">
        <ele>1255.426</ele>
        <time>2022-08-24T16:18:12Z</time>
      </trkpt>
      <trkpt lat="44.10388" lon="6.33781">
        <ele>1255.609</ele>
        <time>2022-08-24T16:18:15Z</time>
      </trkpt>
      <trkpt lat="44.10383" lon="6.33772">
        <ele>1255.869</ele>
        <time>2022-08-24T16:18:20Z</time>
      </trkpt>
      <trkpt lat="44.10382" lon="6.33768">
        <ele>1256.049</ele>
        <time>2022-08-24T16:18:22Z</time>
      </trkpt>
      <trkpt lat="44.1038" lon="6.33764">
        <ele>1256.289</ele>
        <time>2022-08-24T16:18:24Z</time>
      </trkpt>
      <trkpt lat="44.1038" lon="6.33762">
        <ele>1256.275</ele>
        <time>2022-08-24T16:18:25Z</time>
      </trkpt>
      <trkpt lat="44.10376" lon="6.33761">
        <ele>1257.028</ele>
        <time>2022-08-24T16:18:26Z</time>
      </trkpt>
      <trkpt lat="44.10371" lon="6.33758">
        <ele>1258.091</ele>
        <time>2022-08-24T16:18:28Z</time>
      </trkpt>
      <trkpt lat="44.10364" lon="6.33753">
        <ele>1259.457</ele>
        <time>2022-08-24T16:18:32Z</time>
      </trkpt>
      <trkpt lat="44.10363" lon="6.33751">
        <ele>1259.891</ele>
        <time>2022-08-24T16:18:33Z</time>
      </trkpt>
      <trkpt lat="44.10357" lon="6.33749">
        <ele>1260.834</ele>
        <time>2022-08-24T16:18:36Z</time>
      </trkpt>
      <trkpt lat="44.10354" lon="6.33746">
        <ele>1261.889</ele>
        <time>2022-08-24T16:18:38Z</time>
      </trkpt>
      <trkpt lat="44.10353" lon="6.33745">
        <ele>1262.406</ele>
        <time>2022-08-24T16:18:39Z</time>
      </trkpt>
      <trkpt lat="44.10351" lon="6.33744">
        <ele>1263.026</ele>
        <time>2022-08-24T16:18:40Z</time>
      </trkpt>
      <trkpt lat="44.10347" lon="6.3374">
        <ele>1264.009</ele>
        <time>2022-08-24T16:18:43Z</time>
      </trkpt>
      <trkpt lat="44.10345" lon="6.33732">
        <ele>1265.289</ele>
        <time>2022-08-24T16:18:47Z</time>
      </trkpt>
      <trkpt lat="44.10346" lon="6.3373">
        <ele>1265.839</ele>
        <time>2022-08-24T16:18:49Z</time>
      </trkpt>
      <trkpt lat="44.10346" lon="6.3373">
        <ele>1266.229</ele>
        <time>2022-08-24T16:18:50Z</time>
      </trkpt>
      <trkpt lat="44.10343" lon="6.33705">
        <ele>1268.095</ele>
        <time>2022-08-24T16:19:11Z</time>
      </trkpt>
      <trkpt lat="44.10341" lon="6.33704">
        <ele>1268.668</ele>
        <time>2022-08-24T16:19:13Z</time>
      </trkpt>
      <trkpt lat="44.10339" lon="6.33705">
        <ele>1269.261</ele>
        <time>2022-08-24T16:19:16Z</time>
      </trkpt>
      <trkpt lat="44.1034" lon="6.33706">
        <ele>1269.497</ele>
        <time>2022-08-24T16:19:18Z</time>
      </trkpt>
      <trkpt lat="44.10334" lon="6.33703">
        <ele>1269.031</ele>
        <time>2022-08-24T16:19:32Z</time>
      </trkpt>
      <trkpt lat="44.10333" lon="6.33701">
        <ele>1269.474</ele>
        <time>2022-08-24T16:19:33Z</time>
      </trkpt>
      <trkpt lat="44.10332" lon="6.33699">
        <ele>1269.825</ele>
        <time>2022-08-24T16:19:34Z</time>
      </trkpt>
      <trkpt lat="44.10331" lon="6.33695">
        <ele>1270.426</ele>
        <time>2022-08-24T16:19:36Z</time>
      </trkpt>
      <trkpt lat="44.1033" lon="6.33689">
        <ele>1271.808</ele>
        <time>2022-08-24T16:19:39Z</time>
      </trkpt>
      <trkpt lat="44.10329" lon="6.33687">
        <ele>1272.009</ele>
        <time>2022-08-24T16:19:40Z</time>
      </trkpt>
      <trkpt lat="44.10329" lon="6.33683">
        <ele>1272.883</ele>
        <time>2022-08-24T16:19:42Z</time>
      </trkpt>
      <trkpt lat="44.10328" lon="6.33681">
        <ele>1273.013</ele>
        <time>2022-08-24T16:19:43Z</time>
      </trkpt>
      <trkpt lat="44.10327" lon="6.33679">
        <ele>1273.263</ele>
        <time>2022-08-24T16:19:44Z</time>
      </trkpt>
      <trkpt lat="44.10325" lon="6.33676">
        <ele>1273.859</ele>
        <time>2022-08-24T16:19:46Z</time>
      </trkpt>
      <trkpt lat="44.10321" lon="6.3367">
        <ele>1274.612</ele>
        <time>2022-08-24T16:19:49Z</time>
      </trkpt>
      <trkpt lat="44.10315" lon="6.33659">
        <ele>1274.855</ele>
        <time>2022-08-24T16:19:54Z</time>
      </trkpt>
      <trkpt lat="44.10307" lon="6.33651">
        <ele>1275.851</ele>
        <time>2022-08-24T16:19:58Z</time>
      </trkpt>
      <trkpt lat="44.10308" lon="6.33649">
        <ele>1276.085</ele>
        <time>2022-08-24T16:19:59Z</time>
      </trkpt>
      <trkpt lat="44.10307" lon="6.33645">
        <ele>1276.468</ele>
        <time>2022-08-24T16:20:01Z</time>
      </trkpt>
      <trkpt lat="44.10305" lon="6.33638">
        <ele>1277.044</ele>
        <time>2022-08-24T16:20:03Z</time>
      </trkpt>
      <trkpt lat="44.10303" lon="6.3363">
        <ele>1278.205</ele>
        <time>2022-08-24T16:20:06Z</time>
      </trkpt>
      <trkpt lat="44.10304" lon="6.33628">
        <ele>1278.615</ele>
        <time>2022-08-24T16:20:07Z</time>
      </trkpt>
      <trkpt lat="44.10306" lon="6.33624">
        <ele>1279.209</ele>
        <time>2022-08-24T16:20:09Z</time>
      </trkpt>
      <trkpt lat="44.10309" lon="6.3362">
        <ele>1280.085</ele>
        <time>2022-08-24T16:20:12Z</time>
      </trkpt>
      <trkpt lat="44.1031" lon="6.33618">
        <ele>1280.295</ele>
        <time>2022-08-24T16:20:14Z</time>
      </trkpt>
      <trkpt lat="44.10308" lon="6.33615">
        <ele>1280.225</ele>
        <time>2022-08-24T16:20:16Z</time>
      </trkpt>
      <trkpt lat="44.10303" lon="6.33612">
        <ele>1281.411</ele>
        <time>2022-08-24T16:20:19Z</time>
      </trkpt>
      <trkpt lat="44.10302" lon="6.33609">
        <ele>1281.864</ele>
        <time>2022-08-24T16:20:20Z</time>
      </trkpt>
      <trkpt lat="44.103" lon="6.33602">
        <ele>1282.687</ele>
        <time>2022-08-24T16:20:23Z</time>
      </trkpt>
      <trkpt lat="44.10298" lon="6.336">
        <ele>1283.223</ele>
        <time>2022-08-24T16:20:25Z</time>
      </trkpt>
      <trkpt lat="44.10298" lon="6.33598">
        <ele>1283.297</ele>
        <time>2022-08-24T16:20:26Z</time>
      </trkpt>
      <trkpt lat="44.10298" lon="6.33597">
        <ele>1283.42</ele>
        <time>2022-08-24T16:20:27Z</time>
      </trkpt>
      <trkpt lat="44.103" lon="6.33595">
        <ele>1283.429</ele>
        <time>2022-08-24T16:20:29Z</time>
      </trkpt>
      <trkpt lat="44.10303" lon="6.33597">
        <ele>1283.6</ele>
        <time>2022-08-24T16:20:31Z</time>
      </trkpt>
      <trkpt lat="44.10305" lon="6.33596">
        <ele>1284.62</ele>
        <time>2022-08-24T16:20:33Z</time>
      </trkpt>
      <trkpt lat="44.10305" lon="6.33595">
        <ele>1284.809</ele>
        <time>2022-08-24T16:20:34Z</time>
      </trkpt>
      <trkpt lat="44.10303" lon="6.33589">
        <ele>1285.213</ele>
        <time>2022-08-24T16:20:37Z</time>
      </trkpt>
      <trkpt lat="44.10305" lon="6.33586">
        <ele>1285.873</ele>
        <time>2022-08-24T16:20:39Z</time>
      </trkpt>
      <trkpt lat="44.10307" lon="6.33583">
        <ele>1287.293</ele>
        <time>2022-08-24T16:20:41Z</time>
      </trkpt>
      <trkpt lat="44.10309" lon="6.33578">
        <ele>1288.679</ele>
        <time>2022-08-24T16:20:43Z</time>
      </trkpt>
      <trkpt lat="44.10312" lon="6.33571">
        <ele>1289.852</ele>
        <time>2022-08-24T16:20:46Z</time>
      </trkpt>
      <trkpt lat="44.10316" lon="6.33567">
        <ele>1291.045</ele>
        <time>2022-08-24T16:20:49Z</time>
      </trkpt>
      <trkpt lat="44.10318" lon="6.33567">
        <ele>1291.291</ele>
        <time>2022-08-24T16:20:50Z</time>
      </trkpt>
      <trkpt lat="44.10319" lon="6.33566">
        <ele>1291.415</ele>
        <time>2022-08-24T16:20:53Z</time>
      </trkpt>
      <trkpt lat="44.10327" lon="6.33563">
        <ele>1290.468</ele>
        <time>2022-08-24T16:21:42Z</time>
      </trkpt>
      <trkpt lat="44.10329" lon="6.33563">
        <ele>1290.836</ele>
        <time>2022-08-24T16:21:43Z</time>
      </trkpt>
      <trkpt lat="44.10336" lon="6.3356">
        <ele>1291.617</ele>
        <time>2022-08-24T16:21:48Z</time>
      </trkpt>
      <trkpt lat="44.10338" lon="6.3356">
        <ele>1291.618</ele>
        <time>2022-08-24T16:21:49Z</time>
      </trkpt>
      <trkpt lat="44.1034" lon="6.3356">
        <ele>1291.809</ele>
        <time>2022-08-24T16:21:50Z</time>
      </trkpt>
      <trkpt lat="44.10342" lon="6.33561">
        <ele>1292.684</ele>
        <time>2022-08-24T16:21:51Z</time>
      </trkpt>
      <trkpt lat="44.10344" lon="6.33561">
        <ele>1293.434</ele>
        <time>2022-08-24T16:21:52Z</time>
      </trkpt>
      <trkpt lat="44.10346" lon="6.33562">
        <ele>1293.894</ele>
        <time>2022-08-24T16:21:53Z</time>
      </trkpt>
      <trkpt lat="44.10348" lon="6.33562">
        <ele>1294.01</ele>
        <time>2022-08-24T16:21:54Z</time>
      </trkpt>
      <trkpt lat="44.1035" lon="6.33562">
        <ele>1294.683</ele>
        <time>2022-08-24T16:21:56Z</time>
      </trkpt>
      <trkpt lat="44.10351" lon="6.3356">
        <ele>1295.036</ele>
        <time>2022-08-24T16:21:57Z</time>
      </trkpt>
      <trkpt lat="44.10352" lon="6.33556">
        <ele>1295.872</ele>
        <time>2022-08-24T16:21:59Z</time>
      </trkpt>
      <trkpt lat="44.10351" lon="6.33554">
        <ele>1296.226</ele>
        <time>2022-08-24T16:22:00Z</time>
      </trkpt>
      <trkpt lat="44.10349" lon="6.33551">
        <ele>1296.479</ele>
        <time>2022-08-24T16:22:02Z</time>
      </trkpt>
      <trkpt lat="44.10349" lon="6.3355">
        <ele>1296.467</ele>
        <time>2022-08-24T16:22:03Z</time>
      </trkpt>
      <trkpt lat="44.10347" lon="6.33549">
        <ele>1296.881</ele>
        <time>2022-08-24T16:22:04Z</time>
      </trkpt>
      <trkpt lat="44.10338" lon="6.33544">
        <ele>1297.219</ele>
        <time>2022-08-24T16:22:09Z</time>
      </trkpt>
      <trkpt lat="44.10333" lon="6.33541">
        <ele>1298.009</ele>
        <time>2022-08-24T16:22:13Z</time>
      </trkpt>
      <trkpt lat="44.10331" lon="6.3354">
        <ele>1298.437</ele>
        <time>2022-08-24T16:22:14Z</time>
      </trkpt>
      <trkpt lat="44.1033" lon="6.33539">
        <ele>1298.817</ele>
        <time>2022-08-24T16:22:17Z</time>
      </trkpt>
      <trkpt lat="44.10323" lon="6.33542">
        <ele>1297.097</ele>
        <time>2022-08-24T16:23:07Z</time>
      </trkpt>
      <trkpt lat="44.10321" lon="6.33541">
        <ele>1297.273</ele>
        <time>2022-08-24T16:23:08Z</time>
      </trkpt>
      <trkpt lat="44.10316" lon="6.3354">
        <ele>1297.476</ele>
        <time>2022-08-24T16:23:11Z</time>
      </trkpt>
      <trkpt lat="44.1031" lon="6.33539">
        <ele>1298.469</ele>
        <time>2022-08-24T16:23:14Z</time>
      </trkpt>
      <trkpt lat="44.10306" lon="6.33538">
        <ele>1300.045</ele>
        <time>2022-08-24T16:23:16Z</time>
      </trkpt>
      <trkpt lat="44.103" lon="6.33534">
        <ele>1301.289</ele>
        <time>2022-08-24T16:23:19Z</time>
      </trkpt>
      <trkpt lat="44.10299" lon="6.33531">
        <ele>1301.472</ele>
        <time>2022-08-24T16:23:20Z</time>
      </trkpt>
      <trkpt lat="44.10298" lon="6.33529">
        <ele>1301.811</ele>
        <time>2022-08-24T16:23:21Z</time>
      </trkpt>
      <trkpt lat="44.10297" lon="6.33527">
        <ele>1302.221</ele>
        <time>2022-08-24T16:23:22Z</time>
      </trkpt>
      <trkpt lat="44.10295" lon="6.33525">
        <ele>1302.603</ele>
        <time>2022-08-24T16:23:23Z</time>
      </trkpt>
      <trkpt lat="44.10294" lon="6.33522">
        <ele>1303.009</ele>
        <time>2022-08-24T16:23:24Z</time>
      </trkpt>
      <trkpt lat="44.10293" lon="6.3352">
        <ele>1303.662</ele>
        <time>2022-08-24T16:23:25Z</time>
      </trkpt>
      <trkpt lat="44.10291" lon="6.33517">
        <ele>1304.692</ele>
        <time>2022-08-24T16:23:27Z</time>
      </trkpt>
      <trkpt lat="44.10291" lon="6.33516">
        <ele>1305.032</ele>
        <time>2022-08-24T16:23:28Z</time>
      </trkpt>
      <trkpt lat="44.10289" lon="6.33514">
        <ele>1305.298</ele>
        <time>2022-08-24T16:23:32Z</time>
      </trkpt>
      <trkpt lat="44.10288" lon="6.33502">
        <ele>1304.851</ele>
        <time>2022-08-24T16:24:48Z</time>
      </trkpt>
      <trkpt lat="44.10289" lon="6.335">
        <ele>1304.664</ele>
        <time>2022-08-24T16:24:49Z</time>
      </trkpt>
      <trkpt lat="44.10289" lon="6.33494">
        <ele>1304.65</ele>
        <time>2022-08-24T16:24:51Z</time>
      </trkpt>
      <trkpt lat="44.10293" lon="6.33473">
        <ele>1303.264</ele>
        <time>2022-08-24T16:24:57Z</time>
      </trkpt>
      <trkpt lat="44.10296" lon="6.33462">
        <ele>1301.827</ele>
        <time>2022-08-24T16:24:59Z</time>
      </trkpt>
      <trkpt lat="44.10299" lon="6.33448">
        <ele>1301.039</ele>
        <time>2022-08-24T16:25:01Z</time>
      </trkpt>
      <trkpt lat="44.10301" lon="6.33443">
        <ele>1299.801</ele>
        <time>2022-08-24T16:25:02Z</time>
      </trkpt>
      <trkpt lat="44.10309" lon="6.33433">
        <ele>1298.221</ele>
        <time>2022-08-24T16:25:05Z</time>
      </trkpt>
      <trkpt lat="44.10315" lon="6.3343">
        <ele>1297.409</ele>
        <time>2022-08-24T16:25:07Z</time>
      </trkpt>
      <trkpt lat="44.10318" lon="6.33429">
        <ele>1297.094</ele>
        <time>2022-08-24T16:25:08Z</time>
      </trkpt>
      <trkpt lat="44.10325" lon="6.33429">
        <ele>1296.084</ele>
        <time>2022-08-24T16:25:10Z</time>
      </trkpt>
      <trkpt lat="44.10328" lon="6.33429">
        <ele>1295.674</ele>
        <time>2022-08-24T16:25:11Z</time>
      </trkpt>
      <trkpt lat="44.10333" lon="6.33428">
        <ele>1295.23</ele>
        <time>2022-08-24T16:25:12Z</time>
      </trkpt>
      <trkpt lat="44.10337" lon="6.33426">
        <ele>1294.433</ele>
        <time>2022-08-24T16:25:13Z</time>
      </trkpt>
      <trkpt lat="44.1034" lon="6.33421">
        <ele>1293.036</ele>
        <time>2022-08-24T16:25:14Z</time>
      </trkpt>
      <trkpt lat="44.10341" lon="6.33416">
        <ele>1291.832</ele>
        <time>2022-08-24T16:25:15Z</time>
      </trkpt>
      <trkpt lat="44.10341" lon="6.33409">
        <ele>1290.856</ele>
        <time>2022-08-24T16:25:16Z</time>
      </trkpt>
      <trkpt lat="44.1034" lon="6.33403">
        <ele>1290.289</ele>
        <time>2022-08-24T16:25:17Z</time>
      </trkpt>
      <trkpt lat="44.10338" lon="6.33396">
        <ele>1289.024</ele>
        <time>2022-08-24T16:25:18Z</time>
      </trkpt>
      <trkpt lat="44.10336" lon="6.33389">
        <ele>1287.804</ele>
        <time>2022-08-24T16:25:19Z</time>
      </trkpt>
      <trkpt lat="44.1033" lon="6.33375">
        <ele>1286.414</ele>
        <time>2022-08-24T16:25:21Z</time>
      </trkpt>
      <trkpt lat="44.10326" lon="6.33369">
        <ele>1285.409</ele>
        <time>2022-08-24T16:25:22Z</time>
      </trkpt>
      <trkpt lat="44.10322" lon="6.33365">
        <ele>1284.823</ele>
        <time>2022-08-24T16:25:23Z</time>
      </trkpt>
      <trkpt lat="44.10317" lon="6.33361">
        <ele>1283.823</ele>
        <time>2022-08-24T16:25:24Z</time>
      </trkpt>
      <trkpt lat="44.10312" lon="6.33358">
        <ele>1283.023</ele>
        <time>2022-08-24T16:25:25Z</time>
      </trkpt>
      <trkpt lat="44.10309" lon="6.33353">
        <ele>1282.459</ele>
        <time>2022-08-24T16:25:26Z</time>
      </trkpt>
      <trkpt lat="44.10307" lon="6.33347">
        <ele>1282.012</ele>
        <time>2022-08-24T16:25:27Z</time>
      </trkpt>
      <trkpt lat="44.10308" lon="6.3334">
        <ele>1281.285</ele>
        <time>2022-08-24T16:25:28Z</time>
      </trkpt>
      <trkpt lat="44.10311" lon="6.33333">
        <ele>1280.411</ele>
        <time>2022-08-24T16:25:29Z</time>
      </trkpt>
      <trkpt lat="44.10315" lon="6.33326">
        <ele>1279.665</ele>
        <time>2022-08-24T16:25:30Z</time>
      </trkpt>
      <trkpt lat="44.10322" lon="6.33323">
        <ele>1278.858</ele>
        <time>2022-08-24T16:25:31Z</time>
      </trkpt>
      <trkpt lat="44.1033" lon="6.33322">
        <ele>1278.211</ele>
        <time>2022-08-24T16:25:32Z</time>
      </trkpt>
      <trkpt lat="44.10344" lon="6.33318">
        <ele>1277.021</ele>
        <time>2022-08-24T16:25:34Z</time>
      </trkpt>
      <trkpt lat="44.10352" lon="6.33315">
        <ele>1275.403</ele>
        <time>2022-08-24T16:25:35Z</time>
      </trkpt>
      <trkpt lat="44.1036" lon="6.33311">
        <ele>1273.609</ele>
        <time>2022-08-24T16:25:36Z</time>
      </trkpt>
      <trkpt lat="44.10368" lon="6.33308">
        <ele>1272.612</ele>
        <time>2022-08-24T16:25:37Z</time>
      </trkpt>
      <trkpt lat="44.10376" lon="6.33306">
        <ele>1272.052</ele>
        <time>2022-08-24T16:25:38Z</time>
      </trkpt>
      <trkpt lat="44.10395" lon="6.33301">
        <ele>1270.482</ele>
        <time>2022-08-24T16:25:40Z</time>
      </trkpt>
      <trkpt lat="44.10404" lon="6.33295">
        <ele>1269.478</ele>
        <time>2022-08-24T16:25:41Z</time>
      </trkpt>
      <trkpt lat="44.10422" lon="6.33283">
        <ele>1268.071</ele>
        <time>2022-08-24T16:25:43Z</time>
      </trkpt>
      <trkpt lat="44.10442" lon="6.3328">
        <ele>1267.094</ele>
        <time>2022-08-24T16:25:45Z</time>
      </trkpt>
      <trkpt lat="44.10453" lon="6.3328">
        <ele>1265.62</ele>
        <time>2022-08-24T16:25:46Z</time>
      </trkpt>
      <trkpt lat="44.10463" lon="6.33277">
        <ele>1263.894</ele>
        <time>2022-08-24T16:25:47Z</time>
      </trkpt>
      <trkpt lat="44.10473" lon="6.33272">
        <ele>1262.867</ele>
        <time>2022-08-24T16:25:48Z</time>
      </trkpt>
      <trkpt lat="44.1048" lon="6.33264">
        <ele>1261.896</ele>
        <time>2022-08-24T16:25:49Z</time>
      </trkpt>
      <trkpt lat="44.10485" lon="6.33254">
        <ele>1261.231</ele>
        <time>2022-08-24T16:25:50Z</time>
      </trkpt>
      <trkpt lat="44.10494" lon="6.33236">
        <ele>1260.624</ele>
        <time>2022-08-24T16:25:52Z</time>
      </trkpt>
      <trkpt lat="44.10496" lon="6.33229">
        <ele>1260.409</ele>
        <time>2022-08-24T16:25:53Z</time>
      </trkpt>
      <trkpt lat="44.10496" lon="6.33221">
        <ele>1259.83</ele>
        <time>2022-08-24T16:25:55Z</time>
      </trkpt>
      <trkpt lat="44.10495" lon="6.33218">
        <ele>1259.61</ele>
        <time>2022-08-24T16:25:56Z</time>
      </trkpt>
      <trkpt lat="44.10493" lon="6.33198">
        <ele>1258.86</ele>
        <time>2022-08-24T16:26:00Z</time>
      </trkpt>
      <trkpt lat="44.10493" lon="6.33191">
        <ele>1258.216</ele>
        <time>2022-08-24T16:26:01Z</time>
      </trkpt>
      <trkpt lat="44.10493" lon="6.33174">
        <ele>1257.029</ele>
        <time>2022-08-24T16:26:04Z</time>
      </trkpt>
      <trkpt lat="44.10492" lon="6.33173">
        <ele>1256.832</ele>
        <time>2022-08-24T16:26:06Z</time>
      </trkpt>
      <trkpt lat="44.10493" lon="6.33164">
        <ele>1255.448</ele>
        <time>2022-08-24T16:26:55Z</time>
      </trkpt>
      <trkpt lat="44.10493" lon="6.33161">
        <ele>1255.232</ele>
        <time>2022-08-24T16:26:56Z</time>
      </trkpt>
      <trkpt lat="44.10496" lon="6.33142">
        <ele>1254.445</ele>
        <time>2022-08-24T16:27:01Z</time>
      </trkpt>
      <trkpt lat="44.10497" lon="6.33137">
        <ele>1254.064</ele>
        <time>2022-08-24T16:27:02Z</time>
      </trkpt>
      <trkpt lat="44.105" lon="6.33121">
        <ele>1253.206</ele>
        <time>2022-08-24T16:27:05Z</time>
      </trkpt>
      <trkpt lat="44.10503" lon="6.33103">
        <ele>1252.616</ele>
        <time>2022-08-24T16:27:08Z</time>
      </trkpt>
      <trkpt lat="44.10505" lon="6.33082">
        <ele>1252.009</ele>
        <time>2022-08-24T16:27:11Z</time>
      </trkpt>
      <trkpt lat="44.10507" lon="6.33059">
        <ele>1251.477</ele>
        <time>2022-08-24T16:27:14Z</time>
      </trkpt>
      <trkpt lat="44.10509" lon="6.33034">
        <ele>1251.047</ele>
        <time>2022-08-24T16:27:17Z</time>
      </trkpt>
      <trkpt lat="44.10514" lon="6.33005">
        <ele>1250.217</ele>
        <time>2022-08-24T16:27:21Z</time>
      </trkpt>
      <trkpt lat="44.10515" lon="6.33">
        <ele>1250.013</ele>
        <time>2022-08-24T16:27:22Z</time>
      </trkpt>
      <trkpt lat="44.10516" lon="6.32995">
        <ele>1250.036</ele>
        <time>2022-08-24T16:27:23Z</time>
      </trkpt>
      <trkpt lat="44.10521" lon="6.32985">
        <ele>1249.829</ele>
        <time>2022-08-24T16:27:25Z</time>
      </trkpt>
      <trkpt lat="44.10534" lon="6.3296">
        <ele>1248.895</ele>
        <time>2022-08-24T16:27:31Z</time>
      </trkpt>
      <trkpt lat="44.10536" lon="6.32957">
        <ele>1247.629</ele>
        <time>2022-08-24T16:27:33Z</time>
      </trkpt>
      <trkpt lat="44.10536" lon="6.32955">
        <ele>1247.082</ele>
        <time>2022-08-24T16:27:35Z</time>
      </trkpt>
      <trkpt lat="44.10536" lon="6.32954">
        <ele>1247.233</ele>
        <time>2022-08-24T16:27:37Z</time>
      </trkpt>
      <trkpt lat="44.10533" lon="6.32952">
        <ele>1245.823</ele>
        <time>2022-08-24T16:27:56Z</time>
      </trkpt>
      <trkpt lat="44.10531" lon="6.32951">
        <ele>1245.615</ele>
        <time>2022-08-24T16:27:57Z</time>
      </trkpt>
      <trkpt lat="44.10519" lon="6.3295">
        <ele>1244.809</ele>
        <time>2022-08-24T16:28:02Z</time>
      </trkpt>
      <trkpt lat="44.10516" lon="6.32947">
        <ele>1244.434</ele>
        <time>2022-08-24T16:28:03Z</time>
      </trkpt>
      <trkpt lat="44.10514" lon="6.32938">
        <ele>1242.824</ele>
        <time>2022-08-24T16:28:05Z</time>
      </trkpt>
      <trkpt lat="44.10513" lon="6.32933">
        <ele>1242.294</ele>
        <time>2022-08-24T16:28:06Z</time>
      </trkpt>
      <trkpt lat="44.10512" lon="6.32928">
        <ele>1241.61</ele>
        <time>2022-08-24T16:28:07Z</time>
      </trkpt>
      <trkpt lat="44.10512" lon="6.32917">
        <ele>1241.263</ele>
        <time>2022-08-24T16:28:09Z</time>
      </trkpt>
      <trkpt lat="44.10511" lon="6.3291">
        <ele>1241.246</ele>
        <time>2022-08-24T16:28:10Z</time>
      </trkpt>
      <trkpt lat="44.10509" lon="6.32902">
        <ele>1241.252</ele>
        <time>2022-08-24T16:28:11Z</time>
      </trkpt>
      <trkpt lat="44.10507" lon="6.32894">
        <ele>1240.636</ele>
        <time>2022-08-24T16:28:12Z</time>
      </trkpt>
      <trkpt lat="44.10506" lon="6.32884">
        <ele>1239.039</ele>
        <time>2022-08-24T16:28:13Z</time>
      </trkpt>
      <trkpt lat="44.10504" lon="6.32865">
        <ele>1237.411</ele>
        <time>2022-08-24T16:28:15Z</time>
      </trkpt>
      <trkpt lat="44.10503" lon="6.32859">
        <ele>1236.821</ele>
        <time>2022-08-24T16:28:16Z</time>
      </trkpt>
      <trkpt lat="44.10501" lon="6.32853">
        <ele>1235.403</ele>
        <time>2022-08-24T16:28:17Z</time>
      </trkpt>
      <trkpt lat="44.105" lon="6.32838">
        <ele>1232.209</ele>
        <time>2022-08-24T16:28:19Z</time>
      </trkpt>
      <trkpt lat="44.10501" lon="6.32829">
        <ele>1229.232</ele>
        <time>2022-08-24T16:28:20Z</time>
      </trkpt>
      <trkpt lat="44.10502" lon="6.3282">
        <ele>1227.412</ele>
        <time>2022-08-24T16:28:21Z</time>
      </trkpt>
      <trkpt lat="44.10501" lon="6.3281">
        <ele>1226.242</ele>
        <time>2022-08-24T16:28:22Z</time>
      </trkpt>
      <trkpt lat="44.105" lon="6.328">
        <ele>1225.078</ele>
        <time>2022-08-24T16:28:23Z</time>
      </trkpt>
      <trkpt lat="44.10501" lon="6.32788">
        <ele>1222.861</ele>
        <time>2022-08-24T16:28:24Z</time>
      </trkpt>
      <trkpt lat="44.10503" lon="6.32777">
        <ele>1220.424</ele>
        <time>2022-08-24T16:28:25Z</time>
      </trkpt>
      <trkpt lat="44.10506" lon="6.32767">
        <ele>1219.27</ele>
        <time>2022-08-24T16:28:26Z</time>
      </trkpt>
      <trkpt lat="44.1051" lon="6.32757">
        <ele>1218.094</ele>
        <time>2022-08-24T16:28:27Z</time>
      </trkpt>
      <trkpt lat="44.10515" lon="6.32748">
        <ele>1218.017</ele>
        <time>2022-08-24T16:28:28Z</time>
      </trkpt>
      <trkpt lat="44.10519" lon="6.32732">
        <ele>1217.243</ele>
        <time>2022-08-24T16:28:30Z</time>
      </trkpt>
      <trkpt lat="44.1052" lon="6.32727">
        <ele>1217.064</ele>
        <time>2022-08-24T16:28:31Z</time>
      </trkpt>
      <trkpt lat="44.10526" lon="6.32713">
        <ele>1216.21</ele>
        <time>2022-08-24T16:28:34Z</time>
      </trkpt>
      <trkpt lat="44.10528" lon="6.32709">
        <ele>1215.809</ele>
        <time>2022-08-24T16:28:35Z</time>
      </trkpt>
      <trkpt lat="44.10531" lon="6.32707">
        <ele>1214.655</ele>
        <time>2022-08-24T16:28:36Z</time>
      </trkpt>
      <trkpt lat="44.10533" lon="6.32704">
        <ele>1213.895</ele>
        <time>2022-08-24T16:28:37Z</time>
      </trkpt>
      <trkpt lat="44.10536" lon="6.327">
        <ele>1213.295</ele>
        <time>2022-08-24T16:28:38Z</time>
      </trkpt>
      <trkpt lat="44.10543" lon="6.32685">
        <ele>1212.241</ele>
        <time>2022-08-24T16:28:41Z</time>
      </trkpt>
      <trkpt lat="44.10545" lon="6.3268">
        <ele>1212.024</ele>
        <time>2022-08-24T16:28:42Z</time>
      </trkpt>
      <trkpt lat="44.10547" lon="6.32674">
        <ele>1211.897</ele>
        <time>2022-08-24T16:28:43Z</time>
      </trkpt>
      <trkpt lat="44.1055" lon="6.32663">
        <ele>1211.673</ele>
        <time>2022-08-24T16:28:45Z</time>
      </trkpt>
      <trkpt lat="44.1055" lon="6.32651">
        <ele>1210.847</ele>
        <time>2022-08-24T16:28:47Z</time>
      </trkpt>
      <trkpt lat="44.10546" lon="6.32638">
        <ele>1210.09</ele>
        <time>2022-08-24T16:28:49Z</time>
      </trkpt>
      <trkpt lat="44.10545" lon="6.32631">
        <ele>1209.691</ele>
        <time>2022-08-24T16:28:50Z</time>
      </trkpt>
      <trkpt lat="44.10546" lon="6.32623">
        <ele>1209.481</ele>
        <time>2022-08-24T16:28:51Z</time>
      </trkpt>
      <trkpt lat="44.10548" lon="6.32615">
        <ele>1208.619</ele>
        <time>2022-08-24T16:28:52Z</time>
      </trkpt>
      <trkpt lat="44.10548" lon="6.32608">
        <ele>1208.209</ele>
        <time>2022-08-24T16:28:53Z</time>
      </trkpt>
      <trkpt lat="44.10546" lon="6.32602">
        <ele>1207.42</ele>
        <time>2022-08-24T16:28:54Z</time>
      </trkpt>
      <trkpt lat="44.10542" lon="6.32593">
        <ele>1206.22</ele>
        <time>2022-08-24T16:28:56Z</time>
      </trkpt>
      <trkpt lat="44.10541" lon="6.32584">
        <ele>1205.62</ele>
        <time>2022-08-24T16:28:58Z</time>
      </trkpt>
      <trkpt lat="44.1054" lon="6.32578">
        <ele>1205.456</ele>
        <time>2022-08-24T16:28:59Z</time>
      </trkpt>
      <trkpt lat="44.10537" lon="6.32561">
        <ele>1203.879</ele>
        <time>2022-08-24T16:29:01Z</time>
      </trkpt>
      <trkpt lat="44.10536" lon="6.32555">
        <ele>1203.072</ele>
        <time>2022-08-24T16:29:02Z</time>
      </trkpt>
      <trkpt lat="44.10534" lon="6.32551">
        <ele>1202.458</ele>
        <time>2022-08-24T16:29:03Z</time>
      </trkpt>
      <trkpt lat="44.10534" lon="6.32538">
        <ele>1201.482</ele>
        <time>2022-08-24T16:29:06Z</time>
      </trkpt>
      <trkpt lat="44.10536" lon="6.32528">
        <ele>1199.845</ele>
        <time>2022-08-24T16:29:08Z</time>
      </trkpt>
      <trkpt lat="44.10538" lon="6.32518">
        <ele>1198.215</ele>
        <time>2022-08-24T16:29:10Z</time>
      </trkpt>
      <trkpt lat="44.10539" lon="6.3251">
        <ele>1197.865</ele>
        <time>2022-08-24T16:29:11Z</time>
      </trkpt>
      <trkpt lat="44.10539" lon="6.32504">
        <ele>1197.611</ele>
        <time>2022-08-24T16:29:12Z</time>
      </trkpt>
      <trkpt lat="44.10534" lon="6.32494">
        <ele>1197.009</ele>
        <time>2022-08-24T16:29:14Z</time>
      </trkpt>
      <trkpt lat="44.10536" lon="6.32482">
        <ele>1196.482</ele>
        <time>2022-08-24T16:29:17Z</time>
      </trkpt>
      <trkpt lat="44.10535" lon="6.32477">
        <ele>1195.872</ele>
        <time>2022-08-24T16:29:18Z</time>
      </trkpt>
      <trkpt lat="44.10532" lon="6.32466">
        <ele>1195.452</ele>
        <time>2022-08-24T16:29:20Z</time>
      </trkpt>
      <trkpt lat="44.10528" lon="6.3246">
        <ele>1195.238</ele>
        <time>2022-08-24T16:29:23Z</time>
      </trkpt>
      <trkpt lat="44.10525" lon="6.32456">
        <ele>1195.231</ele>
        <time>2022-08-24T16:29:24Z</time>
      </trkpt>
      <trkpt lat="44.10523" lon="6.32452">
        <ele>1194.664</ele>
        <time>2022-08-24T16:29:25Z</time>
      </trkpt>
      <trkpt lat="44.10517" lon="6.32443">
        <ele>1193.24</ele>
        <time>2022-08-24T16:29:27Z</time>
      </trkpt>
      <trkpt lat="44.10513" lon="6.3244">
        <ele>1192.824</ele>
        <time>2022-08-24T16:29:28Z</time>
      </trkpt>
      <trkpt lat="44.10512" lon="6.32436">
        <ele>1192.697</ele>
        <time>2022-08-24T16:29:29Z</time>
      </trkpt>
      <trkpt lat="44.10509" lon="6.32429">
        <ele>1192.051</ele>
        <time>2022-08-24T16:29:31Z</time>
      </trkpt>
      <trkpt lat="44.1051" lon="6.32424">
        <ele>1189.801</ele>
        <time>2022-08-24T16:29:33Z</time>
      </trkpt>
      <trkpt lat="44.10511" lon="6.32419">
        <ele>1188.411</ele>
        <time>2022-08-24T16:29:35Z</time>
      </trkpt>
      <trkpt lat="44.10511" lon="6.32415">
        <ele>1186.809</ele>
        <time>2022-08-24T16:29:37Z</time>
      </trkpt>
      <trkpt lat="44.10511" lon="6.32413">
        <ele>1186.456</ele>
        <time>2022-08-24T16:29:38Z</time>
      </trkpt>
      <trkpt lat="44.10512" lon="6.32408">
        <ele>1185.616</ele>
        <time>2022-08-24T16:29:41Z</time>
      </trkpt>
      <trkpt lat="44.10512" lon="6.32405">
        <ele>1184.486</ele>
        <time>2022-08-24T16:29:43Z</time>
      </trkpt>
      <trkpt lat="44.10512" lon="6.32402">
        <ele>1183.892</ele>
        <time>2022-08-24T16:29:44Z</time>
      </trkpt>
      <trkpt lat="44.1051" lon="6.324">
        <ele>1183.415</ele>
        <time>2022-08-24T16:29:45Z</time>
      </trkpt>
      <trkpt lat="44.10509" lon="6.324">
        <ele>1183.218</ele>
        <time>2022-08-24T16:29:46Z</time>
      </trkpt>
      <trkpt lat="44.10504" lon="6.32401">
        <ele>1181.284</ele>
        <time>2022-08-24T16:29:48Z</time>
      </trkpt>
      <trkpt lat="44.10498" lon="6.32405">
        <ele>1179.658</ele>
        <time>2022-08-24T16:29:51Z</time>
      </trkpt>
      <trkpt lat="44.10495" lon="6.32405">
        <ele>1179.411</ele>
        <time>2022-08-24T16:29:52Z</time>
      </trkpt>
      <trkpt lat="44.10492" lon="6.32403">
        <ele>1177.849</ele>
        <time>2022-08-24T16:29:53Z</time>
      </trkpt>
      <trkpt lat="44.10487" lon="6.32398">
        <ele>1176.202</ele>
        <time>2022-08-24T16:29:55Z</time>
      </trkpt>
      <trkpt lat="44.10486" lon="6.32395">
        <ele>1175.822</ele>
        <time>2022-08-24T16:29:56Z</time>
      </trkpt>
      <trkpt lat="44.1048" lon="6.32385">
        <ele>1173.609</ele>
        <time>2022-08-24T16:31:14Z</time>
      </trkpt>
      <trkpt lat="44.10478" lon="6.32381">
        <ele>1173.425</ele>
        <time>2022-08-24T16:31:15Z</time>
      </trkpt>
      <trkpt lat="44.10475" lon="6.32372">
        <ele>1172.285</ele>
        <time>2022-08-24T16:31:17Z</time>
      </trkpt>
      <trkpt lat="44.10474" lon="6.32369">
        <ele>1171.895</ele>
        <time>2022-08-24T16:31:19Z</time>
      </trkpt>
      <trkpt lat="44.10474" lon="6.32369">
        <ele>1171.631</ele>
        <time>2022-08-24T16:31:22Z</time>
      </trkpt>
      <trkpt lat="44.10472" lon="6.32364">
        <ele>1171.654</ele>
        <time>2022-08-24T16:37:41Z</time>
      </trkpt>
      <trkpt lat="44.10471" lon="6.32362">
        <ele>1171.657</ele>
        <time>2022-08-24T16:37:42Z</time>
      </trkpt>
      <trkpt lat="44.10468" lon="6.32353">
        <ele>1171.443</ele>
        <time>2022-08-24T16:37:45Z</time>
      </trkpt>
      <trkpt lat="44.10466" lon="6.32349">
        <ele>1170.697</ele>
        <time>2022-08-24T16:37:46Z</time>
      </trkpt>
      <trkpt lat="44.10463" lon="6.32345">
        <ele>1170.22</ele>
        <time>2022-08-24T16:37:47Z</time>
      </trkpt>
      <trkpt lat="44.1046" lon="6.32337">
        <ele>1169.299</ele>
        <time>2022-08-24T16:37:49Z</time>
      </trkpt>
      <trkpt lat="44.10457" lon="6.32326">
        <ele>1167.807</ele>
        <time>2022-08-24T16:37:51Z</time>
      </trkpt>
      <trkpt lat="44.10454" lon="6.32321">
        <ele>1167.227</ele>
        <time>2022-08-24T16:37:52Z</time>
      </trkpt>
      <trkpt lat="44.10452" lon="6.32316">
        <ele>1166.609</ele>
        <time>2022-08-24T16:37:53Z</time>
      </trkpt>
      <trkpt lat="44.1045" lon="6.32304">
        <ele>1165.86</ele>
        <time>2022-08-24T16:37:56Z</time>
      </trkpt>
      <trkpt lat="44.10449" lon="6.32302">
        <ele>1165.87</ele>
        <time>2022-08-24T16:37:57Z</time>
      </trkpt>
      <trkpt lat="44.10444" lon="6.32296">
        <ele>1165.43</ele>
        <time>2022-08-24T16:38:00Z</time>
      </trkpt>
      <trkpt lat="44.10438" lon="6.32283">
        <ele>1164.416</ele>
        <time>2022-08-24T16:38:03Z</time>
      </trkpt>
      <trkpt lat="44.10436" lon="6.32278">
        <ele>1164.269</ele>
        <time>2022-08-24T16:38:04Z</time>
      </trkpt>
      <trkpt lat="44.10434" lon="6.32274">
        <ele>1163.892</ele>
        <time>2022-08-24T16:38:05Z</time>
      </trkpt>
      <trkpt lat="44.10428" lon="6.3227">
        <ele>1163.228</ele>
        <time>2022-08-24T16:38:08Z</time>
      </trkpt>
      <trkpt lat="44.10424" lon="6.32268">
        <ele>1163.052</ele>
        <time>2022-08-24T16:38:09Z</time>
      </trkpt>
      <trkpt lat="44.10416" lon="6.32264">
        <ele>1160.285</ele>
        <time>2022-08-24T16:38:11Z</time>
      </trkpt>
      <trkpt lat="44.10412" lon="6.32262">
        <ele>1158.072</ele>
        <time>2022-08-24T16:38:12Z</time>
      </trkpt>
      <trkpt lat="44.10408" lon="6.3226">
        <ele>1156.413</ele>
        <time>2022-08-24T16:38:13Z</time>
      </trkpt>
      <trkpt lat="44.10404" lon="6.3226">
        <ele>1155.014</ele>
        <time>2022-08-24T16:38:14Z</time>
      </trkpt>
      <trkpt lat="44.104" lon="6.32262">
        <ele>1154.009</ele>
        <time>2022-08-24T16:38:15Z</time>
      </trkpt>
      <trkpt lat="44.10396" lon="6.32264">
        <ele>1153.058</ele>
        <time>2022-08-24T16:38:16Z</time>
      </trkpt>
      <trkpt lat="44.10391" lon="6.32266">
        <ele>1152.288</ele>
        <time>2022-08-24T16:38:17Z</time>
      </trkpt>
      <trkpt lat="44.10385" lon="6.32267">
        <ele>1151.428</ele>
        <time>2022-08-24T16:38:18Z</time>
      </trkpt>
      <trkpt lat="44.10378" lon="6.32267">
        <ele>1150.884</ele>
        <time>2022-08-24T16:38:19Z</time>
      </trkpt>
      <trkpt lat="44.10371" lon="6.32267">
        <ele>1150.487</ele>
        <time>2022-08-24T16:38:20Z</time>
      </trkpt>
      <trkpt lat="44.10366" lon="6.32263">
        <ele>1148.88</ele>
        <time>2022-08-24T16:38:21Z</time>
      </trkpt>
      <trkpt lat="44.10361" lon="6.32257">
        <ele>1147.686</ele>
        <time>2022-08-24T16:38:22Z</time>
      </trkpt>
      <trkpt lat="44.10357" lon="6.3225">
        <ele>1145.49</ele>
        <time>2022-08-24T16:38:23Z</time>
      </trkpt>
      <trkpt lat="44.10354" lon="6.32242">
        <ele>1143.473</ele>
        <time>2022-08-24T16:38:24Z</time>
      </trkpt>
      <trkpt lat="44.10349" lon="6.32236">
        <ele>1142.648</ele>
        <time>2022-08-24T16:38:25Z</time>
      </trkpt>
      <trkpt lat="44.10343" lon="6.32231">
        <ele>1142.261</ele>
        <time>2022-08-24T16:38:26Z</time>
      </trkpt>
      <trkpt lat="44.10335" lon="6.3223">
        <ele>1142.417</ele>
        <time>2022-08-24T16:38:28Z</time>
      </trkpt>
      <trkpt lat="44.10333" lon="6.32232">
        <ele>1142.809</ele>
        <time>2022-08-24T16:38:29Z</time>
      </trkpt>
      <trkpt lat="44.10331" lon="6.32235">
        <ele>1143.075</ele>
        <time>2022-08-24T16:38:30Z</time>
      </trkpt>
      <trkpt lat="44.1033" lon="6.32237">
        <ele>1143.615</ele>
        <time>2022-08-24T16:38:31Z</time>
      </trkpt>
      <trkpt lat="44.10328" lon="6.32239">
        <ele>1143.855</ele>
        <time>2022-08-24T16:38:32Z</time>
      </trkpt>
      <trkpt lat="44.10322" lon="6.32244">
        <ele>1144.241</ele>
        <time>2022-08-24T16:38:34Z</time>
      </trkpt>
      <trkpt lat="44.10319" lon="6.32243">
        <ele>1144.224</ele>
        <time>2022-08-24T16:38:35Z</time>
      </trkpt>
      <trkpt lat="44.10312" lon="6.32242">
        <ele>1144.077</ele>
        <time>2022-08-24T16:38:37Z</time>
      </trkpt>
      <trkpt lat="44.10305" lon="6.32242">
        <ele>1143.053</ele>
        <time>2022-08-24T16:38:38Z</time>
      </trkpt>
      <trkpt lat="44.10299" lon="6.32243">
        <ele>1140.867</ele>
        <time>2022-08-24T16:38:39Z</time>
      </trkpt>
      <trkpt lat="44.10293" lon="6.32243">
        <ele>1139.47</ele>
        <time>2022-08-24T16:38:40Z</time>
      </trkpt>
      <trkpt lat="44.10288" lon="6.32243">
        <ele>1138.654</ele>
        <time>2022-08-24T16:38:41Z</time>
      </trkpt>
      <trkpt lat="44.10285" lon="6.32239">
        <ele>1138.056</ele>
        <time>2022-08-24T16:38:42Z</time>
      </trkpt>
      <trkpt lat="44.10282" lon="6.32229">
        <ele>1136.611</ele>
        <time>2022-08-24T16:38:44Z</time>
      </trkpt>
      <trkpt lat="44.10282" lon="6.32225">
        <ele>1136.409</ele>
        <time>2022-08-24T16:38:45Z</time>
      </trkpt>
      <trkpt lat="44.1028" lon="6.32218">
        <ele>1134.066</ele>
        <time>2022-08-24T16:38:47Z</time>
      </trkpt>
      <trkpt lat="44.10276" lon="6.32216">
        <ele>1132.236</ele>
        <time>2022-08-24T16:38:48Z</time>
      </trkpt>
      <trkpt lat="44.1027" lon="6.32215">
        <ele>1131.276</ele>
        <time>2022-08-24T16:38:49Z</time>
      </trkpt>
      <trkpt lat="44.10264" lon="6.32215">
        <ele>1130.612</ele>
        <time>2022-08-24T16:38:50Z</time>
      </trkpt>
      <trkpt lat="44.10262" lon="6.32215">
        <ele>1130.025</ele>
        <time>2022-08-24T16:38:51Z</time>
      </trkpt>
      <trkpt lat="44.1026" lon="6.32215">
        <ele>1129.698</ele>
        <time>2022-08-24T16:38:54Z</time>
      </trkpt>
      <trkpt lat="44.1026" lon="6.32215">
        <ele>1129.484</ele>
        <time>2022-08-24T16:38:55Z</time>
      </trkpt>
      <trkpt lat="44.1026" lon="6.32214">
        <ele>1129.428</ele>
        <time>2022-08-24T16:38:56Z</time>
      </trkpt>
      <trkpt lat="44.10259" lon="6.3221">
        <ele>1129.411</ele>
        <time>2022-08-24T16:38:58Z</time>
      </trkpt>
      <trkpt lat="44.10256" lon="6.32205">
        <ele>1128.424</ele>
        <time>2022-08-24T16:38:59Z</time>
      </trkpt>
      <trkpt lat="44.10251" lon="6.32195">
        <ele>1127.204</ele>
        <time>2022-08-24T16:39:01Z</time>
      </trkpt>
      <trkpt lat="44.1025" lon="6.32189">
        <ele>1126.814</ele>
        <time>2022-08-24T16:39:02Z</time>
      </trkpt>
      <trkpt lat="44.10245" lon="6.32165">
        <ele>1125.409</ele>
        <time>2022-08-24T16:39:05Z</time>
      </trkpt>
      <trkpt lat="44.10242" lon="6.32158">
        <ele>1124.683</ele>
        <time>2022-08-24T16:39:06Z</time>
      </trkpt>
      <trkpt lat="44.10237" lon="6.32153">
        <ele>1124.043</ele>
        <time>2022-08-24T16:39:07Z</time>
      </trkpt>
      <trkpt lat="44.10227" lon="6.32151">
        <ele>1125.853</ele>
        <time>2022-08-24T16:39:09Z</time>
      </trkpt>
      <trkpt lat="44.1022" lon="6.32146">
        <ele>1126.879</ele>
        <time>2022-08-24T16:39:11Z</time>
      </trkpt>
      <trkpt lat="44.10218" lon="6.32144">
        <ele>1127.232</ele>
        <time>2022-08-24T16:39:12Z</time>
      </trkpt>
      <trkpt lat="44.10216" lon="6.32142">
        <ele>1127.615</ele>
        <time>2022-08-24T16:39:15Z</time>
      </trkpt>
      <trkpt lat="44.10214" lon="6.32128">
        <ele>1125.651</ele>
        <time>2022-08-24T16:40:33Z</time>
      </trkpt>
      <trkpt lat="44.10213" lon="6.3212">
        <ele>1123.885</ele>
        <time>2022-08-24T16:40:34Z</time>
      </trkpt>
      <trkpt lat="44.1021" lon="6.32112">
        <ele>1122.078</ele>
        <time>2022-08-24T16:40:35Z</time>
      </trkpt>
      <trkpt lat="44.10205" lon="6.32103">
        <ele>1120.676</ele>
        <time>2022-08-24T16:40:36Z</time>
      </trkpt>
      <trkpt lat="44.10198" lon="6.32094">
        <ele>1119.89</ele>
        <time>2022-08-24T16:40:37Z</time>
      </trkpt>
      <trkpt lat="44.10192" lon="6.32089">
        <ele>1119.419</ele>
        <time>2022-08-24T16:40:38Z</time>
      </trkpt>
      <trkpt lat="44.10189" lon="6.32086">
        <ele>1119.209</ele>
        <time>2022-08-24T16:40:39Z</time>
      </trkpt>
      <trkpt lat="44.10187" lon="6.32086">
        <ele>1120.648</ele>
        <time>2022-08-24T16:40:41Z</time>
      </trkpt>
      <trkpt lat="44.10189" lon="6.32081">
        <ele>1121.698</ele>
        <time>2022-08-24T16:41:05Z</time>
      </trkpt>
      <trkpt lat="44.10188" lon="6.32077">
        <ele>1121.658</ele>
        <time>2022-08-24T16:41:06Z</time>
      </trkpt>
      <trkpt lat="44.10187" lon="6.3207">
        <ele>1119.864</ele>
        <time>2022-08-24T16:41:08Z</time>
      </trkpt>
      <trkpt lat="44.10186" lon="6.32069">
        <ele>1118.237</ele>
        <time>2022-08-24T16:41:09Z</time>
      </trkpt>
      <trkpt lat="44.10181" lon="6.32068">
        <ele>1117.04</ele>
        <time>2022-08-24T16:41:11Z</time>
      </trkpt>
      <trkpt lat="44.10177" lon="6.32067">
        <ele>1114.426</ele>
        <time>2022-08-24T16:41:12Z</time>
      </trkpt>
      <trkpt lat="44.10172" lon="6.32065">
        <ele>1113.27</ele>
        <time>2022-08-24T16:41:13Z</time>
      </trkpt>
      <trkpt lat="44.10167" lon="6.32064">
        <ele>1112.443</ele>
        <time>2022-08-24T16:41:14Z</time>
      </trkpt>
      <trkpt lat="44.10161" lon="6.32063">
        <ele>1112.217</ele>
        <time>2022-08-24T16:41:15Z</time>
      </trkpt>
      <trkpt lat="44.10158" lon="6.32063">
        <ele>1112.287</ele>
        <time>2022-08-24T16:41:17Z</time>
      </trkpt>
      <trkpt lat="44.10158" lon="6.32063">
        <ele>1112.215</ele>
        <time>2022-08-24T16:41:18Z</time>
      </trkpt>
      <trkpt lat="44.10166" lon="6.32065">
        <ele>1112.009</ele>
        <time>2022-08-24T16:43:03Z</time>
      </trkpt>
      <trkpt lat="44.10171" lon="6.32066">
        <ele>1111.812</ele>
        <time>2022-08-24T16:43:04Z</time>
      </trkpt>
      <trkpt lat="44.1018" lon="6.32071">
        <ele>1111.462</ele>
        <time>2022-08-24T16:43:07Z</time>
      </trkpt>
      <trkpt lat="44.10181" lon="6.32071">
        <ele>1111.662</ele>
        <time>2022-08-24T16:43:09Z</time>
      </trkpt>
      <trkpt lat="44.10191" lon="6.32083">
        <ele>1121.258</ele>
        <time>2022-08-24T16:44:44Z</time>
      </trkpt>
      <trkpt lat="44.1019" lon="6.3208">
        <ele>1120.631</ele>
        <time>2022-08-24T16:44:45Z</time>
      </trkpt>
      <trkpt lat="44.10189" lon="6.32073">
        <ele>1119.624</ele>
        <time>2022-08-24T16:44:47Z</time>
      </trkpt>
      <trkpt lat="44.10187" lon="6.32071">
        <ele>1118.48</ele>
        <time>2022-08-24T16:44:48Z</time>
      </trkpt>
      <trkpt lat="44.10184" lon="6.3207">
        <ele>1117.664</ele>
        <time>2022-08-24T16:44:49Z</time>
      </trkpt>
      <trkpt lat="44.1018" lon="6.32069">
        <ele>1115.687</ele>
        <time>2022-08-24T16:44:50Z</time>
      </trkpt>
      <trkpt lat="44.10175" lon="6.32067">
        <ele>1114.211</ele>
        <time>2022-08-24T16:44:51Z</time>
      </trkpt>
      <trkpt lat="44.10169" lon="6.32065">
        <ele>1113.621</ele>
        <time>2022-08-24T16:44:52Z</time>
      </trkpt>
      <trkpt lat="44.10164" lon="6.32065">
        <ele>1113.203</ele>
        <time>2022-08-24T16:44:53Z</time>
      </trkpt>
      <trkpt lat="44.10158" lon="6.32066">
        <ele>1112.809</ele>
        <time>2022-08-24T16:44:56Z</time>
      </trkpt>
      <trkpt lat="44.10158" lon="6.32066">
        <ele>1112.812</ele>
        <time>2022-08-24T16:44:57Z</time>
      </trkpt>
      <trkpt lat="44.10156" lon="6.32063">
        <ele>1112.662</ele>
        <time>2022-08-24T16:48:06Z</time>
      </trkpt>
      <trkpt lat="44.10152" lon="6.3206">
        <ele>1112.832</ele>
        <time>2022-08-24T16:48:07Z</time>
      </trkpt>
      <trkpt lat="44.1015" lon="6.32059">
        <ele>1113.048</ele>
        <time>2022-08-24T16:48:09Z</time>
      </trkpt>
      <trkpt lat="44.10143" lon="6.32054">
        <ele>1113.241</ele>
        <time>2022-08-24T16:48:13Z</time>
      </trkpt>
      <trkpt lat="44.10142" lon="6.32049">
        <ele>1111.664</ele>
        <time>2022-08-24T16:48:15Z</time>
      </trkpt>
      <trkpt lat="44.10141" lon="6.32047">
        <ele>1111.07</ele>
        <time>2022-08-24T16:48:16Z</time>
      </trkpt>
      <trkpt lat="44.10138" lon="6.32044">
        <ele>1110.654</ele>
        <time>2022-08-24T16:48:17Z</time>
      </trkpt>
      <trkpt lat="44.10135" lon="6.32035">
        <ele>1110.247</ele>
        <time>2022-08-24T16:48:18Z</time>
      </trkpt>
      <trkpt lat="44.10136" lon="6.32029">
        <ele>1109.614</ele>
        <time>2022-08-24T16:48:19Z</time>
      </trkpt>
      <trkpt lat="44.10136" lon="6.32024">
        <ele>1108.454</ele>
        <time>2022-08-24T16:48:20Z</time>
      </trkpt>
      <trkpt lat="44.10137" lon="6.32014">
        <ele>1106.209</ele>
        <time>2022-08-24T16:48:22Z</time>
      </trkpt>
      <trkpt lat="44.10137" lon="6.32006">
        <ele>1103.209</ele>
        <time>2022-08-24T16:48:24Z</time>
      </trkpt>
      <trkpt lat="44.10136" lon="6.32002">
        <ele>1102.252</ele>
        <time>2022-08-24T16:48:25Z</time>
      </trkpt>
      <trkpt lat="44.10134" lon="6.31999">
        <ele>1101.012</ele>
        <time>2022-08-24T16:48:26Z</time>
      </trkpt>
      <trkpt lat="44.10132" lon="6.31992">
        <ele>1099.872</ele>
        <time>2022-08-24T16:48:28Z</time>
      </trkpt>
      <trkpt lat="44.10133" lon="6.31988">
        <ele>1098.698</ele>
        <time>2022-08-24T16:48:29Z</time>
      </trkpt>
      <trkpt lat="44.10132" lon="6.31984">
        <ele>1097.251</ele>
        <time>2022-08-24T16:48:30Z</time>
      </trkpt>
      <trkpt lat="44.10132" lon="6.31979">
        <ele>1096.034</ele>
        <time>2022-08-24T16:48:31Z</time>
      </trkpt>
      <trkpt lat="44.10136" lon="6.31971">
        <ele>1094.21</ele>
        <time>2022-08-24T16:48:33Z</time>
      </trkpt>
      <trkpt lat="44.10138" lon="6.31968">
        <ele>1093.684</ele>
        <time>2022-08-24T16:48:34Z</time>
      </trkpt>
      <trkpt lat="44.10142" lon="6.31962">
        <ele>1091.867</ele>
        <time>2022-08-24T16:48:36Z</time>
      </trkpt>
      <trkpt lat="44.10144" lon="6.31961">
        <ele>1090.427</ele>
        <time>2022-08-24T16:48:37Z</time>
      </trkpt>
      <trkpt lat="44.10146" lon="6.31959">
        <ele>1089.268</ele>
        <time>2022-08-24T16:48:38Z</time>
      </trkpt>
      <trkpt lat="44.10149" lon="6.31958">
        <ele>1088.214</ele>
        <time>2022-08-24T16:48:39Z</time>
      </trkpt>
      <trkpt lat="44.10149" lon="6.31957">
        <ele>1087.609</ele>
        <time>2022-08-24T16:48:40Z</time>
      </trkpt>
      <trkpt lat="44.1015" lon="6.31954">
        <ele>1086.013</ele>
        <time>2022-08-24T16:48:42Z</time>
      </trkpt>
      <trkpt lat="44.10151" lon="6.31953">
        <ele>1085.643</ele>
        <time>2022-08-24T16:48:43Z</time>
      </trkpt>
      <trkpt lat="44.10152" lon="6.31951">
        <ele>1084.843</ele>
        <time>2022-08-24T16:48:44Z</time>
      </trkpt>
      <trkpt lat="44.10153" lon="6.3195">
        <ele>1084.079</ele>
        <time>2022-08-24T16:48:45Z</time>
      </trkpt>
      <trkpt lat="44.10153" lon="6.31948">
        <ele>1082.452</ele>
        <time>2022-08-24T16:48:46Z</time>
      </trkpt>
      <trkpt lat="44.10155" lon="6.31945">
        <ele>1080.845</ele>
        <time>2022-08-24T16:48:47Z</time>
      </trkpt>
      <trkpt lat="44.10156" lon="6.31943">
        <ele>1080.071</ele>
        <time>2022-08-24T16:48:48Z</time>
      </trkpt>
      <trkpt lat="44.10156" lon="6.3194">
        <ele>1079.445</ele>
        <time>2022-08-24T16:48:49Z</time>
      </trkpt>
      <trkpt lat="44.1016" lon="6.31937">
        <ele>1078.278</ele>
        <time>2022-08-24T16:48:51Z</time>
      </trkpt>
      <trkpt lat="44.10165" lon="6.31925">
        <ele>1077.256</ele>
        <time>2022-08-24T16:49:06Z</time>
      </trkpt>
      <trkpt lat="44.10167" lon="6.31925">
        <ele>1076.059</ele>
        <time>2022-08-24T16:49:08Z</time>
      </trkpt>
      <trkpt lat="44.10168" lon="6.31928">
        <ele>1075.014</ele>
        <time>2022-08-24T16:49:10Z</time>
      </trkpt>
      <trkpt lat="44.1017" lon="6.31931">
        <ele>1074.209</ele>
        <time>2022-08-24T16:49:12Z</time>
      </trkpt>
      <trkpt lat="44.10171" lon="6.31932">
        <ele>1073.876</ele>
        <time>2022-08-24T16:49:13Z</time>
      </trkpt>
      <trkpt lat="44.10172" lon="6.31933">
        <ele>1073.426</ele>
        <time>2022-08-24T16:49:14Z</time>
      </trkpt>
      <trkpt lat="44.10173" lon="6.31934">
        <ele>1072.436</ele>
        <time>2022-08-24T16:49:15Z</time>
      </trkpt>
      <trkpt lat="44.10175" lon="6.31935">
        <ele>1071.252</ele>
        <time>2022-08-24T16:49:16Z</time>
      </trkpt>
      <trkpt lat="44.10176" lon="6.31936">
        <ele>1070.065</ele>
        <time>2022-08-24T16:49:18Z</time>
      </trkpt>
      <trkpt lat="44.1018" lon="6.31936">
        <ele>1068.258</ele>
        <time>2022-08-24T16:49:20Z</time>
      </trkpt>
      <trkpt lat="44.10182" lon="6.31936">
        <ele>1067.674</ele>
        <time>2022-08-24T16:49:21Z</time>
      </trkpt>
      <trkpt lat="44.10184" lon="6.31935">
        <ele>1067.038</ele>
        <time>2022-08-24T16:49:23Z</time>
      </trkpt>
      <trkpt lat="44.10187" lon="6.31933">
        <ele>1066.211</ele>
        <time>2022-08-24T16:49:26Z</time>
      </trkpt>
      <trkpt lat="44.10189" lon="6.31932">
        <ele>1065.899</ele>
        <time>2022-08-24T16:49:27Z</time>
      </trkpt>
      <trkpt lat="44.1019" lon="6.31931">
        <ele>1065.007</ele>
        <time>2022-08-24T16:49:28Z</time>
      </trkpt>
      <trkpt lat="44.10191" lon="6.3193">
        <ele>1064.427</ele>
        <time>2022-08-24T16:49:29Z</time>
      </trkpt>
      <trkpt lat="44.10195" lon="6.31925">
        <ele>1063.209</ele>
        <time>2022-08-24T16:49:32Z</time>
      </trkpt>
      <trkpt lat="44.10197" lon="6.31923">
        <ele>1062.87</ele>
        <time>2022-08-24T16:49:33Z</time>
      </trkpt>
      <trkpt lat="44.10199" lon="6.31917">
        <ele>1062.01</ele>
        <time>2022-08-24T16:49:36Z</time>
      </trkpt>
      <trkpt lat="44.10202" lon="6.31912">
        <ele>1062.04</ele>
        <time>2022-08-24T16:49:39Z</time>
      </trkpt>
      <trkpt lat="44.10204" lon="6.31911">
        <ele>1062.456</ele>
        <time>2022-08-24T16:49:41Z</time>
      </trkpt>
      <trkpt lat="44.10212" lon="6.31908">
        <ele>1062.689</ele>
        <time>2022-08-24T16:49:43Z</time>
      </trkpt>
      <trkpt lat="44.10217" lon="6.31904">
        <ele>1062.822</ele>
        <time>2022-08-24T16:49:45Z</time>
      </trkpt>
      <trkpt lat="44.10214" lon="6.31883">
        <ele>1061.238</ele>
        <time>2022-08-24T16:49:57Z</time>
      </trkpt>
      <trkpt lat="44.10215" lon="6.31881">
        <ele>1060.872</ele>
        <time>2022-08-24T16:49:58Z</time>
      </trkpt>
      <trkpt lat="44.10215" lon="6.31878">
        <ele>1060.675</ele>
        <time>2022-08-24T16:49:59Z</time>
      </trkpt>
      <trkpt lat="44.10215" lon="6.31876">
        <ele>1059.276</ele>
        <time>2022-08-24T16:50:00Z</time>
      </trkpt>
      <trkpt lat="44.10214" lon="6.31872">
        <ele>1057.49</ele>
        <time>2022-08-24T16:50:02Z</time>
      </trkpt>
      <trkpt lat="44.10214" lon="6.31862">
        <ele>1055.019</ele>
        <time>2022-08-24T16:50:04Z</time>
      </trkpt>
      <trkpt lat="44.10216" lon="6.31856">
        <ele>1053.009</ele>
        <time>2022-08-24T16:50:05Z</time>
      </trkpt>
      <trkpt lat="44.10219" lon="6.31851">
        <ele>1051.848</ele>
        <time>2022-08-24T16:50:06Z</time>
      </trkpt>
      <trkpt lat="44.10221" lon="6.31845">
        <ele>1051.268</ele>
        <time>2022-08-24T16:50:07Z</time>
      </trkpt>
      <trkpt lat="44.10223" lon="6.31832">
        <ele>1050.878</ele>
        <time>2022-08-24T16:50:09Z</time>
      </trkpt>
      <trkpt lat="44.10221" lon="6.31822">
        <ele>1051.694</ele>
        <time>2022-08-24T16:50:12Z</time>
      </trkpt>
      <trkpt lat="44.1022" lon="6.3182">
        <ele>1052.257</ele>
        <time>2022-08-24T16:50:13Z</time>
      </trkpt>
      <trkpt lat="44.1022" lon="6.31817">
        <ele>1052.83</ele>
        <time>2022-08-24T16:50:14Z</time>
      </trkpt>
      <trkpt lat="44.1022" lon="6.31811">
        <ele>1053.446</ele>
        <time>2022-08-24T16:50:16Z</time>
      </trkpt>
      <trkpt lat="44.10219" lon="6.31794">
        <ele>1054.01</ele>
        <time>2022-08-24T16:50:21Z</time>
      </trkpt>
      <trkpt lat="44.1022" lon="6.31784">
        <ele>1054.483</ele>
        <time>2022-08-24T16:50:24Z</time>
      </trkpt>
      <trkpt lat="44.10217" lon="6.31774">
        <ele>1055.244</ele>
        <time>2022-08-24T16:50:27Z</time>
      </trkpt>
      <trkpt lat="44.10215" lon="6.31768">
        <ele>1056.205</ele>
        <time>2022-08-24T16:50:29Z</time>
      </trkpt>
      <trkpt lat="44.10214" lon="6.31762">
        <ele>1057.215</ele>
        <time>2022-08-24T16:50:31Z</time>
      </trkpt>
      <trkpt lat="44.10214" lon="6.3176">
        <ele>1057.409</ele>
        <time>2022-08-24T16:50:32Z</time>
      </trkpt>
      <trkpt lat="44.10215" lon="6.31752">
        <ele>1057.815</ele>
        <time>2022-08-24T16:50:36Z</time>
      </trkpt>
      <trkpt lat="44.10218" lon="6.31748">
        <ele>1057.875</ele>
        <time>2022-08-24T16:50:38Z</time>
      </trkpt>
      <trkpt lat="44.10223" lon="6.31744">
        <ele>1058.475</ele>
        <time>2022-08-24T16:50:41Z</time>
      </trkpt>
      <trkpt lat="44.10226" lon="6.31742">
        <ele>1058.861</ele>
        <time>2022-08-24T16:50:43Z</time>
      </trkpt>
      <trkpt lat="44.10231" lon="6.31737">
        <ele>1059.694</ele>
        <time>2022-08-24T16:50:47Z</time>
      </trkpt>
      <trkpt lat="44.10233" lon="6.31736">
        <ele>1060.097</ele>
        <time>2022-08-24T16:50:48Z</time>
      </trkpt>
      <trkpt lat="44.10238" lon="6.31732">
        <ele>1060.683</ele>
        <time>2022-08-24T16:50:52Z</time>
      </trkpt>
      <trkpt lat="44.10239" lon="6.31731">
        <ele>1060.667</ele>
        <time>2022-08-24T16:50:53Z</time>
      </trkpt>
      <trkpt lat="44.1024" lon="6.3173">
        <ele>1060.81</ele>
        <time>2022-08-24T16:50:54Z</time>
      </trkpt>
      <trkpt lat="44.10242" lon="6.31729">
        <ele>1061.019</ele>
        <time>2022-08-24T16:50:55Z</time>
      </trkpt>
      <trkpt lat="44.1025" lon="6.31724">
        <ele>1061.609</ele>
        <time>2022-08-24T16:50:58Z</time>
      </trkpt>
      <trkpt lat="44.10252" lon="6.31723">
        <ele>1061.819</ele>
        <time>2022-08-24T16:50:59Z</time>
      </trkpt>
      <trkpt lat="44.10264" lon="6.31718">
        <ele>1062.809</ele>
        <time>2022-08-24T16:51:03Z</time>
      </trkpt>
      <trkpt lat="44.10267" lon="6.31718">
        <ele>1063.242</ele>
        <time>2022-08-24T16:51:04Z</time>
      </trkpt>
      <trkpt lat="44.10281" lon="6.31716">
        <ele>1064.292</ele>
        <time>2022-08-24T16:51:09Z</time>
      </trkpt>
      <trkpt lat="44.10284" lon="6.31716">
        <ele>1064.242</ele>
        <time>2022-08-24T16:51:10Z</time>
      </trkpt>
      <trkpt lat="44.10296" lon="6.31727">
        <ele>1064.428</ele>
        <time>2022-08-24T16:51:15Z</time>
      </trkpt>
      <trkpt lat="44.10304" lon="6.31746">
        <ele>1065.231</ele>
        <time>2022-08-24T16:51:19Z</time>
      </trkpt>
      <trkpt lat="44.10307" lon="6.31752">
        <ele>1065.414</ele>
        <time>2022-08-24T16:51:20Z</time>
      </trkpt>
      <trkpt lat="44.10318" lon="6.31774">
        <ele>1066.23</ele>
        <time>2022-08-24T16:51:25Z</time>
      </trkpt>
      <trkpt lat="44.1032" lon="6.31777">
        <ele>1066.414</ele>
        <time>2022-08-24T16:51:26Z</time>
      </trkpt>
      <trkpt lat="44.10328" lon="6.31793">
        <ele>1067.017</ele>
        <time>2022-08-24T16:51:30Z</time>
      </trkpt>
      <trkpt lat="44.10333" lon="6.31806">
        <ele>1067.471</ele>
        <time>2022-08-24T16:51:33Z</time>
      </trkpt>
      <trkpt lat="44.10339" lon="6.31816">
        <ele>1068.841</ele>
        <time>2022-08-24T16:51:36Z</time>
      </trkpt>
      <trkpt lat="44.10346" lon="6.31824">
        <ele>1070.015</ele>
        <time>2022-08-24T16:51:39Z</time>
      </trkpt>
      <trkpt lat="44.10354" lon="6.31828">
        <ele>1071.009</ele>
        <time>2022-08-24T16:51:42Z</time>
      </trkpt>
      <trkpt lat="44.10357" lon="6.31829">
        <ele>1071.438</ele>
        <time>2022-08-24T16:51:43Z</time>
      </trkpt>
      <trkpt lat="44.10362" lon="6.31829">
        <ele>1071.868</ele>
        <time>2022-08-24T16:51:45Z</time>
      </trkpt>
      <trkpt lat="44.10367" lon="6.31825">
        <ele>1072.288</ele>
        <time>2022-08-24T16:51:47Z</time>
      </trkpt>
      <trkpt lat="44.10374" lon="6.31811">
        <ele>1072.494</ele>
        <time>2022-08-24T16:51:51Z</time>
      </trkpt>
      <trkpt lat="44.10376" lon="6.31808">
        <ele>1072.697</ele>
        <time>2022-08-24T16:51:52Z</time>
      </trkpt>
      <trkpt lat="44.10382" lon="6.31801">
        <ele>1073.63</ele>
        <time>2022-08-24T16:51:55Z</time>
      </trkpt>
      <trkpt lat="44.10388" lon="6.31799">
        <ele>1074.276</ele>
        <time>2022-08-24T16:51:57Z</time>
      </trkpt>
      <trkpt lat="44.10394" lon="6.31796">
        <ele>1075.05</ele>
        <time>2022-08-24T16:51:59Z</time>
      </trkpt>
      <trkpt lat="44.10399" lon="6.31793">
        <ele>1076.013</ele>
        <time>2022-08-24T16:52:01Z</time>
      </trkpt>
      <trkpt lat="44.10408" lon="6.3179">
        <ele>1077.288</ele>
        <time>2022-08-24T16:52:04Z</time>
      </trkpt>
      <trkpt lat="44.10411" lon="6.31789">
        <ele>1077.424</ele>
        <time>2022-08-24T16:52:05Z</time>
      </trkpt>
      <trkpt lat="44.1042" lon="6.31787">
        <ele>1078.026</ele>
        <time>2022-08-24T16:52:08Z</time>
      </trkpt>
      <trkpt lat="44.10426" lon="6.31785">
        <ele>1078.409</ele>
        <time>2022-08-24T16:52:10Z</time>
      </trkpt>
      <trkpt lat="44.10429" lon="6.31783">
        <ele>1079.079</ele>
        <time>2022-08-24T16:52:11Z</time>
      </trkpt>
      <trkpt lat="44.10435" lon="6.31781">
        <ele>1079.439</ele>
        <time>2022-08-24T16:52:13Z</time>
      </trkpt>
      <trkpt lat="44.10446" lon="6.31779">
        <ele>1080.489</ele>
        <time>2022-08-24T16:52:17Z</time>
      </trkpt>
      <trkpt lat="44.10449" lon="6.3178">
        <ele>1080.885</ele>
        <time>2022-08-24T16:52:18Z</time>
      </trkpt>
      <trkpt lat="44.10461" lon="6.31786">
        <ele>1082.078</ele>
        <time>2022-08-24T16:52:22Z</time>
      </trkpt>
      <trkpt lat="44.10463" lon="6.31788">
        <ele>1082.271</ele>
        <time>2022-08-24T16:52:23Z</time>
      </trkpt>
      <trkpt lat="44.10469" lon="6.31793">
        <ele>1082.837</ele>
        <time>2022-08-24T16:52:25Z</time>
      </trkpt>
      <trkpt lat="44.10471" lon="6.31795">
        <ele>1083.281</ele>
        <time>2022-08-24T16:52:26Z</time>
      </trkpt>
      <trkpt lat="44.10476" lon="6.31801">
        <ele>1084.454</ele>
        <time>2022-08-24T16:52:28Z</time>
      </trkpt>
      <trkpt lat="44.10481" lon="6.31807">
        <ele>1085.053</ele>
        <time>2022-08-24T16:52:30Z</time>
      </trkpt>
      <trkpt lat="44.10488" lon="6.31816">
        <ele>1085.404</ele>
        <time>2022-08-24T16:52:33Z</time>
      </trkpt>
      <trkpt lat="44.10501" lon="6.31826">
        <ele>1085.814</ele>
        <time>2022-08-24T16:52:38Z</time>
      </trkpt>
      <trkpt lat="44.10506" lon="6.31827">
        <ele>1086.609</ele>
        <time>2022-08-24T16:52:40Z</time>
      </trkpt>
      <trkpt lat="44.10512" lon="6.31829">
        <ele>1087.276</ele>
        <time>2022-08-24T16:52:43Z</time>
      </trkpt>
      <trkpt lat="44.10517" lon="6.31832">
        <ele>1087.876</ele>
        <time>2022-08-24T16:52:46Z</time>
      </trkpt>
      <trkpt lat="44.10522" lon="6.31835">
        <ele>1088.286</ele>
        <time>2022-08-24T16:52:48Z</time>
      </trkpt>
      <trkpt lat="44.10524" lon="6.31835">
        <ele>1089.012</ele>
        <time>2022-08-24T16:52:49Z</time>
      </trkpt>
      <trkpt lat="44.10531" lon="6.3184">
        <ele>1090.255</ele>
        <time>2022-08-24T16:52:52Z</time>
      </trkpt>
      <trkpt lat="44.10533" lon="6.31842">
        <ele>1090.468</ele>
        <time>2022-08-24T16:52:53Z</time>
      </trkpt>
      <trkpt lat="44.10541" lon="6.31849">
        <ele>1090.854</ele>
        <time>2022-08-24T16:52:57Z</time>
      </trkpt>
      <trkpt lat="44.10548" lon="6.31849">
        <ele>1091.278</ele>
        <time>2022-08-24T16:53:00Z</time>
      </trkpt>
      <trkpt lat="44.10553" lon="6.31847">
        <ele>1091.841</ele>
        <time>2022-08-24T16:53:02Z</time>
      </trkpt>
      <trkpt lat="44.10557" lon="6.31846">
        <ele>1092.678</ele>
        <time>2022-08-24T16:53:04Z</time>
      </trkpt>
      <trkpt lat="44.10566" lon="6.31849">
        <ele>1093.433</ele>
        <time>2022-08-24T16:53:08Z</time>
      </trkpt>
      <trkpt lat="44.10573" lon="6.31849">
        <ele>1093.826</ele>
        <time>2022-08-24T16:53:11Z</time>
      </trkpt>
      <trkpt lat="44.10577" lon="6.3185">
        <ele>1094.409</ele>
        <time>2022-08-24T16:53:13Z</time>
      </trkpt>
      <trkpt lat="44.10587" lon="6.31846">
        <ele>1094.858</ele>
        <time>2022-08-24T16:53:17Z</time>
      </trkpt>
      <trkpt lat="44.10594" lon="6.31842">
        <ele>1095.078</ele>
        <time>2022-08-24T16:53:20Z</time>
      </trkpt>
      <trkpt lat="44.106" lon="6.31842">
        <ele>1095.288</ele>
        <time>2022-08-24T16:53:22Z</time>
      </trkpt>
      <trkpt lat="44.10602" lon="6.31842">
        <ele>1096.214</ele>
        <time>2022-08-24T16:53:23Z</time>
      </trkpt>
      <trkpt lat="44.10606" lon="6.31844">
        <ele>1097.497</ele>
        <time>2022-08-24T16:53:25Z</time>
      </trkpt>
      <trkpt lat="44.10613" lon="6.31843">
        <ele>1097.41</ele>
        <time>2022-08-24T16:53:28Z</time>
      </trkpt>
      <trkpt lat="44.10619" lon="6.31842">
        <ele>1098.626</ele>
        <time>2022-08-24T16:53:31Z</time>
      </trkpt>
      <trkpt lat="44.10623" lon="6.31839">
        <ele>1100.09</ele>
        <time>2022-08-24T16:53:33Z</time>
      </trkpt>
      <trkpt lat="44.10628" lon="6.31838">
        <ele>1101.453</ele>
        <time>2022-08-24T16:53:35Z</time>
      </trkpt>
      <trkpt lat="44.10641" lon="6.31834">
        <ele>1102.472</ele>
        <time>2022-08-24T16:53:41Z</time>
      </trkpt>
      <trkpt lat="44.10649" lon="6.31831">
        <ele>1103.413</ele>
        <time>2022-08-24T16:53:45Z</time>
      </trkpt>
      <trkpt lat="44.10651" lon="6.3183">
        <ele>1104.014</ele>
        <time>2022-08-24T16:53:46Z</time>
      </trkpt>
      <trkpt lat="44.10656" lon="6.31826">
        <ele>1105.209</ele>
        <time>2022-08-24T16:53:49Z</time>
      </trkpt>
      <trkpt lat="44.10666" lon="6.31815">
        <ele>1106.088</ele>
        <time>2022-08-24T16:53:54Z</time>
      </trkpt>
      <trkpt lat="44.10668" lon="6.31813">
        <ele>1106.298</ele>
        <time>2022-08-24T16:53:55Z</time>
      </trkpt>
      <trkpt lat="44.10675" lon="6.31809">
        <ele>1107.258</ele>
        <time>2022-08-24T16:53:58Z</time>
      </trkpt>
      <trkpt lat="44.10677" lon="6.31808">
        <ele>1107.414</ele>
        <time>2022-08-24T16:53:59Z</time>
      </trkpt>
      <trkpt lat="44.10686" lon="6.31801">
        <ele>1108.417</ele>
        <time>2022-08-24T16:54:04Z</time>
      </trkpt>
      <trkpt lat="44.10688" lon="6.31801">
        <ele>1108.61</ele>
        <time>2022-08-24T16:54:05Z</time>
      </trkpt>
      <trkpt lat="44.10694" lon="6.31804">
        <ele>1108.836</ele>
        <time>2022-08-24T16:54:08Z</time>
      </trkpt>
      <trkpt lat="44.10697" lon="6.31806">
        <ele>1109.87</ele>
        <time>2022-08-24T16:54:10Z</time>
      </trkpt>
      <trkpt lat="44.10704" lon="6.31807">
        <ele>1111.063</ele>
        <time>2022-08-24T16:54:13Z</time>
      </trkpt>
      <trkpt lat="44.10705" lon="6.31808">
        <ele>1111.273</ele>
        <time>2022-08-24T16:54:14Z</time>
      </trkpt>
      <trkpt lat="44.10709" lon="6.31809">
        <ele>1112.085</ele>
        <time>2022-08-24T16:54:16Z</time>
      </trkpt>
      <trkpt lat="44.10712" lon="6.31807">
        <ele>1113.013</ele>
        <time>2022-08-24T16:54:18Z</time>
      </trkpt>
      <trkpt lat="44.10714" lon="6.31805">
        <ele>1113.809</ele>
        <time>2022-08-24T16:54:19Z</time>
      </trkpt>
      <trkpt lat="44.10721" lon="6.31799">
        <ele>1114.888</ele>
        <time>2022-08-24T16:54:23Z</time>
      </trkpt>
      <trkpt lat="44.10724" lon="6.31797">
        <ele>1115.898</ele>
        <time>2022-08-24T16:54:25Z</time>
      </trkpt>
      <trkpt lat="44.10726" lon="6.31796">
        <ele>1116.048</ele>
        <time>2022-08-24T16:54:26Z</time>
      </trkpt>
      <trkpt lat="44.10733" lon="6.3179">
        <ele>1116.844</ele>
        <time>2022-08-24T16:54:30Z</time>
      </trkpt>
      <trkpt lat="44.10735" lon="6.31788">
        <ele>1117.267</ele>
        <time>2022-08-24T16:54:31Z</time>
      </trkpt>
      <trkpt lat="44.10742" lon="6.31785">
        <ele>1118.44</ele>
        <time>2022-08-24T16:54:35Z</time>
      </trkpt>
      <trkpt lat="44.10751" lon="6.31785">
        <ele>1119.656</ele>
        <time>2022-08-24T16:54:39Z</time>
      </trkpt>
      <trkpt lat="44.10753" lon="6.31787">
        <ele>1119.66</ele>
        <time>2022-08-24T16:54:40Z</time>
      </trkpt>
      <trkpt lat="44.10762" lon="6.31792">
        <ele>1120.673</ele>
        <time>2022-08-24T16:54:44Z</time>
      </trkpt>
      <trkpt lat="44.10764" lon="6.31793">
        <ele>1120.877</ele>
        <time>2022-08-24T16:54:45Z</time>
      </trkpt>
      <trkpt lat="44.10774" lon="6.31801">
        <ele>1121.861</ele>
        <time>2022-08-24T16:54:50Z</time>
      </trkpt>
      <trkpt lat="44.10782" lon="6.3181">
        <ele>1123.227</ele>
        <time>2022-08-24T16:54:54Z</time>
      </trkpt>
      <trkpt lat="44.10785" lon="6.31815">
        <ele>1124.409</ele>
        <time>2022-08-24T16:54:56Z</time>
      </trkpt>
      <trkpt lat="44.10795" lon="6.31829">
        <ele>1125.228</ele>
        <time>2022-08-24T16:55:02Z</time>
      </trkpt>
      <trkpt lat="44.10798" lon="6.31836">
        <ele>1125.628</ele>
        <time>2022-08-24T16:55:04Z</time>
      </trkpt>
      <trkpt lat="44.10804" lon="6.31849">
        <ele>1126.078</ele>
        <time>2022-08-24T16:55:08Z</time>
      </trkpt>
      <trkpt lat="44.10807" lon="6.31858">
        <ele>1126.084</ele>
        <time>2022-08-24T16:55:11Z</time>
      </trkpt>
      <trkpt lat="44.1081" lon="6.31868">
        <ele>1126.487</ele>
        <time>2022-08-24T16:55:14Z</time>
      </trkpt>
      <trkpt lat="44.10812" lon="6.31875">
        <ele>1126.67</ele>
        <time>2022-08-24T16:55:16Z</time>
      </trkpt>
      <trkpt lat="44.10814" lon="6.31885">
        <ele>1126.416</ele>
        <time>2022-08-24T16:55:19Z</time>
      </trkpt>
      <trkpt lat="44.10815" lon="6.31888">
        <ele>1126.48</ele>
        <time>2022-08-24T16:55:20Z</time>
      </trkpt>
      <trkpt lat="44.10816" lon="6.31897">
        <ele>1126.673</ele>
        <time>2022-08-24T16:55:23Z</time>
      </trkpt>
      <trkpt lat="44.10818" lon="6.31905">
        <ele>1127.062</ele>
        <time>2022-08-24T16:55:26Z</time>
      </trkpt>
      <trkpt lat="44.1082" lon="6.31915">
        <ele>1127.283</ele>
        <time>2022-08-24T16:55:29Z</time>
      </trkpt>
      <trkpt lat="44.10821" lon="6.31922">
        <ele>1127.611</ele>
        <time>2022-08-24T16:55:31Z</time>
      </trkpt>
      <trkpt lat="44.10823" lon="6.31927">
        <ele>1127.809</ele>
        <time>2022-08-24T16:55:33Z</time>
      </trkpt>
      <trkpt lat="44.10826" lon="6.31938">
        <ele>1128.097</ele>
        <time>2022-08-24T16:55:36Z</time>
      </trkpt>
      <trkpt lat="44.10827" lon="6.3195">
        <ele>1128.667</ele>
        <time>2022-08-24T16:55:39Z</time>
      </trkpt>
      <trkpt lat="44.10826" lon="6.3196">
        <ele>1128.827</ele>
        <time>2022-08-24T16:55:41Z</time>
      </trkpt>
      <trkpt lat="44.10825" lon="6.31965">
        <ele>1129.083</ele>
        <time>2022-08-24T16:55:42Z</time>
      </trkpt>
      <trkpt lat="44.10825" lon="6.31987">
        <ele>1129.296</ele>
        <time>2022-08-24T16:55:47Z</time>
      </trkpt>
      <trkpt lat="44.10825" lon="6.31997">
        <ele>1129.269</ele>
        <time>2022-08-24T16:55:49Z</time>
      </trkpt>
      <trkpt lat="44.10826" lon="6.32005">
        <ele>1129.285</ele>
        <time>2022-08-24T16:55:51Z</time>
      </trkpt>
      <trkpt lat="44.10829" lon="6.32021">
        <ele>1129.499</ele>
        <time>2022-08-24T16:55:56Z</time>
      </trkpt>
      <trkpt lat="44.10832" lon="6.32035">
        <ele>1130.072</ele>
        <time>2022-08-24T16:56:00Z</time>
      </trkpt>
      <trkpt lat="44.10834" lon="6.32045">
        <ele>1131.083</ele>
        <time>2022-08-24T16:56:03Z</time>
      </trkpt>
      <trkpt lat="44.10835" lon="6.32048">
        <ele>1131.225</ele>
        <time>2022-08-24T16:56:04Z</time>
      </trkpt>
      <trkpt lat="44.10835" lon="6.32056">
        <ele>1131.417</ele>
        <time>2022-08-24T16:56:06Z</time>
      </trkpt>
      <trkpt lat="44.10834" lon="6.32067">
        <ele>1131.809</ele>
        <time>2022-08-24T16:56:09Z</time>
      </trkpt>
      <trkpt lat="44.10836" lon="6.32073">
        <ele>1132.269</ele>
        <time>2022-08-24T16:56:11Z</time>
      </trkpt>
      <trkpt lat="44.10839" lon="6.32082">
        <ele>1133.089</ele>
        <time>2022-08-24T16:56:14Z</time>
      </trkpt>
      <trkpt lat="44.1084" lon="6.32093">
        <ele>1132.859</ele>
        <time>2022-08-24T16:56:17Z</time>
      </trkpt>
      <trkpt lat="44.10843" lon="6.32097">
        <ele>1132.485</ele>
        <time>2022-08-24T16:56:19Z</time>
      </trkpt>
      <trkpt lat="44.10851" lon="6.32105">
        <ele>1133.288</ele>
        <time>2022-08-24T16:56:24Z</time>
      </trkpt>
      <trkpt lat="44.10854" lon="6.32107">
        <ele>1133.481</ele>
        <time>2022-08-24T16:56:25Z</time>
      </trkpt>
      <trkpt lat="44.10867" lon="6.32108">
        <ele>1133.427</ele>
        <time>2022-08-24T16:56:30Z</time>
      </trkpt>
      <trkpt lat="44.10877" lon="6.32102">
        <ele>1133.681</ele>
        <time>2022-08-24T16:56:36Z</time>
      </trkpt>
      <trkpt lat="44.10881" lon="6.32098">
        <ele>1133.414</ele>
        <time>2022-08-24T16:56:39Z</time>
      </trkpt>
      <trkpt lat="44.10883" lon="6.32094">
        <ele>1133.863</ele>
        <time>2022-08-24T16:56:42Z</time>
      </trkpt>
      <trkpt lat="44.10884" lon="6.32092">
        <ele>1134.044</ele>
        <time>2022-08-24T16:56:43Z</time>
      </trkpt>
      <trkpt lat="44.10895" lon="6.32082">
        <ele>1133.818</ele>
        <time>2022-08-24T16:56:49Z</time>
      </trkpt>
      <trkpt lat="44.10899" lon="6.32079">
        <ele>1133.809</ele>
        <time>2022-08-24T16:56:50Z</time>
      </trkpt>
      <trkpt lat="44.10918" lon="6.32064">
        <ele>1133.447</ele>
        <time>2022-08-24T16:56:56Z</time>
      </trkpt>
      <trkpt lat="44.1092" lon="6.32064">
        <ele>1133.277</ele>
        <time>2022-08-24T16:56:57Z</time>
      </trkpt>
      <trkpt lat="44.10926" lon="6.32068">
        <ele>1132.227</ele>
        <time>2022-08-24T16:56:59Z</time>
      </trkpt>
      <trkpt lat="44.1093" lon="6.32072">
        <ele>1131.633</ele>
        <time>2022-08-24T16:57:00Z</time>
      </trkpt>
      <trkpt lat="44.10938" lon="6.3208">
        <ele>1131.276</ele>
        <time>2022-08-24T16:57:02Z</time>
      </trkpt>
      <trkpt lat="44.10954" lon="6.32094">
        <ele>1130.039</ele>
        <time>2022-08-24T16:57:05Z</time>
      </trkpt>
      <trkpt lat="44.10967" lon="6.32102">
        <ele>1129.495</ele>
        <time>2022-08-24T16:57:07Z</time>
      </trkpt>
      <trkpt lat="44.10987" lon="6.32111">
        <ele>1128.449</ele>
        <time>2022-08-24T16:57:10Z</time>
      </trkpt>
      <trkpt lat="44.10994" lon="6.32114">
        <ele>1128.042</ele>
        <time>2022-08-24T16:57:11Z</time>
      </trkpt>
      <trkpt lat="44.11013" lon="6.32118">
        <ele>1127.465</ele>
        <time>2022-08-24T16:57:14Z</time>
      </trkpt>
      <trkpt lat="44.11019" lon="6.32119">
        <ele>1127.268</ele>
        <time>2022-08-24T16:57:15Z</time>
      </trkpt>
      <trkpt lat="44.11025" lon="6.32118">
        <ele>1127.014</ele>
        <time>2022-08-24T16:57:16Z</time>
      </trkpt>
      <trkpt lat="44.11029" lon="6.32117">
        <ele>1126.409</ele>
        <time>2022-08-24T16:57:17Z</time>
      </trkpt>
      <trkpt lat="44.11034" lon="6.32113">
        <ele>1126.037</ele>
        <time>2022-08-24T16:57:18Z</time>
      </trkpt>
      <trkpt lat="44.11044" lon="6.32108">
        <ele>1125.677</ele>
        <time>2022-08-24T16:57:20Z</time>
      </trkpt>
      <trkpt lat="44.11049" lon="6.32105">
        <ele>1125.467</ele>
        <time>2022-08-24T16:57:21Z</time>
      </trkpt>
      <trkpt lat="44.11055" lon="6.32105">
        <ele>1125.473</ele>
        <time>2022-08-24T16:57:22Z</time>
      </trkpt>
      <trkpt lat="44.11062" lon="6.32111">
        <ele>1125.626</ele>
        <time>2022-08-24T16:57:25Z</time>
      </trkpt>
      <trkpt lat="44.11065" lon="6.3212">
        <ele>1125.269</ele>
        <time>2022-08-24T16:57:29Z</time>
      </trkpt>
      <trkpt lat="44.11065" lon="6.3212">
        <ele>1124.885</ele>
        <time>2022-08-24T16:57:30Z</time>
      </trkpt>
      <trkpt lat="44.11064" lon="6.32123">
        <ele>1124.479</ele>
        <time>2022-08-24T16:57:31Z</time>
      </trkpt>
      <trkpt lat="44.11066" lon="6.32129">
        <ele>1121.832</ele>
        <time>2022-08-24T16:57:46Z</time>
      </trkpt>
      <trkpt lat="44.11064" lon="6.3214">
        <ele>1121.897</ele>
        <time>2022-08-24T16:57:49Z</time>
      </trkpt>
      <trkpt lat="44.11059" lon="6.3216">
        <ele>1121.423</ele>
        <time>2022-08-24T16:57:53Z</time>
      </trkpt>
      <trkpt lat="44.11058" lon="6.32173">
        <ele>1121.025</ele>
        <time>2022-08-24T16:57:55Z</time>
      </trkpt>
      <trkpt lat="44.11058" lon="6.32182">
        <ele>1120.609</ele>
        <time>2022-08-24T16:57:56Z</time>
      </trkpt>
      <trkpt lat="44.11058" lon="6.32196">
        <ele>1120.84</ele>
        <time>2022-08-24T16:57:58Z</time>
      </trkpt>
      <trkpt lat="44.11058" lon="6.32204">
        <ele>1119.48</ele>
        <time>2022-08-24T16:57:59Z</time>
      </trkpt>
      <trkpt lat="44.11058" lon="6.32217">
        <ele>1118.06</ele>
        <time>2022-08-24T16:58:01Z</time>
      </trkpt>
      <trkpt lat="44.11058" lon="6.32229">
        <ele>1116.286</ele>
        <time>2022-08-24T16:58:03Z</time>
      </trkpt>
      <trkpt lat="44.11051" lon="6.32244">
        <ele>1114.659</ele>
        <time>2022-08-24T16:58:06Z</time>
      </trkpt>
      <trkpt lat="44.11055" lon="6.32257">
        <ele>1114.042</ele>
        <time>2022-08-24T16:58:08Z</time>
      </trkpt>
      <trkpt lat="44.11068" lon="6.3227">
        <ele>1113.668</ele>
        <time>2022-08-24T16:58:12Z</time>
      </trkpt>
      <trkpt lat="44.11071" lon="6.32275">
        <ele>1113.632</ele>
        <time>2022-08-24T16:58:13Z</time>
      </trkpt>
      <trkpt lat="44.11073" lon="6.32281">
        <ele>1113.085</ele>
        <time>2022-08-24T16:58:14Z</time>
      </trkpt>
      <trkpt lat="44.11076" lon="6.32288">
        <ele>1112.678</ele>
        <time>2022-08-24T16:58:15Z</time>
      </trkpt>
      <trkpt lat="44.1108" lon="6.32292">
        <ele>1112.433</ele>
        <time>2022-08-24T16:58:16Z</time>
      </trkpt>
      <trkpt lat="44.11089" lon="6.3229">
        <ele>1112.226</ele>
        <time>2022-08-24T16:58:18Z</time>
      </trkpt>
      <trkpt lat="44.11105" lon="6.32287">
        <ele>1112.209</ele>
        <time>2022-08-24T16:58:22Z</time>
      </trkpt>
      <trkpt lat="44.11118" lon="6.32294">
        <ele>1112.268</ele>
        <time>2022-08-24T16:58:26Z</time>
      </trkpt>
      <trkpt lat="44.11124" lon="6.32299">
        <ele>1113.218</ele>
        <time>2022-08-24T16:58:29Z</time>
      </trkpt>
      <trkpt lat="44.11125" lon="6.32301">
        <ele>1113.438</ele>
        <time>2022-08-24T16:58:30Z</time>
      </trkpt>
      <trkpt lat="44.11125" lon="6.32303">
        <ele>1113.434</ele>
        <time>2022-08-24T16:58:34Z</time>
      </trkpt>
      <trkpt lat="44.11131" lon="6.32304">
        <ele>1111.297</ele>
        <time>2022-08-24T16:59:03Z</time>
      </trkpt>
      <trkpt lat="44.11141" lon="6.32313">
        <ele>1108.68</ele>
        <time>2022-08-24T16:59:06Z</time>
      </trkpt>
      <trkpt lat="44.11145" lon="6.32318">
        <ele>1107.496</ele>
        <time>2022-08-24T16:59:07Z</time>
      </trkpt>
      <trkpt lat="44.11148" lon="6.32324">
        <ele>1106.84</ele>
        <time>2022-08-24T16:59:08Z</time>
      </trkpt>
      <trkpt lat="44.11153" lon="6.32337">
        <ele>1106.433</ele>
        <time>2022-08-24T16:59:10Z</time>
      </trkpt>
      <trkpt lat="44.11156" lon="6.32343">
        <ele>1106.234</ele>
        <time>2022-08-24T16:59:11Z</time>
      </trkpt>
      <trkpt lat="44.11157" lon="6.32348">
        <ele>1106.255</ele>
        <time>2022-08-24T16:59:12Z</time>
      </trkpt>
      <trkpt lat="44.11158" lon="6.32354">
        <ele>1106.01</ele>
        <time>2022-08-24T16:59:13Z</time>
      </trkpt>
      <trkpt lat="44.11159" lon="6.32359">
        <ele>1106.009</ele>
        <time>2022-08-24T16:59:14Z</time>
      </trkpt>
      <trkpt lat="44.11162" lon="6.32363">
        <ele>1105.814</ele>
        <time>2022-08-24T16:59:15Z</time>
      </trkpt>
      <trkpt lat="44.11166" lon="6.32366">
        <ele>1105.214</ele>
        <time>2022-08-24T16:59:16Z</time>
      </trkpt>
      <trkpt lat="44.11171" lon="6.32367">
        <ele>1104.864</ele>
        <time>2022-08-24T16:59:17Z</time>
      </trkpt>
      <trkpt lat="44.11178" lon="6.32368">
        <ele>1104.45</ele>
        <time>2022-08-24T16:59:19Z</time>
      </trkpt>
      <trkpt lat="44.11179" lon="6.32369">
        <ele>1104.413</ele>
        <time>2022-08-24T16:59:20Z</time>
      </trkpt>
      <trkpt lat="44.11179" lon="6.32368">
        <ele>1104.426</ele>
        <time>2022-08-24T16:59:21Z</time>
      </trkpt>
      <trkpt lat="44.11183" lon="6.32365">
        <ele>1103.862</ele>
        <time>2022-08-24T16:59:55Z</time>
      </trkpt>
      <trkpt lat="44.11186" lon="6.32367">
        <ele>1103.826</ele>
        <time>2022-08-24T16:59:56Z</time>
      </trkpt>
      <trkpt lat="44.11196" lon="6.32374">
        <ele>1103.889</ele>
        <time>2022-08-24T17:00:02Z</time>
      </trkpt>
      <trkpt lat="44.11209" lon="6.32375">
        <ele>1104.655</ele>
        <time>2022-08-24T17:00:07Z</time>
      </trkpt>
      <trkpt lat="44.11211" lon="6.32375">
        <ele>1105.007</ele>
        <time>2022-08-24T17:00:08Z</time>
      </trkpt>
      <trkpt lat="44.11217" lon="6.32376">
        <ele>1105.417</ele>
        <time>2022-08-24T17:00:11Z</time>
      </trkpt>
      <trkpt lat="44.11231" lon="6.32375">
        <ele>1105.409</ele>
        <time>2022-08-24T17:00:16Z</time>
      </trkpt>
      <trkpt lat="44.11242" lon="6.32371">
        <ele>1105.696</ele>
        <time>2022-08-24T17:00:20Z</time>
      </trkpt>
      <trkpt lat="44.11254" lon="6.32363">
        <ele>1106.066</ele>
        <time>2022-08-24T17:00:24Z</time>
      </trkpt>
      <trkpt lat="44.11257" lon="6.32361">
        <ele>1106.076</ele>
        <time>2022-08-24T17:00:25Z</time>
      </trkpt>
      <trkpt lat="44.1126" lon="6.3236">
        <ele>1106.242</ele>
        <time>2022-08-24T17:00:26Z</time>
      </trkpt>
      <trkpt lat="44.11267" lon="6.3236">
        <ele>1106.615</ele>
        <time>2022-08-24T17:00:28Z</time>
      </trkpt>
      <trkpt lat="44.11273" lon="6.32359">
        <ele>1107.248</ele>
        <time>2022-08-24T17:00:30Z</time>
      </trkpt>
      <trkpt lat="44.11279" lon="6.32359">
        <ele>1108.484</ele>
        <time>2022-08-24T17:00:32Z</time>
      </trkpt>
      <trkpt lat="44.11286" lon="6.32352">
        <ele>1109.038</ele>
        <time>2022-08-24T17:00:36Z</time>
      </trkpt>
      <trkpt lat="44.11299" lon="6.32347">
        <ele>1109.291</ele>
        <time>2022-08-24T17:00:40Z</time>
      </trkpt>
      <trkpt lat="44.11305" lon="6.32347">
        <ele>1109.426</ele>
        <time>2022-08-24T17:00:42Z</time>
      </trkpt>
      <trkpt lat="44.11307" lon="6.32346">
        <ele>1109.447</ele>
        <time>2022-08-24T17:00:43Z</time>
      </trkpt>
      <trkpt lat="44.11317" lon="6.32336">
        <ele>1110.211</ele>
        <time>2022-08-24T17:00:47Z</time>
      </trkpt>
      <trkpt lat="44.11324" lon="6.32331">
        <ele>1110.809</ele>
        <time>2022-08-24T17:00:49Z</time>
      </trkpt>
      <trkpt lat="44.11329" lon="6.32327">
        <ele>1111.493</ele>
        <time>2022-08-24T17:00:51Z</time>
      </trkpt>
      <trkpt lat="44.11333" lon="6.32323">
        <ele>1111.873</ele>
        <time>2022-08-24T17:00:54Z</time>
      </trkpt>
      <trkpt lat="44.11338" lon="6.32318">
        <ele>1111.873</ele>
        <time>2022-08-24T17:00:56Z</time>
      </trkpt>
      <trkpt lat="44.11344" lon="6.32308">
        <ele>1111.659</ele>
        <time>2022-08-24T17:00:59Z</time>
      </trkpt>
      <trkpt lat="44.11347" lon="6.32308">
        <ele>1112.262</ele>
        <time>2022-08-24T17:01:00Z</time>
      </trkpt>
      <trkpt lat="44.11352" lon="6.32309">
        <ele>1112.845</ele>
        <time>2022-08-24T17:01:02Z</time>
      </trkpt>
      <trkpt lat="44.11364" lon="6.32307">
        <ele>1113.821</ele>
        <time>2022-08-24T17:01:06Z</time>
      </trkpt>
      <trkpt lat="44.11367" lon="6.32307">
        <ele>1114.095</ele>
        <time>2022-08-24T17:01:07Z</time>
      </trkpt>
      <trkpt lat="44.1137" lon="6.32307">
        <ele>1115.268</ele>
        <time>2022-08-24T17:01:08Z</time>
      </trkpt>
      <trkpt lat="44.11374" lon="6.32308">
        <ele>1116.258</ele>
        <time>2022-08-24T17:01:10Z</time>
      </trkpt>
      <trkpt lat="44.11375" lon="6.32308">
        <ele>1116.452</ele>
        <time>2022-08-24T17:01:11Z</time>
      </trkpt>
      <trkpt lat="44.11377" lon="6.32307">
        <ele>1116.817</ele>
        <time>2022-08-24T17:01:14Z</time>
      </trkpt>
      <trkpt lat="44.11378" lon="6.32305">
        <ele>1117.009</ele>
        <time>2022-08-24T17:01:15Z</time>
      </trkpt>
      <trkpt lat="44.11378" lon="6.32303">
        <ele>1117.236</ele>
        <time>2022-08-24T17:01:16Z</time>
      </trkpt>
      <trkpt lat="44.11378" lon="6.323">
        <ele>1117.286</ele>
        <time>2022-08-24T17:01:17Z</time>
      </trkpt>
      <trkpt lat="44.11378" lon="6.32296">
        <ele>1117.456</ele>
        <time>2022-08-24T17:01:19Z</time>
      </trkpt>
      <trkpt lat="44.11382" lon="6.32291">
        <ele>1117.822</ele>
        <time>2022-08-24T17:01:21Z</time>
      </trkpt>
      <trkpt lat="44.11386" lon="6.32288">
        <ele>1117.855</ele>
        <time>2022-08-24T17:01:22Z</time>
      </trkpt>
      <trkpt lat="44.11391" lon="6.32288">
        <ele>1117.488</ele>
        <time>2022-08-24T17:01:24Z</time>
      </trkpt>
      <trkpt lat="44.11392" lon="6.32288">
        <ele>1117.414</ele>
        <time>2022-08-24T17:01:25Z</time>
      </trkpt>
      <trkpt lat="44.11396" lon="6.3229">
        <ele>1116.678</ele>
        <time>2022-08-24T17:01:27Z</time>
      </trkpt>
      <trkpt lat="44.11398" lon="6.32292">
        <ele>1116.221</ele>
        <time>2022-08-24T17:01:28Z</time>
      </trkpt>
      <trkpt lat="44.11399" lon="6.32294">
        <ele>1116.092</ele>
        <time>2022-08-24T17:01:29Z</time>
      </trkpt>
      <trkpt lat="44.114" lon="6.32298">
        <ele>1115.073</ele>
        <time>2022-08-24T17:01:32Z</time>
      </trkpt>
      <trkpt lat="44.11401" lon="6.32307">
        <ele>1113.42</ele>
        <time>2022-08-24T17:01:36Z</time>
      </trkpt>
      <trkpt lat="44.11401" lon="6.3231">
        <ele>1112.809</ele>
        <time>2022-08-24T17:01:38Z</time>
      </trkpt>
      <trkpt lat="44.11401" lon="6.32312">
        <ele>1112.45</ele>
        <time>2022-08-24T17:01:40Z</time>
      </trkpt>
      <trkpt lat="44.114" lon="6.32318">
        <ele>1111.43</ele>
        <time>2022-08-24T17:01:49Z</time>
      </trkpt>
      <trkpt lat="44.11395" lon="6.32338">
        <ele>1108.46</ele>
        <time>2022-08-24T17:01:53Z</time>
      </trkpt>
      <trkpt lat="44.11393" lon="6.32343">
        <ele>1107.096</ele>
        <time>2022-08-24T17:01:54Z</time>
      </trkpt>
      <trkpt lat="44.11391" lon="6.32348">
        <ele>1104.689</ele>
        <time>2022-08-24T17:01:55Z</time>
      </trkpt>
      <trkpt lat="44.11391" lon="6.32354">
        <ele>1103.222</ele>
        <time>2022-08-24T17:01:56Z</time>
      </trkpt>
      <trkpt lat="44.11391" lon="6.32359">
        <ele>1102.498</ele>
        <time>2022-08-24T17:01:57Z</time>
      </trkpt>
      <trkpt lat="44.11394" lon="6.32365">
        <ele>1102.092</ele>
        <time>2022-08-24T17:01:58Z</time>
      </trkpt>
      <trkpt lat="44.11397" lon="6.32372">
        <ele>1101.045</ele>
        <time>2022-08-24T17:01:59Z</time>
      </trkpt>
      <trkpt lat="44.11402" lon="6.32379">
        <ele>1100.235</ele>
        <time>2022-08-24T17:02:00Z</time>
      </trkpt>
      <trkpt lat="44.11407" lon="6.32384">
        <ele>1099.686</ele>
        <time>2022-08-24T17:02:02Z</time>
      </trkpt>
      <trkpt lat="44.11414" lon="6.3239">
        <ele>1098.614</ele>
        <time>2022-08-24T17:02:05Z</time>
      </trkpt>
      <trkpt lat="44.11421" lon="6.32393">
        <ele>1097.809</ele>
        <time>2022-08-24T17:02:06Z</time>
      </trkpt>
      <trkpt lat="44.11426" lon="6.32398">
        <ele>1097.454</ele>
        <time>2022-08-24T17:02:07Z</time>
      </trkpt>
      <trkpt lat="44.11432" lon="6.32407">
        <ele>1095.654</ele>
        <time>2022-08-24T17:02:09Z</time>
      </trkpt>
      <trkpt lat="44.11435" lon="6.32411">
        <ele>1094.244</ele>
        <time>2022-08-24T17:02:10Z</time>
      </trkpt>
      <trkpt lat="44.11439" lon="6.32413">
        <ele>1093.04</ele>
        <time>2022-08-24T17:02:11Z</time>
      </trkpt>
      <trkpt lat="44.11442" lon="6.32416">
        <ele>1093.033</ele>
        <time>2022-08-24T17:02:12Z</time>
      </trkpt>
      <trkpt lat="44.11444" lon="6.32419">
        <ele>1093.036</ele>
        <time>2022-08-24T17:02:13Z</time>
      </trkpt>
      <trkpt lat="44.11449" lon="6.32425">
        <ele>1092.052</ele>
        <time>2022-08-24T17:02:15Z</time>
      </trkpt>
      <trkpt lat="44.11461" lon="6.32432">
        <ele>1091.446</ele>
        <time>2022-08-24T17:02:19Z</time>
      </trkpt>
      <trkpt lat="44.11473" lon="6.32435">
        <ele>1091.029</ele>
        <time>2022-08-24T17:02:23Z</time>
      </trkpt>
      <trkpt lat="44.11475" lon="6.32435">
        <ele>1090.846</ele>
        <time>2022-08-24T17:02:24Z</time>
      </trkpt>
      <trkpt lat="44.11476" lon="6.32435">
        <ele>1090.688</ele>
        <time>2022-08-24T17:02:26Z</time>
      </trkpt>
      <trkpt lat="44.11477" lon="6.32439">
        <ele>1090.216</ele>
        <time>2022-08-24T17:02:35Z</time>
      </trkpt>
      <trkpt lat="44.11479" lon="6.32448">
        <ele>1088.609</ele>
        <time>2022-08-24T17:02:39Z</time>
      </trkpt>
      <trkpt lat="44.11481" lon="6.32449">
        <ele>1087.875</ele>
        <time>2022-08-24T17:02:41Z</time>
      </trkpt>
      <trkpt lat="44.11483" lon="6.32448">
        <ele>1087.295</ele>
        <time>2022-08-24T17:02:42Z</time>
      </trkpt>
      <trkpt lat="44.11485" lon="6.32445">
        <ele>1086.285</ele>
        <time>2022-08-24T17:02:43Z</time>
      </trkpt>
      <trkpt lat="44.11489" lon="6.32438">
        <ele>1084.421</ele>
        <time>2022-08-24T17:02:45Z</time>
      </trkpt>
      <trkpt lat="44.11492" lon="6.32434">
        <ele>1083.094</ele>
        <time>2022-08-24T17:02:47Z</time>
      </trkpt>
      <trkpt lat="44.11494" lon="6.32436">
        <ele>1082.667</ele>
        <time>2022-08-24T17:02:48Z</time>
      </trkpt>
      <trkpt lat="44.11498" lon="6.32444">
        <ele>1081.253</ele>
        <time>2022-08-24T17:02:50Z</time>
      </trkpt>
      <trkpt lat="44.115" lon="6.3245">
        <ele>1078.637</ele>
        <time>2022-08-24T17:02:52Z</time>
      </trkpt>
      <trkpt lat="44.115" lon="6.32451">
        <ele>1077.41</ele>
        <time>2022-08-24T17:02:53Z</time>
      </trkpt>
      <trkpt lat="44.11501" lon="6.32452">
        <ele>1076.465</ele>
        <time>2022-08-24T17:02:55Z</time>
      </trkpt>
      <trkpt lat="44.11502" lon="6.32452">
        <ele>1076.268</ele>
        <time>2022-08-24T17:02:56Z</time>
      </trkpt>
      <trkpt lat="44.11508" lon="6.3245">
        <ele>1075.014</ele>
        <time>2022-08-24T17:02:58Z</time>
      </trkpt>
      <trkpt lat="44.11512" lon="6.32451">
        <ele>1073.409</ele>
        <time>2022-08-24T17:02:59Z</time>
      </trkpt>
      <trkpt lat="44.11515" lon="6.32452">
        <ele>1072.217</ele>
        <time>2022-08-24T17:03:00Z</time>
      </trkpt>
      <trkpt lat="44.11516" lon="6.32453">
        <ele>1071.077</ele>
        <time>2022-08-24T17:03:02Z</time>
      </trkpt>
      <trkpt lat="44.11523" lon="6.3245">
        <ele>1069.467</ele>
        <time>2022-08-24T17:03:08Z</time>
      </trkpt>
      <trkpt lat="44.11532" lon="6.32443">
        <ele>1068.463</ele>
        <time>2022-08-24T17:03:09Z</time>
      </trkpt>
      <trkpt lat="44.11538" lon="6.32439">
        <ele>1066.836</ele>
        <time>2022-08-24T17:03:11Z</time>
      </trkpt>
      <trkpt lat="44.11543" lon="6.32435">
        <ele>1066.679</ele>
        <time>2022-08-24T17:03:12Z</time>
      </trkpt>
      <trkpt lat="44.11549" lon="6.32434">
        <ele>1067.035</ele>
        <time>2022-08-24T17:03:13Z</time>
      </trkpt>
      <trkpt lat="44.1156" lon="6.32433">
        <ele>1067.459</ele>
        <time>2022-08-24T17:03:17Z</time>
      </trkpt>
      <trkpt lat="44.11563" lon="6.32432">
        <ele>1067.482</ele>
        <time>2022-08-24T17:03:18Z</time>
      </trkpt>
      <trkpt lat="44.11565" lon="6.32429">
        <ele>1066.853</ele>
        <time>2022-08-24T17:03:19Z</time>
      </trkpt>
      <trkpt lat="44.11567" lon="6.32425">
        <ele>1066.204</ele>
        <time>2022-08-24T17:03:20Z</time>
      </trkpt>
      <trkpt lat="44.1157" lon="6.32419">
        <ele>1064.214</ele>
        <time>2022-08-24T17:03:21Z</time>
      </trkpt>
      <trkpt lat="44.11572" lon="6.32412">
        <ele>1062.809</ele>
        <time>2022-08-24T17:03:22Z</time>
      </trkpt>
      <trkpt lat="44.11575" lon="6.32406">
        <ele>1062.056</ele>
        <time>2022-08-24T17:03:23Z</time>
      </trkpt>
      <trkpt lat="44.11577" lon="6.32401">
        <ele>1060.666</ele>
        <time>2022-08-24T17:03:24Z</time>
      </trkpt>
      <trkpt lat="44.1158" lon="6.32397">
        <ele>1058.476</ele>
        <time>2022-08-24T17:03:25Z</time>
      </trkpt>
      <trkpt lat="44.11585" lon="6.32393">
        <ele>1057.412</ele>
        <time>2022-08-24T17:03:26Z</time>
      </trkpt>
      <trkpt lat="44.11589" lon="6.32391">
        <ele>1056.655</ele>
        <time>2022-08-24T17:03:27Z</time>
      </trkpt>
      <trkpt lat="44.11592" lon="6.32392">
        <ele>1056.268</ele>
        <time>2022-08-24T17:03:28Z</time>
      </trkpt>
      <trkpt lat="44.11604" lon="6.32397">
        <ele>1054.054</ele>
        <time>2022-08-24T17:03:31Z</time>
      </trkpt>
      <trkpt lat="44.11611" lon="6.32399">
        <ele>1052.228</ele>
        <time>2022-08-24T17:03:32Z</time>
      </trkpt>
      <trkpt lat="44.11617" lon="6.324">
        <ele>1051.251</ele>
        <time>2022-08-24T17:03:33Z</time>
      </trkpt>
      <trkpt lat="44.11622" lon="6.32401">
        <ele>1050.849</ele>
        <time>2022-08-24T17:03:34Z</time>
      </trkpt>
      <trkpt lat="44.11635" lon="6.32397">
        <ele>1050.402</ele>
        <time>2022-08-24T17:03:38Z</time>
      </trkpt>
      <trkpt lat="44.1164" lon="6.32391">
        <ele>1049.822</ele>
        <time>2022-08-24T17:03:39Z</time>
      </trkpt>
      <trkpt lat="44.11647" lon="6.32383">
        <ele>1049.009</ele>
        <time>2022-08-24T17:03:41Z</time>
      </trkpt>
      <trkpt lat="44.11659" lon="6.32367">
        <ele>1048.685</ele>
        <time>2022-08-24T17:03:44Z</time>
      </trkpt>
      <trkpt lat="44.11668" lon="6.3236">
        <ele>1048.025</ele>
        <time>2022-08-24T17:03:46Z</time>
      </trkpt>
      <trkpt lat="44.11679" lon="6.32356">
        <ele>1047.835</ele>
        <time>2022-08-24T17:03:48Z</time>
      </trkpt>
      <trkpt lat="44.1169" lon="6.32349">
        <ele>1047.621</ele>
        <time>2022-08-24T17:03:50Z</time>
      </trkpt>
      <trkpt lat="44.11716" lon="6.32335">
        <ele>1046.264</ele>
        <time>2022-08-24T17:03:54Z</time>
      </trkpt>
      <trkpt lat="44.11732" lon="6.32328">
        <ele>1045.047</ele>
        <time>2022-08-24T17:03:56Z</time>
      </trkpt>
      <trkpt lat="44.11741" lon="6.32326">
        <ele>1044.033</ele>
        <time>2022-08-24T17:03:57Z</time>
      </trkpt>
      <trkpt lat="44.11748" lon="6.32324">
        <ele>1042.617</ele>
        <time>2022-08-24T17:03:58Z</time>
      </trkpt>
      <trkpt lat="44.11762" lon="6.32324">
        <ele>1042.49</ele>
        <time>2022-08-24T17:04:00Z</time>
      </trkpt>
      <trkpt lat="44.11768" lon="6.32324">
        <ele>1042.897</ele>
        <time>2022-08-24T17:04:01Z</time>
      </trkpt>
      <trkpt lat="44.11771" lon="6.3232">
        <ele>1042.423</ele>
        <time>2022-08-24T17:04:02Z</time>
      </trkpt>
      <trkpt lat="44.11777" lon="6.32308">
        <ele>1042.625</ele>
        <time>2022-08-24T17:04:04Z</time>
      </trkpt>
      <trkpt lat="44.1178" lon="6.32303">
        <ele>1042.809</ele>
        <time>2022-08-24T17:04:05Z</time>
      </trkpt>
      <trkpt lat="44.11782" lon="6.32302">
        <ele>1042.89</ele>
        <time>2022-08-24T17:04:06Z</time>
      </trkpt>
      <trkpt lat="44.11785" lon="6.32304">
        <ele>1042.65</ele>
        <time>2022-08-24T17:04:07Z</time>
      </trkpt>
      <trkpt lat="44.11786" lon="6.32307">
        <ele>1042.67</ele>
        <time>2022-08-24T17:04:08Z</time>
      </trkpt>
      <trkpt lat="44.11788" lon="6.32311">
        <ele>1042.476</ele>
        <time>2022-08-24T17:04:10Z</time>
      </trkpt>
      <trkpt lat="44.11787" lon="6.32311">
        <ele>1042.419</ele>
        <time>2022-08-24T17:04:12Z</time>
      </trkpt>
      <trkpt lat="44.1179" lon="6.32306">
        <ele>1038.252</ele>
        <time>2022-08-24T17:04:56Z</time>
      </trkpt>
      <trkpt lat="44.11803" lon="6.32293">
        <ele>1036.228</ele>
        <time>2022-08-24T17:04:57Z</time>
      </trkpt>
      <trkpt lat="44.11817" lon="6.32285">
        <ele>1034.672</ele>
        <time>2022-08-24T17:05:00Z</time>
      </trkpt>
      <trkpt lat="44.11821" lon="6.32281">
        <ele>1034.435</ele>
        <time>2022-08-24T17:05:01Z</time>
      </trkpt>
      <trkpt lat="44.11825" lon="6.32275">
        <ele>1034.213</ele>
        <time>2022-08-24T17:05:02Z</time>
      </trkpt>
      <trkpt lat="44.11831" lon="6.32261">
        <ele>1034.243</ele>
        <time>2022-08-24T17:05:04Z</time>
      </trkpt>
      <trkpt lat="44.11834" lon="6.32256">
        <ele>1033.807</ele>
        <time>2022-08-24T17:05:05Z</time>
      </trkpt>
      <trkpt lat="44.11841" lon="6.32245">
        <ele>1033.409</ele>
        <time>2022-08-24T17:05:07Z</time>
      </trkpt>
      <trkpt lat="44.11848" lon="6.32233">
        <ele>1033.862</ele>
        <time>2022-08-24T17:05:09Z</time>
      </trkpt>
      <trkpt lat="44.11856" lon="6.32226">
        <ele>1034.482</ele>
        <time>2022-08-24T17:05:11Z</time>
      </trkpt>
      <trkpt lat="44.11865" lon="6.3222">
        <ele>1034.682</ele>
        <time>2022-08-24T17:05:13Z</time>
      </trkpt>
      <trkpt lat="44.11871" lon="6.32215">
        <ele>1035.288</ele>
        <time>2022-08-24T17:05:15Z</time>
      </trkpt>
      <trkpt lat="44.11876" lon="6.32211">
        <ele>1036.461</ele>
        <time>2022-08-24T17:05:17Z</time>
      </trkpt>
      <trkpt lat="44.11881" lon="6.32209">
        <ele>1037.884</ele>
        <time>2022-08-24T17:05:19Z</time>
      </trkpt>
      <trkpt lat="44.11883" lon="6.32207">
        <ele>1038.64</ele>
        <time>2022-08-24T17:05:21Z</time>
      </trkpt>
      <trkpt lat="44.11885" lon="6.32206">
        <ele>1039.214</ele>
        <time>2022-08-24T17:05:22Z</time>
      </trkpt>
      <trkpt lat="44.11892" lon="6.32201">
        <ele>1040.297</ele>
        <time>2022-08-24T17:05:24Z</time>
      </trkpt>
      <trkpt lat="44.11895" lon="6.32196">
        <ele>1040.224</ele>
        <time>2022-08-24T17:05:25Z</time>
      </trkpt>
      <trkpt lat="44.11894" lon="6.32193">
        <ele>1040.204</ele>
        <time>2022-08-24T17:05:26Z</time>
      </trkpt>
      <trkpt lat="44.11885" lon="6.3218">
        <ele>1040.814</ele>
        <time>2022-08-24T17:05:31Z</time>
      </trkpt>
      <trkpt lat="44.11874" lon="6.32165">
        <ele>1040.009</ele>
        <time>2022-08-24T17:05:36Z</time>
      </trkpt>
      <trkpt lat="44.1187" lon="6.3215">
        <ele>1039.693</ele>
        <time>2022-08-24T17:05:39Z</time>
      </trkpt>
      <trkpt lat="44.11868" lon="6.3214">
        <ele>1040.253</ele>
        <time>2022-08-24T17:05:42Z</time>
      </trkpt>
      <trkpt lat="44.1187" lon="6.32138">
        <ele>1040.653</ele>
        <time>2022-08-24T17:05:43Z</time>
      </trkpt>
      <trkpt lat="44.11871" lon="6.32137">
        <ele>1040.879</ele>
        <time>2022-08-24T17:05:44Z</time>
      </trkpt>
      <trkpt lat="44.11872" lon="6.32137">
        <ele>1040.682</ele>
        <time>2022-08-24T17:05:47Z</time>
      </trkpt>
      <trkpt lat="44.11875" lon="6.32134">
        <ele>1038.215</ele>
        <time>2022-08-24T17:06:42Z</time>
      </trkpt>
      <trkpt lat="44.1188" lon="6.3213">
        <ele>1037.861</ele>
        <time>2022-08-24T17:06:44Z</time>
      </trkpt>
      <trkpt lat="44.11882" lon="6.3213">
        <ele>1037.495</ele>
        <time>2022-08-24T17:06:45Z</time>
      </trkpt>
      <trkpt lat="44.11884" lon="6.32131">
        <ele>1037.238</ele>
        <time>2022-08-24T17:06:46Z</time>
      </trkpt>
      <trkpt lat="44.11885" lon="6.32133">
        <ele>1037.294</ele>
        <time>2022-08-24T17:06:47Z</time>
      </trkpt>
      <trkpt lat="44.11886" lon="6.32136">
        <ele>1037.057</ele>
        <time>2022-08-24T17:06:48Z</time>
      </trkpt>
      <trkpt lat="44.11887" lon="6.32138">
        <ele>1036.822</ele>
        <time>2022-08-24T17:06:49Z</time>
      </trkpt>
      <trkpt lat="44.11888" lon="6.3214">
        <ele>1036.609</ele>
        <time>2022-08-24T17:06:50Z</time>
      </trkpt>
      <trkpt lat="44.11889" lon="6.3214">
        <ele>1035.87</ele>
        <time>2022-08-24T17:06:51Z</time>
      </trkpt>
      <trkpt lat="44.11891" lon="6.32138">
        <ele>1034.84</ele>
        <time>2022-08-24T17:06:52Z</time>
      </trkpt>
      <trkpt lat="44.11895" lon="6.32136">
        <ele>1034.02</ele>
        <time>2022-08-24T17:06:53Z</time>
      </trkpt>
      <trkpt lat="44.119" lon="6.32134">
        <ele>1032.686</ele>
        <time>2022-08-24T17:06:54Z</time>
      </trkpt>
      <trkpt lat="44.11905" lon="6.32132">
        <ele>1030.859</ele>
        <time>2022-08-24T17:06:55Z</time>
      </trkpt>
      <trkpt lat="44.11911" lon="6.32131">
        <ele>1029.252</ele>
        <time>2022-08-24T17:06:56Z</time>
      </trkpt>
      <trkpt lat="44.11916" lon="6.32131">
        <ele>1028.238</ele>
        <time>2022-08-24T17:06:57Z</time>
      </trkpt>
      <trkpt lat="44.11919" lon="6.32131">
        <ele>1027.242</ele>
        <time>2022-08-24T17:06:58Z</time>
      </trkpt>
      <trkpt lat="44.11923" lon="6.3213">
        <ele>1026.455</ele>
        <time>2022-08-24T17:06:59Z</time>
      </trkpt>
      <trkpt lat="44.11927" lon="6.32126">
        <ele>1024.448</ele>
        <time>2022-08-24T17:07:01Z</time>
      </trkpt>
      <trkpt lat="44.11926" lon="6.32123">
        <ele>1023.261</ele>
        <time>2022-08-24T17:07:02Z</time>
      </trkpt>
      <trkpt lat="44.11923" lon="6.32118">
        <ele>1021.217</ele>
        <time>2022-08-24T17:07:04Z</time>
      </trkpt>
      <trkpt lat="44.11913" lon="6.32112">
        <ele>1020.209</ele>
        <time>2022-08-24T17:07:06Z</time>
      </trkpt>
      <trkpt lat="44.11908" lon="6.32108">
        <ele>1019.445</ele>
        <time>2022-08-24T17:07:07Z</time>
      </trkpt>
      <trkpt lat="44.11905" lon="6.32104">
        <ele>1018.465</ele>
        <time>2022-08-24T17:07:08Z</time>
      </trkpt>
      <trkpt lat="44.11902" lon="6.32093">
        <ele>1017.265</ele>
        <time>2022-08-24T17:07:10Z</time>
      </trkpt>
      <trkpt lat="44.11903" lon="6.32075">
        <ele>1017.651</ele>
        <time>2022-08-24T17:07:14Z</time>
      </trkpt>
      <trkpt lat="44.11902" lon="6.32072">
        <ele>1018.044</ele>
        <time>2022-08-24T17:07:15Z</time>
      </trkpt>
      <trkpt lat="44.119" lon="6.32069">
        <ele>1018.257</ele>
        <time>2022-08-24T17:07:17Z</time>
      </trkpt>
      <trkpt lat="44.11898" lon="6.32067">
        <ele>1018.453</ele>
        <time>2022-08-24T17:07:18Z</time>
      </trkpt>
      <trkpt lat="44.1189" lon="6.32064">
        <ele>1018.097</ele>
        <time>2022-08-24T17:07:22Z</time>
      </trkpt>
      <trkpt lat="44.11887" lon="6.32053">
        <ele>1018.23</ele>
        <time>2022-08-24T17:07:25Z</time>
      </trkpt>
      <trkpt lat="44.11886" lon="6.32049">
        <ele>1018.427</ele>
        <time>2022-08-24T17:07:26Z</time>
      </trkpt>
      <trkpt lat="44.11883" lon="6.32043">
        <ele>1019.668</ele>
        <time>2022-08-24T17:07:28Z</time>
      </trkpt>
      <trkpt lat="44.11882" lon="6.32041">
        <ele>1020.014</ele>
        <time>2022-08-24T17:07:29Z</time>
      </trkpt>
      <trkpt lat="44.11881" lon="6.32035">
        <ele>1020.809</ele>
        <time>2022-08-24T17:07:32Z</time>
      </trkpt>
      <trkpt lat="44.1188" lon="6.32033">
        <ele>1020.643</ele>
        <time>2022-08-24T17:07:33Z</time>
      </trkpt>
      <trkpt lat="44.11878" lon="6.32031">
        <ele>1020.663</ele>
        <time>2022-08-24T17:07:34Z</time>
      </trkpt>
      <trkpt lat="44.11876" lon="6.32028">
        <ele>1020.863</ele>
        <time>2022-08-24T17:07:36Z</time>
      </trkpt>
      <trkpt lat="44.11875" lon="6.32027">
        <ele>1021.069</ele>
        <time>2022-08-24T17:07:37Z</time>
      </trkpt>
      <trkpt lat="44.11875" lon="6.32027">
        <ele>1020.662</ele>
        <time>2022-08-24T17:07:39Z</time>
      </trkpt>
      <trkpt lat="44.11875" lon="6.3203">
        <ele>1020.295</ele>
        <time>2022-08-24T17:08:01Z</time>
      </trkpt>
      <trkpt lat="44.11877" lon="6.32032">
        <ele>1020.291</ele>
        <time>2022-08-24T17:08:02Z</time>
      </trkpt>
      <trkpt lat="44.1188" lon="6.32035">
        <ele>1020.225</ele>
        <time>2022-08-24T17:08:07Z</time>
      </trkpt>
      <trkpt lat="44.11883" lon="6.32039">
        <ele>1020.438</ele>
        <time>2022-08-24T17:08:19Z</time>
      </trkpt>
      <trkpt lat="44.11885" lon="6.32045">
        <ele>1020.022</ele>
        <time>2022-08-24T17:08:21Z</time>
      </trkpt>
      <trkpt lat="44.11886" lon="6.32048">
        <ele>1019.662</ele>
        <time>2022-08-24T17:08:22Z</time>
      </trkpt>
      <trkpt lat="44.11892" lon="6.32057">
        <ele>1018.808</ele>
        <time>2022-08-24T17:08:25Z</time>
      </trkpt>
      <trkpt lat="44.11896" lon="6.32061">
        <ele>1018.409</ele>
        <time>2022-08-24T17:08:26Z</time>
      </trkpt>
      <trkpt lat="44.11904" lon="6.3207">
        <ele>1018.073</ele>
        <time>2022-08-24T17:08:28Z</time>
      </trkpt>
      <trkpt lat="44.11908" lon="6.32075">
        <ele>1017.253</ele>
        <time>2022-08-24T17:08:30Z</time>
      </trkpt>
      <trkpt lat="44.11909" lon="6.32076">
        <ele>1017.083</ele>
        <time>2022-08-24T17:08:31Z</time>
      </trkpt>
      <trkpt lat="44.11909" lon="6.32076">
        <ele>1016.829</ele>
        <time>2022-08-24T17:08:32Z</time>
      </trkpt>
      <trkpt lat="44.11912" lon="6.32072">
        <ele>1014.692</ele>
        <time>2022-08-24T17:09:24Z</time>
      </trkpt>
      <trkpt lat="44.11915" lon="6.32068">
        <ele>1013.825</ele>
        <time>2022-08-24T17:09:25Z</time>
      </trkpt>
      <trkpt lat="44.11918" lon="6.32065">
        <ele>1013.271</ele>
        <time>2022-08-24T17:09:26Z</time>
      </trkpt>
      <trkpt lat="44.11923" lon="6.32064">
        <ele>1013.035</ele>
        <time>2022-08-24T17:09:27Z</time>
      </trkpt>
      <trkpt lat="44.11929" lon="6.32065">
        <ele>1012.678</ele>
        <time>2022-08-24T17:09:28Z</time>
      </trkpt>
      <trkpt lat="44.11936" lon="6.32066">
        <ele>1012.211</ele>
        <time>2022-08-24T17:09:29Z</time>
      </trkpt>
      <trkpt lat="44.11947" lon="6.32075">
        <ele>1009.821</ele>
        <time>2022-08-24T17:09:31Z</time>
      </trkpt>
      <trkpt lat="44.11953" lon="6.32078">
        <ele>1008.603</ele>
        <time>2022-08-24T17:09:32Z</time>
      </trkpt>
      <trkpt lat="44.11965" lon="6.32084">
        <ele>1007.809</ele>
        <time>2022-08-24T17:09:34Z</time>
      </trkpt>
      <trkpt lat="44.11974" lon="6.32093">
        <ele>1007.422</ele>
        <time>2022-08-24T17:09:36Z</time>
      </trkpt>
      <trkpt lat="44.1198" lon="6.321">
        <ele>1007.042</ele>
        <time>2022-08-24T17:09:38Z</time>
      </trkpt>
      <trkpt lat="44.11993" lon="6.32109">
        <ele>1007.052</ele>
        <time>2022-08-24T17:09:42Z</time>
      </trkpt>
      <trkpt lat="44.12004" lon="6.32109">
        <ele>1008.698</ele>
        <time>2022-08-24T17:09:46Z</time>
      </trkpt>
      <trkpt lat="44.12006" lon="6.32109">
        <ele>1009.291</ele>
        <time>2022-08-24T17:09:47Z</time>
      </trkpt>
      <trkpt lat="44.12008" lon="6.32108">
        <ele>1009.894</ele>
        <time>2022-08-24T17:09:48Z</time>
      </trkpt>
      <trkpt lat="44.12013" lon="6.32108">
        <ele>1010.23</ele>
        <time>2022-08-24T17:09:50Z</time>
      </trkpt>
      <trkpt lat="44.12018" lon="6.32109">
        <ele>1010.274</ele>
        <time>2022-08-24T17:09:52Z</time>
      </trkpt>
      <trkpt lat="44.12023" lon="6.32112">
        <ele>1009.447</ele>
        <time>2022-08-24T17:09:56Z</time>
      </trkpt>
      <trkpt lat="44.12025" lon="6.3212">
        <ele>1008.486</ele>
        <time>2022-08-24T17:10:12Z</time>
      </trkpt>
      <trkpt lat="44.12027" lon="6.32126">
        <ele>1008.46</ele>
        <time>2022-08-24T17:10:13Z</time>
      </trkpt>
      <trkpt lat="44.12029" lon="6.32131">
        <ele>1007.826</ele>
        <time>2022-08-24T17:10:14Z</time>
      </trkpt>
      <trkpt lat="44.12032" lon="6.32136">
        <ele>1007.409</ele>
        <time>2022-08-24T17:10:15Z</time>
      </trkpt>
      <trkpt lat="44.12035" lon="6.32141">
        <ele>1006.249</ele>
        <time>2022-08-24T17:10:17Z</time>
      </trkpt>
      <trkpt lat="44.12038" lon="6.32144">
        <ele>1004.859</ele>
        <time>2022-08-24T17:10:18Z</time>
      </trkpt>
      <trkpt lat="44.12041" lon="6.32146">
        <ele>1003.849</ele>
        <time>2022-08-24T17:10:19Z</time>
      </trkpt>
      <trkpt lat="44.12049" lon="6.32149">
        <ele>1002.295</ele>
        <time>2022-08-24T17:10:21Z</time>
      </trkpt>
      <trkpt lat="44.12054" lon="6.32152">
        <ele>1000.628</ele>
        <time>2022-08-24T17:10:22Z</time>
      </trkpt>
      <trkpt lat="44.12067" lon="6.32162">
        <ele>998.641</ele>
        <time>2022-08-24T17:10:24Z</time>
      </trkpt>
      <trkpt lat="44.12074" lon="6.32168">
        <ele>995.667</ele>
        <time>2022-08-24T17:10:25Z</time>
      </trkpt>
      <trkpt lat="44.12079" lon="6.32172">
        <ele>994.061</ele>
        <time>2022-08-24T17:10:26Z</time>
      </trkpt>
      <trkpt lat="44.12084" lon="6.32174">
        <ele>993.244</ele>
        <time>2022-08-24T17:10:27Z</time>
      </trkpt>
      <trkpt lat="44.1209" lon="6.32173">
        <ele>993.089</ele>
        <time>2022-08-24T17:10:28Z</time>
      </trkpt>
      <trkpt lat="44.12099" lon="6.32175">
        <ele>993.206</ele>
        <time>2022-08-24T17:10:30Z</time>
      </trkpt>
      <trkpt lat="44.12116" lon="6.32182">
        <ele>993.426</ele>
        <time>2022-08-24T17:10:34Z</time>
      </trkpt>
      <trkpt lat="44.12128" lon="6.32186">
        <ele>994.209</ele>
        <time>2022-08-24T17:10:37Z</time>
      </trkpt>
      <trkpt lat="44.12132" lon="6.32186">
        <ele>994.479</ele>
        <time>2022-08-24T17:10:38Z</time>
      </trkpt>
      <trkpt lat="44.12136" lon="6.32187">
        <ele>994.869</ele>
        <time>2022-08-24T17:10:40Z</time>
      </trkpt>
      <trkpt lat="44.12137" lon="6.32189">
        <ele>994.859</ele>
        <time>2022-08-24T17:10:41Z</time>
      </trkpt>
      <trkpt lat="44.12141" lon="6.32194">
        <ele>995.065</ele>
        <time>2022-08-24T17:10:46Z</time>
      </trkpt>
      <trkpt lat="44.12142" lon="6.32199">
        <ele>994.088</ele>
        <time>2022-08-24T17:11:13Z</time>
      </trkpt>
      <trkpt lat="44.12143" lon="6.32203">
        <ele>994.041</ele>
        <time>2022-08-24T17:11:14Z</time>
      </trkpt>
      <trkpt lat="44.12146" lon="6.32211">
        <ele>993.857</ele>
        <time>2022-08-24T17:11:18Z</time>
      </trkpt>
      <trkpt lat="44.12145" lon="6.32211">
        <ele>993.821</ele>
        <time>2022-08-24T17:11:19Z</time>
      </trkpt>
      <trkpt lat="44.12144" lon="6.32215">
        <ele>993.424</ele>
        <time>2022-08-24T17:11:55Z</time>
      </trkpt>
      <trkpt lat="44.12144" lon="6.32216">
        <ele>993.236</ele>
        <time>2022-08-24T17:11:56Z</time>
      </trkpt>
      <trkpt lat="44.12144" lon="6.32216">
        <ele>993.217</ele>
        <time>2022-08-24T17:11:57Z</time>
      </trkpt>
      <trkpt lat="44.12144" lon="6.32216">
        <ele>993.018</ele>
        <time>2022-08-24T17:11:58Z</time>
      </trkpt>
      <trkpt lat="44.12141" lon="6.3222">
        <ele>992.209</ele>
        <time>2022-08-24T17:14:38Z</time>
      </trkpt>
      <trkpt lat="44.1214" lon="6.32223">
        <ele>992.054</ele>
        <time>2022-08-24T17:14:39Z</time>
      </trkpt>
      <trkpt lat="44.12138" lon="6.32226">
        <ele>991.874</ele>
        <time>2022-08-24T17:14:40Z</time>
      </trkpt>
      <trkpt lat="44.12133" lon="6.32234">
        <ele>991.234</ele>
        <time>2022-08-24T17:14:42Z</time>
      </trkpt>
      <trkpt lat="44.1213" lon="6.32237">
        <ele>989.89</ele>
        <time>2022-08-24T17:14:43Z</time>
      </trkpt>
      <trkpt lat="44.12127" lon="6.32238">
        <ele>989.023</ele>
        <time>2022-08-24T17:14:44Z</time>
      </trkpt>
      <trkpt lat="44.12125" lon="6.32236">
        <ele>988.466</ele>
        <time>2022-08-24T17:14:45Z</time>
      </trkpt>
      <trkpt lat="44.12124" lon="6.32232">
        <ele>988.232</ele>
        <time>2022-08-24T17:14:46Z</time>
      </trkpt>
      <trkpt lat="44.12123" lon="6.32228">
        <ele>988.246</ele>
        <time>2022-08-24T17:14:47Z</time>
      </trkpt>
      <trkpt lat="44.12121" lon="6.32226">
        <ele>988.039</ele>
        <time>2022-08-24T17:14:48Z</time>
      </trkpt>
      <trkpt lat="44.12118" lon="6.32227">
        <ele>988.616</ele>
        <time>2022-08-24T17:14:50Z</time>
      </trkpt>
      <trkpt lat="44.12113" lon="6.32236">
        <ele>988.676</ele>
        <time>2022-08-24T17:14:54Z</time>
      </trkpt>
      <trkpt lat="44.12114" lon="6.32235">
        <ele>988.413</ele>
        <time>2022-08-24T17:14:55Z</time>
      </trkpt>
      <trkpt lat="44.12104" lon="6.32244">
        <ele>986.009</ele>
        <time>2022-08-24T17:16:26Z</time>
      </trkpt>
      <trkpt lat="44.12102" lon="6.32245">
        <ele>986.082</ele>
        <time>2022-08-24T17:16:27Z</time>
      </trkpt>
      <trkpt lat="44.12096" lon="6.32248">
        <ele>984.672</ele>
        <time>2022-08-24T17:16:30Z</time>
      </trkpt>
      <trkpt lat="44.12095" lon="6.3225">
        <ele>984.072</ele>
        <time>2022-08-24T17:16:31Z</time>
      </trkpt>
      <trkpt lat="44.12095" lon="6.32253">
        <ele>983.038</ele>
        <time>2022-08-24T17:16:32Z</time>
      </trkpt>
      <trkpt lat="44.12094" lon="6.32263">
        <ele>981.231</ele>
        <time>2022-08-24T17:16:34Z</time>
      </trkpt>
      <trkpt lat="44.12093" lon="6.32268">
        <ele>978.454</ele>
        <time>2022-08-24T17:16:35Z</time>
      </trkpt>
      <trkpt lat="44.12093" lon="6.32273">
        <ele>976.88</ele>
        <time>2022-08-24T17:16:36Z</time>
      </trkpt>
      <trkpt lat="44.12093" lon="6.32276">
        <ele>975.674</ele>
        <time>2022-08-24T17:16:37Z</time>
      </trkpt>
      <trkpt lat="44.12093" lon="6.32278">
        <ele>974.437</ele>
        <time>2022-08-24T17:16:38Z</time>
      </trkpt>
      <trkpt lat="44.12093" lon="6.32281">
        <ele>973.488</ele>
        <time>2022-08-24T17:16:40Z</time>
      </trkpt>
      <trkpt lat="44.12094" lon="6.32283">
        <ele>973.224</ele>
        <time>2022-08-24T17:16:41Z</time>
      </trkpt>
      <trkpt lat="44.12094" lon="6.32285">
        <ele>973.026</ele>
        <time>2022-08-24T17:16:42Z</time>
      </trkpt>
      <trkpt lat="44.12093" lon="6.32289">
        <ele>973.009</ele>
        <time>2022-08-24T17:16:43Z</time>
      </trkpt>
      <trkpt lat="44.12091" lon="6.32297">
        <ele>972.249</ele>
        <time>2022-08-24T17:16:44Z</time>
      </trkpt>
      <trkpt lat="44.12088" lon="6.32304">
        <ele>968.639</ele>
        <time>2022-08-24T17:16:45Z</time>
      </trkpt>
      <trkpt lat="44.12084" lon="6.3231">
        <ele>966.469</ele>
        <time>2022-08-24T17:16:46Z</time>
      </trkpt>
      <trkpt lat="44.12082" lon="6.32313">
        <ele>964.425</ele>
        <time>2022-08-24T17:16:47Z</time>
      </trkpt>
      <trkpt lat="44.1208" lon="6.32317">
        <ele>963.418</ele>
        <time>2022-08-24T17:16:48Z</time>
      </trkpt>
      <trkpt lat="44.12079" lon="6.3232">
        <ele>962.411</ele>
        <time>2022-08-24T17:16:50Z</time>
      </trkpt>
      <trkpt lat="44.12079" lon="6.32322">
        <ele>962.247</ele>
        <time>2022-08-24T17:16:51Z</time>
      </trkpt>
      <trkpt lat="44.12079" lon="6.32329">
        <ele>961.251</ele>
        <time>2022-08-24T17:16:55Z</time>
      </trkpt>
      <trkpt lat="44.12077" lon="6.32333">
        <ele>960.414</ele>
        <time>2022-08-24T17:17:01Z</time>
      </trkpt>
      <trkpt lat="44.12076" lon="6.32338">
        <ele>960.249</ele>
        <time>2022-08-24T17:17:03Z</time>
      </trkpt>
      <trkpt lat="44.12075" lon="6.32341">
        <ele>960.002</ele>
        <time>2022-08-24T17:17:04Z</time>
      </trkpt>
      <trkpt lat="44.12072" lon="6.32351">
        <ele>959.822</ele>
        <time>2022-08-24T17:17:07Z</time>
      </trkpt>
      <trkpt lat="44.12072" lon="6.32352">
        <ele>959.809</ele>
        <time>2022-08-24T17:17:08Z</time>
      </trkpt>
      <trkpt lat="44.12072" lon="6.32351">
        <ele>960.275</ele>
        <time>2022-08-24T17:17:10Z</time>
      </trkpt>
      <trkpt lat="44.12069" lon="6.32351">
        <ele>960.295</ele>
        <time>2022-08-24T17:17:12Z</time>
      </trkpt>
      <trkpt lat="44.12068" lon="6.32353">
        <ele>960.475</ele>
        <time>2022-08-24T17:17:13Z</time>
      </trkpt>
      <trkpt lat="44.12065" lon="6.32358">
        <ele>960.631</ele>
        <time>2022-08-24T17:17:15Z</time>
      </trkpt>
      <trkpt lat="44.12065" lon="6.32358">
        <ele>961.064</ele>
        <time>2022-08-24T17:17:17Z</time>
      </trkpt>
      <trkpt lat="44.12066" lon="6.3237">
        <ele>959.467</ele>
        <time>2022-08-24T17:23:45Z</time>
      </trkpt>
      <trkpt lat="44.12067" lon="6.32373">
        <ele>959.243</ele>
        <time>2022-08-24T17:23:46Z</time>
      </trkpt>
      <trkpt lat="44.12068" lon="6.32376">
        <ele>959.267</ele>
        <time>2022-08-24T17:23:47Z</time>
      </trkpt>
      <trkpt lat="44.12072" lon="6.32379">
        <ele>959.02</ele>
        <time>2022-08-24T17:23:50Z</time>
      </trkpt>
      <trkpt lat="44.12073" lon="6.32379">
        <ele>959.423</ele>
        <time>2022-08-24T17:23:51Z</time>
      </trkpt>
      <trkpt lat="44.12076" lon="6.32382">
        <ele>960.283</ele>
        <time>2022-08-24T17:23:54Z</time>
      </trkpt>
      <trkpt lat="44.12076" lon="6.32383">
        <ele>960.611</ele>
        <time>2022-08-24T17:23:55Z</time>
      </trkpt>
      <trkpt lat="44.12076" lon="6.32384">
        <ele>961.009</ele>
        <time>2022-08-24T17:23:56Z</time>
      </trkpt>
      <trkpt lat="44.12078" lon="6.32386">
        <ele>961.413</ele>
        <time>2022-08-24T17:23:59Z</time>
      </trkpt>
      <trkpt lat="44.12078" lon="6.32386">
        <ele>961.493</ele>
        <time>2022-08-24T17:24:00Z</time>
      </trkpt>
      <trkpt lat="44.12079" lon="6.32386">
        <ele>961.233</ele>
        <time>2022-08-24T17:24:01Z</time>
      </trkpt>
      <trkpt lat="44.12083" lon="6.32384">
        <ele>961.249</ele>
        <time>2022-08-24T17:24:35Z</time>
      </trkpt>
      <trkpt lat="44.12084" lon="6.32386">
        <ele>961.472</ele>
        <time>2022-08-24T17:24:36Z</time>
      </trkpt>
      <trkpt lat="44.12086" lon="6.32388">
        <ele>961.885</ele>
        <time>2022-08-24T17:24:37Z</time>
      </trkpt>
      <trkpt lat="44.12093" lon="6.32399">
        <ele>962.671</ele>
        <time>2022-08-24T17:24:42Z</time>
      </trkpt>
      <trkpt lat="44.12093" lon="6.32408">
        <ele>961.615</ele>
        <time>2022-08-24T17:24:45Z</time>
      </trkpt>
      <trkpt lat="44.12093" lon="6.3241">
        <ele>961.258</ele>
        <time>2022-08-24T17:24:46Z</time>
      </trkpt>
      <trkpt lat="44.12091" lon="6.3242">
        <ele>960.651</ele>
        <time>2022-08-24T17:24:49Z</time>
      </trkpt>
      <trkpt lat="44.1209" lon="6.32424">
        <ele>960.801</ele>
        <time>2022-08-24T17:24:50Z</time>
      </trkpt>
      <trkpt lat="44.12088" lon="6.3244">
        <ele>959.411</ele>
        <time>2022-08-24T17:24:54Z</time>
      </trkpt>
      <trkpt lat="44.12088" lon="6.32442">
        <ele>959.409</ele>
        <time>2022-08-24T17:24:55Z</time>
      </trkpt>
      <trkpt lat="44.12087" lon="6.32461">
        <ele>958.436</ele>
        <time>2022-08-24T17:24:59Z</time>
      </trkpt>
      <trkpt lat="44.12092" lon="6.32481">
        <ele>957.266</ele>
        <time>2022-08-24T17:25:02Z</time>
      </trkpt>
      <trkpt lat="44.12093" lon="6.3249">
        <ele>957.056</ele>
        <time>2022-08-24T17:25:04Z</time>
      </trkpt>
      <trkpt lat="44.12094" lon="6.32501">
        <ele>956.692</ele>
        <time>2022-08-24T17:25:06Z</time>
      </trkpt>
      <trkpt lat="44.12096" lon="6.32506">
        <ele>956.085</ele>
        <time>2022-08-24T17:25:07Z</time>
      </trkpt>
      <trkpt lat="44.12105" lon="6.32517">
        <ele>955.268</ele>
        <time>2022-08-24T17:25:10Z</time>
      </trkpt>
      <trkpt lat="44.12107" lon="6.32519">
        <ele>954.854</ele>
        <time>2022-08-24T17:25:11Z</time>
      </trkpt>
      <trkpt lat="44.12113" lon="6.32528">
        <ele>954.058</ele>
        <time>2022-08-24T17:25:14Z</time>
      </trkpt>
      <trkpt lat="44.12116" lon="6.32533">
        <ele>953.461</ele>
        <time>2022-08-24T17:25:15Z</time>
      </trkpt>
      <trkpt lat="44.12119" lon="6.32546">
        <ele>952.498</ele>
        <time>2022-08-24T17:25:17Z</time>
      </trkpt>
      <trkpt lat="44.12118" lon="6.32554">
        <ele>950.615</ele>
        <time>2022-08-24T17:25:18Z</time>
      </trkpt>
      <trkpt lat="44.12116" lon="6.32562">
        <ele>949.826</ele>
        <time>2022-08-24T17:25:19Z</time>
      </trkpt>
      <trkpt lat="44.12109" lon="6.32579">
        <ele>949.609</ele>
        <time>2022-08-24T17:25:21Z</time>
      </trkpt>
      <trkpt lat="44.12106" lon="6.32584">
        <ele>949.68</ele>
        <time>2022-08-24T17:25:22Z</time>
      </trkpt>
      <trkpt lat="44.12103" lon="6.32589">
        <ele>949.43</ele>
        <time>2022-08-24T17:25:23Z</time>
      </trkpt>
      <trkpt lat="44.12094" lon="6.32595">
        <ele>949.86</ele>
        <time>2022-08-24T17:25:25Z</time>
      </trkpt>
      <trkpt lat="44.12089" lon="6.32597">
        <ele>950.216</ele>
        <time>2022-08-24T17:25:26Z</time>
      </trkpt>
      <trkpt lat="44.12075" lon="6.32597">
        <ele>950.479</ele>
        <time>2022-08-24T17:25:29Z</time>
      </trkpt>
      <trkpt lat="44.12067" lon="6.32595">
        <ele>950.612</ele>
        <time>2022-08-24T17:25:31Z</time>
      </trkpt>
      <trkpt lat="44.12056" lon="6.32596">
        <ele>950.258</ele>
        <time>2022-08-24T17:25:34Z</time>
      </trkpt>
      <trkpt lat="44.12054" lon="6.32599">
        <ele>949.862</ele>
        <time>2022-08-24T17:25:35Z</time>
      </trkpt>
      <trkpt lat="44.12053" lon="6.3261">
        <ele>948.075</ele>
        <time>2022-08-24T17:25:38Z</time>
      </trkpt>
      <trkpt lat="44.12052" lon="6.32613">
        <ele>947.672</ele>
        <time>2022-08-24T17:25:39Z</time>
      </trkpt>
      <trkpt lat="44.12051" lon="6.32615">
        <ele>946.413</ele>
        <time>2022-08-24T17:25:40Z</time>
      </trkpt>
      <trkpt lat="44.12046" lon="6.32629">
        <ele>945.814</ele>
        <time>2022-08-24T17:25:44Z</time>
      </trkpt>
      <trkpt lat="44.12044" lon="6.32632">
        <ele>946.409</ele>
        <time>2022-08-24T17:25:46Z</time>
      </trkpt>
      <trkpt lat="44.12039" lon="6.32636">
        <ele>946.638</ele>
        <time>2022-08-24T17:25:49Z</time>
      </trkpt>
      <trkpt lat="44.12035" lon="6.32641">
        <ele>946.638</ele>
        <time>2022-08-24T17:25:51Z</time>
      </trkpt>
      <trkpt lat="44.12034" lon="6.32646">
        <ele>946.678</ele>
        <time>2022-08-24T17:25:53Z</time>
      </trkpt>
      <trkpt lat="44.12037" lon="6.32654">
        <ele>947.844</ele>
        <time>2022-08-24T17:25:56Z</time>
      </trkpt>
      <trkpt lat="44.12039" lon="6.32658">
        <ele>948.477</ele>
        <time>2022-08-24T17:25:58Z</time>
      </trkpt>
      <trkpt lat="44.12042" lon="6.32661">
        <ele>948.87</ele>
        <time>2022-08-24T17:26:00Z</time>
      </trkpt>
      <trkpt lat="44.12048" lon="6.32667">
        <ele>950.056</ele>
        <time>2022-08-24T17:26:04Z</time>
      </trkpt>
      <trkpt lat="44.12051" lon="6.3267">
        <ele>951.04</ele>
        <time>2022-08-24T17:26:06Z</time>
      </trkpt>
      <trkpt lat="44.12058" lon="6.32677">
        <ele>952.283</ele>
        <time>2022-08-24T17:26:10Z</time>
      </trkpt>
      <trkpt lat="44.12059" lon="6.32679">
        <ele>952.437</ele>
        <time>2022-08-24T17:26:11Z</time>
      </trkpt>
      <trkpt lat="44.12062" lon="6.32683">
        <ele>952.849</ele>
        <time>2022-08-24T17:26:13Z</time>
      </trkpt>
      <trkpt lat="44.12065" lon="6.32688">
        <ele>953.213</ele>
        <time>2022-08-24T17:26:15Z</time>
      </trkpt>
      <trkpt lat="44.12067" lon="6.32691">
        <ele>953.409</ele>
        <time>2022-08-24T17:26:16Z</time>
      </trkpt>
      <trkpt lat="44.12068" lon="6.32693">
        <ele>953.634</ele>
        <time>2022-08-24T17:26:17Z</time>
      </trkpt>
      <trkpt lat="44.12071" lon="6.32695">
        <ele>954.014</ele>
        <time>2022-08-24T17:26:18Z</time>
      </trkpt>
      <trkpt lat="44.12075" lon="6.32699">
        <ele>954.274</ele>
        <time>2022-08-24T17:26:20Z</time>
      </trkpt>
      <trkpt lat="44.12083" lon="6.32702">
        <ele>954.62</ele>
        <time>2022-08-24T17:26:23Z</time>
      </trkpt>
      <trkpt lat="44.12094" lon="6.32712">
        <ele>955.023</ele>
        <time>2022-08-24T17:26:27Z</time>
      </trkpt>
      <trkpt lat="44.12096" lon="6.3272">
        <ele>955.496</ele>
        <time>2022-08-24T17:26:29Z</time>
      </trkpt>
      <trkpt lat="44.12101" lon="6.32736">
        <ele>955.672</ele>
        <time>2022-08-24T17:26:33Z</time>
      </trkpt>
      <trkpt lat="44.12102" lon="6.32753">
        <ele>955.676</ele>
        <time>2022-08-24T17:26:38Z</time>
      </trkpt>
      <trkpt lat="44.12102" lon="6.3276">
        <ele>955.639</ele>
        <time>2022-08-24T17:26:41Z</time>
      </trkpt>
      <trkpt lat="44.12105" lon="6.32766">
        <ele>955.819</ele>
        <time>2022-08-24T17:26:43Z</time>
      </trkpt>
      <trkpt lat="44.1211" lon="6.32782">
        <ele>955.609</ele>
        <time>2022-08-24T17:26:47Z</time>
      </trkpt>
      <trkpt lat="44.12111" lon="6.32793">
        <ele>955.419</ele>
        <time>2022-08-24T17:26:49Z</time>
      </trkpt>
      <trkpt lat="44.12113" lon="6.32805">
        <ele>955.209</ele>
        <time>2022-08-24T17:26:51Z</time>
      </trkpt>
      <trkpt lat="44.12118" lon="6.32823">
        <ele>955.262</ele>
        <time>2022-08-24T17:26:54Z</time>
      </trkpt>
      <trkpt lat="44.1212" lon="6.32828">
        <ele>955.422</ele>
        <time>2022-08-24T17:26:55Z</time>
      </trkpt>
      <trkpt lat="44.12128" lon="6.32843">
        <ele>955.682</ele>
        <time>2022-08-24T17:26:58Z</time>
      </trkpt>
      <trkpt lat="44.12131" lon="6.32847">
        <ele>955.698</ele>
        <time>2022-08-24T17:26:59Z</time>
      </trkpt>
      <trkpt lat="44.12135" lon="6.3285">
        <ele>954.631</ele>
        <time>2022-08-24T17:27:00Z</time>
      </trkpt>
      <trkpt lat="44.12139" lon="6.32853">
        <ele>954.044</ele>
        <time>2022-08-24T17:27:01Z</time>
      </trkpt>
      <trkpt lat="44.12152" lon="6.32862">
        <ele>953.21</ele>
        <time>2022-08-24T17:27:04Z</time>
      </trkpt>
      <trkpt lat="44.1216" lon="6.32871">
        <ele>953.224</ele>
        <time>2022-08-24T17:27:06Z</time>
      </trkpt>
      <trkpt lat="44.12161" lon="6.32878">
        <ele>953.467</ele>
        <time>2022-08-24T17:27:07Z</time>
      </trkpt>
      <trkpt lat="44.12162" lon="6.32885">
        <ele>953.822</ele>
        <time>2022-08-24T17:27:08Z</time>
      </trkpt>
      <trkpt lat="44.12159" lon="6.32896">
        <ele>954.062</ele>
        <time>2022-08-24T17:27:10Z</time>
      </trkpt>
      <trkpt lat="44.12154" lon="6.32906">
        <ele>953.808</ele>
        <time>2022-08-24T17:27:12Z</time>
      </trkpt>
      <trkpt lat="44.12151" lon="6.32913">
        <ele>954.009</ele>
        <time>2022-08-24T17:27:14Z</time>
      </trkpt>
      <trkpt lat="44.1215" lon="6.32916">
        <ele>954.083</ele>
        <time>2022-08-24T17:27:15Z</time>
      </trkpt>
      <trkpt lat="44.12147" lon="6.32936">
        <ele>955.283</ele>
        <time>2022-08-24T17:27:19Z</time>
      </trkpt>
      <trkpt lat="44.12147" lon="6.32942">
        <ele>955.253</ele>
        <time>2022-08-24T17:27:20Z</time>
      </trkpt>
      <trkpt lat="44.12148" lon="6.32949">
        <ele>955.489</ele>
        <time>2022-08-24T17:27:21Z</time>
      </trkpt>
      <trkpt lat="44.1215" lon="6.32961">
        <ele>954.852</ele>
        <time>2022-08-24T17:27:23Z</time>
      </trkpt>
      <trkpt lat="44.12153" lon="6.32974">
        <ele>954.645</ele>
        <time>2022-08-24T17:27:25Z</time>
      </trkpt>
      <trkpt lat="44.12157" lon="6.32994">
        <ele>954.071</ele>
        <time>2022-08-24T17:27:28Z</time>
      </trkpt>
      <trkpt lat="44.12158" lon="6.33008">
        <ele>953.845</ele>
        <time>2022-08-24T17:27:30Z</time>
      </trkpt>
      <trkpt lat="44.1216" lon="6.33022">
        <ele>954.278</ele>
        <time>2022-08-24T17:27:32Z</time>
      </trkpt>
      <trkpt lat="44.12162" lon="6.33037">
        <ele>954.484</ele>
        <time>2022-08-24T17:27:34Z</time>
      </trkpt>
      <trkpt lat="44.12163" lon="6.33044">
        <ele>954.407</ele>
        <time>2022-08-24T17:27:35Z</time>
      </trkpt>
      <trkpt lat="44.12168" lon="6.3307">
        <ele>953.817</ele>
        <time>2022-08-24T17:27:39Z</time>
      </trkpt>
      <trkpt lat="44.12168" lon="6.33076">
        <ele>953.409</ele>
        <time>2022-08-24T17:27:40Z</time>
      </trkpt>
      <trkpt lat="44.12166" lon="6.33082">
        <ele>953.279</ele>
        <time>2022-08-24T17:27:41Z</time>
      </trkpt>
      <trkpt lat="44.1216" lon="6.33092">
        <ele>953.289</ele>
        <time>2022-08-24T17:27:43Z</time>
      </trkpt>
      <trkpt lat="44.12141" lon="6.33103">
        <ele>953.679</ele>
        <time>2022-08-24T17:27:48Z</time>
      </trkpt>
      <trkpt lat="44.12137" lon="6.33105">
        <ele>953.695</ele>
        <time>2022-08-24T17:27:49Z</time>
      </trkpt>
      <trkpt lat="44.12123" lon="6.33116">
        <ele>955.068</ele>
        <time>2022-08-24T17:27:53Z</time>
      </trkpt>
      <trkpt lat="44.12114" lon="6.33132">
        <ele>955.861</ele>
        <time>2022-08-24T17:27:57Z</time>
      </trkpt>
      <trkpt lat="44.12112" lon="6.33137">
        <ele>956.087</ele>
        <time>2022-08-24T17:27:58Z</time>
      </trkpt>
      <trkpt lat="44.1211" lon="6.33146">
        <ele>956.011</ele>
        <time>2022-08-24T17:28:00Z</time>
      </trkpt>
      <trkpt lat="44.12107" lon="6.33166">
        <ele>956.084</ele>
        <time>2022-08-24T17:28:04Z</time>
      </trkpt>
      <trkpt lat="44.12109" lon="6.33185">
        <ele>956.215</ele>
        <time>2022-08-24T17:28:08Z</time>
      </trkpt>
      <trkpt lat="44.12114" lon="6.33191">
        <ele>957.065</ele>
        <time>2022-08-24T17:28:10Z</time>
      </trkpt>
      <trkpt lat="44.12122" lon="6.33199">
        <ele>958.211</ele>
        <time>2022-08-24T17:28:13Z</time>
      </trkpt>
      <trkpt lat="44.12125" lon="6.33202">
        <ele>958.409</ele>
        <time>2022-08-24T17:28:14Z</time>
      </trkpt>
      <trkpt lat="44.12135" lon="6.33211">
        <ele>959.432</ele>
        <time>2022-08-24T17:28:18Z</time>
      </trkpt>
      <trkpt lat="44.1214" lon="6.33217">
        <ele>960.062</ele>
        <time>2022-08-24T17:28:20Z</time>
      </trkpt>
      <trkpt lat="44.12144" lon="6.33224">
        <ele>960.472</ele>
        <time>2022-08-24T17:28:22Z</time>
      </trkpt>
      <trkpt lat="44.12149" lon="6.33232">
        <ele>960.878</ele>
        <time>2022-08-24T17:28:24Z</time>
      </trkpt>
      <trkpt lat="44.12153" lon="6.33239">
        <ele>961.291</ele>
        <time>2022-08-24T17:28:26Z</time>
      </trkpt>
      <trkpt lat="44.12157" lon="6.33247">
        <ele>962.084</ele>
        <time>2022-08-24T17:28:28Z</time>
      </trkpt>
      <trkpt lat="44.12163" lon="6.33257">
        <ele>962.85</ele>
        <time>2022-08-24T17:28:31Z</time>
      </trkpt>
      <trkpt lat="44.12165" lon="6.33261">
        <ele>963.014</ele>
        <time>2022-08-24T17:28:32Z</time>
      </trkpt>
      <trkpt lat="44.12172" lon="6.33271">
        <ele>963.637</ele>
        <time>2022-08-24T17:28:35Z</time>
      </trkpt>
      <trkpt lat="44.12178" lon="6.33277">
        <ele>964.075</ele>
        <time>2022-08-24T17:28:37Z</time>
      </trkpt>
      <trkpt lat="44.12181" lon="6.3328">
        <ele>964.228</ele>
        <time>2022-08-24T17:28:38Z</time>
      </trkpt>
      <trkpt lat="44.12199" lon="6.33295">
        <ele>964.82</ele>
        <time>2022-08-24T17:28:44Z</time>
      </trkpt>
      <trkpt lat="44.12217" lon="6.3331">
        <ele>964.609</ele>
        <time>2022-08-24T17:28:50Z</time>
      </trkpt>
      <trkpt lat="44.12238" lon="6.33321">
        <ele>964.848</ele>
        <time>2022-08-24T17:28:56Z</time>
      </trkpt>
      <trkpt lat="44.12258" lon="6.33326">
        <ele>965.088</ele>
        <time>2022-08-24T17:29:01Z</time>
      </trkpt>
      <trkpt lat="44.12263" lon="6.33328">
        <ele>965.218</ele>
        <time>2022-08-24T17:29:02Z</time>
      </trkpt>
      <trkpt lat="44.12271" lon="6.33329">
        <ele>966.414</ele>
        <time>2022-08-24T17:29:04Z</time>
      </trkpt>
      <trkpt lat="44.12283" lon="6.33329">
        <ele>967.637</ele>
        <time>2022-08-24T17:29:07Z</time>
      </trkpt>
      <trkpt lat="44.12294" lon="6.33324">
        <ele>967.86</ele>
        <time>2022-08-24T17:29:10Z</time>
      </trkpt>
      <trkpt lat="44.12304" lon="6.33317">
        <ele>968.666</ele>
        <time>2022-08-24T17:29:13Z</time>
      </trkpt>
      <trkpt lat="44.12308" lon="6.33315">
        <ele>968.85</ele>
        <time>2022-08-24T17:29:14Z</time>
      </trkpt>
      <trkpt lat="44.12319" lon="6.33315">
        <ele>969.833</ele>
        <time>2022-08-24T17:29:17Z</time>
      </trkpt>
      <trkpt lat="44.12322" lon="6.33317">
        <ele>970.269</ele>
        <time>2022-08-24T17:29:18Z</time>
      </trkpt>
      <trkpt lat="44.12325" lon="6.33319">
        <ele>970.804</ele>
        <time>2022-08-24T17:29:19Z</time>
      </trkpt>
      <trkpt lat="44.12333" lon="6.33325">
        <ele>972.024</ele>
        <time>2022-08-24T17:29:22Z</time>
      </trkpt>
      <trkpt lat="44.12341" lon="6.33328">
        <ele>973.409</ele>
        <time>2022-08-24T17:29:25Z</time>
      </trkpt>
      <trkpt lat="44.12344" lon="6.33329">
        <ele>974.057</ele>
        <time>2022-08-24T17:29:26Z</time>
      </trkpt>
      <trkpt lat="44.1235" lon="6.33331">
        <ele>974.677</ele>
        <time>2022-08-24T17:29:28Z</time>
      </trkpt>
      <trkpt lat="44.1236" lon="6.33335">
        <ele>976.077</ele>
        <time>2022-08-24T17:29:32Z</time>
      </trkpt>
      <trkpt lat="44.12362" lon="6.33337">
        <ele>976.493</ele>
        <time>2022-08-24T17:29:33Z</time>
      </trkpt>
      <trkpt lat="44.12362" lon="6.3334">
        <ele>976.676</ele>
        <time>2022-08-24T17:29:34Z</time>
      </trkpt>
      <trkpt lat="44.12362" lon="6.33342">
        <ele>977.079</ele>
        <time>2022-08-24T17:29:36Z</time>
      </trkpt>
      <trkpt lat="44.12363" lon="6.33343">
        <ele>977.095</ele>
        <time>2022-08-24T17:29:37Z</time>
      </trkpt>
      <trkpt lat="44.12364" lon="6.33344">
        <ele>977.299</ele>
        <time>2022-08-24T17:29:39Z</time>
      </trkpt>
      <trkpt lat="44.12364" lon="6.33345">
        <ele>977.262</ele>
        <time>2022-08-24T17:29:42Z</time>
      </trkpt>
      <trkpt lat="44.12368" lon="6.33347">
        <ele>977.279</ele>
        <time>2022-08-24T17:29:47Z</time>
      </trkpt>
      <trkpt lat="44.12371" lon="6.33349">
        <ele>977.005</ele>
        <time>2022-08-24T17:29:49Z</time>
      </trkpt>
      <trkpt lat="44.12383" lon="6.33344">
        <ele>976.425</ele>
        <time>2022-08-24T17:29:53Z</time>
      </trkpt>
      <trkpt lat="44.12386" lon="6.33342">
        <ele>976.209</ele>
        <time>2022-08-24T17:29:54Z</time>
      </trkpt>
      <trkpt lat="44.12397" lon="6.33332">
        <ele>975.898</ele>
        <time>2022-08-24T17:29:57Z</time>
      </trkpt>
      <trkpt lat="44.12402" lon="6.33322">
        <ele>975.648</ele>
        <time>2022-08-24T17:29:59Z</time>
      </trkpt>
      <trkpt lat="44.12407" lon="6.3331">
        <ele>975.078</ele>
        <time>2022-08-24T17:30:01Z</time>
      </trkpt>
      <trkpt lat="44.12408" lon="6.33303">
        <ele>974.624</ele>
        <time>2022-08-24T17:30:02Z</time>
      </trkpt>
      <trkpt lat="44.12413" lon="6.33281">
        <ele>974.077</ele>
        <time>2022-08-24T17:30:05Z</time>
      </trkpt>
      <trkpt lat="44.12414" lon="6.33274">
        <ele>973.42</ele>
        <time>2022-08-24T17:30:06Z</time>
      </trkpt>
      <trkpt lat="44.12419" lon="6.33251">
        <ele>972.086</ele>
        <time>2022-08-24T17:30:09Z</time>
      </trkpt>
      <trkpt lat="44.12422" lon="6.33234">
        <ele>971.25</ele>
        <time>2022-08-24T17:30:11Z</time>
      </trkpt>
      <trkpt lat="44.12424" lon="6.33216">
        <ele>971.083</ele>
        <time>2022-08-24T17:30:13Z</time>
      </trkpt>
      <trkpt lat="44.12423" lon="6.33197">
        <ele>970.041</ele>
        <time>2022-08-24T17:30:15Z</time>
      </trkpt>
      <trkpt lat="44.12423" lon="6.33186">
        <ele>969.681</ele>
        <time>2022-08-24T17:30:16Z</time>
      </trkpt>
      <trkpt lat="44.12425" lon="6.33177">
        <ele>969.209</ele>
        <time>2022-08-24T17:30:17Z</time>
      </trkpt>
      <trkpt lat="44.1243" lon="6.33169">
        <ele>969.009</ele>
        <time>2022-08-24T17:30:18Z</time>
      </trkpt>
      <trkpt lat="44.12436" lon="6.33164">
        <ele>969.045</ele>
        <time>2022-08-24T17:30:19Z</time>
      </trkpt>
      <trkpt lat="44.12455" lon="6.33146">
        <ele>968.215</ele>
        <time>2022-08-24T17:30:22Z</time>
      </trkpt>
      <trkpt lat="44.12459" lon="6.33126">
        <ele>966.455</ele>
        <time>2022-08-24T17:30:24Z</time>
      </trkpt>
      <trkpt lat="44.12461" lon="6.33116">
        <ele>965.031</ele>
        <time>2022-08-24T17:30:25Z</time>
      </trkpt>
      <trkpt lat="44.12466" lon="6.33107">
        <ele>964.254</ele>
        <time>2022-08-24T17:30:26Z</time>
      </trkpt>
      <trkpt lat="44.12472" lon="6.331">
        <ele>963.697</ele>
        <time>2022-08-24T17:30:27Z</time>
      </trkpt>
      <trkpt lat="44.12493" lon="6.33079">
        <ele>962.473</ele>
        <time>2022-08-24T17:30:30Z</time>
      </trkpt>
      <trkpt lat="44.125" lon="6.33071">
        <ele>962.267</ele>
        <time>2022-08-24T17:30:31Z</time>
      </trkpt>
      <trkpt lat="44.12508" lon="6.33063">
        <ele>962.21</ele>
        <time>2022-08-24T17:30:32Z</time>
      </trkpt>
      <trkpt lat="44.12515" lon="6.33055">
        <ele>962.041</ele>
        <time>2022-08-24T17:30:33Z</time>
      </trkpt>
      <trkpt lat="44.12524" lon="6.33049">
        <ele>961.881</ele>
        <time>2022-08-24T17:30:34Z</time>
      </trkpt>
      <trkpt lat="44.12533" lon="6.33048">
        <ele>961.609</ele>
        <time>2022-08-24T17:30:35Z</time>
      </trkpt>
      <trkpt lat="44.12542" lon="6.33048">
        <ele>960.609</ele>
        <time>2022-08-24T17:30:36Z</time>
      </trkpt>
      <trkpt lat="44.12551" lon="6.33046">
        <ele>959.265</ele>
        <time>2022-08-24T17:30:37Z</time>
      </trkpt>
      <trkpt lat="44.1256" lon="6.3304">
        <ele>958.475</ele>
        <time>2022-08-24T17:30:38Z</time>
      </trkpt>
      <trkpt lat="44.12567" lon="6.33033">
        <ele>957.455</ele>
        <time>2022-08-24T17:30:39Z</time>
      </trkpt>
      <trkpt lat="44.12582" lon="6.33018">
        <ele>955.861</ele>
        <time>2022-08-24T17:30:41Z</time>
      </trkpt>
      <trkpt lat="44.12589" lon="6.3301">
        <ele>955.224</ele>
        <time>2022-08-24T17:30:42Z</time>
      </trkpt>
      <trkpt lat="44.12604" lon="6.32996">
        <ele>954.277</ele>
        <time>2022-08-24T17:30:44Z</time>
      </trkpt>
      <trkpt lat="44.1262" lon="6.32983">
        <ele>953.233</ele>
        <time>2022-08-24T17:30:46Z</time>
      </trkpt>
      <trkpt lat="44.12625" lon="6.32974">
        <ele>953.037</ele>
        <time>2022-08-24T17:30:47Z</time>
      </trkpt>
      <trkpt lat="44.12635" lon="6.32941">
        <ele>952.61</ele>
        <time>2022-08-24T17:30:50Z</time>
      </trkpt>
      <trkpt lat="44.12635" lon="6.32931">
        <ele>952.664</ele>
        <time>2022-08-24T17:30:51Z</time>
      </trkpt>
      <trkpt lat="44.12638" lon="6.32922">
        <ele>952.606</ele>
        <time>2022-08-24T17:30:52Z</time>
      </trkpt>
      <trkpt lat="44.12644" lon="6.32916">
        <ele>952.616</ele>
        <time>2022-08-24T17:30:53Z</time>
      </trkpt>
      <trkpt lat="44.12651" lon="6.32913">
        <ele>952.609</ele>
        <time>2022-08-24T17:30:54Z</time>
      </trkpt>
      <trkpt lat="44.12666" lon="6.3291">
        <ele>952.637</ele>
        <time>2022-08-24T17:30:56Z</time>
      </trkpt>
      <trkpt lat="44.12681" lon="6.32915">
        <ele>952.037</ele>
        <time>2022-08-24T17:30:58Z</time>
      </trkpt>
      <trkpt lat="44.12687" lon="6.32922">
        <ele>951.837</ele>
        <time>2022-08-24T17:30:59Z</time>
      </trkpt>
      <trkpt lat="44.12699" lon="6.32937">
        <ele>951.653</ele>
        <time>2022-08-24T17:31:01Z</time>
      </trkpt>
      <trkpt lat="44.12712" lon="6.32949">
        <ele>950.876</ele>
        <time>2022-08-24T17:31:03Z</time>
      </trkpt>
      <trkpt lat="44.12728" lon="6.32961">
        <ele>950.429</ele>
        <time>2022-08-24T17:31:05Z</time>
      </trkpt>
      <trkpt lat="44.12735" lon="6.32963">
        <ele>948.685</ele>
        <time>2022-08-24T17:31:06Z</time>
      </trkpt>
      <trkpt lat="44.12742" lon="6.32959">
        <ele>947.089</ele>
        <time>2022-08-24T17:31:07Z</time>
      </trkpt>
      <trkpt lat="44.12749" lon="6.32953">
        <ele>946.022</ele>
        <time>2022-08-24T17:31:08Z</time>
      </trkpt>
      <trkpt lat="44.12755" lon="6.32948">
        <ele>945.624</ele>
        <time>2022-08-24T17:31:09Z</time>
      </trkpt>
      <trkpt lat="44.12768" lon="6.32947">
        <ele>945.204</ele>
        <time>2022-08-24T17:31:11Z</time>
      </trkpt>
      <trkpt lat="44.12774" lon="6.3295">
        <ele>944.814</ele>
        <time>2022-08-24T17:31:12Z</time>
      </trkpt>
      <trkpt lat="44.12786" lon="6.32957">
        <ele>944.409</ele>
        <time>2022-08-24T17:31:14Z</time>
      </trkpt>
      <trkpt lat="44.12792" lon="6.32958">
        <ele>944.273</ele>
        <time>2022-08-24T17:31:15Z</time>
      </trkpt>
      <trkpt lat="44.12798" lon="6.32956">
        <ele>943.433</ele>
        <time>2022-08-24T17:31:16Z</time>
      </trkpt>
      <trkpt lat="44.1281" lon="6.32951">
        <ele>942.413</ele>
        <time>2022-08-24T17:31:18Z</time>
      </trkpt>
      <trkpt lat="44.12817" lon="6.32948">
        <ele>942.089</ele>
        <time>2022-08-24T17:31:19Z</time>
      </trkpt>
      <trkpt lat="44.12831" lon="6.32945">
        <ele>941.862</ele>
        <time>2022-08-24T17:31:21Z</time>
      </trkpt>
      <trkpt lat="44.12839" lon="6.32946">
        <ele>941.665</ele>
        <time>2022-08-24T17:31:22Z</time>
      </trkpt>
      <trkpt lat="44.12853" lon="6.32947">
        <ele>941.251</ele>
        <time>2022-08-24T17:31:24Z</time>
      </trkpt>
      <trkpt lat="44.1286" lon="6.32946">
        <ele>941.085</ele>
        <time>2022-08-24T17:31:25Z</time>
      </trkpt>
      <trkpt lat="44.12867" lon="6.32946">
        <ele>939.878</ele>
        <time>2022-08-24T17:31:26Z</time>
      </trkpt>
      <trkpt lat="44.12879" lon="6.32956">
        <ele>938.019</ele>
        <time>2022-08-24T17:31:28Z</time>
      </trkpt>
      <trkpt lat="44.12884" lon="6.32974">
        <ele>937.009</ele>
        <time>2022-08-24T17:31:30Z</time>
      </trkpt>
      <trkpt lat="44.12889" lon="6.3298">
        <ele>936.819</ele>
        <time>2022-08-24T17:31:31Z</time>
      </trkpt>
      <trkpt lat="44.12896" lon="6.32982">
        <ele>936.409</ele>
        <time>2022-08-24T17:31:32Z</time>
      </trkpt>
      <trkpt lat="44.12904" lon="6.32982">
        <ele>935.652</ele>
        <time>2022-08-24T17:31:33Z</time>
      </trkpt>
      <trkpt lat="44.12912" lon="6.32984">
        <ele>935.082</ele>
        <time>2022-08-24T17:31:34Z</time>
      </trkpt>
      <trkpt lat="44.1292" lon="6.32986">
        <ele>934.422</ele>
        <time>2022-08-24T17:31:35Z</time>
      </trkpt>
      <trkpt lat="44.12937" lon="6.32993">
        <ele>933.698</ele>
        <time>2022-08-24T17:31:37Z</time>
      </trkpt>
      <trkpt lat="44.12946" lon="6.32997">
        <ele>933.241</ele>
        <time>2022-08-24T17:31:38Z</time>
      </trkpt>
      <trkpt lat="44.1296" lon="6.33005">
        <ele>933.034</ele>
        <time>2022-08-24T17:31:40Z</time>
      </trkpt>
      <trkpt lat="44.12967" lon="6.33012">
        <ele>933.05</ele>
        <time>2022-08-24T17:31:41Z</time>
      </trkpt>
      <trkpt lat="44.12972" lon="6.33022">
        <ele>932.414</ele>
        <time>2022-08-24T17:31:42Z</time>
      </trkpt>
      <trkpt lat="44.12975" lon="6.33033">
        <ele>932.037</ele>
        <time>2022-08-24T17:31:43Z</time>
      </trkpt>
      <trkpt lat="44.12978" lon="6.33044">
        <ele>931.214</ele>
        <time>2022-08-24T17:31:44Z</time>
      </trkpt>
      <trkpt lat="44.1298" lon="6.33055">
        <ele>930.454</ele>
        <time>2022-08-24T17:31:45Z</time>
      </trkpt>
      <trkpt lat="44.12976" lon="6.33079">
        <ele>928.209</ele>
        <time>2022-08-24T17:31:47Z</time>
      </trkpt>
      <trkpt lat="44.12975" lon="6.33092">
        <ele>927.609</ele>
        <time>2022-08-24T17:31:48Z</time>
      </trkpt>
      <trkpt lat="44.12976" lon="6.33105">
        <ele>927.092</ele>
        <time>2022-08-24T17:31:49Z</time>
      </trkpt>
      <trkpt lat="44.12975" lon="6.33118">
        <ele>926.812</ele>
        <time>2022-08-24T17:31:50Z</time>
      </trkpt>
      <trkpt lat="44.12963" lon="6.3314">
        <ele>926.222</ele>
        <time>2022-08-24T17:31:52Z</time>
      </trkpt>
      <trkpt lat="44.12956" lon="6.33147">
        <ele>925.668</ele>
        <time>2022-08-24T17:31:53Z</time>
      </trkpt>
      <trkpt lat="44.12952" lon="6.33156">
        <ele>924.831</ele>
        <time>2022-08-24T17:31:54Z</time>
      </trkpt>
      <trkpt lat="44.12952" lon="6.33166">
        <ele>924.474</ele>
        <time>2022-08-24T17:31:55Z</time>
      </trkpt>
      <trkpt lat="44.12956" lon="6.33174">
        <ele>924.03</ele>
        <time>2022-08-24T17:31:56Z</time>
      </trkpt>
      <trkpt lat="44.12962" lon="6.33181">
        <ele>923.234</ele>
        <time>2022-08-24T17:31:57Z</time>
      </trkpt>
      <trkpt lat="44.12968" lon="6.33189">
        <ele>922.827</ele>
        <time>2022-08-24T17:31:58Z</time>
      </trkpt>
      <trkpt lat="44.12972" lon="6.33199">
        <ele>922.014</ele>
        <time>2022-08-24T17:31:59Z</time>
      </trkpt>
      <trkpt lat="44.12972" lon="6.3321">
        <ele>921.454</ele>
        <time>2022-08-24T17:32:00Z</time>
      </trkpt>
      <trkpt lat="44.12964" lon="6.33231">
        <ele>920.809</ele>
        <time>2022-08-24T17:32:02Z</time>
      </trkpt>
      <trkpt lat="44.12956" lon="6.33251">
        <ele>921.209</ele>
        <time>2022-08-24T17:32:04Z</time>
      </trkpt>
      <trkpt lat="44.12952" lon="6.33272">
        <ele>922.072</ele>
        <time>2022-08-24T17:32:06Z</time>
      </trkpt>
      <trkpt lat="44.12956" lon="6.3329">
        <ele>922.062</ele>
        <time>2022-08-24T17:32:08Z</time>
      </trkpt>
      <trkpt lat="44.1297" lon="6.33292">
        <ele>921.282</ele>
        <time>2022-08-24T17:32:10Z</time>
      </trkpt>
      <trkpt lat="44.12976" lon="6.33287">
        <ele>920.228</ele>
        <time>2022-08-24T17:32:11Z</time>
      </trkpt>
      <trkpt lat="44.1298" lon="6.33279">
        <ele>919.661</ele>
        <time>2022-08-24T17:32:12Z</time>
      </trkpt>
      <trkpt lat="44.12987" lon="6.33264">
        <ele>918.814</ele>
        <time>2022-08-24T17:32:14Z</time>
      </trkpt>
      <trkpt lat="44.12991" lon="6.33257">
        <ele>918.45</ele>
        <time>2022-08-24T17:32:15Z</time>
      </trkpt>
      <trkpt lat="44.13001" lon="6.33243">
        <ele>918.444</ele>
        <time>2022-08-24T17:32:17Z</time>
      </trkpt>
      <trkpt lat="44.13006" lon="6.33237">
        <ele>918.287</ele>
        <time>2022-08-24T17:32:18Z</time>
      </trkpt>
      <trkpt lat="44.13019" lon="6.33231">
        <ele>918.052</ele>
        <time>2022-08-24T17:32:20Z</time>
      </trkpt>
      <trkpt lat="44.13025" lon="6.33227">
        <ele>918.053</ele>
        <time>2022-08-24T17:32:21Z</time>
      </trkpt>
      <trkpt lat="44.13031" lon="6.33221">
        <ele>917.808</ele>
        <time>2022-08-24T17:32:22Z</time>
      </trkpt>
      <trkpt lat="44.13037" lon="6.33213">
        <ele>916.809</ele>
        <time>2022-08-24T17:32:23Z</time>
      </trkpt>
      <trkpt lat="44.13043" lon="6.33205">
        <ele>916.416</ele>
        <time>2022-08-24T17:32:24Z</time>
      </trkpt>
      <trkpt lat="44.13065" lon="6.33181">
        <ele>915.296</ele>
        <time>2022-08-24T17:32:27Z</time>
      </trkpt>
      <trkpt lat="44.13073" lon="6.33174">
        <ele>915.036</ele>
        <time>2022-08-24T17:32:28Z</time>
      </trkpt>
      <trkpt lat="44.13097" lon="6.33156">
        <ele>914.042</ele>
        <time>2022-08-24T17:32:31Z</time>
      </trkpt>
      <trkpt lat="44.13114" lon="6.33145">
        <ele>912.025</ele>
        <time>2022-08-24T17:32:33Z</time>
      </trkpt>
      <trkpt lat="44.13123" lon="6.33139">
        <ele>911.638</ele>
        <time>2022-08-24T17:32:34Z</time>
      </trkpt>
      <trkpt lat="44.1313" lon="6.33133">
        <ele>911.064</ele>
        <time>2022-08-24T17:32:35Z</time>
      </trkpt>
      <trkpt lat="44.13138" lon="6.33125">
        <ele>910.028</ele>
        <time>2022-08-24T17:32:36Z</time>
      </trkpt>
      <trkpt lat="44.13153" lon="6.33111">
        <ele>908.421</ele>
        <time>2022-08-24T17:32:38Z</time>
      </trkpt>
      <trkpt lat="44.13169" lon="6.33095">
        <ele>907.245</ele>
        <time>2022-08-24T17:32:40Z</time>
      </trkpt>
      <trkpt lat="44.13183" lon="6.33079">
        <ele>906.447</ele>
        <time>2022-08-24T17:32:42Z</time>
      </trkpt>
      <trkpt lat="44.13191" lon="6.33074">
        <ele>905.611</ele>
        <time>2022-08-24T17:32:43Z</time>
      </trkpt>
      <trkpt lat="44.132" lon="6.33072">
        <ele>905.009</ele>
        <time>2022-08-24T17:32:44Z</time>
      </trkpt>
      <trkpt lat="44.13209" lon="6.33071">
        <ele>904.235</ele>
        <time>2022-08-24T17:32:45Z</time>
      </trkpt>
      <trkpt lat="44.13227" lon="6.33072">
        <ele>903.255</ele>
        <time>2022-08-24T17:32:47Z</time>
      </trkpt>
      <trkpt lat="44.13236" lon="6.33075">
        <ele>902.215</ele>
        <time>2022-08-24T17:32:48Z</time>
      </trkpt>
      <trkpt lat="44.13253" lon="6.33086">
        <ele>901.061</ele>
        <time>2022-08-24T17:32:50Z</time>
      </trkpt>
      <trkpt lat="44.13261" lon="6.3309">
        <ele>900.444</ele>
        <time>2022-08-24T17:32:51Z</time>
      </trkpt>
      <trkpt lat="44.13269" lon="6.33093">
        <ele>900.017</ele>
        <time>2022-08-24T17:32:52Z</time>
      </trkpt>
      <trkpt lat="44.13278" lon="6.33094">
        <ele>899.213</ele>
        <time>2022-08-24T17:32:53Z</time>
      </trkpt>
      <trkpt lat="44.13287" lon="6.33094">
        <ele>899.067</ele>
        <time>2022-08-24T17:32:54Z</time>
      </trkpt>
      <trkpt lat="44.13304" lon="6.33093">
        <ele>898.05</ele>
        <time>2022-08-24T17:32:56Z</time>
      </trkpt>
      <trkpt lat="44.13312" lon="6.33093">
        <ele>897.665</ele>
        <time>2022-08-24T17:32:57Z</time>
      </trkpt>
      <trkpt lat="44.1332" lon="6.33094">
        <ele>897.068</ele>
        <time>2022-08-24T17:32:58Z</time>
      </trkpt>
      <trkpt lat="44.13333" lon="6.33102">
        <ele>896.414</ele>
        <time>2022-08-24T17:33:00Z</time>
      </trkpt>
      <trkpt lat="44.13344" lon="6.33112">
        <ele>895.209</ele>
        <time>2022-08-24T17:33:02Z</time>
      </trkpt>
      <trkpt lat="44.1335" lon="6.33112">
        <ele>894.497</ele>
        <time>2022-08-24T17:33:03Z</time>
      </trkpt>
      <trkpt lat="44.13356" lon="6.33107">
        <ele>893.847</ele>
        <time>2022-08-24T17:33:04Z</time>
      </trkpt>
      <trkpt lat="44.13362" lon="6.33102">
        <ele>892.897</ele>
        <time>2022-08-24T17:33:05Z</time>
      </trkpt>
      <trkpt lat="44.13368" lon="6.33098">
        <ele>892.063</ele>
        <time>2022-08-24T17:33:06Z</time>
      </trkpt>
      <trkpt lat="44.13375" lon="6.33094">
        <ele>891.236</ele>
        <time>2022-08-24T17:33:07Z</time>
      </trkpt>
      <trkpt lat="44.13387" lon="6.33089">
        <ele>890.499</ele>
        <time>2022-08-24T17:33:09Z</time>
      </trkpt>
      <trkpt lat="44.13397" lon="6.33086">
        <ele>890.015</ele>
        <time>2022-08-24T17:33:11Z</time>
      </trkpt>
      <trkpt lat="44.13401" lon="6.33079">
        <ele>889.619</ele>
        <time>2022-08-24T17:33:13Z</time>
      </trkpt>
      <trkpt lat="44.134" lon="6.33076">
        <ele>889.412</ele>
        <time>2022-08-24T17:33:14Z</time>
      </trkpt>
      <trkpt lat="44.13391" lon="6.33074">
        <ele>889.088</ele>
        <time>2022-08-24T17:33:16Z</time>
      </trkpt>
      <trkpt lat="44.13386" lon="6.33076">
        <ele>888.824</ele>
        <time>2022-08-24T17:33:17Z</time>
      </trkpt>
      <trkpt lat="44.1338" lon="6.33078">
        <ele>888.226</ele>
        <time>2022-08-24T17:33:18Z</time>
      </trkpt>
      <trkpt lat="44.13373" lon="6.3308">
        <ele>887.809</ele>
        <time>2022-08-24T17:33:19Z</time>
      </trkpt>
      <trkpt lat="44.13366" lon="6.33078">
        <ele>885.819</ele>
        <time>2022-08-24T17:33:20Z</time>
      </trkpt>
      <trkpt lat="44.1336" lon="6.33073">
        <ele>885.019</ele>
        <time>2022-08-24T17:33:21Z</time>
      </trkpt>
      <trkpt lat="44.13354" lon="6.33067">
        <ele>884.469</ele>
        <time>2022-08-24T17:33:22Z</time>
      </trkpt>
      <trkpt lat="44.13342" lon="6.33052">
        <ele>883.845</ele>
        <time>2022-08-24T17:33:24Z</time>
      </trkpt>
      <trkpt lat="44.13339" lon="6.33031">
        <ele>884.428</ele>
        <time>2022-08-24T17:33:26Z</time>
      </trkpt>
      <trkpt lat="44.13346" lon="6.33011">
        <ele>884.041</ele>
        <time>2022-08-24T17:33:28Z</time>
      </trkpt>
      <trkpt lat="44.13351" lon="6.33003">
        <ele>883.017</ele>
        <time>2022-08-24T17:33:29Z</time>
      </trkpt>
      <trkpt lat="44.13357" lon="6.32997">
        <ele>883.021</ele>
        <time>2022-08-24T17:33:30Z</time>
      </trkpt>
      <trkpt lat="44.13364" lon="6.32996">
        <ele>883.844</ele>
        <time>2022-08-24T17:33:31Z</time>
      </trkpt>
      <trkpt lat="44.13371" lon="6.32998">
        <ele>884.248</ele>
        <time>2022-08-24T17:33:32Z</time>
      </trkpt>
      <trkpt lat="44.13384" lon="6.33003">
        <ele>884.661</ele>
        <time>2022-08-24T17:33:34Z</time>
      </trkpt>
      <trkpt lat="44.13399" lon="6.33006">
        <ele>884.617</ele>
        <time>2022-08-24T17:33:36Z</time>
      </trkpt>
      <trkpt lat="44.13412" lon="6.33011">
        <ele>884.609</ele>
        <time>2022-08-24T17:33:38Z</time>
      </trkpt>
      <trkpt lat="44.13424" lon="6.33022">
        <ele>883.455</ele>
        <time>2022-08-24T17:33:40Z</time>
      </trkpt>
      <trkpt lat="44.13429" lon="6.3303">
        <ele>881.885</ele>
        <time>2022-08-24T17:33:41Z</time>
      </trkpt>
      <trkpt lat="44.13438" lon="6.33047">
        <ele>880.695</ele>
        <time>2022-08-24T17:33:43Z</time>
      </trkpt>
      <trkpt lat="44.13448" lon="6.33064">
        <ele>879.891</ele>
        <time>2022-08-24T17:33:45Z</time>
      </trkpt>
      <trkpt lat="44.13453" lon="6.33071">
        <ele>879.064</ele>
        <time>2022-08-24T17:33:46Z</time>
      </trkpt>
      <trkpt lat="44.13459" lon="6.33073">
        <ele>878.427</ele>
        <time>2022-08-24T17:33:47Z</time>
      </trkpt>
      <trkpt lat="44.13465" lon="6.33072">
        <ele>878.213</ele>
        <time>2022-08-24T17:33:48Z</time>
      </trkpt>
      <trkpt lat="44.1347" lon="6.33066">
        <ele>877.627</ele>
        <time>2022-08-24T17:33:49Z</time>
      </trkpt>
      <trkpt lat="44.13474" lon="6.33059">
        <ele>877.02</ele>
        <time>2022-08-24T17:33:50Z</time>
      </trkpt>
      <trkpt lat="44.13479" lon="6.33041">
        <ele>876.489</ele>
        <time>2022-08-24T17:33:52Z</time>
      </trkpt>
      <trkpt lat="44.13485" lon="6.33023">
        <ele>875.806</ele>
        <time>2022-08-24T17:33:54Z</time>
      </trkpt>
      <trkpt lat="44.13489" lon="6.33015">
        <ele>875.226</ele>
        <time>2022-08-24T17:33:55Z</time>
      </trkpt>
      <trkpt lat="44.13496" lon="6.32998">
        <ele>873.809</ele>
        <time>2022-08-24T17:33:57Z</time>
      </trkpt>
      <trkpt lat="44.13496" lon="6.32989">
        <ele>873.019</ele>
        <time>2022-08-24T17:33:58Z</time>
      </trkpt>
      <trkpt lat="44.13493" lon="6.3298">
        <ele>872.659</ele>
        <time>2022-08-24T17:33:59Z</time>
      </trkpt>
      <trkpt lat="44.13486" lon="6.32963">
        <ele>872.049</ele>
        <time>2022-08-24T17:34:01Z</time>
      </trkpt>
      <trkpt lat="44.13487" lon="6.32943">
        <ele>871.055</ele>
        <time>2022-08-24T17:34:03Z</time>
      </trkpt>
      <trkpt lat="44.13495" lon="6.32926">
        <ele>870.078</ele>
        <time>2022-08-24T17:34:05Z</time>
      </trkpt>
      <trkpt lat="44.13503" lon="6.3291">
        <ele>868.841</ele>
        <time>2022-08-24T17:34:07Z</time>
      </trkpt>
      <trkpt lat="44.13513" lon="6.32893">
        <ele>867.897</ele>
        <time>2022-08-24T17:34:09Z</time>
      </trkpt>
      <trkpt lat="44.13517" lon="6.32884">
        <ele>867.861</ele>
        <time>2022-08-24T17:34:10Z</time>
      </trkpt>
      <trkpt lat="44.1352" lon="6.32874">
        <ele>867.064</ele>
        <time>2022-08-24T17:34:11Z</time>
      </trkpt>
      <trkpt lat="44.13523" lon="6.32863">
        <ele>866.475</ele>
        <time>2022-08-24T17:34:12Z</time>
      </trkpt>
      <trkpt lat="44.13529" lon="6.32842">
        <ele>865.028</ele>
        <time>2022-08-24T17:34:14Z</time>
      </trkpt>
      <trkpt lat="44.13531" lon="6.32832">
        <ele>864.22</ele>
        <time>2022-08-24T17:34:15Z</time>
      </trkpt>
      <trkpt lat="44.13531" lon="6.32821">
        <ele>863.609</ele>
        <time>2022-08-24T17:34:16Z</time>
      </trkpt>
      <trkpt lat="44.1353" lon="6.3281">
        <ele>863.488</ele>
        <time>2022-08-24T17:34:17Z</time>
      </trkpt>
      <trkpt lat="44.13525" lon="6.32788">
        <ele>861.868</ele>
        <time>2022-08-24T17:34:19Z</time>
      </trkpt>
      <trkpt lat="44.13521" lon="6.32775">
        <ele>860.648</ele>
        <time>2022-08-24T17:34:20Z</time>
      </trkpt>
      <trkpt lat="44.13517" lon="6.32763">
        <ele>859.624</ele>
        <time>2022-08-24T17:34:21Z</time>
      </trkpt>
      <trkpt lat="44.13514" lon="6.3275">
        <ele>858.867</ele>
        <time>2022-08-24T17:34:22Z</time>
      </trkpt>
      <trkpt lat="44.1351" lon="6.32738">
        <ele>858.44</ele>
        <time>2022-08-24T17:34:23Z</time>
      </trkpt>
      <trkpt lat="44.13505" lon="6.32726">
        <ele>857.846</ele>
        <time>2022-08-24T17:34:24Z</time>
      </trkpt>
      <trkpt lat="44.13496" lon="6.32702">
        <ele>857.04</ele>
        <time>2022-08-24T17:34:26Z</time>
      </trkpt>
      <trkpt lat="44.13491" lon="6.3269">
        <ele>856.063</ele>
        <time>2022-08-24T17:34:27Z</time>
      </trkpt>
      <trkpt lat="44.13489" lon="6.32678">
        <ele>855.293</ele>
        <time>2022-08-24T17:34:28Z</time>
      </trkpt>
      <trkpt lat="44.13488" lon="6.32666">
        <ele>854.865</ele>
        <time>2022-08-24T17:34:29Z</time>
      </trkpt>
      <trkpt lat="44.13495" lon="6.32646">
        <ele>854.421</ele>
        <time>2022-08-24T17:34:31Z</time>
      </trkpt>
      <trkpt lat="44.13499" lon="6.32636">
        <ele>854.209</ele>
        <time>2022-08-24T17:34:32Z</time>
      </trkpt>
      <trkpt lat="44.13507" lon="6.32619">
        <ele>853.42</ele>
        <time>2022-08-24T17:34:34Z</time>
      </trkpt>
      <trkpt lat="44.13509" lon="6.32611">
        <ele>852.83</ele>
        <time>2022-08-24T17:34:35Z</time>
      </trkpt>
      <trkpt lat="44.13511" lon="6.32603">
        <ele>852.25</ele>
        <time>2022-08-24T17:34:36Z</time>
      </trkpt>
      <trkpt lat="44.13512" lon="6.32594">
        <ele>851.656</ele>
        <time>2022-08-24T17:34:37Z</time>
      </trkpt>
      <trkpt lat="44.13512" lon="6.32586">
        <ele>850.619</ele>
        <time>2022-08-24T17:34:38Z</time>
      </trkpt>
      <trkpt lat="44.13511" lon="6.32576">
        <ele>849.482</ele>
        <time>2022-08-24T17:34:39Z</time>
      </trkpt>
      <trkpt lat="44.1351" lon="6.32565">
        <ele>847.818</ele>
        <time>2022-08-24T17:34:40Z</time>
      </trkpt>
      <trkpt lat="44.13508" lon="6.32555">
        <ele>846.622</ele>
        <time>2022-08-24T17:34:41Z</time>
      </trkpt>
      <trkpt lat="44.13507" lon="6.32539">
        <ele>845.635</ele>
        <time>2022-08-24T17:34:43Z</time>
      </trkpt>
      <trkpt lat="44.13507" lon="6.32532">
        <ele>845.691</ele>
        <time>2022-08-24T17:34:44Z</time>
      </trkpt>
      <trkpt lat="44.13503" lon="6.32524">
        <ele>847.081</ele>
        <time>2022-08-24T17:34:46Z</time>
      </trkpt>
      <trkpt lat="44.13502" lon="6.3252">
        <ele>848.819</ele>
        <time>2022-08-24T17:34:47Z</time>
      </trkpt>
      <trkpt lat="44.13498" lon="6.32515">
        <ele>850.009</ele>
        <time>2022-08-24T17:34:49Z</time>
      </trkpt>
      <trkpt lat="44.13495" lon="6.3251">
        <ele>850.66</ele>
        <time>2022-08-24T17:34:51Z</time>
      </trkpt>
      <trkpt lat="44.13494" lon="6.32509">
        <ele>851.41</ele>
        <time>2022-08-24T17:34:53Z</time>
      </trkpt>
      <trkpt lat="44.13494" lon="6.3251">
        <ele>851.62</ele>
        <time>2022-08-24T17:34:54Z</time>
      </trkpt>
      <trkpt lat="44.13483" lon="6.32514">
        <ele>850.416</ele>
        <time>2022-08-24T17:37:38Z</time>
      </trkpt>
      <trkpt lat="44.13481" lon="6.32512">
        <ele>850.469</ele>
        <time>2022-08-24T17:37:39Z</time>
      </trkpt>
      <trkpt lat="44.13471" lon="6.32509">
        <ele>851.072</ele>
        <time>2022-08-24T17:37:43Z</time>
      </trkpt>
      <trkpt lat="44.13464" lon="6.32505">
        <ele>852.648</ele>
        <time>2022-08-24T17:37:46Z</time>
      </trkpt>
      <trkpt lat="44.13459" lon="6.32501">
        <ele>854.082</ele>
        <time>2022-08-24T17:37:48Z</time>
      </trkpt>
      <trkpt lat="44.13458" lon="6.32499">
        <ele>854.685</ele>
        <time>2022-08-24T17:37:49Z</time>
      </trkpt>
      <trkpt lat="44.13456" lon="6.32497">
        <ele>855.091</ele>
        <time>2022-08-24T17:37:50Z</time>
      </trkpt>
      <trkpt lat="44.13451" lon="6.32483">
        <ele>855.881</ele>
        <time>2022-08-24T17:37:54Z</time>
      </trkpt>
      <trkpt lat="44.13451" lon="6.3248">
        <ele>856.219</ele>
        <time>2022-08-24T17:37:55Z</time>
      </trkpt>
      <trkpt lat="44.13449" lon="6.32469">
        <ele>857.009</ele>
        <time>2022-08-24T17:37:58Z</time>
      </trkpt>
      <trkpt lat="44.13448" lon="6.32465">
        <ele>857.27</ele>
        <time>2022-08-24T17:37:59Z</time>
      </trkpt>
      <trkpt lat="44.13445" lon="6.32458">
        <ele>857.89</ele>
        <time>2022-08-24T17:38:01Z</time>
      </trkpt>
      <trkpt lat="44.13443" lon="6.3245">
        <ele>858.48</ele>
        <time>2022-08-24T17:38:03Z</time>
      </trkpt>
      <trkpt lat="44.13442" lon="6.32439">
        <ele>859.226</ele>
        <time>2022-08-24T17:38:06Z</time>
      </trkpt>
      <trkpt lat="44.13443" lon="6.32436">
        <ele>859.429</ele>
        <time>2022-08-24T17:38:07Z</time>
      </trkpt>
      <trkpt lat="44.13444" lon="6.32428">
        <ele>860.082</ele>
        <time>2022-08-24T17:38:09Z</time>
      </trkpt>
      <trkpt lat="44.13445" lon="6.32421">
        <ele>860.698</ele>
        <time>2022-08-24T17:38:11Z</time>
      </trkpt>
      <trkpt lat="44.13445" lon="6.32417">
        <ele>860.892</ele>
        <time>2022-08-24T17:38:12Z</time>
      </trkpt>
      <trkpt lat="44.13444" lon="6.32407">
        <ele>861.895</ele>
        <time>2022-08-24T17:38:15Z</time>
      </trkpt>
      <trkpt lat="44.1344" lon="6.32402">
        <ele>862.685</ele>
        <time>2022-08-24T17:38:17Z</time>
      </trkpt>
      <trkpt lat="44.13436" lon="6.32396">
        <ele>863.089</ele>
        <time>2022-08-24T17:38:19Z</time>
      </trkpt>
      <trkpt lat="44.13428" lon="6.32386">
        <ele>864.017</ele>
        <time>2022-08-24T17:38:23Z</time>
      </trkpt>
      <trkpt lat="44.13427" lon="6.32383">
        <ele>864.209</ele>
        <time>2022-08-24T17:38:24Z</time>
      </trkpt>
      <trkpt lat="44.13422" lon="6.32369">
        <ele>865.649</ele>
        <time>2022-08-24T17:38:28Z</time>
      </trkpt>
      <trkpt lat="44.13421" lon="6.32352">
        <ele>866.859</ele>
        <time>2022-08-24T17:38:33Z</time>
      </trkpt>
      <trkpt lat="44.13419" lon="6.32341">
        <ele>868.019</ele>
        <time>2022-08-24T17:38:36Z</time>
      </trkpt>
      <trkpt lat="44.13418" lon="6.32333">
        <ele>868.685</ele>
        <time>2022-08-24T17:38:38Z</time>
      </trkpt>
      <trkpt lat="44.13416" lon="6.32323">
        <ele>869.268</ele>
        <time>2022-08-24T17:38:41Z</time>
      </trkpt>
      <trkpt lat="44.13415" lon="6.32312">
        <ele>869.831</ele>
        <time>2022-08-24T17:38:44Z</time>
      </trkpt>
      <trkpt lat="44.13414" lon="6.32309">
        <ele>870.657</ele>
        <time>2022-08-24T17:38:45Z</time>
      </trkpt>
      <trkpt lat="44.13413" lon="6.32298">
        <ele>871.611</ele>
        <time>2022-08-24T17:38:48Z</time>
      </trkpt>
      <trkpt lat="44.13414" lon="6.3229">
        <ele>872.034</ele>
        <time>2022-08-24T17:38:50Z</time>
      </trkpt>
      <trkpt lat="44.13414" lon="6.32282">
        <ele>872.826</ele>
        <time>2022-08-24T17:38:52Z</time>
      </trkpt>
      <trkpt lat="44.13413" lon="6.32266">
        <ele>873.647</ele>
        <time>2022-08-24T17:38:56Z</time>
      </trkpt>
      <trkpt lat="44.13412" lon="6.32262">
        <ele>873.811</ele>
        <time>2022-08-24T17:38:57Z</time>
      </trkpt>
      <trkpt lat="44.13408" lon="6.32248">
        <ele>875.009</ele>
        <time>2022-08-24T17:39:01Z</time>
      </trkpt>
      <trkpt lat="44.13406" lon="6.32241">
        <ele>876.063</ele>
        <time>2022-08-24T17:39:03Z</time>
      </trkpt>
      <trkpt lat="44.13405" lon="6.32237">
        <ele>876.253</ele>
        <time>2022-08-24T17:39:04Z</time>
      </trkpt>
      <trkpt lat="44.13403" lon="6.32225">
        <ele>877.473</ele>
        <time>2022-08-24T17:39:07Z</time>
      </trkpt>
      <trkpt lat="44.13404" lon="6.32217">
        <ele>877.879</ele>
        <time>2022-08-24T17:39:09Z</time>
      </trkpt>
      <trkpt lat="44.13406" lon="6.3221">
        <ele>878.832</ele>
        <time>2022-08-24T17:39:11Z</time>
      </trkpt>
      <trkpt lat="44.13406" lon="6.32199">
        <ele>879.875</ele>
        <time>2022-08-24T17:39:14Z</time>
      </trkpt>
      <trkpt lat="44.13405" lon="6.32195">
        <ele>880.431</ele>
        <time>2022-08-24T17:39:15Z</time>
      </trkpt>
      <trkpt lat="44.13401" lon="6.32184">
        <ele>880.875</ele>
        <time>2022-08-24T17:39:18Z</time>
      </trkpt>
      <trkpt lat="44.13399" lon="6.32173">
        <ele>882.088</ele>
        <time>2022-08-24T17:39:21Z</time>
      </trkpt>
      <trkpt lat="44.13396" lon="6.32155">
        <ele>883.498</ele>
        <time>2022-08-24T17:39:26Z</time>
      </trkpt>
      <trkpt lat="44.13395" lon="6.32152">
        <ele>883.815</ele>
        <time>2022-08-24T17:39:27Z</time>
      </trkpt>
      <trkpt lat="44.13395" lon="6.32142">
        <ele>884.626</ele>
        <time>2022-08-24T17:39:30Z</time>
      </trkpt>
      <trkpt lat="44.13397" lon="6.32129">
        <ele>885.409</ele>
        <time>2022-08-24T17:39:34Z</time>
      </trkpt>
      <trkpt lat="44.13397" lon="6.32126">
        <ele>886.04</ele>
        <time>2022-08-24T17:39:35Z</time>
      </trkpt>
      <trkpt lat="44.13403" lon="6.32116">
        <ele>887.45</ele>
        <time>2022-08-24T17:39:38Z</time>
      </trkpt>
      <trkpt lat="44.13405" lon="6.32114">
        <ele>887.66</ele>
        <time>2022-08-24T17:39:39Z</time>
      </trkpt>
      <trkpt lat="44.13412" lon="6.32105">
        <ele>888.696</ele>
        <time>2022-08-24T17:39:42Z</time>
      </trkpt>
      <trkpt lat="44.13413" lon="6.32098">
        <ele>889.089</ele>
        <time>2022-08-24T17:39:44Z</time>
      </trkpt>
      <trkpt lat="44.13412" lon="6.32091">
        <ele>889.622</ele>
        <time>2022-08-24T17:39:46Z</time>
      </trkpt>
      <trkpt lat="44.13409" lon="6.32081">
        <ele>890.428</ele>
        <time>2022-08-24T17:39:49Z</time>
      </trkpt>
      <trkpt lat="44.13407" lon="6.32077">
        <ele>890.872</ele>
        <time>2022-08-24T17:39:50Z</time>
      </trkpt>
      <trkpt lat="44.13402" lon="6.32063">
        <ele>892.035</ele>
        <time>2022-08-24T17:39:54Z</time>
      </trkpt>
      <trkpt lat="44.13399" lon="6.32053">
        <ele>892.861</ele>
        <time>2022-08-24T17:39:57Z</time>
      </trkpt>
      <trkpt lat="44.13399" lon="6.32049">
        <ele>893.221</ele>
        <time>2022-08-24T17:39:58Z</time>
      </trkpt>
      <trkpt lat="44.13403" lon="6.32033">
        <ele>893.813</ele>
        <time>2022-08-24T17:40:02Z</time>
      </trkpt>
      <trkpt lat="44.13408" lon="6.32028">
        <ele>894.409</ele>
        <time>2022-08-24T17:40:04Z</time>
      </trkpt>
      <trkpt lat="44.13415" lon="6.32021">
        <ele>895.057</ele>
        <time>2022-08-24T17:40:07Z</time>
      </trkpt>
      <trkpt lat="44.13419" lon="6.32017">
        <ele>895.457</ele>
        <time>2022-08-24T17:40:09Z</time>
      </trkpt>
      <trkpt lat="44.13423" lon="6.32004">
        <ele>896.677</ele>
        <time>2022-08-24T17:40:13Z</time>
      </trkpt>
      <trkpt lat="44.1342" lon="6.31993">
        <ele>897.833</ele>
        <time>2022-08-24T17:40:16Z</time>
      </trkpt>
      <trkpt lat="44.13418" lon="6.31987">
        <ele>898.896</ele>
        <time>2022-08-24T17:40:18Z</time>
      </trkpt>
      <trkpt lat="44.13416" lon="6.31984">
        <ele>899.069</ele>
        <time>2022-08-24T17:40:19Z</time>
      </trkpt>
      <trkpt lat="44.1341" lon="6.31967">
        <ele>900.275</ele>
        <time>2022-08-24T17:40:24Z</time>
      </trkpt>
      <trkpt lat="44.13408" lon="6.31964">
        <ele>900.279</ele>
        <time>2022-08-24T17:40:25Z</time>
      </trkpt>
      <trkpt lat="44.13404" lon="6.31957">
        <ele>901.222</ele>
        <time>2022-08-24T17:40:28Z</time>
      </trkpt>
      <trkpt lat="44.13397" lon="6.31951">
        <ele>902.614</ele>
        <time>2022-08-24T17:40:31Z</time>
      </trkpt>
      <trkpt lat="44.13386" lon="6.3194">
        <ele>903.654</ele>
        <time>2022-08-24T17:40:36Z</time>
      </trkpt>
      <trkpt lat="44.13382" lon="6.3193">
        <ele>904.209</ele>
        <time>2022-08-24T17:40:39Z</time>
      </trkpt>
      <trkpt lat="44.13381" lon="6.31926">
        <ele>905.009</ele>
        <time>2022-08-24T17:40:40Z</time>
      </trkpt>
      <trkpt lat="44.13379" lon="6.31915">
        <ele>906.282</ele>
        <time>2022-08-24T17:40:43Z</time>
      </trkpt>
      <trkpt lat="44.13374" lon="6.319">
        <ele>907.262</ele>
        <time>2022-08-24T17:40:47Z</time>
      </trkpt>
      <trkpt lat="44.13373" lon="6.31888">
        <ele>908.442</ele>
        <time>2022-08-24T17:40:50Z</time>
      </trkpt>
      <trkpt lat="44.13373" lon="6.31876">
        <ele>909.618</ele>
        <time>2022-08-24T17:40:53Z</time>
      </trkpt>
      <trkpt lat="44.13373" lon="6.31873">
        <ele>910.051</ele>
        <time>2022-08-24T17:40:54Z</time>
      </trkpt>
      <trkpt lat="44.13371" lon="6.31862">
        <ele>910.854</ele>
        <time>2022-08-24T17:40:57Z</time>
      </trkpt>
      <trkpt lat="44.13369" lon="6.31845">
        <ele>911.82</ele>
        <time>2022-08-24T17:41:01Z</time>
      </trkpt>
      <trkpt lat="44.13368" lon="6.31841">
        <ele>912.024</ele>
        <time>2022-08-24T17:41:02Z</time>
      </trkpt>
      <trkpt lat="44.13367" lon="6.31829">
        <ele>913.047</ele>
        <time>2022-08-24T17:41:05Z</time>
      </trkpt>
      <trkpt lat="44.13364" lon="6.31818">
        <ele>914.038</ele>
        <time>2022-08-24T17:41:08Z</time>
      </trkpt>
      <trkpt lat="44.13364" lon="6.31814">
        <ele>914.27</ele>
        <time>2022-08-24T17:41:09Z</time>
      </trkpt>
      <trkpt lat="44.13363" lon="6.318">
        <ele>915.217</ele>
        <time>2022-08-24T17:41:13Z</time>
      </trkpt>
      <trkpt lat="44.13363" lon="6.31797">
        <ele>915.409</ele>
        <time>2022-08-24T17:41:14Z</time>
      </trkpt>
      <trkpt lat="44.13362" lon="6.3179">
        <ele>916.434</ele>
        <time>2022-08-24T17:41:16Z</time>
      </trkpt>
      <trkpt lat="44.13359" lon="6.31777">
        <ele>917.674</ele>
        <time>2022-08-24T17:41:20Z</time>
      </trkpt>
      <trkpt lat="44.13358" lon="6.31774">
        <ele>918.064</ele>
        <time>2022-08-24T17:41:21Z</time>
      </trkpt>
      <trkpt lat="44.13354" lon="6.3176">
        <ele>919.05</ele>
        <time>2022-08-24T17:41:25Z</time>
      </trkpt>
      <trkpt lat="44.13351" lon="6.31746">
        <ele>920.273</ele>
        <time>2022-08-24T17:41:29Z</time>
      </trkpt>
      <trkpt lat="44.1335" lon="6.31743">
        <ele>920.486</ele>
        <time>2022-08-24T17:41:30Z</time>
      </trkpt>
      <trkpt lat="44.13348" lon="6.3173">
        <ele>921.262</ele>
        <time>2022-08-24T17:41:34Z</time>
      </trkpt>
      <trkpt lat="44.13347" lon="6.31727">
        <ele>921.446</ele>
        <time>2022-08-24T17:41:35Z</time>
      </trkpt>
      <trkpt lat="44.13337" lon="6.31712">
        <ele>922.499</ele>
        <time>2022-08-24T17:41:41Z</time>
      </trkpt>
      <trkpt lat="44.1333" lon="6.31704">
        <ele>923.839</ele>
        <time>2022-08-24T17:41:45Z</time>
      </trkpt>
      <trkpt lat="44.13327" lon="6.317">
        <ele>924.601</ele>
        <time>2022-08-24T17:41:47Z</time>
      </trkpt>
      <trkpt lat="44.13326" lon="6.317">
        <ele>925.021</ele>
        <time>2022-08-24T17:41:48Z</time>
      </trkpt>
      <trkpt lat="44.13322" lon="6.31697">
        <ele>925.409</ele>
        <time>2022-08-24T17:41:52Z</time>
      </trkpt>
      <trkpt lat="44.13321" lon="6.31694">
        <ele>926.064</ele>
        <time>2022-08-24T17:41:55Z</time>
      </trkpt>
      <trkpt lat="44.13314" lon="6.31693">
        <ele>924.834</ele>
        <time>2022-08-24T17:42:50Z</time>
      </trkpt>
      <trkpt lat="44.13311" lon="6.31691">
        <ele>925.274</ele>
        <time>2022-08-24T17:42:51Z</time>
      </trkpt>
      <trkpt lat="44.13306" lon="6.31687">
        <ele>926.07</ele>
        <time>2022-08-24T17:42:53Z</time>
      </trkpt>
      <trkpt lat="44.13302" lon="6.31681">
        <ele>926.423</ele>
        <time>2022-08-24T17:42:55Z</time>
      </trkpt>
      <trkpt lat="44.133" lon="6.31678">
        <ele>927.016</ele>
        <time>2022-08-24T17:42:56Z</time>
      </trkpt>
      <trkpt lat="44.13294" lon="6.31668">
        <ele>928.062</ele>
        <time>2022-08-24T17:42:59Z</time>
      </trkpt>
      <trkpt lat="44.13292" lon="6.31666">
        <ele>928.016</ele>
        <time>2022-08-24T17:43:00Z</time>
      </trkpt>
      <trkpt lat="44.13289" lon="6.31663">
        <ele>928.499</ele>
        <time>2022-08-24T17:43:01Z</time>
      </trkpt>
      <trkpt lat="44.13287" lon="6.31662">
        <ele>929.253</ele>
        <time>2022-08-24T17:43:02Z</time>
      </trkpt>
      <trkpt lat="44.13278" lon="6.31658">
        <ele>930.204</ele>
        <time>2022-08-24T17:43:05Z</time>
      </trkpt>
      <trkpt lat="44.13267" lon="6.31653">
        <ele>931.014</ele>
        <time>2022-08-24T17:43:09Z</time>
      </trkpt>
      <trkpt lat="44.13264" lon="6.31651">
        <ele>931.209</ele>
        <time>2022-08-24T17:43:10Z</time>
      </trkpt>
      <trkpt lat="44.13255" lon="6.31639">
        <ele>932.286</ele>
        <time>2022-08-24T17:43:14Z</time>
      </trkpt>
      <trkpt lat="44.13253" lon="6.31637">
        <ele>932.446</ele>
        <time>2022-08-24T17:43:15Z</time>
      </trkpt>
      <trkpt lat="44.13243" lon="6.31629">
        <ele>933.266</ele>
        <time>2022-08-24T17:43:19Z</time>
      </trkpt>
      <trkpt lat="44.13234" lon="6.31625">
        <ele>934.022</ele>
        <time>2022-08-24T17:43:22Z</time>
      </trkpt>
      <trkpt lat="44.13218" lon="6.31611">
        <ele>934.025</ele>
        <time>2022-08-24T17:43:28Z</time>
      </trkpt>
      <trkpt lat="44.13206" lon="6.31591">
        <ele>934.298</ele>
        <time>2022-08-24T17:43:34Z</time>
      </trkpt>
      <trkpt lat="44.13204" lon="6.31588">
        <ele>934.684</ele>
        <time>2022-08-24T17:43:35Z</time>
      </trkpt>
      <trkpt lat="44.13201" lon="6.31582">
        <ele>935.468</ele>
        <time>2022-08-24T17:43:37Z</time>
      </trkpt>
      <trkpt lat="44.13195" lon="6.31568">
        <ele>936.491</ele>
        <time>2022-08-24T17:43:41Z</time>
      </trkpt>
      <trkpt lat="44.13193" lon="6.31564">
        <ele>936.619</ele>
        <time>2022-08-24T17:43:42Z</time>
      </trkpt>
      <trkpt lat="44.1319" lon="6.31544">
        <ele>937.609</ele>
        <time>2022-08-24T17:43:47Z</time>
      </trkpt>
      <trkpt lat="44.1319" lon="6.3154">
        <ele>937.819</ele>
        <time>2022-08-24T17:43:48Z</time>
      </trkpt>
      <trkpt lat="44.1319" lon="6.31525">
        <ele>938.809</ele>
        <time>2022-08-24T17:43:52Z</time>
      </trkpt>
      <trkpt lat="44.13189" lon="6.31513">
        <ele>940.032</ele>
        <time>2022-08-24T17:43:55Z</time>
      </trkpt>
      <trkpt lat="44.13188" lon="6.31502">
        <ele>941.072</ele>
        <time>2022-08-24T17:43:58Z</time>
      </trkpt>
      <trkpt lat="44.13185" lon="6.31479">
        <ele>942.282</ele>
        <time>2022-08-24T17:44:04Z</time>
      </trkpt>
      <trkpt lat="44.13184" lon="6.31475">
        <ele>942.458</ele>
        <time>2022-08-24T17:44:05Z</time>
      </trkpt>
      <trkpt lat="44.13178" lon="6.31448">
        <ele>943.661</ele>
        <time>2022-08-24T17:44:12Z</time>
      </trkpt>
      <trkpt lat="44.13176" lon="6.3144">
        <ele>944.234</ele>
        <time>2022-08-24T17:44:14Z</time>
      </trkpt>
      <trkpt lat="44.13174" lon="6.31434">
        <ele>944.64</ele>
        <time>2022-08-24T17:44:16Z</time>
      </trkpt>
      <trkpt lat="44.13167" lon="6.31425">
        <ele>945.064</ele>
        <time>2022-08-24T17:44:19Z</time>
      </trkpt>
      <trkpt lat="44.13162" lon="6.31418">
        <ele>945.897</ele>
        <time>2022-08-24T17:44:21Z</time>
      </trkpt>
      <trkpt lat="44.13159" lon="6.31408">
        <ele>946.278</ele>
        <time>2022-08-24T17:44:23Z</time>
      </trkpt>
      <trkpt lat="44.13154" lon="6.31367">
        <ele>945.233</ele>
        <time>2022-08-24T17:44:30Z</time>
      </trkpt>
      <trkpt lat="44.13147" lon="6.3132">
        <ele>945.226</ele>
        <time>2022-08-24T17:44:37Z</time>
      </trkpt>
      <trkpt lat="44.13145" lon="6.31307">
        <ele>945.809</ele>
        <time>2022-08-24T17:44:39Z</time>
      </trkpt>
      <trkpt lat="44.13147" lon="6.31293">
        <ele>946.258</ele>
        <time>2022-08-24T17:44:41Z</time>
      </trkpt>
      <trkpt lat="44.13151" lon="6.31282">
        <ele>946.468</ele>
        <time>2022-08-24T17:44:43Z</time>
      </trkpt>
      <trkpt lat="44.13157" lon="6.31275">
        <ele>946.638</ele>
        <time>2022-08-24T17:44:45Z</time>
      </trkpt>
      <trkpt lat="44.13159" lon="6.31273">
        <ele>946.874</ele>
        <time>2022-08-24T17:44:46Z</time>
      </trkpt>
      <trkpt lat="44.13167" lon="6.31269">
        <ele>947.697</ele>
        <time>2022-08-24T17:44:50Z</time>
      </trkpt>
      <trkpt lat="44.13168" lon="6.31269">
        <ele>948.08</ele>
        <time>2022-08-24T17:44:51Z</time>
      </trkpt>
      <trkpt lat="44.13172" lon="6.31265">
        <ele>948.296</ele>
        <time>2022-08-24T17:44:55Z</time>
      </trkpt>
      <trkpt lat="44.13173" lon="6.31263">
        <ele>948.05</ele>
        <time>2022-08-24T17:44:56Z</time>
      </trkpt>
      <trkpt lat="44.13174" lon="6.31256">
        <ele>947.863</ele>
        <time>2022-08-24T17:44:58Z</time>
      </trkpt>
      <trkpt lat="44.13175" lon="6.31248">
        <ele>947.692</ele>
        <time>2022-08-24T17:45:00Z</time>
      </trkpt>
      <trkpt lat="44.13174" lon="6.31244">
        <ele>947.073</ele>
        <time>2022-08-24T17:45:01Z</time>
      </trkpt>
      <trkpt lat="44.13173" lon="6.31238">
        <ele>946.22</ele>
        <time>2022-08-24T17:45:02Z</time>
      </trkpt>
      <trkpt lat="44.13172" lon="6.31233">
        <ele>945.209</ele>
        <time>2022-08-24T17:45:03Z</time>
      </trkpt>
      <trkpt lat="44.13169" lon="6.31228">
        <ele>944.24</ele>
        <time>2022-08-24T17:45:04Z</time>
      </trkpt>
      <trkpt lat="44.13165" lon="6.31224">
        <ele>943.85</ele>
        <time>2022-08-24T17:45:05Z</time>
      </trkpt>
      <trkpt lat="44.13155" lon="6.31222">
        <ele>943.07</ele>
        <time>2022-08-24T17:45:07Z</time>
      </trkpt>
      <trkpt lat="44.1315" lon="6.31223">
        <ele>942.826</ele>
        <time>2022-08-24T17:45:08Z</time>
      </trkpt>
      <trkpt lat="44.1314" lon="6.31226">
        <ele>942.669</ele>
        <time>2022-08-24T17:45:10Z</time>
      </trkpt>
      <trkpt lat="44.13133" lon="6.31225">
        <ele>942.412</ele>
        <time>2022-08-24T17:45:12Z</time>
      </trkpt>
      <trkpt lat="44.13129" lon="6.31224">
        <ele>942.418</ele>
        <time>2022-08-24T17:45:13Z</time>
      </trkpt>
      <trkpt lat="44.13119" lon="6.31222">
        <ele>942.022</ele>
        <time>2022-08-24T17:45:15Z</time>
      </trkpt>
      <trkpt lat="44.13114" lon="6.3122">
        <ele>941.845</ele>
        <time>2022-08-24T17:45:16Z</time>
      </trkpt>
      <trkpt lat="44.13108" lon="6.31217">
        <ele>940.612</ele>
        <time>2022-08-24T17:45:17Z</time>
      </trkpt>
      <trkpt lat="44.13102" lon="6.31211">
        <ele>939.032</ele>
        <time>2022-08-24T17:45:18Z</time>
      </trkpt>
      <trkpt lat="44.13097" lon="6.31203">
        <ele>937.805</ele>
        <time>2022-08-24T17:45:19Z</time>
      </trkpt>
      <trkpt lat="44.13087" lon="6.31189">
        <ele>935.809</ele>
        <time>2022-08-24T17:45:21Z</time>
      </trkpt>
      <trkpt lat="44.13081" lon="6.31184">
        <ele>934.692</ele>
        <time>2022-08-24T17:45:22Z</time>
      </trkpt>
      <trkpt lat="44.13075" lon="6.31182">
        <ele>934.032</ele>
        <time>2022-08-24T17:45:23Z</time>
      </trkpt>
      <trkpt lat="44.13062" lon="6.31181">
        <ele>933.822</ele>
        <time>2022-08-24T17:45:26Z</time>
      </trkpt>
      <trkpt lat="44.13057" lon="6.31182">
        <ele>934.278</ele>
        <time>2022-08-24T17:45:30Z</time>
      </trkpt>
      <trkpt lat="44.13054" lon="6.31188">
        <ele>934.411</ele>
        <time>2022-08-24T17:45:50Z</time>
      </trkpt>
      <trkpt lat="44.13051" lon="6.31193">
        <ele>934.074</ele>
        <time>2022-08-24T17:45:51Z</time>
      </trkpt>
      <trkpt lat="44.13047" lon="6.31199">
        <ele>933.25</ele>
        <time>2022-08-24T17:45:52Z</time>
      </trkpt>
      <trkpt lat="44.13041" lon="6.31203">
        <ele>932.264</ele>
        <time>2022-08-24T17:45:53Z</time>
      </trkpt>
      <trkpt lat="44.13035" lon="6.31206">
        <ele>930.647</ele>
        <time>2022-08-24T17:45:54Z</time>
      </trkpt>
      <trkpt lat="44.13021" lon="6.3121">
        <ele>929.275</ele>
        <time>2022-08-24T17:45:56Z</time>
      </trkpt>
      <trkpt lat="44.13005" lon="6.31213">
        <ele>928.228</ele>
        <time>2022-08-24T17:45:58Z</time>
      </trkpt>
      <trkpt lat="44.12998" lon="6.31218">
        <ele>928.02</ele>
        <time>2022-08-24T17:45:59Z</time>
      </trkpt>
      <trkpt lat="44.12992" lon="6.31225">
        <ele>928.009</ele>
        <time>2022-08-24T17:46:00Z</time>
      </trkpt>
      <trkpt lat="44.12974" lon="6.31244">
        <ele>927.878</ele>
        <time>2022-08-24T17:46:03Z</time>
      </trkpt>
      <trkpt lat="44.12956" lon="6.3125">
        <ele>927.868</ele>
        <time>2022-08-24T17:46:06Z</time>
      </trkpt>
      <trkpt lat="44.1295" lon="6.31253">
        <ele>927.438</ele>
        <time>2022-08-24T17:46:07Z</time>
      </trkpt>
      <trkpt lat="44.12941" lon="6.3126">
        <ele>927.494</ele>
        <time>2022-08-24T17:46:09Z</time>
      </trkpt>
      <trkpt lat="44.12936" lon="6.31265">
        <ele>927.277</ele>
        <time>2022-08-24T17:46:10Z</time>
      </trkpt>
      <trkpt lat="44.12916" lon="6.31293">
        <ele>929.47</ele>
        <time>2022-08-24T17:46:15Z</time>
      </trkpt>
      <trkpt lat="44.12913" lon="6.31298">
        <ele>929.866</ele>
        <time>2022-08-24T17:46:16Z</time>
      </trkpt>
      <trkpt lat="44.12909" lon="6.31304">
        <ele>930.04</ele>
        <time>2022-08-24T17:46:17Z</time>
      </trkpt>
      <trkpt lat="44.12897" lon="6.31319">
        <ele>930.463</ele>
        <time>2022-08-24T17:46:20Z</time>
      </trkpt>
      <trkpt lat="44.12893" lon="6.31324">
        <ele>931.025</ele>
        <time>2022-08-24T17:46:21Z</time>
      </trkpt>
      <trkpt lat="44.12889" lon="6.31329">
        <ele>931.426</ele>
        <time>2022-08-24T17:46:22Z</time>
      </trkpt>
      <trkpt lat="44.12885" lon="6.31334">
        <ele>931.808</ele>
        <time>2022-08-24T17:46:23Z</time>
      </trkpt>
      <trkpt lat="44.12882" lon="6.31338">
        <ele>932.009</ele>
        <time>2022-08-24T17:46:24Z</time>
      </trkpt>
      <trkpt lat="44.12877" lon="6.3135">
        <ele>932.473</ele>
        <time>2022-08-24T17:46:26Z</time>
      </trkpt>
      <trkpt lat="44.12876" lon="6.31356">
        <ele>933.093</ele>
        <time>2022-08-24T17:46:27Z</time>
      </trkpt>
      <trkpt lat="44.12874" lon="6.31362">
        <ele>933.293</ele>
        <time>2022-08-24T17:46:28Z</time>
      </trkpt>
      <trkpt lat="44.12871" lon="6.31373">
        <ele>933.879</ele>
        <time>2022-08-24T17:46:30Z</time>
      </trkpt>
      <trkpt lat="44.12867" lon="6.31384">
        <ele>934.412</ele>
        <time>2022-08-24T17:46:32Z</time>
      </trkpt>
      <trkpt lat="44.12865" lon="6.31389">
        <ele>934.635</ele>
        <time>2022-08-24T17:46:33Z</time>
      </trkpt>
      <trkpt lat="44.12861" lon="6.31399">
        <ele>935.471</ele>
        <time>2022-08-24T17:46:35Z</time>
      </trkpt>
      <trkpt lat="44.12855" lon="6.31407">
        <ele>936.085</ele>
        <time>2022-08-24T17:46:37Z</time>
      </trkpt>
      <trkpt lat="44.12851" lon="6.3141">
        <ele>936.288</ele>
        <time>2022-08-24T17:46:38Z</time>
      </trkpt>
      <trkpt lat="44.12844" lon="6.31414">
        <ele>936.879</ele>
        <time>2022-08-24T17:46:40Z</time>
      </trkpt>
      <trkpt lat="44.12829" lon="6.31424">
        <ele>938.405</ele>
        <time>2022-08-24T17:46:44Z</time>
      </trkpt>
      <trkpt lat="44.12818" lon="6.31429">
        <ele>939.825</ele>
        <time>2022-08-24T17:46:47Z</time>
      </trkpt>
      <trkpt lat="44.12812" lon="6.31434">
        <ele>941.409</ele>
        <time>2022-08-24T17:46:49Z</time>
      </trkpt>
      <trkpt lat="44.12804" lon="6.31445">
        <ele>942.668</ele>
        <time>2022-08-24T17:46:53Z</time>
      </trkpt>
      <trkpt lat="44.12803" lon="6.31449">
        <ele>943.098</ele>
        <time>2022-08-24T17:46:54Z</time>
      </trkpt>
      <trkpt lat="44.12798" lon="6.31465">
        <ele>944.298</ele>
        <time>2022-08-24T17:46:58Z</time>
      </trkpt>
      <trkpt lat="44.12795" lon="6.31475">
        <ele>945.254</ele>
        <time>2022-08-24T17:47:01Z</time>
      </trkpt>
      <trkpt lat="44.12791" lon="6.31484">
        <ele>946.477</ele>
        <time>2022-08-24T17:47:04Z</time>
      </trkpt>
      <trkpt lat="44.12787" lon="6.31493">
        <ele>947.05</ele>
        <time>2022-08-24T17:47:07Z</time>
      </trkpt>
      <trkpt lat="44.12784" lon="6.31499">
        <ele>947.646</ele>
        <time>2022-08-24T17:47:09Z</time>
      </trkpt>
      <trkpt lat="44.12779" lon="6.31511">
        <ele>948.43</ele>
        <time>2022-08-24T17:47:13Z</time>
      </trkpt>
      <trkpt lat="44.12778" lon="6.31515">
        <ele>948.653</ele>
        <time>2022-08-24T17:47:14Z</time>
      </trkpt>
      <trkpt lat="44.12775" lon="6.31529">
        <ele>949.627</ele>
        <time>2022-08-24T17:47:18Z</time>
      </trkpt>
      <trkpt lat="44.12773" lon="6.31536">
        <ele>950.868</ele>
        <time>2022-08-24T17:47:20Z</time>
      </trkpt>
      <trkpt lat="44.12773" lon="6.31539">
        <ele>951.014</ele>
        <time>2022-08-24T17:47:21Z</time>
      </trkpt>
      <trkpt lat="44.12773" lon="6.31546">
        <ele>951.209</ele>
        <time>2022-08-24T17:47:23Z</time>
      </trkpt>
      <trkpt lat="44.12772" lon="6.31558">
        <ele>951.843</ele>
        <time>2022-08-24T17:47:26Z</time>
      </trkpt>
      <trkpt lat="44.1277" lon="6.31562">
        <ele>952.263</ele>
        <time>2022-08-24T17:47:27Z</time>
      </trkpt>
      <trkpt lat="44.12766" lon="6.31566">
        <ele>952.233</ele>
        <time>2022-08-24T17:47:29Z</time>
      </trkpt>
      <trkpt lat="44.12761" lon="6.31567">
        <ele>953.239</ele>
        <time>2022-08-24T17:47:31Z</time>
      </trkpt>
      <trkpt lat="44.12753" lon="6.31565">
        <ele>953.682</ele>
        <time>2022-08-24T17:47:34Z</time>
      </trkpt>
      <trkpt lat="44.12751" lon="6.31564">
        <ele>954.065</ele>
        <time>2022-08-24T17:47:35Z</time>
      </trkpt>
      <trkpt lat="44.12748" lon="6.31562">
        <ele>954.051</ele>
        <time>2022-08-24T17:47:36Z</time>
      </trkpt>
      <trkpt lat="44.12745" lon="6.31559">
        <ele>954.065</ele>
        <time>2022-08-24T17:47:37Z</time>
      </trkpt>
      <trkpt lat="44.12733" lon="6.31547">
        <ele>954.038</ele>
        <time>2022-08-24T17:47:41Z</time>
      </trkpt>
      <trkpt lat="44.1273" lon="6.31543">
        <ele>954.289</ele>
        <time>2022-08-24T17:47:42Z</time>
      </trkpt>
      <trkpt lat="44.12721" lon="6.31535">
        <ele>954.606</ele>
        <time>2022-08-24T17:47:45Z</time>
      </trkpt>
      <trkpt lat="44.12713" lon="6.31532">
        <ele>954.626</ele>
        <time>2022-08-24T17:47:47Z</time>
      </trkpt>
      <trkpt lat="44.12705" lon="6.31533">
        <ele>955.409</ele>
        <time>2022-08-24T17:47:49Z</time>
      </trkpt>
      <trkpt lat="44.12693" lon="6.31548">
        <ele>955.889</ele>
        <time>2022-08-24T17:47:53Z</time>
      </trkpt>
      <trkpt lat="44.12683" lon="6.31565">
        <ele>955.479</ele>
        <time>2022-08-24T17:47:57Z</time>
      </trkpt>
      <trkpt lat="44.12679" lon="6.31576">
        <ele>954.679</ele>
        <time>2022-08-24T17:47:59Z</time>
      </trkpt>
      <trkpt lat="44.12676" lon="6.31582">
        <ele>954.265</ele>
        <time>2022-08-24T17:48:00Z</time>
      </trkpt>
      <trkpt lat="44.1267" lon="6.31593">
        <ele>953.448</ele>
        <time>2022-08-24T17:48:02Z</time>
      </trkpt>
      <trkpt lat="44.12667" lon="6.31599">
        <ele>952.661</ele>
        <time>2022-08-24T17:48:03Z</time>
      </trkpt>
      <trkpt lat="44.12663" lon="6.31604">
        <ele>952.637</ele>
        <time>2022-08-24T17:48:04Z</time>
      </trkpt>
      <trkpt lat="44.12655" lon="6.31616">
        <ele>950.811</ele>
        <time>2022-08-24T17:48:06Z</time>
      </trkpt>
      <trkpt lat="44.12645" lon="6.31629">
        <ele>949.414</ele>
        <time>2022-08-24T17:48:08Z</time>
      </trkpt>
      <trkpt lat="44.12634" lon="6.3164">
        <ele>948.429</ele>
        <time>2022-08-24T17:48:10Z</time>
      </trkpt>
      <trkpt lat="44.12619" lon="6.31647">
        <ele>947.4</ele>
        <time>2022-08-24T17:48:12Z</time>
      </trkpt>
      <trkpt lat="44.12602" lon="6.31653">
        <ele>945.82</ele>
        <time>2022-08-24T17:48:14Z</time>
      </trkpt>
      <trkpt lat="44.12596" lon="6.31656">
        <ele>944.609</ele>
        <time>2022-08-24T17:48:15Z</time>
      </trkpt>
      <trkpt lat="44.12592" lon="6.31662">
        <ele>943.693</ele>
        <time>2022-08-24T17:48:16Z</time>
      </trkpt>
      <trkpt lat="44.12588" lon="6.3167">
        <ele>943.033</ele>
        <time>2022-08-24T17:48:17Z</time>
      </trkpt>
      <trkpt lat="44.12582" lon="6.31688">
        <ele>942.663</ele>
        <time>2022-08-24T17:48:19Z</time>
      </trkpt>
      <trkpt lat="44.12573" lon="6.31697">
        <ele>942.669</ele>
        <time>2022-08-24T17:48:21Z</time>
      </trkpt>
      <trkpt lat="44.12569" lon="6.31695">
        <ele>943.062</ele>
        <time>2022-08-24T17:48:22Z</time>
      </trkpt>
      <trkpt lat="44.12565" lon="6.3168">
        <ele>944.015</ele>
        <time>2022-08-24T17:48:25Z</time>
      </trkpt>
      <trkpt lat="44.12564" lon="6.31673">
        <ele>944.081</ele>
        <time>2022-08-24T17:48:26Z</time>
      </trkpt>
      <trkpt lat="44.12564" lon="6.31658">
        <ele>943.865</ele>
        <time>2022-08-24T17:48:28Z</time>
      </trkpt>
      <trkpt lat="44.12565" lon="6.3165">
        <ele>943.448</ele>
        <time>2022-08-24T17:48:29Z</time>
      </trkpt>
      <trkpt lat="44.12567" lon="6.31642">
        <ele>943.077</ele>
        <time>2022-08-24T17:48:30Z</time>
      </trkpt>
      <trkpt lat="44.12571" lon="6.31625">
        <ele>941.461</ele>
        <time>2022-08-24T17:48:32Z</time>
      </trkpt>
      <trkpt lat="44.12574" lon="6.31616">
        <ele>940.627</ele>
        <time>2022-08-24T17:48:33Z</time>
      </trkpt>
      <trkpt lat="44.12578" lon="6.31606">
        <ele>940.409</ele>
        <time>2022-08-24T17:48:34Z</time>
      </trkpt>
      <trkpt lat="44.12582" lon="6.31597">
        <ele>939.048</ele>
        <time>2022-08-24T17:48:35Z</time>
      </trkpt>
      <trkpt lat="44.1259" lon="6.31578">
        <ele>936.898</ele>
        <time>2022-08-24T17:48:37Z</time>
      </trkpt>
      <trkpt lat="44.12591" lon="6.31568">
        <ele>936.048</ele>
        <time>2022-08-24T17:48:38Z</time>
      </trkpt>
      <trkpt lat="44.12589" lon="6.31558">
        <ele>935.494</ele>
        <time>2022-08-24T17:48:39Z</time>
      </trkpt>
      <trkpt lat="44.12584" lon="6.31538">
        <ele>933.477</ele>
        <time>2022-08-24T17:48:41Z</time>
      </trkpt>
      <trkpt lat="44.12576" lon="6.31518">
        <ele>931.85</ele>
        <time>2022-08-24T17:48:43Z</time>
      </trkpt>
      <trkpt lat="44.12567" lon="6.31497">
        <ele>930.446</ele>
        <time>2022-08-24T17:48:45Z</time>
      </trkpt>
      <trkpt lat="44.12563" lon="6.31487">
        <ele>929.44</ele>
        <time>2022-08-24T17:48:46Z</time>
      </trkpt>
      <trkpt lat="44.12558" lon="6.31477">
        <ele>928.413</ele>
        <time>2022-08-24T17:48:47Z</time>
      </trkpt>
      <trkpt lat="44.12555" lon="6.31468">
        <ele>927.678</ele>
        <time>2022-08-24T17:48:48Z</time>
      </trkpt>
      <trkpt lat="44.12552" lon="6.31459">
        <ele>927.033</ele>
        <time>2022-08-24T17:48:49Z</time>
      </trkpt>
      <trkpt lat="44.12548" lon="6.31452">
        <ele>926.426</ele>
        <time>2022-08-24T17:48:50Z</time>
      </trkpt>
      <trkpt lat="44.12542" lon="6.31448">
        <ele>925.809</ele>
        <time>2022-08-24T17:48:51Z</time>
      </trkpt>
      <trkpt lat="44.12535" lon="6.31447">
        <ele>925.488</ele>
        <time>2022-08-24T17:48:52Z</time>
      </trkpt>
      <trkpt lat="44.12528" lon="6.31447">
        <ele>925.238</ele>
        <time>2022-08-24T17:48:53Z</time>
      </trkpt>
      <trkpt lat="44.12503" lon="6.31446">
        <ele>924.418</ele>
        <time>2022-08-24T17:48:56Z</time>
      </trkpt>
      <trkpt lat="44.12494" lon="6.31448">
        <ele>923.424</ele>
        <time>2022-08-24T17:48:57Z</time>
      </trkpt>
      <trkpt lat="44.12486" lon="6.31449">
        <ele>922.227</ele>
        <time>2022-08-24T17:48:58Z</time>
      </trkpt>
      <trkpt lat="44.12479" lon="6.31448">
        <ele>920.88</ele>
        <time>2022-08-24T17:48:59Z</time>
      </trkpt>
      <trkpt lat="44.12471" lon="6.31444">
        <ele>919.816</ele>
        <time>2022-08-24T17:49:00Z</time>
      </trkpt>
      <trkpt lat="44.12456" lon="6.31434">
        <ele>918.45</ele>
        <time>2022-08-24T17:49:02Z</time>
      </trkpt>
      <trkpt lat="44.12437" lon="6.31426">
        <ele>917.233</ele>
        <time>2022-08-24T17:49:04Z</time>
      </trkpt>
      <trkpt lat="44.12428" lon="6.3142">
        <ele>916.285</ele>
        <time>2022-08-24T17:49:05Z</time>
      </trkpt>
      <trkpt lat="44.1242" lon="6.31412">
        <ele>914.689</ele>
        <time>2022-08-24T17:49:06Z</time>
      </trkpt>
      <trkpt lat="44.12413" lon="6.31402">
        <ele>913.417</ele>
        <time>2022-08-24T17:49:07Z</time>
      </trkpt>
      <trkpt lat="44.12405" lon="6.31392">
        <ele>912.809</ele>
        <time>2022-08-24T17:49:08Z</time>
      </trkpt>
      <trkpt lat="44.12397" lon="6.31383">
        <ele>911.619</ele>
        <time>2022-08-24T17:49:09Z</time>
      </trkpt>
      <trkpt lat="44.1239" lon="6.31374">
        <ele>910.679</ele>
        <time>2022-08-24T17:49:10Z</time>
      </trkpt>
      <trkpt lat="44.12383" lon="6.31365">
        <ele>908.669</ele>
        <time>2022-08-24T17:49:11Z</time>
      </trkpt>
      <trkpt lat="44.12375" lon="6.3136">
        <ele>907.295</ele>
        <time>2022-08-24T17:49:12Z</time>
      </trkpt>
      <trkpt lat="44.12366" lon="6.31356">
        <ele>906.418</ele>
        <time>2022-08-24T17:49:13Z</time>
      </trkpt>
      <trkpt lat="44.12357" lon="6.31354">
        <ele>905.691</ele>
        <time>2022-08-24T17:49:14Z</time>
      </trkpt>
      <trkpt lat="44.12348" lon="6.31353">
        <ele>905.217</ele>
        <time>2022-08-24T17:49:15Z</time>
      </trkpt>
      <trkpt lat="44.1234" lon="6.31353">
        <ele>904.821</ele>
        <time>2022-08-24T17:49:16Z</time>
      </trkpt>
      <trkpt lat="44.12328" lon="6.31354">
        <ele>905.634</ele>
        <time>2022-08-24T17:49:18Z</time>
      </trkpt>
      <trkpt lat="44.12325" lon="6.31352">
        <ele>906.099</ele>
        <time>2022-08-24T17:49:19Z</time>
      </trkpt>
      <trkpt lat="44.12324" lon="6.31348">
        <ele>905.407</ele>
        <time>2022-08-24T17:49:20Z</time>
      </trkpt>
      <trkpt lat="44.12325" lon="6.31337">
        <ele>905.027</ele>
        <time>2022-08-24T17:49:22Z</time>
      </trkpt>
      <trkpt lat="44.12336" lon="6.31323">
        <ele>905.209</ele>
        <time>2022-08-24T17:49:26Z</time>
      </trkpt>
      <trkpt lat="44.1235" lon="6.31316">
        <ele>906.85</ele>
        <time>2022-08-24T17:49:31Z</time>
      </trkpt>
      <trkpt lat="44.12355" lon="6.31313">
        <ele>907.24</ele>
        <time>2022-08-24T17:49:33Z</time>
      </trkpt>
      <trkpt lat="44.12365" lon="6.31309">
        <ele>908.45</ele>
        <time>2022-08-24T17:49:37Z</time>
      </trkpt>
      <trkpt lat="44.12369" lon="6.31307">
        <ele>909.416</ele>
        <time>2022-08-24T17:49:39Z</time>
      </trkpt>
      <trkpt lat="44.12371" lon="6.31306">
        <ele>909.849</ele>
        <time>2022-08-24T17:49:40Z</time>
      </trkpt>
      <trkpt lat="44.12374" lon="6.31305">
        <ele>910.022</ele>
        <time>2022-08-24T17:49:41Z</time>
      </trkpt>
      <trkpt lat="44.1238" lon="6.31303">
        <ele>910.628</ele>
        <time>2022-08-24T17:49:43Z</time>
      </trkpt>
      <trkpt lat="44.12383" lon="6.31301">
        <ele>910.832</ele>
        <time>2022-08-24T17:49:44Z</time>
      </trkpt>
      <trkpt lat="44.12385" lon="6.313">
        <ele>911.275</ele>
        <time>2022-08-24T17:49:45Z</time>
      </trkpt>
      <trkpt lat="44.12395" lon="6.31296">
        <ele>911.879</ele>
        <time>2022-08-24T17:49:49Z</time>
      </trkpt>
      <trkpt lat="44.12398" lon="6.31295">
        <ele>912.005</ele>
        <time>2022-08-24T17:49:50Z</time>
      </trkpt>
      <trkpt lat="44.12413" lon="6.31291">
        <ele>913.825</ele>
        <time>2022-08-24T17:49:56Z</time>
      </trkpt>
      <trkpt lat="44.12424" lon="6.31287">
        <ele>915.009</ele>
        <time>2022-08-24T17:50:00Z</time>
      </trkpt>
      <trkpt lat="44.12431" lon="6.31286">
        <ele>916.068</ele>
        <time>2022-08-24T17:50:03Z</time>
      </trkpt>
      <trkpt lat="44.12437" lon="6.31285">
        <ele>916.698</ele>
        <time>2022-08-24T17:50:05Z</time>
      </trkpt>
      <trkpt lat="44.12441" lon="6.31283">
        <ele>917.288</ele>
        <time>2022-08-24T17:50:07Z</time>
      </trkpt>
      <trkpt lat="44.12453" lon="6.31274">
        <ele>917.884</ele>
        <time>2022-08-24T17:50:12Z</time>
      </trkpt>
      <trkpt lat="44.12457" lon="6.3127">
        <ele>918.687</ele>
        <time>2022-08-24T17:50:14Z</time>
      </trkpt>
      <trkpt lat="44.12467" lon="6.31259">
        <ele>919.66</ele>
        <time>2022-08-24T17:50:19Z</time>
      </trkpt>
      <trkpt lat="44.12469" lon="6.31257">
        <ele>919.876</ele>
        <time>2022-08-24T17:50:20Z</time>
      </trkpt>
      <trkpt lat="44.12475" lon="6.3125">
        <ele>921.24</ele>
        <time>2022-08-24T17:50:23Z</time>
      </trkpt>
      <trkpt lat="44.12481" lon="6.31243">
        <ele>922.033</ele>
        <time>2022-08-24T17:50:26Z</time>
      </trkpt>
      <trkpt lat="44.12484" lon="6.31239">
        <ele>922.244</ele>
        <time>2022-08-24T17:50:28Z</time>
      </trkpt>
      <trkpt lat="44.12489" lon="6.31234">
        <ele>923.405</ele>
        <time>2022-08-24T17:50:30Z</time>
      </trkpt>
      <trkpt lat="44.12493" lon="6.3123">
        <ele>924.215</ele>
        <time>2022-08-24T17:50:32Z</time>
      </trkpt>
      <trkpt lat="44.12495" lon="6.31228">
        <ele>924.409</ele>
        <time>2022-08-24T17:50:33Z</time>
      </trkpt>
      <trkpt lat="44.12509" lon="6.31217">
        <ele>925.615</ele>
        <time>2022-08-24T17:50:39Z</time>
      </trkpt>
      <trkpt lat="44.12516" lon="6.31206">
        <ele>926.895</ele>
        <time>2022-08-24T17:50:43Z</time>
      </trkpt>
      <trkpt lat="44.12518" lon="6.312">
        <ele>927.655</ele>
        <time>2022-08-24T17:50:45Z</time>
      </trkpt>
      <trkpt lat="44.12519" lon="6.31196">
        <ele>928.081</ele>
        <time>2022-08-24T17:50:46Z</time>
      </trkpt>
      <trkpt lat="44.12521" lon="6.31181">
        <ele>929.264</ele>
        <time>2022-08-24T17:50:50Z</time>
      </trkpt>
      <trkpt lat="44.12522" lon="6.3117">
        <ele>929.867</ele>
        <time>2022-08-24T17:50:53Z</time>
      </trkpt>
      <trkpt lat="44.12523" lon="6.31159">
        <ele>930.493</ele>
        <time>2022-08-24T17:50:56Z</time>
      </trkpt>
      <trkpt lat="44.12525" lon="6.31144">
        <ele>931.447</ele>
        <time>2022-08-24T17:51:00Z</time>
      </trkpt>
      <trkpt lat="44.12526" lon="6.31136">
        <ele>932.02</ele>
        <time>2022-08-24T17:51:02Z</time>
      </trkpt>
      <trkpt lat="44.12527" lon="6.31129">
        <ele>932.889</ele>
        <time>2022-08-24T17:51:04Z</time>
      </trkpt>
      <trkpt lat="44.12528" lon="6.31118">
        <ele>934.206</ele>
        <time>2022-08-24T17:51:07Z</time>
      </trkpt>
      <trkpt lat="44.12529" lon="6.3111">
        <ele>935.226</ele>
        <time>2022-08-24T17:51:09Z</time>
      </trkpt>
      <trkpt lat="44.12529" lon="6.31107">
        <ele>935.409</ele>
        <time>2022-08-24T17:51:10Z</time>
      </trkpt>
      <trkpt lat="44.1253" lon="6.31089">
        <ele>936.429</ele>
        <time>2022-08-24T17:51:15Z</time>
      </trkpt>
      <trkpt lat="44.12531" lon="6.31085">
        <ele>936.429</ele>
        <time>2022-08-24T17:51:16Z</time>
      </trkpt>
      <trkpt lat="44.12531" lon="6.31078">
        <ele>937.899</ele>
        <time>2022-08-24T17:51:18Z</time>
      </trkpt>
      <trkpt lat="44.12532" lon="6.31068">
        <ele>938.485</ele>
        <time>2022-08-24T17:51:21Z</time>
      </trkpt>
      <trkpt lat="44.12532" lon="6.31057">
        <ele>938.898</ele>
        <time>2022-08-24T17:51:24Z</time>
      </trkpt>
      <trkpt lat="44.12532" lon="6.31042">
        <ele>940.051</ele>
        <time>2022-08-24T17:51:28Z</time>
      </trkpt>
      <trkpt lat="44.12532" lon="6.31039">
        <ele>940.477</ele>
        <time>2022-08-24T17:51:29Z</time>
      </trkpt>
      <trkpt lat="44.12531" lon="6.31031">
        <ele>941.461</ele>
        <time>2022-08-24T17:51:31Z</time>
      </trkpt>
      <trkpt lat="44.1253" lon="6.31018">
        <ele>942.644</ele>
        <time>2022-08-24T17:51:35Z</time>
      </trkpt>
      <trkpt lat="44.12528" lon="6.31005">
        <ele>943.442</ele>
        <time>2022-08-24T17:51:39Z</time>
      </trkpt>
      <trkpt lat="44.12526" lon="6.30996">
        <ele>943.822</ele>
        <time>2022-08-24T17:51:42Z</time>
      </trkpt>
      <trkpt lat="44.12524" lon="6.30984">
        <ele>944.614</ele>
        <time>2022-08-24T17:51:46Z</time>
      </trkpt>
      <trkpt lat="44.12523" lon="6.3098">
        <ele>945.409</ele>
        <time>2022-08-24T17:51:47Z</time>
      </trkpt>
      <trkpt lat="44.12522" lon="6.30974">
        <ele>946.655</ele>
        <time>2022-08-24T17:51:49Z</time>
      </trkpt>
      <trkpt lat="44.12518" lon="6.30961">
        <ele>947.055</ele>
        <time>2022-08-24T17:51:53Z</time>
      </trkpt>
      <trkpt lat="44.12516" lon="6.30955">
        <ele>948.235</ele>
        <time>2022-08-24T17:51:55Z</time>
      </trkpt>
      <trkpt lat="44.12514" lon="6.30949">
        <ele>949.481</ele>
        <time>2022-08-24T17:51:57Z</time>
      </trkpt>
      <trkpt lat="44.1251" lon="6.30933">
        <ele>950.044</ele>
        <time>2022-08-24T17:52:02Z</time>
      </trkpt>
      <trkpt lat="44.12505" lon="6.30917">
        <ele>950.697</ele>
        <time>2022-08-24T17:52:07Z</time>
      </trkpt>
      <trkpt lat="44.12502" lon="6.30909">
        <ele>951.453</ele>
        <time>2022-08-24T17:52:10Z</time>
      </trkpt>
      <trkpt lat="44.125" lon="6.30907">
        <ele>952.057</ele>
        <time>2022-08-24T17:52:11Z</time>
      </trkpt>
      <trkpt lat="44.12496" lon="6.30908">
        <ele>952.41</ele>
        <time>2022-08-24T17:52:13Z</time>
      </trkpt>
      <trkpt lat="44.12495" lon="6.3091">
        <ele>952.689</ele>
        <time>2022-08-24T17:52:14Z</time>
      </trkpt>
      <trkpt lat="44.12494" lon="6.30918">
        <ele>953.006</ele>
        <time>2022-08-24T17:52:17Z</time>
      </trkpt>
      <trkpt lat="44.12495" lon="6.30924">
        <ele>953.426</ele>
        <time>2022-08-24T17:52:19Z</time>
      </trkpt>
      <trkpt lat="44.12498" lon="6.30942">
        <ele>954.209</ele>
        <time>2022-08-24T17:52:25Z</time>
      </trkpt>
      <trkpt lat="44.12499" lon="6.30948">
        <ele>954.699</ele>
        <time>2022-08-24T17:52:27Z</time>
      </trkpt>
      <trkpt lat="44.12502" lon="6.30964">
        <ele>955.459</ele>
        <time>2022-08-24T17:52:32Z</time>
      </trkpt>
      <trkpt lat="44.12503" lon="6.30977">
        <ele>956.429</ele>
        <time>2022-08-24T17:52:36Z</time>
      </trkpt>
      <trkpt lat="44.12504" lon="6.3098">
        <ele>956.645</ele>
        <time>2022-08-24T17:52:37Z</time>
      </trkpt>
      <trkpt lat="44.12505" lon="6.30996">
        <ele>957.448</ele>
        <time>2022-08-24T17:52:42Z</time>
      </trkpt>
      <trkpt lat="44.12505" lon="6.31006">
        <ele>958.661</ele>
        <time>2022-08-24T17:52:45Z</time>
      </trkpt>
      <trkpt lat="44.12506" lon="6.31012">
        <ele>959.047</ele>
        <time>2022-08-24T17:52:47Z</time>
      </trkpt>
      <trkpt lat="44.12506" lon="6.31018">
        <ele>959.831</ele>
        <time>2022-08-24T17:52:49Z</time>
      </trkpt>
      <trkpt lat="44.12505" lon="6.31032">
        <ele>960.874</ele>
        <time>2022-08-24T17:52:53Z</time>
      </trkpt>
      <trkpt lat="44.12504" lon="6.31038">
        <ele>961.438</ele>
        <time>2022-08-24T17:52:55Z</time>
      </trkpt>
      <trkpt lat="44.12502" lon="6.31048">
        <ele>962.27</ele>
        <time>2022-08-24T17:52:58Z</time>
      </trkpt>
      <trkpt lat="44.12499" lon="6.31057">
        <ele>963.417</ele>
        <time>2022-08-24T17:53:01Z</time>
      </trkpt>
      <trkpt lat="44.12496" lon="6.31065">
        <ele>964.209</ele>
        <time>2022-08-24T17:53:04Z</time>
      </trkpt>
      <trkpt lat="44.12493" lon="6.31075">
        <ele>964.614</ele>
        <time>2022-08-24T17:53:07Z</time>
      </trkpt>
      <trkpt lat="44.12489" lon="6.31086">
        <ele>965.874</ele>
        <time>2022-08-24T17:53:11Z</time>
      </trkpt>
      <trkpt lat="44.12486" lon="6.31096">
        <ele>966.654</ele>
        <time>2022-08-24T17:53:14Z</time>
      </trkpt>
      <trkpt lat="44.12482" lon="6.31105">
        <ele>966.84</ele>
        <time>2022-08-24T17:53:17Z</time>
      </trkpt>
      <trkpt lat="44.12476" lon="6.31125">
        <ele>967.843</ele>
        <time>2022-08-24T17:53:23Z</time>
      </trkpt>
      <trkpt lat="44.12475" lon="6.31129">
        <ele>968.086</ele>
        <time>2022-08-24T17:53:24Z</time>
      </trkpt>
      <trkpt lat="44.1247" lon="6.31146">
        <ele>969.222</ele>
        <time>2022-08-24T17:53:29Z</time>
      </trkpt>
      <trkpt lat="44.12468" lon="6.31149">
        <ele>969.646</ele>
        <time>2022-08-24T17:53:30Z</time>
      </trkpt>
      <trkpt lat="44.12456" lon="6.31161">
        <ele>970.419</ele>
        <time>2022-08-24T17:53:36Z</time>
      </trkpt>
      <trkpt lat="44.12446" lon="6.31165">
        <ele>971.837</ele>
        <time>2022-08-24T17:53:40Z</time>
      </trkpt>
      <trkpt lat="44.12444" lon="6.31167">
        <ele>972.249</ele>
        <time>2022-08-24T17:53:41Z</time>
      </trkpt>
      <trkpt lat="44.12441" lon="6.31168">
        <ele>972.613</ele>
        <time>2022-08-24T17:53:42Z</time>
      </trkpt>
      <trkpt lat="44.12436" lon="6.3117">
        <ele>973.009</ele>
        <time>2022-08-24T17:53:44Z</time>
      </trkpt>
      <trkpt lat="44.12426" lon="6.31173">
        <ele>974.094</ele>
        <time>2022-08-24T17:53:48Z</time>
      </trkpt>
      <trkpt lat="44.12421" lon="6.31174">
        <ele>974.474</ele>
        <time>2022-08-24T17:53:50Z</time>
      </trkpt>
      <trkpt lat="44.12407" lon="6.31177">
        <ele>975.694</ele>
        <time>2022-08-24T17:53:55Z</time>
      </trkpt>
      <trkpt lat="44.12398" lon="6.31179">
        <ele>976.82</ele>
        <time>2022-08-24T17:53:58Z</time>
      </trkpt>
      <trkpt lat="44.12393" lon="6.31178">
        <ele>977.423</ele>
        <time>2022-08-24T17:54:00Z</time>
      </trkpt>
      <trkpt lat="44.12382" lon="6.31177">
        <ele>978.036</ele>
        <time>2022-08-24T17:54:04Z</time>
      </trkpt>
      <trkpt lat="44.12376" lon="6.31177">
        <ele>978.872</ele>
        <time>2022-08-24T17:54:06Z</time>
      </trkpt>
      <trkpt lat="44.12373" lon="6.31177">
        <ele>979.296</ele>
        <time>2022-08-24T17:54:07Z</time>
      </trkpt>
      <trkpt lat="44.12364" lon="6.31176">
        <ele>980.689</ele>
        <time>2022-08-24T17:54:10Z</time>
      </trkpt>
      <trkpt lat="44.12358" lon="6.31175">
        <ele>981.018</ele>
        <time>2022-08-24T17:54:12Z</time>
      </trkpt>
      <trkpt lat="44.12352" lon="6.31176">
        <ele>981.898</ele>
        <time>2022-08-24T17:54:14Z</time>
      </trkpt>
      <trkpt lat="44.1234" lon="6.31177">
        <ele>982.217</ele>
        <time>2022-08-24T17:54:18Z</time>
      </trkpt>
      <trkpt lat="44.12332" lon="6.31179">
        <ele>983.009</ele>
        <time>2022-08-24T17:54:21Z</time>
      </trkpt>
      <trkpt lat="44.12326" lon="6.31181">
        <ele>983.012</ele>
        <time>2022-08-24T17:54:23Z</time>
      </trkpt>
      <trkpt lat="44.12321" lon="6.31182">
        <ele>984.672</ele>
        <time>2022-08-24T17:54:25Z</time>
      </trkpt>
      <trkpt lat="44.12312" lon="6.31184">
        <ele>985.632</ele>
        <time>2022-08-24T17:54:28Z</time>
      </trkpt>
      <trkpt lat="44.12307" lon="6.31185">
        <ele>985.858</ele>
        <time>2022-08-24T17:54:30Z</time>
      </trkpt>
      <trkpt lat="44.12293" lon="6.31189">
        <ele>986.811</ele>
        <time>2022-08-24T17:54:35Z</time>
      </trkpt>
      <trkpt lat="44.12291" lon="6.3119">
        <ele>987.284</ele>
        <time>2022-08-24T17:54:36Z</time>
      </trkpt>
      <trkpt lat="44.12283" lon="6.31188">
        <ele>988.02</ele>
        <time>2022-08-24T17:54:39Z</time>
      </trkpt>
      <trkpt lat="44.12275" lon="6.31181">
        <ele>988.434</ele>
        <time>2022-08-24T17:54:42Z</time>
      </trkpt>
      <trkpt lat="44.12267" lon="6.31171">
        <ele>989.017</ele>
        <time>2022-08-24T17:54:45Z</time>
      </trkpt>
      <trkpt lat="44.12257" lon="6.31157">
        <ele>989.849</ele>
        <time>2022-08-24T17:54:49Z</time>
      </trkpt>
      <trkpt lat="44.12251" lon="6.3115">
        <ele>990.202</ele>
        <time>2022-08-24T17:54:51Z</time>
      </trkpt>
      <trkpt lat="44.12242" lon="6.3114">
        <ele>991.222</ele>
        <time>2022-08-24T17:54:54Z</time>
      </trkpt>
      <trkpt lat="44.12236" lon="6.31135">
        <ele>991.609</ele>
        <time>2022-08-24T17:54:56Z</time>
      </trkpt>
      <trkpt lat="44.12226" lon="6.31129">
        <ele>992.215</ele>
        <time>2022-08-24T17:54:59Z</time>
      </trkpt>
      <trkpt lat="44.12216" lon="6.31122">
        <ele>992.635</ele>
        <time>2022-08-24T17:55:02Z</time>
      </trkpt>
      <trkpt lat="44.12204" lon="6.31115">
        <ele>993.095</ele>
        <time>2022-08-24T17:55:06Z</time>
      </trkpt>
      <trkpt lat="44.12198" lon="6.31111">
        <ele>993.461</ele>
        <time>2022-08-24T17:55:08Z</time>
      </trkpt>
      <trkpt lat="44.12187" lon="6.31102">
        <ele>993.894</ele>
        <time>2022-08-24T17:55:11Z</time>
      </trkpt>
      <trkpt lat="44.12175" lon="6.31085">
        <ele>994.487</ele>
        <time>2022-08-24T17:55:15Z</time>
      </trkpt>
      <trkpt lat="44.12173" lon="6.3108">
        <ele>994.823</ele>
        <time>2022-08-24T17:55:16Z</time>
      </trkpt>
      <trkpt lat="44.12163" lon="6.31062">
        <ele>995.887</ele>
        <time>2022-08-24T17:55:20Z</time>
      </trkpt>
      <trkpt lat="44.1216" lon="6.3106">
        <ele>996.02</ele>
        <time>2022-08-24T17:55:21Z</time>
      </trkpt>
      <trkpt lat="44.12158" lon="6.3106">
        <ele>996.285</ele>
        <time>2022-08-24T17:55:22Z</time>
      </trkpt>
      <trkpt lat="44.12156" lon="6.31062">
        <ele>996.289</ele>
        <time>2022-08-24T17:55:23Z</time>
      </trkpt>
      <trkpt lat="44.12151" lon="6.31073">
        <ele>996.417</ele>
        <time>2022-08-24T17:55:26Z</time>
      </trkpt>
      <trkpt lat="44.12151" lon="6.31078">
        <ele>996.809</ele>
        <time>2022-08-24T17:55:27Z</time>
      </trkpt>
      <trkpt lat="44.12152" lon="6.31094">
        <ele>997.889</ele>
        <time>2022-08-24T17:55:31Z</time>
      </trkpt>
      <trkpt lat="44.12153" lon="6.31098">
        <ele>998.229</ele>
        <time>2022-08-24T17:55:32Z</time>
      </trkpt>
      <trkpt lat="44.12155" lon="6.31106">
        <ele>999.259</ele>
        <time>2022-08-24T17:55:34Z</time>
      </trkpt>
      <trkpt lat="44.12161" lon="6.31126">
        <ele>999.645</ele>
        <time>2022-08-24T17:55:39Z</time>
      </trkpt>
      <trkpt lat="44.12165" lon="6.31145">
        <ele>1000.238</ele>
        <time>2022-08-24T17:55:44Z</time>
      </trkpt>
      <trkpt lat="44.12167" lon="6.31149">
        <ele>1000.451</ele>
        <time>2022-08-24T17:55:45Z</time>
      </trkpt>
      <trkpt lat="44.1217" lon="6.31171">
        <ele>1001.647</ele>
        <time>2022-08-24T17:55:50Z</time>
      </trkpt>
      <trkpt lat="44.12171" lon="6.3118">
        <ele>1002.411</ele>
        <time>2022-08-24T17:55:52Z</time>
      </trkpt>
      <trkpt lat="44.12172" lon="6.31184">
        <ele>1002.664</ele>
        <time>2022-08-24T17:55:53Z</time>
      </trkpt>
      <trkpt lat="44.12172" lon="6.31198">
        <ele>1003.468</ele>
        <time>2022-08-24T17:55:56Z</time>
      </trkpt>
      <trkpt lat="44.12172" lon="6.31202">
        <ele>1003.842</ele>
        <time>2022-08-24T17:55:57Z</time>
      </trkpt>
      <trkpt lat="44.12168" lon="6.3122">
        <ele>1004.426</ele>
        <time>2022-08-24T17:56:01Z</time>
      </trkpt>
      <trkpt lat="44.12167" lon="6.31223">
        <ele>1004.809</ele>
        <time>2022-08-24T17:56:02Z</time>
      </trkpt>
      <trkpt lat="44.12158" lon="6.31243">
        <ele>1005.877</ele>
        <time>2022-08-24T17:56:07Z</time>
      </trkpt>
      <trkpt lat="44.12145" lon="6.3126">
        <ele>1006.857</ele>
        <time>2022-08-24T17:56:12Z</time>
      </trkpt>
      <trkpt lat="44.12133" lon="6.31276">
        <ele>1007.877</ele>
        <time>2022-08-24T17:56:16Z</time>
      </trkpt>
      <trkpt lat="44.1213" lon="6.3128">
        <ele>1008.013</ele>
        <time>2022-08-24T17:56:17Z</time>
      </trkpt>
      <trkpt lat="44.12122" lon="6.31292">
        <ele>1009.046</ele>
        <time>2022-08-24T17:56:20Z</time>
      </trkpt>
      <trkpt lat="44.12113" lon="6.31301">
        <ele>1009.029</ele>
        <time>2022-08-24T17:56:23Z</time>
      </trkpt>
      <trkpt lat="44.12098" lon="6.31315">
        <ele>1009.465</ele>
        <time>2022-08-24T17:56:28Z</time>
      </trkpt>
      <trkpt lat="44.12083" lon="6.31329">
        <ele>1009.879</ele>
        <time>2022-08-24T17:56:33Z</time>
      </trkpt>
      <trkpt lat="44.1208" lon="6.31331">
        <ele>1010.272</ele>
        <time>2022-08-24T17:56:34Z</time>
      </trkpt>
      <trkpt lat="44.1207" lon="6.31339">
        <ele>1011.097</ele>
        <time>2022-08-24T17:56:38Z</time>
      </trkpt>
      <trkpt lat="44.12066" lon="6.3134">
        <ele>1011.223</ele>
        <time>2022-08-24T17:56:40Z</time>
      </trkpt>
      <trkpt lat="44.1206" lon="6.31342">
        <ele>1011.625</ele>
        <time>2022-08-24T17:56:43Z</time>
      </trkpt>
      <trkpt lat="44.12048" lon="6.31341">
        <ele>1011.209</ele>
        <time>2022-08-24T17:56:49Z</time>
      </trkpt>
      <trkpt lat="44.12041" lon="6.31339">
        <ele>1011.24</ele>
        <time>2022-08-24T17:56:52Z</time>
      </trkpt>
      <trkpt lat="44.12038" lon="6.31338">
        <ele>1011.28</ele>
        <time>2022-08-24T17:56:53Z</time>
      </trkpt>
      <trkpt lat="44.12033" lon="6.31338">
        <ele>1011.43</ele>
        <time>2022-08-24T17:56:55Z</time>
      </trkpt>
      <trkpt lat="44.12027" lon="6.31338">
        <ele>1011.436</ele>
        <time>2022-08-24T17:56:57Z</time>
      </trkpt>
      <trkpt lat="44.12017" lon="6.31339">
        <ele>1010.899</ele>
        <time>2022-08-24T17:57:00Z</time>
      </trkpt>
      <trkpt lat="44.12013" lon="6.31339">
        <ele>1010.662</ele>
        <time>2022-08-24T17:57:01Z</time>
      </trkpt>
      <trkpt lat="44.12004" lon="6.31339">
        <ele>1010.818</ele>
        <time>2022-08-24T17:57:03Z</time>
      </trkpt>
      <trkpt lat="44.11991" lon="6.31344">
        <ele>1010.692</ele>
        <time>2022-08-24T17:57:06Z</time>
      </trkpt>
      <trkpt lat="44.1198" lon="6.31344">
        <ele>1010.285</ele>
        <time>2022-08-24T17:57:09Z</time>
      </trkpt>
      <trkpt lat="44.11976" lon="6.31343">
        <ele>1010.216</ele>
        <time>2022-08-24T17:57:10Z</time>
      </trkpt>
      <trkpt lat="44.11971" lon="6.31342">
        <ele>1009.676</ele>
        <time>2022-08-24T17:57:11Z</time>
      </trkpt>
      <trkpt lat="44.11967" lon="6.3134">
        <ele>1009.013</ele>
        <time>2022-08-24T17:57:12Z</time>
      </trkpt>
      <trkpt lat="44.11952" lon="6.31333">
        <ele>1007.809</ele>
        <time>2022-08-24T17:57:15Z</time>
      </trkpt>
      <trkpt lat="44.1194" lon="6.31327">
        <ele>1007.282</ele>
        <time>2022-08-24T17:57:17Z</time>
      </trkpt>
      <trkpt lat="44.11928" lon="6.31318">
        <ele>1006.622</ele>
        <time>2022-08-24T17:57:19Z</time>
      </trkpt>
      <trkpt lat="44.1191" lon="6.31301">
        <ele>1005.452</ele>
        <time>2022-08-24T17:57:22Z</time>
      </trkpt>
      <trkpt lat="44.11898" lon="6.31289">
        <ele>1003.818</ele>
        <time>2022-08-24T17:57:24Z</time>
      </trkpt>
      <trkpt lat="44.11891" lon="6.31286">
        <ele>1003.461</ele>
        <time>2022-08-24T17:57:25Z</time>
      </trkpt>
      <trkpt lat="44.11883" lon="6.31284">
        <ele>1003.254</ele>
        <time>2022-08-24T17:57:26Z</time>
      </trkpt>
      <trkpt lat="44.11869" lon="6.31275">
        <ele>1002.49</ele>
        <time>2022-08-24T17:57:28Z</time>
      </trkpt>
      <trkpt lat="44.11853" lon="6.31264">
        <ele>1000.874</ele>
        <time>2022-08-24T17:57:30Z</time>
      </trkpt>
      <trkpt lat="44.11836" lon="6.31258">
        <ele>998.877</ele>
        <time>2022-08-24T17:57:32Z</time>
      </trkpt>
      <trkpt lat="44.11819" lon="6.3125">
        <ele>997.663</ele>
        <time>2022-08-24T17:57:34Z</time>
      </trkpt>
      <trkpt lat="44.11811" lon="6.31247">
        <ele>996.844</ele>
        <time>2022-08-24T17:57:35Z</time>
      </trkpt>
      <trkpt lat="44.11802" lon="6.31245">
        <ele>996.218</ele>
        <time>2022-08-24T17:57:36Z</time>
      </trkpt>
      <trkpt lat="44.11794" lon="6.31246">
        <ele>995.809</ele>
        <time>2022-08-24T17:57:37Z</time>
      </trkpt>
      <trkpt lat="44.1178" lon="6.31254">
        <ele>995.427</ele>
        <time>2022-08-24T17:57:39Z</time>
      </trkpt>
      <trkpt lat="44.11772" lon="6.31271">
        <ele>995.477</ele>
        <time>2022-08-24T17:57:41Z</time>
      </trkpt>
      <trkpt lat="44.1177" lon="6.31282">
        <ele>995.467</ele>
        <time>2022-08-24T17:57:42Z</time>
      </trkpt>
      <trkpt lat="44.11769" lon="6.31293">
        <ele>995.283</ele>
        <time>2022-08-24T17:57:43Z</time>
      </trkpt>
      <trkpt lat="44.11767" lon="6.31315">
        <ele>995.066</ele>
        <time>2022-08-24T17:57:45Z</time>
      </trkpt>
      <trkpt lat="44.11764" lon="6.31326">
        <ele>994.869</ele>
        <time>2022-08-24T17:57:46Z</time>
      </trkpt>
      <trkpt lat="44.11757" lon="6.31348">
        <ele>993.455</ele>
        <time>2022-08-24T17:57:48Z</time>
      </trkpt>
      <trkpt lat="44.11752" lon="6.31357">
        <ele>992.019</ele>
        <time>2022-08-24T17:57:49Z</time>
      </trkpt>
      <trkpt lat="44.11746" lon="6.31364">
        <ele>991.252</ele>
        <time>2022-08-24T17:57:50Z</time>
      </trkpt>
      <trkpt lat="44.1174" lon="6.31369">
        <ele>990.871</ele>
        <time>2022-08-24T17:57:51Z</time>
      </trkpt>
      <trkpt lat="44.11728" lon="6.31374">
        <ele>991.041</ele>
        <time>2022-08-24T17:57:53Z</time>
      </trkpt>
      <trkpt lat="44.11718" lon="6.31377">
        <ele>991.615</ele>
        <time>2022-08-24T17:57:55Z</time>
      </trkpt>
      <trkpt lat="44.11713" lon="6.31377">
        <ele>992.009</ele>
        <time>2022-08-24T17:57:56Z</time>
      </trkpt>
      <trkpt lat="44.11709" lon="6.31375">
        <ele>992.298</ele>
        <time>2022-08-24T17:57:57Z</time>
      </trkpt>
      <trkpt lat="44.11695" lon="6.31368">
        <ele>993.018</ele>
        <time>2022-08-24T17:58:01Z</time>
      </trkpt>
      <trkpt lat="44.11688" lon="6.31372">
        <ele>993.048</ele>
        <time>2022-08-24T17:58:03Z</time>
      </trkpt>
      <trkpt lat="44.11683" lon="6.31378">
        <ele>993.054</ele>
        <time>2022-08-24T17:58:05Z</time>
      </trkpt>
      <trkpt lat="44.11675" lon="6.31389">
        <ele>993.697</ele>
        <time>2022-08-24T17:58:09Z</time>
      </trkpt>
      <trkpt lat="44.11674" lon="6.31391">
        <ele>993.65</ele>
        <time>2022-08-24T17:58:10Z</time>
      </trkpt>
      <trkpt lat="44.11672" lon="6.31395">
        <ele>993.636</ele>
        <time>2022-08-24T17:58:12Z</time>
      </trkpt>
      <trkpt lat="44.11672" lon="6.31397">
        <ele>993.63</ele>
        <time>2022-08-24T17:58:13Z</time>
      </trkpt>
      <trkpt lat="44.11672" lon="6.31397">
        <ele>993.883</ele>
        <time>2022-08-24T17:58:14Z</time>
      </trkpt>
      <trkpt lat="44.11675" lon="6.31396">
        <ele>993.867</ele>
        <time>2022-08-24T17:58:16Z</time>
      </trkpt>
      <trkpt lat="44.11676" lon="6.31392">
        <ele>993.881</ele>
        <time>2022-08-24T17:58:18Z</time>
      </trkpt>
      <trkpt lat="44.11679" lon="6.31385">
        <ele>993.819</ele>
        <time>2022-08-24T17:58:22Z</time>
      </trkpt>
      <trkpt lat="44.11682" lon="6.31377">
        <ele>993.409</ele>
        <time>2022-08-24T17:58:24Z</time>
      </trkpt>
      <trkpt lat="44.11687" lon="6.31371">
        <ele>993.297</ele>
        <time>2022-08-24T17:58:26Z</time>
      </trkpt>
      <trkpt lat="44.11693" lon="6.31367">
        <ele>993.247</ele>
        <time>2022-08-24T17:58:28Z</time>
      </trkpt>
      <trkpt lat="44.117" lon="6.31367">
        <ele>993.267</ele>
        <time>2022-08-24T17:58:30Z</time>
      </trkpt>
      <trkpt lat="44.11705" lon="6.31366">
        <ele>993.283</ele>
        <time>2022-08-24T17:58:32Z</time>
      </trkpt>
      <trkpt lat="44.11706" lon="6.31365">
        <ele>993.236</ele>
        <time>2022-08-24T17:58:33Z</time>
      </trkpt>
      <trkpt lat="44.11699" lon="6.31354">
        <ele>993.059</ele>
        <time>2022-08-24T17:58:37Z</time>
      </trkpt>
      <trkpt lat="44.11682" lon="6.31344">
        <ele>992.275</ele>
        <time>2022-08-24T17:58:42Z</time>
      </trkpt>
      <trkpt lat="44.11671" lon="6.31337">
        <ele>991.449</ele>
        <time>2022-08-24T17:58:45Z</time>
      </trkpt>
      <trkpt lat="44.11667" lon="6.31335">
        <ele>991.212</ele>
        <time>2022-08-24T17:58:46Z</time>
      </trkpt>
      <trkpt lat="44.11663" lon="6.31333">
        <ele>990.422</ele>
        <time>2022-08-24T17:58:47Z</time>
      </trkpt>
      <trkpt lat="44.11658" lon="6.31331">
        <ele>989.462</ele>
        <time>2022-08-24T17:58:48Z</time>
      </trkpt>
      <trkpt lat="44.11652" lon="6.31329">
        <ele>988.808</ele>
        <time>2022-08-24T17:58:49Z</time>
      </trkpt>
      <trkpt lat="44.11646" lon="6.31327">
        <ele>988.409</ele>
        <time>2022-08-24T17:58:50Z</time>
      </trkpt>
      <trkpt lat="44.11639" lon="6.31325">
        <ele>988.033</ele>
        <time>2022-08-24T17:58:51Z</time>
      </trkpt>
      <trkpt lat="44.11634" lon="6.31326">
        <ele>986.813</ele>
        <time>2022-08-24T17:58:52Z</time>
      </trkpt>
      <trkpt lat="44.11631" lon="6.31328">
        <ele>986.063</ele>
        <time>2022-08-24T17:58:53Z</time>
      </trkpt>
      <trkpt lat="44.11628" lon="6.31332">
        <ele>985.639</ele>
        <time>2022-08-24T17:58:54Z</time>
      </trkpt>
      <trkpt lat="44.11621" lon="6.31343">
        <ele>984.232</ele>
        <time>2022-08-24T17:58:56Z</time>
      </trkpt>
      <trkpt lat="44.11617" lon="6.31347">
        <ele>983.645</ele>
        <time>2022-08-24T17:58:57Z</time>
      </trkpt>
      <trkpt lat="44.11613" lon="6.31349">
        <ele>983.211</ele>
        <time>2022-08-24T17:58:58Z</time>
      </trkpt>
      <trkpt lat="44.11604" lon="6.31344">
        <ele>982.045</ele>
        <time>2022-08-24T17:59:01Z</time>
      </trkpt>
      <trkpt lat="44.11587" lon="6.31338">
        <ele>981.238</ele>
        <time>2022-08-24T17:59:07Z</time>
      </trkpt>
      <trkpt lat="44.11572" lon="6.31334">
        <ele>981.026</ele>
        <time>2022-08-24T17:59:11Z</time>
      </trkpt>
      <trkpt lat="44.11565" lon="6.31332">
        <ele>981.047</ele>
        <time>2022-08-24T17:59:13Z</time>
      </trkpt>
      <trkpt lat="44.11558" lon="6.3133">
        <ele>981.411</ele>
        <time>2022-08-24T17:59:15Z</time>
      </trkpt>
      <trkpt lat="44.11539" lon="6.31318">
        <ele>981.809</ele>
        <time>2022-08-24T17:59:20Z</time>
      </trkpt>
      <trkpt lat="44.11514" lon="6.31301">
        <ele>981.413</ele>
        <time>2022-08-24T17:59:27Z</time>
      </trkpt>
      <trkpt lat="44.11505" lon="6.31298">
        <ele>980.613</ele>
        <time>2022-08-24T17:59:29Z</time>
      </trkpt>
      <trkpt lat="44.115" lon="6.31298">
        <ele>980.273</ele>
        <time>2022-08-24T17:59:30Z</time>
      </trkpt>
      <trkpt lat="44.11495" lon="6.31301">
        <ele>979.849</ele>
        <time>2022-08-24T17:59:31Z</time>
      </trkpt>
      <trkpt lat="44.11491" lon="6.31304">
        <ele>979.832</ele>
        <time>2022-08-24T17:59:32Z</time>
      </trkpt>
      <trkpt lat="44.11488" lon="6.31307">
        <ele>979.415</ele>
        <time>2022-08-24T17:59:33Z</time>
      </trkpt>
      <trkpt lat="44.11482" lon="6.31312">
        <ele>979.281</ele>
        <time>2022-08-24T17:59:35Z</time>
      </trkpt>
      <trkpt lat="44.11479" lon="6.31314">
        <ele>979.425</ele>
        <time>2022-08-24T17:59:36Z</time>
      </trkpt>
      <trkpt lat="44.11473" lon="6.31315">
        <ele>979.448</ele>
        <time>2022-08-24T17:59:38Z</time>
      </trkpt>
      <trkpt lat="44.11459" lon="6.31316">
        <ele>979.413</ele>
        <time>2022-08-24T17:59:42Z</time>
      </trkpt>
      <trkpt lat="44.11448" lon="6.3132">
        <ele>979.243</ele>
        <time>2022-08-24T17:59:47Z</time>
      </trkpt>
      <trkpt lat="44.11434" lon="6.31328">
        <ele>980.407</ele>
        <time>2022-08-24T17:59:52Z</time>
      </trkpt>
      <trkpt lat="44.11428" lon="6.31332">
        <ele>980.609</ele>
        <time>2022-08-24T17:59:54Z</time>
      </trkpt>
      <trkpt lat="44.11425" lon="6.31339">
        <ele>981.012</ele>
        <time>2022-08-24T17:59:56Z</time>
      </trkpt>
      <trkpt lat="44.11421" lon="6.3134">
        <ele>981.032</ele>
        <time>2022-08-24T18:00:00Z</time>
      </trkpt>
      <trkpt lat="44.1142" lon="6.31339">
        <ele>980.692</ele>
        <time>2022-08-24T18:00:03Z</time>
      </trkpt>
      <trkpt lat="44.11415" lon="6.31343">
        <ele>980.028</ele>
        <time>2022-08-24T18:00:15Z</time>
      </trkpt>
      <trkpt lat="44.11413" lon="6.31344">
        <ele>980.031</ele>
        <time>2022-08-24T18:00:16Z</time>
      </trkpt>
      <trkpt lat="44.11411" lon="6.31345">
        <ele>980.074</ele>
        <time>2022-08-24T18:00:17Z</time>
      </trkpt>
      <trkpt lat="44.1141" lon="6.31345">
        <ele>980.01</ele>
        <time>2022-08-24T18:00:19Z</time>
      </trkpt>
      <trkpt lat="44.1141" lon="6.31345">
        <ele>979.824</ele>
        <time>2022-08-24T18:00:20Z</time>
      </trkpt>
      <trkpt lat="44.11408" lon="6.3135">
        <ele>979.227</ele>
        <time>2022-08-24T18:00:22Z</time>
      </trkpt>
      <trkpt lat="44.11406" lon="6.31354">
        <ele>978.473</ele>
        <time>2022-08-24T18:00:23Z</time>
      </trkpt>
      <trkpt lat="44.11404" lon="6.31357">
        <ele>977.885</ele>
        <time>2022-08-24T18:00:24Z</time>
      </trkpt>
      <trkpt lat="44.11402" lon="6.31357">
        <ele>977.213</ele>
        <time>2022-08-24T18:00:26Z</time>
      </trkpt>
      <trkpt lat="44.114" lon="6.31351">
        <ele>976.809</ele>
        <time>2022-08-24T18:00:28Z</time>
      </trkpt>
      <trkpt lat="44.11397" lon="6.31342">
        <ele>976.868</ele>
        <time>2022-08-24T18:00:31Z</time>
      </trkpt>
      <trkpt lat="44.11393" lon="6.31339">
        <ele>978.258</ele>
        <time>2022-08-24T18:00:34Z</time>
      </trkpt>
      <trkpt lat="44.11392" lon="6.31338">
        <ele>979.258</ele>
        <time>2022-08-24T18:00:36Z</time>
      </trkpt>
      <trkpt lat="44.11391" lon="6.31338">
        <ele>979.264</ele>
        <time>2022-08-24T18:00:37Z</time>
      </trkpt>
      <trkpt lat="44.11383" lon="6.31337">
        <ele>978.887</ele>
        <time>2022-08-24T18:00:41Z</time>
      </trkpt>
      <trkpt lat="44.11379" lon="6.31338">
        <ele>978.63</ele>
        <time>2022-08-24T18:00:43Z</time>
      </trkpt>
      <trkpt lat="44.11373" lon="6.31341">
        <ele>978.236</ele>
        <time>2022-08-24T18:00:45Z</time>
      </trkpt>
      <trkpt lat="44.11369" lon="6.31342">
        <ele>977.65</ele>
        <time>2022-08-24T18:00:46Z</time>
      </trkpt>
      <trkpt lat="44.11365" lon="6.31342">
        <ele>977.063</ele>
        <time>2022-08-24T18:00:47Z</time>
      </trkpt>
      <trkpt lat="44.11357" lon="6.3134">
        <ele>976.249</ele>
        <time>2022-08-24T18:00:49Z</time>
      </trkpt>
      <trkpt lat="44.11354" lon="6.31338">
        <ele>975.802</ele>
        <time>2022-08-24T18:00:50Z</time>
      </trkpt>
      <trkpt lat="44.11348" lon="6.3133">
        <ele>976.022</ele>
        <time>2022-08-24T18:00:53Z</time>
      </trkpt>
      <trkpt lat="44.11343" lon="6.3132">
        <ele>977.009</ele>
        <time>2022-08-24T18:00:56Z</time>
      </trkpt>
      <trkpt lat="44.11342" lon="6.31313">
        <ele>978.215</ele>
        <time>2022-08-24T18:00:58Z</time>
      </trkpt>
      <trkpt lat="44.1134" lon="6.31307">
        <ele>979.495</ele>
        <time>2022-08-24T18:01:00Z</time>
      </trkpt>
      <trkpt lat="44.11338" lon="6.31298">
        <ele>980.615</ele>
        <time>2022-08-24T18:01:03Z</time>
      </trkpt>
      <trkpt lat="44.11337" lon="6.31296">
        <ele>980.861</ele>
        <time>2022-08-24T18:01:04Z</time>
      </trkpt>
      <trkpt lat="44.11337" lon="6.31293">
        <ele>981.234</ele>
        <time>2022-08-24T18:01:05Z</time>
      </trkpt>
      <trkpt lat="44.11336" lon="6.31291">
        <ele>981.657</ele>
        <time>2022-08-24T18:01:06Z</time>
      </trkpt>
      <trkpt lat="44.11335" lon="6.31283">
        <ele>982.033</ele>
        <time>2022-08-24T18:01:08Z</time>
      </trkpt>
      <trkpt lat="44.11333" lon="6.31274">
        <ele>982.087</ele>
        <time>2022-08-24T18:01:10Z</time>
      </trkpt>
      <trkpt lat="44.11329" lon="6.31264">
        <ele>982.87</ele>
        <time>2022-08-24T18:01:13Z</time>
      </trkpt>
      <trkpt lat="44.11327" lon="6.31263">
        <ele>983.245</ele>
        <time>2022-08-24T18:01:14Z</time>
      </trkpt>
      <trkpt lat="44.11324" lon="6.31258">
        <ele>984.047</ele>
        <time>2022-08-24T18:01:16Z</time>
      </trkpt>
      <trkpt lat="44.11322" lon="6.31254">
        <ele>985.411</ele>
        <time>2022-08-24T18:01:18Z</time>
      </trkpt>
      <trkpt lat="44.1132" lon="6.31252">
        <ele>985.809</ele>
        <time>2022-08-24T18:01:19Z</time>
      </trkpt>
      <trkpt lat="44.11316" lon="6.31247">
        <ele>987.235</ele>
        <time>2022-08-24T18:01:22Z</time>
      </trkpt>
      <trkpt lat="44.11313" lon="6.31241">
        <ele>987.865</ele>
        <time>2022-08-24T18:01:24Z</time>
      </trkpt>
      <trkpt lat="44.11309" lon="6.31233">
        <ele>988.045</ele>
        <time>2022-08-24T18:01:27Z</time>
      </trkpt>
      <trkpt lat="44.11307" lon="6.3123">
        <ele>988.271</ele>
        <time>2022-08-24T18:01:28Z</time>
      </trkpt>
      <trkpt lat="44.11305" lon="6.31227">
        <ele>988.294</ele>
        <time>2022-08-24T18:01:29Z</time>
      </trkpt>
      <trkpt lat="44.113" lon="6.31221">
        <ele>988.667</ele>
        <time>2022-08-24T18:01:32Z</time>
      </trkpt>
      <trkpt lat="44.11297" lon="6.31216">
        <ele>989.283</ele>
        <time>2022-08-24T18:01:34Z</time>
      </trkpt>
      <trkpt lat="44.11293" lon="6.31207">
        <ele>990.097</ele>
        <time>2022-08-24T18:01:38Z</time>
      </trkpt>
      <trkpt lat="44.11292" lon="6.31205">
        <ele>990.25</ele>
        <time>2022-08-24T18:01:39Z</time>
      </trkpt>
      <trkpt lat="44.11291" lon="6.31198">
        <ele>989.681</ele>
        <time>2022-08-24T18:01:44Z</time>
      </trkpt>
      <trkpt lat="44.1129" lon="6.31196">
        <ele>989.261</ele>
        <time>2022-08-24T18:01:45Z</time>
      </trkpt>
      <trkpt lat="44.11289" lon="6.31186">
        <ele>988.617</ele>
        <time>2022-08-24T18:01:48Z</time>
      </trkpt>
      <trkpt lat="44.11287" lon="6.31183">
        <ele>988.209</ele>
        <time>2022-08-24T18:01:49Z</time>
      </trkpt>
      <trkpt lat="44.11285" lon="6.31179">
        <ele>988.029</ele>
        <time>2022-08-24T18:01:50Z</time>
      </trkpt>
      <trkpt lat="44.11281" lon="6.31172">
        <ele>987.879</ele>
        <time>2022-08-24T18:01:52Z</time>
      </trkpt>
      <trkpt lat="44.11274" lon="6.3116">
        <ele>987.219</ele>
        <time>2022-08-24T18:01:55Z</time>
      </trkpt>
      <trkpt lat="44.11267" lon="6.31153">
        <ele>987.235</ele>
        <time>2022-08-24T18:01:57Z</time>
      </trkpt>
      <trkpt lat="44.11263" lon="6.31147">
        <ele>987.048</ele>
        <time>2022-08-24T18:01:58Z</time>
      </trkpt>
      <trkpt lat="44.11255" lon="6.31132">
        <ele>986.021</ele>
        <time>2022-08-24T18:02:01Z</time>
      </trkpt>
      <trkpt lat="44.11251" lon="6.31125">
        <ele>985.487</ele>
        <time>2022-08-24T18:02:02Z</time>
      </trkpt>
      <trkpt lat="44.11248" lon="6.31121">
        <ele>983.281</ele>
        <time>2022-08-24T18:02:03Z</time>
      </trkpt>
      <trkpt lat="44.11243" lon="6.31118">
        <ele>981.414</ele>
        <time>2022-08-24T18:02:04Z</time>
      </trkpt>
      <trkpt lat="44.11239" lon="6.31116">
        <ele>980.416</ele>
        <time>2022-08-24T18:02:05Z</time>
      </trkpt>
      <trkpt lat="44.11234" lon="6.31114">
        <ele>979.876</ele>
        <time>2022-08-24T18:02:06Z</time>
      </trkpt>
      <trkpt lat="44.11229" lon="6.3111">
        <ele>979.413</ele>
        <time>2022-08-24T18:02:07Z</time>
      </trkpt>
      <trkpt lat="44.11226" lon="6.31105">
        <ele>979.209</ele>
        <time>2022-08-24T18:02:08Z</time>
      </trkpt>
      <trkpt lat="44.11224" lon="6.31099">
        <ele>978.662</ele>
        <time>2022-08-24T18:02:09Z</time>
      </trkpt>
      <trkpt lat="44.11217" lon="6.31087">
        <ele>978.212</ele>
        <time>2022-08-24T18:02:12Z</time>
      </trkpt>
      <trkpt lat="44.11212" lon="6.31076">
        <ele>979.012</ele>
        <time>2022-08-24T18:02:14Z</time>
      </trkpt>
      <trkpt lat="44.1121" lon="6.31071">
        <ele>979.638</ele>
        <time>2022-08-24T18:02:15Z</time>
      </trkpt>
      <trkpt lat="44.11207" lon="6.31066">
        <ele>980.071</ele>
        <time>2022-08-24T18:02:16Z</time>
      </trkpt>
      <trkpt lat="44.11203" lon="6.31054">
        <ele>980.684</ele>
        <time>2022-08-24T18:02:18Z</time>
      </trkpt>
      <trkpt lat="44.11198" lon="6.31044">
        <ele>981.48</ele>
        <time>2022-08-24T18:02:20Z</time>
      </trkpt>
      <trkpt lat="44.11196" lon="6.31039">
        <ele>982.474</ele>
        <time>2022-08-24T18:02:21Z</time>
      </trkpt>
      <trkpt lat="44.11193" lon="6.31034">
        <ele>983.097</ele>
        <time>2022-08-24T18:02:22Z</time>
      </trkpt>
      <trkpt lat="44.1119" lon="6.31029">
        <ele>983.479</ele>
        <time>2022-08-24T18:02:23Z</time>
      </trkpt>
      <trkpt lat="44.11183" lon="6.31021">
        <ele>983.805</ele>
        <time>2022-08-24T18:02:25Z</time>
      </trkpt>
      <trkpt lat="44.11171" lon="6.31004">
        <ele>984.025</ele>
        <time>2022-08-24T18:02:29Z</time>
      </trkpt>
      <trkpt lat="44.11165" lon="6.30998">
        <ele>984.609</ele>
        <time>2022-08-24T18:02:31Z</time>
      </trkpt>
      <trkpt lat="44.11163" lon="6.30995">
        <ele>985.628</ele>
        <time>2022-08-24T18:02:32Z</time>
      </trkpt>
      <trkpt lat="44.1116" lon="6.3099">
        <ele>986.228</ele>
        <time>2022-08-24T18:02:33Z</time>
      </trkpt>
      <trkpt lat="44.11157" lon="6.30987">
        <ele>986.848</ele>
        <time>2022-08-24T18:02:34Z</time>
      </trkpt>
      <trkpt lat="44.1115" lon="6.30977">
        <ele>987.874</ele>
        <time>2022-08-24T18:02:37Z</time>
      </trkpt>
      <trkpt lat="44.11149" lon="6.30976">
        <ele>987.837</ele>
        <time>2022-08-24T18:02:38Z</time>
      </trkpt>
      <trkpt lat="44.11146" lon="6.30974">
        <ele>988.02</ele>
        <time>2022-08-24T18:02:42Z</time>
      </trkpt>
      <trkpt lat="44.11146" lon="6.30974">
        <ele>988.446</ele>
        <time>2022-08-24T18:02:44Z</time>
      </trkpt>
      <trkpt lat="44.1114" lon="6.30973">
        <ele>987.47</ele>
        <time>2022-08-24T18:04:17Z</time>
      </trkpt>
      <trkpt lat="44.11137" lon="6.30974">
        <ele>987.493</ele>
        <time>2022-08-24T18:04:18Z</time>
      </trkpt>
      <trkpt lat="44.11134" lon="6.30976">
        <ele>987.295</ele>
        <time>2022-08-24T18:04:19Z</time>
      </trkpt>
      <trkpt lat="44.11123" lon="6.30974">
        <ele>986.249</ele>
        <time>2022-08-24T18:04:21Z</time>
      </trkpt>
      <trkpt lat="44.11116" lon="6.30972">
        <ele>984.823</ele>
        <time>2022-08-24T18:04:22Z</time>
      </trkpt>
      <trkpt lat="44.11103" lon="6.30971">
        <ele>982.409</ele>
        <time>2022-08-24T18:04:24Z</time>
      </trkpt>
      <trkpt lat="44.11097" lon="6.30971">
        <ele>981.08</ele>
        <time>2022-08-24T18:04:25Z</time>
      </trkpt>
      <trkpt lat="44.11087" lon="6.30971">
        <ele>980.05</ele>
        <time>2022-08-24T18:04:27Z</time>
      </trkpt>
      <trkpt lat="44.11079" lon="6.30972">
        <ele>979.88</ele>
        <time>2022-08-24T18:04:29Z</time>
      </trkpt>
      <trkpt lat="44.11075" lon="6.30973">
        <ele>979.076</ele>
        <time>2022-08-24T18:04:30Z</time>
      </trkpt>
      <trkpt lat="44.11069" lon="6.3097">
        <ele>978.429</ele>
        <time>2022-08-24T18:04:32Z</time>
      </trkpt>
      <trkpt lat="44.11061" lon="6.30965">
        <ele>978.082</ele>
        <time>2022-08-24T18:04:36Z</time>
      </trkpt>
      <trkpt lat="44.11058" lon="6.30964">
        <ele>978.288</ele>
        <time>2022-08-24T18:04:37Z</time>
      </trkpt>
      <trkpt lat="44.11054" lon="6.30962">
        <ele>978.262</ele>
        <time>2022-08-24T18:04:38Z</time>
      </trkpt>
      <trkpt lat="44.11051" lon="6.30961">
        <ele>978.295</ele>
        <time>2022-08-24T18:04:39Z</time>
      </trkpt>
      <trkpt lat="44.11047" lon="6.30961">
        <ele>978.832</ele>
        <time>2022-08-24T18:04:40Z</time>
      </trkpt>
      <trkpt lat="44.11045" lon="6.3096">
        <ele>979.292</ele>
        <time>2022-08-24T18:04:41Z</time>
      </trkpt>
      <trkpt lat="44.11037" lon="6.30957">
        <ele>980.011</ele>
        <time>2022-08-24T18:04:44Z</time>
      </trkpt>
      <trkpt lat="44.11029" lon="6.30951">
        <ele>981.409</ele>
        <time>2022-08-24T18:04:47Z</time>
      </trkpt>
      <trkpt lat="44.11019" lon="6.30935">
        <ele>982.234</ele>
        <time>2022-08-24T18:04:51Z</time>
      </trkpt>
      <trkpt lat="44.11014" lon="6.30929">
        <ele>982.424</ele>
        <time>2022-08-24T18:04:53Z</time>
      </trkpt>
      <trkpt lat="44.11009" lon="6.30927">
        <ele>982.244</ele>
        <time>2022-08-24T18:04:55Z</time>
      </trkpt>
      <trkpt lat="44.10998" lon="6.30918">
        <ele>982.09</ele>
        <time>2022-08-24T18:04:59Z</time>
      </trkpt>
      <trkpt lat="44.10991" lon="6.30906">
        <ele>982.673</ele>
        <time>2022-08-24T18:05:02Z</time>
      </trkpt>
      <trkpt lat="44.10987" lon="6.30896">
        <ele>983.256</ele>
        <time>2022-08-24T18:05:04Z</time>
      </trkpt>
      <trkpt lat="44.10973" lon="6.30879">
        <ele>983.682</ele>
        <time>2022-08-24T18:05:09Z</time>
      </trkpt>
      <trkpt lat="44.10969" lon="6.30878">
        <ele>983.846</ele>
        <time>2022-08-24T18:05:10Z</time>
      </trkpt>
      <trkpt lat="44.10966" lon="6.30878">
        <ele>983.819</ele>
        <time>2022-08-24T18:05:11Z</time>
      </trkpt>
      <trkpt lat="44.10962" lon="6.30877">
        <ele>984.295</ele>
        <time>2022-08-24T18:05:12Z</time>
      </trkpt>
      <trkpt lat="44.10955" lon="6.30878">
        <ele>984.849</ele>
        <time>2022-08-24T18:05:14Z</time>
      </trkpt>
      <trkpt lat="44.10952" lon="6.30877">
        <ele>985.423</ele>
        <time>2022-08-24T18:05:15Z</time>
      </trkpt>
      <trkpt lat="44.10951" lon="6.30875">
        <ele>986.009</ele>
        <time>2022-08-24T18:05:16Z</time>
      </trkpt>
      <trkpt lat="44.10949" lon="6.30873">
        <ele>986.87</ele>
        <time>2022-08-24T18:05:17Z</time>
      </trkpt>
      <trkpt lat="44.10948" lon="6.3087">
        <ele>987.24</ele>
        <time>2022-08-24T18:05:18Z</time>
      </trkpt>
      <trkpt lat="44.10944" lon="6.30866">
        <ele>987.41</ele>
        <time>2022-08-24T18:05:20Z</time>
      </trkpt>
      <trkpt lat="44.10939" lon="6.30861">
        <ele>987.426</ele>
        <time>2022-08-24T18:05:23Z</time>
      </trkpt>
      <trkpt lat="44.10934" lon="6.30854">
        <ele>988.479</ele>
        <time>2022-08-24T18:05:26Z</time>
      </trkpt>
      <trkpt lat="44.10932" lon="6.30853">
        <ele>988.662</ele>
        <time>2022-08-24T18:05:27Z</time>
      </trkpt>
      <trkpt lat="44.10924" lon="6.30843">
        <ele>989.438</ele>
        <time>2022-08-24T18:05:32Z</time>
      </trkpt>
      <trkpt lat="44.10923" lon="6.3084">
        <ele>989.452</ele>
        <time>2022-08-24T18:05:33Z</time>
      </trkpt>
      <trkpt lat="44.10919" lon="6.30837">
        <ele>989.675</ele>
        <time>2022-08-24T18:05:35Z</time>
      </trkpt>
      <trkpt lat="44.10914" lon="6.30833">
        <ele>989.698</ele>
        <time>2022-08-24T18:05:37Z</time>
      </trkpt>
      <trkpt lat="44.10909" lon="6.30826">
        <ele>989.815</ele>
        <time>2022-08-24T18:05:39Z</time>
      </trkpt>
      <trkpt lat="44.10904" lon="6.30819">
        <ele>989.826</ele>
        <time>2022-08-24T18:05:41Z</time>
      </trkpt>
      <trkpt lat="44.10892" lon="6.30802">
        <ele>990.209</ele>
        <time>2022-08-24T18:05:46Z</time>
      </trkpt>
      <trkpt lat="44.10881" lon="6.30789">
        <ele>990.61</ele>
        <time>2022-08-24T18:05:50Z</time>
      </trkpt>
      <trkpt lat="44.10878" lon="6.30785">
        <ele>991.06</ele>
        <time>2022-08-24T18:05:51Z</time>
      </trkpt>
      <trkpt lat="44.10875" lon="6.30783">
        <ele>991.42</ele>
        <time>2022-08-24T18:05:52Z</time>
      </trkpt>
      <trkpt lat="44.10872" lon="6.3078">
        <ele>991.856</ele>
        <time>2022-08-24T18:05:53Z</time>
      </trkpt>
      <trkpt lat="44.10869" lon="6.30777">
        <ele>991.489</ele>
        <time>2022-08-24T18:05:54Z</time>
      </trkpt>
      <trkpt lat="44.1086" lon="6.30772">
        <ele>991.672</ele>
        <time>2022-08-24T18:05:57Z</time>
      </trkpt>
      <trkpt lat="44.10839" lon="6.30755">
        <ele>992.048</ele>
        <time>2022-08-24T18:06:03Z</time>
      </trkpt>
      <trkpt lat="44.10826" lon="6.30747">
        <ele>991.012</ele>
        <time>2022-08-24T18:06:07Z</time>
      </trkpt>
      <trkpt lat="44.10816" lon="6.30739">
        <ele>990.835</ele>
        <time>2022-08-24T18:06:10Z</time>
      </trkpt>
      <trkpt lat="44.10812" lon="6.30735">
        <ele>990.691</ele>
        <time>2022-08-24T18:06:11Z</time>
      </trkpt>
      <trkpt lat="44.10808" lon="6.30732">
        <ele>990.681</ele>
        <time>2022-08-24T18:06:12Z</time>
      </trkpt>
      <trkpt lat="44.10795" lon="6.30718">
        <ele>989.619</ele>
        <time>2022-08-24T18:06:16Z</time>
      </trkpt>
      <trkpt lat="44.10793" lon="6.30717">
        <ele>989.209</ele>
        <time>2022-08-24T18:06:17Z</time>
      </trkpt>
      <trkpt lat="44.1079" lon="6.30715">
        <ele>988.46</ele>
        <time>2022-08-24T18:06:20Z</time>
      </trkpt>
      <trkpt lat="44.1079" lon="6.30715">
        <ele>988.42</ele>
        <time>2022-08-24T18:06:21Z</time>
      </trkpt>
      <trkpt lat="44.10788" lon="6.30711">
        <ele>988.25</ele>
        <time>2022-08-24T18:06:25Z</time>
      </trkpt>
      <trkpt lat="44.10787" lon="6.30709">
        <ele>988.276</ele>
        <time>2022-08-24T18:06:26Z</time>
      </trkpt>
      <trkpt lat="44.10786" lon="6.30707">
        <ele>987.829</ele>
        <time>2022-08-24T18:06:27Z</time>
      </trkpt>
      <trkpt lat="44.10785" lon="6.30704">
        <ele>987.272</ele>
        <time>2022-08-24T18:06:30Z</time>
      </trkpt>
      <trkpt lat="44.10784" lon="6.307">
        <ele>987.238</ele>
        <time>2022-08-24T18:06:34Z</time>
      </trkpt>
      <trkpt lat="44.10783" lon="6.30696">
        <ele>986.822</ele>
        <time>2022-08-24T18:06:35Z</time>
      </trkpt>
      <trkpt lat="44.10776" lon="6.30688">
        <ele>986.635</ele>
        <time>2022-08-24T18:06:38Z</time>
      </trkpt>
      <trkpt lat="44.10771" lon="6.3068">
        <ele>986.875</ele>
        <time>2022-08-24T18:06:41Z</time>
      </trkpt>
      <trkpt lat="44.1077" lon="6.30675">
        <ele>986.828</ele>
        <time>2022-08-24T18:06:43Z</time>
      </trkpt>
      <trkpt lat="44.10769" lon="6.30668">
        <ele>986.02</ele>
        <time>2022-08-24T18:06:45Z</time>
      </trkpt>
      <trkpt lat="44.10767" lon="6.30665">
        <ele>985.409</ele>
        <time>2022-08-24T18:06:46Z</time>
      </trkpt>
      <trkpt lat="44.10762" lon="6.3066">
        <ele>984.028</ele>
        <time>2022-08-24T18:06:48Z</time>
      </trkpt>
      <trkpt lat="44.1076" lon="6.30658">
        <ele>983.288</ele>
        <time>2022-08-24T18:06:50Z</time>
      </trkpt>
      <trkpt lat="44.1076" lon="6.30659">
        <ele>983.018</ele>
        <time>2022-08-24T18:06:51Z</time>
      </trkpt>
      <trkpt lat="44.10761" lon="6.30655">
        <ele>983.084</ele>
        <time>2022-08-24T18:07:04Z</time>
      </trkpt>
      <trkpt lat="44.10761" lon="6.30653">
        <ele>982.877</ele>
        <time>2022-08-24T18:07:05Z</time>
      </trkpt>
      <trkpt lat="44.10761" lon="6.3065">
        <ele>982.46</ele>
        <time>2022-08-24T18:07:06Z</time>
      </trkpt>
      <trkpt lat="44.10759" lon="6.30641">
        <ele>982.066</ele>
        <time>2022-08-24T18:07:08Z</time>
      </trkpt>
      <trkpt lat="44.1076" lon="6.30636">
        <ele>981.89</ele>
        <time>2022-08-24T18:07:09Z</time>
      </trkpt>
      <trkpt lat="44.10761" lon="6.30632">
        <ele>980.613</ele>
        <time>2022-08-24T18:07:10Z</time>
      </trkpt>
      <trkpt lat="44.10762" lon="6.30621">
        <ele>979.257</ele>
        <time>2022-08-24T18:07:12Z</time>
      </trkpt>
      <trkpt lat="44.10762" lon="6.30615">
        <ele>978.8</ele>
        <time>2022-08-24T18:07:13Z</time>
      </trkpt>
      <trkpt lat="44.10764" lon="6.30603">
        <ele>978.02</ele>
        <time>2022-08-24T18:07:15Z</time>
      </trkpt>
      <trkpt lat="44.10766" lon="6.30589">
        <ele>977.009</ele>
        <time>2022-08-24T18:07:17Z</time>
      </trkpt>
      <trkpt lat="44.10767" lon="6.30584">
        <ele>977.056</ele>
        <time>2022-08-24T18:07:18Z</time>
      </trkpt>
      <trkpt lat="44.1077" lon="6.30575">
        <ele>976.666</ele>
        <time>2022-08-24T18:07:20Z</time>
      </trkpt>
      <trkpt lat="44.10772" lon="6.30563">
        <ele>975.836</ele>
        <time>2022-08-24T18:07:22Z</time>
      </trkpt>
      <trkpt lat="44.10772" lon="6.30553">
        <ele>974.272</ele>
        <time>2022-08-24T18:07:24Z</time>
      </trkpt>
      <trkpt lat="44.10772" lon="6.30547">
        <ele>973.265</ele>
        <time>2022-08-24T18:07:25Z</time>
      </trkpt>
      <trkpt lat="44.10771" lon="6.30541">
        <ele>972.478</ele>
        <time>2022-08-24T18:07:26Z</time>
      </trkpt>
      <trkpt lat="44.1077" lon="6.30535">
        <ele>971.814</ele>
        <time>2022-08-24T18:07:27Z</time>
      </trkpt>
      <trkpt lat="44.1077" lon="6.3053">
        <ele>971.438</ele>
        <time>2022-08-24T18:07:28Z</time>
      </trkpt>
      <trkpt lat="44.10768" lon="6.30524">
        <ele>971.031</ele>
        <time>2022-08-24T18:07:29Z</time>
      </trkpt>
      <trkpt lat="44.10763" lon="6.30512">
        <ele>970.666</ele>
        <time>2022-08-24T18:07:31Z</time>
      </trkpt>
      <trkpt lat="44.10762" lon="6.30505">
        <ele>970.429</ele>
        <time>2022-08-24T18:07:32Z</time>
      </trkpt>
      <trkpt lat="44.10756" lon="6.30479">
        <ele>970.621</ele>
        <time>2022-08-24T18:07:37Z</time>
      </trkpt>
      <trkpt lat="44.10751" lon="6.3046">
        <ele>971.609</ele>
        <time>2022-08-24T18:07:42Z</time>
      </trkpt>
      <trkpt lat="44.10749" lon="6.30449">
        <ele>971.617</ele>
        <time>2022-08-24T18:07:44Z</time>
      </trkpt>
      <trkpt lat="44.10746" lon="6.30435">
        <ele>971.817</ele>
        <time>2022-08-24T18:07:47Z</time>
      </trkpt>
      <trkpt lat="44.10748" lon="6.30427">
        <ele>972.217</ele>
        <time>2022-08-24T18:07:49Z</time>
      </trkpt>
      <trkpt lat="44.10748" lon="6.30418">
        <ele>972.633</ele>
        <time>2022-08-24T18:07:51Z</time>
      </trkpt>
      <trkpt lat="44.10745" lon="6.30401">
        <ele>972.666</ele>
        <time>2022-08-24T18:07:54Z</time>
      </trkpt>
      <trkpt lat="44.10742" lon="6.30389">
        <ele>972.889</ele>
        <time>2022-08-24T18:07:56Z</time>
      </trkpt>
      <trkpt lat="44.10741" lon="6.30383">
        <ele>972.835</ele>
        <time>2022-08-24T18:07:57Z</time>
      </trkpt>
      <trkpt lat="44.10737" lon="6.30368">
        <ele>972.699</ele>
        <time>2022-08-24T18:08:00Z</time>
      </trkpt>
      <trkpt lat="44.10736" lon="6.30363">
        <ele>972.822</ele>
        <time>2022-08-24T18:08:01Z</time>
      </trkpt>
      <trkpt lat="44.10735" lon="6.30355">
        <ele>972.814</ele>
        <time>2022-08-24T18:08:03Z</time>
      </trkpt>
      <trkpt lat="44.10735" lon="6.30343">
        <ele>973.254</ele>
        <time>2022-08-24T18:08:06Z</time>
      </trkpt>
      <trkpt lat="44.10735" lon="6.3034">
        <ele>973.409</ele>
        <time>2022-08-24T18:08:07Z</time>
      </trkpt>
      <trkpt lat="44.10733" lon="6.30334">
        <ele>974.609</ele>
        <time>2022-08-24T18:08:09Z</time>
      </trkpt>
      <trkpt lat="44.1073" lon="6.30326">
        <ele>976.072</ele>
        <time>2022-08-24T18:08:11Z</time>
      </trkpt>
      <trkpt lat="44.10728" lon="6.30314">
        <ele>977.292</ele>
        <time>2022-08-24T18:08:14Z</time>
      </trkpt>
      <trkpt lat="44.10724" lon="6.30306">
        <ele>977.842</ele>
        <time>2022-08-24T18:08:16Z</time>
      </trkpt>
      <trkpt lat="44.10718" lon="6.30294">
        <ele>978.268</ele>
        <time>2022-08-24T18:08:19Z</time>
      </trkpt>
      <trkpt lat="44.10716" lon="6.30286">
        <ele>979.681</ele>
        <time>2022-08-24T18:08:21Z</time>
      </trkpt>
      <trkpt lat="44.10716" lon="6.30282">
        <ele>980.624</ele>
        <time>2022-08-24T18:08:22Z</time>
      </trkpt>
      <trkpt lat="44.10715" lon="6.30278">
        <ele>981.26</ele>
        <time>2022-08-24T18:08:23Z</time>
      </trkpt>
      <trkpt lat="44.10715" lon="6.30274">
        <ele>982.424</ele>
        <time>2022-08-24T18:08:24Z</time>
      </trkpt>
      <trkpt lat="44.10714" lon="6.30271">
        <ele>983.027</ele>
        <time>2022-08-24T18:08:25Z</time>
      </trkpt>
      <trkpt lat="44.10712" lon="6.30268">
        <ele>983.662</ele>
        <time>2022-08-24T18:08:26Z</time>
      </trkpt>
      <trkpt lat="44.107" lon="6.30251">
        <ele>984.683</ele>
        <time>2022-08-24T18:08:32Z</time>
      </trkpt>
      <trkpt lat="44.10698" lon="6.30248">
        <ele>985.211</ele>
        <time>2022-08-24T18:08:33Z</time>
      </trkpt>
      <trkpt lat="44.10695" lon="6.30241">
        <ele>985.809</ele>
        <time>2022-08-24T18:08:35Z</time>
      </trkpt>
      <trkpt lat="44.10693" lon="6.30238">
        <ele>986.087</ele>
        <time>2022-08-24T18:08:36Z</time>
      </trkpt>
      <trkpt lat="44.10692" lon="6.30235">
        <ele>986.297</ele>
        <time>2022-08-24T18:08:37Z</time>
      </trkpt>
      <trkpt lat="44.10687" lon="6.30226">
        <ele>988.257</ele>
        <time>2022-08-24T18:08:40Z</time>
      </trkpt>
      <trkpt lat="44.10684" lon="6.30219">
        <ele>989.853</ele>
        <time>2022-08-24T18:08:42Z</time>
      </trkpt>
      <trkpt lat="44.10683" lon="6.30217">
        <ele>990.236</ele>
        <time>2022-08-24T18:08:43Z</time>
      </trkpt>
      <trkpt lat="44.10681" lon="6.30214">
        <ele>990.229</ele>
        <time>2022-08-24T18:08:44Z</time>
      </trkpt>
      <trkpt lat="44.10679" lon="6.30212">
        <ele>990.215</ele>
        <time>2022-08-24T18:08:45Z</time>
      </trkpt>
      <trkpt lat="44.10667" lon="6.30198">
        <ele>990.819</ele>
        <time>2022-08-24T18:08:50Z</time>
      </trkpt>
      <trkpt lat="44.10667" lon="6.30195">
        <ele>991.032</ele>
        <time>2022-08-24T18:08:51Z</time>
      </trkpt>
      <trkpt lat="44.10663" lon="6.30186">
        <ele>991.853</ele>
        <time>2022-08-24T18:08:54Z</time>
      </trkpt>
      <trkpt lat="44.10661" lon="6.30184">
        <ele>992.004</ele>
        <time>2022-08-24T18:08:55Z</time>
      </trkpt>
      <trkpt lat="44.10659" lon="6.30182">
        <ele>992.414</ele>
        <time>2022-08-24T18:08:56Z</time>
      </trkpt>
      <trkpt lat="44.10651" lon="6.30172">
        <ele>992.809</ele>
        <time>2022-08-24T18:09:00Z</time>
      </trkpt>
      <trkpt lat="44.10649" lon="6.30164">
        <ele>993.486</ele>
        <time>2022-08-24T18:09:04Z</time>
      </trkpt>
      <trkpt lat="44.10649" lon="6.30164">
        <ele>993.616</ele>
        <time>2022-08-24T18:09:05Z</time>
      </trkpt>
      <trkpt lat="44.10649" lon="6.30165">
        <ele>993.856</ele>
        <time>2022-08-24T18:09:06Z</time>
      </trkpt>
      <trkpt lat="44.10647" lon="6.30162">
        <ele>993.222</ele>
        <time>2022-08-24T18:09:16Z</time>
      </trkpt>
      <trkpt lat="44.10646" lon="6.30158">
        <ele>993.245</ele>
        <time>2022-08-24T18:09:17Z</time>
      </trkpt>
      <trkpt lat="44.10646" lon="6.30154">
        <ele>993.298</ele>
        <time>2022-08-24T18:09:18Z</time>
      </trkpt>
      <trkpt lat="44.10646" lon="6.30148">
        <ele>993.234</ele>
        <time>2022-08-24T18:09:20Z</time>
      </trkpt>
      <trkpt lat="44.10646" lon="6.30143">
        <ele>993.428</ele>
        <time>2022-08-24T18:09:22Z</time>
      </trkpt>
      <trkpt lat="44.10642" lon="6.30133">
        <ele>994.281</ele>
        <time>2022-08-24T18:09:26Z</time>
      </trkpt>
      <trkpt lat="44.10636" lon="6.30119">
        <ele>994.459</ele>
        <time>2022-08-24T18:09:31Z</time>
      </trkpt>
      <trkpt lat="44.10635" lon="6.30117">
        <ele>994.403</ele>
        <time>2022-08-24T18:09:32Z</time>
      </trkpt>
      <trkpt lat="44.10632" lon="6.30104">
        <ele>993.223</ele>
        <time>2022-08-24T18:09:36Z</time>
      </trkpt>
      <trkpt lat="44.10627" lon="6.30081">
        <ele>993.609</ele>
        <time>2022-08-24T18:09:41Z</time>
      </trkpt>
      <trkpt lat="44.10621" lon="6.30064">
        <ele>994.026</ele>
        <time>2022-08-24T18:09:45Z</time>
      </trkpt>
      <trkpt lat="44.10619" lon="6.3006">
        <ele>994.666</ele>
        <time>2022-08-24T18:09:46Z</time>
      </trkpt>
      <trkpt lat="44.10617" lon="6.30052">
        <ele>995.886</ele>
        <time>2022-08-24T18:09:48Z</time>
      </trkpt>
      <trkpt lat="44.10616" lon="6.3004">
        <ele>997.292</ele>
        <time>2022-08-24T18:09:51Z</time>
      </trkpt>
      <trkpt lat="44.10616" lon="6.30036">
        <ele>998.625</ele>
        <time>2022-08-24T18:09:52Z</time>
      </trkpt>
      <trkpt lat="44.10616" lon="6.30028">
        <ele>999.628</ele>
        <time>2022-08-24T18:09:54Z</time>
      </trkpt>
      <trkpt lat="44.10617" lon="6.30025">
        <ele>999.854</ele>
        <time>2022-08-24T18:09:55Z</time>
      </trkpt>
      <trkpt lat="44.10617" lon="6.30023">
        <ele>1000.028</ele>
        <time>2022-08-24T18:09:56Z</time>
      </trkpt>
      <trkpt lat="44.10615" lon="6.30015">
        <ele>1000.441</ele>
        <time>2022-08-24T18:09:58Z</time>
      </trkpt>
      <trkpt lat="44.10613" lon="6.30011">
        <ele>1000.473</ele>
        <time>2022-08-24T18:09:59Z</time>
      </trkpt>
      <trkpt lat="44.10612" lon="6.30007">
        <ele>1001.285</ele>
        <time>2022-08-24T18:10:00Z</time>
      </trkpt>
      <trkpt lat="44.10612" lon="6.29999">
        <ele>1002.213</ele>
        <time>2022-08-24T18:10:02Z</time>
      </trkpt>
      <trkpt lat="44.10611" lon="6.29996">
        <ele>1002.609</ele>
        <time>2022-08-24T18:10:03Z</time>
      </trkpt>
      <trkpt lat="44.1061" lon="6.29993">
        <ele>1003.468</ele>
        <time>2022-08-24T18:10:04Z</time>
      </trkpt>
      <trkpt lat="44.10608" lon="6.29993">
        <ele>1004.058</ele>
        <time>2022-08-24T18:10:05Z</time>
      </trkpt>
      <trkpt lat="44.10606" lon="6.29993">
        <ele>1004.248</ele>
        <time>2022-08-24T18:10:06Z</time>
      </trkpt>
      <trkpt lat="44.10593" lon="6.29998">
        <ele>1003.854</ele>
        <time>2022-08-24T18:10:10Z</time>
      </trkpt>
      <trkpt lat="44.10582" lon="6.29999">
        <ele>1002.297</ele>
        <time>2022-08-24T18:10:14Z</time>
      </trkpt>
      <trkpt lat="44.10579" lon="6.29998">
        <ele>1001.26</ele>
        <time>2022-08-24T18:10:18Z</time>
      </trkpt>
      <trkpt lat="44.10575" lon="6.3">
        <ele>1000.666</ele>
        <time>2022-08-24T18:10:30Z</time>
      </trkpt>
      <trkpt lat="44.1057" lon="6.3">
        <ele>1000.29</ele>
        <time>2022-08-24T18:10:32Z</time>
      </trkpt>
      <trkpt lat="44.10567" lon="6.3">
        <ele>1000.033</ele>
        <time>2022-08-24T18:10:33Z</time>
      </trkpt>
      <trkpt lat="44.10557" lon="6.29993">
        <ele>999.686</ele>
        <time>2022-08-24T18:10:37Z</time>
      </trkpt>
      <trkpt lat="44.10554" lon="6.29991">
        <ele>999.06</ele>
        <time>2022-08-24T18:10:38Z</time>
      </trkpt>
      <trkpt lat="44.10552" lon="6.29991">
        <ele>998.626</ele>
        <time>2022-08-24T18:10:39Z</time>
      </trkpt>
      <trkpt lat="44.10548" lon="6.29992">
        <ele>998.609</ele>
        <time>2022-08-24T18:10:40Z</time>
      </trkpt>
      <trkpt lat="44.10538" lon="6.29993">
        <ele>998.449</ele>
        <time>2022-08-24T18:10:42Z</time>
      </trkpt>
      <trkpt lat="44.10533" lon="6.29994">
        <ele>997.299</ele>
        <time>2022-08-24T18:10:43Z</time>
      </trkpt>
      <trkpt lat="44.10527" lon="6.29995">
        <ele>996.439</ele>
        <time>2022-08-24T18:10:44Z</time>
      </trkpt>
      <trkpt lat="44.1052" lon="6.29996">
        <ele>995.655</ele>
        <time>2022-08-24T18:10:45Z</time>
      </trkpt>
      <trkpt lat="44.10514" lon="6.29996">
        <ele>994.248</ele>
        <time>2022-08-24T18:10:46Z</time>
      </trkpt>
      <trkpt lat="44.10499" lon="6.29996">
        <ele>992.821</ele>
        <time>2022-08-24T18:10:48Z</time>
      </trkpt>
      <trkpt lat="44.10492" lon="6.29996">
        <ele>992.297</ele>
        <time>2022-08-24T18:10:49Z</time>
      </trkpt>
      <trkpt lat="44.10488" lon="6.29987">
        <ele>991.681</ele>
        <time>2022-08-24T18:10:51Z</time>
      </trkpt>
      <trkpt lat="44.10483" lon="6.29984">
        <ele>990.644</ele>
        <time>2022-08-24T18:10:52Z</time>
      </trkpt>
      <trkpt lat="44.10481" lon="6.29982">
        <ele>990.073</ele>
        <time>2022-08-24T18:10:53Z</time>
      </trkpt>
      <trkpt lat="44.10467" lon="6.29977">
        <ele>990.085</ele>
        <time>2022-08-24T18:10:57Z</time>
      </trkpt>
      <trkpt lat="44.10455" lon="6.29973">
        <ele>991.213</ele>
        <time>2022-08-24T18:11:00Z</time>
      </trkpt>
      <trkpt lat="44.10453" lon="6.29971">
        <ele>991.409</ele>
        <time>2022-08-24T18:11:01Z</time>
      </trkpt>
      <trkpt lat="44.10449" lon="6.29965">
        <ele>991.818</ele>
        <time>2022-08-24T18:11:04Z</time>
      </trkpt>
      <trkpt lat="44.10444" lon="6.29958">
        <ele>992.098</ele>
        <time>2022-08-24T18:11:06Z</time>
      </trkpt>
      <trkpt lat="44.10428" lon="6.29935">
        <ele>992.038</ele>
        <time>2022-08-24T18:11:11Z</time>
      </trkpt>
      <trkpt lat="44.10415" lon="6.29926">
        <ele>992.014</ele>
        <time>2022-08-24T18:11:15Z</time>
      </trkpt>
      <trkpt lat="44.10412" lon="6.29924">
        <ele>991.877</ele>
        <time>2022-08-24T18:11:16Z</time>
      </trkpt>
      <trkpt lat="44.10403" lon="6.29917">
        <ele>991.81</ele>
        <time>2022-08-24T18:11:20Z</time>
      </trkpt>
      <trkpt lat="44.104" lon="6.29911">
        <ele>991.856</ele>
        <time>2022-08-24T18:11:22Z</time>
      </trkpt>
      <trkpt lat="44.10392" lon="6.29893">
        <ele>990.81</ele>
        <time>2022-08-24T18:11:32Z</time>
      </trkpt>
      <trkpt lat="44.1039" lon="6.29892">
        <ele>990.853</ele>
        <time>2022-08-24T18:11:33Z</time>
      </trkpt>
      <trkpt lat="44.10388" lon="6.2989">
        <ele>990.877</ele>
        <time>2022-08-24T18:11:34Z</time>
      </trkpt>
      <trkpt lat="44.10385" lon="6.29887">
        <ele>991.461</ele>
        <time>2022-08-24T18:11:36Z</time>
      </trkpt>
      <trkpt lat="44.10382" lon="6.29885">
        <ele>991.627</ele>
        <time>2022-08-24T18:11:38Z</time>
      </trkpt>
      <trkpt lat="44.10373" lon="6.29881">
        <ele>991.609</ele>
        <time>2022-08-24T18:11:43Z</time>
      </trkpt>
      <trkpt lat="44.10371" lon="6.29881">
        <ele>991.638</ele>
        <time>2022-08-24T18:11:44Z</time>
      </trkpt>
      <trkpt lat="44.10359" lon="6.29878">
        <ele>991.438</ele>
        <time>2022-08-24T18:11:50Z</time>
      </trkpt>
      <trkpt lat="44.10355" lon="6.29872">
        <ele>991.448</ele>
        <time>2022-08-24T18:11:52Z</time>
      </trkpt>
      <trkpt lat="44.10345" lon="6.29863">
        <ele>991.084</ele>
        <time>2022-08-24T18:11:55Z</time>
      </trkpt>
      <trkpt lat="44.10328" lon="6.29843">
        <ele>991.057</ele>
        <time>2022-08-24T18:12:00Z</time>
      </trkpt>
      <trkpt lat="44.1032" lon="6.29833">
        <ele>991.27</ele>
        <time>2022-08-24T18:12:03Z</time>
      </trkpt>
      <trkpt lat="44.10311" lon="6.2982">
        <ele>991.436</ele>
        <time>2022-08-24T18:12:06Z</time>
      </trkpt>
      <trkpt lat="44.10305" lon="6.29806">
        <ele>991.84</ele>
        <time>2022-08-24T18:12:10Z</time>
      </trkpt>
      <trkpt lat="44.10303" lon="6.29804">
        <ele>992.243</ele>
        <time>2022-08-24T18:12:11Z</time>
      </trkpt>
      <trkpt lat="44.10297" lon="6.29796">
        <ele>992.671</ele>
        <time>2022-08-24T18:12:14Z</time>
      </trkpt>
      <trkpt lat="44.10294" lon="6.29793">
        <ele>992.841</ele>
        <time>2022-08-24T18:12:16Z</time>
      </trkpt>
      <trkpt lat="44.10291" lon="6.29792">
        <ele>993.015</ele>
        <time>2022-08-24T18:12:18Z</time>
      </trkpt>
      <trkpt lat="44.10283" lon="6.29776">
        <ele>993.209</ele>
        <time>2022-08-24T18:12:22Z</time>
      </trkpt>
      <trkpt lat="44.10281" lon="6.29773">
        <ele>993.218</ele>
        <time>2022-08-24T18:12:23Z</time>
      </trkpt>
      <trkpt lat="44.10279" lon="6.2977">
        <ele>993.498</ele>
        <time>2022-08-24T18:12:24Z</time>
      </trkpt>
      <trkpt lat="44.10274" lon="6.29765">
        <ele>993.668</ele>
        <time>2022-08-24T18:12:26Z</time>
      </trkpt>
      <trkpt lat="44.10264" lon="6.29751">
        <ele>994.094</ele>
        <time>2022-08-24T18:12:30Z</time>
      </trkpt>
      <trkpt lat="44.10259" lon="6.29745">
        <ele>994.637</ele>
        <time>2022-08-24T18:12:32Z</time>
      </trkpt>
      <trkpt lat="44.10257" lon="6.29742">
        <ele>994.68</ele>
        <time>2022-08-24T18:12:33Z</time>
      </trkpt>
      <trkpt lat="44.10256" lon="6.29735">
        <ele>994.856</ele>
        <time>2022-08-24T18:12:35Z</time>
      </trkpt>
      <trkpt lat="44.10255" lon="6.2973">
        <ele>995.24</ele>
        <time>2022-08-24T18:12:36Z</time>
      </trkpt>
      <trkpt lat="44.10254" lon="6.29723">
        <ele>996.083</ele>
        <time>2022-08-24T18:12:38Z</time>
      </trkpt>
      <trkpt lat="44.10254" lon="6.29719">
        <ele>996.455</ele>
        <time>2022-08-24T18:12:39Z</time>
      </trkpt>
      <trkpt lat="44.1025" lon="6.29703">
        <ele>997.407</ele>
        <time>2022-08-24T18:12:42Z</time>
      </trkpt>
      <trkpt lat="44.10249" lon="6.29697">
        <ele>997.617</ele>
        <time>2022-08-24T18:12:43Z</time>
      </trkpt>
      <trkpt lat="44.10248" lon="6.29694">
        <ele>997.609</ele>
        <time>2022-08-24T18:12:44Z</time>
      </trkpt>
      <trkpt lat="44.10242" lon="6.29684">
        <ele>998.016</ele>
        <time>2022-08-24T18:12:47Z</time>
      </trkpt>
      <trkpt lat="44.1024" lon="6.29679">
        <ele>998.426</ele>
        <time>2022-08-24T18:12:48Z</time>
      </trkpt>
      <trkpt lat="44.10239" lon="6.29673">
        <ele>998.696</ele>
        <time>2022-08-24T18:12:49Z</time>
      </trkpt>
      <trkpt lat="44.10237" lon="6.29662">
        <ele>999.682</ele>
        <time>2022-08-24T18:12:51Z</time>
      </trkpt>
      <trkpt lat="44.10237" lon="6.29654">
        <ele>1000.865</ele>
        <time>2022-08-24T18:12:53Z</time>
      </trkpt>
      <trkpt lat="44.10235" lon="6.29647">
        <ele>1001.418</ele>
        <time>2022-08-24T18:12:55Z</time>
      </trkpt>
      <trkpt lat="44.10234" lon="6.29643">
        <ele>1001.894</ele>
        <time>2022-08-24T18:12:56Z</time>
      </trkpt>
      <trkpt lat="44.10233" lon="6.29636">
        <ele>1002.238</ele>
        <time>2022-08-24T18:12:58Z</time>
      </trkpt>
      <trkpt lat="44.1023" lon="6.2963">
        <ele>1002.661</ele>
        <time>2022-08-24T18:13:00Z</time>
      </trkpt>
      <trkpt lat="44.10228" lon="6.29628">
        <ele>1003.026</ele>
        <time>2022-08-24T18:13:01Z</time>
      </trkpt>
      <trkpt lat="44.10224" lon="6.29623">
        <ele>1003.647</ele>
        <time>2022-08-24T18:13:03Z</time>
      </trkpt>
      <trkpt lat="44.10223" lon="6.2962">
        <ele>1003.811</ele>
        <time>2022-08-24T18:13:04Z</time>
      </trkpt>
      <trkpt lat="44.1022" lon="6.29613">
        <ele>1004.409</ele>
        <time>2022-08-24T18:13:06Z</time>
      </trkpt>
      <trkpt lat="44.10216" lon="6.29605">
        <ele>1005.623</ele>
        <time>2022-08-24T18:13:08Z</time>
      </trkpt>
      <trkpt lat="44.10213" lon="6.29601">
        <ele>1005.813</ele>
        <time>2022-08-24T18:13:09Z</time>
      </trkpt>
      <trkpt lat="44.10208" lon="6.29592">
        <ele>1006.663</ele>
        <time>2022-08-24T18:13:11Z</time>
      </trkpt>
      <trkpt lat="44.10203" lon="6.2958">
        <ele>1007.849</ele>
        <time>2022-08-24T18:13:14Z</time>
      </trkpt>
      <trkpt lat="44.10201" lon="6.29577">
        <ele>1008.282</ele>
        <time>2022-08-24T18:13:15Z</time>
      </trkpt>
      <trkpt lat="44.10196" lon="6.29562">
        <ele>1008.685</ele>
        <time>2022-08-24T18:13:19Z</time>
      </trkpt>
      <trkpt lat="44.10187" lon="6.29545">
        <ele>1008.881</ele>
        <time>2022-08-24T18:13:23Z</time>
      </trkpt>
      <trkpt lat="44.10187" lon="6.29536">
        <ele>1008.855</ele>
        <time>2022-08-24T18:13:25Z</time>
      </trkpt>
      <trkpt lat="44.10187" lon="6.29531">
        <ele>1009.018</ele>
        <time>2022-08-24T18:13:26Z</time>
      </trkpt>
      <trkpt lat="44.10186" lon="6.29528">
        <ele>1009.279</ele>
        <time>2022-08-24T18:13:27Z</time>
      </trkpt>
      <trkpt lat="44.1018" lon="6.29516">
        <ele>1009.605</ele>
        <time>2022-08-24T18:13:30Z</time>
      </trkpt>
      <trkpt lat="44.10178" lon="6.29511">
        <ele>1010.225</ele>
        <time>2022-08-24T18:13:31Z</time>
      </trkpt>
      <trkpt lat="44.10169" lon="6.29493">
        <ele>1011.409</ele>
        <time>2022-08-24T18:13:35Z</time>
      </trkpt>
      <trkpt lat="44.10155" lon="6.29483">
        <ele>1011.898</ele>
        <time>2022-08-24T18:13:39Z</time>
      </trkpt>
      <trkpt lat="44.10151" lon="6.29477">
        <ele>1012.018</ele>
        <time>2022-08-24T18:13:41Z</time>
      </trkpt>
      <trkpt lat="44.10152" lon="6.29473">
        <ele>1012.668</ele>
        <time>2022-08-24T18:13:42Z</time>
      </trkpt>
      <trkpt lat="44.10152" lon="6.29464">
        <ele>1013.264</ele>
        <time>2022-08-24T18:13:44Z</time>
      </trkpt>
      <trkpt lat="44.10151" lon="6.29461">
        <ele>1013.687</ele>
        <time>2022-08-24T18:13:45Z</time>
      </trkpt>
      <trkpt lat="44.10149" lon="6.29458">
        <ele>1014.05</ele>
        <time>2022-08-24T18:13:46Z</time>
      </trkpt>
      <trkpt lat="44.10142" lon="6.29451">
        <ele>1014.446</ele>
        <time>2022-08-24T18:13:48Z</time>
      </trkpt>
      <trkpt lat="44.10134" lon="6.29443">
        <ele>1014.87</ele>
        <time>2022-08-24T18:13:50Z</time>
      </trkpt>
      <trkpt lat="44.10131" lon="6.29438">
        <ele>1015.093</ele>
        <time>2022-08-24T18:13:51Z</time>
      </trkpt>
      <trkpt lat="44.10128" lon="6.29422">
        <ele>1015.083</ele>
        <time>2022-08-24T18:13:53Z</time>
      </trkpt>
      <trkpt lat="44.10126" lon="6.29407">
        <ele>1014.825</ele>
        <time>2022-08-24T18:13:55Z</time>
      </trkpt>
      <trkpt lat="44.10122" lon="6.29395">
        <ele>1015.017</ele>
        <time>2022-08-24T18:13:57Z</time>
      </trkpt>
      <trkpt lat="44.1011" lon="6.29379">
        <ele>1015.809</ele>
        <time>2022-08-24T18:14:00Z</time>
      </trkpt>
      <trkpt lat="44.10107" lon="6.29374">
        <ele>1016.239</ele>
        <time>2022-08-24T18:14:01Z</time>
      </trkpt>
      <trkpt lat="44.10104" lon="6.29368">
        <ele>1016.239</ele>
        <time>2022-08-24T18:14:02Z</time>
      </trkpt>
      <trkpt lat="44.10102" lon="6.29362">
        <ele>1016.499</ele>
        <time>2022-08-24T18:14:03Z</time>
      </trkpt>
      <trkpt lat="44.10094" lon="6.29334">
        <ele>1016.445</ele>
        <time>2022-08-24T18:14:07Z</time>
      </trkpt>
      <trkpt lat="44.1009" lon="6.29324">
        <ele>1017.228</ele>
        <time>2022-08-24T18:14:09Z</time>
      </trkpt>
      <trkpt lat="44.10086" lon="6.29321">
        <ele>1017.691</ele>
        <time>2022-08-24T18:14:10Z</time>
      </trkpt>
      <trkpt lat="44.10083" lon="6.29317">
        <ele>1017.827</ele>
        <time>2022-08-24T18:14:11Z</time>
      </trkpt>
      <trkpt lat="44.10075" lon="6.29306">
        <ele>1018.031</ele>
        <time>2022-08-24T18:14:14Z</time>
      </trkpt>
      <trkpt lat="44.1007" lon="6.29299">
        <ele>1018.084</ele>
        <time>2022-08-24T18:14:16Z</time>
      </trkpt>
      <trkpt lat="44.10065" lon="6.29289">
        <ele>1017.621</ele>
        <time>2022-08-24T18:14:18Z</time>
      </trkpt>
      <trkpt lat="44.10062" lon="6.29284">
        <ele>1017.441</ele>
        <time>2022-08-24T18:14:19Z</time>
      </trkpt>
      <trkpt lat="44.10051" lon="6.29273">
        <ele>1017.605</ele>
        <time>2022-08-24T18:14:23Z</time>
      </trkpt>
      <trkpt lat="44.10048" lon="6.29265">
        <ele>1018.209</ele>
        <time>2022-08-24T18:14:25Z</time>
      </trkpt>
      <trkpt lat="44.10043" lon="6.29257">
        <ele>1018.463</ele>
        <time>2022-08-24T18:14:27Z</time>
      </trkpt>
      <trkpt lat="44.1004" lon="6.29255">
        <ele>1019.483</ele>
        <time>2022-08-24T18:14:28Z</time>
      </trkpt>
      <trkpt lat="44.10033" lon="6.29248">
        <ele>1018.623</ele>
        <time>2022-08-24T18:14:30Z</time>
      </trkpt>
      <trkpt lat="44.10031" lon="6.29243">
        <ele>1018.219</ele>
        <time>2022-08-24T18:14:31Z</time>
      </trkpt>
      <trkpt lat="44.10029" lon="6.29236">
        <ele>1018.412</ele>
        <time>2022-08-24T18:14:32Z</time>
      </trkpt>
      <trkpt lat="44.10029" lon="6.29226">
        <ele>1018.615</ele>
        <time>2022-08-24T18:14:34Z</time>
      </trkpt>
      <trkpt lat="44.1003" lon="6.29223">
        <ele>1018.651</ele>
        <time>2022-08-24T18:14:35Z</time>
      </trkpt>
      <trkpt lat="44.10029" lon="6.29221">
        <ele>1019.685</ele>
        <time>2022-08-24T18:14:36Z</time>
      </trkpt>
      <trkpt lat="44.10025" lon="6.29215">
        <ele>1020.848</ele>
        <time>2022-08-24T18:14:38Z</time>
      </trkpt>
      <trkpt lat="44.10021" lon="6.29207">
        <ele>1021.417</ele>
        <time>2022-08-24T18:14:40Z</time>
      </trkpt>
      <trkpt lat="44.10022" lon="6.29199">
        <ele>1022.087</ele>
        <time>2022-08-24T18:14:42Z</time>
      </trkpt>
      <trkpt lat="44.10023" lon="6.29193">
        <ele>1022.815</ele>
        <time>2022-08-24T18:14:44Z</time>
      </trkpt>
      <trkpt lat="44.10022" lon="6.2919">
        <ele>1023.009</ele>
        <time>2022-08-24T18:14:45Z</time>
      </trkpt>
      <trkpt lat="44.1002" lon="6.29188">
        <ele>1023.642</ele>
        <time>2022-08-24T18:14:46Z</time>
      </trkpt>
      <trkpt lat="44.10018" lon="6.29184">
        <ele>1024.022</ele>
        <time>2022-08-24T18:14:47Z</time>
      </trkpt>
      <trkpt lat="44.10017" lon="6.2918">
        <ele>1024.432</ele>
        <time>2022-08-24T18:14:48Z</time>
      </trkpt>
      <trkpt lat="44.10016" lon="6.29176">
        <ele>1024.698</ele>
        <time>2022-08-24T18:14:49Z</time>
      </trkpt>
      <trkpt lat="44.10014" lon="6.2917">
        <ele>1025.261</ele>
        <time>2022-08-24T18:14:51Z</time>
      </trkpt>
      <trkpt lat="44.10012" lon="6.29169">
        <ele>1025.654</ele>
        <time>2022-08-24T18:14:52Z</time>
      </trkpt>
      <trkpt lat="44.1001" lon="6.29167">
        <ele>1026.46</ele>
        <time>2022-08-24T18:14:53Z</time>
      </trkpt>
      <trkpt lat="44.10007" lon="6.29165">
        <ele>1027.024</ele>
        <time>2022-08-24T18:14:54Z</time>
      </trkpt>
      <trkpt lat="44.10003" lon="6.29162">
        <ele>1028.867</ele>
        <time>2022-08-24T18:14:56Z</time>
      </trkpt>
      <trkpt lat="44.10001" lon="6.29159">
        <ele>1029.463</ele>
        <time>2022-08-24T18:14:57Z</time>
      </trkpt>
      <trkpt lat="44.1" lon="6.29156">
        <ele>1029.844</ele>
        <time>2022-08-24T18:14:58Z</time>
      </trkpt>
      <trkpt lat="44.09996" lon="6.29151">
        <ele>1030.618</ele>
        <time>2022-08-24T18:15:01Z</time>
      </trkpt>
      <trkpt lat="44.09994" lon="6.29151">
        <ele>1030.809</ele>
        <time>2022-08-24T18:15:03Z</time>
      </trkpt>
      <trkpt lat="44.09993" lon="6.2915">
        <ele>1031.077</ele>
        <time>2022-08-24T18:15:05Z</time>
      </trkpt>
      <trkpt lat="44.09988" lon="6.2915">
        <ele>1029.447</ele>
        <time>2022-08-24T18:15:27Z</time>
      </trkpt>
      <trkpt lat="44.09986" lon="6.29152">
        <ele>1029.477</ele>
        <time>2022-08-24T18:15:28Z</time>
      </trkpt>
      <trkpt lat="44.09982" lon="6.29155">
        <ele>1029.413</ele>
        <time>2022-08-24T18:15:30Z</time>
      </trkpt>
      <trkpt lat="44.0998" lon="6.2916">
        <ele>1028.426</ele>
        <time>2022-08-24T18:15:32Z</time>
      </trkpt>
      <trkpt lat="44.09979" lon="6.29163">
        <ele>1028.279</ele>
        <time>2022-08-24T18:15:33Z</time>
      </trkpt>
      <trkpt lat="44.09973" lon="6.29168">
        <ele>1027.675</ele>
        <time>2022-08-24T18:15:35Z</time>
      </trkpt>
      <trkpt lat="44.09962" lon="6.29173">
        <ele>1026.059</ele>
        <time>2022-08-24T18:15:38Z</time>
      </trkpt>
      <trkpt lat="44.09958" lon="6.29176">
        <ele>1025.412</ele>
        <time>2022-08-24T18:15:39Z</time>
      </trkpt>
      <trkpt lat="44.09954" lon="6.29181">
        <ele>1024.672</ele>
        <time>2022-08-24T18:15:40Z</time>
      </trkpt>
      <trkpt lat="44.09952" lon="6.29185">
        <ele>1022.613</ele>
        <time>2022-08-24T18:15:41Z</time>
      </trkpt>
      <trkpt lat="44.09951" lon="6.29189">
        <ele>1021.614</ele>
        <time>2022-08-24T18:15:42Z</time>
      </trkpt>
      <trkpt lat="44.09949" lon="6.29191">
        <ele>1021.009</ele>
        <time>2022-08-24T18:15:43Z</time>
      </trkpt>
      <trkpt lat="44.09947" lon="6.29193">
        <ele>1020.498</ele>
        <time>2022-08-24T18:15:44Z</time>
      </trkpt>
      <trkpt lat="44.09943" lon="6.29194">
        <ele>1019.248</ele>
        <time>2022-08-24T18:15:45Z</time>
      </trkpt>
      <trkpt lat="44.09939" lon="6.29193">
        <ele>1018.678</ele>
        <time>2022-08-24T18:15:46Z</time>
      </trkpt>
      <trkpt lat="44.09935" lon="6.29192">
        <ele>1018.024</ele>
        <time>2022-08-24T18:15:47Z</time>
      </trkpt>
      <trkpt lat="44.09926" lon="6.29191">
        <ele>1017.857</ele>
        <time>2022-08-24T18:15:49Z</time>
      </trkpt>
      <trkpt lat="44.0992" lon="6.29191">
        <ele>1017.09</ele>
        <time>2022-08-24T18:15:50Z</time>
      </trkpt>
      <trkpt lat="44.09911" lon="6.29193">
        <ele>1015.496</ele>
        <time>2022-08-24T18:15:52Z</time>
      </trkpt>
      <trkpt lat="44.09907" lon="6.29198">
        <ele>1014.43</ele>
        <time>2022-08-24T18:15:54Z</time>
      </trkpt>
      <trkpt lat="44.09905" lon="6.29199">
        <ele>1013.493</ele>
        <time>2022-08-24T18:15:55Z</time>
      </trkpt>
      <trkpt lat="44.09903" lon="6.292">
        <ele>1012.881</ele>
        <time>2022-08-24T18:15:56Z</time>
      </trkpt>
      <trkpt lat="44.099" lon="6.29205">
        <ele>1012.261</ele>
        <time>2022-08-24T18:15:58Z</time>
      </trkpt>
      <trkpt lat="44.09895" lon="6.29211">
        <ele>1011.817</ele>
        <time>2022-08-24T18:16:00Z</time>
      </trkpt>
      <trkpt lat="44.09892" lon="6.2921">
        <ele>1010.409</ele>
        <time>2022-08-24T18:16:01Z</time>
      </trkpt>
      <trkpt lat="44.09887" lon="6.29209">
        <ele>1009.819</ele>
        <time>2022-08-24T18:16:02Z</time>
      </trkpt>
      <trkpt lat="44.09881" lon="6.29208">
        <ele>1008.839</ele>
        <time>2022-08-24T18:16:03Z</time>
      </trkpt>
      <trkpt lat="44.09876" lon="6.29205">
        <ele>1008.249</ele>
        <time>2022-08-24T18:16:04Z</time>
      </trkpt>
      <trkpt lat="44.09873" lon="6.292">
        <ele>1006.875</ele>
        <time>2022-08-24T18:16:05Z</time>
      </trkpt>
      <trkpt lat="44.09869" lon="6.29191">
        <ele>1006.058</ele>
        <time>2022-08-24T18:16:06Z</time>
      </trkpt>
      <trkpt lat="44.09865" lon="6.29188">
        <ele>1005.451</ele>
        <time>2022-08-24T18:16:07Z</time>
      </trkpt>
      <trkpt lat="44.09861" lon="6.29189">
        <ele>1005.057</ele>
        <time>2022-08-24T18:16:08Z</time>
      </trkpt>
      <trkpt lat="44.09858" lon="6.29188">
        <ele>1004.441</ele>
        <time>2022-08-24T18:16:09Z</time>
      </trkpt>
      <trkpt lat="44.09849" lon="6.29187">
        <ele>1002.254</ele>
        <time>2022-08-24T18:16:11Z</time>
      </trkpt>
      <trkpt lat="44.09834" lon="6.29182">
        <ele>1001.047</ele>
        <time>2022-08-24T18:16:13Z</time>
      </trkpt>
      <trkpt lat="44.0982" lon="6.29176">
        <ele>1000.429</ele>
        <time>2022-08-24T18:16:15Z</time>
      </trkpt>
      <trkpt lat="44.09815" lon="6.29173">
        <ele>999.821</ele>
        <time>2022-08-24T18:16:16Z</time>
      </trkpt>
      <trkpt lat="44.09808" lon="6.29171">
        <ele>998.009</ele>
        <time>2022-08-24T18:16:17Z</time>
      </trkpt>
      <trkpt lat="44.09803" lon="6.29174">
        <ele>996.875</ele>
        <time>2022-08-24T18:16:18Z</time>
      </trkpt>
      <trkpt lat="44.09797" lon="6.2918">
        <ele>995.685</ele>
        <time>2022-08-24T18:16:19Z</time>
      </trkpt>
      <trkpt lat="44.09788" lon="6.29181">
        <ele>994.685</ele>
        <time>2022-08-24T18:16:21Z</time>
      </trkpt>
      <trkpt lat="44.09777" lon="6.29173">
        <ele>993.211</ele>
        <time>2022-08-24T18:16:24Z</time>
      </trkpt>
      <trkpt lat="44.09772" lon="6.2917">
        <ele>993.284</ele>
        <time>2022-08-24T18:16:25Z</time>
      </trkpt>
      <trkpt lat="44.09763" lon="6.29162">
        <ele>992.897</ele>
        <time>2022-08-24T18:16:27Z</time>
      </trkpt>
      <trkpt lat="44.09752" lon="6.29155">
        <ele>992.873</ele>
        <time>2022-08-24T18:16:29Z</time>
      </trkpt>
      <trkpt lat="44.09747" lon="6.29155">
        <ele>992.897</ele>
        <time>2022-08-24T18:16:30Z</time>
      </trkpt>
      <trkpt lat="44.09742" lon="6.29157">
        <ele>992.87</ele>
        <time>2022-08-24T18:16:31Z</time>
      </trkpt>
      <trkpt lat="44.0973" lon="6.29153">
        <ele>992.818</ele>
        <time>2022-08-24T18:16:33Z</time>
      </trkpt>
      <trkpt lat="44.09715" lon="6.29146">
        <ele>992.298</ele>
        <time>2022-08-24T18:16:36Z</time>
      </trkpt>
      <trkpt lat="44.0971" lon="6.29144">
        <ele>991.817</ele>
        <time>2022-08-24T18:16:37Z</time>
      </trkpt>
      <trkpt lat="44.09704" lon="6.29142">
        <ele>991.609</ele>
        <time>2022-08-24T18:16:38Z</time>
      </trkpt>
      <trkpt lat="44.09693" lon="6.29138">
        <ele>991.262</ele>
        <time>2022-08-24T18:16:40Z</time>
      </trkpt>
      <trkpt lat="44.09681" lon="6.29134">
        <ele>990.222</ele>
        <time>2022-08-24T18:16:42Z</time>
      </trkpt>
      <trkpt lat="44.0967" lon="6.29131">
        <ele>990.062</ele>
        <time>2022-08-24T18:16:44Z</time>
      </trkpt>
      <trkpt lat="44.09663" lon="6.29125">
        <ele>989.898</ele>
        <time>2022-08-24T18:16:46Z</time>
      </trkpt>
      <trkpt lat="44.09651" lon="6.29112">
        <ele>990.651</ele>
        <time>2022-08-24T18:16:50Z</time>
      </trkpt>
      <trkpt lat="44.09643" lon="6.29103">
        <ele>990.894</ele>
        <time>2022-08-24T18:16:53Z</time>
      </trkpt>
      <trkpt lat="44.09642" lon="6.29099">
        <ele>990.82</ele>
        <time>2022-08-24T18:16:54Z</time>
      </trkpt>
      <trkpt lat="44.09639" lon="6.29091">
        <ele>991.044</ele>
        <time>2022-08-24T18:16:56Z</time>
      </trkpt>
      <trkpt lat="44.09633" lon="6.29086">
        <ele>991.467</ele>
        <time>2022-08-24T18:16:58Z</time>
      </trkpt>
      <trkpt lat="44.09625" lon="6.29082">
        <ele>992.619</ele>
        <time>2022-08-24T18:17:01Z</time>
      </trkpt>
      <trkpt lat="44.09619" lon="6.2908">
        <ele>993.209</ele>
        <time>2022-08-24T18:17:03Z</time>
      </trkpt>
      <trkpt lat="44.09616" lon="6.29077">
        <ele>993.219</ele>
        <time>2022-08-24T18:17:04Z</time>
      </trkpt>
      <trkpt lat="44.09614" lon="6.29074">
        <ele>993.809</ele>
        <time>2022-08-24T18:17:05Z</time>
      </trkpt>
      <trkpt lat="44.09612" lon="6.2907">
        <ele>993.832</ele>
        <time>2022-08-24T18:17:06Z</time>
      </trkpt>
      <trkpt lat="44.0961" lon="6.29067">
        <ele>994.272</ele>
        <time>2022-08-24T18:17:09Z</time>
      </trkpt>
      <trkpt lat="44.09608" lon="6.29061">
        <ele>994.632</ele>
        <time>2022-08-24T18:17:30Z</time>
      </trkpt>
      <trkpt lat="44.09612" lon="6.29046">
        <ele>993.628</ele>
        <time>2022-08-24T18:17:34Z</time>
      </trkpt>
      <trkpt lat="44.09613" lon="6.29042">
        <ele>993.271</ele>
        <time>2022-08-24T18:17:35Z</time>
      </trkpt>
      <trkpt lat="44.09612" lon="6.29037">
        <ele>992.474</ele>
        <time>2022-08-24T18:17:36Z</time>
      </trkpt>
      <trkpt lat="44.09611" lon="6.29033">
        <ele>992.04</ele>
        <time>2022-08-24T18:17:37Z</time>
      </trkpt>
      <trkpt lat="44.09612" lon="6.29028">
        <ele>991.444</ele>
        <time>2022-08-24T18:17:38Z</time>
      </trkpt>
      <trkpt lat="44.09614" lon="6.29019">
        <ele>989.897</ele>
        <time>2022-08-24T18:17:40Z</time>
      </trkpt>
      <trkpt lat="44.09613" lon="6.29004">
        <ele>988.037</ele>
        <time>2022-08-24T18:17:42Z</time>
      </trkpt>
      <trkpt lat="44.0961" lon="6.28996">
        <ele>986.049</ele>
        <time>2022-08-24T18:17:43Z</time>
      </trkpt>
      <trkpt lat="44.09607" lon="6.28989">
        <ele>983.813</ele>
        <time>2022-08-24T18:17:44Z</time>
      </trkpt>
      <trkpt lat="44.09604" lon="6.28983">
        <ele>982.009</ele>
        <time>2022-08-24T18:17:45Z</time>
      </trkpt>
      <trkpt lat="44.09602" lon="6.28977">
        <ele>980.834</ele>
        <time>2022-08-24T18:17:46Z</time>
      </trkpt>
      <trkpt lat="44.09601" lon="6.28971">
        <ele>979.854</ele>
        <time>2022-08-24T18:17:47Z</time>
      </trkpt>
      <trkpt lat="44.09598" lon="6.28967">
        <ele>978.614</ele>
        <time>2022-08-24T18:17:48Z</time>
      </trkpt>
      <trkpt lat="44.09594" lon="6.28963">
        <ele>977.89</ele>
        <time>2022-08-24T18:17:49Z</time>
      </trkpt>
      <trkpt lat="44.0959" lon="6.28959">
        <ele>977.013</ele>
        <time>2022-08-24T18:17:50Z</time>
      </trkpt>
      <trkpt lat="44.09587" lon="6.28956">
        <ele>975.056</ele>
        <time>2022-08-24T18:17:51Z</time>
      </trkpt>
      <trkpt lat="44.09585" lon="6.28952">
        <ele>974.032</ele>
        <time>2022-08-24T18:17:52Z</time>
      </trkpt>
      <trkpt lat="44.09582" lon="6.28945">
        <ele>972.856</ele>
        <time>2022-08-24T18:17:53Z</time>
      </trkpt>
      <trkpt lat="44.09581" lon="6.28938">
        <ele>971.899</ele>
        <time>2022-08-24T18:17:54Z</time>
      </trkpt>
      <trkpt lat="44.09579" lon="6.28931">
        <ele>970.439</ele>
        <time>2022-08-24T18:17:55Z</time>
      </trkpt>
      <trkpt lat="44.09576" lon="6.28923">
        <ele>970.601</ele>
        <time>2022-08-24T18:17:56Z</time>
      </trkpt>
      <trkpt lat="44.09574" lon="6.28914">
        <ele>969.621</ele>
        <time>2022-08-24T18:17:57Z</time>
      </trkpt>
      <trkpt lat="44.09573" lon="6.28908">
        <ele>969.209</ele>
        <time>2022-08-24T18:17:58Z</time>
      </trkpt>
      <trkpt lat="44.09571" lon="6.28902">
        <ele>967.894</ele>
        <time>2022-08-24T18:17:59Z</time>
      </trkpt>
      <trkpt lat="44.09569" lon="6.28896">
        <ele>966.614</ele>
        <time>2022-08-24T18:18:00Z</time>
      </trkpt>
      <trkpt lat="44.09567" lon="6.28887">
        <ele>965.414</ele>
        <time>2022-08-24T18:18:02Z</time>
      </trkpt>
      <trkpt lat="44.09565" lon="6.28883">
        <ele>965.29</ele>
        <time>2022-08-24T18:18:03Z</time>
      </trkpt>
      <trkpt lat="44.09562" lon="6.28881">
        <ele>965.063</ele>
        <time>2022-08-24T18:18:04Z</time>
      </trkpt>
      <trkpt lat="44.09561" lon="6.28881">
        <ele>964.816</ele>
        <time>2022-08-24T18:18:06Z</time>
      </trkpt>
      <trkpt lat="44.09561" lon="6.28881">
        <ele>964.622</ele>
        <time>2022-08-24T18:18:07Z</time>
      </trkpt>
      <trkpt lat="44.09558" lon="6.28873">
        <ele>963.616</ele>
        <time>2022-08-24T18:18:28Z</time>
      </trkpt>
      <trkpt lat="44.09557" lon="6.2887">
        <ele>963.629</ele>
        <time>2022-08-24T18:18:30Z</time>
      </trkpt>
      <trkpt lat="44.09557" lon="6.2887">
        <ele>963.638</ele>
        <time>2022-08-24T18:18:31Z</time>
      </trkpt>
      <trkpt lat="44.09558" lon="6.28859">
        <ele>961.27</ele>
        <time>2022-08-24T18:21:47Z</time>
      </trkpt>
      <trkpt lat="44.09557" lon="6.28856">
        <ele>961.017</ele>
        <time>2022-08-24T18:21:48Z</time>
      </trkpt>
      <trkpt lat="44.09552" lon="6.28846">
        <ele>960.809</ele>
        <time>2022-08-24T18:21:50Z</time>
      </trkpt>
      <trkpt lat="44.09548" lon="6.28835">
        <ele>960.484</ele>
        <time>2022-08-24T18:21:52Z</time>
      </trkpt>
      <trkpt lat="44.09546" lon="6.2883">
        <ele>959.094</ele>
        <time>2022-08-24T18:21:53Z</time>
      </trkpt>
      <trkpt lat="44.09545" lon="6.28826">
        <ele>957.894</ele>
        <time>2022-08-24T18:21:54Z</time>
      </trkpt>
      <trkpt lat="44.09545" lon="6.28822">
        <ele>957.07</ele>
        <time>2022-08-24T18:21:55Z</time>
      </trkpt>
      <trkpt lat="44.09544" lon="6.28819">
        <ele>955.633</ele>
        <time>2022-08-24T18:21:56Z</time>
      </trkpt>
      <trkpt lat="44.0954" lon="6.2881">
        <ele>954.446</ele>
        <time>2022-08-24T18:21:58Z</time>
      </trkpt>
      <trkpt lat="44.09538" lon="6.28805">
        <ele>954.032</ele>
        <time>2022-08-24T18:21:59Z</time>
      </trkpt>
      <trkpt lat="44.09533" lon="6.28795">
        <ele>952.466</ele>
        <time>2022-08-24T18:22:01Z</time>
      </trkpt>
      <trkpt lat="44.09532" lon="6.2879">
        <ele>951.889</ele>
        <time>2022-08-24T18:22:02Z</time>
      </trkpt>
      <trkpt lat="44.09531" lon="6.28784">
        <ele>950.494</ele>
        <time>2022-08-24T18:22:03Z</time>
      </trkpt>
      <trkpt lat="44.09529" lon="6.28779">
        <ele>949.657</ele>
        <time>2022-08-24T18:22:04Z</time>
      </trkpt>
      <trkpt lat="44.09527" lon="6.28775">
        <ele>948.622</ele>
        <time>2022-08-24T18:22:05Z</time>
      </trkpt>
      <trkpt lat="44.09524" lon="6.28771">
        <ele>948.009</ele>
        <time>2022-08-24T18:22:06Z</time>
      </trkpt>
      <trkpt lat="44.0952" lon="6.28769">
        <ele>946.08</ele>
        <time>2022-08-24T18:22:07Z</time>
      </trkpt>
      <trkpt lat="44.09517" lon="6.28764">
        <ele>945.04</ele>
        <time>2022-08-24T18:22:08Z</time>
      </trkpt>
      <trkpt lat="44.09516" lon="6.2876">
        <ele>944.09</ele>
        <time>2022-08-24T18:22:09Z</time>
      </trkpt>
      <trkpt lat="44.09515" lon="6.28754">
        <ele>943.646</ele>
        <time>2022-08-24T18:22:10Z</time>
      </trkpt>
      <trkpt lat="44.09516" lon="6.28743">
        <ele>943.059</ele>
        <time>2022-08-24T18:22:13Z</time>
      </trkpt>
      <trkpt lat="44.09516" lon="6.2874">
        <ele>942.682</ele>
        <time>2022-08-24T18:22:14Z</time>
      </trkpt>
      <trkpt lat="44.09516" lon="6.28737">
        <ele>941.818</ele>
        <time>2022-08-24T18:22:15Z</time>
      </trkpt>
      <trkpt lat="44.09515" lon="6.28734">
        <ele>940.412</ele>
        <time>2022-08-24T18:22:16Z</time>
      </trkpt>
      <trkpt lat="44.09513" lon="6.28733">
        <ele>938.885</ele>
        <time>2022-08-24T18:22:17Z</time>
      </trkpt>
      <trkpt lat="44.0951" lon="6.28732">
        <ele>937.651</ele>
        <time>2022-08-24T18:22:18Z</time>
      </trkpt>
      <trkpt lat="44.09506" lon="6.28733">
        <ele>936.201</ele>
        <time>2022-08-24T18:22:20Z</time>
      </trkpt>
      <trkpt lat="44.09502" lon="6.28734">
        <ele>934.811</ele>
        <time>2022-08-24T18:22:22Z</time>
      </trkpt>
      <trkpt lat="44.09501" lon="6.28727">
        <ele>933.209</ele>
        <time>2022-08-24T18:22:24Z</time>
      </trkpt>
      <trkpt lat="44.09502" lon="6.28722">
        <ele>932.626</ele>
        <time>2022-08-24T18:22:25Z</time>
      </trkpt>
      <trkpt lat="44.09504" lon="6.28718">
        <ele>932.276</ele>
        <time>2022-08-24T18:22:26Z</time>
      </trkpt>
      <trkpt lat="44.09511" lon="6.28709">
        <ele>931.236</ele>
        <time>2022-08-24T18:22:29Z</time>
      </trkpt>
      <trkpt lat="44.09512" lon="6.28705">
        <ele>931.032</ele>
        <time>2022-08-24T18:22:30Z</time>
      </trkpt>
      <trkpt lat="44.09514" lon="6.28703">
        <ele>929.265</ele>
        <time>2022-08-24T18:22:31Z</time>
      </trkpt>
      <trkpt lat="44.09515" lon="6.28701">
        <ele>928.258</ele>
        <time>2022-08-24T18:22:32Z</time>
      </trkpt>
      <trkpt lat="44.09515" lon="6.28699">
        <ele>926.484</ele>
        <time>2022-08-24T18:22:33Z</time>
      </trkpt>
      <trkpt lat="44.09516" lon="6.28695">
        <ele>924.838</ele>
        <time>2022-08-24T18:22:35Z</time>
      </trkpt>
      <trkpt lat="44.09518" lon="6.28694">
        <ele>924.651</ele>
        <time>2022-08-24T18:22:36Z</time>
      </trkpt>
      <trkpt lat="44.09523" lon="6.28692">
        <ele>922.899</ele>
        <time>2022-08-24T18:22:39Z</time>
      </trkpt>
      <trkpt lat="44.09523" lon="6.2869">
        <ele>921.607</ele>
        <time>2022-08-24T18:22:40Z</time>
      </trkpt>
      <trkpt lat="44.09519" lon="6.28684">
        <ele>920.427</ele>
        <time>2022-08-24T18:22:42Z</time>
      </trkpt>
      <trkpt lat="44.09518" lon="6.28681">
        <ele>919.209</ele>
        <time>2022-08-24T18:22:43Z</time>
      </trkpt>
      <trkpt lat="44.09518" lon="6.28677">
        <ele>917.03</ele>
        <time>2022-08-24T18:22:44Z</time>
      </trkpt>
      <trkpt lat="44.09519" lon="6.28674">
        <ele>915.84</ele>
        <time>2022-08-24T18:22:45Z</time>
      </trkpt>
      <trkpt lat="44.0952" lon="6.28672">
        <ele>915.06</ele>
        <time>2022-08-24T18:22:46Z</time>
      </trkpt>
      <trkpt lat="44.09522" lon="6.28669">
        <ele>914.626</ele>
        <time>2022-08-24T18:22:47Z</time>
      </trkpt>
      <trkpt lat="44.09522" lon="6.28666">
        <ele>913.649</ele>
        <time>2022-08-24T18:22:48Z</time>
      </trkpt>
      <trkpt lat="44.09521" lon="6.28663">
        <ele>912.092</ele>
        <time>2022-08-24T18:22:49Z</time>
      </trkpt>
      <trkpt lat="44.09521" lon="6.28659">
        <ele>910.648</ele>
        <time>2022-08-24T18:22:50Z</time>
      </trkpt>
      <trkpt lat="44.09524" lon="6.28653">
        <ele>909.062</ele>
        <time>2022-08-24T18:22:52Z</time>
      </trkpt>
      <trkpt lat="44.09525" lon="6.28651">
        <ele>908.065</ele>
        <time>2022-08-24T18:22:53Z</time>
      </trkpt>
      <trkpt lat="44.09525" lon="6.28649">
        <ele>907.087</ele>
        <time>2022-08-24T18:22:54Z</time>
      </trkpt>
      <trkpt lat="44.09524" lon="6.28645">
        <ele>906.242</ele>
        <time>2022-08-24T18:22:55Z</time>
      </trkpt>
      <trkpt lat="44.09523" lon="6.28642">
        <ele>905.226</ele>
        <time>2022-08-24T18:22:56Z</time>
      </trkpt>
      <trkpt lat="44.09521" lon="6.2864">
        <ele>903.409</ele>
        <time>2022-08-24T18:22:57Z</time>
      </trkpt>
      <trkpt lat="44.09521" lon="6.28631">
        <ele>902.099</ele>
        <time>2022-08-24T18:22:59Z</time>
      </trkpt>
      <trkpt lat="44.09522" lon="6.28629">
        <ele>901.289</ele>
        <time>2022-08-24T18:23:00Z</time>
      </trkpt>
      <trkpt lat="44.09523" lon="6.28629">
        <ele>900.439</ele>
        <time>2022-08-24T18:23:01Z</time>
      </trkpt>
      <trkpt lat="44.09525" lon="6.2863">
        <ele>900.075</ele>
        <time>2022-08-24T18:23:02Z</time>
      </trkpt>
      <trkpt lat="44.09528" lon="6.28628">
        <ele>899.618</ele>
        <time>2022-08-24T18:23:04Z</time>
      </trkpt>
      <trkpt lat="44.09528" lon="6.28625">
        <ele>899.251</ele>
        <time>2022-08-24T18:23:05Z</time>
      </trkpt>
      <trkpt lat="44.09526" lon="6.28623">
        <ele>898.037</ele>
        <time>2022-08-24T18:23:06Z</time>
      </trkpt>
      <trkpt lat="44.09527" lon="6.28621">
        <ele>896.471</ele>
        <time>2022-08-24T18:23:07Z</time>
      </trkpt>
      <trkpt lat="44.09528" lon="6.28621">
        <ele>895.474</ele>
        <time>2022-08-24T18:23:08Z</time>
      </trkpt>
      <trkpt lat="44.09528" lon="6.28619">
        <ele>894.814</ele>
        <time>2022-08-24T18:23:09Z</time>
      </trkpt>
      <trkpt lat="44.09529" lon="6.28612">
        <ele>893.254</ele>
        <time>2022-08-24T18:23:11Z</time>
      </trkpt>
      <trkpt lat="44.0953" lon="6.2861">
        <ele>892.209</ele>
        <time>2022-08-24T18:23:12Z</time>
      </trkpt>
      <trkpt lat="44.09532" lon="6.28608">
        <ele>890.609</ele>
        <time>2022-08-24T18:23:14Z</time>
      </trkpt>
      <trkpt lat="44.09535" lon="6.2861">
        <ele>889.652</ele>
        <time>2022-08-24T18:23:16Z</time>
      </trkpt>
      <trkpt lat="44.09538" lon="6.28607">
        <ele>887.412</ele>
        <time>2022-08-24T18:23:18Z</time>
      </trkpt>
      <trkpt lat="44.09542" lon="6.28604">
        <ele>886.612</ele>
        <time>2022-08-24T18:23:19Z</time>
      </trkpt>
      <trkpt lat="44.09541" lon="6.28602">
        <ele>886.268</ele>
        <time>2022-08-24T18:23:20Z</time>
      </trkpt>
      <trkpt lat="44.09541" lon="6.28596">
        <ele>885.691</ele>
        <time>2022-08-24T18:23:21Z</time>
      </trkpt>
      <trkpt lat="44.09543" lon="6.28595">
        <ele>884.854</ele>
        <time>2022-08-24T18:23:22Z</time>
      </trkpt>
      <trkpt lat="44.09545" lon="6.28595">
        <ele>884.45</ele>
        <time>2022-08-24T18:23:23Z</time>
      </trkpt>
      <trkpt lat="44.09549" lon="6.28595">
        <ele>883.054</ele>
        <time>2022-08-24T18:23:24Z</time>
      </trkpt>
      <trkpt lat="44.09554" lon="6.28592">
        <ele>881.237</ele>
        <time>2022-08-24T18:23:26Z</time>
      </trkpt>
      <trkpt lat="44.09554" lon="6.28588">
        <ele>879.836</ele>
        <time>2022-08-24T18:23:27Z</time>
      </trkpt>
      <trkpt lat="44.09551" lon="6.28582">
        <ele>877.617</ele>
        <time>2022-08-24T18:23:29Z</time>
      </trkpt>
      <trkpt lat="44.09547" lon="6.28575">
        <ele>875.818</ele>
        <time>2022-08-24T18:23:31Z</time>
      </trkpt>
      <trkpt lat="44.09544" lon="6.28565">
        <ele>875.209</ele>
        <time>2022-08-24T18:23:33Z</time>
      </trkpt>
      <trkpt lat="44.09545" lon="6.28563">
        <ele>874.684</ele>
        <time>2022-08-24T18:23:34Z</time>
      </trkpt>
      <trkpt lat="44.09549" lon="6.28565">
        <ele>873.884</ele>
        <time>2022-08-24T18:23:36Z</time>
      </trkpt>
      <trkpt lat="44.09551" lon="6.28566">
        <ele>873.464</ele>
        <time>2022-08-24T18:23:37Z</time>
      </trkpt>
      <trkpt lat="44.09554" lon="6.28567">
        <ele>872.49</ele>
        <time>2022-08-24T18:23:38Z</time>
      </trkpt>
      <trkpt lat="44.09556" lon="6.28569">
        <ele>872.023</ele>
        <time>2022-08-24T18:23:39Z</time>
      </trkpt>
      <trkpt lat="44.0956" lon="6.2857">
        <ele>871.496</ele>
        <time>2022-08-24T18:23:40Z</time>
      </trkpt>
      <trkpt lat="44.0956" lon="6.28568">
        <ele>871.092</ele>
        <time>2022-08-24T18:23:41Z</time>
      </trkpt>
      <trkpt lat="44.09559" lon="6.28565">
        <ele>870.416</ele>
        <time>2022-08-24T18:23:42Z</time>
      </trkpt>
      <trkpt lat="44.09556" lon="6.28557">
        <ele>869.079</ele>
        <time>2022-08-24T18:23:44Z</time>
      </trkpt>
      <trkpt lat="44.09552" lon="6.28547">
        <ele>868.421</ele>
        <time>2022-08-24T18:23:46Z</time>
      </trkpt>
      <trkpt lat="44.0955" lon="6.28544">
        <ele>867.841</ele>
        <time>2022-08-24T18:23:47Z</time>
      </trkpt>
      <trkpt lat="44.09549" lon="6.28541">
        <ele>867.205</ele>
        <time>2022-08-24T18:23:48Z</time>
      </trkpt>
      <trkpt lat="44.09549" lon="6.28539">
        <ele>866.609</ele>
        <time>2022-08-24T18:23:49Z</time>
      </trkpt>
      <trkpt lat="44.09548" lon="6.28533">
        <ele>865.273</ele>
        <time>2022-08-24T18:23:51Z</time>
      </trkpt>
      <trkpt lat="44.09548" lon="6.28529">
        <ele>864.673</ele>
        <time>2022-08-24T18:23:52Z</time>
      </trkpt>
      <trkpt lat="44.09549" lon="6.28526">
        <ele>863.813</ele>
        <time>2022-08-24T18:23:53Z</time>
      </trkpt>
      <trkpt lat="44.0955" lon="6.28524">
        <ele>862.889</ele>
        <time>2022-08-24T18:23:54Z</time>
      </trkpt>
      <trkpt lat="44.09554" lon="6.28524">
        <ele>861.662</ele>
        <time>2022-08-24T18:23:55Z</time>
      </trkpt>
      <trkpt lat="44.09557" lon="6.28525">
        <ele>861.065</ele>
        <time>2022-08-24T18:23:56Z</time>
      </trkpt>
      <trkpt lat="44.09561" lon="6.28528">
        <ele>860.471</ele>
        <time>2022-08-24T18:23:57Z</time>
      </trkpt>
      <trkpt lat="44.09569" lon="6.28535">
        <ele>859.045</ele>
        <time>2022-08-24T18:23:59Z</time>
      </trkpt>
      <trkpt lat="44.09572" lon="6.2854">
        <ele>858.658</ele>
        <time>2022-08-24T18:24:00Z</time>
      </trkpt>
      <trkpt lat="44.09574" lon="6.28544">
        <ele>858.024</ele>
        <time>2022-08-24T18:24:02Z</time>
      </trkpt>
      <trkpt lat="44.09575" lon="6.28542">
        <ele>857.804</ele>
        <time>2022-08-24T18:24:03Z</time>
      </trkpt>
      <trkpt lat="44.09574" lon="6.28534">
        <ele>857.414</ele>
        <time>2022-08-24T18:24:05Z</time>
      </trkpt>
      <trkpt lat="44.09573" lon="6.2853">
        <ele>857.409</ele>
        <time>2022-08-24T18:24:06Z</time>
      </trkpt>
      <trkpt lat="44.09571" lon="6.28524">
        <ele>857.293</ele>
        <time>2022-08-24T18:24:07Z</time>
      </trkpt>
      <trkpt lat="44.09568" lon="6.2852">
        <ele>856.433</ele>
        <time>2022-08-24T18:24:08Z</time>
      </trkpt>
      <trkpt lat="44.09565" lon="6.28516">
        <ele>854.843</ele>
        <time>2022-08-24T18:24:09Z</time>
      </trkpt>
      <trkpt lat="44.09564" lon="6.28513">
        <ele>854.019</ele>
        <time>2022-08-24T18:24:10Z</time>
      </trkpt>
      <trkpt lat="44.09563" lon="6.28508">
        <ele>853.412</ele>
        <time>2022-08-24T18:24:11Z</time>
      </trkpt>
      <trkpt lat="44.09567" lon="6.28508">
        <ele>853.235</ele>
        <time>2022-08-24T18:24:13Z</time>
      </trkpt>
      <trkpt lat="44.0957" lon="6.28511">
        <ele>853.031</ele>
        <time>2022-08-24T18:24:14Z</time>
      </trkpt>
      <trkpt lat="44.09573" lon="6.28515">
        <ele>851.875</ele>
        <time>2022-08-24T18:24:15Z</time>
      </trkpt>
      <trkpt lat="44.09577" lon="6.28518">
        <ele>850.698</ele>
        <time>2022-08-24T18:24:16Z</time>
      </trkpt>
      <trkpt lat="44.09584" lon="6.28523">
        <ele>849.443</ele>
        <time>2022-08-24T18:24:18Z</time>
      </trkpt>
      <trkpt lat="44.09593" lon="6.28532">
        <ele>848.064</ele>
        <time>2022-08-24T18:24:21Z</time>
      </trkpt>
      <trkpt lat="44.09593" lon="6.28525">
        <ele>846.41</ele>
        <time>2022-08-24T18:24:24Z</time>
      </trkpt>
      <trkpt lat="44.09593" lon="6.28519">
        <ele>845.809</ele>
        <time>2022-08-24T18:24:25Z</time>
      </trkpt>
      <trkpt lat="44.09593" lon="6.28508">
        <ele>843.855</ele>
        <time>2022-08-24T18:24:27Z</time>
      </trkpt>
      <trkpt lat="44.09593" lon="6.28505">
        <ele>842.485</ele>
        <time>2022-08-24T18:24:28Z</time>
      </trkpt>
      <trkpt lat="44.09592" lon="6.285">
        <ele>841.275</ele>
        <time>2022-08-24T18:24:30Z</time>
      </trkpt>
      <trkpt lat="44.09592" lon="6.28496">
        <ele>840.821</ele>
        <time>2022-08-24T18:24:31Z</time>
      </trkpt>
      <trkpt lat="44.09592" lon="6.28494">
        <ele>839.864</ele>
        <time>2022-08-24T18:24:32Z</time>
      </trkpt>
      <trkpt lat="44.09594" lon="6.28493">
        <ele>839.057</ele>
        <time>2022-08-24T18:24:33Z</time>
      </trkpt>
      <trkpt lat="44.09596" lon="6.28494">
        <ele>838.213</ele>
        <time>2022-08-24T18:24:34Z</time>
      </trkpt>
      <trkpt lat="44.09601" lon="6.28499">
        <ele>837.477</ele>
        <time>2022-08-24T18:24:36Z</time>
      </trkpt>
      <trkpt lat="44.09604" lon="6.28503">
        <ele>837.03</ele>
        <time>2022-08-24T18:24:37Z</time>
      </trkpt>
      <trkpt lat="44.09608" lon="6.28504">
        <ele>836.434</ele>
        <time>2022-08-24T18:24:38Z</time>
      </trkpt>
      <trkpt lat="44.09611" lon="6.28502">
        <ele>836.455</ele>
        <time>2022-08-24T18:24:39Z</time>
      </trkpt>
      <trkpt lat="44.09614" lon="6.28498">
        <ele>835.81</ele>
        <time>2022-08-24T18:24:40Z</time>
      </trkpt>
      <trkpt lat="44.0962" lon="6.28489">
        <ele>834.209</ele>
        <time>2022-08-24T18:24:42Z</time>
      </trkpt>
      <trkpt lat="44.09622" lon="6.28484">
        <ele>833.064</ele>
        <time>2022-08-24T18:24:43Z</time>
      </trkpt>
      <trkpt lat="44.09623" lon="6.28476">
        <ele>831.064</ele>
        <time>2022-08-24T18:24:45Z</time>
      </trkpt>
      <trkpt lat="44.09623" lon="6.28473">
        <ele>829.834</ele>
        <time>2022-08-24T18:24:46Z</time>
      </trkpt>
      <trkpt lat="44.09624" lon="6.28473">
        <ele>829.03</ele>
        <time>2022-08-24T18:24:47Z</time>
      </trkpt>
      <trkpt lat="44.09624" lon="6.28472">
        <ele>828.693</ele>
        <time>2022-08-24T18:24:48Z</time>
      </trkpt>
      <trkpt lat="44.09613" lon="6.28462">
        <ele>827.456</ele>
        <time>2022-08-24T18:25:19Z</time>
      </trkpt>
      <trkpt lat="44.09608" lon="6.2846">
        <ele>827.472</ele>
        <time>2022-08-24T18:25:20Z</time>
      </trkpt>
      <trkpt lat="44.09606" lon="6.28457">
        <ele>824.816</ele>
        <time>2022-08-24T18:25:21Z</time>
      </trkpt>
      <trkpt lat="44.09605" lon="6.28453">
        <ele>823.279</ele>
        <time>2022-08-24T18:25:22Z</time>
      </trkpt>
      <trkpt lat="44.09604" lon="6.28446">
        <ele>822.496</ele>
        <time>2022-08-24T18:25:23Z</time>
      </trkpt>
      <trkpt lat="44.09604" lon="6.28438">
        <ele>822.031</ele>
        <time>2022-08-24T18:25:24Z</time>
      </trkpt>
      <trkpt lat="44.09604" lon="6.28431">
        <ele>821.824</ele>
        <time>2022-08-24T18:25:25Z</time>
      </trkpt>
      <trkpt lat="44.09605" lon="6.28426">
        <ele>821.609</ele>
        <time>2022-08-24T18:25:26Z</time>
      </trkpt>
      <trkpt lat="44.09605" lon="6.28416">
        <ele>821.48</ele>
        <time>2022-08-24T18:25:28Z</time>
      </trkpt>
      <trkpt lat="44.09604" lon="6.28409">
        <ele>821.42</ele>
        <time>2022-08-24T18:25:29Z</time>
      </trkpt>
      <trkpt lat="44.09601" lon="6.28403">
        <ele>821.48</ele>
        <time>2022-08-24T18:25:30Z</time>
      </trkpt>
      <trkpt lat="44.09596" lon="6.28396">
        <ele>820.696</ele>
        <time>2022-08-24T18:25:31Z</time>
      </trkpt>
      <trkpt lat="44.09591" lon="6.28392">
        <ele>819.499</ele>
        <time>2022-08-24T18:25:32Z</time>
      </trkpt>
      <trkpt lat="44.09586" lon="6.28388">
        <ele>818.492</ele>
        <time>2022-08-24T18:25:33Z</time>
      </trkpt>
      <trkpt lat="44.09582" lon="6.28383">
        <ele>816.428</ele>
        <time>2022-08-24T18:25:34Z</time>
      </trkpt>
      <trkpt lat="44.0958" lon="6.28378">
        <ele>814.642</ele>
        <time>2022-08-24T18:25:35Z</time>
      </trkpt>
      <trkpt lat="44.09579" lon="6.28373">
        <ele>813.855</ele>
        <time>2022-08-24T18:25:36Z</time>
      </trkpt>
      <trkpt lat="44.09578" lon="6.28367">
        <ele>813.211</ele>
        <time>2022-08-24T18:25:37Z</time>
      </trkpt>
      <trkpt lat="44.09576" lon="6.28359">
        <ele>813.021</ele>
        <time>2022-08-24T18:25:38Z</time>
      </trkpt>
      <trkpt lat="44.09571" lon="6.28342">
        <ele>810.403</ele>
        <time>2022-08-24T18:25:40Z</time>
      </trkpt>
      <trkpt lat="44.09568" lon="6.28337">
        <ele>808.809</ele>
        <time>2022-08-24T18:25:41Z</time>
      </trkpt>
      <trkpt lat="44.09563" lon="6.28328">
        <ele>807.852</ele>
        <time>2022-08-24T18:25:43Z</time>
      </trkpt>
      <trkpt lat="44.09561" lon="6.28325">
        <ele>807.622</ele>
        <time>2022-08-24T18:25:44Z</time>
      </trkpt>
      <trkpt lat="44.09555" lon="6.28308">
        <ele>805.812</ele>
        <time>2022-08-24T18:25:47Z</time>
      </trkpt>
      <trkpt lat="44.0955" lon="6.28293">
        <ele>804.458</ele>
        <time>2022-08-24T18:25:49Z</time>
      </trkpt>
      <trkpt lat="44.09548" lon="6.28288">
        <ele>804.051</ele>
        <time>2022-08-24T18:25:50Z</time>
      </trkpt>
      <trkpt lat="44.09545" lon="6.28282">
        <ele>803.844</ele>
        <time>2022-08-24T18:25:51Z</time>
      </trkpt>
      <trkpt lat="44.09536" lon="6.28272">
        <ele>803.64</ele>
        <time>2022-08-24T18:25:53Z</time>
      </trkpt>
      <trkpt lat="44.09527" lon="6.28265">
        <ele>803.654</ele>
        <time>2022-08-24T18:25:55Z</time>
      </trkpt>
      <trkpt lat="44.09516" lon="6.28259">
        <ele>803.287</ele>
        <time>2022-08-24T18:25:57Z</time>
      </trkpt>
      <trkpt lat="44.0951" lon="6.28257">
        <ele>802.279</ele>
        <time>2022-08-24T18:25:58Z</time>
      </trkpt>
      <trkpt lat="44.09499" lon="6.28252">
        <ele>801.405</ele>
        <time>2022-08-24T18:26:00Z</time>
      </trkpt>
      <trkpt lat="44.09495" lon="6.28249">
        <ele>801.225</ele>
        <time>2022-08-24T18:26:01Z</time>
      </trkpt>
      <trkpt lat="44.09491" lon="6.28246">
        <ele>801.209</ele>
        <time>2022-08-24T18:26:02Z</time>
      </trkpt>
      <trkpt lat="44.0947" lon="6.28235">
        <ele>802.048</ele>
        <time>2022-08-24T18:26:07Z</time>
      </trkpt>
      <trkpt lat="44.09467" lon="6.28233">
        <ele>802.258</ele>
        <time>2022-08-24T18:26:08Z</time>
      </trkpt>
      <trkpt lat="44.09459" lon="6.28224">
        <ele>803.088</ele>
        <time>2022-08-24T18:26:11Z</time>
      </trkpt>
      <trkpt lat="44.09458" lon="6.28221">
        <ele>803.664</ele>
        <time>2022-08-24T18:26:12Z</time>
      </trkpt>
      <trkpt lat="44.09453" lon="6.28218">
        <ele>805.057</ele>
        <time>2022-08-24T18:26:14Z</time>
      </trkpt>
      <trkpt lat="44.09452" lon="6.28218">
        <ele>805.81</ele>
        <time>2022-08-24T18:26:16Z</time>
      </trkpt>
      <trkpt lat="44.0945" lon="6.28221">
        <ele>806.626</ele>
        <time>2022-08-24T18:26:21Z</time>
      </trkpt>
      <trkpt lat="44.09445" lon="6.28221">
        <ele>806.68</ele>
        <time>2022-08-24T18:26:23Z</time>
      </trkpt>
      <trkpt lat="44.0944" lon="6.28222">
        <ele>806.443</ele>
        <time>2022-08-24T18:26:25Z</time>
      </trkpt>
      <trkpt lat="44.09427" lon="6.28223">
        <ele>806.292</ele>
        <time>2022-08-24T18:26:30Z</time>
      </trkpt>
      <trkpt lat="44.09424" lon="6.28224">
        <ele>806.673</ele>
        <time>2022-08-24T18:26:33Z</time>
      </trkpt>
      <trkpt lat="44.09423" lon="6.28225">
        <ele>806.62</ele>
        <time>2022-08-24T18:26:34Z</time>
      </trkpt>
      <trkpt lat="44.0942" lon="6.28228">
        <ele>806.609</ele>
        <time>2022-08-24T18:26:37Z</time>
      </trkpt>
      <trkpt lat="44.09418" lon="6.2823">
        <ele>806.24</ele>
        <time>2022-08-24T18:26:38Z</time>
      </trkpt>
      <trkpt lat="44.09411" lon="6.28238">
        <ele>805.69</ele>
        <time>2022-08-24T18:26:40Z</time>
      </trkpt>
      <trkpt lat="44.09406" lon="6.2824">
        <ele>804.81</ele>
        <time>2022-08-24T18:26:41Z</time>
      </trkpt>
      <trkpt lat="44.09401" lon="6.28242">
        <ele>803.656</ele>
        <time>2022-08-24T18:26:42Z</time>
      </trkpt>
      <trkpt lat="44.09393" lon="6.28243">
        <ele>802.019</ele>
        <time>2022-08-24T18:26:44Z</time>
      </trkpt>
      <trkpt lat="44.09389" lon="6.28244">
        <ele>801.672</ele>
        <time>2022-08-24T18:26:45Z</time>
      </trkpt>
      <trkpt lat="44.0937" lon="6.28247">
        <ele>801.698</ele>
        <time>2022-08-24T18:26:50Z</time>
      </trkpt>
      <trkpt lat="44.09349" lon="6.28245">
        <ele>802.062</ele>
        <time>2022-08-24T18:26:55Z</time>
      </trkpt>
      <trkpt lat="44.09336" lon="6.28244">
        <ele>802.095</ele>
        <time>2022-08-24T18:26:58Z</time>
      </trkpt>
      <trkpt lat="44.09321" lon="6.28246">
        <ele>801.073</ele>
        <time>2022-08-24T18:27:01Z</time>
      </trkpt>
      <trkpt lat="44.09314" lon="6.28246">
        <ele>800.885</ele>
        <time>2022-08-24T18:27:02Z</time>
      </trkpt>
      <trkpt lat="44.09301" lon="6.28246">
        <ele>800.013</ele>
        <time>2022-08-24T18:27:04Z</time>
      </trkpt>
      <trkpt lat="44.09295" lon="6.28248">
        <ele>798.809</ele>
        <time>2022-08-24T18:27:05Z</time>
      </trkpt>
      <trkpt lat="44.09286" lon="6.28254">
        <ele>797.498</ele>
        <time>2022-08-24T18:27:07Z</time>
      </trkpt>
      <trkpt lat="44.09281" lon="6.28255">
        <ele>797.218</ele>
        <time>2022-08-24T18:27:08Z</time>
      </trkpt>
      <trkpt lat="44.09272" lon="6.28251">
        <ele>796.678</ele>
        <time>2022-08-24T18:27:10Z</time>
      </trkpt>
      <trkpt lat="44.09267" lon="6.2825">
        <ele>796.494</ele>
        <time>2022-08-24T18:27:11Z</time>
      </trkpt>
      <trkpt lat="44.09257" lon="6.28248">
        <ele>797.057</ele>
        <time>2022-08-24T18:27:13Z</time>
      </trkpt>
      <trkpt lat="44.09247" lon="6.28243">
        <ele>797.01</ele>
        <time>2022-08-24T18:27:15Z</time>
      </trkpt>
      <trkpt lat="44.09225" lon="6.28239">
        <ele>796.676</ele>
        <time>2022-08-24T18:27:19Z</time>
      </trkpt>
      <trkpt lat="44.0922" lon="6.28237">
        <ele>796.47</ele>
        <time>2022-08-24T18:27:20Z</time>
      </trkpt>
      <trkpt lat="44.09209" lon="6.28232">
        <ele>796.673</ele>
        <time>2022-08-24T18:27:22Z</time>
      </trkpt>
      <trkpt lat="44.09204" lon="6.28223">
        <ele>797.817</ele>
        <time>2022-08-24T18:27:24Z</time>
      </trkpt>
      <trkpt lat="44.09206" lon="6.28217">
        <ele>795.087</ele>
        <time>2022-08-24T18:27:26Z</time>
      </trkpt>
      <trkpt lat="44.09209" lon="6.28213">
        <ele>793.615</ele>
        <time>2022-08-24T18:27:27Z</time>
      </trkpt>
      <trkpt lat="44.09211" lon="6.28211">
        <ele>792.609</ele>
        <time>2022-08-24T18:27:28Z</time>
      </trkpt>
      <trkpt lat="44.09211" lon="6.28209">
        <ele>791.882</ele>
        <time>2022-08-24T18:27:30Z</time>
      </trkpt>
      <trkpt lat="44.09208" lon="6.28207">
        <ele>791.422</ele>
        <time>2022-08-24T18:27:31Z</time>
      </trkpt>
      <trkpt lat="44.09205" lon="6.28204">
        <ele>791.422</ele>
        <time>2022-08-24T18:27:32Z</time>
      </trkpt>
      <trkpt lat="44.09201" lon="6.28197">
        <ele>791.228</ele>
        <time>2022-08-24T18:27:33Z</time>
      </trkpt>
      <trkpt lat="44.09198" lon="6.2819">
        <ele>791.261</ele>
        <time>2022-08-24T18:27:34Z</time>
      </trkpt>
      <trkpt lat="44.09193" lon="6.28183">
        <ele>790.284</ele>
        <time>2022-08-24T18:27:35Z</time>
      </trkpt>
      <trkpt lat="44.0919" lon="6.28176">
        <ele>788.69</ele>
        <time>2022-08-24T18:27:36Z</time>
      </trkpt>
      <trkpt lat="44.09186" lon="6.2817">
        <ele>787.844</ele>
        <time>2022-08-24T18:27:37Z</time>
      </trkpt>
      <trkpt lat="44.09181" lon="6.28163">
        <ele>787.497</ele>
        <time>2022-08-24T18:27:38Z</time>
      </trkpt>
      <trkpt lat="44.09174" lon="6.28151">
        <ele>786.477</ele>
        <time>2022-08-24T18:27:40Z</time>
      </trkpt>
      <trkpt lat="44.09169" lon="6.28138">
        <ele>783.661</ele>
        <time>2022-08-24T18:27:42Z</time>
      </trkpt>
      <trkpt lat="44.09166" lon="6.28133">
        <ele>782.227</ele>
        <time>2022-08-24T18:27:43Z</time>
      </trkpt>
      <trkpt lat="44.09159" lon="6.28128">
        <ele>781.209</ele>
        <time>2022-08-24T18:27:45Z</time>
      </trkpt>
      <trkpt lat="44.09151" lon="6.28124">
        <ele>780.888</ele>
        <time>2022-08-24T18:27:47Z</time>
      </trkpt>
      <trkpt lat="44.09137" lon="6.28121">
        <ele>781.038</ele>
        <time>2022-08-24T18:27:51Z</time>
      </trkpt>
      <trkpt lat="44.09119" lon="6.28116">
        <ele>780.638</ele>
        <time>2022-08-24T18:27:56Z</time>
      </trkpt>
      <trkpt lat="44.09109" lon="6.28114">
        <ele>780.224</ele>
        <time>2022-08-24T18:27:58Z</time>
      </trkpt>
      <trkpt lat="44.091" lon="6.2811">
        <ele>780.097</ele>
        <time>2022-08-24T18:28:00Z</time>
      </trkpt>
      <trkpt lat="44.09088" lon="6.28109">
        <ele>778.87</ele>
        <time>2022-08-24T18:28:02Z</time>
      </trkpt>
      <trkpt lat="44.09074" lon="6.28101">
        <ele>778.416</ele>
        <time>2022-08-24T18:28:05Z</time>
      </trkpt>
      <trkpt lat="44.09066" lon="6.28097">
        <ele>778.48</ele>
        <time>2022-08-24T18:28:07Z</time>
      </trkpt>
      <trkpt lat="44.09058" lon="6.2809">
        <ele>778.263</ele>
        <time>2022-08-24T18:28:09Z</time>
      </trkpt>
      <trkpt lat="44.09053" lon="6.28085">
        <ele>777.296</ele>
        <time>2022-08-24T18:28:10Z</time>
      </trkpt>
      <trkpt lat="44.09048" lon="6.28075">
        <ele>776.031</ele>
        <time>2022-08-24T18:28:12Z</time>
      </trkpt>
      <trkpt lat="44.09043" lon="6.28066">
        <ele>775.024</ele>
        <time>2022-08-24T18:28:14Z</time>
      </trkpt>
      <trkpt lat="44.09042" lon="6.28054">
        <ele>773.609</ele>
        <time>2022-08-24T18:28:17Z</time>
      </trkpt>
      <trkpt lat="44.09042" lon="6.28045">
        <ele>772.67</ele>
        <time>2022-08-24T18:28:19Z</time>
      </trkpt>
      <trkpt lat="44.09041" lon="6.28039">
        <ele>772.24</ele>
        <time>2022-08-24T18:28:20Z</time>
      </trkpt>
      <trkpt lat="44.09041" lon="6.28033">
        <ele>771.22</ele>
        <time>2022-08-24T18:28:21Z</time>
      </trkpt>
      <trkpt lat="44.09042" lon="6.28026">
        <ele>770.826</ele>
        <time>2022-08-24T18:28:22Z</time>
      </trkpt>
      <trkpt lat="44.09043" lon="6.2802">
        <ele>770.099</ele>
        <time>2022-08-24T18:28:23Z</time>
      </trkpt>
      <trkpt lat="44.09045" lon="6.28012">
        <ele>769.442</ele>
        <time>2022-08-24T18:28:24Z</time>
      </trkpt>
      <trkpt lat="44.09048" lon="6.28001">
        <ele>768.818</ele>
        <time>2022-08-24T18:28:26Z</time>
      </trkpt>
      <trkpt lat="44.09051" lon="6.27989">
        <ele>768.452</ele>
        <time>2022-08-24T18:28:28Z</time>
      </trkpt>
      <trkpt lat="44.09053" lon="6.27975">
        <ele>767.655</ele>
        <time>2022-08-24T18:28:30Z</time>
      </trkpt>
      <trkpt lat="44.09054" lon="6.27969">
        <ele>767.278</ele>
        <time>2022-08-24T18:28:31Z</time>
      </trkpt>
      <trkpt lat="44.09056" lon="6.27965">
        <ele>766.833</ele>
        <time>2022-08-24T18:28:32Z</time>
      </trkpt>
      <trkpt lat="44.09057" lon="6.27959">
        <ele>766.426</ele>
        <time>2022-08-24T18:28:33Z</time>
      </trkpt>
      <trkpt lat="44.09059" lon="6.27953">
        <ele>766.009</ele>
        <time>2022-08-24T18:28:34Z</time>
      </trkpt>
      <trkpt lat="44.0906" lon="6.27949">
        <ele>764.678</ele>
        <time>2022-08-24T18:28:35Z</time>
      </trkpt>
      <trkpt lat="44.0906" lon="6.27943">
        <ele>762.668</ele>
        <time>2022-08-24T18:28:37Z</time>
      </trkpt>
      <trkpt lat="44.09059" lon="6.27937">
        <ele>761.818</ele>
        <time>2022-08-24T18:28:39Z</time>
      </trkpt>
      <trkpt lat="44.0906" lon="6.27933">
        <ele>761.664</ele>
        <time>2022-08-24T18:28:40Z</time>
      </trkpt>
      <trkpt lat="44.09061" lon="6.2793">
        <ele>760.417</ele>
        <time>2022-08-24T18:28:41Z</time>
      </trkpt>
      <trkpt lat="44.09063" lon="6.27924">
        <ele>759.22</ele>
        <time>2022-08-24T18:28:42Z</time>
      </trkpt>
      <trkpt lat="44.09065" lon="6.27917">
        <ele>758.286</ele>
        <time>2022-08-24T18:28:43Z</time>
      </trkpt>
      <trkpt lat="44.09067" lon="6.27909">
        <ele>756.67</ele>
        <time>2022-08-24T18:28:44Z</time>
      </trkpt>
      <trkpt lat="44.09068" lon="6.279">
        <ele>753.853</ele>
        <time>2022-08-24T18:28:45Z</time>
      </trkpt>
      <trkpt lat="44.0907" lon="6.27891">
        <ele>752.493</ele>
        <time>2022-08-24T18:28:46Z</time>
      </trkpt>
      <trkpt lat="44.09071" lon="6.27885">
        <ele>751.265</ele>
        <time>2022-08-24T18:28:47Z</time>
      </trkpt>
      <trkpt lat="44.09071" lon="6.27879">
        <ele>750.221</ele>
        <time>2022-08-24T18:28:48Z</time>
      </trkpt>
      <trkpt lat="44.09071" lon="6.27874">
        <ele>749.809</ele>
        <time>2022-08-24T18:28:49Z</time>
      </trkpt>
      <trkpt lat="44.09071" lon="6.27866">
        <ele>749.05</ele>
        <time>2022-08-24T18:28:51Z</time>
      </trkpt>
      <trkpt lat="44.09071" lon="6.27861">
        <ele>748.88</ele>
        <time>2022-08-24T18:28:53Z</time>
      </trkpt>
      <trkpt lat="44.0907" lon="6.27862">
        <ele>748.61</ele>
        <time>2022-08-24T18:28:54Z</time>
      </trkpt>
      <trkpt lat="44.09065" lon="6.27866">
        <ele>748.066</ele>
        <time>2022-08-24T18:28:56Z</time>
      </trkpt>
      <trkpt lat="44.09063" lon="6.27871">
        <ele>747.449</ele>
        <time>2022-08-24T18:28:57Z</time>
      </trkpt>
      <trkpt lat="44.09059" lon="6.27884">
        <ele>746.822</ele>
        <time>2022-08-24T18:28:59Z</time>
      </trkpt>
      <trkpt lat="44.09057" lon="6.27889">
        <ele>745.648</ele>
        <time>2022-08-24T18:29:00Z</time>
      </trkpt>
      <trkpt lat="44.09056" lon="6.27891">
        <ele>744.882</ele>
        <time>2022-08-24T18:29:01Z</time>
      </trkpt>
      <trkpt lat="44.09056" lon="6.27894">
        <ele>744.415</ele>
        <time>2022-08-24T18:29:02Z</time>
      </trkpt>
      <trkpt lat="44.09056" lon="6.27897">
        <ele>743.879</ele>
        <time>2022-08-24T18:29:03Z</time>
      </trkpt>
      <trkpt lat="44.09054" lon="6.279">
        <ele>743.205</ele>
        <time>2022-08-24T18:29:04Z</time>
      </trkpt>
      <trkpt lat="44.09048" lon="6.27906">
        <ele>743.225</ele>
        <time>2022-08-24T18:29:06Z</time>
      </trkpt>
      <trkpt lat="44.09038" lon="6.27914">
        <ele>742.809</ele>
        <time>2022-08-24T18:29:09Z</time>
      </trkpt>
      <trkpt lat="44.09035" lon="6.27919">
        <ele>742.898</ele>
        <time>2022-08-24T18:29:10Z</time>
      </trkpt>
      <trkpt lat="44.09031" lon="6.27925">
        <ele>742.028</ele>
        <time>2022-08-24T18:29:11Z</time>
      </trkpt>
      <trkpt lat="44.09026" lon="6.27929">
        <ele>741.628</ele>
        <time>2022-08-24T18:29:12Z</time>
      </trkpt>
      <trkpt lat="44.09023" lon="6.27932">
        <ele>740.294</ele>
        <time>2022-08-24T18:29:13Z</time>
      </trkpt>
      <trkpt lat="44.0902" lon="6.27933">
        <ele>738.897</ele>
        <time>2022-08-24T18:29:14Z</time>
      </trkpt>
      <trkpt lat="44.09015" lon="6.27937">
        <ele>738.24</ele>
        <time>2022-08-24T18:29:15Z</time>
      </trkpt>
      <trkpt lat="44.09012" lon="6.27941">
        <ele>737.896</ele>
        <time>2022-08-24T18:29:16Z</time>
      </trkpt>
      <trkpt lat="44.09005" lon="6.27956">
        <ele>736.44</ele>
        <time>2022-08-24T18:29:20Z</time>
      </trkpt>
      <trkpt lat="44.09003" lon="6.27965">
        <ele>735.243</ele>
        <time>2022-08-24T18:29:21Z</time>
      </trkpt>
      <trkpt lat="44.09003" lon="6.27974">
        <ele>734.237</ele>
        <time>2022-08-24T18:29:22Z</time>
      </trkpt>
      <trkpt lat="44.09" lon="6.27983">
        <ele>732.849</ele>
        <time>2022-08-24T18:29:23Z</time>
      </trkpt>
      <trkpt lat="44.08996" lon="6.27991">
        <ele>731.213</ele>
        <time>2022-08-24T18:29:24Z</time>
      </trkpt>
      <trkpt lat="44.08992" lon="6.27998">
        <ele>729.809</ele>
        <time>2022-08-24T18:29:25Z</time>
      </trkpt>
      <trkpt lat="44.08991" lon="6.28005">
        <ele>728.664</ele>
        <time>2022-08-24T18:29:26Z</time>
      </trkpt>
      <trkpt lat="44.08989" lon="6.28012">
        <ele>727.474</ele>
        <time>2022-08-24T18:29:27Z</time>
      </trkpt>
      <trkpt lat="44.08983" lon="6.28028">
        <ele>726.014</ele>
        <time>2022-08-24T18:29:29Z</time>
      </trkpt>
      <trkpt lat="44.08979" lon="6.28035">
        <ele>724.63</ele>
        <time>2022-08-24T18:29:30Z</time>
      </trkpt>
      <trkpt lat="44.08976" lon="6.28043">
        <ele>723.283</ele>
        <time>2022-08-24T18:29:31Z</time>
      </trkpt>
      <trkpt lat="44.0897" lon="6.2805">
        <ele>722.086</ele>
        <time>2022-08-24T18:29:33Z</time>
      </trkpt>
      <trkpt lat="44.08967" lon="6.28049">
        <ele>721.032</ele>
        <time>2022-08-24T18:29:35Z</time>
      </trkpt>
      <trkpt lat="44.08967" lon="6.28045">
        <ele>719.216</ele>
        <time>2022-08-24T18:29:36Z</time>
      </trkpt>
      <trkpt lat="44.08969" lon="6.28042">
        <ele>718.079</ele>
        <time>2022-08-24T18:29:37Z</time>
      </trkpt>
      <trkpt lat="44.08972" lon="6.28038">
        <ele>716.872</ele>
        <time>2022-08-24T18:29:38Z</time>
      </trkpt>
      <trkpt lat="44.08974" lon="6.28034">
        <ele>715.613</ele>
        <time>2022-08-24T18:29:39Z</time>
      </trkpt>
      <trkpt lat="44.08973" lon="6.28032">
        <ele>715.014</ele>
        <time>2022-08-24T18:29:40Z</time>
      </trkpt>
      <trkpt lat="44.0897" lon="6.28029">
        <ele>714.809</ele>
        <time>2022-08-24T18:29:42Z</time>
      </trkpt>
      <trkpt lat="44.08966" lon="6.2802">
        <ele>714.628</ele>
        <time>2022-08-24T18:29:44Z</time>
      </trkpt>
      <trkpt lat="44.08965" lon="6.28015">
        <ele>714.078</ele>
        <time>2022-08-24T18:29:45Z</time>
      </trkpt>
      <trkpt lat="44.08966" lon="6.28008">
        <ele>713.428</ele>
        <time>2022-08-24T18:29:47Z</time>
      </trkpt>
      <trkpt lat="44.08966" lon="6.28005">
        <ele>713.244</ele>
        <time>2022-08-24T18:29:48Z</time>
      </trkpt>
      <trkpt lat="44.08966" lon="6.27991">
        <ele>713.017</ele>
        <time>2022-08-24T18:29:51Z</time>
      </trkpt>
      <trkpt lat="44.08965" lon="6.27968">
        <ele>712.41</ele>
        <time>2022-08-24T18:29:56Z</time>
      </trkpt>
      <trkpt lat="44.08964" lon="6.27958">
        <ele>712.626</ele>
        <time>2022-08-24T18:29:58Z</time>
      </trkpt>
      <trkpt lat="44.08958" lon="6.27922">
        <ele>712.05</ele>
        <time>2022-08-24T18:30:04Z</time>
      </trkpt>
      <trkpt lat="44.08954" lon="6.279">
        <ele>711.233</ele>
        <time>2022-08-24T18:30:07Z</time>
      </trkpt>
      <trkpt lat="44.08951" lon="6.27878">
        <ele>710.422</ele>
        <time>2022-08-24T18:30:10Z</time>
      </trkpt>
      <trkpt lat="44.08947" lon="6.27863">
        <ele>710.062</ele>
        <time>2022-08-24T18:30:12Z</time>
      </trkpt>
      <trkpt lat="44.0894" lon="6.27841">
        <ele>709.208</ele>
        <time>2022-08-24T18:30:15Z</time>
      </trkpt>
      <trkpt lat="44.08934" lon="6.27826">
        <ele>709.009</ele>
        <time>2022-08-24T18:30:17Z</time>
      </trkpt>
      <trkpt lat="44.08923" lon="6.27794">
        <ele>709.243</ele>
        <time>2022-08-24T18:30:21Z</time>
      </trkpt>
      <trkpt lat="44.08917" lon="6.27778">
        <ele>709.493</ele>
        <time>2022-08-24T18:30:23Z</time>
      </trkpt>
      <trkpt lat="44.0891" lon="6.27763">
        <ele>709.433</ele>
        <time>2022-08-24T18:30:25Z</time>
      </trkpt>
      <trkpt lat="44.08905" lon="6.27746">
        <ele>709.059</ele>
        <time>2022-08-24T18:30:27Z</time>
      </trkpt>
      <trkpt lat="44.08899" lon="6.27719">
        <ele>707.222</ele>
        <time>2022-08-24T18:30:30Z</time>
      </trkpt>
      <trkpt lat="44.08897" lon="6.2771">
        <ele>705.875</ele>
        <time>2022-08-24T18:30:31Z</time>
      </trkpt>
      <trkpt lat="44.08896" lon="6.277">
        <ele>705.241</ele>
        <time>2022-08-24T18:30:32Z</time>
      </trkpt>
      <trkpt lat="44.08896" lon="6.27691">
        <ele>704.665</ele>
        <time>2022-08-24T18:30:33Z</time>
      </trkpt>
      <trkpt lat="44.08898" lon="6.27663">
        <ele>703.648</ele>
        <time>2022-08-24T18:30:36Z</time>
      </trkpt>
      <trkpt lat="44.08902" lon="6.27646">
        <ele>703.287</ele>
        <time>2022-08-24T18:30:38Z</time>
      </trkpt>
      <trkpt lat="44.08908" lon="6.27621">
        <ele>703.042</ele>
        <time>2022-08-24T18:30:41Z</time>
      </trkpt>
      <trkpt lat="44.08923" lon="6.27562">
        <ele>703.026</ele>
        <time>2022-08-24T18:30:48Z</time>
      </trkpt>
      <trkpt lat="44.08932" lon="6.27527">
        <ele>702.209</ele>
        <time>2022-08-24T18:30:52Z</time>
      </trkpt>
      <trkpt lat="44.08939" lon="6.27501">
        <ele>701.869</ele>
        <time>2022-08-24T18:30:55Z</time>
      </trkpt>
      <trkpt lat="44.08954" lon="6.27448">
        <ele>702.419</ele>
        <time>2022-08-24T18:31:01Z</time>
      </trkpt>
      <trkpt lat="44.08972" lon="6.27379">
        <ele>701.869</ele>
        <time>2022-08-24T18:31:09Z</time>
      </trkpt>
      <trkpt lat="44.08986" lon="6.27336">
        <ele>701.265</ele>
        <time>2022-08-24T18:31:14Z</time>
      </trkpt>
      <trkpt lat="44.08992" lon="6.27318">
        <ele>700.638</ele>
        <time>2022-08-24T18:31:16Z</time>
      </trkpt>
      <trkpt lat="44.09007" lon="6.27273">
        <ele>700.211</ele>
        <time>2022-08-24T18:31:21Z</time>
      </trkpt>
      <trkpt lat="44.0902" lon="6.27237">
        <ele>700.657</ele>
        <time>2022-08-24T18:31:25Z</time>
      </trkpt>
      <trkpt lat="44.09038" lon="6.27181">
        <ele>700.821</ele>
        <time>2022-08-24T18:31:31Z</time>
      </trkpt>
      <trkpt lat="44.0905" lon="6.27131">
        <ele>699.814</ele>
        <time>2022-08-24T18:31:36Z</time>
      </trkpt>
      <trkpt lat="44.0905" lon="6.27098">
        <ele>699.065</ele>
        <time>2022-08-24T18:31:39Z</time>
      </trkpt>
      <trkpt lat="44.09049" lon="6.27087">
        <ele>698.668</ele>
        <time>2022-08-24T18:31:40Z</time>
      </trkpt>
      <trkpt lat="44.09049" lon="6.27075">
        <ele>698.014</ele>
        <time>2022-08-24T18:31:41Z</time>
      </trkpt>
      <trkpt lat="44.09046" lon="6.27015">
        <ele>697.209</ele>
        <time>2022-08-24T18:31:46Z</time>
      </trkpt>
      <trkpt lat="44.09045" lon="6.27003">
        <ele>696.847</ele>
        <time>2022-08-24T18:31:47Z</time>
      </trkpt>
      <trkpt lat="44.09045" lon="6.2699">
        <ele>696.847</ele>
        <time>2022-08-24T18:31:48Z</time>
      </trkpt>
      <trkpt lat="44.09044" lon="6.26966">
        <ele>696.677</ele>
        <time>2022-08-24T18:31:50Z</time>
      </trkpt>
      <trkpt lat="44.09043" lon="6.26953">
        <ele>696.233</ele>
        <time>2022-08-24T18:31:51Z</time>
      </trkpt>
      <trkpt lat="44.09042" lon="6.26929">
        <ele>695.816</ele>
        <time>2022-08-24T18:31:53Z</time>
      </trkpt>
      <trkpt lat="44.09037" lon="6.26904">
        <ele>695.649</ele>
        <time>2022-08-24T18:31:55Z</time>
      </trkpt>
      <trkpt lat="44.09028" lon="6.26881">
        <ele>694.825</ele>
        <time>2022-08-24T18:31:57Z</time>
      </trkpt>
      <trkpt lat="44.09023" lon="6.2687">
        <ele>694.669</ele>
        <time>2022-08-24T18:31:58Z</time>
      </trkpt>
      <trkpt lat="44.09" lon="6.26826">
        <ele>693.642</ele>
        <time>2022-08-24T18:32:02Z</time>
      </trkpt>
      <trkpt lat="44.08977" lon="6.2678">
        <ele>694.225</ele>
        <time>2022-08-24T18:32:06Z</time>
      </trkpt>
      <trkpt lat="44.08961" lon="6.26744">
        <ele>693.226</ele>
        <time>2022-08-24T18:32:09Z</time>
      </trkpt>
      <trkpt lat="44.08946" lon="6.26707">
        <ele>692.008</ele>
        <time>2022-08-24T18:32:12Z</time>
      </trkpt>
      <trkpt lat="44.08927" lon="6.26658">
        <ele>692.209</ele>
        <time>2022-08-24T18:32:16Z</time>
      </trkpt>
      <trkpt lat="44.08919" lon="6.26632">
        <ele>692.023</ele>
        <time>2022-08-24T18:32:18Z</time>
      </trkpt>
      <trkpt lat="44.089" lon="6.26568">
        <ele>691.033</ele>
        <time>2022-08-24T18:32:23Z</time>
      </trkpt>
      <trkpt lat="44.08892" lon="6.26542">
        <ele>690.853</ele>
        <time>2022-08-24T18:32:25Z</time>
      </trkpt>
      <trkpt lat="44.0888" lon="6.26503">
        <ele>690.639</ele>
        <time>2022-08-24T18:32:28Z</time>
      </trkpt>
      <trkpt lat="44.08872" lon="6.26478">
        <ele>689.812</ele>
        <time>2022-08-24T18:32:30Z</time>
      </trkpt>
      <trkpt lat="44.0886" lon="6.26441">
        <ele>689.435</ele>
        <time>2022-08-24T18:32:33Z</time>
      </trkpt>
      <trkpt lat="44.08853" lon="6.26415">
        <ele>689.071</ele>
        <time>2022-08-24T18:32:35Z</time>
      </trkpt>
      <trkpt lat="44.08851" lon="6.26388">
        <ele>689.055</ele>
        <time>2022-08-24T18:32:37Z</time>
      </trkpt>
      <trkpt lat="44.08853" lon="6.26346">
        <ele>688.638</ele>
        <time>2022-08-24T18:32:40Z</time>
      </trkpt>
      <trkpt lat="44.08857" lon="6.26319">
        <ele>687.296</ele>
        <time>2022-08-24T18:32:42Z</time>
      </trkpt>
      <trkpt lat="44.08859" lon="6.26306">
        <ele>686.631</ele>
        <time>2022-08-24T18:32:43Z</time>
      </trkpt>
      <trkpt lat="44.08867" lon="6.26282">
        <ele>686.424</ele>
        <time>2022-08-24T18:32:45Z</time>
      </trkpt>
      <trkpt lat="44.08872" lon="6.2627">
        <ele>686.609</ele>
        <time>2022-08-24T18:32:46Z</time>
      </trkpt>
      <trkpt lat="44.08891" lon="6.26222">
        <ele>685.88</ele>
        <time>2022-08-24T18:32:50Z</time>
      </trkpt>
      <trkpt lat="44.08903" lon="6.26201">
        <ele>685.09</ele>
        <time>2022-08-24T18:32:52Z</time>
      </trkpt>
      <trkpt lat="44.0891" lon="6.26191">
        <ele>683.88</ele>
        <time>2022-08-24T18:32:53Z</time>
      </trkpt>
      <trkpt lat="44.08917" lon="6.26182">
        <ele>683.496</ele>
        <time>2022-08-24T18:32:54Z</time>
      </trkpt>
      <trkpt lat="44.08932" lon="6.26165">
        <ele>683.459</ele>
        <time>2022-08-24T18:32:56Z</time>
      </trkpt>
      <trkpt lat="44.08959" lon="6.26129">
        <ele>685.232</ele>
        <time>2022-08-24T18:33:00Z</time>
      </trkpt>
      <trkpt lat="44.08964" lon="6.26119">
        <ele>685.478</ele>
        <time>2022-08-24T18:33:01Z</time>
      </trkpt>
      <trkpt lat="44.08972" lon="6.26096">
        <ele>685.452</ele>
        <time>2022-08-24T18:33:03Z</time>
      </trkpt>
      <trkpt lat="44.08978" lon="6.26073">
        <ele>685.485</ele>
        <time>2022-08-24T18:33:05Z</time>
      </trkpt>
      <trkpt lat="44.08998" lon="6.25995">
        <ele>684.484</ele>
        <time>2022-08-24T18:33:12Z</time>
      </trkpt>
      <trkpt lat="44.09004" lon="6.25973">
        <ele>684.407</ele>
        <time>2022-08-24T18:33:14Z</time>
      </trkpt>
      <trkpt lat="44.09013" lon="6.25955">
        <ele>684.217</ele>
        <time>2022-08-24T18:33:16Z</time>
      </trkpt>
      <trkpt lat="44.09024" lon="6.25938">
        <ele>684.009</ele>
        <time>2022-08-24T18:33:18Z</time>
      </trkpt>
      <trkpt lat="44.09041" lon="6.25914">
        <ele>684.029</ele>
        <time>2022-08-24T18:33:21Z</time>
      </trkpt>
      <trkpt lat="44.0906" lon="6.2588">
        <ele>684.019</ele>
        <time>2022-08-24T18:33:25Z</time>
      </trkpt>
      <trkpt lat="44.09063" lon="6.25871">
        <ele>684.029</ele>
        <time>2022-08-24T18:33:26Z</time>
      </trkpt>
      <trkpt lat="44.0907" lon="6.2584">
        <ele>683.095</ele>
        <time>2022-08-24T18:33:29Z</time>
      </trkpt>
      <trkpt lat="44.09072" lon="6.25818">
        <ele>683.828</ele>
        <time>2022-08-24T18:33:31Z</time>
      </trkpt>
      <trkpt lat="44.09073" lon="6.25807">
        <ele>684.021</ele>
        <time>2022-08-24T18:33:32Z</time>
      </trkpt>
      <trkpt lat="44.09072" lon="6.2576">
        <ele>683.667</ele>
        <time>2022-08-24T18:33:36Z</time>
      </trkpt>
      <trkpt lat="44.09071" lon="6.25749">
        <ele>683.011</ele>
        <time>2022-08-24T18:33:37Z</time>
      </trkpt>
      <trkpt lat="44.09068" lon="6.25726">
        <ele>682.444</ele>
        <time>2022-08-24T18:33:39Z</time>
      </trkpt>
      <trkpt lat="44.0906" lon="6.25705">
        <ele>682.473</ele>
        <time>2022-08-24T18:33:41Z</time>
      </trkpt>
      <trkpt lat="44.09049" lon="6.25685">
        <ele>682.285</ele>
        <time>2022-08-24T18:33:43Z</time>
      </trkpt>
      <trkpt lat="44.09041" lon="6.25662">
        <ele>682.213</ele>
        <time>2022-08-24T18:33:45Z</time>
      </trkpt>
      <trkpt lat="44.09037" lon="6.25638">
        <ele>681.809</ele>
        <time>2022-08-24T18:33:47Z</time>
      </trkpt>
      <trkpt lat="44.09035" lon="6.25614">
        <ele>682.088</ele>
        <time>2022-08-24T18:33:49Z</time>
      </trkpt>
      <trkpt lat="44.09033" lon="6.2559">
        <ele>682.058</ele>
        <time>2022-08-24T18:33:51Z</time>
      </trkpt>
      <trkpt lat="44.09029" lon="6.25565">
        <ele>682.298</ele>
        <time>2022-08-24T18:33:53Z</time>
      </trkpt>
      <trkpt lat="44.09019" lon="6.25543">
        <ele>681.894</ele>
        <time>2022-08-24T18:33:55Z</time>
      </trkpt>
      <trkpt lat="44.09013" lon="6.25532">
        <ele>681.427</ele>
        <time>2022-08-24T18:33:56Z</time>
      </trkpt>
      <trkpt lat="44.09006" lon="6.25523">
        <ele>681.46</ele>
        <time>2022-08-24T18:33:57Z</time>
      </trkpt>
      <trkpt lat="44.08993" lon="6.25504">
        <ele>680.626</ele>
        <time>2022-08-24T18:33:59Z</time>
      </trkpt>
      <trkpt lat="44.08987" lon="6.25494">
        <ele>680.22</ele>
        <time>2022-08-24T18:34:00Z</time>
      </trkpt>
      <trkpt lat="44.08968" lon="6.25465">
        <ele>679.423</ele>
        <time>2022-08-24T18:34:03Z</time>
      </trkpt>
      <trkpt lat="44.08955" lon="6.25447">
        <ele>678.273</ele>
        <time>2022-08-24T18:34:05Z</time>
      </trkpt>
      <trkpt lat="44.08944" lon="6.25429">
        <ele>677.285</ele>
        <time>2022-08-24T18:34:07Z</time>
      </trkpt>
      <trkpt lat="44.08938" lon="6.25408">
        <ele>678.213</ele>
        <time>2022-08-24T18:34:09Z</time>
      </trkpt>
      <trkpt lat="44.08936" lon="6.25397">
        <ele>678.209</ele>
        <time>2022-08-24T18:34:10Z</time>
      </trkpt>
      <trkpt lat="44.08936" lon="6.25386">
        <ele>679.058</ele>
        <time>2022-08-24T18:34:11Z</time>
      </trkpt>
      <trkpt lat="44.08936" lon="6.25374">
        <ele>679.228</ele>
        <time>2022-08-24T18:34:12Z</time>
      </trkpt>
      <trkpt lat="44.08936" lon="6.25342">
        <ele>680.058</ele>
        <time>2022-08-24T18:34:15Z</time>
      </trkpt>
      <trkpt lat="44.08938" lon="6.25312">
        <ele>680.464</ele>
        <time>2022-08-24T18:34:18Z</time>
      </trkpt>
      <trkpt lat="44.0894" lon="6.25283">
        <ele>681.087</ele>
        <time>2022-08-24T18:34:21Z</time>
      </trkpt>
      <trkpt lat="44.0894" lon="6.25274">
        <ele>681.69</ele>
        <time>2022-08-24T18:34:22Z</time>
      </trkpt>
      <trkpt lat="44.08943" lon="6.25224">
        <ele>682.056</ele>
        <time>2022-08-24T18:34:27Z</time>
      </trkpt>
      <trkpt lat="44.08954" lon="6.25173">
        <ele>680.03</ele>
        <time>2022-08-24T18:34:32Z</time>
      </trkpt>
      <trkpt lat="44.08965" lon="6.25129">
        <ele>679.413</ele>
        <time>2022-08-24T18:34:36Z</time>
      </trkpt>
      <trkpt lat="44.08967" lon="6.25117">
        <ele>679.885</ele>
        <time>2022-08-24T18:34:37Z</time>
      </trkpt>
      <trkpt lat="44.08984" lon="6.25048">
        <ele>679.289</ele>
        <time>2022-08-24T18:34:43Z</time>
      </trkpt>
      <trkpt lat="44.08992" lon="6.25027">
        <ele>679.017</ele>
        <time>2022-08-24T18:34:45Z</time>
      </trkpt>
      <trkpt lat="44.09001" lon="6.25007">
        <ele>678.809</ele>
        <time>2022-08-24T18:34:47Z</time>
      </trkpt>
      <trkpt lat="44.09006" lon="6.24996">
        <ele>678.639</ele>
        <time>2022-08-24T18:34:48Z</time>
      </trkpt>
      <trkpt lat="44.0901" lon="6.24986">
        <ele>678.489</ele>
        <time>2022-08-24T18:34:49Z</time>
      </trkpt>
      <trkpt lat="44.09018" lon="6.24951">
        <ele>678.089</ele>
        <time>2022-08-24T18:34:52Z</time>
      </trkpt>
      <trkpt lat="44.09033" lon="6.24919">
        <ele>677.865</ele>
        <time>2022-08-24T18:34:55Z</time>
      </trkpt>
      <trkpt lat="44.09039" lon="6.2491">
        <ele>677.618</ele>
        <time>2022-08-24T18:34:56Z</time>
      </trkpt>
      <trkpt lat="44.09058" lon="6.24884">
        <ele>676.651</ele>
        <time>2022-08-24T18:34:59Z</time>
      </trkpt>
      <trkpt lat="44.09071" lon="6.24867">
        <ele>675.467</ele>
        <time>2022-08-24T18:35:01Z</time>
      </trkpt>
      <trkpt lat="44.09088" lon="6.24838">
        <ele>674.831</ele>
        <time>2022-08-24T18:35:04Z</time>
      </trkpt>
      <trkpt lat="44.09104" lon="6.24808">
        <ele>674.414</ele>
        <time>2022-08-24T18:35:07Z</time>
      </trkpt>
      <trkpt lat="44.09108" lon="6.24798">
        <ele>674.468</ele>
        <time>2022-08-24T18:35:08Z</time>
      </trkpt>
      <trkpt lat="44.09117" lon="6.24778">
        <ele>673.642</ele>
        <time>2022-08-24T18:35:10Z</time>
      </trkpt>
      <trkpt lat="44.09121" lon="6.24768">
        <ele>673.426</ele>
        <time>2022-08-24T18:35:11Z</time>
      </trkpt>
      <trkpt lat="44.09129" lon="6.24735">
        <ele>672.409</ele>
        <time>2022-08-24T18:35:14Z</time>
      </trkpt>
      <trkpt lat="44.09135" lon="6.24702">
        <ele>672.417</ele>
        <time>2022-08-24T18:35:17Z</time>
      </trkpt>
      <trkpt lat="44.09137" lon="6.24691">
        <ele>672.497</ele>
        <time>2022-08-24T18:35:18Z</time>
      </trkpt>
      <trkpt lat="44.09146" lon="6.24649">
        <ele>673.037</ele>
        <time>2022-08-24T18:35:22Z</time>
      </trkpt>
      <trkpt lat="44.09153" lon="6.24607">
        <ele>672.893</ele>
        <time>2022-08-24T18:35:26Z</time>
      </trkpt>
      <trkpt lat="44.0915" lon="6.24557">
        <ele>672.086</ele>
        <time>2022-08-24T18:35:31Z</time>
      </trkpt>
      <trkpt lat="44.09143" lon="6.24499">
        <ele>672.229</ele>
        <time>2022-08-24T18:35:37Z</time>
      </trkpt>
      <trkpt lat="44.09137" lon="6.24459">
        <ele>671.285</ele>
        <time>2022-08-24T18:35:41Z</time>
      </trkpt>
      <trkpt lat="44.09134" lon="6.24437">
        <ele>669.839</ele>
        <time>2022-08-24T18:35:43Z</time>
      </trkpt>
      <trkpt lat="44.09132" lon="6.24427">
        <ele>669.222</ele>
        <time>2022-08-24T18:35:44Z</time>
      </trkpt>
      <trkpt lat="44.09125" lon="6.24415">
        <ele>668.615</ele>
        <time>2022-08-24T18:35:46Z</time>
      </trkpt>
      <trkpt lat="44.09116" lon="6.2441">
        <ele>668.865</ele>
        <time>2022-08-24T18:35:49Z</time>
      </trkpt>
      <trkpt lat="44.09112" lon="6.24412">
        <ele>669.211</ele>
        <time>2022-08-24T18:35:50Z</time>
      </trkpt>
      <trkpt lat="44.09105" lon="6.24421">
        <ele>669.609</ele>
        <time>2022-08-24T18:35:52Z</time>
      </trkpt>
      <trkpt lat="44.09091" lon="6.24447">
        <ele>669.052</ele>
        <time>2022-08-24T18:35:56Z</time>
      </trkpt>
      <trkpt lat="44.09087" lon="6.24454">
        <ele>668.472</ele>
        <time>2022-08-24T18:35:57Z</time>
      </trkpt>
      <trkpt lat="44.09075" lon="6.24473">
        <ele>667.652</ele>
        <time>2022-08-24T18:36:00Z</time>
      </trkpt>
      <trkpt lat="44.0907" lon="6.24475">
        <ele>667.688</ele>
        <time>2022-08-24T18:36:01Z</time>
      </trkpt>
      <trkpt lat="44.09065" lon="6.24467">
        <ele>667.451</ele>
        <time>2022-08-24T18:36:03Z</time>
      </trkpt>
      <trkpt lat="44.09062" lon="6.24456">
        <ele>667.474</ele>
        <time>2022-08-24T18:36:06Z</time>
      </trkpt>
      <trkpt lat="44.09062" lon="6.24459">
        <ele>667.63</ele>
        <time>2022-08-24T18:36:07Z</time>
      </trkpt>
      <trkpt lat="44.09062" lon="6.24463">
        <ele>667.624</ele>
        <time>2022-08-24T18:36:08Z</time>
      </trkpt>
      <trkpt lat="44.09062" lon="6.24468">
        <ele>667.617</ele>
        <time>2022-08-24T18:36:09Z</time>
      </trkpt>
      <trkpt lat="44.09058" lon="6.24479">
        <ele>667.659</ele>
        <time>2022-08-24T18:36:11Z</time>
      </trkpt>
      <trkpt lat="44.09056" lon="6.24484">
        <ele>667.403</ele>
        <time>2022-08-24T18:36:12Z</time>
      </trkpt>
      <trkpt lat="44.09057" lon="6.2449">
        <ele>667.023</ele>
        <time>2022-08-24T18:36:14Z</time>
      </trkpt>
      <trkpt lat="44.09059" lon="6.24494">
        <ele>667.009</ele>
        <time>2022-08-24T18:36:19Z</time>
      </trkpt>
      <trkpt lat="44.09059" lon="6.24497">
        <ele>667.256</ele>
        <time>2022-08-24T18:36:23Z</time>
      </trkpt>
      <trkpt lat="44.09058" lon="6.24497">
        <ele>667.236</ele>
        <time>2022-08-24T18:36:24Z</time>
      </trkpt>
      <trkpt lat="44.09055" lon="6.24494">
        <ele>666.826</ele>
        <time>2022-08-24T18:36:33Z</time>
      </trkpt>
      <trkpt lat="44.09056" lon="6.24492">
        <ele>666.612</ele>
        <time>2022-08-24T18:36:34Z</time>
      </trkpt>
      <trkpt lat="44.09058" lon="6.24489">
        <ele>666.655</ele>
        <time>2022-08-24T18:36:35Z</time>
      </trkpt>
      <trkpt lat="44.0906" lon="6.24487">
        <ele>666.868</ele>
        <time>2022-08-24T18:36:36Z</time>
      </trkpt>
      <trkpt lat="44.09068" lon="6.24484">
        <ele>666.814</ele>
        <time>2022-08-24T18:36:38Z</time>
      </trkpt>
      <trkpt lat="44.09077" lon="6.24479">
        <ele>666.838</ele>
        <time>2022-08-24T18:36:40Z</time>
      </trkpt>
      <trkpt lat="44.09081" lon="6.24474">
        <ele>667.051</ele>
        <time>2022-08-24T18:36:41Z</time>
      </trkpt>
      <trkpt lat="44.09085" lon="6.24468">
        <ele>667.265</ele>
        <time>2022-08-24T18:36:42Z</time>
      </trkpt>
      <trkpt lat="44.09099" lon="6.24443">
        <ele>668.268</ele>
        <time>2022-08-24T18:36:46Z</time>
      </trkpt>
      <trkpt lat="44.09106" lon="6.2443">
        <ele>668.614</ele>
        <time>2022-08-24T18:36:48Z</time>
      </trkpt>
      <trkpt lat="44.09115" lon="6.24411">
        <ele>669.009</ele>
        <time>2022-08-24T18:36:51Z</time>
      </trkpt>
      <trkpt lat="44.09119" lon="6.24395">
        <ele>669.277</ele>
        <time>2022-08-24T18:36:53Z</time>
      </trkpt>
      <trkpt lat="44.09123" lon="6.24358">
        <ele>666.647</ele>
        <time>2022-08-24T18:36:57Z</time>
      </trkpt>
      <trkpt lat="44.09124" lon="6.24336">
        <ele>665.267</ele>
        <time>2022-08-24T18:36:59Z</time>
      </trkpt>
      <trkpt lat="44.09124" lon="6.24325">
        <ele>664.613</ele>
        <time>2022-08-24T18:37:00Z</time>
      </trkpt>
      <trkpt lat="44.09122" lon="6.24315">
        <ele>664.456</ele>
        <time>2022-08-24T18:37:01Z</time>
      </trkpt>
      <trkpt lat="44.09119" lon="6.24305">
        <ele>663.869</ele>
        <time>2022-08-24T18:37:02Z</time>
      </trkpt>
      <trkpt lat="44.0911" lon="6.24287">
        <ele>663.275</ele>
        <time>2022-08-24T18:37:04Z</time>
      </trkpt>
      <trkpt lat="44.09095" lon="6.24259">
        <ele>662.879</ele>
        <time>2022-08-24T18:37:07Z</time>
      </trkpt>
      <trkpt lat="44.09086" lon="6.24242">
        <ele>661.822</ele>
        <time>2022-08-24T18:37:09Z</time>
      </trkpt>
      <trkpt lat="44.09072" lon="6.24215">
        <ele>660.448</ele>
        <time>2022-08-24T18:37:12Z</time>
      </trkpt>
      <trkpt lat="44.09054" lon="6.2418">
        <ele>659.661</ele>
        <time>2022-08-24T18:37:16Z</time>
      </trkpt>
      <trkpt lat="44.09035" lon="6.24144">
        <ele>659.417</ele>
        <time>2022-08-24T18:37:20Z</time>
      </trkpt>
      <trkpt lat="44.09021" lon="6.24116">
        <ele>659.609</ele>
        <time>2022-08-24T18:37:23Z</time>
      </trkpt>
      <trkpt lat="44.09007" lon="6.24088">
        <ele>659.695</ele>
        <time>2022-08-24T18:37:26Z</time>
      </trkpt>
      <trkpt lat="44.08993" lon="6.24059">
        <ele>659.255</ele>
        <time>2022-08-24T18:37:29Z</time>
      </trkpt>
      <trkpt lat="44.08983" lon="6.24028">
        <ele>660.445</ele>
        <time>2022-08-24T18:37:32Z</time>
      </trkpt>
      <trkpt lat="44.08977" lon="6.24007">
        <ele>661.481</ele>
        <time>2022-08-24T18:37:34Z</time>
      </trkpt>
      <trkpt lat="44.08975" lon="6.23996">
        <ele>661.694</ele>
        <time>2022-08-24T18:37:35Z</time>
      </trkpt>
      <trkpt lat="44.08972" lon="6.23962">
        <ele>662.077</ele>
        <time>2022-08-24T18:37:38Z</time>
      </trkpt>
      <trkpt lat="44.08971" lon="6.2395">
        <ele>661.823</ele>
        <time>2022-08-24T18:37:39Z</time>
      </trkpt>
      <trkpt lat="44.08972" lon="6.23928">
        <ele>661.077</ele>
        <time>2022-08-24T18:37:41Z</time>
      </trkpt>
      <trkpt lat="44.08973" lon="6.23906">
        <ele>660.69</ele>
        <time>2022-08-24T18:37:43Z</time>
      </trkpt>
      <trkpt lat="44.08974" lon="6.23895">
        <ele>660.432</ele>
        <time>2022-08-24T18:37:44Z</time>
      </trkpt>
      <trkpt lat="44.08979" lon="6.23855">
        <ele>658.892</ele>
        <time>2022-08-24T18:37:48Z</time>
      </trkpt>
      <trkpt lat="44.0898" lon="6.23845">
        <ele>658.411</ele>
        <time>2022-08-24T18:37:49Z</time>
      </trkpt>
      <trkpt lat="44.08979" lon="6.2383">
        <ele>658.009</ele>
        <time>2022-08-24T18:37:51Z</time>
      </trkpt>
      <trkpt lat="44.08978" lon="6.23825">
        <ele>658.014</ele>
        <time>2022-08-24T18:37:52Z</time>
      </trkpt>
      <trkpt lat="44.08975" lon="6.23821">
        <ele>659.264</ele>
        <time>2022-08-24T18:37:55Z</time>
      </trkpt>
      <trkpt lat="44.08975" lon="6.23815">
        <ele>659.874</ele>
        <time>2022-08-24T18:37:58Z</time>
      </trkpt>
      <trkpt lat="44.08976" lon="6.23809">
        <ele>659.84</ele>
        <time>2022-08-24T18:38:01Z</time>
      </trkpt>
      <trkpt lat="44.08974" lon="6.2381">
        <ele>659.673</ele>
        <time>2022-08-24T18:38:05Z</time>
      </trkpt>
      <trkpt lat="44.08974" lon="6.23827">
        <ele>659.656</ele>
        <time>2022-08-24T18:38:09Z</time>
      </trkpt>
      <trkpt lat="44.08969" lon="6.2385">
        <ele>659.882</ele>
        <time>2022-08-24T18:38:14Z</time>
      </trkpt>
      <trkpt lat="44.08968" lon="6.23848">
        <ele>659.856</ele>
        <time>2022-08-24T18:38:16Z</time>
      </trkpt>
      <trkpt lat="44.08968" lon="6.23849">
        <ele>660.079</ele>
        <time>2022-08-24T18:38:17Z</time>
      </trkpt>
      <trkpt lat="44.08964" lon="6.23853">
        <ele>659.881</ele>
        <time>2022-08-24T18:38:39Z</time>
      </trkpt>
      <trkpt lat="44.08965" lon="6.23856">
        <ele>660.061</ele>
        <time>2022-08-24T18:38:41Z</time>
      </trkpt>
      <trkpt lat="44.08964" lon="6.23859">
        <ele>659.817</ele>
        <time>2022-08-24T18:38:43Z</time>
      </trkpt>
    </trkseg>
  </trk>
</gpx>